<?xml version='1.0' encoding='UTF-8'?><gpx version="1.1" creator="JPX - https://github.com/jenetics/jpx" xmlns="http://www.topografix.com/GPX/1/1"><trk><trkseg><trkpt lat="43.5158433" lon="12.3555817"><ele>730.0</ele><time>2026-04-18T11:15:18.61Z</time></trkpt><trkpt lat="43.5157933" lon="12.3556717"><ele>730.0</ele><time>2026-04-18T11:15:20.61Z</time></trkpt><trkpt lat="43.5157467" lon="12.3557683"><ele>730.0</ele><time>2026-04-18T11:15:21.61Z</time></trkpt><trkpt lat="43.51569" lon="12.3558883"><ele>730.0</ele><time>2026-04-18T11:15:22.61Z</time></trkpt><trkpt lat="43.51563" lon="12.356055"><ele>730.0</ele><time>2026-04-18T11:15:23.61Z</time></trkpt><trkpt lat="43.515595" lon="12.356235"><ele>731.3333333333334</ele><time>2026-04-18T11:15:24.61Z</time></trkpt><trkpt lat="43.515595" lon="12.3564517"><ele>732.6666666666666</ele><time>2026-04-18T11:15:25.61Z</time></trkpt><trkpt lat="43.51562" lon="12.3566783"><ele>734.0</ele><time>2026-04-18T11:15:26.61Z</time></trkpt><trkpt lat="43.5156583" lon="12.3568733"><ele>734.0</ele><time>2026-04-18T11:15:27.61Z</time></trkpt><trkpt lat="43.5156983" lon="12.3570317"><ele>734.0</ele><time>2026-04-18T11:15:28.61Z</time></trkpt><trkpt lat="43.5157517" lon="12.35713"><ele>734.0</ele><time>2026-04-18T11:15:29.61Z</time></trkpt><trkpt lat="43.5158033" lon="12.3572183"><ele>734.0</ele><time>2026-04-18T11:15:30.61Z</time></trkpt><trkpt lat="43.515825" lon="12.3573067"><ele>734.0</ele><time>2026-04-18T11:15:31.61Z</time></trkpt><trkpt lat="43.5158167" lon="12.3574033"><ele>734.0</ele><time>2026-04-18T11:15:32.61Z</time></trkpt><trkpt lat="43.5157917" lon="12.3575133"><ele>734.5</ele><time>2026-04-18T11:15:33.61Z</time></trkpt><trkpt lat="43.5157433" lon="12.3576483"><ele>735.0</ele><time>2026-04-18T11:15:34.61Z</time></trkpt><trkpt lat="43.5156667" lon="12.3578017"><ele>735.5</ele><time>2026-04-18T11:15:35.61Z</time></trkpt><trkpt lat="43.5155833" lon="12.3579617"><ele>736.0</ele><time>2026-04-18T11:15:36.61Z</time></trkpt><trkpt lat="43.515515" lon="12.3581133"><ele>739.25</ele><time>2026-04-18T11:15:37.61Z</time></trkpt><trkpt lat="43.5154683" lon="12.3583"><ele>742.5</ele><time>2026-04-18T11:15:38.61Z</time></trkpt><trkpt lat="43.5154467" lon="12.3585217"><ele>745.75</ele><time>2026-04-18T11:15:39.61Z</time></trkpt><trkpt lat="43.51545" lon="12.3587033"><ele>749.0</ele><time>2026-04-18T11:15:40.61Z</time></trkpt><trkpt lat="43.5154867" lon="12.358875"><ele>751.25</ele><time>2026-04-18T11:15:41.61Z</time></trkpt><trkpt lat="43.5155383" lon="12.35904"><ele>753.5</ele><time>2026-04-18T11:15:42.61Z</time></trkpt><trkpt lat="43.5156133" lon="12.3592117"><ele>755.75</ele><time>2026-04-18T11:15:43.61Z</time></trkpt><trkpt lat="43.51571" lon="12.35941"><ele>758.0</ele><time>2026-04-18T11:15:44.61Z</time></trkpt><trkpt lat="43.515815" lon="12.3595883"><ele>758.6666666666666</ele><time>2026-04-18T11:15:45.61Z</time></trkpt><trkpt lat="43.5159217" lon="12.359775"><ele>759.3333333333334</ele><time>2026-04-18T11:15:46.61Z</time></trkpt><trkpt lat="43.51601" lon="12.3599433"><ele>760.0</ele><time>2026-04-18T11:15:47.61Z</time></trkpt><trkpt lat="43.516095" lon="12.3600767"><ele>760.0</ele><time>2026-04-18T11:15:48.61Z</time></trkpt><trkpt lat="43.5161883" lon="12.3602033"><ele>760.0</ele><time>2026-04-18T11:15:49.61Z</time></trkpt><trkpt lat="43.5162617" lon="12.3603217"><ele>760.0</ele><time>2026-04-18T11:15:50.61Z</time></trkpt><trkpt lat="43.5163183" lon="12.360435"><ele>760.0</ele><time>2026-04-18T11:15:51.61Z</time></trkpt><trkpt lat="43.516365" lon="12.3605833"><ele>762.75</ele><time>2026-04-18T11:15:52.61Z</time></trkpt><trkpt lat="43.516405" lon="12.3607567"><ele>765.5</ele><time>2026-04-18T11:15:53.61Z</time></trkpt><trkpt lat="43.5164383" lon="12.3609267"><ele>768.25</ele><time>2026-04-18T11:15:54.61Z</time></trkpt><trkpt lat="43.5164683" lon="12.3610883"><ele>771.0</ele><time>2026-04-18T11:15:55.61Z</time></trkpt><trkpt lat="43.5164717" lon="12.3612367"><ele>772.75</ele><time>2026-04-18T11:15:56.61Z</time></trkpt><trkpt lat="43.51646" lon="12.361405"><ele>774.5</ele><time>2026-04-18T11:15:57.61Z</time></trkpt><trkpt lat="43.5164417" lon="12.361585"><ele>776.25</ele><time>2026-04-18T11:15:58.61Z</time></trkpt><trkpt lat="43.51641" lon="12.36176"><ele>778.0</ele><time>2026-04-18T11:15:59.61Z</time></trkpt><trkpt lat="43.5163517" lon="12.361915"><ele>778.0</ele><time>2026-04-18T11:16:00.61Z</time></trkpt><trkpt lat="43.516305" lon="12.3620617"><ele>778.0</ele><time>2026-04-18T11:16:01.61Z</time></trkpt><trkpt lat="43.5162767" lon="12.3621833"><ele>778.0</ele><time>2026-04-18T11:16:02.61Z</time></trkpt><trkpt lat="43.5162533" lon="12.3622967"><ele>778.0</ele><time>2026-04-18T11:16:03.61Z</time></trkpt><trkpt lat="43.5162417" lon="12.3624167"><ele>778.0</ele><time>2026-04-18T11:16:04.61Z</time></trkpt><trkpt lat="43.5162517" lon="12.3625333"><ele>779.5999999999999</ele><time>2026-04-18T11:16:05.61Z</time></trkpt><trkpt lat="43.5162783" lon="12.3626467"><ele>781.1999999999999</ele><time>2026-04-18T11:16:06.61Z</time></trkpt><trkpt lat="43.516345" lon="12.3627533"><ele>782.8</ele><time>2026-04-18T11:16:07.61Z</time></trkpt><trkpt lat="43.5164283" lon="12.3628683"><ele>784.4</ele><time>2026-04-18T11:16:08.61Z</time></trkpt><trkpt lat="43.5165" lon="12.3630117"><ele>786.0</ele><time>2026-04-18T11:16:09.61Z</time></trkpt><trkpt lat="43.5165667" lon="12.363165"><ele>786.0</ele><time>2026-04-18T11:16:10.61Z</time></trkpt><trkpt lat="43.516625" lon="12.3633417"><ele>786.0</ele><time>2026-04-18T11:16:11.609Z</time></trkpt><trkpt lat="43.516655" lon="12.363545"><ele>786.0</ele><time>2026-04-18T11:16:12.61Z</time></trkpt><trkpt lat="43.5166533" lon="12.3637717"><ele>786.0</ele><time>2026-04-18T11:16:13.61Z</time></trkpt><trkpt lat="43.5166333" lon="12.3639967"><ele>786.0</ele><time>2026-04-18T11:16:14.61Z</time></trkpt><trkpt lat="43.5166117" lon="12.3641933"><ele>786.0</ele><time>2026-04-18T11:16:15.61Z</time></trkpt><trkpt lat="43.5165817" lon="12.3643683"><ele>786.0</ele><time>2026-04-18T11:16:16.61Z</time></trkpt><trkpt lat="43.5165317" lon="12.364495"><ele>786.0</ele><time>2026-04-18T11:16:17.61Z</time></trkpt><trkpt lat="43.5164717" lon="12.3646033"><ele>786.0</ele><time>2026-04-18T11:16:18.61Z</time></trkpt><trkpt lat="43.5163833" lon="12.3646783"><ele>786.0</ele><time>2026-04-18T11:16:19.61Z</time></trkpt><trkpt lat="43.5162767" lon="12.3647233"><ele>786.0</ele><time>2026-04-18T11:16:20.61Z</time></trkpt><trkpt lat="43.51617" lon="12.3647533"><ele>786.0</ele><time>2026-04-18T11:16:21.61Z</time></trkpt><trkpt lat="43.5160683" lon="12.3647717"><ele>783.1666666666666</ele><time>2026-04-18T11:16:22.61Z</time></trkpt><trkpt lat="43.5159883" lon="12.3647917"><ele>780.3333333333333</ele><time>2026-04-18T11:16:23.61Z</time></trkpt><trkpt lat="43.5159133" lon="12.3648283"><ele>777.5</ele><time>2026-04-18T11:16:24.61Z</time></trkpt><trkpt lat="43.515855" lon="12.3648883"><ele>774.6666666666666</ele><time>2026-04-18T11:16:25.61Z</time></trkpt><trkpt lat="43.5158083" lon="12.364975"><ele>771.8333333333333</ele><time>2026-04-18T11:16:26.61Z</time></trkpt><trkpt lat="43.5157783" lon="12.36509"><ele>769.0</ele><time>2026-04-18T11:16:27.61Z</time></trkpt><trkpt lat="43.5157583" lon="12.3652267"><ele>769.0</ele><time>2026-04-18T11:16:28.609Z</time></trkpt><trkpt lat="43.515775" lon="12.365355"><ele>769.0</ele><time>2026-04-18T11:16:29.61Z</time></trkpt><trkpt lat="43.5158017" lon="12.3654717"><ele>769.0</ele><time>2026-04-18T11:16:30.61Z</time></trkpt><trkpt lat="43.515845" lon="12.3655683"><ele>769.0</ele><time>2026-04-18T11:16:31.61Z</time></trkpt><trkpt lat="43.5159183" lon="12.36567"><ele>769.0</ele><time>2026-04-18T11:16:32.61Z</time></trkpt><trkpt lat="43.5160017" lon="12.3657833"><ele>769.0</ele><time>2026-04-18T11:16:33.61Z</time></trkpt><trkpt lat="43.5160967" lon="12.3659317"><ele>769.0</ele><time>2026-04-18T11:16:34.61Z</time></trkpt><trkpt lat="43.5161717" lon="12.3660917"><ele>769.0</ele><time>2026-04-18T11:16:35.61Z</time></trkpt><trkpt lat="43.5162383" lon="12.3662717"><ele>769.0</ele><time>2026-04-18T11:16:36.61Z</time></trkpt><trkpt lat="43.5162733" lon="12.3664333"><ele>767.25</ele><time>2026-04-18T11:16:37.61Z</time></trkpt><trkpt lat="43.516275" lon="12.3666"><ele>765.5</ele><time>2026-04-18T11:16:38.61Z</time></trkpt><trkpt lat="43.5162583" lon="12.3667783"><ele>763.75</ele><time>2026-04-18T11:16:39.61Z</time></trkpt><trkpt lat="43.5162433" lon="12.3669683"><ele>762.0</ele><time>2026-04-18T11:16:40.61Z</time></trkpt><trkpt lat="43.5162183" lon="12.3671467"><ele>763.5</ele><time>2026-04-18T11:16:41.61Z</time></trkpt><trkpt lat="43.5161833" lon="12.3673133"><ele>765.0</ele><time>2026-04-18T11:16:42.61Z</time></trkpt><trkpt lat="43.5161317" lon="12.367465"><ele>766.5</ele><time>2026-04-18T11:16:43.61Z</time></trkpt><trkpt lat="43.516055" lon="12.3676217"><ele>768.0</ele><time>2026-04-18T11:16:44.61Z</time></trkpt><trkpt lat="43.5159583" lon="12.3677767"><ele>768.0</ele><time>2026-04-18T11:16:45.61Z</time></trkpt><trkpt lat="43.5158567" lon="12.3679133"><ele>768.0</ele><time>2026-04-18T11:16:46.61Z</time></trkpt><trkpt lat="43.515745" lon="12.3680383"><ele>768.0</ele><time>2026-04-18T11:16:47.61Z</time></trkpt><trkpt lat="43.5156367" lon="12.368155"><ele>768.0</ele><time>2026-04-18T11:16:48.61Z</time></trkpt><trkpt lat="43.51553" lon="12.3682683"><ele>769.5999999999999</ele><time>2026-04-18T11:16:49.61Z</time></trkpt><trkpt lat="43.5154233" lon="12.3683717"><ele>771.1999999999999</ele><time>2026-04-18T11:16:50.61Z</time></trkpt><trkpt lat="43.515325" lon="12.3684583"><ele>772.8</ele><time>2026-04-18T11:16:51.61Z</time></trkpt><trkpt lat="43.51524" lon="12.36854"><ele>774.4</ele><time>2026-04-18T11:16:52.61Z</time></trkpt><trkpt lat="43.5151783" lon="12.3686183"><ele>776.0</ele><time>2026-04-18T11:16:53.609Z</time></trkpt><trkpt lat="43.5151367" lon="12.3687033"><ele>771.25</ele><time>2026-04-18T11:16:54.61Z</time></trkpt><trkpt lat="43.5150967" lon="12.3688883"><ele>766.5</ele><time>2026-04-18T11:16:56.61Z</time></trkpt><trkpt lat="43.5150867" lon="12.3690383"><ele>761.75</ele><time>2026-04-18T11:16:57.61Z</time></trkpt><trkpt lat="43.515095" lon="12.3692017"><ele>757.0</ele><time>2026-04-18T11:16:58.61Z</time></trkpt><trkpt lat="43.515085" lon="12.3693633"><ele>757.0</ele><time>2026-04-18T11:16:59.61Z</time></trkpt><trkpt lat="43.515045" lon="12.3695017"><ele>757.0</ele><time>2026-04-18T11:17:00.61Z</time></trkpt><trkpt lat="43.5149917" lon="12.36962"><ele>757.0</ele><time>2026-04-18T11:17:01.61Z</time></trkpt><trkpt lat="43.5149267" lon="12.369685"><ele>757.0</ele><time>2026-04-18T11:17:02.61Z</time></trkpt><trkpt lat="43.5148383" lon="12.3697033"><ele>757.0</ele><time>2026-04-18T11:17:03.609Z</time></trkpt><trkpt lat="43.5147433" lon="12.36971"><ele>755.8</ele><time>2026-04-18T11:17:04.61Z</time></trkpt><trkpt lat="43.5146367" lon="12.3697117"><ele>754.6</ele><time>2026-04-18T11:17:05.61Z</time></trkpt><trkpt lat="43.514515" lon="12.3697083"><ele>753.4</ele><time>2026-04-18T11:17:06.61Z</time></trkpt><trkpt lat="43.5144017" lon="12.369705"><ele>752.1999999999999</ele><time>2026-04-18T11:17:07.61Z</time></trkpt><trkpt lat="43.514305" lon="12.3697217"><ele>751.0</ele><time>2026-04-18T11:17:08.61Z</time></trkpt><trkpt lat="43.51421" lon="12.3697817"><ele>753.5999999999999</ele><time>2026-04-18T11:17:09.61Z</time></trkpt><trkpt lat="43.5141133" lon="12.3698733"><ele>756.2</ele><time>2026-04-18T11:17:10.61Z</time></trkpt><trkpt lat="43.5140267" lon="12.3699733"><ele>758.8</ele><time>2026-04-18T11:17:11.61Z</time></trkpt><trkpt lat="43.51395" lon="12.37009"><ele>761.4000000000001</ele><time>2026-04-18T11:17:12.61Z</time></trkpt><trkpt lat="43.513885" lon="12.3702033"><ele>764.0</ele><time>2026-04-18T11:17:13.61Z</time></trkpt><trkpt lat="43.5138283" lon="12.37033"><ele>764.0</ele><time>2026-04-18T11:17:14.61Z</time></trkpt><trkpt lat="43.51379" lon="12.3704683"><ele>764.0</ele><time>2026-04-18T11:17:15.61Z</time></trkpt><trkpt lat="43.5137767" lon="12.3706417"><ele>764.0</ele><time>2026-04-18T11:17:16.61Z</time></trkpt><trkpt lat="43.5137917" lon="12.3708083"><ele>764.0</ele><time>2026-04-18T11:17:17.61Z</time></trkpt><trkpt lat="43.5138333" lon="12.3709717"><ele>762.8333333333333</ele><time>2026-04-18T11:17:18.61Z</time></trkpt><trkpt lat="43.5138633" lon="12.3711117"><ele>761.6666666666666</ele><time>2026-04-18T11:17:19.61Z</time></trkpt><trkpt lat="43.5138833" lon="12.3712167"><ele>760.5</ele><time>2026-04-18T11:17:20.61Z</time></trkpt><trkpt lat="43.5138783" lon="12.371305"><ele>759.3333333333334</ele><time>2026-04-18T11:17:21.61Z</time></trkpt><trkpt lat="43.5138417" lon="12.3714083"><ele>758.1666666666667</ele><time>2026-04-18T11:17:22.609Z</time></trkpt><trkpt lat="43.5137983" lon="12.37153"><ele>757.0</ele><time>2026-04-18T11:17:23.61Z</time></trkpt><trkpt lat="43.513775" lon="12.3716517"><ele>757.0</ele><time>2026-04-18T11:17:24.61Z</time></trkpt><trkpt lat="43.5137733" lon="12.3717633"><ele>757.0</ele><time>2026-04-18T11:17:25.61Z</time></trkpt><trkpt lat="43.51379" lon="12.3719033"><ele>757.0</ele><time>2026-04-18T11:17:26.61Z</time></trkpt><trkpt lat="43.513825" lon="12.3720283"><ele>757.0</ele><time>2026-04-18T11:17:27.61Z</time></trkpt><trkpt lat="43.51387" lon="12.372135"><ele>757.0</ele><time>2026-04-18T11:17:28.61Z</time></trkpt><trkpt lat="43.513895" lon="12.3722167"><ele>757.0</ele><time>2026-04-18T11:17:29.61Z</time></trkpt><trkpt lat="43.5138317" lon="12.37232"><ele>757.0</ele><time>2026-04-18T11:17:31.61Z</time></trkpt><trkpt lat="43.5137567" lon="12.372345"><ele>757.0</ele><time>2026-04-18T11:17:32.61Z</time></trkpt><trkpt lat="43.51364" lon="12.3723717"><ele>757.0</ele><time>2026-04-18T11:17:33.61Z</time></trkpt><trkpt lat="43.5134967" lon="12.37242"><ele>757.0</ele><time>2026-04-18T11:17:34.61Z</time></trkpt><trkpt lat="43.51335" lon="12.3724933"><ele>758.8</ele><time>2026-04-18T11:17:35.61Z</time></trkpt><trkpt lat="43.513235" lon="12.37256"><ele>760.6</ele><time>2026-04-18T11:17:36.61Z</time></trkpt><trkpt lat="43.5131417" lon="12.3725983"><ele>762.4</ele><time>2026-04-18T11:17:37.61Z</time></trkpt><trkpt lat="43.51307" lon="12.372685"><ele>764.1999999999999</ele><time>2026-04-18T11:17:38.61Z</time></trkpt><trkpt lat="43.51302" lon="12.3728033"><ele>766.0</ele><time>2026-04-18T11:17:39.61Z</time></trkpt><trkpt lat="43.51298" lon="12.3729333"><ele>761.5999999999999</ele><time>2026-04-18T11:17:40.61Z</time></trkpt><trkpt lat="43.5129533" lon="12.37306"><ele>757.2</ele><time>2026-04-18T11:17:41.61Z</time></trkpt><trkpt lat="43.5129283" lon="12.3731667"><ele>752.8</ele><time>2026-04-18T11:17:42.61Z</time></trkpt><trkpt lat="43.512905" lon="12.37325"><ele>748.4000000000001</ele><time>2026-04-18T11:17:43.61Z</time></trkpt><trkpt lat="43.512805" lon="12.3733067"><ele>744.0</ele><time>2026-04-18T11:17:45.61Z</time></trkpt><trkpt lat="43.5126733" lon="12.373245"><ele>744.0</ele><time>2026-04-18T11:17:47.61Z</time></trkpt><trkpt lat="43.5125817" lon="12.3731367"><ele>744.0</ele><time>2026-04-18T11:17:48.61Z</time></trkpt><trkpt lat="43.51247" lon="12.37302"><ele>744.0</ele><time>2026-04-18T11:17:49.61Z</time></trkpt><trkpt lat="43.5123667" lon="12.3729283"><ele>744.0</ele><time>2026-04-18T11:17:50.61Z</time></trkpt><trkpt lat="43.51226" lon="12.372865"><ele>742.8000000000001</ele><time>2026-04-18T11:17:51.61Z</time></trkpt><trkpt lat="43.5121533" lon="12.3727917"><ele>741.6</ele><time>2026-04-18T11:17:52.61Z</time></trkpt><trkpt lat="43.5120517" lon="12.3727083"><ele>740.4</ele><time>2026-04-18T11:17:53.61Z</time></trkpt><trkpt lat="43.5119567" lon="12.3726467"><ele>739.2</ele><time>2026-04-18T11:17:54.61Z</time></trkpt><trkpt lat="43.511855" lon="12.3726133"><ele>738.0</ele><time>2026-04-18T11:17:55.61Z</time></trkpt><trkpt lat="43.51176" lon="12.3725683"><ele>738.0</ele><time>2026-04-18T11:17:56.61Z</time></trkpt><trkpt lat="43.5116717" lon="12.372505"><ele>738.0</ele><time>2026-04-18T11:17:57.61Z</time></trkpt><trkpt lat="43.5115917" lon="12.3724533"><ele>738.0</ele><time>2026-04-18T11:17:58.61Z</time></trkpt><trkpt lat="43.5115267" lon="12.3723983"><ele>738.0</ele><time>2026-04-18T11:17:59.61Z</time></trkpt><trkpt lat="43.511465" lon="12.3723333"><ele>738.0</ele><time>2026-04-18T11:18:00.61Z</time></trkpt><trkpt lat="43.5114017" lon="12.3722567"><ele>738.0</ele><time>2026-04-18T11:18:01.61Z</time></trkpt><trkpt lat="43.5113367" lon="12.3721817"><ele>738.8333333333334</ele><time>2026-04-18T11:18:02.61Z</time></trkpt><trkpt lat="43.5112667" lon="12.3721283"><ele>739.6666666666666</ele><time>2026-04-18T11:18:03.61Z</time></trkpt><trkpt lat="43.5111933" lon="12.3721"><ele>740.5</ele><time>2026-04-18T11:18:04.61Z</time></trkpt><trkpt lat="43.5111117" lon="12.3720967"><ele>741.3333333333333</ele><time>2026-04-18T11:18:05.61Z</time></trkpt><trkpt lat="43.5110217" lon="12.3721133"><ele>742.1666666666666</ele><time>2026-04-18T11:18:06.61Z</time></trkpt><trkpt lat="43.5109233" lon="12.3721383"><ele>743.0</ele><time>2026-04-18T11:18:07.61Z</time></trkpt><trkpt lat="43.51083" lon="12.3721733"><ele>742.4</ele><time>2026-04-18T11:18:08.61Z</time></trkpt><trkpt lat="43.510735" lon="12.3722083"><ele>741.8</ele><time>2026-04-18T11:18:09.61Z</time></trkpt><trkpt lat="43.5106433" lon="12.372255"><ele>741.2</ele><time>2026-04-18T11:18:10.61Z</time></trkpt><trkpt lat="43.51055" lon="12.3723217"><ele>740.6</ele><time>2026-04-18T11:18:11.61Z</time></trkpt><trkpt lat="43.5104533" lon="12.3723883"><ele>740.0</ele><time>2026-04-18T11:18:12.61Z</time></trkpt><trkpt lat="43.51034" lon="12.3724383"><ele>739.75</ele><time>2026-04-18T11:18:13.61Z</time></trkpt><trkpt lat="43.5102233" lon="12.37246"><ele>739.5</ele><time>2026-04-18T11:18:14.61Z</time></trkpt><trkpt lat="43.51011" lon="12.372475"><ele>739.25</ele><time>2026-04-18T11:18:15.609Z</time></trkpt><trkpt lat="43.5099883" lon="12.3724617"><ele>739.0</ele><time>2026-04-18T11:18:16.61Z</time></trkpt><trkpt lat="43.509885" lon="12.3724267"><ele>739.0</ele><time>2026-04-18T11:18:17.61Z</time></trkpt><trkpt lat="43.5097917" lon="12.372375"><ele>739.0</ele><time>2026-04-18T11:18:18.61Z</time></trkpt><trkpt lat="43.5097083" lon="12.3723033"><ele>739.0</ele><time>2026-04-18T11:18:19.61Z</time></trkpt><trkpt lat="43.5096333" lon="12.3722067"><ele>739.0</ele><time>2026-04-18T11:18:20.61Z</time></trkpt><trkpt lat="43.5095767" lon="12.3720933"><ele>739.0</ele><time>2026-04-18T11:18:21.61Z</time></trkpt><trkpt lat="43.50953" lon="12.3720083"><ele>736.2</ele><time>2026-04-18T11:18:22.61Z</time></trkpt><trkpt lat="43.5094733" lon="12.3719633"><ele>733.4000000000001</ele><time>2026-04-18T11:18:23.61Z</time></trkpt><trkpt lat="43.5093267" lon="12.3719267"><ele>730.6</ele><time>2026-04-18T11:18:25.61Z</time></trkpt><trkpt lat="43.5092367" lon="12.3718967"><ele>727.8</ele><time>2026-04-18T11:18:26.61Z</time></trkpt><trkpt lat="43.5091567" lon="12.3718233"><ele>725.0</ele><time>2026-04-18T11:18:27.61Z</time></trkpt><trkpt lat="43.5090917" lon="12.3717433"><ele>725.0</ele><time>2026-04-18T11:18:28.61Z</time></trkpt><trkpt lat="43.5090117" lon="12.371665"><ele>725.0</ele><time>2026-04-18T11:18:30.61Z</time></trkpt><trkpt lat="43.5089267" lon="12.37179"><ele>725.0</ele><time>2026-04-18T11:18:33.61Z</time></trkpt><trkpt lat="43.5088983" lon="12.3719033"><ele>725.0</ele><time>2026-04-18T11:18:34.61Z</time></trkpt><trkpt lat="43.5088717" lon="12.372035"><ele>725.0</ele><time>2026-04-18T11:18:35.61Z</time></trkpt><trkpt lat="43.50885" lon="12.3721567"><ele>727.0</ele><time>2026-04-18T11:18:36.61Z</time></trkpt><trkpt lat="43.5088467" lon="12.3722783"><ele>729.0</ele><time>2026-04-18T11:18:37.61Z</time></trkpt><trkpt lat="43.508865" lon="12.3723933"><ele>731.0</ele><time>2026-04-18T11:18:38.609Z</time></trkpt><trkpt lat="43.5088967" lon="12.3725183"><ele>733.0</ele><time>2026-04-18T11:18:39.61Z</time></trkpt><trkpt lat="43.5089383" lon="12.3726417"><ele>735.0</ele><time>2026-04-18T11:18:40.61Z</time></trkpt><trkpt lat="43.5089767" lon="12.3727533"><ele>735.0</ele><time>2026-04-18T11:18:41.61Z</time></trkpt><trkpt lat="43.5089967" lon="12.372855"><ele>735.0</ele><time>2026-04-18T11:18:42.61Z</time></trkpt><trkpt lat="43.5090067" lon="12.3729683"><ele>735.0</ele><time>2026-04-18T11:18:43.61Z</time></trkpt><trkpt lat="43.5089933" lon="12.373075"><ele>735.0</ele><time>2026-04-18T11:18:44.61Z</time></trkpt><trkpt lat="43.508945" lon="12.3731767"><ele>735.0</ele><time>2026-04-18T11:18:45.61Z</time></trkpt><trkpt lat="43.5088767" lon="12.3732567"><ele>735.0</ele><time>2026-04-18T11:18:46.61Z</time></trkpt><trkpt lat="43.5087833" lon="12.37333"><ele>732.5</ele><time>2026-04-18T11:18:47.61Z</time></trkpt><trkpt lat="43.5086833" lon="12.3734167"><ele>730.0</ele><time>2026-04-18T11:18:48.61Z</time></trkpt><trkpt lat="43.5086" lon="12.3735317"><ele>727.5</ele><time>2026-04-18T11:18:49.61Z</time></trkpt><trkpt lat="43.5085283" lon="12.373665"><ele>725.0</ele><time>2026-04-18T11:18:50.61Z</time></trkpt><trkpt lat="43.5084733" lon="12.3738133"><ele>727.4</ele><time>2026-04-18T11:18:51.61Z</time></trkpt><trkpt lat="43.5084083" lon="12.3739583"><ele>729.8</ele><time>2026-04-18T11:18:52.61Z</time></trkpt><trkpt lat="43.50834" lon="12.374075"><ele>732.2</ele><time>2026-04-18T11:18:53.61Z</time></trkpt><trkpt lat="43.50827" lon="12.3741683"><ele>734.6</ele><time>2026-04-18T11:18:54.61Z</time></trkpt><trkpt lat="43.5082083" lon="12.3742417"><ele>737.0</ele><time>2026-04-18T11:18:55.61Z</time></trkpt><trkpt lat="43.5081583" lon="12.3743283"><ele>737.0</ele><time>2026-04-18T11:18:56.609Z</time></trkpt><trkpt lat="43.5081267" lon="12.3744217"><ele>737.0</ele><time>2026-04-18T11:18:57.61Z</time></trkpt><trkpt lat="43.5081133" lon="12.3745183"><ele>737.0</ele><time>2026-04-18T11:18:58.61Z</time></trkpt><trkpt lat="43.50813" lon="12.3746367"><ele>737.0</ele><time>2026-04-18T11:18:59.61Z</time></trkpt><trkpt lat="43.5081467" lon="12.3747433"><ele>737.0</ele><time>2026-04-18T11:19:00.61Z</time></trkpt><trkpt lat="43.508155" lon="12.3748483"><ele>737.0</ele><time>2026-04-18T11:19:01.61Z</time></trkpt><trkpt lat="43.5081483" lon="12.3749483"><ele>736.3333333333333</ele><time>2026-04-18T11:19:02.61Z</time></trkpt><trkpt lat="43.50813" lon="12.3750583"><ele>735.6666666666666</ele><time>2026-04-18T11:19:03.61Z</time></trkpt><trkpt lat="43.5080983" lon="12.3751733"><ele>735.0</ele><time>2026-04-18T11:19:04.61Z</time></trkpt><trkpt lat="43.5080633" lon="12.3752867"><ele>734.3333333333334</ele><time>2026-04-18T11:19:05.61Z</time></trkpt><trkpt lat="43.5080217" lon="12.3753883"><ele>733.6666666666667</ele><time>2026-04-18T11:19:06.61Z</time></trkpt><trkpt lat="43.5079867" lon="12.375475"><ele>733.0</ele><time>2026-04-18T11:19:07.61Z</time></trkpt><trkpt lat="43.5079583" lon="12.3755583"><ele>731.0</ele><time>2026-04-18T11:19:08.61Z</time></trkpt><trkpt lat="43.50793" lon="12.3756517"><ele>729.0</ele><time>2026-04-18T11:19:09.61Z</time></trkpt><trkpt lat="43.5079033" lon="12.3757433"><ele>727.0</ele><time>2026-04-18T11:19:10.61Z</time></trkpt><trkpt lat="43.5078767" lon="12.3759"><ele>725.0</ele><time>2026-04-18T11:19:12.61Z</time></trkpt><trkpt lat="43.5078533" lon="12.3760733"><ele>723.0</ele><time>2026-04-18T11:19:14.61Z</time></trkpt><trkpt lat="43.5078417" lon="12.3761617"><ele>723.0</ele><time>2026-04-18T11:19:15.61Z</time></trkpt><trkpt lat="43.5078367" lon="12.3762533"><ele>723.0</ele><time>2026-04-18T11:19:16.61Z</time></trkpt><trkpt lat="43.5078433" lon="12.37636"><ele>723.0</ele><time>2026-04-18T11:19:17.61Z</time></trkpt><trkpt lat="43.5078617" lon="12.376465"><ele>723.0</ele><time>2026-04-18T11:19:18.61Z</time></trkpt><trkpt lat="43.5078933" lon="12.376575"><ele>723.0</ele><time>2026-04-18T11:19:19.61Z</time></trkpt><trkpt lat="43.5079367" lon="12.3766917"><ele>723.0</ele><time>2026-04-18T11:19:20.61Z</time></trkpt><trkpt lat="43.507995" lon="12.3768217"><ele>720.0</ele><time>2026-04-18T11:19:21.61Z</time></trkpt><trkpt lat="43.5080567" lon="12.3769617"><ele>717.0</ele><time>2026-04-18T11:19:22.61Z</time></trkpt><trkpt lat="43.5081217" lon="12.377115"><ele>714.0</ele><time>2026-04-18T11:19:23.61Z</time></trkpt><trkpt lat="43.50819" lon="12.3772917"><ele>711.0</ele><time>2026-04-18T11:19:24.61Z</time></trkpt><trkpt lat="43.508255" lon="12.37748"><ele>711.0</ele><time>2026-04-18T11:19:25.61Z</time></trkpt><trkpt lat="43.5083233" lon="12.3776633"><ele>711.0</ele><time>2026-04-18T11:19:26.61Z</time></trkpt><trkpt lat="43.5083883" lon="12.37785"><ele>711.0</ele><time>2026-04-18T11:19:27.61Z</time></trkpt><trkpt lat="43.508455" lon="12.3780267"><ele>711.0</ele><time>2026-04-18T11:19:28.61Z</time></trkpt><trkpt lat="43.5085233" lon="12.3781983"><ele>712.75</ele><time>2026-04-18T11:19:29.61Z</time></trkpt><trkpt lat="43.508585" lon="12.37836"><ele>714.5</ele><time>2026-04-18T11:19:30.61Z</time></trkpt><trkpt lat="43.508635" lon="12.3784983"><ele>716.25</ele><time>2026-04-18T11:19:31.61Z</time></trkpt><trkpt lat="43.5086717" lon="12.3786367"><ele>718.0</ele><time>2026-04-18T11:19:32.61Z</time></trkpt><trkpt lat="43.508705" lon="12.3787817"><ele>717.5</ele><time>2026-04-18T11:19:33.61Z</time></trkpt><trkpt lat="43.5087233" lon="12.3789267"><ele>717.0</ele><time>2026-04-18T11:19:34.61Z</time></trkpt><trkpt lat="43.50876" lon="12.3790817"><ele>716.5</ele><time>2026-04-18T11:19:35.61Z</time></trkpt><trkpt lat="43.508795" lon="12.3792317"><ele>716.0</ele><time>2026-04-18T11:19:36.61Z</time></trkpt><trkpt lat="43.50883" lon="12.379385"><ele>714.4</ele><time>2026-04-18T11:19:37.61Z</time></trkpt><trkpt lat="43.5088717" lon="12.3795233"><ele>712.8</ele><time>2026-04-18T11:19:38.61Z</time></trkpt><trkpt lat="43.5089317" lon="12.3796383"><ele>711.1999999999999</ele><time>2026-04-18T11:19:39.61Z</time></trkpt><trkpt lat="43.5089883" lon="12.37972"><ele>709.5999999999999</ele><time>2026-04-18T11:19:40.61Z</time></trkpt><trkpt lat="43.5090383" lon="12.3798217"><ele>708.0</ele><time>2026-04-18T11:19:41.61Z</time></trkpt><trkpt lat="43.5090667" lon="12.3799183"><ele>708.0</ele><time>2026-04-18T11:19:42.61Z</time></trkpt><trkpt lat="43.5090717" lon="12.3800317"><ele>708.0</ele><time>2026-04-18T11:19:43.61Z</time></trkpt><trkpt lat="43.5090483" lon="12.3801733"><ele>708.0</ele><time>2026-04-18T11:19:44.61Z</time></trkpt><trkpt lat="43.5090367" lon="12.3803233"><ele>708.0</ele><time>2026-04-18T11:19:45.61Z</time></trkpt><trkpt lat="43.5090467" lon="12.3804733"><ele>708.0</ele><time>2026-04-18T11:19:46.61Z</time></trkpt><trkpt lat="43.509075" lon="12.380605"><ele>707.5999999999999</ele><time>2026-04-18T11:19:47.61Z</time></trkpt><trkpt lat="43.5091267" lon="12.38072"><ele>707.1999999999999</ele><time>2026-04-18T11:19:48.61Z</time></trkpt><trkpt lat="43.5092083" lon="12.3808067"><ele>706.8</ele><time>2026-04-18T11:19:49.61Z</time></trkpt><trkpt lat="43.5093183" lon="12.380855"><ele>706.4</ele><time>2026-04-18T11:19:50.61Z</time></trkpt><trkpt lat="43.50943" lon="12.3809017"><ele>706.0</ele><time>2026-04-18T11:19:51.61Z</time></trkpt><trkpt lat="43.5095467" lon="12.3809433"><ele>706.0</ele><time>2026-04-18T11:19:52.61Z</time></trkpt><trkpt lat="43.509635" lon="12.38098"><ele>706.0</ele><time>2026-04-18T11:19:53.61Z</time></trkpt><trkpt lat="43.50972" lon="12.3810117"><ele>706.0</ele><time>2026-04-18T11:19:54.609Z</time></trkpt><trkpt lat="43.5097767" lon="12.3810583"><ele>706.0</ele><time>2026-04-18T11:19:55.61Z</time></trkpt><trkpt lat="43.50984" lon="12.3811883"><ele>706.0</ele><time>2026-04-18T11:19:57.61Z</time></trkpt><trkpt lat="43.509805" lon="12.3813167"><ele>705.5999999999999</ele><time>2026-04-18T11:19:59.61Z</time></trkpt><trkpt lat="43.5097533" lon="12.381375"><ele>705.2</ele><time>2026-04-18T11:20:00.61Z</time></trkpt><trkpt lat="43.5096783" lon="12.3815233"><ele>704.8</ele><time>2026-04-18T11:20:02.61Z</time></trkpt><trkpt lat="43.509655" lon="12.3816267"><ele>704.4000000000001</ele><time>2026-04-18T11:20:03.61Z</time></trkpt><trkpt lat="43.509635" lon="12.3817567"><ele>704.0</ele><time>2026-04-18T11:20:04.61Z</time></trkpt><trkpt lat="43.5096017" lon="12.3818983"><ele>703.8000000000001</ele><time>2026-04-18T11:20:05.61Z</time></trkpt><trkpt lat="43.509555" lon="12.3820367"><ele>703.6</ele><time>2026-04-18T11:20:06.609Z</time></trkpt><trkpt lat="43.5094933" lon="12.3821583"><ele>703.4</ele><time>2026-04-18T11:20:07.61Z</time></trkpt><trkpt lat="43.5094367" lon="12.3822467"><ele>703.2</ele><time>2026-04-18T11:20:08.61Z</time></trkpt><trkpt lat="43.50939" lon="12.382345"><ele>703.0</ele><time>2026-04-18T11:20:09.61Z</time></trkpt><trkpt lat="43.5093567" lon="12.382425"><ele>703.0</ele><time>2026-04-18T11:20:10.61Z</time></trkpt><trkpt lat="43.5093217" lon="12.3825633"><ele>703.0</ele><time>2026-04-18T11:20:12.61Z</time></trkpt><trkpt lat="43.5092933" lon="12.3826917"><ele>703.0</ele><time>2026-04-18T11:20:14.609Z</time></trkpt><trkpt lat="43.50928" lon="12.3827883"><ele>703.0</ele><time>2026-04-18T11:20:15.609Z</time></trkpt><trkpt lat="43.50928" lon="12.3829117"><ele>703.0</ele><time>2026-04-18T11:20:16.609Z</time></trkpt><trkpt lat="43.5092833" lon="12.3830317"><ele>703.0</ele><time>2026-04-18T11:20:17.609Z</time></trkpt><trkpt lat="43.509285" lon="12.383135"><ele>703.0</ele><time>2026-04-18T11:20:18.609Z</time></trkpt><trkpt lat="43.509275" lon="12.3832217"><ele>703.0</ele><time>2026-04-18T11:20:19.609Z</time></trkpt><trkpt lat="43.509245" lon="12.383305"><ele>703.0</ele><time>2026-04-18T11:20:20.609Z</time></trkpt><trkpt lat="43.5091933" lon="12.3833983"><ele>703.0</ele><time>2026-04-18T11:20:21.609Z</time></trkpt><trkpt lat="43.5091383" lon="12.3835"><ele>703.0</ele><time>2026-04-18T11:20:22.609Z</time></trkpt><trkpt lat="43.5090767" lon="12.3836117"><ele>703.0</ele><time>2026-04-18T11:20:23.609Z</time></trkpt><trkpt lat="43.5090083" lon="12.38372"><ele>703.0</ele><time>2026-04-18T11:20:24.609Z</time></trkpt><trkpt lat="43.5089433" lon="12.3838317"><ele>703.0</ele><time>2026-04-18T11:20:25.609Z</time></trkpt><trkpt lat="43.5088867" lon="12.3839467"><ele>703.0</ele><time>2026-04-18T11:20:26.609Z</time></trkpt><trkpt lat="43.5088233" lon="12.3840483"><ele>703.0</ele><time>2026-04-18T11:20:27.609Z</time></trkpt><trkpt lat="43.508755" lon="12.384135"><ele>703.0</ele><time>2026-04-18T11:20:28.609Z</time></trkpt><trkpt lat="43.5086667" lon="12.384215"><ele>703.0</ele><time>2026-04-18T11:20:29.609Z</time></trkpt><trkpt lat="43.50857" lon="12.3842817"><ele>703.0</ele><time>2026-04-18T11:20:30.609Z</time></trkpt><trkpt lat="43.50847" lon="12.38435"><ele>703.0</ele><time>2026-04-18T11:20:31.609Z</time></trkpt><trkpt lat="43.5083833" lon="12.3844133"><ele>703.0</ele><time>2026-04-18T11:20:32.609Z</time></trkpt><trkpt lat="43.50831" lon="12.3844633"><ele>703.0</ele><time>2026-04-18T11:20:33.609Z</time></trkpt><trkpt lat="43.5082367" lon="12.38451"><ele>703.0</ele><time>2026-04-18T11:20:34.609Z</time></trkpt><trkpt lat="43.5081567" lon="12.38455"><ele>703.0</ele><time>2026-04-18T11:20:35.609Z</time></trkpt><trkpt lat="43.508065" lon="12.3845767"><ele>703.0</ele><time>2026-04-18T11:20:36.609Z</time></trkpt><trkpt lat="43.5079667" lon="12.3845817"><ele>703.0</ele><time>2026-04-18T11:20:37.609Z</time></trkpt><trkpt lat="43.507865" lon="12.384555"><ele>703.4</ele><time>2026-04-18T11:20:38.609Z</time></trkpt><trkpt lat="43.5077783" lon="12.3845233"><ele>703.8</ele><time>2026-04-18T11:20:39.609Z</time></trkpt><trkpt lat="43.5076867" lon="12.38451"><ele>704.2</ele><time>2026-04-18T11:20:40.609Z</time></trkpt><trkpt lat="43.5075917" lon="12.3845383"><ele>704.6</ele><time>2026-04-18T11:20:41.609Z</time></trkpt><trkpt lat="43.5075033" lon="12.3845967"><ele>705.0</ele><time>2026-04-18T11:20:42.609Z</time></trkpt><trkpt lat="43.5074317" lon="12.38469"><ele>705.0</ele><time>2026-04-18T11:20:43.609Z</time></trkpt><trkpt lat="43.5073717" lon="12.3848067"><ele>705.0</ele><time>2026-04-18T11:20:44.609Z</time></trkpt><trkpt lat="43.50731" lon="12.3849267"><ele>705.0</ele><time>2026-04-18T11:20:45.609Z</time></trkpt><trkpt lat="43.5072433" lon="12.385045"><ele>705.0</ele><time>2026-04-18T11:20:46.609Z</time></trkpt><trkpt lat="43.5071817" lon="12.3851567"><ele>705.0</ele><time>2026-04-18T11:20:47.609Z</time></trkpt><trkpt lat="43.507125" lon="12.3852683"><ele>705.0</ele><time>2026-04-18T11:20:48.609Z</time></trkpt><trkpt lat="43.5070867" lon="12.38538"><ele>705.0</ele><time>2026-04-18T11:20:49.609Z</time></trkpt><trkpt lat="43.5070583" lon="12.3854733"><ele>705.0</ele><time>2026-04-18T11:20:50.609Z</time></trkpt><trkpt lat="43.5070167" lon="12.38561"><ele>705.0</ele><time>2026-04-18T11:20:52.609Z</time></trkpt><trkpt lat="43.506995" lon="12.3857667"><ele>705.0</ele><time>2026-04-18T11:20:54.609Z</time></trkpt><trkpt lat="43.5070017" lon="12.3858667"><ele>704.6666666666666</ele><time>2026-04-18T11:20:55.609Z</time></trkpt><trkpt lat="43.5070233" lon="12.3859583"><ele>704.3333333333334</ele><time>2026-04-18T11:20:56.609Z</time></trkpt><trkpt lat="43.5070483" lon="12.386055"><ele>704.0</ele><time>2026-04-18T11:20:57.609Z</time></trkpt><trkpt lat="43.50708" lon="12.38616"><ele>703.6666666666667</ele><time>2026-04-18T11:20:58.609Z</time></trkpt><trkpt lat="43.5071117" lon="12.3862733"><ele>703.3333333333334</ele><time>2026-04-18T11:20:59.609Z</time></trkpt><trkpt lat="43.5071467" lon="12.38638"><ele>703.0</ele><time>2026-04-18T11:21:00.609Z</time></trkpt><trkpt lat="43.5071817" lon="12.3864833"><ele>702.0</ele><time>2026-04-18T11:21:01.609Z</time></trkpt><trkpt lat="43.507225" lon="12.3865817"><ele>701.0</ele><time>2026-04-18T11:21:02.609Z</time></trkpt><trkpt lat="43.5072867" lon="12.3866733"><ele>700.0</ele><time>2026-04-18T11:21:03.609Z</time></trkpt><trkpt lat="43.50736" lon="12.3867617"><ele>699.0</ele><time>2026-04-18T11:21:04.609Z</time></trkpt><trkpt lat="43.5074433" lon="12.3868333"><ele>698.0</ele><time>2026-04-18T11:21:05.609Z</time></trkpt><trkpt lat="43.5075333" lon="12.3869033"><ele>698.0</ele><time>2026-04-18T11:21:06.609Z</time></trkpt><trkpt lat="43.507635" lon="12.38696"><ele>698.0</ele><time>2026-04-18T11:21:07.609Z</time></trkpt><trkpt lat="43.507745" lon="12.3870017"><ele>698.0</ele><time>2026-04-18T11:21:08.609Z</time></trkpt><trkpt lat="43.5078667" lon="12.38703"><ele>698.0</ele><time>2026-04-18T11:21:09.609Z</time></trkpt><trkpt lat="43.5079967" lon="12.38705"><ele>696.8</ele><time>2026-04-18T11:21:10.609Z</time></trkpt><trkpt lat="43.5081217" lon="12.3870667"><ele>695.5999999999999</ele><time>2026-04-18T11:21:11.609Z</time></trkpt><trkpt lat="43.5082317" lon="12.387085"><ele>694.4000000000001</ele><time>2026-04-18T11:21:12.609Z</time></trkpt><trkpt lat="43.5083383" lon="12.3870967"><ele>693.2</ele><time>2026-04-18T11:21:13.609Z</time></trkpt><trkpt lat="43.5084433" lon="12.3871183"><ele>692.0</ele><time>2026-04-18T11:21:14.609Z</time></trkpt><trkpt lat="43.5085483" lon="12.38714"><ele>692.0</ele><time>2026-04-18T11:21:15.609Z</time></trkpt><trkpt lat="43.508645" lon="12.3871583"><ele>692.0</ele><time>2026-04-18T11:21:16.608Z</time></trkpt><trkpt lat="43.5087433" lon="12.3871867"><ele>692.0</ele><time>2026-04-18T11:21:17.609Z</time></trkpt><trkpt lat="43.508845" lon="12.3872483"><ele>692.0</ele><time>2026-04-18T11:21:18.609Z</time></trkpt><trkpt lat="43.50894" lon="12.3873567"><ele>692.0</ele><time>2026-04-18T11:21:19.609Z</time></trkpt><trkpt lat="43.509035" lon="12.3874833"><ele>691.25</ele><time>2026-04-18T11:21:20.609Z</time></trkpt><trkpt lat="43.5091317" lon="12.3876"><ele>690.5</ele><time>2026-04-18T11:21:21.609Z</time></trkpt><trkpt lat="43.5092267" lon="12.3877117"><ele>689.75</ele><time>2026-04-18T11:21:22.609Z</time></trkpt><trkpt lat="43.50931" lon="12.3878"><ele>689.0</ele><time>2026-04-18T11:21:23.609Z</time></trkpt><trkpt lat="43.5093933" lon="12.3878967"><ele>689.0</ele><time>2026-04-18T11:21:24.609Z</time></trkpt><trkpt lat="43.509485" lon="12.3879967"><ele>689.0</ele><time>2026-04-18T11:21:25.609Z</time></trkpt><trkpt lat="43.5095883" lon="12.388095"><ele>689.0</ele><time>2026-04-18T11:21:26.609Z</time></trkpt><trkpt lat="43.5096933" lon="12.3881883"><ele>689.0</ele><time>2026-04-18T11:21:27.609Z</time></trkpt><trkpt lat="43.5098017" lon="12.3882667"><ele>687.2</ele><time>2026-04-18T11:21:28.609Z</time></trkpt><trkpt lat="43.5099033" lon="12.388335"><ele>685.4000000000001</ele><time>2026-04-18T11:21:29.609Z</time></trkpt><trkpt lat="43.5099883" lon="12.3883817"><ele>683.6</ele><time>2026-04-18T11:21:30.609Z</time></trkpt><trkpt lat="43.5100717" lon="12.3883983"><ele>681.8</ele><time>2026-04-18T11:21:31.609Z</time></trkpt><trkpt lat="43.5101617" lon="12.388385"><ele>680.0</ele><time>2026-04-18T11:21:32.609Z</time></trkpt><trkpt lat="43.5102367" lon="12.3883317"><ele>680.0</ele><time>2026-04-18T11:21:33.609Z</time></trkpt><trkpt lat="43.5103083" lon="12.3882533"><ele>680.0</ele><time>2026-04-18T11:21:34.609Z</time></trkpt><trkpt lat="43.5103983" lon="12.3881433"><ele>680.0</ele><time>2026-04-18T11:21:35.609Z</time></trkpt><trkpt lat="43.5104967" lon="12.3880317"><ele>680.0</ele><time>2026-04-18T11:21:36.609Z</time></trkpt><trkpt lat="43.5105933" lon="12.38793"><ele>678.5</ele><time>2026-04-18T11:21:37.609Z</time></trkpt><trkpt lat="43.5106933" lon="12.38784"><ele>677.0</ele><time>2026-04-18T11:21:38.609Z</time></trkpt><trkpt lat="43.5107933" lon="12.3877467"><ele>675.5</ele><time>2026-04-18T11:21:39.609Z</time></trkpt><trkpt lat="43.510905" lon="12.387665"><ele>674.0</ele><time>2026-04-18T11:21:40.609Z</time></trkpt><trkpt lat="43.5110133" lon="12.38757"><ele>674.0</ele><time>2026-04-18T11:21:41.609Z</time></trkpt><trkpt lat="43.5111167" lon="12.3874733"><ele>674.0</ele><time>2026-04-18T11:21:42.609Z</time></trkpt><trkpt lat="43.5112217" lon="12.3873633"><ele>674.0</ele><time>2026-04-18T11:21:43.609Z</time></trkpt><trkpt lat="43.5113167" lon="12.38723"><ele>674.0</ele><time>2026-04-18T11:21:44.609Z</time></trkpt><trkpt lat="43.5114" lon="12.3870983"><ele>674.25</ele><time>2026-04-18T11:21:45.609Z</time></trkpt><trkpt lat="43.511485" lon="12.38698"><ele>674.5</ele><time>2026-04-18T11:21:46.608Z</time></trkpt><trkpt lat="43.5115683" lon="12.3868717"><ele>674.75</ele><time>2026-04-18T11:21:47.609Z</time></trkpt><trkpt lat="43.5116583" lon="12.3867783"><ele>675.0</ele><time>2026-04-18T11:21:48.609Z</time></trkpt><trkpt lat="43.5117467" lon="12.3867033"><ele>675.0</ele><time>2026-04-18T11:21:49.609Z</time></trkpt><trkpt lat="43.51183" lon="12.3866433"><ele>675.0</ele><time>2026-04-18T11:21:50.609Z</time></trkpt><trkpt lat="43.511905" lon="12.386605"><ele>675.0</ele><time>2026-04-18T11:21:51.609Z</time></trkpt><trkpt lat="43.5119833" lon="12.38659"><ele>675.0</ele><time>2026-04-18T11:21:52.609Z</time></trkpt><trkpt lat="43.5120683" lon="12.3865967"><ele>675.0</ele><time>2026-04-18T11:21:53.609Z</time></trkpt><trkpt lat="43.5121617" lon="12.3865967"><ele>675.0</ele><time>2026-04-18T11:21:54.609Z</time></trkpt><trkpt lat="43.51226" lon="12.3865783"><ele>676.25</ele><time>2026-04-18T11:21:55.609Z</time></trkpt><trkpt lat="43.512365" lon="12.3865233"><ele>677.5</ele><time>2026-04-18T11:21:56.609Z</time></trkpt><trkpt lat="43.5124817" lon="12.38646"><ele>678.75</ele><time>2026-04-18T11:21:57.609Z</time></trkpt><trkpt lat="43.5125933" lon="12.3863733"><ele>680.0</ele><time>2026-04-18T11:21:58.609Z</time></trkpt><trkpt lat="43.5126867" lon="12.38627"><ele>677.75</ele><time>2026-04-18T11:21:59.609Z</time></trkpt><trkpt lat="43.5127817" lon="12.3861533"><ele>675.5</ele><time>2026-04-18T11:22:00.609Z</time></trkpt><trkpt lat="43.5128683" lon="12.38604"><ele>673.25</ele><time>2026-04-18T11:22:01.609Z</time></trkpt><trkpt lat="43.5129567" lon="12.3859383"><ele>671.0</ele><time>2026-04-18T11:22:02.609Z</time></trkpt><trkpt lat="43.5130467" lon="12.3858483"><ele>671.0</ele><time>2026-04-18T11:22:03.609Z</time></trkpt><trkpt lat="43.51314" lon="12.38578"><ele>671.0</ele><time>2026-04-18T11:22:04.609Z</time></trkpt><trkpt lat="43.513235" lon="12.3857117"><ele>671.0</ele><time>2026-04-18T11:22:05.609Z</time></trkpt><trkpt lat="43.5133283" lon="12.3856467"><ele>671.0</ele><time>2026-04-18T11:22:06.609Z</time></trkpt><trkpt lat="43.5134283" lon="12.38561"><ele>671.0</ele><time>2026-04-18T11:22:07.609Z</time></trkpt><trkpt lat="43.513525" lon="12.3855967"><ele>671.0</ele><time>2026-04-18T11:22:08.609Z</time></trkpt><trkpt lat="43.5136083" lon="12.3856233"><ele>671.0</ele><time>2026-04-18T11:22:09.609Z</time></trkpt><trkpt lat="43.5136733" lon="12.3856583"><ele>671.0</ele><time>2026-04-18T11:22:10.609Z</time></trkpt><trkpt lat="43.513725" lon="12.3857217"><ele>671.0</ele><time>2026-04-18T11:22:11.609Z</time></trkpt><trkpt lat="43.51375" lon="12.3858183"><ele>671.0</ele><time>2026-04-18T11:22:12.609Z</time></trkpt><trkpt lat="43.5137683" lon="12.385945"><ele>671.0</ele><time>2026-04-18T11:22:13.609Z</time></trkpt><trkpt lat="43.5137767" lon="12.3860817"><ele>670.4</ele><time>2026-04-18T11:22:14.609Z</time></trkpt><trkpt lat="43.5137933" lon="12.3861983"><ele>669.8</ele><time>2026-04-18T11:22:15.609Z</time></trkpt><trkpt lat="43.5138083" lon="12.386295"><ele>669.1999999999999</ele><time>2026-04-18T11:22:16.609Z</time></trkpt><trkpt lat="43.5138667" lon="12.3864217"><ele>668.5999999999999</ele><time>2026-04-18T11:22:18.609Z</time></trkpt><trkpt lat="43.5139583" lon="12.3864133"><ele>668.0</ele><time>2026-04-18T11:22:20.609Z</time></trkpt><trkpt lat="43.5140633" lon="12.386265"><ele>668.0</ele><time>2026-04-18T11:22:22.609Z</time></trkpt><trkpt lat="43.5141433" lon="12.38614"><ele>668.0</ele><time>2026-04-18T11:22:23.609Z</time></trkpt><trkpt lat="43.51422" lon="12.386025"><ele>668.0</ele><time>2026-04-18T11:22:24.609Z</time></trkpt><trkpt lat="43.51431" lon="12.3858883"><ele>668.0</ele><time>2026-04-18T11:22:25.609Z</time></trkpt><trkpt lat="43.5144083" lon="12.3857617"><ele>668.0</ele><time>2026-04-18T11:22:26.609Z</time></trkpt><trkpt lat="43.5145033" lon="12.3856667"><ele>668.0</ele><time>2026-04-18T11:22:27.609Z</time></trkpt><trkpt lat="43.5145983" lon="12.385595"><ele>668.0</ele><time>2026-04-18T11:22:28.609Z</time></trkpt><trkpt lat="43.5146983" lon="12.385535"><ele>668.0</ele><time>2026-04-18T11:22:29.609Z</time></trkpt><trkpt lat="43.5148033" lon="12.385495"><ele>668.0</ele><time>2026-04-18T11:22:30.609Z</time></trkpt><trkpt lat="43.5149067" lon="12.385475"><ele>666.5999999999999</ele><time>2026-04-18T11:22:31.609Z</time></trkpt><trkpt lat="43.5150083" lon="12.3854917"><ele>665.1999999999999</ele><time>2026-04-18T11:22:32.609Z</time></trkpt><trkpt lat="43.5151167" lon="12.3855333"><ele>663.8</ele><time>2026-04-18T11:22:33.609Z</time></trkpt><trkpt lat="43.5152233" lon="12.38556"><ele>662.4</ele><time>2026-04-18T11:22:34.608Z</time></trkpt><trkpt lat="43.51534" lon="12.3855633"><ele>661.0</ele><time>2026-04-18T11:22:35.609Z</time></trkpt><trkpt lat="43.5154583" lon="12.3855283"><ele>662.1666666666667</ele><time>2026-04-18T11:22:36.609Z</time></trkpt><trkpt lat="43.515555" lon="12.3854883"><ele>663.3333333333334</ele><time>2026-04-18T11:22:37.609Z</time></trkpt><trkpt lat="43.5156433" lon="12.3854633"><ele>664.5</ele><time>2026-04-18T11:22:38.609Z</time></trkpt><trkpt lat="43.515715" lon="12.3854833"><ele>665.6666666666666</ele><time>2026-04-18T11:22:39.609Z</time></trkpt><trkpt lat="43.5157767" lon="12.3855433"><ele>666.8333333333333</ele><time>2026-04-18T11:22:40.609Z</time></trkpt><trkpt lat="43.51583" lon="12.3856317"><ele>668.0</ele><time>2026-04-18T11:22:41.609Z</time></trkpt><trkpt lat="43.5158783" lon="12.3857517"><ele>671.4</ele><time>2026-04-18T11:22:42.609Z</time></trkpt><trkpt lat="43.5159417" lon="12.3858767"><ele>674.8</ele><time>2026-04-18T11:22:43.609Z</time></trkpt><trkpt lat="43.5160117" lon="12.3859883"><ele>678.2</ele><time>2026-04-18T11:22:44.609Z</time></trkpt><trkpt lat="43.5160867" lon="12.3860867"><ele>681.6</ele><time>2026-04-18T11:22:45.609Z</time></trkpt><trkpt lat="43.51615" lon="12.3861567"><ele>685.0</ele><time>2026-04-18T11:22:46.609Z</time></trkpt><trkpt lat="43.5162183" lon="12.3862"><ele>684.8333333333334</ele><time>2026-04-18T11:22:47.609Z</time></trkpt><trkpt lat="43.5163083" lon="12.3862183"><ele>684.6666666666667</ele><time>2026-04-18T11:22:48.609Z</time></trkpt><trkpt lat="43.5164" lon="12.3862283"><ele>684.5</ele><time>2026-04-18T11:22:49.609Z</time></trkpt><trkpt lat="43.5164833" lon="12.3862333"><ele>684.3333333333334</ele><time>2026-04-18T11:22:50.609Z</time></trkpt><trkpt lat="43.5165667" lon="12.3862333"><ele>684.1666666666666</ele><time>2026-04-18T11:22:51.609Z</time></trkpt><trkpt lat="43.51662" lon="12.3862933"><ele>684.0</ele><time>2026-04-18T11:22:52.609Z</time></trkpt><trkpt lat="43.5166317" lon="12.3864"><ele>684.0</ele><time>2026-04-18T11:22:53.609Z</time></trkpt><trkpt lat="43.5166167" lon="12.3865217"><ele>684.0</ele><time>2026-04-18T11:22:54.609Z</time></trkpt><trkpt lat="43.5165867" lon="12.3866467"><ele>684.0</ele><time>2026-04-18T11:22:55.609Z</time></trkpt><trkpt lat="43.516535" lon="12.3867933"><ele>684.0</ele><time>2026-04-18T11:22:56.609Z</time></trkpt><trkpt lat="43.5164867" lon="12.3869433"><ele>684.0</ele><time>2026-04-18T11:22:57.609Z</time></trkpt><trkpt lat="43.5164383" lon="12.3870783"><ele>685.2</ele><time>2026-04-18T11:22:58.609Z</time></trkpt><trkpt lat="43.5163983" lon="12.38721"><ele>686.4000000000001</ele><time>2026-04-18T11:22:59.609Z</time></trkpt><trkpt lat="43.51637" lon="12.3873283"><ele>687.6</ele><time>2026-04-18T11:23:00.609Z</time></trkpt><trkpt lat="43.51635" lon="12.3874383"><ele>688.8</ele><time>2026-04-18T11:23:01.609Z</time></trkpt><trkpt lat="43.51635" lon="12.3875533"><ele>690.0</ele><time>2026-04-18T11:23:02.609Z</time></trkpt><trkpt lat="43.5163783" lon="12.3876783"><ele>690.0</ele><time>2026-04-18T11:23:03.609Z</time></trkpt><trkpt lat="43.5164217" lon="12.3877933"><ele>690.0</ele><time>2026-04-18T11:23:04.609Z</time></trkpt><trkpt lat="43.5164817" lon="12.3879017"><ele>690.0</ele><time>2026-04-18T11:23:05.608Z</time></trkpt><trkpt lat="43.5165433" lon="12.38801"><ele>690.0</ele><time>2026-04-18T11:23:06.609Z</time></trkpt><trkpt lat="43.5165967" lon="12.3881117"><ele>690.0</ele><time>2026-04-18T11:23:07.609Z</time></trkpt><trkpt lat="43.5166717" lon="12.38819"><ele>691.6</ele><time>2026-04-18T11:23:08.609Z</time></trkpt><trkpt lat="43.51675" lon="12.3882533"><ele>693.2</ele><time>2026-04-18T11:23:09.609Z</time></trkpt><trkpt lat="43.5168567" lon="12.3883"><ele>694.8</ele><time>2026-04-18T11:23:10.609Z</time></trkpt><trkpt lat="43.5169517" lon="12.3883683"><ele>696.4</ele><time>2026-04-18T11:23:11.609Z</time></trkpt><trkpt lat="43.5170833" lon="12.3884267"><ele>698.0</ele><time>2026-04-18T11:23:12.609Z</time></trkpt><trkpt lat="43.5172" lon="12.388455"><ele>698.0</ele><time>2026-04-18T11:23:13.609Z</time></trkpt><trkpt lat="43.5173133" lon="12.3884317"><ele>698.0</ele><time>2026-04-18T11:23:14.609Z</time></trkpt><trkpt lat="43.517435" lon="12.3884017"><ele>698.0</ele><time>2026-04-18T11:23:15.609Z</time></trkpt><trkpt lat="43.51753" lon="12.3883733"><ele>698.0</ele><time>2026-04-18T11:23:16.609Z</time></trkpt><trkpt lat="43.5176467" lon="12.3884183"><ele>698.0</ele><time>2026-04-18T11:23:18.609Z</time></trkpt><trkpt lat="43.5176883" lon="12.388505"><ele>698.0</ele><time>2026-04-18T11:23:19.609Z</time></trkpt><trkpt lat="43.5177033" lon="12.3886133"><ele>698.0</ele><time>2026-04-18T11:23:20.609Z</time></trkpt><trkpt lat="43.517715" lon="12.3887467"><ele>698.0</ele><time>2026-04-18T11:23:21.609Z</time></trkpt><trkpt lat="43.5177517" lon="12.3888983"><ele>698.0</ele><time>2026-04-18T11:23:22.609Z</time></trkpt><trkpt lat="43.5177967" lon="12.3890333"><ele>700.8</ele><time>2026-04-18T11:23:23.607Z</time></trkpt><trkpt lat="43.5178283" lon="12.38915"><ele>703.5999999999999</ele><time>2026-04-18T11:23:24.609Z</time></trkpt><trkpt lat="43.5178267" lon="12.3892517"><ele>706.4000000000001</ele><time>2026-04-18T11:23:25.609Z</time></trkpt><trkpt lat="43.5178017" lon="12.3894217"><ele>709.2</ele><time>2026-04-18T11:23:27.609Z</time></trkpt><trkpt lat="43.517775" lon="12.38957"><ele>712.0</ele><time>2026-04-18T11:23:29.609Z</time></trkpt><trkpt lat="43.517815" lon="12.3897233"><ele>710.4000000000001</ele><time>2026-04-18T11:23:31.608Z</time></trkpt><trkpt lat="43.5178667" lon="12.389795"><ele>708.8000000000001</ele><time>2026-04-18T11:23:32.609Z</time></trkpt><trkpt lat="43.5179317" lon="12.3898683"><ele>707.2</ele><time>2026-04-18T11:23:33.609Z</time></trkpt><trkpt lat="43.51801" lon="12.3899267"><ele>705.6</ele><time>2026-04-18T11:23:34.609Z</time></trkpt><trkpt lat="43.5181317" lon="12.3899333"><ele>704.0</ele><time>2026-04-18T11:23:35.609Z</time></trkpt><trkpt lat="43.5182583" lon="12.3898833"><ele>704.0</ele><time>2026-04-18T11:23:36.609Z</time></trkpt><trkpt lat="43.51838" lon="12.389805"><ele>704.0</ele><time>2026-04-18T11:23:37.609Z</time></trkpt><trkpt lat="43.5185083" lon="12.389665"><ele>704.0</ele><time>2026-04-18T11:23:38.609Z</time></trkpt><trkpt lat="43.5186117" lon="12.389545"><ele>704.0</ele><time>2026-04-18T11:23:39.609Z</time></trkpt><trkpt lat="43.5187017" lon="12.3894683"><ele>700.0</ele><time>2026-04-18T11:23:40.609Z</time></trkpt><trkpt lat="43.5187767" lon="12.3894167"><ele>696.0</ele><time>2026-04-18T11:23:41.609Z</time></trkpt><trkpt lat="43.5188467" lon="12.3893883"><ele>692.0</ele><time>2026-04-18T11:23:42.609Z</time></trkpt><trkpt lat="43.51895" lon="12.3894817"><ele>688.0</ele><time>2026-04-18T11:23:44.609Z</time></trkpt><trkpt lat="43.518975" lon="12.3896417"><ele>684.0</ele><time>2026-04-18T11:23:46.609Z</time></trkpt><trkpt lat="43.5189483" lon="12.3897533"><ele>684.0</ele><time>2026-04-18T11:23:47.609Z</time></trkpt><trkpt lat="43.51891" lon="12.389875"><ele>684.0</ele><time>2026-04-18T11:23:48.609Z</time></trkpt><trkpt lat="43.51888" lon="12.3900167"><ele>684.0</ele><time>2026-04-18T11:23:49.609Z</time></trkpt><trkpt lat="43.518845" lon="12.3901733"><ele>684.0</ele><time>2026-04-18T11:23:50.609Z</time></trkpt><trkpt lat="43.518805" lon="12.3903333"><ele>684.0</ele><time>2026-04-18T11:23:51.609Z</time></trkpt><trkpt lat="43.51875" lon="12.39048"><ele>691.75</ele><time>2026-04-18T11:23:52.609Z</time></trkpt><trkpt lat="43.5186933" lon="12.3906133"><ele>699.5</ele><time>2026-04-18T11:23:53.609Z</time></trkpt><trkpt lat="43.5186383" lon="12.39076"><ele>707.25</ele><time>2026-04-18T11:23:54.609Z</time></trkpt><trkpt lat="43.5185933" lon="12.3909283"><ele>715.0</ele><time>2026-04-18T11:23:55.609Z</time></trkpt><trkpt lat="43.5185367" lon="12.3910933"><ele>715.0</ele><time>2026-04-18T11:23:56.609Z</time></trkpt><trkpt lat="43.5184917" lon="12.3912617"><ele>715.0</ele><time>2026-04-18T11:23:57.609Z</time></trkpt><trkpt lat="43.5184433" lon="12.3914267"><ele>715.0</ele><time>2026-04-18T11:23:58.609Z</time></trkpt><trkpt lat="43.5183867" lon="12.3915883"><ele>715.0</ele><time>2026-04-18T11:23:59.609Z</time></trkpt><trkpt lat="43.51834" lon="12.3917617"><ele>714.6</ele><time>2026-04-18T11:24:00.609Z</time></trkpt><trkpt lat="43.518295" lon="12.39193"><ele>714.2</ele><time>2026-04-18T11:24:01.609Z</time></trkpt><trkpt lat="43.5182483" lon="12.3920633"><ele>713.8</ele><time>2026-04-18T11:24:02.609Z</time></trkpt><trkpt lat="43.5182033" lon="12.3921617"><ele>713.4</ele><time>2026-04-18T11:24:03.609Z</time></trkpt><trkpt lat="43.5181733" lon="12.39225"><ele>713.0</ele><time>2026-04-18T11:24:04.609Z</time></trkpt><trkpt lat="43.5181533" lon="12.392335"><ele>713.0</ele><time>2026-04-18T11:24:05.609Z</time></trkpt><trkpt lat="43.5181783" lon="12.3925"><ele>713.0</ele><time>2026-04-18T11:24:07.609Z</time></trkpt><trkpt lat="43.51824" lon="12.3925817"><ele>713.0</ele><time>2026-04-18T11:24:08.609Z</time></trkpt><trkpt lat="43.5183333" lon="12.3926683"><ele>713.0</ele><time>2026-04-18T11:24:09.609Z</time></trkpt><trkpt lat="43.5184333" lon="12.3927633"><ele>713.0</ele><time>2026-04-18T11:24:10.609Z</time></trkpt><trkpt lat="43.51852" lon="12.3928283"><ele>713.0</ele><time>2026-04-18T11:24:11.609Z</time></trkpt><trkpt lat="43.518615" lon="12.39288"><ele>713.0</ele><time>2026-04-18T11:24:12.609Z</time></trkpt><trkpt lat="43.5187117" lon="12.3928983"><ele>713.0</ele><time>2026-04-18T11:24:13.609Z</time></trkpt><trkpt lat="43.5188033" lon="12.3928833"><ele>713.0</ele><time>2026-04-18T11:24:14.609Z</time></trkpt><trkpt lat="43.518895" lon="12.3928567"><ele>713.0</ele><time>2026-04-18T11:24:15.609Z</time></trkpt><trkpt lat="43.51899" lon="12.3927683"><ele>714.2</ele><time>2026-04-18T11:24:16.609Z</time></trkpt><trkpt lat="43.5190917" lon="12.3926417"><ele>715.4</ele><time>2026-04-18T11:24:17.609Z</time></trkpt><trkpt lat="43.519195" lon="12.3925483"><ele>716.6</ele><time>2026-04-18T11:24:18.609Z</time></trkpt><trkpt lat="43.5192783" lon="12.3925033"><ele>717.8000000000001</ele><time>2026-04-18T11:24:19.609Z</time></trkpt><trkpt lat="43.5193417" lon="12.3924583"><ele>719.0</ele><time>2026-04-18T11:24:20.609Z</time></trkpt><trkpt lat="43.5194083" lon="12.392415"><ele>719.0</ele><time>2026-04-18T11:24:21.609Z</time></trkpt><trkpt lat="43.5194717" lon="12.3923733"><ele>719.0</ele><time>2026-04-18T11:24:22.609Z</time></trkpt><trkpt lat="43.5195583" lon="12.3923183"><ele>719.0</ele><time>2026-04-18T11:24:23.609Z</time></trkpt><trkpt lat="43.51966" lon="12.39227"><ele>719.0</ele><time>2026-04-18T11:24:24.609Z</time></trkpt><trkpt lat="43.5197733" lon="12.39222"><ele>719.0</ele><time>2026-04-18T11:24:25.609Z</time></trkpt><trkpt lat="43.5198767" lon="12.3921717"><ele>719.5</ele><time>2026-04-18T11:24:26.609Z</time></trkpt><trkpt lat="43.5199683" lon="12.392155"><ele>720.0</ele><time>2026-04-18T11:24:27.609Z</time></trkpt><trkpt lat="43.5200417" lon="12.3921533"><ele>720.5</ele><time>2026-04-18T11:24:28.609Z</time></trkpt><trkpt lat="43.5201367" lon="12.3922517"><ele>721.0</ele><time>2026-04-18T11:24:30.609Z</time></trkpt><trkpt lat="43.52015" lon="12.39234"><ele>721.5</ele><time>2026-04-18T11:24:31.609Z</time></trkpt><trkpt lat="43.52014" lon="12.392445"><ele>722.0</ele><time>2026-04-18T11:24:32.609Z</time></trkpt><trkpt lat="43.5201267" lon="12.3925667"><ele>722.0</ele><time>2026-04-18T11:24:33.609Z</time></trkpt><trkpt lat="43.5201167" lon="12.392695"><ele>722.0</ele><time>2026-04-18T11:24:34.609Z</time></trkpt><trkpt lat="43.5201017" lon="12.3928117"><ele>722.0</ele><time>2026-04-18T11:24:35.609Z</time></trkpt><trkpt lat="43.5200817" lon="12.3929283"><ele>722.0</ele><time>2026-04-18T11:24:36.609Z</time></trkpt><trkpt lat="43.5200533" lon="12.393045"><ele>722.0</ele><time>2026-04-18T11:24:37.609Z</time></trkpt><trkpt lat="43.5200233" lon="12.3931617"><ele>722.0</ele><time>2026-04-18T11:24:38.609Z</time></trkpt><trkpt lat="43.5200067" lon="12.3932983"><ele>723.0</ele><time>2026-04-18T11:24:39.609Z</time></trkpt><trkpt lat="43.5199933" lon="12.393435"><ele>724.0</ele><time>2026-04-18T11:24:40.609Z</time></trkpt><trkpt lat="43.5199883" lon="12.39357"><ele>725.0</ele><time>2026-04-18T11:24:41.609Z</time></trkpt><trkpt lat="43.5199817" lon="12.3937017"><ele>726.0</ele><time>2026-04-18T11:24:42.608Z</time></trkpt><trkpt lat="43.5199783" lon="12.393835"><ele>727.0</ele><time>2026-04-18T11:24:43.609Z</time></trkpt><trkpt lat="43.51996" lon="12.3939433"><ele>728.1666666666667</ele><time>2026-04-18T11:24:44.609Z</time></trkpt><trkpt lat="43.519945" lon="12.3940333"><ele>729.3333333333334</ele><time>2026-04-18T11:24:45.609Z</time></trkpt><trkpt lat="43.519925" lon="12.3941717"><ele>730.5</ele><time>2026-04-18T11:24:47.609Z</time></trkpt><trkpt lat="43.51997" lon="12.3942367"><ele>731.6666666666666</ele><time>2026-04-18T11:24:48.609Z</time></trkpt><trkpt lat="43.5200333" lon="12.39428"><ele>732.8333333333333</ele><time>2026-04-18T11:24:49.609Z</time></trkpt><trkpt lat="43.5201433" lon="12.3943033"><ele>734.0</ele><time>2026-04-18T11:24:50.609Z</time></trkpt><trkpt lat="43.520235" lon="12.3943067"><ele>734.0</ele><time>2026-04-18T11:24:51.609Z</time></trkpt><trkpt lat="43.520335" lon="12.394285"><ele>734.0</ele><time>2026-04-18T11:24:52.609Z</time></trkpt><trkpt lat="43.52043" lon="12.3942367"><ele>734.0</ele><time>2026-04-18T11:24:53.609Z</time></trkpt><trkpt lat="43.5205333" lon="12.39417"><ele>734.0</ele><time>2026-04-18T11:24:54.609Z</time></trkpt><trkpt lat="43.5206217" lon="12.394085"><ele>734.0</ele><time>2026-04-18T11:24:55.609Z</time></trkpt><trkpt lat="43.5207017" lon="12.3939933"><ele>729.0</ele><time>2026-04-18T11:24:56.609Z</time></trkpt><trkpt lat="43.520775" lon="12.3939183"><ele>724.0</ele><time>2026-04-18T11:24:57.609Z</time></trkpt><trkpt lat="43.5208533" lon="12.3938967"><ele>719.0</ele><time>2026-04-18T11:24:59.609Z</time></trkpt><trkpt lat="43.5208967" lon="12.3940317"><ele>714.0</ele><time>2026-04-18T11:25:01.609Z</time></trkpt><trkpt lat="43.5208933" lon="12.3941583"><ele>709.0</ele><time>2026-04-18T11:25:02.609Z</time></trkpt><trkpt lat="43.52089" lon="12.3942917"><ele>709.0</ele><time>2026-04-18T11:25:03.609Z</time></trkpt><trkpt lat="43.5208967" lon="12.39443"><ele>709.0</ele><time>2026-04-18T11:25:04.609Z</time></trkpt><trkpt lat="43.520905" lon="12.3945717"><ele>709.0</ele><time>2026-04-18T11:25:05.609Z</time></trkpt><trkpt lat="43.520925" lon="12.39474"><ele>709.0</ele><time>2026-04-18T11:25:06.609Z</time></trkpt><trkpt lat="43.5209517" lon="12.3948983"><ele>709.0</ele><time>2026-04-18T11:25:07.609Z</time></trkpt><trkpt lat="43.5209833" lon="12.3950467"><ele>713.25</ele><time>2026-04-18T11:25:08.609Z</time></trkpt><trkpt lat="43.5210167" lon="12.3951967"><ele>717.5</ele><time>2026-04-18T11:25:09.609Z</time></trkpt><trkpt lat="43.5210417" lon="12.3953533"><ele>721.75</ele><time>2026-04-18T11:25:10.609Z</time></trkpt><trkpt lat="43.5210883" lon="12.3955133"><ele>726.0</ele><time>2026-04-18T11:25:11.609Z</time></trkpt><trkpt lat="43.5211383" lon="12.3956617"><ele>726.6666666666666</ele><time>2026-04-18T11:25:12.609Z</time></trkpt><trkpt lat="43.5211783" lon="12.3957917"><ele>727.3333333333334</ele><time>2026-04-18T11:25:13.609Z</time></trkpt><trkpt lat="43.5212317" lon="12.3958767"><ele>728.0</ele><time>2026-04-18T11:25:14.609Z</time></trkpt><trkpt lat="43.52128" lon="12.395955"><ele>728.6666666666667</ele><time>2026-04-18T11:25:15.609Z</time></trkpt><trkpt lat="43.5213433" lon="12.396055"><ele>729.3333333333334</ele><time>2026-04-18T11:25:17.609Z</time></trkpt><trkpt lat="43.5212683" lon="12.39612"><ele>730.0</ele><time>2026-04-18T11:25:20.609Z</time></trkpt><trkpt lat="43.5211933" lon="12.3961217"><ele>730.0</ele><time>2026-04-18T11:25:21.608Z</time></trkpt><trkpt lat="43.521095" lon="12.3961117"><ele>730.0</ele><time>2026-04-18T11:25:22.609Z</time></trkpt><trkpt lat="43.5209833" lon="12.3961067"><ele>730.0</ele><time>2026-04-18T11:25:23.609Z</time></trkpt><trkpt lat="43.5208733" lon="12.3961183"><ele>730.0</ele><time>2026-04-18T11:25:24.609Z</time></trkpt><trkpt lat="43.520795" lon="12.3961467"><ele>730.0</ele><time>2026-04-18T11:25:25.609Z</time></trkpt><trkpt lat="43.520735" lon="12.3961933"><ele>730.0</ele><time>2026-04-18T11:25:26.609Z</time></trkpt><trkpt lat="43.52069" lon="12.3962583"><ele>730.0</ele><time>2026-04-18T11:25:27.609Z</time></trkpt><trkpt lat="43.52067" lon="12.3963717"><ele>730.0</ele><time>2026-04-18T11:25:28.609Z</time></trkpt><trkpt lat="43.5206367" lon="12.3964883"><ele>730.0</ele><time>2026-04-18T11:25:29.609Z</time></trkpt><trkpt lat="43.5206033" lon="12.3966017"><ele>730.0</ele><time>2026-04-18T11:25:30.608Z</time></trkpt><trkpt lat="43.5205767" lon="12.3967333"><ele>730.0</ele><time>2026-04-18T11:25:31.609Z</time></trkpt><trkpt lat="43.5205567" lon="12.396845"><ele>727.4</ele><time>2026-04-18T11:25:32.609Z</time></trkpt><trkpt lat="43.5204883" lon="12.3969417"><ele>724.8</ele><time>2026-04-18T11:25:34.609Z</time></trkpt><trkpt lat="43.5203467" lon="12.3969417"><ele>722.2</ele><time>2026-04-18T11:25:36.609Z</time></trkpt><trkpt lat="43.5202667" lon="12.3969333"><ele>719.6</ele><time>2026-04-18T11:25:37.609Z</time></trkpt><trkpt lat="43.5201967" lon="12.3969267"><ele>717.0</ele><time>2026-04-18T11:25:38.609Z</time></trkpt><trkpt lat="43.5201017" lon="12.3968483"><ele>717.0</ele><time>2026-04-18T11:25:40.608Z</time></trkpt><trkpt lat="43.519985" lon="12.3967717"><ele>717.0</ele><time>2026-04-18T11:25:42.608Z</time></trkpt><trkpt lat="43.51992" lon="12.396735"><ele>717.0</ele><time>2026-04-18T11:25:43.608Z</time></trkpt><trkpt lat="43.519855" lon="12.3967117"><ele>717.0</ele><time>2026-04-18T11:25:44.608Z</time></trkpt><trkpt lat="43.51977" lon="12.39669"><ele>717.0</ele><time>2026-04-18T11:25:45.608Z</time></trkpt><trkpt lat="43.5196733" lon="12.3966767"><ele>717.0</ele><time>2026-04-18T11:25:46.608Z</time></trkpt><trkpt lat="43.5195683" lon="12.396685"><ele>717.0</ele><time>2026-04-18T11:25:47.608Z</time></trkpt><trkpt lat="43.5194833" lon="12.3967117"><ele>717.0</ele><time>2026-04-18T11:25:48.608Z</time></trkpt><trkpt lat="43.519415" lon="12.3967783"><ele>717.0</ele><time>2026-04-18T11:25:49.608Z</time></trkpt><trkpt lat="43.5193617" lon="12.3968467"><ele>717.0</ele><time>2026-04-18T11:25:50.608Z</time></trkpt><trkpt lat="43.5193117" lon="12.3969117"><ele>717.0</ele><time>2026-04-18T11:25:51.607Z</time></trkpt><trkpt lat="43.5191917" lon="12.3969733"><ele>716.5</ele><time>2026-04-18T11:25:53.608Z</time></trkpt><trkpt lat="43.5190983" lon="12.396975"><ele>716.0</ele><time>2026-04-18T11:25:54.608Z</time></trkpt><trkpt lat="43.5190033" lon="12.3969783"><ele>715.5</ele><time>2026-04-18T11:25:55.608Z</time></trkpt><trkpt lat="43.51892" lon="12.3969717"><ele>715.0</ele><time>2026-04-18T11:25:56.608Z</time></trkpt><trkpt lat="43.51885" lon="12.3969433"><ele>714.5</ele><time>2026-04-18T11:25:57.608Z</time></trkpt><trkpt lat="43.518775" lon="12.3969017"><ele>714.0</ele><time>2026-04-18T11:25:58.608Z</time></trkpt><trkpt lat="43.5187033" lon="12.3968567"><ele>712.4000000000001</ele><time>2026-04-18T11:25:59.608Z</time></trkpt><trkpt lat="43.5186267" lon="12.3968183"><ele>710.8</ele><time>2026-04-18T11:26:00.608Z</time></trkpt><trkpt lat="43.5185417" lon="12.3967967"><ele>709.2</ele><time>2026-04-18T11:26:01.608Z</time></trkpt><trkpt lat="43.5184467" lon="12.3967917"><ele>707.5999999999999</ele><time>2026-04-18T11:26:02.608Z</time></trkpt><trkpt lat="43.5183417" lon="12.39681"><ele>706.0</ele><time>2026-04-18T11:26:03.608Z</time></trkpt><trkpt lat="43.5182467" lon="12.3968333"><ele>706.0</ele><time>2026-04-18T11:26:04.608Z</time></trkpt><trkpt lat="43.5181617" lon="12.3968667"><ele>706.0</ele><time>2026-04-18T11:26:05.608Z</time></trkpt><trkpt lat="43.5180833" lon="12.396915"><ele>706.0</ele><time>2026-04-18T11:26:06.608Z</time></trkpt><trkpt lat="43.51802" lon="12.39699"><ele>706.0</ele><time>2026-04-18T11:26:07.608Z</time></trkpt><trkpt lat="43.5179767" lon="12.3970567"><ele>706.0</ele><time>2026-04-18T11:26:08.608Z</time></trkpt><trkpt lat="43.51789" lon="12.3970933"><ele>706.0</ele><time>2026-04-18T11:26:10.608Z</time></trkpt><trkpt lat="43.51778" lon="12.3969967"><ele>703.5999999999999</ele><time>2026-04-18T11:26:12.608Z</time></trkpt><trkpt lat="43.5177283" lon="12.3969117"><ele>701.2</ele><time>2026-04-18T11:26:13.608Z</time></trkpt><trkpt lat="43.51765" lon="12.396805"><ele>698.8</ele><time>2026-04-18T11:26:15.608Z</time></trkpt><trkpt lat="43.5175383" lon="12.39676"><ele>696.4000000000001</ele><time>2026-04-18T11:26:17.608Z</time></trkpt><trkpt lat="43.517455" lon="12.396765"><ele>694.0</ele><time>2026-04-18T11:26:18.608Z</time></trkpt><trkpt lat="43.5173483" lon="12.3967817"><ele>694.0</ele><time>2026-04-18T11:26:19.608Z</time></trkpt><trkpt lat="43.517235" lon="12.3967933"><ele>694.0</ele><time>2026-04-18T11:26:20.608Z</time></trkpt><trkpt lat="43.5171233" lon="12.396805"><ele>694.0</ele><time>2026-04-18T11:26:21.608Z</time></trkpt><trkpt lat="43.51702" lon="12.3967933"><ele>694.0</ele><time>2026-04-18T11:26:22.608Z</time></trkpt><trkpt lat="43.51691" lon="12.3967933"><ele>694.0</ele><time>2026-04-18T11:26:23.608Z</time></trkpt><trkpt lat="43.5168117" lon="12.3968267"><ele>694.0</ele><time>2026-04-18T11:26:24.608Z</time></trkpt><trkpt lat="43.51674" lon="12.3968617"><ele>694.0</ele><time>2026-04-18T11:26:25.608Z</time></trkpt><trkpt lat="43.5166833" lon="12.3969067"><ele>694.0</ele><time>2026-04-18T11:26:26.608Z</time></trkpt><trkpt lat="43.5166233" lon="12.3970183"><ele>694.0</ele><time>2026-04-18T11:26:28.608Z</time></trkpt><trkpt lat="43.5166833" lon="12.3971683"><ele>694.0</ele><time>2026-04-18T11:26:30.608Z</time></trkpt><trkpt lat="43.5167367" lon="12.3972567"><ele>693.0</ele><time>2026-04-18T11:26:31.608Z</time></trkpt><trkpt lat="43.5168233" lon="12.39734"><ele>692.0</ele><time>2026-04-18T11:26:32.608Z</time></trkpt><trkpt lat="43.5169433" lon="12.3974133"><ele>691.0</ele><time>2026-04-18T11:26:33.608Z</time></trkpt><trkpt lat="43.5170617" lon="12.39751"><ele>690.0</ele><time>2026-04-18T11:26:34.608Z</time></trkpt><trkpt lat="43.5171583" lon="12.3976"><ele>688.0</ele><time>2026-04-18T11:26:35.608Z</time></trkpt><trkpt lat="43.5172483" lon="12.39767"><ele>686.0</ele><time>2026-04-18T11:26:36.608Z</time></trkpt><trkpt lat="43.5173417" lon="12.3977067"><ele>684.0</ele><time>2026-04-18T11:26:37.608Z</time></trkpt><trkpt lat="43.5174417" lon="12.3977217"><ele>682.0</ele><time>2026-04-18T11:26:38.608Z</time></trkpt><trkpt lat="43.5175067" lon="12.3977417"><ele>680.0</ele><time>2026-04-18T11:26:39.608Z</time></trkpt><trkpt lat="43.517565" lon="12.397775"><ele>678.0</ele><time>2026-04-18T11:26:40.608Z</time></trkpt><trkpt lat="43.51765" lon="12.3978933"><ele>678.0</ele><time>2026-04-18T11:26:42.608Z</time></trkpt><trkpt lat="43.51767" lon="12.3979883"><ele>678.0</ele><time>2026-04-18T11:26:43.608Z</time></trkpt><trkpt lat="43.51767" lon="12.398095"><ele>678.0</ele><time>2026-04-18T11:26:44.608Z</time></trkpt><trkpt lat="43.5176833" lon="12.3982117"><ele>678.0</ele><time>2026-04-18T11:26:45.607Z</time></trkpt><trkpt lat="43.5177083" lon="12.3983267"><ele>678.0</ele><time>2026-04-18T11:26:46.608Z</time></trkpt><trkpt lat="43.5177433" lon="12.3984233"><ele>678.0</ele><time>2026-04-18T11:26:47.608Z</time></trkpt><trkpt lat="43.5178083" lon="12.3985233"><ele>678.75</ele><time>2026-04-18T11:26:48.608Z</time></trkpt><trkpt lat="43.517895" lon="12.39862"><ele>679.5</ele><time>2026-04-18T11:26:49.608Z</time></trkpt><trkpt lat="43.5180133" lon="12.3987033"><ele>680.25</ele><time>2026-04-18T11:26:50.608Z</time></trkpt><trkpt lat="43.5181217" lon="12.3987717"><ele>681.0</ele><time>2026-04-18T11:26:51.608Z</time></trkpt><trkpt lat="43.5182083" lon="12.3988217"><ele>679.3333333333334</ele><time>2026-04-18T11:26:52.608Z</time></trkpt><trkpt lat="43.5182767" lon="12.398875"><ele>677.6666666666666</ele><time>2026-04-18T11:26:53.608Z</time></trkpt><trkpt lat="43.5183167" lon="12.3989433"><ele>676.0</ele><time>2026-04-18T11:26:54.607Z</time></trkpt><trkpt lat="43.5183167" lon="12.3991233"><ele>674.3333333333333</ele><time>2026-04-18T11:26:56.608Z</time></trkpt><trkpt lat="43.5183017" lon="12.3992333"><ele>672.6666666666666</ele><time>2026-04-18T11:26:57.608Z</time></trkpt><trkpt lat="43.5183067" lon="12.3993417"><ele>671.0</ele><time>2026-04-18T11:26:58.608Z</time></trkpt><trkpt lat="43.51834" lon="12.3994517"><ele>671.0</ele><time>2026-04-18T11:26:59.608Z</time></trkpt><trkpt lat="43.5183833" lon="12.3995533"><ele>671.0</ele><time>2026-04-18T11:27:00.608Z</time></trkpt><trkpt lat="43.518445" lon="12.3996517"><ele>671.0</ele><time>2026-04-18T11:27:01.608Z</time></trkpt><trkpt lat="43.5185117" lon="12.3997567"><ele>671.0</ele><time>2026-04-18T11:27:02.608Z</time></trkpt><trkpt lat="43.5185783" lon="12.3998567"><ele>671.0</ele><time>2026-04-18T11:27:03.608Z</time></trkpt><trkpt lat="43.5186483" lon="12.3999517"><ele>671.1666666666666</ele><time>2026-04-18T11:27:04.608Z</time></trkpt><trkpt lat="43.5187267" lon="12.40002"><ele>671.3333333333333</ele><time>2026-04-18T11:27:05.608Z</time></trkpt><trkpt lat="43.5188083" lon="12.4000583"><ele>671.5</ele><time>2026-04-18T11:27:06.608Z</time></trkpt><trkpt lat="43.5188767" lon="12.4000767"><ele>671.6666666666666</ele><time>2026-04-18T11:27:07.608Z</time></trkpt><trkpt lat="43.5189583" lon="12.4001667"><ele>671.8333333333334</ele><time>2026-04-18T11:27:09.608Z</time></trkpt><trkpt lat="43.5189917" lon="12.4002533"><ele>672.0</ele><time>2026-04-18T11:27:10.608Z</time></trkpt><trkpt lat="43.5190383" lon="12.40035"><ele>672.0</ele><time>2026-04-18T11:27:11.608Z</time></trkpt><trkpt lat="43.5190933" lon="12.4004317"><ele>672.0</ele><time>2026-04-18T11:27:12.608Z</time></trkpt><trkpt lat="43.5191633" lon="12.4005067"><ele>672.0</ele><time>2026-04-18T11:27:13.608Z</time></trkpt><trkpt lat="43.5192483" lon="12.40055"><ele>672.0</ele><time>2026-04-18T11:27:14.608Z</time></trkpt><trkpt lat="43.5193533" lon="12.4005717"><ele>672.0</ele><time>2026-04-18T11:27:15.608Z</time></trkpt><trkpt lat="43.5194817" lon="12.4005717"><ele>675.0</ele><time>2026-04-18T11:27:16.608Z</time></trkpt><trkpt lat="43.5196167" lon="12.4005633"><ele>678.0</ele><time>2026-04-18T11:27:17.608Z</time></trkpt><trkpt lat="43.5197483" lon="12.4005483"><ele>681.0</ele><time>2026-04-18T11:27:18.608Z</time></trkpt><trkpt lat="43.5198717" lon="12.4005467"><ele>684.0</ele><time>2026-04-18T11:27:19.608Z</time></trkpt><trkpt lat="43.5200033" lon="12.4005617"><ele>684.0</ele><time>2026-04-18T11:27:20.608Z</time></trkpt><trkpt lat="43.52014" lon="12.40059"><ele>684.0</ele><time>2026-04-18T11:27:21.607Z</time></trkpt><trkpt lat="43.520255" lon="12.400625"><ele>684.0</ele><time>2026-04-18T11:27:22.608Z</time></trkpt><trkpt lat="43.5203533" lon="12.4006483"><ele>684.0</ele><time>2026-04-18T11:27:23.608Z</time></trkpt><trkpt lat="43.5204433" lon="12.4006433"><ele>684.0</ele><time>2026-04-18T11:27:24.608Z</time></trkpt><trkpt lat="43.5205283" lon="12.4005933"><ele>682.4000000000001</ele><time>2026-04-18T11:27:25.608Z</time></trkpt><trkpt lat="43.5206067" lon="12.4005033"><ele>680.8</ele><time>2026-04-18T11:27:26.608Z</time></trkpt><trkpt lat="43.5206933" lon="12.40042"><ele>679.2</ele><time>2026-04-18T11:27:27.608Z</time></trkpt><trkpt lat="43.5207633" lon="12.4003683"><ele>677.5999999999999</ele><time>2026-04-18T11:27:28.607Z</time></trkpt><trkpt lat="43.52087" lon="12.4003983"><ele>676.0</ele><time>2026-04-18T11:27:30.608Z</time></trkpt><trkpt lat="43.52091" lon="12.4004667"><ele>676.0</ele><time>2026-04-18T11:27:31.608Z</time></trkpt><trkpt lat="43.5209383" lon="12.4005533"><ele>676.0</ele><time>2026-04-18T11:27:32.608Z</time></trkpt><trkpt lat="43.5209717" lon="12.4006467"><ele>676.0</ele><time>2026-04-18T11:27:33.608Z</time></trkpt><trkpt lat="43.5210017" lon="12.4007267"><ele>676.0</ele><time>2026-04-18T11:27:34.608Z</time></trkpt><trkpt lat="43.5210533" lon="12.4007917"><ele>676.0</ele><time>2026-04-18T11:27:36.608Z</time></trkpt><trkpt lat="43.521115" lon="12.4007667"><ele>676.0</ele><time>2026-04-18T11:27:39.607Z</time></trkpt><trkpt lat="43.521195" lon="12.40079"><ele>676.0</ele><time>2026-04-18T11:27:42.608Z</time></trkpt><trkpt lat="43.521295" lon="12.4007967"><ele>674.5999999999999</ele><time>2026-04-18T11:27:44.608Z</time></trkpt><trkpt lat="43.5214167" lon="12.4007017"><ele>673.2</ele><time>2026-04-18T11:27:46.608Z</time></trkpt><trkpt lat="43.5214917" lon="12.4006333"><ele>671.8</ele><time>2026-04-18T11:27:47.608Z</time></trkpt><trkpt lat="43.521555" lon="12.4005917"><ele>670.4000000000001</ele><time>2026-04-18T11:27:48.608Z</time></trkpt><trkpt lat="43.521675" lon="12.400615"><ele>669.0</ele><time>2026-04-18T11:27:50.608Z</time></trkpt><trkpt lat="43.5217367" lon="12.4006633"><ele>669.0</ele><time>2026-04-18T11:27:51.608Z</time></trkpt><trkpt lat="43.52182" lon="12.4007267"><ele>669.0</ele><time>2026-04-18T11:27:52.608Z</time></trkpt><trkpt lat="43.52191" lon="12.4007767"><ele>669.0</ele><time>2026-04-18T11:27:53.608Z</time></trkpt><trkpt lat="43.5220133" lon="12.4008033"><ele>669.0</ele><time>2026-04-18T11:27:54.608Z</time></trkpt><trkpt lat="43.5221117" lon="12.4008067"><ele>669.0</ele><time>2026-04-18T11:27:55.608Z</time></trkpt><trkpt lat="43.5221983" lon="12.4007983"><ele>666.3333333333334</ele><time>2026-04-18T11:27:56.608Z</time></trkpt><trkpt lat="43.52227" lon="12.4008"><ele>663.6666666666666</ele><time>2026-04-18T11:27:57.608Z</time></trkpt><trkpt lat="43.52235" lon="12.4008833"><ele>661.0</ele><time>2026-04-18T11:27:59.608Z</time></trkpt><trkpt lat="43.5223717" lon="12.4009717"><ele>658.3333333333333</ele><time>2026-04-18T11:28:00.608Z</time></trkpt><trkpt lat="43.5223767" lon="12.4010767"><ele>655.6666666666666</ele><time>2026-04-18T11:28:01.608Z</time></trkpt><trkpt lat="43.52236" lon="12.4012017"><ele>653.0</ele><time>2026-04-18T11:28:02.608Z</time></trkpt><trkpt lat="43.5223417" lon="12.40131"><ele>655.4</ele><time>2026-04-18T11:28:03.608Z</time></trkpt><trkpt lat="43.5223433" lon="12.4014017"><ele>657.8</ele><time>2026-04-18T11:28:04.608Z</time></trkpt><trkpt lat="43.5223917" lon="12.401555"><ele>660.2</ele><time>2026-04-18T11:28:06.608Z</time></trkpt><trkpt lat="43.5224583" lon="12.401625"><ele>662.6</ele><time>2026-04-18T11:28:07.608Z</time></trkpt><trkpt lat="43.522555" lon="12.4016867"><ele>665.0</ele><time>2026-04-18T11:28:08.608Z</time></trkpt><trkpt lat="43.522665" lon="12.4017267"><ele>665.0</ele><time>2026-04-18T11:28:09.608Z</time></trkpt><trkpt lat="43.52278" lon="12.4017467"><ele>665.0</ele><time>2026-04-18T11:28:10.607Z</time></trkpt><trkpt lat="43.52289" lon="12.40174"><ele>665.0</ele><time>2026-04-18T11:28:11.608Z</time></trkpt><trkpt lat="43.523005" lon="12.4017017"><ele>665.0</ele><time>2026-04-18T11:28:12.608Z</time></trkpt><trkpt lat="43.5230967" lon="12.4016367"><ele>665.0</ele><time>2026-04-18T11:28:13.608Z</time></trkpt><trkpt lat="43.523175" lon="12.401585"><ele>665.0</ele><time>2026-04-18T11:28:14.608Z</time></trkpt><trkpt lat="43.5232617" lon="12.40154"><ele>665.0</ele><time>2026-04-18T11:28:15.608Z</time></trkpt><trkpt lat="43.5233383" lon="12.4015217"><ele>665.0</ele><time>2026-04-18T11:28:16.608Z</time></trkpt><trkpt lat="43.5234133" lon="12.4015167"><ele>665.0</ele><time>2026-04-18T11:28:17.608Z</time></trkpt><trkpt lat="43.5234983" lon="12.40154"><ele>665.0</ele><time>2026-04-18T11:28:18.608Z</time></trkpt><trkpt lat="43.52359" lon="12.4015633"><ele>665.0</ele><time>2026-04-18T11:28:19.608Z</time></trkpt><trkpt lat="43.52366" lon="12.401585"><ele>665.0</ele><time>2026-04-18T11:28:20.608Z</time></trkpt><trkpt lat="43.5237283" lon="12.401635"><ele>665.0</ele><time>2026-04-18T11:28:21.608Z</time></trkpt><trkpt lat="43.5237917" lon="12.4017283"><ele>665.0</ele><time>2026-04-18T11:28:22.608Z</time></trkpt><trkpt lat="43.5238517" lon="12.401845"><ele>665.0</ele><time>2026-04-18T11:28:23.608Z</time></trkpt><trkpt lat="43.5239233" lon="12.40195"><ele>665.0</ele><time>2026-04-18T11:28:24.608Z</time></trkpt><trkpt lat="43.5239883" lon="12.402035"><ele>664.6</ele><time>2026-04-18T11:28:25.608Z</time></trkpt><trkpt lat="43.5240533" lon="12.4021267"><ele>664.2</ele><time>2026-04-18T11:28:26.608Z</time></trkpt><trkpt lat="43.5241133" lon="12.40224"><ele>663.8</ele><time>2026-04-18T11:28:27.608Z</time></trkpt><trkpt lat="43.52417" lon="12.4023517"><ele>663.4</ele><time>2026-04-18T11:28:28.608Z</time></trkpt><trkpt lat="43.524235" lon="12.4024383"><ele>663.0</ele><time>2026-04-18T11:28:29.608Z</time></trkpt><trkpt lat="43.5243033" lon="12.4025067"><ele>663.0</ele><time>2026-04-18T11:28:30.608Z</time></trkpt><trkpt lat="43.5243783" lon="12.40255"><ele>663.0</ele><time>2026-04-18T11:28:31.608Z</time></trkpt><trkpt lat="43.524455" lon="12.402575"><ele>663.0</ele><time>2026-04-18T11:28:32.608Z</time></trkpt><trkpt lat="43.5245267" lon="12.4025517"><ele>663.0</ele><time>2026-04-18T11:28:33.608Z</time></trkpt><trkpt lat="43.5246117" lon="12.4024917"><ele>663.0</ele><time>2026-04-18T11:28:34.608Z</time></trkpt><trkpt lat="43.5246967" lon="12.4023933"><ele>663.0</ele><time>2026-04-18T11:28:35.608Z</time></trkpt><trkpt lat="43.5247517" lon="12.4022883"><ele>661.8333333333334</ele><time>2026-04-18T11:28:36.608Z</time></trkpt><trkpt lat="43.5247967" lon="12.4022067"><ele>660.6666666666666</ele><time>2026-04-18T11:28:37.607Z</time></trkpt><trkpt lat="43.524845" lon="12.40215"><ele>659.5</ele><time>2026-04-18T11:28:38.608Z</time></trkpt><trkpt lat="43.524925" lon="12.40212"><ele>658.3333333333333</ele><time>2026-04-18T11:28:40.608Z</time></trkpt><trkpt lat="43.5250067" lon="12.4022567"><ele>657.1666666666666</ele><time>2026-04-18T11:28:42.608Z</time></trkpt><trkpt lat="43.5250167" lon="12.4023617"><ele>656.0</ele><time>2026-04-18T11:28:43.608Z</time></trkpt><trkpt lat="43.5250383" lon="12.4024583"><ele>656.0</ele><time>2026-04-18T11:28:44.608Z</time></trkpt><trkpt lat="43.525065" lon="12.4025417"><ele>656.0</ele><time>2026-04-18T11:28:45.608Z</time></trkpt><trkpt lat="43.5251317" lon="12.4026767"><ele>656.0</ele><time>2026-04-18T11:28:47.608Z</time></trkpt><trkpt lat="43.5252383" lon="12.4027367"><ele>656.0</ele><time>2026-04-18T11:28:49.608Z</time></trkpt><trkpt lat="43.5253433" lon="12.4027067"><ele>656.0</ele><time>2026-04-18T11:28:51.608Z</time></trkpt><trkpt lat="43.525405" lon="12.40264"><ele>657.1999999999999</ele><time>2026-04-18T11:28:52.608Z</time></trkpt><trkpt lat="43.5254683" lon="12.40255"><ele>658.4</ele><time>2026-04-18T11:28:53.608Z</time></trkpt><trkpt lat="43.5255267" lon="12.4024567"><ele>659.6</ele><time>2026-04-18T11:28:54.608Z</time></trkpt><trkpt lat="43.5255883" lon="12.40235"><ele>660.8</ele><time>2026-04-18T11:28:55.608Z</time></trkpt><trkpt lat="43.52563" lon="12.4022367"><ele>662.0</ele><time>2026-04-18T11:28:56.608Z</time></trkpt><trkpt lat="43.52564" lon="12.4021"><ele>657.6666666666666</ele><time>2026-04-18T11:28:57.608Z</time></trkpt><trkpt lat="43.5256533" lon="12.4019617"><ele>653.3333333333333</ele><time>2026-04-18T11:28:58.608Z</time></trkpt><trkpt lat="43.5256667" lon="12.4018633"><ele>649.0</ele><time>2026-04-18T11:28:59.608Z</time></trkpt><trkpt lat="43.525685" lon="12.4017767"><ele>644.6666666666666</ele><time>2026-04-18T11:29:00.608Z</time></trkpt><trkpt lat="43.5257617" lon="12.401725"><ele>640.3333333333334</ele><time>2026-04-18T11:29:02.608Z</time></trkpt><trkpt lat="43.525825" lon="12.40175"><ele>636.0</ele><time>2026-04-18T11:29:03.608Z</time></trkpt><trkpt lat="43.52592" lon="12.4017817"><ele>636.0</ele><time>2026-04-18T11:29:04.608Z</time></trkpt><trkpt lat="43.5259983" lon="12.4017917"><ele>636.0</ele><time>2026-04-18T11:29:05.608Z</time></trkpt><trkpt lat="43.5260883" lon="12.4017567"><ele>636.0</ele><time>2026-04-18T11:29:06.608Z</time></trkpt><trkpt lat="43.5261817" lon="12.401705"><ele>636.0</ele><time>2026-04-18T11:29:07.608Z</time></trkpt><trkpt lat="43.5262967" lon="12.4016533"><ele>636.0</ele><time>2026-04-18T11:29:08.608Z</time></trkpt><trkpt lat="43.526415" lon="12.4016167"><ele>636.5</ele><time>2026-04-18T11:29:09.608Z</time></trkpt><trkpt lat="43.5265467" lon="12.4015667"><ele>637.0</ele><time>2026-04-18T11:29:10.608Z</time></trkpt><trkpt lat="43.5266633" lon="12.40149"><ele>637.5</ele><time>2026-04-18T11:29:11.608Z</time></trkpt><trkpt lat="43.5267633" lon="12.401425"><ele>638.0</ele><time>2026-04-18T11:29:12.608Z</time></trkpt><trkpt lat="43.5268483" lon="12.4014083"><ele>638.0</ele><time>2026-04-18T11:29:13.608Z</time></trkpt><trkpt lat="43.526915" lon="12.401355"><ele>638.0</ele><time>2026-04-18T11:29:14.608Z</time></trkpt><trkpt lat="43.5270083" lon="12.4013717"><ele>638.0</ele><time>2026-04-18T11:29:16.608Z</time></trkpt><trkpt lat="43.52705" lon="12.4015083"><ele>638.0</ele><time>2026-04-18T11:29:18.608Z</time></trkpt><trkpt lat="43.5270533" lon="12.4016233"><ele>638.0</ele><time>2026-04-18T11:29:19.608Z</time></trkpt><trkpt lat="43.5270483" lon="12.4017617"><ele>638.0</ele><time>2026-04-18T11:29:20.608Z</time></trkpt><trkpt lat="43.5270283" lon="12.4019183"><ele>638.0</ele><time>2026-04-18T11:29:21.608Z</time></trkpt><trkpt lat="43.527" lon="12.4020983"><ele>638.0</ele><time>2026-04-18T11:29:22.608Z</time></trkpt><trkpt lat="43.5269783" lon="12.402275"><ele>638.0</ele><time>2026-04-18T11:29:23.608Z</time></trkpt><trkpt lat="43.5269617" lon="12.402445"><ele>641.0</ele><time>2026-04-18T11:29:24.608Z</time></trkpt><trkpt lat="43.526945" lon="12.4025983"><ele>644.0</ele><time>2026-04-18T11:29:25.608Z</time></trkpt><trkpt lat="43.5269267" lon="12.4027483"><ele>647.0</ele><time>2026-04-18T11:29:26.608Z</time></trkpt><trkpt lat="43.5269033" lon="12.402885"><ele>650.0</ele><time>2026-04-18T11:29:27.608Z</time></trkpt><trkpt lat="43.5268817" lon="12.4030067"><ele>653.0</ele><time>2026-04-18T11:29:28.608Z</time></trkpt><trkpt lat="43.5268717" lon="12.4031133"><ele>653.5</ele><time>2026-04-18T11:29:29.608Z</time></trkpt><trkpt lat="43.5268783" lon="12.4032"><ele>654.0</ele><time>2026-04-18T11:29:30.608Z</time></trkpt><trkpt lat="43.52696" lon="12.4033267"><ele>654.5</ele><time>2026-04-18T11:29:32.608Z</time></trkpt><trkpt lat="43.527015" lon="12.4033733"><ele>655.0</ele><time>2026-04-18T11:29:33.608Z</time></trkpt><trkpt lat="43.527085" lon="12.403395"><ele>655.5</ele><time>2026-04-18T11:29:34.608Z</time></trkpt><trkpt lat="43.527165" lon="12.403395"><ele>656.0</ele><time>2026-04-18T11:29:35.608Z</time></trkpt><trkpt lat="43.527235" lon="12.40335"><ele>656.0</ele><time>2026-04-18T11:29:36.608Z</time></trkpt><trkpt lat="43.5273233" lon="12.403265"><ele>656.0</ele><time>2026-04-18T11:29:37.608Z</time></trkpt><trkpt lat="43.5274117" lon="12.40313"><ele>656.0</ele><time>2026-04-18T11:29:38.608Z</time></trkpt><trkpt lat="43.5275017" lon="12.402975"><ele>656.0</ele><time>2026-04-18T11:29:39.608Z</time></trkpt><trkpt lat="43.5275883" lon="12.4028117"><ele>654.5999999999999</ele><time>2026-04-18T11:29:40.608Z</time></trkpt><trkpt lat="43.5276633" lon="12.402675"><ele>653.2</ele><time>2026-04-18T11:29:41.608Z</time></trkpt><trkpt lat="43.52773" lon="12.4025883"><ele>651.8</ele><time>2026-04-18T11:29:42.608Z</time></trkpt><trkpt lat="43.5278067" lon="12.4025367"><ele>650.4000000000001</ele><time>2026-04-18T11:29:43.608Z</time></trkpt><trkpt lat="43.527895" lon="12.402495"><ele>649.0</ele><time>2026-04-18T11:29:44.608Z</time></trkpt><trkpt lat="43.5279867" lon="12.4024633"><ele>649.0</ele><time>2026-04-18T11:29:45.608Z</time></trkpt><trkpt lat="43.5280833" lon="12.402455"><ele>649.0</ele><time>2026-04-18T11:29:46.608Z</time></trkpt><trkpt lat="43.5281917" lon="12.4024833"><ele>649.0</ele><time>2026-04-18T11:29:47.608Z</time></trkpt><trkpt lat="43.5283" lon="12.4025117"><ele>649.0</ele><time>2026-04-18T11:29:48.608Z</time></trkpt><trkpt lat="43.5284033" lon="12.4025083"><ele>649.0</ele><time>2026-04-18T11:29:49.608Z</time></trkpt><trkpt lat="43.5285117" lon="12.402465"><ele>649.0</ele><time>2026-04-18T11:29:50.608Z</time></trkpt><trkpt lat="43.5286167" lon="12.4023917"><ele>649.0</ele><time>2026-04-18T11:29:51.608Z</time></trkpt><trkpt lat="43.5287317" lon="12.40229"><ele>649.0</ele><time>2026-04-18T11:29:52.608Z</time></trkpt><trkpt lat="43.528825" lon="12.402215"><ele>649.0</ele><time>2026-04-18T11:29:53.608Z</time></trkpt><trkpt lat="43.5289033" lon="12.40217"><ele>649.0</ele><time>2026-04-18T11:29:54.608Z</time></trkpt><trkpt lat="43.5289717" lon="12.40215"><ele>649.0</ele><time>2026-04-18T11:29:55.608Z</time></trkpt><trkpt lat="43.529035" lon="12.4021617"><ele>649.0</ele><time>2026-04-18T11:29:56.608Z</time></trkpt><trkpt lat="43.5291433" lon="12.402265"><ele>649.0</ele><time>2026-04-18T11:29:58.608Z</time></trkpt><trkpt lat="43.5292" lon="12.4023617"><ele>649.0</ele><time>2026-04-18T11:29:59.608Z</time></trkpt><trkpt lat="43.5292617" lon="12.4024933"><ele>649.0</ele><time>2026-04-18T11:30:00.607Z</time></trkpt><trkpt lat="43.5293083" lon="12.402645"><ele>649.0</ele><time>2026-04-18T11:30:01.608Z</time></trkpt><trkpt lat="43.529345" lon="12.4028017"><ele>649.0</ele><time>2026-04-18T11:30:02.608Z</time></trkpt><trkpt lat="43.52937" lon="12.402935"><ele>649.0</ele><time>2026-04-18T11:30:03.608Z</time></trkpt><trkpt lat="43.52937" lon="12.403045"><ele>649.0</ele><time>2026-04-18T11:30:04.608Z</time></trkpt><trkpt lat="43.5293467" lon="12.4031533"><ele>649.0</ele><time>2026-04-18T11:30:05.608Z</time></trkpt><trkpt lat="43.5293117" lon="12.4032767"><ele>650.4000000000001</ele><time>2026-04-18T11:30:06.608Z</time></trkpt><trkpt lat="43.5292767" lon="12.4034067"><ele>651.8</ele><time>2026-04-18T11:30:07.608Z</time></trkpt><trkpt lat="43.5292517" lon="12.4035583"><ele>653.2</ele><time>2026-04-18T11:30:08.608Z</time></trkpt><trkpt lat="43.5292383" lon="12.40372"><ele>654.5999999999999</ele><time>2026-04-18T11:30:09.608Z</time></trkpt><trkpt lat="43.5292283" lon="12.4038583"><ele>656.0</ele><time>2026-04-18T11:30:10.608Z</time></trkpt><trkpt lat="43.5292167" lon="12.4039683"><ele>656.0</ele><time>2026-04-18T11:30:11.608Z</time></trkpt><trkpt lat="43.5291817" lon="12.4040617"><ele>656.0</ele><time>2026-04-18T11:30:12.608Z</time></trkpt><trkpt lat="43.529135" lon="12.4041467"><ele>656.0</ele><time>2026-04-18T11:30:13.608Z</time></trkpt><trkpt lat="43.5290667" lon="12.404235"><ele>656.0</ele><time>2026-04-18T11:30:14.608Z</time></trkpt><trkpt lat="43.5289967" lon="12.4043167"><ele>656.0</ele><time>2026-04-18T11:30:15.608Z</time></trkpt><trkpt lat="43.52894" lon="12.4044217"><ele>656.0</ele><time>2026-04-18T11:30:16.608Z</time></trkpt><trkpt lat="43.528875" lon="12.4045067"><ele>656.0</ele><time>2026-04-18T11:30:17.608Z</time></trkpt><trkpt lat="43.5288233" lon="12.4046267"><ele>656.0</ele><time>2026-04-18T11:30:18.608Z</time></trkpt><trkpt lat="43.5287933" lon="12.404765"><ele>656.0</ele><time>2026-04-18T11:30:19.608Z</time></trkpt><trkpt lat="43.52877" lon="12.4049083"><ele>656.0</ele><time>2026-04-18T11:30:20.608Z</time></trkpt><trkpt lat="43.52875" lon="12.40507"><ele>656.0</ele><time>2026-04-18T11:30:21.608Z</time></trkpt><trkpt lat="43.5287433" lon="12.40518"><ele>657.0</ele><time>2026-04-18T11:30:22.608Z</time></trkpt><trkpt lat="43.5287217" lon="12.405305"><ele>658.0</ele><time>2026-04-18T11:30:23.608Z</time></trkpt><trkpt lat="43.5287083" lon="12.4054033"><ele>659.0</ele><time>2026-04-18T11:30:24.608Z</time></trkpt><trkpt lat="43.5287117" lon="12.4054983"><ele>660.0</ele><time>2026-04-18T11:30:25.608Z</time></trkpt><trkpt lat="43.5287333" lon="12.4055967"><ele>661.0</ele><time>2026-04-18T11:30:26.608Z</time></trkpt><trkpt lat="43.528795" lon="12.4056867"><ele>662.0</ele><time>2026-04-18T11:30:27.608Z</time></trkpt><trkpt lat="43.5288783" lon="12.4057633"><ele>662.0</ele><time>2026-04-18T11:30:28.608Z</time></trkpt><trkpt lat="43.5289283" lon="12.4058367"><ele>662.0</ele><time>2026-04-18T11:30:29.608Z</time></trkpt><trkpt lat="43.5289633" lon="12.405935"><ele>662.0</ele><time>2026-04-18T11:30:30.608Z</time></trkpt><trkpt lat="43.52898" lon="12.4060367"><ele>662.0</ele><time>2026-04-18T11:30:31.608Z</time></trkpt><trkpt lat="43.5290017" lon="12.4061283"><ele>662.0</ele><time>2026-04-18T11:30:32.608Z</time></trkpt><trkpt lat="43.5290667" lon="12.4062167"><ele>662.0</ele><time>2026-04-18T11:30:34.608Z</time></trkpt><trkpt lat="43.5291283" lon="12.406185"><ele>662.0</ele><time>2026-04-18T11:30:35.608Z</time></trkpt><trkpt lat="43.5292067" lon="12.4060867"><ele>662.0</ele><time>2026-04-18T11:30:36.608Z</time></trkpt><trkpt lat="43.5293017" lon="12.4059567"><ele>662.0</ele><time>2026-04-18T11:30:37.608Z</time></trkpt><trkpt lat="43.5293817" lon="12.405825"><ele>662.0</ele><time>2026-04-18T11:30:38.608Z</time></trkpt><trkpt lat="43.5294667" lon="12.4057067"><ele>662.0</ele><time>2026-04-18T11:30:39.608Z</time></trkpt><trkpt lat="43.5295267" lon="12.4056083"><ele>662.0</ele><time>2026-04-18T11:30:40.608Z</time></trkpt><trkpt lat="43.5295933" lon="12.4055367"><ele>662.0</ele><time>2026-04-18T11:30:41.608Z</time></trkpt><trkpt lat="43.5296667" lon="12.405485"><ele>662.0</ele><time>2026-04-18T11:30:42.608Z</time></trkpt><trkpt lat="43.52974" lon="12.4054567"><ele>662.0</ele><time>2026-04-18T11:30:43.608Z</time></trkpt><trkpt lat="43.52982" lon="12.4054667"><ele>662.0</ele><time>2026-04-18T11:30:44.608Z</time></trkpt><trkpt lat="43.52992" lon="12.4055167"><ele>661.0</ele><time>2026-04-18T11:30:45.608Z</time></trkpt><trkpt lat="43.5300267" lon="12.4055567"><ele>660.0</ele><time>2026-04-18T11:30:46.608Z</time></trkpt><trkpt lat="43.53014" lon="12.40558"><ele>659.0</ele><time>2026-04-18T11:30:47.608Z</time></trkpt><trkpt lat="43.5302417" lon="12.4055817"><ele>658.0</ele><time>2026-04-18T11:30:48.608Z</time></trkpt><trkpt lat="43.5303383" lon="12.4055883"><ele>657.0</ele><time>2026-04-18T11:30:49.608Z</time></trkpt><trkpt lat="43.5304417" lon="12.405615"><ele>655.5</ele><time>2026-04-18T11:30:50.608Z</time></trkpt><trkpt lat="43.53056" lon="12.4056617"><ele>654.0</ele><time>2026-04-18T11:30:51.608Z</time></trkpt><trkpt lat="43.5306883" lon="12.4057017"><ele>652.5</ele><time>2026-04-18T11:30:52.608Z</time></trkpt><trkpt lat="43.5308233" lon="12.4057233"><ele>651.0</ele><time>2026-04-18T11:30:53.608Z</time></trkpt><trkpt lat="43.53096" lon="12.40572"><ele>651.0</ele><time>2026-04-18T11:30:54.608Z</time></trkpt><trkpt lat="43.5310867" lon="12.40571"><ele>651.0</ele><time>2026-04-18T11:30:55.608Z</time></trkpt><trkpt lat="43.531185" lon="12.4056917"><ele>651.0</ele><time>2026-04-18T11:30:56.608Z</time></trkpt><trkpt lat="43.531255" lon="12.4057"><ele>651.0</ele><time>2026-04-18T11:30:57.608Z</time></trkpt><trkpt lat="43.5313117" lon="12.4057417"><ele>651.0</ele><time>2026-04-18T11:30:58.608Z</time></trkpt><trkpt lat="43.5313467" lon="12.4058183"><ele>651.0</ele><time>2026-04-18T11:30:59.608Z</time></trkpt><trkpt lat="43.53135" lon="12.405915"><ele>651.0</ele><time>2026-04-18T11:31:00.608Z</time></trkpt><trkpt lat="43.53133" lon="12.4060117"><ele>651.0</ele><time>2026-04-18T11:31:01.608Z</time></trkpt><trkpt lat="43.5312767" lon="12.4061367"><ele>651.0</ele><time>2026-04-18T11:31:02.608Z</time></trkpt><trkpt lat="43.5312067" lon="12.4062833"><ele>651.0</ele><time>2026-04-18T11:31:03.608Z</time></trkpt><trkpt lat="43.5311333" lon="12.406445"><ele>651.0</ele><time>2026-04-18T11:31:04.608Z</time></trkpt><trkpt lat="43.5310517" lon="12.4065933"><ele>652.75</ele><time>2026-04-18T11:31:05.608Z</time></trkpt><trkpt lat="43.5309783" lon="12.4067417"><ele>654.5</ele><time>2026-04-18T11:31:06.608Z</time></trkpt><trkpt lat="43.5308983" lon="12.4068733"><ele>656.25</ele><time>2026-04-18T11:31:07.608Z</time></trkpt><trkpt lat="43.530805" lon="12.4069933"><ele>658.0</ele><time>2026-04-18T11:31:08.608Z</time></trkpt><trkpt lat="43.5307217" lon="12.40708"><ele>657.3333333333334</ele><time>2026-04-18T11:31:09.608Z</time></trkpt><trkpt lat="43.5306383" lon="12.4071767"><ele>656.6666666666667</ele><time>2026-04-18T11:31:10.608Z</time></trkpt><trkpt lat="43.5305667" lon="12.4072783"><ele>656.0</ele><time>2026-04-18T11:31:11.608Z</time></trkpt><trkpt lat="43.5305167" lon="12.40738"><ele>655.3333333333334</ele><time>2026-04-18T11:31:12.608Z</time></trkpt><trkpt lat="43.5305" lon="12.4074733"><ele>654.6666666666666</ele><time>2026-04-18T11:31:13.608Z</time></trkpt><trkpt lat="43.5304983" lon="12.4075767"><ele>654.0</ele><time>2026-04-18T11:31:14.608Z</time></trkpt><trkpt lat="43.53051" lon="12.4077117"><ele>654.0</ele><time>2026-04-18T11:31:15.608Z</time></trkpt><trkpt lat="43.5305417" lon="12.4078433"><ele>654.0</ele><time>2026-04-18T11:31:16.608Z</time></trkpt><trkpt lat="43.53059" lon="12.407975"><ele>654.0</ele><time>2026-04-18T11:31:17.608Z</time></trkpt><trkpt lat="43.5306483" lon="12.4081117"><ele>654.0</ele><time>2026-04-18T11:31:18.608Z</time></trkpt><trkpt lat="43.5307117" lon="12.408255"><ele>654.0</ele><time>2026-04-18T11:31:19.608Z</time></trkpt><trkpt lat="43.5307783" lon="12.4084033"><ele>655.8000000000001</ele><time>2026-04-18T11:31:20.608Z</time></trkpt><trkpt lat="43.5308383" lon="12.40856"><ele>657.6</ele><time>2026-04-18T11:31:21.608Z</time></trkpt><trkpt lat="43.530895" lon="12.408705"><ele>659.4</ele><time>2026-04-18T11:31:22.608Z</time></trkpt><trkpt lat="43.5309583" lon="12.4088217"><ele>661.2</ele><time>2026-04-18T11:31:23.608Z</time></trkpt><trkpt lat="43.5310183" lon="12.408905"><ele>663.0</ele><time>2026-04-18T11:31:24.608Z</time></trkpt><trkpt lat="43.5310917" lon="12.408965"><ele>663.8</ele><time>2026-04-18T11:31:25.608Z</time></trkpt><trkpt lat="43.531175" lon="12.4090217"><ele>664.5999999999999</ele><time>2026-04-18T11:31:26.608Z</time></trkpt><trkpt lat="43.5312683" lon="12.409025"><ele>665.4000000000001</ele><time>2026-04-18T11:31:27.608Z</time></trkpt><trkpt lat="43.5313667" lon="12.4090417"><ele>666.2</ele><time>2026-04-18T11:31:28.608Z</time></trkpt><trkpt lat="43.5314583" lon="12.4090933"><ele>667.0</ele><time>2026-04-18T11:31:29.608Z</time></trkpt><trkpt lat="43.5315467" lon="12.4091717"><ele>667.0</ele><time>2026-04-18T11:31:30.608Z</time></trkpt><trkpt lat="43.5316433" lon="12.4092483"><ele>667.0</ele><time>2026-04-18T11:31:31.608Z</time></trkpt><trkpt lat="43.53172" lon="12.4092967"><ele>667.0</ele><time>2026-04-18T11:31:32.608Z</time></trkpt><trkpt lat="43.5317917" lon="12.4093133"><ele>667.0</ele><time>2026-04-18T11:31:33.608Z</time></trkpt><trkpt lat="43.5318583" lon="12.4092967"><ele>667.0</ele><time>2026-04-18T11:31:35.608Z</time></trkpt><trkpt lat="43.53192" lon="12.4092683"><ele>667.0</ele><time>2026-04-18T11:31:38.607Z</time></trkpt><trkpt lat="43.5319733" lon="12.4091767"><ele>667.0000000000001</ele><time>2026-04-18T11:32:16.607Z</time></trkpt><trkpt lat="43.5320417" lon="12.4091283"><ele>667.0</ele><time>2026-04-18T11:32:18.607Z</time></trkpt><trkpt lat="43.5321067" lon="12.4090467"><ele>667.0</ele><time>2026-04-18T11:32:21.607Z</time></trkpt><trkpt lat="43.53215" lon="12.408955"><ele>667.0</ele><time>2026-04-18T11:32:24.607Z</time></trkpt><trkpt lat="43.53221" lon="12.4088983"><ele>667.0</ele><time>2026-04-18T11:32:40.607Z</time></trkpt><trkpt lat="43.5322767" lon="12.4088933"><ele>667.0000000000001</ele><time>2026-04-18T11:32:42.607Z</time></trkpt><trkpt lat="43.5323417" lon="12.4088967"><ele>667.0</ele><time>2026-04-18T11:32:44.607Z</time></trkpt><trkpt lat="43.5324183" lon="12.40895"><ele>668.6</ele><time>2026-04-18T11:32:46.607Z</time></trkpt><trkpt lat="43.5325067" lon="12.4090183"><ele>670.2</ele><time>2026-04-18T11:32:48.607Z</time></trkpt><trkpt lat="43.5326417" lon="12.409025"><ele>671.8</ele><time>2026-04-18T11:32:50.607Z</time></trkpt><trkpt lat="43.532725" lon="12.409005"><ele>673.4</ele><time>2026-04-18T11:32:51.607Z</time></trkpt><trkpt lat="43.532815" lon="12.408965"><ele>675.0</ele><time>2026-04-18T11:32:52.607Z</time></trkpt><trkpt lat="43.53292" lon="12.40891"><ele>677.25</ele><time>2026-04-18T11:32:53.607Z</time></trkpt><trkpt lat="43.53302" lon="12.40886"><ele>679.5</ele><time>2026-04-18T11:32:54.607Z</time></trkpt><trkpt lat="43.5331417" lon="12.4088167"><ele>681.75</ele><time>2026-04-18T11:32:55.607Z</time></trkpt><trkpt lat="43.5332517" lon="12.4087983"><ele>684.0</ele><time>2026-04-18T11:32:56.607Z</time></trkpt><trkpt lat="43.5333867" lon="12.4087717"><ele>674.3333333333334</ele><time>2026-04-18T11:32:57.607Z</time></trkpt><trkpt lat="43.533525" lon="12.40877"><ele>664.6666666666667</ele><time>2026-04-18T11:32:58.607Z</time></trkpt><trkpt lat="43.533675" lon="12.40878"><ele>655.0</ele><time>2026-04-18T11:32:59.607Z</time></trkpt><trkpt lat="43.5338367" lon="12.4087983"><ele>664.6666666666667</ele><time>2026-04-18T11:33:00.607Z</time></trkpt><trkpt lat="43.5340033" lon="12.4088383"><ele>674.3333333333334</ele><time>2026-04-18T11:33:01.607Z</time></trkpt><trkpt lat="43.5341533" lon="12.4088867"><ele>684.0</ele><time>2026-04-18T11:33:02.607Z</time></trkpt><trkpt lat="43.5342833" lon="12.4089317"><ele>684.0</ele><time>2026-04-18T11:33:03.607Z</time></trkpt><trkpt lat="43.5344017" lon="12.4089867"><ele>684.0</ele><time>2026-04-18T11:33:04.607Z</time></trkpt><trkpt lat="43.534505" lon="12.4090567"><ele>684.0</ele><time>2026-04-18T11:33:05.607Z</time></trkpt><trkpt lat="43.5346" lon="12.4091417"><ele>684.0</ele><time>2026-04-18T11:33:06.607Z</time></trkpt><trkpt lat="43.5347" lon="12.4092233"><ele>682.0</ele><time>2026-04-18T11:33:07.607Z</time></trkpt><trkpt lat="43.5347667" lon="12.4092917"><ele>680.0</ele><time>2026-04-18T11:33:08.607Z</time></trkpt><trkpt lat="43.53484" lon="12.4093383"><ele>678.0</ele><time>2026-04-18T11:33:09.607Z</time></trkpt><trkpt lat="43.5349083" lon="12.409375"><ele>676.0</ele><time>2026-04-18T11:33:10.607Z</time></trkpt><trkpt lat="43.5349867" lon="12.40939"><ele>674.0</ele><time>2026-04-18T11:33:11.607Z</time></trkpt><trkpt lat="43.5350733" lon="12.4093883"><ele>672.0</ele><time>2026-04-18T11:33:12.607Z</time></trkpt><trkpt lat="43.5351483" lon="12.40937"><ele>672.0</ele><time>2026-04-18T11:33:13.607Z</time></trkpt><trkpt lat="43.5352383" lon="12.4093283"><ele>672.0</ele><time>2026-04-18T11:33:14.607Z</time></trkpt><trkpt lat="43.5353233" lon="12.4092617"><ele>672.0</ele><time>2026-04-18T11:33:15.607Z</time></trkpt><trkpt lat="43.5354133" lon="12.409185"><ele>672.0</ele><time>2026-04-18T11:33:16.607Z</time></trkpt><trkpt lat="43.5355083" lon="12.409135"><ele>672.0</ele><time>2026-04-18T11:33:17.606Z</time></trkpt><trkpt lat="43.5356283" lon="12.409115"><ele>671.5</ele><time>2026-04-18T11:33:18.607Z</time></trkpt><trkpt lat="43.535755" lon="12.409115"><ele>671.0</ele><time>2026-04-18T11:33:19.607Z</time></trkpt><trkpt lat="43.5358767" lon="12.4091417"><ele>670.5</ele><time>2026-04-18T11:33:20.607Z</time></trkpt><trkpt lat="43.5359883" lon="12.4091817"><ele>670.0</ele><time>2026-04-18T11:33:21.607Z</time></trkpt><trkpt lat="43.53611" lon="12.40926"><ele>666.4</ele><time>2026-04-18T11:33:22.607Z</time></trkpt><trkpt lat="43.5362217" lon="12.4093133"><ele>662.8</ele><time>2026-04-18T11:33:23.607Z</time></trkpt><trkpt lat="43.5363317" lon="12.40934"><ele>659.2</ele><time>2026-04-18T11:33:24.607Z</time></trkpt><trkpt lat="43.5364383" lon="12.40936"><ele>655.6</ele><time>2026-04-18T11:33:25.607Z</time></trkpt><trkpt lat="43.53653" lon="12.4093883"><ele>652.0</ele><time>2026-04-18T11:33:26.607Z</time></trkpt><trkpt lat="43.5365983" lon="12.4094433"><ele>652.0</ele><time>2026-04-18T11:33:27.607Z</time></trkpt><trkpt lat="43.5366717" lon="12.4095417"><ele>652.0</ele><time>2026-04-18T11:33:28.607Z</time></trkpt><trkpt lat="43.536755" lon="12.4096633"><ele>652.0</ele><time>2026-04-18T11:33:29.607Z</time></trkpt><trkpt lat="43.5368467" lon="12.4098017"><ele>652.0</ele><time>2026-04-18T11:33:30.607Z</time></trkpt><trkpt lat="43.5369433" lon="12.40992"><ele>651.0</ele><time>2026-04-18T11:33:31.607Z</time></trkpt><trkpt lat="43.537035" lon="12.4100333"><ele>650.0</ele><time>2026-04-18T11:33:32.607Z</time></trkpt><trkpt lat="43.537135" lon="12.4101217"><ele>649.0</ele><time>2026-04-18T11:33:33.607Z</time></trkpt><trkpt lat="43.5372167" lon="12.4102033"><ele>648.0</ele><time>2026-04-18T11:33:34.607Z</time></trkpt><trkpt lat="43.5373" lon="12.4102533"><ele>647.0</ele><time>2026-04-18T11:33:35.607Z</time></trkpt><trkpt lat="43.5373867" lon="12.4102783"><ele>647.0</ele><time>2026-04-18T11:33:36.607Z</time></trkpt><trkpt lat="43.537485" lon="12.410275"><ele>647.0</ele><time>2026-04-18T11:33:37.607Z</time></trkpt><trkpt lat="43.5375867" lon="12.4102517"><ele>647.0</ele><time>2026-04-18T11:33:38.607Z</time></trkpt><trkpt lat="43.5376767" lon="12.4102033"><ele>647.0</ele><time>2026-04-18T11:33:39.607Z</time></trkpt><trkpt lat="43.5377617" lon="12.41013"><ele>647.0</ele><time>2026-04-18T11:33:40.607Z</time></trkpt><trkpt lat="43.5378467" lon="12.4100217"><ele>649.5</ele><time>2026-04-18T11:33:41.607Z</time></trkpt><trkpt lat="43.53793" lon="12.4098983"><ele>652.0</ele><time>2026-04-18T11:33:42.607Z</time></trkpt><trkpt lat="43.53802" lon="12.4097667"><ele>654.5</ele><time>2026-04-18T11:33:43.607Z</time></trkpt><trkpt lat="43.5381167" lon="12.4096517"><ele>657.0</ele><time>2026-04-18T11:33:44.607Z</time></trkpt><trkpt lat="43.5381983" lon="12.4095667"><ele>657.0</ele><time>2026-04-18T11:33:45.607Z</time></trkpt><trkpt lat="43.538265" lon="12.4095067"><ele>657.0</ele><time>2026-04-18T11:33:46.607Z</time></trkpt><trkpt lat="43.5383317" lon="12.4094867"><ele>657.0</ele><time>2026-04-18T11:33:47.607Z</time></trkpt><trkpt lat="43.5384083" lon="12.4095133"><ele>657.0</ele><time>2026-04-18T11:33:48.607Z</time></trkpt><trkpt lat="43.538485" lon="12.4095783"><ele>657.0</ele><time>2026-04-18T11:33:49.607Z</time></trkpt><trkpt lat="43.538555" lon="12.4096583"><ele>657.0</ele><time>2026-04-18T11:33:50.607Z</time></trkpt><trkpt lat="43.5386217" lon="12.4097167"><ele>657.0</ele><time>2026-04-18T11:33:51.607Z</time></trkpt><trkpt lat="43.5386967" lon="12.409745"><ele>657.0</ele><time>2026-04-18T11:33:52.607Z</time></trkpt><trkpt lat="43.53878" lon="12.4097317"><ele>657.0</ele><time>2026-04-18T11:33:53.607Z</time></trkpt><trkpt lat="43.5388783" lon="12.40973"><ele>657.0</ele><time>2026-04-18T11:33:54.607Z</time></trkpt><trkpt lat="43.5389917" lon="12.40975"><ele>657.0</ele><time>2026-04-18T11:33:55.607Z</time></trkpt><trkpt lat="43.5391133" lon="12.40979"><ele>655.8</ele><time>2026-04-18T11:33:56.607Z</time></trkpt><trkpt lat="43.5392283" lon="12.4098233"><ele>654.6</ele><time>2026-04-18T11:33:57.607Z</time></trkpt><trkpt lat="43.539345" lon="12.4098367"><ele>653.4</ele><time>2026-04-18T11:33:58.607Z</time></trkpt><trkpt lat="43.539445" lon="12.40982"><ele>652.1999999999999</ele><time>2026-04-18T11:33:59.607Z</time></trkpt><trkpt lat="43.539525" lon="12.4097817"><ele>651.0</ele><time>2026-04-18T11:34:00.607Z</time></trkpt><trkpt lat="43.5396" lon="12.4097283"><ele>648.6666666666666</ele><time>2026-04-18T11:34:01.607Z</time></trkpt><trkpt lat="43.539675" lon="12.4096717"><ele>646.3333333333334</ele><time>2026-04-18T11:34:02.607Z</time></trkpt><trkpt lat="43.539745" lon="12.4096433"><ele>644.0</ele><time>2026-04-18T11:34:03.607Z</time></trkpt><trkpt lat="43.5398133" lon="12.4096583"><ele>641.6666666666667</ele><time>2026-04-18T11:34:04.607Z</time></trkpt><trkpt lat="43.5398983" lon="12.4097067"><ele>639.3333333333334</ele><time>2026-04-18T11:34:05.607Z</time></trkpt><trkpt lat="43.5399867" lon="12.4098"><ele>637.0</ele><time>2026-04-18T11:34:06.607Z</time></trkpt><trkpt lat="43.5401083" lon="12.4099"><ele>637.0</ele><time>2026-04-18T11:34:07.607Z</time></trkpt><trkpt lat="43.5402233" lon="12.4099967"><ele>637.0</ele><time>2026-04-18T11:34:08.607Z</time></trkpt><trkpt lat="43.5403333" lon="12.4100733"><ele>637.0</ele><time>2026-04-18T11:34:09.607Z</time></trkpt><trkpt lat="43.54045" lon="12.41014"><ele>637.0</ele><time>2026-04-18T11:34:10.607Z</time></trkpt><trkpt lat="43.5405767" lon="12.4101883"><ele>633.0</ele><time>2026-04-18T11:34:11.607Z</time></trkpt><trkpt lat="43.5406967" lon="12.410235"><ele>629.0</ele><time>2026-04-18T11:34:12.607Z</time></trkpt><trkpt lat="43.54081" lon="12.4103017"><ele>625.0</ele><time>2026-04-18T11:34:13.607Z</time></trkpt><trkpt lat="43.5409133" lon="12.41038"><ele>621.0</ele><time>2026-04-18T11:34:14.607Z</time></trkpt><trkpt lat="43.5409933" lon="12.410455"><ele>620.0</ele><time>2026-04-18T11:34:15.607Z</time></trkpt><trkpt lat="43.5410717" lon="12.4105283"><ele>619.0</ele><time>2026-04-18T11:34:16.607Z</time></trkpt><trkpt lat="43.5411533" lon="12.4105933"><ele>618.0</ele><time>2026-04-18T11:34:17.606Z</time></trkpt><trkpt lat="43.5412633" lon="12.4106483"><ele>617.0</ele><time>2026-04-18T11:34:18.607Z</time></trkpt><trkpt lat="43.5413817" lon="12.410695"><ele>616.0</ele><time>2026-04-18T11:34:19.607Z</time></trkpt><trkpt lat="43.541505" lon="12.4107417"><ele>619.0</ele><time>2026-04-18T11:34:20.607Z</time></trkpt><trkpt lat="43.541615" lon="12.4107967"><ele>622.0</ele><time>2026-04-18T11:34:21.607Z</time></trkpt><trkpt lat="43.541705" lon="12.410875"><ele>625.0</ele><time>2026-04-18T11:34:22.607Z</time></trkpt><trkpt lat="43.54179" lon="12.410965"><ele>628.0</ele><time>2026-04-18T11:34:23.607Z</time></trkpt><trkpt lat="43.5418683" lon="12.411065"><ele>631.0</ele><time>2026-04-18T11:34:24.607Z</time></trkpt><trkpt lat="43.5419217" lon="12.411185"><ele>631.0</ele><time>2026-04-18T11:34:25.607Z</time></trkpt><trkpt lat="43.5419517" lon="12.4113083"><ele>631.0</ele><time>2026-04-18T11:34:26.607Z</time></trkpt><trkpt lat="43.54195" lon="12.4114367"><ele>631.0</ele><time>2026-04-18T11:34:27.607Z</time></trkpt><trkpt lat="43.5419267" lon="12.411575"><ele>631.0</ele><time>2026-04-18T11:34:28.607Z</time></trkpt><trkpt lat="43.5418867" lon="12.41172"><ele>631.0</ele><time>2026-04-18T11:34:29.607Z</time></trkpt><trkpt lat="43.5418583" lon="12.4118517"><ele>627.6666666666667</ele><time>2026-04-18T11:34:30.607Z</time></trkpt><trkpt lat="43.5418383" lon="12.4119717"><ele>624.3333333333334</ele><time>2026-04-18T11:34:31.607Z</time></trkpt><trkpt lat="43.5418233" lon="12.4120617"><ele>621.0</ele><time>2026-04-18T11:34:32.607Z</time></trkpt><trkpt lat="43.5418333" lon="12.41215"><ele>617.6666666666666</ele><time>2026-04-18T11:34:33.607Z</time></trkpt><trkpt lat="43.5418633" lon="12.4122417"><ele>614.3333333333333</ele><time>2026-04-18T11:34:34.607Z</time></trkpt><trkpt lat="43.5419183" lon="12.4123133"><ele>611.0</ele><time>2026-04-18T11:34:35.607Z</time></trkpt><trkpt lat="43.5419917" lon="12.4123883"><ele>614.5</ele><time>2026-04-18T11:34:36.607Z</time></trkpt><trkpt lat="43.5420883" lon="12.4124717"><ele>618.0</ele><time>2026-04-18T11:34:37.607Z</time></trkpt><trkpt lat="43.5422017" lon="12.4125733"><ele>621.5</ele><time>2026-04-18T11:34:38.607Z</time></trkpt><trkpt lat="43.5422933" lon="12.4126717"><ele>625.0</ele><time>2026-04-18T11:34:39.607Z</time></trkpt><trkpt lat="43.54239" lon="12.4127467"><ele>625.0</ele><time>2026-04-18T11:34:40.606Z</time></trkpt><trkpt lat="43.5424867" lon="12.4128283"><ele>625.0</ele><time>2026-04-18T11:34:41.607Z</time></trkpt><trkpt lat="43.5426033" lon="12.4128917"><ele>625.0</ele><time>2026-04-18T11:34:42.607Z</time></trkpt><trkpt lat="43.5427033" lon="12.4129733"><ele>625.0</ele><time>2026-04-18T11:34:43.607Z</time></trkpt><trkpt lat="43.5427983" lon="12.41307"><ele>623.5</ele><time>2026-04-18T11:34:44.607Z</time></trkpt><trkpt lat="43.5429033" lon="12.4131833"><ele>622.0</ele><time>2026-04-18T11:34:45.607Z</time></trkpt><trkpt lat="43.5430033" lon="12.4132983"><ele>620.5</ele><time>2026-04-18T11:34:46.607Z</time></trkpt><trkpt lat="43.5430967" lon="12.4133817"><ele>619.0</ele><time>2026-04-18T11:34:47.607Z</time></trkpt><trkpt lat="43.5432067" lon="12.4134567"><ele>619.0</ele><time>2026-04-18T11:34:48.607Z</time></trkpt><trkpt lat="43.5433133" lon="12.4135483"><ele>619.0</ele><time>2026-04-18T11:34:49.607Z</time></trkpt><trkpt lat="43.5434083" lon="12.413645"><ele>619.0</ele><time>2026-04-18T11:34:50.607Z</time></trkpt><trkpt lat="43.5434917" lon="12.4137617"><ele>619.0</ele><time>2026-04-18T11:34:51.607Z</time></trkpt><trkpt lat="43.5435533" lon="12.41389"><ele>621.0</ele><time>2026-04-18T11:34:52.607Z</time></trkpt><trkpt lat="43.543595" lon="12.4140367"><ele>623.0</ele><time>2026-04-18T11:34:53.607Z</time></trkpt><trkpt lat="43.5436283" lon="12.41418"><ele>625.0</ele><time>2026-04-18T11:34:54.607Z</time></trkpt><trkpt lat="43.543655" lon="12.4143067"><ele>627.0</ele><time>2026-04-18T11:34:55.607Z</time></trkpt><trkpt lat="43.543705" lon="12.41442"><ele>629.0</ele><time>2026-04-18T11:34:56.607Z</time></trkpt><trkpt lat="43.5437633" lon="12.4145433"><ele>625.0</ele><time>2026-04-18T11:34:57.607Z</time></trkpt><trkpt lat="43.5438283" lon="12.4146817"><ele>621.0</ele><time>2026-04-18T11:34:58.607Z</time></trkpt><trkpt lat="43.5438867" lon="12.4148167"><ele>617.0</ele><time>2026-04-18T11:34:59.607Z</time></trkpt><trkpt lat="43.54393" lon="12.4149583"><ele>613.0</ele><time>2026-04-18T11:35:00.607Z</time></trkpt><trkpt lat="43.5439567" lon="12.4151133"><ele>613.0</ele><time>2026-04-18T11:35:01.607Z</time></trkpt><trkpt lat="43.5439633" lon="12.4152683"><ele>613.0</ele><time>2026-04-18T11:35:02.607Z</time></trkpt><trkpt lat="43.54397" lon="12.4154267"><ele>613.0</ele><time>2026-04-18T11:35:03.607Z</time></trkpt><trkpt lat="43.5439783" lon="12.4155733"><ele>613.0</ele><time>2026-04-18T11:35:04.607Z</time></trkpt><trkpt lat="43.543975" lon="12.4157233"><ele>613.0</ele><time>2026-04-18T11:35:05.607Z</time></trkpt><trkpt lat="43.54396" lon="12.4158583"><ele>610.4</ele><time>2026-04-18T11:35:06.607Z</time></trkpt><trkpt lat="43.54394" lon="12.41597"><ele>607.8</ele><time>2026-04-18T11:35:07.607Z</time></trkpt><trkpt lat="43.5439267" lon="12.41609"><ele>605.2</ele><time>2026-04-18T11:35:08.607Z</time></trkpt><trkpt lat="43.5439333" lon="12.4162433"><ele>602.6</ele><time>2026-04-18T11:35:09.607Z</time></trkpt><trkpt lat="43.543935" lon="12.4164283"><ele>600.0</ele><time>2026-04-18T11:35:10.606Z</time></trkpt><trkpt lat="43.5439333" lon="12.4166083"><ele>597.25</ele><time>2026-04-18T11:35:11.607Z</time></trkpt><trkpt lat="43.54391" lon="12.4167717"><ele>594.5</ele><time>2026-04-18T11:35:12.607Z</time></trkpt><trkpt lat="43.54387" lon="12.41694"><ele>591.75</ele><time>2026-04-18T11:35:13.607Z</time></trkpt><trkpt lat="43.54383" lon="12.41709"><ele>589.0</ele><time>2026-04-18T11:35:14.607Z</time></trkpt><trkpt lat="43.5438" lon="12.41721"><ele>587.3333333333334</ele><time>2026-04-18T11:35:15.607Z</time></trkpt><trkpt lat="43.5437817" lon="12.4173133"><ele>585.6666666666667</ele><time>2026-04-18T11:35:16.607Z</time></trkpt><trkpt lat="43.5437767" lon="12.4174217"><ele>584.0</ele><time>2026-04-18T11:35:17.607Z</time></trkpt><trkpt lat="43.5437883" lon="12.417525"><ele>582.3333333333334</ele><time>2026-04-18T11:35:18.607Z</time></trkpt><trkpt lat="43.5438233" lon="12.417605"><ele>580.6666666666666</ele><time>2026-04-18T11:35:19.607Z</time></trkpt><trkpt lat="43.543875" lon="12.417705"><ele>579.0</ele><time>2026-04-18T11:35:20.607Z</time></trkpt><trkpt lat="43.5439317" lon="12.41783"><ele>573.0</ele><time>2026-04-18T11:35:21.607Z</time></trkpt><trkpt lat="43.544015" lon="12.4179967"><ele>567.0</ele><time>2026-04-18T11:35:22.607Z</time></trkpt><trkpt lat="43.5440917" lon="12.4181867"><ele>561.0</ele><time>2026-04-18T11:35:23.607Z</time></trkpt><trkpt lat="43.5441633" lon="12.4183767"><ele>561.0</ele><time>2026-04-18T11:35:24.607Z</time></trkpt><trkpt lat="43.5442217" lon="12.41854"><ele>561.0</ele><time>2026-04-18T11:35:25.607Z</time></trkpt><trkpt lat="43.5442517" lon="12.4186867"><ele>561.0</ele><time>2026-04-18T11:35:26.607Z</time></trkpt><trkpt lat="43.544275" lon="12.4187933"><ele>561.0</ele><time>2026-04-18T11:35:27.607Z</time></trkpt><trkpt lat="43.544355" lon="12.4188983"><ele>561.0</ele><time>2026-04-18T11:35:29.607Z</time></trkpt><trkpt lat="43.5444233" lon="12.4189167"><ele>558.8</ele><time>2026-04-18T11:35:30.607Z</time></trkpt><trkpt lat="43.54452" lon="12.41891"><ele>556.6</ele><time>2026-04-18T11:35:31.606Z</time></trkpt><trkpt lat="43.5446283" lon="12.4189167"><ele>554.4</ele><time>2026-04-18T11:35:32.607Z</time></trkpt><trkpt lat="43.5447283" lon="12.4189467"><ele>552.2</ele><time>2026-04-18T11:35:33.607Z</time></trkpt><trkpt lat="43.5448417" lon="12.41899"><ele>550.0</ele><time>2026-04-18T11:35:34.607Z</time></trkpt><trkpt lat="43.5449567" lon="12.4190517"><ele>550.0</ele><time>2026-04-18T11:35:35.607Z</time></trkpt><trkpt lat="43.5450767" lon="12.4191083"><ele>550.0</ele><time>2026-04-18T11:35:36.607Z</time></trkpt><trkpt lat="43.545185" lon="12.4191667"><ele>550.0</ele><time>2026-04-18T11:35:37.607Z</time></trkpt><trkpt lat="43.5452933" lon="12.4192133"><ele>550.0</ele><time>2026-04-18T11:35:38.607Z</time></trkpt><trkpt lat="43.5454033" lon="12.41926"><ele>549.75</ele><time>2026-04-18T11:35:39.607Z</time></trkpt><trkpt lat="43.54552" lon="12.4193033"><ele>549.5</ele><time>2026-04-18T11:35:40.607Z</time></trkpt><trkpt lat="43.54564" lon="12.419345"><ele>549.25</ele><time>2026-04-18T11:35:41.607Z</time></trkpt><trkpt lat="43.5457633" lon="12.419385"><ele>549.0</ele><time>2026-04-18T11:35:42.607Z</time></trkpt><trkpt lat="43.5458883" lon="12.4194133"><ele>549.0</ele><time>2026-04-18T11:35:43.607Z</time></trkpt><trkpt lat="43.5460283" lon="12.4194317"><ele>549.0</ele><time>2026-04-18T11:35:44.607Z</time></trkpt><trkpt lat="43.5461767" lon="12.4194517"><ele>549.0</ele><time>2026-04-18T11:35:45.607Z</time></trkpt><trkpt lat="43.546325" lon="12.4194767"><ele>549.0</ele><time>2026-04-18T11:35:46.607Z</time></trkpt><trkpt lat="43.5464767" lon="12.4194983"><ele>548.3333333333334</ele><time>2026-04-18T11:35:47.606Z</time></trkpt><trkpt lat="43.5466267" lon="12.4195133"><ele>547.6666666666667</ele><time>2026-04-18T11:35:48.607Z</time></trkpt><trkpt lat="43.546785" lon="12.4195167"><ele>547.0</ele><time>2026-04-18T11:35:49.607Z</time></trkpt><trkpt lat="43.5469417" lon="12.4195333"><ele>544.3333333333334</ele><time>2026-04-18T11:35:50.607Z</time></trkpt><trkpt lat="43.54712" lon="12.4195433"><ele>541.6666666666666</ele><time>2026-04-18T11:35:51.607Z</time></trkpt><trkpt lat="43.5472917" lon="12.4195517"><ele>539.0</ele><time>2026-04-18T11:35:52.606Z</time></trkpt><trkpt lat="43.547455" lon="12.4195633"><ele>539.0</ele><time>2026-04-18T11:35:53.607Z</time></trkpt><trkpt lat="43.5476083" lon="12.41958"><ele>539.0</ele><time>2026-04-18T11:35:54.607Z</time></trkpt><trkpt lat="43.54776" lon="12.41959"><ele>539.0</ele><time>2026-04-18T11:35:55.607Z</time></trkpt><trkpt lat="43.5478933" lon="12.419605"><ele>539.0</ele><time>2026-04-18T11:35:56.607Z</time></trkpt><trkpt lat="43.5480267" lon="12.419625"><ele>536.0</ele><time>2026-04-18T11:35:57.607Z</time></trkpt><trkpt lat="43.5481483" lon="12.4196333"><ele>533.0</ele><time>2026-04-18T11:35:58.607Z</time></trkpt><trkpt lat="43.5482583" lon="12.419645"><ele>530.0</ele><time>2026-04-18T11:35:59.607Z</time></trkpt><trkpt lat="43.5483783" lon="12.4196383"><ele>527.0</ele><time>2026-04-18T11:36:00.607Z</time></trkpt><trkpt lat="43.5485067" lon="12.419605"><ele>527.0</ele><time>2026-04-18T11:36:01.607Z</time></trkpt><trkpt lat="43.5486483" lon="12.4195567"><ele>527.0</ele><time>2026-04-18T11:36:02.607Z</time></trkpt><trkpt lat="43.5487917" lon="12.4195167"><ele>527.0</ele><time>2026-04-18T11:36:03.607Z</time></trkpt><trkpt lat="43.5489333" lon="12.419495"><ele>527.0</ele><time>2026-04-18T11:36:04.607Z</time></trkpt><trkpt lat="43.5490617" lon="12.4194783"><ele>524.75</ele><time>2026-04-18T11:36:05.607Z</time></trkpt><trkpt lat="43.5491917" lon="12.4194767"><ele>522.5</ele><time>2026-04-18T11:36:06.607Z</time></trkpt><trkpt lat="43.5493267" lon="12.419485"><ele>520.25</ele><time>2026-04-18T11:36:07.607Z</time></trkpt><trkpt lat="43.5494483" lon="12.4195017"><ele>518.0</ele><time>2026-04-18T11:36:08.607Z</time></trkpt><trkpt lat="43.5495683" lon="12.4195067"><ele>513.8</ele><time>2026-04-18T11:36:09.607Z</time></trkpt><trkpt lat="43.54968" lon="12.4195083"><ele>509.59999999999997</ele><time>2026-04-18T11:36:10.607Z</time></trkpt><trkpt lat="43.5497883" lon="12.4195083"><ele>505.40000000000003</ele><time>2026-04-18T11:36:11.607Z</time></trkpt><trkpt lat="43.5498867" lon="12.419515"><ele>501.20000000000005</ele><time>2026-04-18T11:36:12.607Z</time></trkpt><trkpt lat="43.5499767" lon="12.41952"><ele>497.0</ele><time>2026-04-18T11:36:13.607Z</time></trkpt><trkpt lat="43.5500567" lon="12.419515"><ele>496.99999999999994</ele><time>2026-04-18T11:36:14.607Z</time></trkpt><trkpt lat="43.5501433" lon="12.41951"><ele>497.0</ele><time>2026-04-18T11:36:16.607Z</time></trkpt><trkpt lat="43.5501283" lon="12.41961"><ele>497.0</ele><time>2026-04-18T11:36:21.607Z</time></trkpt><trkpt lat="43.5500617" lon="12.4196333"><ele>497.0</ele><time>2026-04-18T11:36:22.607Z</time></trkpt><trkpt lat="43.5499867" lon="12.4196583"><ele>496.99999999999994</ele><time>2026-04-18T11:36:23.607Z</time></trkpt><trkpt lat="43.5499067" lon="12.4197017"><ele>497.0</ele><time>2026-04-18T11:36:24.607Z</time></trkpt><trkpt lat="43.549825" lon="12.4197717"><ele>496.0</ele><time>2026-04-18T11:36:25.607Z</time></trkpt><trkpt lat="43.5497383" lon="12.41986"><ele>495.0</ele><time>2026-04-18T11:36:26.607Z</time></trkpt><trkpt lat="43.5496417" lon="12.41996"><ele>494.0</ele><time>2026-04-18T11:36:27.607Z</time></trkpt><trkpt lat="43.5495417" lon="12.42005"><ele>493.0</ele><time>2026-04-18T11:36:28.607Z</time></trkpt><trkpt lat="43.5494367" lon="12.4201367"><ele>493.0</ele><time>2026-04-18T11:36:29.607Z</time></trkpt><trkpt lat="43.5493233" lon="12.4202533"><ele>493.0</ele><time>2026-04-18T11:36:30.607Z</time></trkpt><trkpt lat="43.5492067" lon="12.420375"><ele>493.0</ele><time>2026-04-18T11:36:31.607Z</time></trkpt><trkpt lat="43.5490767" lon="12.4204933"><ele>493.0</ele><time>2026-04-18T11:36:32.607Z</time></trkpt><trkpt lat="43.548945" lon="12.420625"><ele>491.0</ele><time>2026-04-18T11:36:33.607Z</time></trkpt><trkpt lat="43.5488133" lon="12.42077"><ele>489.0</ele><time>2026-04-18T11:36:34.607Z</time></trkpt><trkpt lat="43.548675" lon="12.420905"><ele>487.0</ele><time>2026-04-18T11:36:35.607Z</time></trkpt><trkpt lat="43.5485317" lon="12.4210517"><ele>487.0</ele><time>2026-04-18T11:36:36.607Z</time></trkpt><trkpt lat="43.5483833" lon="12.421205"><ele>487.0</ele><time>2026-04-18T11:36:37.607Z</time></trkpt><trkpt lat="43.54823" lon="12.421365"><ele>487.0</ele><time>2026-04-18T11:36:38.607Z</time></trkpt><trkpt lat="43.54807" lon="12.421535"><ele>488.0</ele><time>2026-04-18T11:36:39.607Z</time></trkpt><trkpt lat="43.5479133" lon="12.42169"><ele>489.0</ele><time>2026-04-18T11:36:40.607Z</time></trkpt><trkpt lat="43.5477633" lon="12.421835"><ele>490.0</ele><time>2026-04-18T11:36:41.607Z</time></trkpt><trkpt lat="43.5476233" lon="12.4219717"><ele>490.0</ele><time>2026-04-18T11:36:42.607Z</time></trkpt><trkpt lat="43.547495" lon="12.4221083"><ele>490.0</ele><time>2026-04-18T11:36:43.607Z</time></trkpt><trkpt lat="43.5473617" lon="12.4222483"><ele>490.0</ele><time>2026-04-18T11:36:44.607Z</time></trkpt><trkpt lat="43.5472283" lon="12.4223817"><ele>491.33333333333337</ele><time>2026-04-18T11:36:45.607Z</time></trkpt><trkpt lat="43.547105" lon="12.42251"><ele>492.66666666666663</ele><time>2026-04-18T11:36:46.607Z</time></trkpt><trkpt lat="43.5469717" lon="12.422635"><ele>494.0</ele><time>2026-04-18T11:36:47.607Z</time></trkpt><trkpt lat="43.5468417" lon="12.4227683"><ele>494.3333333333333</ele><time>2026-04-18T11:36:48.607Z</time></trkpt><trkpt lat="43.5467133" lon="12.4228983"><ele>494.66666666666663</ele><time>2026-04-18T11:36:49.607Z</time></trkpt><trkpt lat="43.5465817" lon="12.4230217"><ele>495.0</ele><time>2026-04-18T11:36:50.607Z</time></trkpt><trkpt lat="43.546455" lon="12.4231433"><ele>495.0</ele><time>2026-04-18T11:36:51.607Z</time></trkpt><trkpt lat="43.54634" lon="12.4232533"><ele>495.0</ele><time>2026-04-18T11:36:52.607Z</time></trkpt><trkpt lat="43.5462333" lon="12.4233417"><ele>495.0</ele><time>2026-04-18T11:36:53.607Z</time></trkpt><trkpt lat="43.5461267" lon="12.42342"><ele>495.0</ele><time>2026-04-18T11:36:54.607Z</time></trkpt><trkpt lat="43.5460183" lon="12.4234767"><ele>497.0</ele><time>2026-04-18T11:36:55.607Z</time></trkpt><trkpt lat="43.54589" lon="12.4235083"><ele>499.0</ele><time>2026-04-18T11:36:56.607Z</time></trkpt><trkpt lat="43.5457517" lon="12.4235233"><ele>501.0</ele><time>2026-04-18T11:36:57.607Z</time></trkpt><trkpt lat="43.5456067" lon="12.4235233"><ele>503.0</ele><time>2026-04-18T11:36:58.607Z</time></trkpt><trkpt lat="43.54546" lon="12.4235017"><ele>502.3333333333333</ele><time>2026-04-18T11:36:59.607Z</time></trkpt><trkpt lat="43.5453133" lon="12.4234783"><ele>501.66666666666663</ele><time>2026-04-18T11:37:00.607Z</time></trkpt><trkpt lat="43.5451617" lon="12.4234683"><ele>501.0</ele><time>2026-04-18T11:37:01.607Z</time></trkpt><trkpt lat="43.5450083" lon="12.4234533"><ele>501.0</ele><time>2026-04-18T11:37:02.607Z</time></trkpt><trkpt lat="43.5448517" lon="12.4234283"><ele>501.0</ele><time>2026-04-18T11:37:03.607Z</time></trkpt><trkpt lat="43.544695" lon="12.4234"><ele>501.0</ele><time>2026-04-18T11:37:04.607Z</time></trkpt><trkpt lat="43.5445433" lon="12.423365"><ele>501.0</ele><time>2026-04-18T11:37:05.607Z</time></trkpt><trkpt lat="43.5444083" lon="12.4233333"><ele>501.0</ele><time>2026-04-18T11:37:06.607Z</time></trkpt><trkpt lat="43.544275" lon="12.42329"><ele>501.0</ele><time>2026-04-18T11:37:07.607Z</time></trkpt><trkpt lat="43.5441533" lon="12.42323"><ele>501.0</ele><time>2026-04-18T11:37:08.607Z</time></trkpt><trkpt lat="43.5440217" lon="12.4231433"><ele>501.0</ele><time>2026-04-18T11:37:09.607Z</time></trkpt><trkpt lat="43.543905" lon="12.4230367"><ele>501.0</ele><time>2026-04-18T11:37:10.607Z</time></trkpt><trkpt lat="43.5437983" lon="12.4228983"><ele>501.0</ele><time>2026-04-18T11:37:11.607Z</time></trkpt><trkpt lat="43.5437117" lon="12.4227433"><ele>501.0</ele><time>2026-04-18T11:37:12.607Z</time></trkpt><trkpt lat="43.543625" lon="12.4225717"><ele>501.33333333333337</ele><time>2026-04-18T11:37:13.607Z</time></trkpt><trkpt lat="43.5435567" lon="12.4223833"><ele>501.6666666666667</ele><time>2026-04-18T11:37:14.607Z</time></trkpt><trkpt lat="43.5435" lon="12.4221817"><ele>502.0</ele><time>2026-04-18T11:37:15.607Z</time></trkpt><trkpt lat="43.5434483" lon="12.4219617"><ele>502.33333333333337</ele><time>2026-04-18T11:37:16.607Z</time></trkpt><trkpt lat="43.5434" lon="12.421735"><ele>502.66666666666663</ele><time>2026-04-18T11:37:17.607Z</time></trkpt><trkpt lat="43.5433533" lon="12.4215017"><ele>503.0</ele><time>2026-04-18T11:37:18.607Z</time></trkpt><trkpt lat="43.5433167" lon="12.42127"><ele>503.0</ele><time>2026-04-18T11:37:19.607Z</time></trkpt><trkpt lat="43.54328" lon="12.4210367"><ele>503.0</ele><time>2026-04-18T11:37:20.607Z</time></trkpt><trkpt lat="43.5432433" lon="12.4208117"><ele>503.0</ele><time>2026-04-18T11:37:21.607Z</time></trkpt><trkpt lat="43.5431967" lon="12.420585"><ele>503.66666666666663</ele><time>2026-04-18T11:37:22.607Z</time></trkpt><trkpt lat="43.543155" lon="12.420365"><ele>504.33333333333337</ele><time>2026-04-18T11:37:23.607Z</time></trkpt><trkpt lat="43.54311" lon="12.4201517"><ele>505.0</ele><time>2026-04-18T11:37:24.607Z</time></trkpt><trkpt lat="43.5430583" lon="12.4199633"><ele>505.0</ele><time>2026-04-18T11:37:25.607Z</time></trkpt><trkpt lat="43.542995" lon="12.4197983"><ele>505.0</ele><time>2026-04-18T11:37:26.607Z</time></trkpt><trkpt lat="43.542905" lon="12.419645"><ele>505.0</ele><time>2026-04-18T11:37:27.607Z</time></trkpt><trkpt lat="43.5428067" lon="12.4194933"><ele>505.0</ele><time>2026-04-18T11:37:28.607Z</time></trkpt><trkpt lat="43.5426983" lon="12.4193417"><ele>507.0</ele><time>2026-04-18T11:37:29.607Z</time></trkpt><trkpt lat="43.542585" lon="12.4191883"><ele>509.0</ele><time>2026-04-18T11:37:30.607Z</time></trkpt><trkpt lat="43.54247" lon="12.4190317"><ele>511.0</ele><time>2026-04-18T11:37:31.607Z</time></trkpt><trkpt lat="43.5423533" lon="12.4188633"><ele>510.75</ele><time>2026-04-18T11:37:32.607Z</time></trkpt><trkpt lat="43.5422533" lon="12.4187017"><ele>510.5</ele><time>2026-04-18T11:37:33.607Z</time></trkpt><trkpt lat="43.5421517" lon="12.418545"><ele>510.25</ele><time>2026-04-18T11:37:34.607Z</time></trkpt><trkpt lat="43.5420617" lon="12.418405"><ele>510.0</ele><time>2026-04-18T11:37:35.607Z</time></trkpt><trkpt lat="43.542005" lon="12.41827"><ele>513.5</ele><time>2026-04-18T11:37:36.607Z</time></trkpt><trkpt lat="43.5419717" lon="12.418115"><ele>517.0</ele><time>2026-04-18T11:37:37.606Z</time></trkpt><trkpt lat="43.541955" lon="12.4179417"><ele>520.5</ele><time>2026-04-18T11:37:38.607Z</time></trkpt><trkpt lat="43.54195" lon="12.417755"><ele>524.0</ele><time>2026-04-18T11:37:39.607Z</time></trkpt><trkpt lat="43.54195" lon="12.4175817"><ele>524.0</ele><time>2026-04-18T11:37:40.607Z</time></trkpt><trkpt lat="43.54195" lon="12.4174133"><ele>524.0</ele><time>2026-04-18T11:37:41.607Z</time></trkpt><trkpt lat="43.5419533" lon="12.4172533"><ele>524.0</ele><time>2026-04-18T11:37:42.607Z</time></trkpt><trkpt lat="43.5419317" lon="12.4171033"><ele>524.0</ele><time>2026-04-18T11:37:43.607Z</time></trkpt><trkpt lat="43.5418883" lon="12.4169683"><ele>522.5</ele><time>2026-04-18T11:37:44.607Z</time></trkpt><trkpt lat="43.5418417" lon="12.4168367"><ele>521.0</ele><time>2026-04-18T11:37:45.607Z</time></trkpt><trkpt lat="43.54179" lon="12.41669"><ele>519.5</ele><time>2026-04-18T11:37:46.607Z</time></trkpt><trkpt lat="43.5417417" lon="12.4165367"><ele>518.0</ele><time>2026-04-18T11:37:47.607Z</time></trkpt><trkpt lat="43.5417033" lon="12.4163967"><ele>517.4</ele><time>2026-04-18T11:37:48.607Z</time></trkpt><trkpt lat="43.54167" lon="12.4162767"><ele>516.8</ele><time>2026-04-18T11:37:49.607Z</time></trkpt><trkpt lat="43.5416167" lon="12.4161667"><ele>516.2</ele><time>2026-04-18T11:37:50.607Z</time></trkpt><trkpt lat="43.5415583" lon="12.4160817"><ele>515.6</ele><time>2026-04-18T11:37:51.607Z</time></trkpt><trkpt lat="43.5414783" lon="12.4160183"><ele>515.0</ele><time>2026-04-18T11:37:52.607Z</time></trkpt><trkpt lat="43.5413667" lon="12.41597"><ele>515.0</ele><time>2026-04-18T11:37:53.607Z</time></trkpt><trkpt lat="43.5412533" lon="12.4159333"><ele>515.0</ele><time>2026-04-18T11:37:54.607Z</time></trkpt><trkpt lat="43.5411533" lon="12.4159033"><ele>515.0</ele><time>2026-04-18T11:37:55.607Z</time></trkpt><trkpt lat="43.5410683" lon="12.4158733"><ele>515.0</ele><time>2026-04-18T11:37:56.607Z</time></trkpt><trkpt lat="43.5409967" lon="12.41586"><ele>515.0</ele><time>2026-04-18T11:37:57.607Z</time></trkpt><trkpt lat="43.5409" lon="12.415905"><ele>515.5</ele><time>2026-04-18T11:37:59.607Z</time></trkpt><trkpt lat="43.5408933" lon="12.41602"><ele>516.0</ele><time>2026-04-18T11:38:01.607Z</time></trkpt><trkpt lat="43.54094" lon="12.41609"><ele>516.5</ele><time>2026-04-18T11:38:02.607Z</time></trkpt><trkpt lat="43.5410183" lon="12.4161533"><ele>517.0</ele><time>2026-04-18T11:38:03.607Z</time></trkpt><trkpt lat="43.5411083" lon="12.4162117"><ele>517.5</ele><time>2026-04-18T11:38:04.607Z</time></trkpt><trkpt lat="43.541195" lon="12.41628"><ele>518.0</ele><time>2026-04-18T11:38:05.607Z</time></trkpt><trkpt lat="43.5412733" lon="12.416365"><ele>518.0</ele><time>2026-04-18T11:38:06.607Z</time></trkpt><trkpt lat="43.54133" lon="12.416475"><ele>518.0</ele><time>2026-04-18T11:38:07.607Z</time></trkpt><trkpt lat="43.541375" lon="12.4166033"><ele>518.0</ele><time>2026-04-18T11:38:08.607Z</time></trkpt><trkpt lat="43.5413933" lon="12.4167417"><ele>518.0</ele><time>2026-04-18T11:38:09.607Z</time></trkpt><trkpt lat="43.5413933" lon="12.4168933"><ele>518.0</ele><time>2026-04-18T11:38:10.607Z</time></trkpt><trkpt lat="43.5413783" lon="12.41705"><ele>519.0</ele><time>2026-04-18T11:38:11.607Z</time></trkpt><trkpt lat="43.5413633" lon="12.4171733"><ele>520.0</ele><time>2026-04-18T11:38:12.606Z</time></trkpt><trkpt lat="43.5413483" lon="12.4172617"><ele>521.0</ele><time>2026-04-18T11:38:13.607Z</time></trkpt><trkpt lat="43.54134" lon="12.4173867"><ele>522.0</ele><time>2026-04-18T11:38:15.607Z</time></trkpt><trkpt lat="43.5413483" lon="12.4175233"><ele>523.0</ele><time>2026-04-18T11:38:48.606Z</time></trkpt><trkpt lat="43.5413583" lon="12.41762"><ele>524.0</ele><time>2026-04-18T11:38:49.606Z</time></trkpt><trkpt lat="43.541365" lon="12.417715"><ele>524.0</ele><time>2026-04-18T11:38:50.606Z</time></trkpt><trkpt lat="43.54137" lon="12.41781"><ele>524.0</ele><time>2026-04-18T11:38:51.606Z</time></trkpt><trkpt lat="43.5413783" lon="12.4179083"><ele>524.0</ele><time>2026-04-18T11:38:52.606Z</time></trkpt><trkpt lat="43.5413833" lon="12.4180167"><ele>524.0</ele><time>2026-04-18T11:38:53.606Z</time></trkpt><trkpt lat="43.54138" lon="12.4181383"><ele>524.0</ele><time>2026-04-18T11:38:54.606Z</time></trkpt><trkpt lat="43.5413683" lon="12.4182817"><ele>524.0</ele><time>2026-04-18T11:38:55.606Z</time></trkpt><trkpt lat="43.54134" lon="12.4184183"><ele>524.3333333333333</ele><time>2026-04-18T11:38:56.606Z</time></trkpt><trkpt lat="43.5413167" lon="12.4185217"><ele>524.6666666666666</ele><time>2026-04-18T11:38:57.606Z</time></trkpt><trkpt lat="43.54129" lon="12.41861"><ele>525.0</ele><time>2026-04-18T11:38:59.606Z</time></trkpt><trkpt lat="43.541275" lon="12.4187467"><ele>525.3333333333334</ele><time>2026-04-18T11:39:13.606Z</time></trkpt><trkpt lat="43.541265" lon="12.4188683"><ele>525.6666666666667</ele><time>2026-04-18T11:39:14.606Z</time></trkpt><trkpt lat="43.5412683" lon="12.4190217"><ele>526.0</ele><time>2026-04-18T11:39:15.606Z</time></trkpt><trkpt lat="43.541285" lon="12.4191767"><ele>528.0</ele><time>2026-04-18T11:39:16.606Z</time></trkpt><trkpt lat="43.541295" lon="12.4192867"><ele>530.0</ele><time>2026-04-18T11:39:17.606Z</time></trkpt><trkpt lat="43.5412433" lon="12.419395"><ele>532.0</ele><time>2026-04-18T11:39:19.606Z</time></trkpt><trkpt lat="43.54114" lon="12.4193183"><ele>534.0</ele><time>2026-04-18T11:39:21.606Z</time></trkpt><trkpt lat="43.5411033" lon="12.419225"><ele>536.0</ele><time>2026-04-18T11:39:22.606Z</time></trkpt><trkpt lat="43.5410617" lon="12.41911"><ele>542.25</ele><time>2026-04-18T11:39:23.606Z</time></trkpt><trkpt lat="43.540995" lon="12.4189883"><ele>548.5</ele><time>2026-04-18T11:39:24.606Z</time></trkpt><trkpt lat="43.5409117" lon="12.4188783"><ele>554.75</ele><time>2026-04-18T11:39:25.606Z</time></trkpt><trkpt lat="43.5408117" lon="12.4187833"><ele>561.0</ele><time>2026-04-18T11:39:26.606Z</time></trkpt><trkpt lat="43.5407083" lon="12.4186933"><ele>561.0</ele><time>2026-04-18T11:39:27.606Z</time></trkpt><trkpt lat="43.5406183" lon="12.4186017"><ele>561.0</ele><time>2026-04-18T11:39:28.606Z</time></trkpt><trkpt lat="43.54057" lon="12.4184933"><ele>561.0</ele><time>2026-04-18T11:39:29.606Z</time></trkpt><trkpt lat="43.54055" lon="12.4183783"><ele>561.0</ele><time>2026-04-18T11:39:30.606Z</time></trkpt><trkpt lat="43.5405483" lon="12.4182617"><ele>561.0</ele><time>2026-04-18T11:39:31.606Z</time></trkpt><trkpt lat="43.540555" lon="12.41815"><ele>561.0</ele><time>2026-04-18T11:39:32.606Z</time></trkpt><trkpt lat="43.540565" lon="12.4180067"><ele>561.0</ele><time>2026-04-18T11:39:33.606Z</time></trkpt><trkpt lat="43.5405517" lon="12.4178633"><ele>561.0</ele><time>2026-04-18T11:39:34.606Z</time></trkpt><trkpt lat="43.5405167" lon="12.4177417"><ele>561.0</ele><time>2026-04-18T11:39:35.606Z</time></trkpt><trkpt lat="43.54046" lon="12.4176533"><ele>561.0</ele><time>2026-04-18T11:39:36.606Z</time></trkpt><trkpt lat="43.540375" lon="12.4176"><ele>564.0</ele><time>2026-04-18T11:39:37.606Z</time></trkpt><trkpt lat="43.5402683" lon="12.4175633"><ele>567.0</ele><time>2026-04-18T11:39:38.606Z</time></trkpt><trkpt lat="43.5401417" lon="12.41752"><ele>570.0</ele><time>2026-04-18T11:39:39.606Z</time></trkpt><trkpt lat="43.54001" lon="12.417455"><ele>573.0</ele><time>2026-04-18T11:39:40.606Z</time></trkpt><trkpt lat="43.5398667" lon="12.4173767"><ele>573.0</ele><time>2026-04-18T11:39:41.606Z</time></trkpt><trkpt lat="43.5397283" lon="12.4172883"><ele>573.0</ele><time>2026-04-18T11:39:42.606Z</time></trkpt><trkpt lat="43.5395917" lon="12.4171867"><ele>573.0</ele><time>2026-04-18T11:39:43.606Z</time></trkpt><trkpt lat="43.5394567" lon="12.41707"><ele>574.0</ele><time>2026-04-18T11:39:44.606Z</time></trkpt><trkpt lat="43.5393367" lon="12.41695"><ele>575.0</ele><time>2026-04-18T11:39:45.606Z</time></trkpt><trkpt lat="43.5392267" lon="12.416845"><ele>576.0</ele><time>2026-04-18T11:39:46.606Z</time></trkpt><trkpt lat="43.539135" lon="12.4167633"><ele>577.0</ele><time>2026-04-18T11:39:47.606Z</time></trkpt><trkpt lat="43.5390467" lon="12.4166933"><ele>577.0</ele><time>2026-04-18T11:39:48.606Z</time></trkpt><trkpt lat="43.5389717" lon="12.4166517"><ele>577.0</ele><time>2026-04-18T11:39:49.606Z</time></trkpt><trkpt lat="43.538855" lon="12.416665"><ele>577.0</ele><time>2026-04-18T11:39:51.606Z</time></trkpt><trkpt lat="43.5388167" lon="12.4167783"><ele>577.0</ele><time>2026-04-18T11:39:53.606Z</time></trkpt><trkpt lat="43.5388483" lon="12.4168783"><ele>577.0</ele><time>2026-04-18T11:39:54.606Z</time></trkpt><trkpt lat="43.53892" lon="12.417"><ele>577.0</ele><time>2026-04-18T11:39:55.606Z</time></trkpt><trkpt lat="43.5390017" lon="12.417135"><ele>577.0</ele><time>2026-04-18T11:39:56.605Z</time></trkpt><trkpt lat="43.5390817" lon="12.4172933"><ele>577.0</ele><time>2026-04-18T11:39:57.606Z</time></trkpt><trkpt lat="43.5391483" lon="12.4174733"><ele>577.0</ele><time>2026-04-18T11:39:58.606Z</time></trkpt><trkpt lat="43.5392117" lon="12.417665"><ele>580.75</ele><time>2026-04-18T11:39:59.606Z</time></trkpt><trkpt lat="43.5393033" lon="12.417835"><ele>584.5</ele><time>2026-04-18T11:40:00.606Z</time></trkpt><trkpt lat="43.5394017" lon="12.41798"><ele>588.25</ele><time>2026-04-18T11:40:01.606Z</time></trkpt><trkpt lat="43.539485" lon="12.418115"><ele>592.0</ele><time>2026-04-18T11:40:02.606Z</time></trkpt><trkpt lat="43.53955" lon="12.4182467"><ele>590.5</ele><time>2026-04-18T11:40:03.606Z</time></trkpt><trkpt lat="43.5395933" lon="12.4183683"><ele>589.0</ele><time>2026-04-18T11:40:04.606Z</time></trkpt><trkpt lat="43.5396183" lon="12.418485"><ele>587.5</ele><time>2026-04-18T11:40:05.606Z</time></trkpt><trkpt lat="43.5396233" lon="12.4185867"><ele>586.0</ele><time>2026-04-18T11:40:06.606Z</time></trkpt><trkpt lat="43.5396017" lon="12.41867"><ele>584.5</ele><time>2026-04-18T11:40:07.606Z</time></trkpt><trkpt lat="43.539555" lon="12.41873"><ele>583.0</ele><time>2026-04-18T11:40:08.606Z</time></trkpt><trkpt lat="43.5394433" lon="12.41868"><ele>587.3333333333334</ele><time>2026-04-18T11:40:10.606Z</time></trkpt><trkpt lat="43.539385" lon="12.4186083"><ele>591.6666666666667</ele><time>2026-04-18T11:40:11.606Z</time></trkpt><trkpt lat="43.539315" lon="12.418545"><ele>596.0</ele><time>2026-04-18T11:40:12.606Z</time></trkpt><trkpt lat="43.5392367" lon="12.4185033"><ele>600.3333333333334</ele><time>2026-04-18T11:40:13.606Z</time></trkpt><trkpt lat="43.5391433" lon="12.4184983"><ele>604.6666666666666</ele><time>2026-04-18T11:40:14.606Z</time></trkpt><trkpt lat="43.5390467" lon="12.418525"><ele>609.0</ele><time>2026-04-18T11:40:15.606Z</time></trkpt><trkpt lat="43.53892" lon="12.4185483"><ele>609.0</ele><time>2026-04-18T11:40:16.606Z</time></trkpt><trkpt lat="43.5387933" lon="12.418545"><ele>609.0</ele><time>2026-04-18T11:40:17.606Z</time></trkpt><trkpt lat="43.538695" lon="12.41849"><ele>609.0</ele><time>2026-04-18T11:40:18.606Z</time></trkpt><trkpt lat="43.53862" lon="12.418425"><ele>609.0</ele><time>2026-04-18T11:40:19.606Z</time></trkpt><trkpt lat="43.53856" lon="12.4183817"><ele>609.0</ele><time>2026-04-18T11:40:20.606Z</time></trkpt><trkpt lat="43.5384967" lon="12.4183733"><ele>611.75</ele><time>2026-04-18T11:40:21.606Z</time></trkpt><trkpt lat="43.5384033" lon="12.4184467"><ele>614.5</ele><time>2026-04-18T11:40:23.606Z</time></trkpt><trkpt lat="43.5384667" lon="12.4186233"><ele>617.25</ele><time>2026-04-18T11:40:25.606Z</time></trkpt><trkpt lat="43.5385317" lon="12.4187317"><ele>620.0</ele><time>2026-04-18T11:40:26.606Z</time></trkpt><trkpt lat="43.538595" lon="12.418835"><ele>622.5</ele><time>2026-04-18T11:40:27.606Z</time></trkpt><trkpt lat="43.5386433" lon="12.4189283"><ele>625.0</ele><time>2026-04-18T11:40:28.606Z</time></trkpt><trkpt lat="43.5386783" lon="12.4190067"><ele>627.5</ele><time>2026-04-18T11:40:29.606Z</time></trkpt><trkpt lat="43.538645" lon="12.4191183"><ele>630.0</ele><time>2026-04-18T11:40:31.606Z</time></trkpt><trkpt lat="43.5385483" lon="12.4190783"><ele>632.5</ele><time>2026-04-18T11:40:33.606Z</time></trkpt><trkpt lat="43.538485" lon="12.4190033"><ele>635.0</ele><time>2026-04-18T11:40:34.606Z</time></trkpt><trkpt lat="43.5383883" lon="12.4189183"><ele>635.0</ele><time>2026-04-18T11:40:35.606Z</time></trkpt><trkpt lat="43.5382617" lon="12.418825"><ele>635.0</ele><time>2026-04-18T11:40:36.606Z</time></trkpt><trkpt lat="43.5381317" lon="12.41875"><ele>635.0</ele><time>2026-04-18T11:40:37.606Z</time></trkpt><trkpt lat="43.53801" lon="12.4186967"><ele>635.0</ele><time>2026-04-18T11:40:38.606Z</time></trkpt><trkpt lat="43.5379" lon="12.4186667"><ele>633.6</ele><time>2026-04-18T11:40:39.606Z</time></trkpt><trkpt lat="43.5377867" lon="12.4186583"><ele>632.2</ele><time>2026-04-18T11:40:40.606Z</time></trkpt><trkpt lat="43.5376733" lon="12.4186717"><ele>630.8</ele><time>2026-04-18T11:40:41.606Z</time></trkpt><trkpt lat="43.5375683" lon="12.4187083"><ele>629.4</ele><time>2026-04-18T11:40:42.606Z</time></trkpt><trkpt lat="43.5374667" lon="12.4187617"><ele>628.0</ele><time>2026-04-18T11:40:43.606Z</time></trkpt><trkpt lat="43.5373633" lon="12.418835"><ele>632.4</ele><time>2026-04-18T11:40:44.606Z</time></trkpt><trkpt lat="43.53728" lon="12.418915"><ele>636.8</ele><time>2026-04-18T11:40:45.605Z</time></trkpt><trkpt lat="43.53721" lon="12.4190233"><ele>641.2</ele><time>2026-04-18T11:40:46.606Z</time></trkpt><trkpt lat="43.537155" lon="12.4191617"><ele>645.6</ele><time>2026-04-18T11:40:47.606Z</time></trkpt><trkpt lat="43.5371283" lon="12.419315"><ele>650.0</ele><time>2026-04-18T11:40:48.606Z</time></trkpt><trkpt lat="43.5371083" lon="12.4194817"><ele>651.5</ele><time>2026-04-18T11:40:49.606Z</time></trkpt><trkpt lat="43.5370817" lon="12.4196633"><ele>653.0</ele><time>2026-04-18T11:40:50.606Z</time></trkpt><trkpt lat="43.5370367" lon="12.4198317"><ele>654.5</ele><time>2026-04-18T11:40:51.606Z</time></trkpt><trkpt lat="43.536965" lon="12.419995"><ele>656.0</ele><time>2026-04-18T11:40:52.606Z</time></trkpt><trkpt lat="43.53688" lon="12.4201383"><ele>654.5</ele><time>2026-04-18T11:40:53.606Z</time></trkpt><trkpt lat="43.5367733" lon="12.42027"><ele>653.0</ele><time>2026-04-18T11:40:54.606Z</time></trkpt><trkpt lat="43.5366567" lon="12.4203917"><ele>651.5</ele><time>2026-04-18T11:40:55.606Z</time></trkpt><trkpt lat="43.5365283" lon="12.4205183"><ele>650.0</ele><time>2026-04-18T11:40:56.606Z</time></trkpt><trkpt lat="43.5363967" lon="12.4206333"><ele>650.0</ele><time>2026-04-18T11:40:57.606Z</time></trkpt><trkpt lat="43.5362667" lon="12.4207583"><ele>650.0</ele><time>2026-04-18T11:40:58.606Z</time></trkpt><trkpt lat="43.53614" lon="12.42088"><ele>650.0</ele><time>2026-04-18T11:40:59.606Z</time></trkpt><trkpt lat="43.5360167" lon="12.4210017"><ele>648.25</ele><time>2026-04-18T11:41:00.606Z</time></trkpt><trkpt lat="43.5359017" lon="12.42113"><ele>646.5</ele><time>2026-04-18T11:41:01.606Z</time></trkpt><trkpt lat="43.5358083" lon="12.4212617"><ele>644.75</ele><time>2026-04-18T11:41:02.606Z</time></trkpt><trkpt lat="43.5357317" lon="12.4214067"><ele>643.0</ele><time>2026-04-18T11:41:03.606Z</time></trkpt><trkpt lat="43.5356783" lon="12.4215733"><ele>647.0</ele><time>2026-04-18T11:41:04.606Z</time></trkpt><trkpt lat="43.53565" lon="12.421755"><ele>651.0</ele><time>2026-04-18T11:41:05.606Z</time></trkpt><trkpt lat="43.5356383" lon="12.4219317"><ele>655.0</ele><time>2026-04-18T11:41:06.606Z</time></trkpt><trkpt lat="43.5356367" lon="12.4221267"><ele>659.0</ele><time>2026-04-18T11:41:07.606Z</time></trkpt><trkpt lat="43.53565" lon="12.42231"><ele>660.5</ele><time>2026-04-18T11:41:08.606Z</time></trkpt><trkpt lat="43.535645" lon="12.4224767"><ele>662.0</ele><time>2026-04-18T11:41:09.606Z</time></trkpt><trkpt lat="43.5356317" lon="12.4226367"><ele>663.5</ele><time>2026-04-18T11:41:10.606Z</time></trkpt><trkpt lat="43.5355767" lon="12.422795"><ele>665.0</ele><time>2026-04-18T11:41:11.606Z</time></trkpt><trkpt lat="43.53551" lon="12.4229533"><ele>663.6666666666666</ele><time>2026-04-18T11:41:12.606Z</time></trkpt><trkpt lat="43.5354267" lon="12.4231217"><ele>662.3333333333334</ele><time>2026-04-18T11:41:13.606Z</time></trkpt><trkpt lat="43.5353333" lon="12.4232983"><ele>661.0</ele><time>2026-04-18T11:41:14.606Z</time></trkpt><trkpt lat="43.5352467" lon="12.4234583"><ele>666.0</ele><time>2026-04-18T11:41:15.606Z</time></trkpt><trkpt lat="43.5351517" lon="12.423625"><ele>671.0</ele><time>2026-04-18T11:41:16.606Z</time></trkpt><trkpt lat="43.5350567" lon="12.4237733"><ele>676.0</ele><time>2026-04-18T11:41:17.606Z</time></trkpt><trkpt lat="43.5349533" lon="12.42393"><ele>676.5</ele><time>2026-04-18T11:41:18.606Z</time></trkpt><trkpt lat="43.5348517" lon="12.4240783"><ele>677.0</ele><time>2026-04-18T11:41:19.606Z</time></trkpt><trkpt lat="43.5347583" lon="12.4242233"><ele>677.5</ele><time>2026-04-18T11:41:20.606Z</time></trkpt><trkpt lat="43.5346633" lon="12.42437"><ele>678.0</ele><time>2026-04-18T11:41:21.606Z</time></trkpt><trkpt lat="43.534565" lon="12.42452"><ele>681.0</ele><time>2026-04-18T11:41:22.605Z</time></trkpt><trkpt lat="43.53447" lon="12.4246617"><ele>684.0</ele><time>2026-04-18T11:41:23.606Z</time></trkpt><trkpt lat="43.5343783" lon="12.4247967"><ele>687.0</ele><time>2026-04-18T11:41:24.605Z</time></trkpt><trkpt lat="43.534305" lon="12.4249383"><ele>690.0</ele><time>2026-04-18T11:41:25.606Z</time></trkpt><trkpt lat="43.5342567" lon="12.4250983"><ele>690.0</ele><time>2026-04-18T11:41:26.606Z</time></trkpt><trkpt lat="43.5342317" lon="12.4252683"><ele>690.0</ele><time>2026-04-18T11:41:27.606Z</time></trkpt><trkpt lat="43.5342333" lon="12.42545"><ele>690.0</ele><time>2026-04-18T11:41:28.606Z</time></trkpt><trkpt lat="43.5342667" lon="12.42564"><ele>690.0</ele><time>2026-04-18T11:41:29.606Z</time></trkpt><trkpt lat="43.5343183" lon="12.4258233"><ele>691.0</ele><time>2026-04-18T11:41:30.606Z</time></trkpt><trkpt lat="43.5343867" lon="12.4259967"><ele>692.0</ele><time>2026-04-18T11:41:31.606Z</time></trkpt><trkpt lat="43.53445" lon="12.426155"><ele>693.0</ele><time>2026-04-18T11:41:32.605Z</time></trkpt><trkpt lat="43.5344933" lon="12.4263"><ele>694.0</ele><time>2026-04-18T11:41:33.605Z</time></trkpt><trkpt lat="43.5345117" lon="12.4264167"><ele>694.1666666666667</ele><time>2026-04-18T11:41:34.606Z</time></trkpt><trkpt lat="43.53451" lon="12.4265167"><ele>694.3333333333334</ele><time>2026-04-18T11:41:35.606Z</time></trkpt><trkpt lat="43.534495" lon="12.426605"><ele>694.5</ele><time>2026-04-18T11:41:36.606Z</time></trkpt><trkpt lat="43.534445" lon="12.4266717"><ele>694.6666666666666</ele><time>2026-04-18T11:41:37.606Z</time></trkpt><trkpt lat="43.5343617" lon="12.4267283"><ele>694.8333333333333</ele><time>2026-04-18T11:41:38.606Z</time></trkpt><trkpt lat="43.53425" lon="12.42678"><ele>695.0</ele><time>2026-04-18T11:41:39.606Z</time></trkpt><trkpt lat="43.53414" lon="12.4268483"><ele>695.0</ele><time>2026-04-18T11:41:40.606Z</time></trkpt><trkpt lat="43.53403" lon="12.426945"><ele>695.0</ele><time>2026-04-18T11:41:41.606Z</time></trkpt><trkpt lat="43.5339183" lon="12.4270533"><ele>695.0</ele><time>2026-04-18T11:41:42.606Z</time></trkpt><trkpt lat="43.533815" lon="12.4271667"><ele>695.0</ele><time>2026-04-18T11:41:43.606Z</time></trkpt><trkpt lat="43.5337083" lon="12.42728"><ele>696.5</ele><time>2026-04-18T11:41:44.606Z</time></trkpt><trkpt lat="43.5335983" lon="12.4273933"><ele>698.0</ele><time>2026-04-18T11:41:45.606Z</time></trkpt><trkpt lat="43.5334867" lon="12.4275067"><ele>699.5</ele><time>2026-04-18T11:41:46.606Z</time></trkpt><trkpt lat="43.5333717" lon="12.4276283"><ele>701.0</ele><time>2026-04-18T11:41:47.606Z</time></trkpt><trkpt lat="43.5332567" lon="12.4277533"><ele>701.0</ele><time>2026-04-18T11:41:48.606Z</time></trkpt><trkpt lat="43.533145" lon="12.4278767"><ele>701.0</ele><time>2026-04-18T11:41:49.606Z</time></trkpt><trkpt lat="43.5330267" lon="12.4280067"><ele>701.0</ele><time>2026-04-18T11:41:50.606Z</time></trkpt><trkpt lat="43.5329067" lon="12.4281317"><ele>701.0</ele><time>2026-04-18T11:41:51.606Z</time></trkpt><trkpt lat="43.5327833" lon="12.42827"><ele>703.0</ele><time>2026-04-18T11:41:52.606Z</time></trkpt><trkpt lat="43.532665" lon="12.428395"><ele>705.0</ele><time>2026-04-18T11:41:53.606Z</time></trkpt><trkpt lat="43.5325617" lon="12.428505"><ele>707.0</ele><time>2026-04-18T11:41:54.606Z</time></trkpt><trkpt lat="43.5324783" lon="12.428615"><ele>709.0</ele><time>2026-04-18T11:41:55.606Z</time></trkpt><trkpt lat="43.532405" lon="12.42874"><ele>711.75</ele><time>2026-04-18T11:41:56.606Z</time></trkpt><trkpt lat="43.5323533" lon="12.428875"><ele>714.5</ele><time>2026-04-18T11:41:57.606Z</time></trkpt><trkpt lat="43.532305" lon="12.4290233"><ele>717.25</ele><time>2026-04-18T11:41:58.606Z</time></trkpt><trkpt lat="43.532265" lon="12.4291967"><ele>720.0</ele><time>2026-04-18T11:41:59.606Z</time></trkpt><trkpt lat="43.5322233" lon="12.4293567"><ele>720.0</ele><time>2026-04-18T11:42:00.606Z</time></trkpt><trkpt lat="43.53216" lon="12.4294833"><ele>720.0</ele><time>2026-04-18T11:42:01.606Z</time></trkpt><trkpt lat="43.5320767" lon="12.4295933"><ele>720.0</ele><time>2026-04-18T11:42:02.606Z</time></trkpt><trkpt lat="43.5319717" lon="12.4296967"><ele>720.0</ele><time>2026-04-18T11:42:03.606Z</time></trkpt><trkpt lat="43.53184" lon="12.4297517"><ele>718.0</ele><time>2026-04-18T11:42:04.606Z</time></trkpt><trkpt lat="43.5317117" lon="12.4297917"><ele>716.0</ele><time>2026-04-18T11:42:05.606Z</time></trkpt><trkpt lat="43.5316" lon="12.4298317"><ele>714.0</ele><time>2026-04-18T11:42:06.606Z</time></trkpt><trkpt lat="43.5314983" lon="12.4298667"><ele>712.0</ele><time>2026-04-18T11:42:07.606Z</time></trkpt><trkpt lat="43.531425" lon="12.42991"><ele>710.0</ele><time>2026-04-18T11:42:08.606Z</time></trkpt><trkpt lat="43.53136" lon="12.4299767"><ele>710.0</ele><time>2026-04-18T11:42:09.606Z</time></trkpt><trkpt lat="43.5313183" lon="12.430075"><ele>710.0</ele><time>2026-04-18T11:42:10.606Z</time></trkpt><trkpt lat="43.53131" lon="12.4301967"><ele>710.0</ele><time>2026-04-18T11:42:11.606Z</time></trkpt><trkpt lat="43.5313367" lon="12.4303667"><ele>710.0</ele><time>2026-04-18T11:42:12.606Z</time></trkpt><trkpt lat="43.5313783" lon="12.4305567"><ele>710.0</ele><time>2026-04-18T11:42:13.606Z</time></trkpt><trkpt lat="43.5314033" lon="12.430725"><ele>709.6</ele><time>2026-04-18T11:42:14.606Z</time></trkpt><trkpt lat="43.53142" lon="12.4308683"><ele>709.2</ele><time>2026-04-18T11:42:15.606Z</time></trkpt><trkpt lat="43.5314067" lon="12.43101"><ele>708.8</ele><time>2026-04-18T11:42:16.606Z</time></trkpt><trkpt lat="43.5313717" lon="12.4311533"><ele>708.4</ele><time>2026-04-18T11:42:17.606Z</time></trkpt><trkpt lat="43.5313133" lon="12.43129"><ele>708.0</ele><time>2026-04-18T11:42:18.606Z</time></trkpt><trkpt lat="43.5312317" lon="12.431415"><ele>707.75</ele><time>2026-04-18T11:42:19.606Z</time></trkpt><trkpt lat="43.5311333" lon="12.4315317"><ele>707.5</ele><time>2026-04-18T11:42:20.606Z</time></trkpt><trkpt lat="43.53102" lon="12.43164"><ele>707.25</ele><time>2026-04-18T11:42:21.606Z</time></trkpt><trkpt lat="43.5309083" lon="12.4317333"><ele>707.0</ele><time>2026-04-18T11:42:22.606Z</time></trkpt><trkpt lat="43.5307933" lon="12.4318017"><ele>707.0</ele><time>2026-04-18T11:42:23.606Z</time></trkpt><trkpt lat="43.5306683" lon="12.431825"><ele>707.0</ele><time>2026-04-18T11:42:24.606Z</time></trkpt><trkpt lat="43.53055" lon="12.4318"><ele>707.0</ele><time>2026-04-18T11:42:25.606Z</time></trkpt><trkpt lat="43.5304433" lon="12.4317283"><ele>707.0</ele><time>2026-04-18T11:42:26.606Z</time></trkpt><trkpt lat="43.530355" lon="12.4316433"><ele>707.5</ele><time>2026-04-18T11:42:27.606Z</time></trkpt><trkpt lat="43.5302783" lon="12.431585"><ele>708.0</ele><time>2026-04-18T11:42:28.606Z</time></trkpt><trkpt lat="43.5301983" lon="12.4315417"><ele>708.5</ele><time>2026-04-18T11:42:29.606Z</time></trkpt><trkpt lat="43.5301167" lon="12.4315467"><ele>709.0</ele><time>2026-04-18T11:42:30.606Z</time></trkpt><trkpt lat="43.53003" lon="12.4315933"><ele>709.5</ele><time>2026-04-18T11:42:31.606Z</time></trkpt><trkpt lat="43.529945" lon="12.4316683"><ele>710.0</ele><time>2026-04-18T11:42:32.606Z</time></trkpt><trkpt lat="43.5298533" lon="12.4317667"><ele>710.0</ele><time>2026-04-18T11:42:33.606Z</time></trkpt><trkpt lat="43.5297667" lon="12.431905"><ele>710.0</ele><time>2026-04-18T11:42:34.606Z</time></trkpt><trkpt lat="43.5296917" lon="12.4320483"><ele>710.0</ele><time>2026-04-18T11:42:35.606Z</time></trkpt><trkpt lat="43.5296133" lon="12.4321967"><ele>710.0</ele><time>2026-04-18T11:42:36.606Z</time></trkpt><trkpt lat="43.52953" lon="12.43234"><ele>713.25</ele><time>2026-04-18T11:42:37.606Z</time></trkpt><trkpt lat="43.529435" lon="12.4324933"><ele>716.5</ele><time>2026-04-18T11:42:38.606Z</time></trkpt><trkpt lat="43.5293383" lon="12.432635"><ele>719.75</ele><time>2026-04-18T11:42:39.606Z</time></trkpt><trkpt lat="43.5292383" lon="12.4327667"><ele>723.0</ele><time>2026-04-18T11:42:40.606Z</time></trkpt><trkpt lat="43.5291483" lon="12.432875"><ele>723.0</ele><time>2026-04-18T11:42:41.606Z</time></trkpt><trkpt lat="43.5290567" lon="12.4329683"><ele>723.0</ele><time>2026-04-18T11:42:42.606Z</time></trkpt><trkpt lat="43.5289567" lon="12.4330633"><ele>723.0</ele><time>2026-04-18T11:42:43.606Z</time></trkpt><trkpt lat="43.5288417" lon="12.4331483"><ele>723.0</ele><time>2026-04-18T11:42:44.606Z</time></trkpt><trkpt lat="43.5287133" lon="12.4332333"><ele>723.25</ele><time>2026-04-18T11:42:45.606Z</time></trkpt><trkpt lat="43.528575" lon="12.4333133"><ele>723.5</ele><time>2026-04-18T11:42:46.606Z</time></trkpt><trkpt lat="43.5284317" lon="12.4333883"><ele>723.75</ele><time>2026-04-18T11:42:47.606Z</time></trkpt><trkpt lat="43.5282983" lon="12.4334517"><ele>724.0</ele><time>2026-04-18T11:42:48.606Z</time></trkpt><trkpt lat="43.5281683" lon="12.4335067"><ele>724.0</ele><time>2026-04-18T11:42:49.606Z</time></trkpt><trkpt lat="43.5280367" lon="12.433535"><ele>724.0</ele><time>2026-04-18T11:42:50.606Z</time></trkpt><trkpt lat="43.5279033" lon="12.4335233"><ele>724.0</ele><time>2026-04-18T11:42:51.606Z</time></trkpt><trkpt lat="43.5277683" lon="12.4335"><ele>724.0</ele><time>2026-04-18T11:42:52.606Z</time></trkpt><trkpt lat="43.5276567" lon="12.4334733"><ele>723.4000000000001</ele><time>2026-04-18T11:42:53.606Z</time></trkpt><trkpt lat="43.5275433" lon="12.4334767"><ele>722.8</ele><time>2026-04-18T11:42:54.606Z</time></trkpt><trkpt lat="43.5274333" lon="12.433495"><ele>722.2</ele><time>2026-04-18T11:42:55.606Z</time></trkpt><trkpt lat="43.52733" lon="12.43353"><ele>721.5999999999999</ele><time>2026-04-18T11:42:56.606Z</time></trkpt><trkpt lat="43.5272267" lon="12.4335667"><ele>721.0</ele><time>2026-04-18T11:42:57.606Z</time></trkpt><trkpt lat="43.5271233" lon="12.4336233"><ele>720.25</ele><time>2026-04-18T11:42:58.606Z</time></trkpt><trkpt lat="43.5270167" lon="12.4337017"><ele>719.5</ele><time>2026-04-18T11:42:59.606Z</time></trkpt><trkpt lat="43.52692" lon="12.43379"><ele>718.75</ele><time>2026-04-18T11:43:00.606Z</time></trkpt><trkpt lat="43.526825" lon="12.4338733"><ele>718.0</ele><time>2026-04-18T11:43:01.606Z</time></trkpt><trkpt lat="43.526735" lon="12.433955"><ele>718.0</ele><time>2026-04-18T11:43:02.606Z</time></trkpt><trkpt lat="43.526645" lon="12.4340467"><ele>718.0</ele><time>2026-04-18T11:43:03.606Z</time></trkpt><trkpt lat="43.5265617" lon="12.4341367"><ele>718.0</ele><time>2026-04-18T11:43:04.606Z</time></trkpt><trkpt lat="43.526475" lon="12.4342183"><ele>718.0</ele><time>2026-04-18T11:43:05.606Z</time></trkpt><trkpt lat="43.5263917" lon="12.43429"><ele>718.0</ele><time>2026-04-18T11:43:06.606Z</time></trkpt><trkpt lat="43.5263067" lon="12.4343583"><ele>715.0</ele><time>2026-04-18T11:43:07.606Z</time></trkpt><trkpt lat="43.5262217" lon="12.43441"><ele>712.0</ele><time>2026-04-18T11:43:08.606Z</time></trkpt><trkpt lat="43.5261317" lon="12.43444"><ele>709.0</ele><time>2026-04-18T11:43:09.606Z</time></trkpt><trkpt lat="43.5260417" lon="12.4344467"><ele>706.0</ele><time>2026-04-18T11:43:10.606Z</time></trkpt><trkpt lat="43.525945" lon="12.434435"><ele>703.0</ele><time>2026-04-18T11:43:11.606Z</time></trkpt><trkpt lat="43.525865" lon="12.4344433"><ele>703.0</ele><time>2026-04-18T11:43:12.606Z</time></trkpt><trkpt lat="43.5257933" lon="12.4344667"><ele>703.0</ele><time>2026-04-18T11:43:13.606Z</time></trkpt><trkpt lat="43.52573" lon="12.4345067"><ele>703.0</ele><time>2026-04-18T11:43:14.606Z</time></trkpt><trkpt lat="43.5256733" lon="12.4345533"><ele>703.0</ele><time>2026-04-18T11:43:15.606Z</time></trkpt><trkpt lat="43.525615" lon="12.43464"><ele>703.0</ele><time>2026-04-18T11:43:17.606Z</time></trkpt><trkpt lat="43.525545" lon="12.4347333"><ele>703.0</ele><time>2026-04-18T11:43:20.606Z</time></trkpt><trkpt lat="43.5254883" lon="12.4348733"><ele>702.4</ele><time>2026-04-18T11:43:22.606Z</time></trkpt><trkpt lat="43.5254267" lon="12.4350267"><ele>701.8</ele><time>2026-04-18T11:43:24.606Z</time></trkpt><trkpt lat="43.5253417" lon="12.4351283"><ele>701.2</ele><time>2026-04-18T11:43:26.606Z</time></trkpt><trkpt lat="43.5252533" lon="12.4352183"><ele>700.6</ele><time>2026-04-18T11:43:28.606Z</time></trkpt><trkpt lat="43.52521" lon="12.43531"><ele>700.0</ele><time>2026-04-18T11:43:30.606Z</time></trkpt><trkpt lat="43.525175" lon="12.4354417"><ele>702.5</ele><time>2026-04-18T11:43:32.606Z</time></trkpt><trkpt lat="43.5251433" lon="12.435605"><ele>705.0</ele><time>2026-04-18T11:43:34.606Z</time></trkpt><trkpt lat="43.52514" lon="12.435715"><ele>707.5</ele><time>2026-04-18T11:43:35.606Z</time></trkpt><trkpt lat="43.52514" lon="12.4358217"><ele>710.0</ele><time>2026-04-18T11:43:36.606Z</time></trkpt><trkpt lat="43.5251533" lon="12.435925"><ele>712.5</ele><time>2026-04-18T11:43:37.606Z</time></trkpt><trkpt lat="43.5251617" lon="12.4360217"><ele>715.0</ele><time>2026-04-18T11:43:38.606Z</time></trkpt><trkpt lat="43.5251667" lon="12.4361217"><ele>715.0</ele><time>2026-04-18T11:43:39.606Z</time></trkpt><trkpt lat="43.5251783" lon="12.4362233"><ele>715.0</ele><time>2026-04-18T11:43:40.606Z</time></trkpt><trkpt lat="43.5252" lon="12.4363233"><ele>715.0</ele><time>2026-04-18T11:43:41.606Z</time></trkpt><trkpt lat="43.52523" lon="12.4364083"><ele>715.0</ele><time>2026-04-18T11:43:42.606Z</time></trkpt><trkpt lat="43.5252683" lon="12.436495"><ele>715.0</ele><time>2026-04-18T11:43:43.606Z</time></trkpt><trkpt lat="43.5253067" lon="12.4365717"><ele>715.0</ele><time>2026-04-18T11:43:44.606Z</time></trkpt><trkpt lat="43.52535" lon="12.4367217"><ele>714.4</ele><time>2026-04-18T11:43:46.606Z</time></trkpt><trkpt lat="43.5252867" lon="12.436885"><ele>713.8</ele><time>2026-04-18T11:43:48.606Z</time></trkpt><trkpt lat="43.5252383" lon="12.4369783"><ele>713.2</ele><time>2026-04-18T11:43:49.606Z</time></trkpt><trkpt lat="43.525185" lon="12.4370967"><ele>712.6</ele><time>2026-04-18T11:43:50.606Z</time></trkpt><trkpt lat="43.525155" lon="12.4372283"><ele>712.0</ele><time>2026-04-18T11:43:51.606Z</time></trkpt><trkpt lat="43.525135" lon="12.437335"><ele>709.5</ele><time>2026-04-18T11:43:52.606Z</time></trkpt><trkpt lat="43.5251267" lon="12.4374233"><ele>707.0</ele><time>2026-04-18T11:43:53.606Z</time></trkpt><trkpt lat="43.5251417" lon="12.4375333"><ele>704.5</ele><time>2026-04-18T11:43:54.606Z</time></trkpt><trkpt lat="43.5251633" lon="12.4376283"><ele>702.0</ele><time>2026-04-18T11:43:55.606Z</time></trkpt><trkpt lat="43.5251933" lon="12.4377217"><ele>699.5</ele><time>2026-04-18T11:43:56.606Z</time></trkpt><trkpt lat="43.5252467" lon="12.4378233"><ele>697.0</ele><time>2026-04-18T11:43:57.606Z</time></trkpt><trkpt lat="43.5253083" lon="12.43793"><ele>692.0</ele><time>2026-04-18T11:43:58.606Z</time></trkpt><trkpt lat="43.5253783" lon="12.4380333"><ele>687.0</ele><time>2026-04-18T11:43:59.606Z</time></trkpt><trkpt lat="43.5254633" lon="12.438115"><ele>682.0</ele><time>2026-04-18T11:44:00.606Z</time></trkpt><trkpt lat="43.52554" lon="12.4381883"><ele>677.0</ele><time>2026-04-18T11:44:01.606Z</time></trkpt><trkpt lat="43.525615" lon="12.4382633"><ele>672.0</ele><time>2026-04-18T11:44:02.606Z</time></trkpt><trkpt lat="43.5257067" lon="12.4383433"><ele>671.8</ele><time>2026-04-18T11:44:03.606Z</time></trkpt><trkpt lat="43.5257983" lon="12.43841"><ele>671.6</ele><time>2026-04-18T11:44:04.606Z</time></trkpt><trkpt lat="43.5258833" lon="12.4384717"><ele>671.4</ele><time>2026-04-18T11:44:05.606Z</time></trkpt><trkpt lat="43.5259683" lon="12.4385283"><ele>671.1999999999999</ele><time>2026-04-18T11:44:06.606Z</time></trkpt><trkpt lat="43.5260533" lon="12.4385733"><ele>671.0</ele><time>2026-04-18T11:44:07.606Z</time></trkpt><trkpt lat="43.5261267" lon="12.4386133"><ele>671.0</ele><time>2026-04-18T11:44:08.606Z</time></trkpt><trkpt lat="43.5262" lon="12.43866"><ele>671.0</ele><time>2026-04-18T11:44:09.606Z</time></trkpt><trkpt lat="43.5262617" lon="12.4387167"><ele>671.0</ele><time>2026-04-18T11:44:10.606Z</time></trkpt><trkpt lat="43.5263233" lon="12.438835"><ele>671.0</ele><time>2026-04-18T11:44:12.606Z</time></trkpt><trkpt lat="43.52627" lon="12.4389333"><ele>671.0</ele><time>2026-04-18T11:44:14.606Z</time></trkpt><trkpt lat="43.5262" lon="12.438965"><ele>671.0</ele><time>2026-04-18T11:44:15.606Z</time></trkpt><trkpt lat="43.5261017" lon="12.4389767"><ele>669.3333333333333</ele><time>2026-04-18T11:44:16.606Z</time></trkpt><trkpt lat="43.5260083" lon="12.4389817"><ele>667.6666666666666</ele><time>2026-04-18T11:44:17.606Z</time></trkpt><trkpt lat="43.525925" lon="12.4389917"><ele>666.0</ele><time>2026-04-18T11:44:18.606Z</time></trkpt><trkpt lat="43.5258467" lon="12.4389867"><ele>664.3333333333334</ele><time>2026-04-18T11:44:19.606Z</time></trkpt><trkpt lat="43.5257683" lon="12.4389933"><ele>662.6666666666667</ele><time>2026-04-18T11:44:20.606Z</time></trkpt><trkpt lat="43.5256867" lon="12.43899"><ele>661.0</ele><time>2026-04-18T11:44:21.606Z</time></trkpt><trkpt lat="43.5256133" lon="12.4389733"><ele>661.0</ele><time>2026-04-18T11:44:22.606Z</time></trkpt><trkpt lat="43.525545" lon="12.4389433"><ele>661.0</ele><time>2026-04-18T11:44:23.606Z</time></trkpt><trkpt lat="43.5254867" lon="12.4389033"><ele>661.0</ele><time>2026-04-18T11:44:24.606Z</time></trkpt><trkpt lat="43.5254333" lon="12.4388567"><ele>661.0</ele><time>2026-04-18T11:44:25.606Z</time></trkpt><trkpt lat="43.5253133" lon="12.4388033"><ele>661.0</ele><time>2026-04-18T11:44:27.606Z</time></trkpt><trkpt lat="43.5252467" lon="12.438805"><ele>661.0</ele><time>2026-04-18T11:44:28.606Z</time></trkpt><trkpt lat="43.5251817" lon="12.4388033"><ele>663.1999999999999</ele><time>2026-04-18T11:44:29.606Z</time></trkpt><trkpt lat="43.5251117" lon="12.4387967"><ele>665.4</ele><time>2026-04-18T11:44:30.606Z</time></trkpt><trkpt lat="43.52501" lon="12.4386917"><ele>667.6</ele><time>2026-04-18T11:44:32.606Z</time></trkpt><trkpt lat="43.5249133" lon="12.4386083"><ele>669.8</ele><time>2026-04-18T11:44:34.606Z</time></trkpt><trkpt lat="43.5248133" lon="12.4385833"><ele>672.0</ele><time>2026-04-18T11:44:36.606Z</time></trkpt><trkpt lat="43.524735" lon="12.4386317"><ele>672.0</ele><time>2026-04-18T11:44:38.606Z</time></trkpt><trkpt lat="43.524655" lon="12.4387367"><ele>672.0</ele><time>2026-04-18T11:44:40.606Z</time></trkpt><trkpt lat="43.5246267" lon="12.4388183"><ele>672.0</ele><time>2026-04-18T11:44:41.606Z</time></trkpt><trkpt lat="43.5246183" lon="12.4389183"><ele>672.0</ele><time>2026-04-18T11:44:42.606Z</time></trkpt><trkpt lat="43.5246317" lon="12.4390433"><ele>672.0</ele><time>2026-04-18T11:44:43.606Z</time></trkpt><trkpt lat="43.5246367" lon="12.439155"><ele>672.0</ele><time>2026-04-18T11:44:44.606Z</time></trkpt><trkpt lat="43.5246283" lon="12.4392667"><ele>670.2</ele><time>2026-04-18T11:44:45.606Z</time></trkpt><trkpt lat="43.524595" lon="12.43936"><ele>668.4000000000001</ele><time>2026-04-18T11:44:46.606Z</time></trkpt><trkpt lat="43.5245467" lon="12.4394533"><ele>666.5999999999999</ele><time>2026-04-18T11:44:47.606Z</time></trkpt><trkpt lat="43.5244933" lon="12.4395333"><ele>664.8</ele><time>2026-04-18T11:44:48.606Z</time></trkpt><trkpt lat="43.5244" lon="12.4396383"><ele>663.0</ele><time>2026-04-18T11:44:50.606Z</time></trkpt><trkpt lat="43.5243033" lon="12.439745"><ele>659.4285714285713</ele><time>2026-04-18T11:44:52.606Z</time></trkpt><trkpt lat="43.5242433" lon="12.4397867"><ele>655.8571428571429</ele><time>2026-04-18T11:44:53.606Z</time></trkpt><trkpt lat="43.5241783" lon="12.4398233"><ele>652.2857142857142</ele><time>2026-04-18T11:44:54.606Z</time></trkpt><trkpt lat="43.5241117" lon="12.439845"><ele>648.7142857142857</ele><time>2026-04-18T11:44:55.606Z</time></trkpt><trkpt lat="43.5240433" lon="12.4398483"><ele>645.1428571428571</ele><time>2026-04-18T11:44:56.606Z</time></trkpt><trkpt lat="43.523975" lon="12.4398517"><ele>641.5714285714286</ele><time>2026-04-18T11:44:57.606Z</time></trkpt><trkpt lat="43.5239067" lon="12.4398583"><ele>638.0</ele><time>2026-04-18T11:44:58.606Z</time></trkpt><trkpt lat="43.5238367" lon="12.439875"><ele>638.0</ele><time>2026-04-18T11:44:59.606Z</time></trkpt><trkpt lat="43.523775" lon="12.4399167"><ele>638.0</ele><time>2026-04-18T11:45:00.606Z</time></trkpt><trkpt lat="43.5236833" lon="12.4400383"><ele>638.0</ele><time>2026-04-18T11:45:02.606Z</time></trkpt><trkpt lat="43.5236583" lon="12.4401283"><ele>638.0</ele><time>2026-04-18T11:45:03.606Z</time></trkpt><trkpt lat="43.5236517" lon="12.4402267"><ele>638.0</ele><time>2026-04-18T11:45:04.606Z</time></trkpt><trkpt lat="43.5236467" lon="12.440325"><ele>638.0</ele><time>2026-04-18T11:45:05.606Z</time></trkpt><trkpt lat="43.5236567" lon="12.440415"><ele>637.3333333333333</ele><time>2026-04-18T11:45:06.606Z</time></trkpt><trkpt lat="43.5236833" lon="12.4405067"><ele>636.6666666666666</ele><time>2026-04-18T11:45:07.606Z</time></trkpt><trkpt lat="43.52371" lon="12.440605"><ele>636.0</ele><time>2026-04-18T11:45:08.606Z</time></trkpt><trkpt lat="43.523735" lon="12.4407083"><ele>635.3333333333334</ele><time>2026-04-18T11:45:09.606Z</time></trkpt><trkpt lat="43.523745" lon="12.440805"><ele>634.6666666666667</ele><time>2026-04-18T11:45:10.606Z</time></trkpt><trkpt lat="43.5237483" lon="12.4408983"><ele>634.0</ele><time>2026-04-18T11:45:11.606Z</time></trkpt><trkpt lat="43.5237867" lon="12.4410467"><ele>634.0</ele><time>2026-04-18T11:45:13.606Z</time></trkpt><trkpt lat="43.5238683" lon="12.4410883"><ele>634.0</ele><time>2026-04-18T11:45:15.606Z</time></trkpt><trkpt lat="43.52398" lon="12.44107"><ele>634.0</ele><time>2026-04-18T11:45:17.605Z</time></trkpt><trkpt lat="43.5240417" lon="12.44109"><ele>634.0</ele><time>2026-04-18T11:45:18.605Z</time></trkpt><trkpt lat="43.5240933" lon="12.441145"><ele>634.0</ele><time>2026-04-18T11:45:19.605Z</time></trkpt><trkpt lat="43.5241333" lon="12.4412133"><ele>634.0</ele><time>2026-04-18T11:45:20.605Z</time></trkpt><trkpt lat="43.5241683" lon="12.44129"><ele>636.3333333333334</ele><time>2026-04-18T11:45:21.605Z</time></trkpt><trkpt lat="43.5242083" lon="12.44137"><ele>638.6666666666667</ele><time>2026-04-18T11:45:22.605Z</time></trkpt><trkpt lat="43.524245" lon="12.44145"><ele>641.0</ele><time>2026-04-18T11:45:23.605Z</time></trkpt><trkpt lat="43.524275" lon="12.4415317"><ele>643.3333333333334</ele><time>2026-04-18T11:45:24.605Z</time></trkpt><trkpt lat="43.524335" lon="12.441685"><ele>645.6666666666666</ele><time>2026-04-18T11:45:26.605Z</time></trkpt><trkpt lat="43.5244183" lon="12.441795"><ele>648.0</ele><time>2026-04-18T11:45:28.605Z</time></trkpt><trkpt lat="43.5245067" lon="12.441865"><ele>647.0</ele><time>2026-04-18T11:45:30.604Z</time></trkpt><trkpt lat="43.524605" lon="12.44195"><ele>646.0</ele><time>2026-04-18T11:45:32.605Z</time></trkpt><trkpt lat="43.524675" lon="12.4420917"><ele>645.0</ele><time>2026-04-18T11:45:34.605Z</time></trkpt><trkpt lat="43.5246883" lon="12.4422517"><ele>644.0</ele><time>2026-04-18T11:45:36.605Z</time></trkpt><trkpt lat="43.5246617" lon="12.4424117"><ele>644.0</ele><time>2026-04-18T11:45:38.605Z</time></trkpt><trkpt lat="43.524675" lon="12.4425583"><ele>644.0</ele><time>2026-04-18T11:45:40.605Z</time></trkpt><trkpt lat="43.5247117" lon="12.442715"><ele>644.0</ele><time>2026-04-18T11:45:42.605Z</time></trkpt><trkpt lat="43.5247267" lon="12.442815"><ele>644.0</ele><time>2026-04-18T11:45:43.605Z</time></trkpt><trkpt lat="43.5247317" lon="12.442915"><ele>644.0</ele><time>2026-04-18T11:45:44.605Z</time></trkpt><trkpt lat="43.5247283" lon="12.4430217"><ele>644.8333333333333</ele><time>2026-04-18T11:45:45.605Z</time></trkpt><trkpt lat="43.52471" lon="12.4431367"><ele>645.6666666666666</ele><time>2026-04-18T11:45:46.605Z</time></trkpt><trkpt lat="43.5246983" lon="12.4432533"><ele>646.5</ele><time>2026-04-18T11:45:47.605Z</time></trkpt><trkpt lat="43.52469" lon="12.44337"><ele>647.3333333333334</ele><time>2026-04-18T11:45:48.605Z</time></trkpt><trkpt lat="43.52468" lon="12.44347"><ele>648.1666666666667</ele><time>2026-04-18T11:45:49.605Z</time></trkpt><trkpt lat="43.5246417" lon="12.443625"><ele>649.0</ele><time>2026-04-18T11:45:51.605Z</time></trkpt><trkpt lat="43.5246067" lon="12.4437083"><ele>649.4285714285713</ele><time>2026-04-18T11:45:52.604Z</time></trkpt><trkpt lat="43.5245667" lon="12.4438033"><ele>649.8571428571429</ele><time>2026-04-18T11:45:53.605Z</time></trkpt><trkpt lat="43.5245333" lon="12.4439017"><ele>650.2857142857142</ele><time>2026-04-18T11:45:54.605Z</time></trkpt><trkpt lat="43.5245133" lon="12.4439917"><ele>650.7142857142857</ele><time>2026-04-18T11:45:55.605Z</time></trkpt><trkpt lat="43.5244917" lon="12.44408"><ele>651.1428571428571</ele><time>2026-04-18T11:45:56.605Z</time></trkpt><trkpt lat="43.5244583" lon="12.44416"><ele>651.5714285714286</ele><time>2026-04-18T11:45:57.605Z</time></trkpt><trkpt lat="43.5244317" lon="12.4442467"><ele>652.0</ele><time>2026-04-18T11:45:58.605Z</time></trkpt><trkpt lat="43.524395" lon="12.4443317"><ele>654.8333333333334</ele><time>2026-04-18T11:45:59.605Z</time></trkpt><trkpt lat="43.5243617" lon="12.4444133"><ele>657.6666666666667</ele><time>2026-04-18T11:46:00.605Z</time></trkpt><trkpt lat="43.524315" lon="12.4444767"><ele>660.5</ele><time>2026-04-18T11:46:01.605Z</time></trkpt><trkpt lat="43.5242617" lon="12.4445333"><ele>663.3333333333334</ele><time>2026-04-18T11:46:02.605Z</time></trkpt><trkpt lat="43.5241967" lon="12.4445917"><ele>666.1666666666666</ele><time>2026-04-18T11:46:03.605Z</time></trkpt><trkpt lat="43.524115" lon="12.4446467"><ele>669.0</ele><time>2026-04-18T11:46:04.604Z</time></trkpt><trkpt lat="43.5240333" lon="12.444685"><ele>669.0</ele><time>2026-04-18T11:46:05.605Z</time></trkpt><trkpt lat="43.523955" lon="12.4447483"><ele>669.0</ele><time>2026-04-18T11:46:06.605Z</time></trkpt><trkpt lat="43.52387" lon="12.4448367"><ele>669.0</ele><time>2026-04-18T11:46:07.605Z</time></trkpt><trkpt lat="43.5237917" lon="12.4449017"><ele>669.0</ele><time>2026-04-18T11:46:08.605Z</time></trkpt><trkpt lat="43.5237283" lon="12.4449783"><ele>669.0</ele><time>2026-04-18T11:46:09.605Z</time></trkpt><trkpt lat="43.5236683" lon="12.4450417"><ele>669.0</ele><time>2026-04-18T11:46:10.605Z</time></trkpt><trkpt lat="43.5236067" lon="12.4451233"><ele>673.8000000000001</ele><time>2026-04-18T11:46:11.605Z</time></trkpt><trkpt lat="43.5235467" lon="12.4451817"><ele>678.6</ele><time>2026-04-18T11:46:12.605Z</time></trkpt><trkpt lat="43.5234117" lon="12.445205"><ele>683.4</ele><time>2026-04-18T11:46:14.605Z</time></trkpt><trkpt lat="43.523335" lon="12.4452167"><ele>688.2</ele><time>2026-04-18T11:46:15.605Z</time></trkpt><trkpt lat="43.5232517" lon="12.4452233"><ele>693.0</ele><time>2026-04-18T11:46:16.605Z</time></trkpt><trkpt lat="43.5231667" lon="12.4452633"><ele>693.0</ele><time>2026-04-18T11:46:17.605Z</time></trkpt><trkpt lat="43.5230917" lon="12.445305"><ele>693.0</ele><time>2026-04-18T11:46:18.605Z</time></trkpt><trkpt lat="43.523025" lon="12.445345"><ele>693.0</ele><time>2026-04-18T11:46:19.605Z</time></trkpt><trkpt lat="43.5229617" lon="12.4454033"><ele>693.0</ele><time>2026-04-18T11:46:20.605Z</time></trkpt><trkpt lat="43.5228933" lon="12.4454733"><ele>693.0</ele><time>2026-04-18T11:46:21.605Z</time></trkpt><trkpt lat="43.52282" lon="12.4455283"><ele>693.0</ele><time>2026-04-18T11:46:22.605Z</time></trkpt><trkpt lat="43.5227417" lon="12.4455917"><ele>691.0</ele><time>2026-04-18T11:46:23.605Z</time></trkpt><trkpt lat="43.5226633" lon="12.4456583"><ele>689.0</ele><time>2026-04-18T11:46:24.605Z</time></trkpt><trkpt lat="43.5225917" lon="12.44572"><ele>687.0</ele><time>2026-04-18T11:46:25.605Z</time></trkpt><trkpt lat="43.5225267" lon="12.4457767"><ele>685.0</ele><time>2026-04-18T11:46:26.605Z</time></trkpt><trkpt lat="43.5224683" lon="12.4458867"><ele>683.0</ele><time>2026-04-18T11:46:28.605Z</time></trkpt><trkpt lat="43.5224733" lon="12.4460233"><ele>683.0</ele><time>2026-04-18T11:46:30.605Z</time></trkpt><trkpt lat="43.5225283" lon="12.4461333"><ele>683.0</ele><time>2026-04-18T11:46:32.605Z</time></trkpt><trkpt lat="43.5225783" lon="12.4461933"><ele>683.0</ele><time>2026-04-18T11:46:33.605Z</time></trkpt><trkpt lat="43.52265" lon="12.44626"><ele>683.0</ele><time>2026-04-18T11:46:34.605Z</time></trkpt><trkpt lat="43.5227233" lon="12.4463383"><ele>683.0</ele><time>2026-04-18T11:46:35.605Z</time></trkpt><trkpt lat="43.522795" lon="12.446425"><ele>683.0</ele><time>2026-04-18T11:46:36.605Z</time></trkpt><trkpt lat="43.5228567" lon="12.4465183"><ele>681.6666666666666</ele><time>2026-04-18T11:46:37.605Z</time></trkpt><trkpt lat="43.522915" lon="12.446595"><ele>680.3333333333333</ele><time>2026-04-18T11:46:38.605Z</time></trkpt><trkpt lat="43.5229717" lon="12.4466533"><ele>679.0</ele><time>2026-04-18T11:46:39.605Z</time></trkpt><trkpt lat="43.5230883" lon="12.4466833"><ele>677.6666666666666</ele><time>2026-04-18T11:46:41.605Z</time></trkpt><trkpt lat="43.5231567" lon="12.4466883"><ele>676.3333333333334</ele><time>2026-04-18T11:46:42.605Z</time></trkpt><trkpt lat="43.5232333" lon="12.4466833"><ele>675.0</ele><time>2026-04-18T11:46:43.605Z</time></trkpt><trkpt lat="43.52331" lon="12.446685"><ele>675.0</ele><time>2026-04-18T11:46:44.605Z</time></trkpt><trkpt lat="43.5233867" lon="12.4466833"><ele>675.0</ele><time>2026-04-18T11:46:45.605Z</time></trkpt><trkpt lat="43.5234667" lon="12.4466783"><ele>675.0</ele><time>2026-04-18T11:46:46.605Z</time></trkpt><trkpt lat="43.5235317" lon="12.4466767"><ele>675.0</ele><time>2026-04-18T11:46:47.605Z</time></trkpt><trkpt lat="43.523595" lon="12.4466683"><ele>675.0</ele><time>2026-04-18T11:46:48.605Z</time></trkpt><trkpt lat="43.5237267" lon="12.446665"><ele>675.0</ele><time>2026-04-18T11:46:50.605Z</time></trkpt><trkpt lat="43.523805" lon="12.4466617"><ele>676.2</ele><time>2026-04-18T11:46:51.605Z</time></trkpt><trkpt lat="43.5238967" lon="12.446655"><ele>677.4</ele><time>2026-04-18T11:46:52.605Z</time></trkpt><trkpt lat="43.5239983" lon="12.4466583"><ele>678.5999999999999</ele><time>2026-04-18T11:46:53.604Z</time></trkpt><trkpt lat="43.5241017" lon="12.4466617"><ele>679.8</ele><time>2026-04-18T11:46:54.604Z</time></trkpt><trkpt lat="43.524205" lon="12.4466817"><ele>681.0</ele><time>2026-04-18T11:46:55.605Z</time></trkpt><trkpt lat="43.5243" lon="12.4467083"><ele>681.0</ele><time>2026-04-18T11:46:56.605Z</time></trkpt><trkpt lat="43.5243917" lon="12.4467167"><ele>681.0</ele><time>2026-04-18T11:46:57.605Z</time></trkpt><trkpt lat="43.5244733" lon="12.4466983"><ele>681.0</ele><time>2026-04-18T11:46:58.605Z</time></trkpt><trkpt lat="43.52455" lon="12.4466633"><ele>681.0</ele><time>2026-04-18T11:46:59.605Z</time></trkpt><trkpt lat="43.52463" lon="12.44662"><ele>681.0</ele><time>2026-04-18T11:47:00.605Z</time></trkpt><trkpt lat="43.52471" lon="12.4465633"><ele>681.0</ele><time>2026-04-18T11:47:01.605Z</time></trkpt><trkpt lat="43.5247883" lon="12.4465083"><ele>682.6666666666666</ele><time>2026-04-18T11:47:02.605Z</time></trkpt><trkpt lat="43.5248617" lon="12.4464717"><ele>684.3333333333334</ele><time>2026-04-18T11:47:03.605Z</time></trkpt><trkpt lat="43.5249283" lon="12.4464417"><ele>686.0</ele><time>2026-04-18T11:47:04.605Z</time></trkpt><trkpt lat="43.5250017" lon="12.4464467"><ele>687.6666666666667</ele><time>2026-04-18T11:47:05.605Z</time></trkpt><trkpt lat="43.5250833" lon="12.4464667"><ele>689.3333333333334</ele><time>2026-04-18T11:47:06.605Z</time></trkpt><trkpt lat="43.525165" lon="12.4464867"><ele>691.0</ele><time>2026-04-18T11:47:07.605Z</time></trkpt><trkpt lat="43.5252433" lon="12.4465117"><ele>691.0</ele><time>2026-04-18T11:47:08.605Z</time></trkpt><trkpt lat="43.5253233" lon="12.446535"><ele>691.0</ele><time>2026-04-18T11:47:09.604Z</time></trkpt><trkpt lat="43.5254067" lon="12.4465617"><ele>691.0</ele><time>2026-04-18T11:47:10.605Z</time></trkpt><trkpt lat="43.5254917" lon="12.4465767"><ele>691.0</ele><time>2026-04-18T11:47:11.605Z</time></trkpt><trkpt lat="43.5255767" lon="12.446585"><ele>691.0</ele><time>2026-04-18T11:47:12.605Z</time></trkpt><trkpt lat="43.52566" lon="12.4465817"><ele>691.0</ele><time>2026-04-18T11:47:13.605Z</time></trkpt><trkpt lat="43.5257317" lon="12.4465683"><ele>692.0</ele><time>2026-04-18T11:47:14.605Z</time></trkpt><trkpt lat="43.5258433" lon="12.4465333"><ele>693.0</ele><time>2026-04-18T11:47:16.605Z</time></trkpt><trkpt lat="43.525925" lon="12.446555"><ele>694.0</ele><time>2026-04-18T11:47:18.605Z</time></trkpt><trkpt lat="43.52596" lon="12.4466717"><ele>695.0</ele><time>2026-04-18T11:47:20.605Z</time></trkpt><trkpt lat="43.525895" lon="12.4467567"><ele>696.0</ele><time>2026-04-18T11:47:22.605Z</time></trkpt><trkpt lat="43.52579" lon="12.446765"><ele>696.0</ele><time>2026-04-18T11:47:24.605Z</time></trkpt><trkpt lat="43.5256933" lon="12.4467983"><ele>696.0</ele><time>2026-04-18T11:47:26.605Z</time></trkpt><trkpt lat="43.525605" lon="12.446915"><ele>696.0</ele><time>2026-04-18T11:47:28.605Z</time></trkpt><trkpt lat="43.5255583" lon="12.4469767"><ele>696.0</ele><time>2026-04-18T11:47:29.605Z</time></trkpt><trkpt lat="43.5255133" lon="12.4470417"><ele>696.0</ele><time>2026-04-18T11:47:30.605Z</time></trkpt><trkpt lat="43.5254667" lon="12.4471067"><ele>696.0</ele><time>2026-04-18T11:47:31.605Z</time></trkpt><trkpt lat="43.5253867" lon="12.4472283"><ele>697.5</ele><time>2026-04-18T11:47:33.605Z</time></trkpt><trkpt lat="43.5253317" lon="12.4473083"><ele>699.0</ele><time>2026-04-18T11:47:35.605Z</time></trkpt><trkpt lat="43.5252867" lon="12.447395"><ele>700.5</ele><time>2026-04-18T11:47:52.605Z</time></trkpt><trkpt lat="43.5252083" lon="12.447525"><ele>702.0</ele><time>2026-04-18T11:47:54.605Z</time></trkpt><trkpt lat="43.525155" lon="12.44761"><ele>703.5</ele><time>2026-04-18T11:47:55.605Z</time></trkpt><trkpt lat="43.52511" lon="12.4477017"><ele>705.0</ele><time>2026-04-18T11:47:56.605Z</time></trkpt><trkpt lat="43.5250833" lon="12.4478183"><ele>704.9999999999999</ele><time>2026-04-18T11:47:57.605Z</time></trkpt><trkpt lat="43.525065" lon="12.44793"><ele>705.0</ele><time>2026-04-18T11:47:58.605Z</time></trkpt><trkpt lat="43.525055" lon="12.448045"><ele>705.0</ele><time>2026-04-18T11:47:59.605Z</time></trkpt><trkpt lat="43.5250383" lon="12.448145"><ele>705.0</ele><time>2026-04-18T11:48:00.605Z</time></trkpt><trkpt lat="43.5250117" lon="12.4482317"><ele>705.0</ele><time>2026-04-18T11:48:01.605Z</time></trkpt><trkpt lat="43.5249767" lon="12.4483083"><ele>704.9999999999999</ele><time>2026-04-18T11:48:02.605Z</time></trkpt><trkpt lat="43.52494" lon="12.44838"><ele>705.0</ele><time>2026-04-18T11:48:03.605Z</time></trkpt><trkpt lat="43.5249083" lon="12.4484567"><ele>704.1666666666666</ele><time>2026-04-18T11:48:04.605Z</time></trkpt><trkpt lat="43.524895" lon="12.4485417"><ele>703.3333333333334</ele><time>2026-04-18T11:48:05.605Z</time></trkpt><trkpt lat="43.524895" lon="12.448635"><ele>702.5</ele><time>2026-04-18T11:48:06.605Z</time></trkpt><trkpt lat="43.524915" lon="12.4487283"><ele>701.6666666666667</ele><time>2026-04-18T11:48:07.605Z</time></trkpt><trkpt lat="43.52496" lon="12.448825"><ele>700.8333333333334</ele><time>2026-04-18T11:48:08.605Z</time></trkpt><trkpt lat="43.525015" lon="12.4489217"><ele>700.0</ele><time>2026-04-18T11:48:09.605Z</time></trkpt><trkpt lat="43.5250717" lon="12.4490267"><ele>700.0</ele><time>2026-04-18T11:48:10.605Z</time></trkpt><trkpt lat="43.5251267" lon="12.4491333"><ele>700.0</ele><time>2026-04-18T11:48:11.605Z</time></trkpt><trkpt lat="43.5251817" lon="12.4492333"><ele>700.0</ele><time>2026-04-18T11:48:12.605Z</time></trkpt><trkpt lat="43.52524" lon="12.449325"><ele>700.0</ele><time>2026-04-18T11:48:13.605Z</time></trkpt><trkpt lat="43.5252967" lon="12.4493983"><ele>700.0</ele><time>2026-04-18T11:48:14.605Z</time></trkpt><trkpt lat="43.52534" lon="12.449465"><ele>700.0</ele><time>2026-04-18T11:48:15.605Z</time></trkpt><trkpt lat="43.5253883" lon="12.44958"><ele>698.0</ele><time>2026-04-18T11:48:17.605Z</time></trkpt><trkpt lat="43.5253533" lon="12.44969"><ele>696.0</ele><time>2026-04-18T11:48:19.605Z</time></trkpt><trkpt lat="43.5252733" lon="12.44982"><ele>694.0</ele><time>2026-04-18T11:48:21.605Z</time></trkpt><trkpt lat="43.5251833" lon="12.4498867"><ele>692.0</ele><time>2026-04-18T11:48:23.605Z</time></trkpt><trkpt lat="43.5250817" lon="12.4498967"><ele>690.0</ele><time>2026-04-18T11:48:25.605Z</time></trkpt><trkpt lat="43.5249533" lon="12.449865"><ele>690.0</ele><time>2026-04-18T11:48:27.605Z</time></trkpt><trkpt lat="43.524885" lon="12.4498517"><ele>690.0</ele><time>2026-04-18T11:48:28.605Z</time></trkpt><trkpt lat="43.5247933" lon="12.4498167"><ele>690.0</ele><time>2026-04-18T11:48:30.605Z</time></trkpt><trkpt lat="43.5247167" lon="12.449785"><ele>690.0</ele><time>2026-04-18T11:48:33.605Z</time></trkpt><trkpt lat="43.5246383" lon="12.44979"><ele>690.0</ele><time>2026-04-18T11:48:36.605Z</time></trkpt><trkpt lat="43.5245733" lon="12.4498083"><ele>690.0</ele><time>2026-04-18T11:48:38.605Z</time></trkpt><trkpt lat="43.5245167" lon="12.4498483"><ele>690.2</ele><time>2026-04-18T11:48:40.605Z</time></trkpt><trkpt lat="43.5245083" lon="12.44996"><ele>690.4</ele><time>2026-04-18T11:48:42.605Z</time></trkpt><trkpt lat="43.5245267" lon="12.4501"><ele>690.5999999999999</ele><time>2026-04-18T11:48:44.605Z</time></trkpt><trkpt lat="43.524525" lon="12.450235"><ele>690.8</ele><time>2026-04-18T11:48:46.605Z</time></trkpt><trkpt lat="43.524525" lon="12.4503717"><ele>691.0</ele><time>2026-04-18T11:48:48.605Z</time></trkpt><trkpt lat="43.5244967" lon="12.450515"><ele>691.0</ele><time>2026-04-18T11:48:50.605Z</time></trkpt><trkpt lat="43.5244233" lon="12.4506317"><ele>691.0</ele><time>2026-04-18T11:48:52.605Z</time></trkpt><trkpt lat="43.5243083" lon="12.450695"><ele>691.0</ele><time>2026-04-18T11:48:54.605Z</time></trkpt><trkpt lat="43.5242417" lon="12.450715"><ele>691.0</ele><time>2026-04-18T11:48:55.605Z</time></trkpt><trkpt lat="43.5241717" lon="12.450725"><ele>691.0</ele><time>2026-04-18T11:48:56.605Z</time></trkpt><trkpt lat="43.5240917" lon="12.4507667"><ele>691.0</ele><time>2026-04-18T11:48:57.605Z</time></trkpt><trkpt lat="43.524015" lon="12.4508"><ele>691.0</ele><time>2026-04-18T11:48:58.605Z</time></trkpt><trkpt lat="43.52394" lon="12.4508417"><ele>691.0</ele><time>2026-04-18T11:48:59.605Z</time></trkpt><trkpt lat="43.5238617" lon="12.450895"><ele>691.0</ele><time>2026-04-18T11:49:00.605Z</time></trkpt><trkpt lat="43.5237883" lon="12.4509517"><ele>691.0</ele><time>2026-04-18T11:49:01.605Z</time></trkpt><trkpt lat="43.523715" lon="12.4509767"><ele>691.0</ele><time>2026-04-18T11:49:02.605Z</time></trkpt><trkpt lat="43.52365" lon="12.451"><ele>689.5999999999999</ele><time>2026-04-18T11:49:03.605Z</time></trkpt><trkpt lat="43.5235417" lon="12.4510883"><ele>688.2</ele><time>2026-04-18T11:49:05.605Z</time></trkpt><trkpt lat="43.5234983" lon="12.45118"><ele>686.8</ele><time>2026-04-18T11:49:06.605Z</time></trkpt><trkpt lat="43.5234133" lon="12.4513167"><ele>685.4000000000001</ele><time>2026-04-18T11:49:08.605Z</time></trkpt><trkpt lat="43.5233567" lon="12.45138"><ele>684.0</ele><time>2026-04-18T11:49:09.605Z</time></trkpt><trkpt lat="43.523295" lon="12.4514417"><ele>684.0</ele><time>2026-04-18T11:49:10.605Z</time></trkpt><trkpt lat="43.523235" lon="12.4514883"><ele>684.0</ele><time>2026-04-18T11:49:11.605Z</time></trkpt><trkpt lat="43.5231367" lon="12.4515767"><ele>684.0</ele><time>2026-04-18T11:49:13.605Z</time></trkpt><trkpt lat="43.5230817" lon="12.451645"><ele>684.0</ele><time>2026-04-18T11:49:15.605Z</time></trkpt><trkpt lat="43.5230383" lon="12.45172"><ele>684.0</ele><time>2026-04-18T11:49:17.605Z</time></trkpt><trkpt lat="43.522985" lon="12.45182"><ele>684.0</ele><time>2026-04-18T11:49:19.605Z</time></trkpt><trkpt lat="43.5229417" lon="12.4519367"><ele>684.0</ele><time>2026-04-18T11:49:21.605Z</time></trkpt><trkpt lat="43.5229033" lon="12.4520533"><ele>684.0</ele><time>2026-04-18T11:49:23.605Z</time></trkpt><trkpt lat="43.5228333" lon="12.4521817"><ele>684.0</ele><time>2026-04-18T11:49:25.605Z</time></trkpt><trkpt lat="43.52278" lon="12.4523133"><ele>684.0</ele><time>2026-04-18T11:49:27.605Z</time></trkpt><trkpt lat="43.5227617" lon="12.4524483"><ele>684.0</ele><time>2026-04-18T11:49:29.605Z</time></trkpt><trkpt lat="43.5227517" lon="12.4525917"><ele>684.5</ele><time>2026-04-18T11:49:31.605Z</time></trkpt><trkpt lat="43.5227767" lon="12.4526767"><ele>685.0</ele><time>2026-04-18T11:49:34.605Z</time></trkpt><trkpt lat="43.5228417" lon="12.4526733"><ele>685.5</ele><time>2026-04-18T11:49:36.605Z</time></trkpt><trkpt lat="43.522925" lon="12.4526167"><ele>686.0</ele><time>2026-04-18T11:49:38.605Z</time></trkpt><trkpt lat="43.5229917" lon="12.4525883"><ele>686.5</ele><time>2026-04-18T11:49:39.605Z</time></trkpt><trkpt lat="43.523075" lon="12.4525533"><ele>687.0</ele><time>2026-04-18T11:49:40.605Z</time></trkpt><trkpt lat="43.523155" lon="12.45253"><ele>687.0</ele><time>2026-04-18T11:49:41.605Z</time></trkpt><trkpt lat="43.52323" lon="12.4525083"><ele>687.0</ele><time>2026-04-18T11:49:42.605Z</time></trkpt><trkpt lat="43.5233167" lon="12.45248"><ele>687.0</ele><time>2026-04-18T11:49:43.605Z</time></trkpt><trkpt lat="43.5234017" lon="12.4524633"><ele>687.0</ele><time>2026-04-18T11:49:44.605Z</time></trkpt><trkpt lat="43.523485" lon="12.4524233"><ele>687.0</ele><time>2026-04-18T11:49:45.605Z</time></trkpt><trkpt lat="43.5235717" lon="12.4523883"><ele>687.0</ele><time>2026-04-18T11:49:46.605Z</time></trkpt><trkpt lat="43.5236567" lon="12.4523517"><ele>686.8</ele><time>2026-04-18T11:49:47.605Z</time></trkpt><trkpt lat="43.523735" lon="12.45234"><ele>686.6</ele><time>2026-04-18T11:49:48.605Z</time></trkpt><trkpt lat="43.5238333" lon="12.452325"><ele>686.4</ele><time>2026-04-18T11:49:49.605Z</time></trkpt><trkpt lat="43.52394" lon="12.45232"><ele>686.1999999999999</ele><time>2026-04-18T11:49:50.605Z</time></trkpt><trkpt lat="43.5240417" lon="12.45232"><ele>686.0</ele><time>2026-04-18T11:49:51.605Z</time></trkpt><trkpt lat="43.5241583" lon="12.45232"><ele>686.0</ele><time>2026-04-18T11:49:52.605Z</time></trkpt><trkpt lat="43.52426" lon="12.4523317"><ele>686.0</ele><time>2026-04-18T11:49:53.604Z</time></trkpt><trkpt lat="43.5243483" lon="12.4523733"><ele>686.0</ele><time>2026-04-18T11:49:54.605Z</time></trkpt><trkpt lat="43.524415" lon="12.452395"><ele>686.0</ele><time>2026-04-18T11:49:55.605Z</time></trkpt><trkpt lat="43.5244733" lon="12.4524433"><ele>686.0</ele><time>2026-04-18T11:49:56.605Z</time></trkpt><trkpt lat="43.5245183" lon="12.45253"><ele>686.0</ele><time>2026-04-18T11:49:57.605Z</time></trkpt><trkpt lat="43.524545" lon="12.4526283"><ele>686.0</ele><time>2026-04-18T11:49:58.605Z</time></trkpt><trkpt lat="43.524555" lon="12.45273"><ele>686.0</ele><time>2026-04-18T11:49:59.605Z</time></trkpt><trkpt lat="43.5245483" lon="12.4528333"><ele>686.0</ele><time>2026-04-18T11:50:00.605Z</time></trkpt><trkpt lat="43.5245367" lon="12.45293"><ele>686.0</ele><time>2026-04-18T11:50:01.605Z</time></trkpt><trkpt lat="43.5245467" lon="12.45303"><ele>686.0</ele><time>2026-04-18T11:50:02.605Z</time></trkpt><trkpt lat="43.5245783" lon="12.4531083"><ele>686.0</ele><time>2026-04-18T11:50:03.605Z</time></trkpt><trkpt lat="43.5246333" lon="12.45318"><ele>686.0</ele><time>2026-04-18T11:50:04.605Z</time></trkpt><trkpt lat="43.524695" lon="12.4532583"><ele>685.6666666666666</ele><time>2026-04-18T11:50:05.605Z</time></trkpt><trkpt lat="43.5247483" lon="12.4533433"><ele>685.3333333333333</ele><time>2026-04-18T11:50:06.605Z</time></trkpt><trkpt lat="43.5247933" lon="12.4534433"><ele>685.0</ele><time>2026-04-18T11:50:07.605Z</time></trkpt><trkpt lat="43.5248267" lon="12.453545"><ele>684.6666666666666</ele><time>2026-04-18T11:50:08.605Z</time></trkpt><trkpt lat="43.5248383" lon="12.4536433"><ele>684.3333333333334</ele><time>2026-04-18T11:50:09.605Z</time></trkpt><trkpt lat="43.524845" lon="12.4537433"><ele>684.0</ele><time>2026-04-18T11:50:10.605Z</time></trkpt><trkpt lat="43.5248383" lon="12.4538483"><ele>685.5</ele><time>2026-04-18T11:50:11.605Z</time></trkpt><trkpt lat="43.52482" lon="12.4539417"><ele>687.0</ele><time>2026-04-18T11:50:12.605Z</time></trkpt><trkpt lat="43.5248083" lon="12.4540417"><ele>688.5</ele><time>2026-04-18T11:50:13.605Z</time></trkpt><trkpt lat="43.52481" lon="12.4541433"><ele>690.0</ele><time>2026-04-18T11:50:14.605Z</time></trkpt><trkpt lat="43.52481" lon="12.4542783"><ele>691.5</ele><time>2026-04-18T11:50:16.605Z</time></trkpt><trkpt lat="43.5249117" lon="12.4542667"><ele>693.0</ele><time>2026-04-18T11:50:22.605Z</time></trkpt><trkpt lat="43.5249917" lon="12.4541817"><ele>693.0</ele><time>2026-04-18T11:50:24.605Z</time></trkpt><trkpt lat="43.5251233" lon="12.4541"><ele>693.0</ele><time>2026-04-18T11:50:26.605Z</time></trkpt><trkpt lat="43.5252083" lon="12.45407"><ele>693.0</ele><time>2026-04-18T11:50:27.605Z</time></trkpt><trkpt lat="43.5252817" lon="12.4540517"><ele>693.0</ele><time>2026-04-18T11:50:28.605Z</time></trkpt><trkpt lat="43.5253767" lon="12.4540567"><ele>693.0</ele><time>2026-04-18T11:50:30.605Z</time></trkpt><trkpt lat="43.5254733" lon="12.45412"><ele>693.8</ele><time>2026-04-18T11:50:32.605Z</time></trkpt><trkpt lat="43.52554" lon="12.4542617"><ele>694.5999999999999</ele><time>2026-04-18T11:50:34.605Z</time></trkpt><trkpt lat="43.5256217" lon="12.4543517"><ele>695.4000000000001</ele><time>2026-04-18T11:50:36.605Z</time></trkpt><trkpt lat="43.5257217" lon="12.4543217"><ele>696.2</ele><time>2026-04-18T11:50:38.605Z</time></trkpt><trkpt lat="43.5257833" lon="12.45426"><ele>697.0</ele><time>2026-04-18T11:50:39.605Z</time></trkpt><trkpt lat="43.5258633" lon="12.4541933"><ele>697.0</ele><time>2026-04-18T11:50:40.605Z</time></trkpt><trkpt lat="43.52595" lon="12.4541183"><ele>697.0</ele><time>2026-04-18T11:50:41.605Z</time></trkpt><trkpt lat="43.52604" lon="12.45403"><ele>697.0</ele><time>2026-04-18T11:50:42.605Z</time></trkpt><trkpt lat="43.52611" lon="12.4539367"><ele>697.0</ele><time>2026-04-18T11:50:43.605Z</time></trkpt><trkpt lat="43.5261717" lon="12.4538483"><ele>697.0</ele><time>2026-04-18T11:50:44.605Z</time></trkpt><trkpt lat="43.5262367" lon="12.4537567"><ele>698.4000000000001</ele><time>2026-04-18T11:50:45.605Z</time></trkpt><trkpt lat="43.5262833" lon="12.4536567"><ele>699.8000000000001</ele><time>2026-04-18T11:50:46.605Z</time></trkpt><trkpt lat="43.526325" lon="12.453545"><ele>701.2</ele><time>2026-04-18T11:50:47.605Z</time></trkpt><trkpt lat="43.5263467" lon="12.453425"><ele>702.6</ele><time>2026-04-18T11:50:48.605Z</time></trkpt><trkpt lat="43.5263733" lon="12.4532967"><ele>704.0</ele><time>2026-04-18T11:50:49.605Z</time></trkpt><trkpt lat="43.5264133" lon="12.4531817"><ele>704.0</ele><time>2026-04-18T11:50:50.605Z</time></trkpt><trkpt lat="43.5264517" lon="12.45307"><ele>704.0</ele><time>2026-04-18T11:50:51.605Z</time></trkpt><trkpt lat="43.5264967" lon="12.4529783"><ele>704.0</ele><time>2026-04-18T11:50:52.605Z</time></trkpt><trkpt lat="43.5265433" lon="12.4529133"><ele>704.0</ele><time>2026-04-18T11:50:53.605Z</time></trkpt><trkpt lat="43.526655" lon="12.4528533"><ele>704.0</ele><time>2026-04-18T11:50:55.605Z</time></trkpt><trkpt lat="43.5267217" lon="12.45285"><ele>704.0</ele><time>2026-04-18T11:50:56.605Z</time></trkpt><trkpt lat="43.5267917" lon="12.452845"><ele>703.0</ele><time>2026-04-18T11:50:57.605Z</time></trkpt><trkpt lat="43.526895" lon="12.4528333"><ele>702.0</ele><time>2026-04-18T11:50:59.605Z</time></trkpt><trkpt lat="43.52699" lon="12.45276"><ele>701.0</ele><time>2026-04-18T11:51:01.605Z</time></trkpt><trkpt lat="43.5270417" lon="12.4526933"><ele>700.0</ele><time>2026-04-18T11:51:02.605Z</time></trkpt><trkpt lat="43.52709" lon="12.4526133"><ele>699.0</ele><time>2026-04-18T11:51:03.605Z</time></trkpt><trkpt lat="43.52714" lon="12.45253"><ele>698.0</ele><time>2026-04-18T11:51:04.605Z</time></trkpt><trkpt lat="43.5271933" lon="12.45245"><ele>698.0</ele><time>2026-04-18T11:51:05.605Z</time></trkpt><trkpt lat="43.5272467" lon="12.4523717"><ele>698.0</ele><time>2026-04-18T11:51:06.605Z</time></trkpt><trkpt lat="43.5273" lon="12.4523117"><ele>698.0</ele><time>2026-04-18T11:51:07.605Z</time></trkpt><trkpt lat="43.5273633" lon="12.45224"><ele>698.0</ele><time>2026-04-18T11:51:09.605Z</time></trkpt><trkpt lat="43.5274217" lon="12.452125"><ele>698.0</ele><time>2026-04-18T11:51:50.605Z</time></trkpt><trkpt lat="43.527535" lon="12.452055"><ele>698.0</ele><time>2026-04-18T11:51:52.605Z</time></trkpt><trkpt lat="43.5276283" lon="12.452085"><ele>698.0</ele><time>2026-04-18T11:51:54.605Z</time></trkpt><trkpt lat="43.5277133" lon="12.4522183"><ele>698.0</ele><time>2026-04-18T11:51:56.605Z</time></trkpt><trkpt lat="43.5277517" lon="12.45231"><ele>698.0</ele><time>2026-04-18T11:51:57.605Z</time></trkpt><trkpt lat="43.52778" lon="12.4524"><ele>698.0</ele><time>2026-04-18T11:51:58.605Z</time></trkpt><trkpt lat="43.5277967" lon="12.45249"><ele>698.0</ele><time>2026-04-18T11:51:59.605Z</time></trkpt><trkpt lat="43.5277967" lon="12.4525983"><ele>698.0</ele><time>2026-04-18T11:52:00.605Z</time></trkpt><trkpt lat="43.5278033" lon="12.4527167"><ele>698.0</ele><time>2026-04-18T11:52:01.605Z</time></trkpt><trkpt lat="43.527805" lon="12.4528567"><ele>698.0</ele><time>2026-04-18T11:52:02.605Z</time></trkpt><trkpt lat="43.527805" lon="12.452995"><ele>698.0</ele><time>2026-04-18T11:52:03.605Z</time></trkpt><trkpt lat="43.5278" lon="12.4531317"><ele>698.0</ele><time>2026-04-18T11:52:04.605Z</time></trkpt><trkpt lat="43.5278017" lon="12.4532567"><ele>697.1666666666666</ele><time>2026-04-18T11:52:05.605Z</time></trkpt><trkpt lat="43.5278067" lon="12.4533833"><ele>696.3333333333333</ele><time>2026-04-18T11:52:06.605Z</time></trkpt><trkpt lat="43.5278267" lon="12.4534983"><ele>695.5</ele><time>2026-04-18T11:52:07.605Z</time></trkpt><trkpt lat="43.52786" lon="12.453595"><ele>694.6666666666666</ele><time>2026-04-18T11:52:08.605Z</time></trkpt><trkpt lat="43.527905" lon="12.45367"><ele>693.8333333333334</ele><time>2026-04-18T11:52:09.605Z</time></trkpt><trkpt lat="43.5279583" lon="12.4537267"><ele>693.0</ele><time>2026-04-18T11:52:10.605Z</time></trkpt><trkpt lat="43.5280117" lon="12.4537883"><ele>694.8333333333334</ele><time>2026-04-18T11:52:11.605Z</time></trkpt><trkpt lat="43.52807" lon="12.45385"><ele>696.6666666666666</ele><time>2026-04-18T11:52:12.605Z</time></trkpt><trkpt lat="43.5281333" lon="12.45391"><ele>698.5</ele><time>2026-04-18T11:52:13.604Z</time></trkpt><trkpt lat="43.5282017" lon="12.45394"><ele>700.3333333333333</ele><time>2026-04-18T11:52:14.604Z</time></trkpt><trkpt lat="43.52827" lon="12.4539417"><ele>702.1666666666666</ele><time>2026-04-18T11:52:15.604Z</time></trkpt><trkpt lat="43.528345" lon="12.4539217"><ele>704.0</ele><time>2026-04-18T11:52:16.604Z</time></trkpt><trkpt lat="43.528435" lon="12.45392"><ele>704.0</ele><time>2026-04-18T11:52:17.604Z</time></trkpt><trkpt lat="43.5285367" lon="12.45393"><ele>704.0</ele><time>2026-04-18T11:52:18.604Z</time></trkpt><trkpt lat="43.52864" lon="12.4539417"><ele>704.0</ele><time>2026-04-18T11:52:19.604Z</time></trkpt><trkpt lat="43.5287217" lon="12.453945"><ele>704.0</ele><time>2026-04-18T11:52:20.604Z</time></trkpt><trkpt lat="43.5287967" lon="12.4539317"><ele>704.0</ele><time>2026-04-18T11:52:21.604Z</time></trkpt><trkpt lat="43.5288967" lon="12.4538667"><ele>704.2857142857143</ele><time>2026-04-18T11:52:23.604Z</time></trkpt><trkpt lat="43.5289517" lon="12.4538233"><ele>704.5714285714286</ele><time>2026-04-18T11:52:24.604Z</time></trkpt><trkpt lat="43.52901" lon="12.453765"><ele>704.8571428571429</ele><time>2026-04-18T11:52:25.604Z</time></trkpt><trkpt lat="43.5290783" lon="12.4537233"><ele>705.1428571428571</ele><time>2026-04-18T11:52:26.604Z</time></trkpt><trkpt lat="43.52915" lon="12.4537083"><ele>705.4285714285714</ele><time>2026-04-18T11:52:27.604Z</time></trkpt><trkpt lat="43.529215" lon="12.453715"><ele>705.7142857142857</ele><time>2026-04-18T11:52:28.604Z</time></trkpt><trkpt lat="43.5292917" lon="12.45374"><ele>706.0</ele><time>2026-04-18T11:52:29.604Z</time></trkpt><trkpt lat="43.52938" lon="12.45376"><ele>703.8</ele><time>2026-04-18T11:52:30.604Z</time></trkpt><trkpt lat="43.5294667" lon="12.4537667"><ele>701.5999999999999</ele><time>2026-04-18T11:52:31.604Z</time></trkpt><trkpt lat="43.5295617" lon="12.4537433"><ele>699.4</ele><time>2026-04-18T11:52:32.604Z</time></trkpt><trkpt lat="43.5296583" lon="12.4536983"><ele>697.2</ele><time>2026-04-18T11:52:33.604Z</time></trkpt><trkpt lat="43.5297517" lon="12.4536617"><ele>695.0</ele><time>2026-04-18T11:52:34.604Z</time></trkpt><trkpt lat="43.52985" lon="12.4536183"><ele>695.0</ele><time>2026-04-18T11:52:35.604Z</time></trkpt><trkpt lat="43.529955" lon="12.453575"><ele>695.0</ele><time>2026-04-18T11:52:36.604Z</time></trkpt><trkpt lat="43.5300517" lon="12.45353"><ele>695.0</ele><time>2026-04-18T11:52:37.604Z</time></trkpt><trkpt lat="43.5301317" lon="12.4534817"><ele>695.0</ele><time>2026-04-18T11:52:38.604Z</time></trkpt><trkpt lat="43.53021" lon="12.4534467"><ele>695.0</ele><time>2026-04-18T11:52:39.604Z</time></trkpt><trkpt lat="43.530285" lon="12.4534083"><ele>695.0</ele><time>2026-04-18T11:52:40.604Z</time></trkpt><trkpt lat="43.5303867" lon="12.4534083"><ele>695.0</ele><time>2026-04-18T11:52:42.604Z</time></trkpt><trkpt lat="43.5304767" lon="12.4535033"><ele>695.0</ele><time>2026-04-18T11:52:44.604Z</time></trkpt><trkpt lat="43.53048" lon="12.45364"><ele>695.0</ele><time>2026-04-18T11:52:46.604Z</time></trkpt><trkpt lat="43.5303967" lon="12.453755"><ele>695.0</ele><time>2026-04-18T11:52:48.604Z</time></trkpt><trkpt lat="43.530345" lon="12.4538383"><ele>696.8333333333333</ele><time>2026-04-18T11:52:49.604Z</time></trkpt><trkpt lat="43.5303167" lon="12.4539217"><ele>698.6666666666666</ele><time>2026-04-18T11:52:50.604Z</time></trkpt><trkpt lat="43.5303033" lon="12.454015"><ele>700.5</ele><time>2026-04-18T11:52:51.604Z</time></trkpt><trkpt lat="43.5302983" lon="12.4541233"><ele>702.3333333333334</ele><time>2026-04-18T11:52:52.604Z</time></trkpt><trkpt lat="43.53031" lon="12.4542467"><ele>704.1666666666667</ele><time>2026-04-18T11:52:53.604Z</time></trkpt><trkpt lat="43.53031" lon="12.454375"><ele>706.0</ele><time>2026-04-18T11:52:54.604Z</time></trkpt><trkpt lat="43.5302917" lon="12.4545033"><ele>706.0</ele><time>2026-04-18T11:52:55.604Z</time></trkpt><trkpt lat="43.5302633" lon="12.4546167"><ele>706.0</ele><time>2026-04-18T11:52:56.604Z</time></trkpt><trkpt lat="43.5302183" lon="12.4547383"><ele>706.0</ele><time>2026-04-18T11:52:57.604Z</time></trkpt><trkpt lat="43.5301833" lon="12.454865"><ele>706.0</ele><time>2026-04-18T11:52:58.604Z</time></trkpt><trkpt lat="43.5301567" lon="12.4549883"><ele>706.0</ele><time>2026-04-18T11:52:59.604Z</time></trkpt><trkpt lat="43.5301517" lon="12.455115"><ele>707.0</ele><time>2026-04-18T11:53:00.604Z</time></trkpt><trkpt lat="43.5301467" lon="12.455245"><ele>708.0</ele><time>2026-04-18T11:53:01.604Z</time></trkpt><trkpt lat="43.5301533" lon="12.455375"><ele>709.0</ele><time>2026-04-18T11:53:02.604Z</time></trkpt><trkpt lat="43.53017" lon="12.4555067"><ele>710.0</ele><time>2026-04-18T11:53:03.604Z</time></trkpt><trkpt lat="43.5302017" lon="12.45564"><ele>711.0</ele><time>2026-04-18T11:53:04.604Z</time></trkpt><trkpt lat="43.530235" lon="12.4557733"><ele>712.0</ele><time>2026-04-18T11:53:05.604Z</time></trkpt><trkpt lat="43.5302633" lon="12.45592"><ele>713.0</ele><time>2026-04-18T11:53:06.604Z</time></trkpt><trkpt lat="43.530285" lon="12.4560567"><ele>714.0</ele><time>2026-04-18T11:53:07.604Z</time></trkpt><trkpt lat="43.5303183" lon="12.456185"><ele>715.0</ele><time>2026-04-18T11:53:08.604Z</time></trkpt><trkpt lat="43.53035" lon="12.4563183"><ele>716.0</ele><time>2026-04-18T11:53:09.604Z</time></trkpt><trkpt lat="43.5303733" lon="12.4564633"><ele>717.1999999999999</ele><time>2026-04-18T11:53:10.604Z</time></trkpt><trkpt lat="43.5304" lon="12.456605"><ele>718.4</ele><time>2026-04-18T11:53:11.603Z</time></trkpt><trkpt lat="43.530425" lon="12.4567467"><ele>719.6</ele><time>2026-04-18T11:53:12.604Z</time></trkpt><trkpt lat="43.530445" lon="12.4568783"><ele>720.8</ele><time>2026-04-18T11:53:13.604Z</time></trkpt><trkpt lat="43.5304483" lon="12.4569933"><ele>722.0</ele><time>2026-04-18T11:53:14.604Z</time></trkpt><trkpt lat="43.53043" lon="12.457085"><ele>721.6666666666666</ele><time>2026-04-18T11:53:15.604Z</time></trkpt><trkpt lat="43.5303933" lon="12.4571717"><ele>721.3333333333333</ele><time>2026-04-18T11:53:16.604Z</time></trkpt><trkpt lat="43.5303417" lon="12.4572533"><ele>721.0</ele><time>2026-04-18T11:53:17.604Z</time></trkpt><trkpt lat="43.5302883" lon="12.4573333"><ele>720.6666666666666</ele><time>2026-04-18T11:53:18.604Z</time></trkpt><trkpt lat="43.5302333" lon="12.4574067"><ele>720.3333333333334</ele><time>2026-04-18T11:53:19.604Z</time></trkpt><trkpt lat="43.5301733" lon="12.4574683"><ele>720.0</ele><time>2026-04-18T11:53:20.604Z</time></trkpt><trkpt lat="43.530105" lon="12.4575083"><ele>721.8</ele><time>2026-04-18T11:53:21.604Z</time></trkpt><trkpt lat="43.5300283" lon="12.4575467"><ele>723.6</ele><time>2026-04-18T11:53:22.604Z</time></trkpt><trkpt lat="43.5299433" lon="12.4575567"><ele>725.4000000000001</ele><time>2026-04-18T11:53:23.604Z</time></trkpt><trkpt lat="43.5298517" lon="12.4575533"><ele>727.2</ele><time>2026-04-18T11:53:24.604Z</time></trkpt><trkpt lat="43.5297483" lon="12.457555"><ele>729.0</ele><time>2026-04-18T11:53:25.604Z</time></trkpt><trkpt lat="43.52965" lon="12.4575533"><ele>731.5</ele><time>2026-04-18T11:53:26.604Z</time></trkpt><trkpt lat="43.5295567" lon="12.4575817"><ele>734.0</ele><time>2026-04-18T11:53:27.604Z</time></trkpt><trkpt lat="43.5294767" lon="12.45762"><ele>736.5</ele><time>2026-04-18T11:53:28.604Z</time></trkpt><trkpt lat="43.529405" lon="12.4576733"><ele>739.0</ele><time>2026-04-18T11:53:29.604Z</time></trkpt><trkpt lat="43.5293433" lon="12.45774"><ele>741.5</ele><time>2026-04-18T11:53:30.604Z</time></trkpt><trkpt lat="43.529285" lon="12.4578183"><ele>744.0</ele><time>2026-04-18T11:53:31.604Z</time></trkpt><trkpt lat="43.5292283" lon="12.457915"><ele>741.5</ele><time>2026-04-18T11:53:32.604Z</time></trkpt><trkpt lat="43.5291833" lon="12.4579917"><ele>739.0</ele><time>2026-04-18T11:53:33.604Z</time></trkpt><trkpt lat="43.5291517" lon="12.4580883"><ele>736.5</ele><time>2026-04-18T11:53:34.604Z</time></trkpt><trkpt lat="43.5291367" lon="12.4581917"><ele>734.0</ele><time>2026-04-18T11:53:35.604Z</time></trkpt><trkpt lat="43.5291383" lon="12.4583033"><ele>731.5</ele><time>2026-04-18T11:53:36.604Z</time></trkpt><trkpt lat="43.5291533" lon="12.4584033"><ele>729.0</ele><time>2026-04-18T11:53:37.603Z</time></trkpt><trkpt lat="43.5291883" lon="12.458505"><ele>729.0</ele><time>2026-04-18T11:53:38.604Z</time></trkpt><trkpt lat="43.52925" lon="12.4585883"><ele>729.0</ele><time>2026-04-18T11:53:39.604Z</time></trkpt><trkpt lat="43.52931" lon="12.4586683"><ele>729.0</ele><time>2026-04-18T11:53:40.604Z</time></trkpt><trkpt lat="43.529345" lon="12.4587567"><ele>729.0</ele><time>2026-04-18T11:53:41.604Z</time></trkpt><trkpt lat="43.5293633" lon="12.4588517"><ele>729.0</ele><time>2026-04-18T11:53:42.604Z</time></trkpt><trkpt lat="43.5293567" lon="12.4589667"><ele>729.0</ele><time>2026-04-18T11:53:43.604Z</time></trkpt><trkpt lat="43.5293367" lon="12.4591083"><ele>728.0</ele><time>2026-04-18T11:53:44.604Z</time></trkpt><trkpt lat="43.529315" lon="12.4592467"><ele>727.0</ele><time>2026-04-18T11:53:45.604Z</time></trkpt><trkpt lat="43.5292967" lon="12.459365"><ele>726.0</ele><time>2026-04-18T11:53:46.604Z</time></trkpt><trkpt lat="43.5292883" lon="12.4594517"><ele>725.0</ele><time>2026-04-18T11:53:47.604Z</time></trkpt><trkpt lat="43.529225" lon="12.4595967"><ele>724.0</ele><time>2026-04-18T11:53:49.604Z</time></trkpt><trkpt lat="43.5291567" lon="12.4596317"><ele>723.0</ele><time>2026-04-18T11:53:50.604Z</time></trkpt><trkpt lat="43.5290583" lon="12.459645"><ele>722.4</ele><time>2026-04-18T11:53:51.604Z</time></trkpt><trkpt lat="43.5289583" lon="12.45967"><ele>721.8</ele><time>2026-04-18T11:53:52.604Z</time></trkpt><trkpt lat="43.5288633" lon="12.459685"><ele>721.2</ele><time>2026-04-18T11:53:53.604Z</time></trkpt><trkpt lat="43.5287733" lon="12.459685"><ele>720.6</ele><time>2026-04-18T11:53:54.604Z</time></trkpt><trkpt lat="43.5286933" lon="12.4597117"><ele>720.0</ele><time>2026-04-18T11:53:55.604Z</time></trkpt><trkpt lat="43.52861" lon="12.4597683"><ele>720.0</ele><time>2026-04-18T11:53:56.604Z</time></trkpt><trkpt lat="43.52854" lon="12.4598217"><ele>720.0</ele><time>2026-04-18T11:53:57.604Z</time></trkpt><trkpt lat="43.528475" lon="12.4598667"><ele>720.0</ele><time>2026-04-18T11:53:58.604Z</time></trkpt><trkpt lat="43.5284167" lon="12.4599233"><ele>720.0</ele><time>2026-04-18T11:53:59.604Z</time></trkpt><trkpt lat="43.528365" lon="12.459985"><ele>720.0</ele><time>2026-04-18T11:54:00.604Z</time></trkpt><trkpt lat="43.528305" lon="12.460145"><ele>720.0</ele><time>2026-04-18T11:54:02.604Z</time></trkpt><trkpt lat="43.5282817" lon="12.4602517"><ele>720.0</ele><time>2026-04-18T11:54:03.604Z</time></trkpt><trkpt lat="43.5282483" lon="12.46035"><ele>720.0</ele><time>2026-04-18T11:54:04.604Z</time></trkpt><trkpt lat="43.5281933" lon="12.460425"><ele>720.0</ele><time>2026-04-18T11:54:05.604Z</time></trkpt><trkpt lat="43.52812" lon="12.46049"><ele>720.0</ele><time>2026-04-18T11:54:06.603Z</time></trkpt><trkpt lat="43.5280317" lon="12.46054"><ele>720.0</ele><time>2026-04-18T11:54:07.604Z</time></trkpt><trkpt lat="43.5279367" lon="12.460565"><ele>720.0</ele><time>2026-04-18T11:54:08.604Z</time></trkpt><trkpt lat="43.5278383" lon="12.4606"><ele>717.8</ele><time>2026-04-18T11:54:09.604Z</time></trkpt><trkpt lat="43.52774" lon="12.460645"><ele>715.6</ele><time>2026-04-18T11:54:10.604Z</time></trkpt><trkpt lat="43.52765" lon="12.460685"><ele>713.4000000000001</ele><time>2026-04-18T11:54:11.604Z</time></trkpt><trkpt lat="43.52757" lon="12.4607283"><ele>711.2</ele><time>2026-04-18T11:54:12.604Z</time></trkpt><trkpt lat="43.5275033" lon="12.4607717"><ele>709.0</ele><time>2026-04-18T11:54:13.604Z</time></trkpt><trkpt lat="43.5273933" lon="12.4608683"><ele>709.0</ele><time>2026-04-18T11:54:15.604Z</time></trkpt><trkpt lat="43.5273233" lon="12.4610017"><ele>709.0</ele><time>2026-04-18T11:54:17.604Z</time></trkpt><trkpt lat="43.5273167" lon="12.4610933"><ele>709.0</ele><time>2026-04-18T11:54:18.604Z</time></trkpt><trkpt lat="43.5273133" lon="12.4611833"><ele>709.0</ele><time>2026-04-18T11:54:19.604Z</time></trkpt><trkpt lat="43.527325" lon="12.4612717"><ele>709.0</ele><time>2026-04-18T11:54:20.604Z</time></trkpt><trkpt lat="43.5273383" lon="12.4613683"><ele>709.0</ele><time>2026-04-18T11:54:21.604Z</time></trkpt><trkpt lat="43.5273617" lon="12.4614717"><ele>707.1666666666667</ele><time>2026-04-18T11:54:22.604Z</time></trkpt><trkpt lat="43.5273967" lon="12.461575"><ele>705.3333333333334</ele><time>2026-04-18T11:54:23.604Z</time></trkpt><trkpt lat="43.5274233" lon="12.46167"><ele>703.5</ele><time>2026-04-18T11:54:24.604Z</time></trkpt><trkpt lat="43.5274433" lon="12.46176"><ele>701.6666666666666</ele><time>2026-04-18T11:54:25.604Z</time></trkpt><trkpt lat="43.5274217" lon="12.4619233"><ele>699.8333333333333</ele><time>2026-04-18T11:54:27.603Z</time></trkpt><trkpt lat="43.5273783" lon="12.46199"><ele>698.0</ele><time>2026-04-18T11:54:28.604Z</time></trkpt><trkpt lat="43.5273" lon="12.4620267"><ele>698.0</ele><time>2026-04-18T11:54:29.604Z</time></trkpt><trkpt lat="43.5272167" lon="12.46204"><ele>698.0</ele><time>2026-04-18T11:54:30.604Z</time></trkpt><trkpt lat="43.5271267" lon="12.46206"><ele>698.0</ele><time>2026-04-18T11:54:31.604Z</time></trkpt><trkpt lat="43.5270567" lon="12.4620833"><ele>698.0</ele><time>2026-04-18T11:54:32.604Z</time></trkpt><trkpt lat="43.5270017" lon="12.4621317"><ele>698.0</ele><time>2026-04-18T11:54:33.604Z</time></trkpt><trkpt lat="43.5269533" lon="12.4622217"><ele>698.0</ele><time>2026-04-18T11:54:35.604Z</time></trkpt><trkpt lat="43.52696" lon="12.462315"><ele>699.4</ele><time>2026-04-18T11:54:36.604Z</time></trkpt><trkpt lat="43.526995" lon="12.4624167"><ele>700.8</ele><time>2026-04-18T11:54:37.604Z</time></trkpt><trkpt lat="43.5270617" lon="12.4625133"><ele>702.2</ele><time>2026-04-18T11:54:38.604Z</time></trkpt><trkpt lat="43.527145" lon="12.462605"><ele>703.6</ele><time>2026-04-18T11:54:39.604Z</time></trkpt><trkpt lat="43.5272283" lon="12.4626917"><ele>705.0</ele><time>2026-04-18T11:54:40.603Z</time></trkpt><trkpt lat="43.527295" lon="12.4627867"><ele>702.4</ele><time>2026-04-18T11:54:41.604Z</time></trkpt><trkpt lat="43.5273467" lon="12.4629"><ele>699.8</ele><time>2026-04-18T11:54:42.604Z</time></trkpt><trkpt lat="43.52738" lon="12.4630417"><ele>697.2</ele><time>2026-04-18T11:54:43.604Z</time></trkpt><trkpt lat="43.5274167" lon="12.463185"><ele>694.6</ele><time>2026-04-18T11:54:44.604Z</time></trkpt><trkpt lat="43.527445" lon="12.463305"><ele>692.0</ele><time>2026-04-18T11:54:45.604Z</time></trkpt><trkpt lat="43.52747" lon="12.46341"><ele>692.0</ele><time>2026-04-18T11:54:46.604Z</time></trkpt><trkpt lat="43.5275133" lon="12.4634933"><ele>692.0</ele><time>2026-04-18T11:54:47.604Z</time></trkpt><trkpt lat="43.52757" lon="12.463565"><ele>692.0</ele><time>2026-04-18T11:54:48.604Z</time></trkpt><trkpt lat="43.52763" lon="12.4636117"><ele>692.0</ele><time>2026-04-18T11:54:49.604Z</time></trkpt><trkpt lat="43.5276917" lon="12.4636417"><ele>692.0</ele><time>2026-04-18T11:54:50.604Z</time></trkpt><trkpt lat="43.527755" lon="12.4636533"><ele>692.0</ele><time>2026-04-18T11:54:51.603Z</time></trkpt><trkpt lat="43.5278233" lon="12.4636267"><ele>692.0</ele><time>2026-04-18T11:54:52.604Z</time></trkpt><trkpt lat="43.52789" lon="12.4635667"><ele>691.5</ele><time>2026-04-18T11:54:53.604Z</time></trkpt><trkpt lat="43.5279583" lon="12.4635167"><ele>691.0</ele><time>2026-04-18T11:54:54.604Z</time></trkpt><trkpt lat="43.5280733" lon="12.46351"><ele>690.5</ele><time>2026-04-18T11:54:56.604Z</time></trkpt><trkpt lat="43.5281267" lon="12.4635683"><ele>690.0</ele><time>2026-04-18T11:54:57.604Z</time></trkpt><trkpt lat="43.5281583" lon="12.463645"><ele>689.5</ele><time>2026-04-18T11:54:58.604Z</time></trkpt><trkpt lat="43.52819" lon="12.4637233"><ele>689.0</ele><time>2026-04-18T11:54:59.604Z</time></trkpt><trkpt lat="43.5281867" lon="12.46391"><ele>690.5</ele><time>2026-04-18T11:55:01.604Z</time></trkpt><trkpt lat="43.5281617" lon="12.4640183"><ele>692.0</ele><time>2026-04-18T11:55:02.604Z</time></trkpt><trkpt lat="43.5281183" lon="12.4641267"><ele>693.5</ele><time>2026-04-18T11:55:03.604Z</time></trkpt><trkpt lat="43.5280767" lon="12.4642367"><ele>695.0</ele><time>2026-04-18T11:55:04.604Z</time></trkpt><trkpt lat="43.528045" lon="12.46436"><ele>696.5</ele><time>2026-04-18T11:55:05.604Z</time></trkpt><trkpt lat="43.5280217" lon="12.4644767"><ele>698.0</ele><time>2026-04-18T11:55:06.604Z</time></trkpt><trkpt lat="43.52801" lon="12.4645917"><ele>699.3333333333333</ele><time>2026-04-18T11:55:07.604Z</time></trkpt><trkpt lat="43.5280117" lon="12.4646867"><ele>700.6666666666666</ele><time>2026-04-18T11:55:08.604Z</time></trkpt><trkpt lat="43.5280183" lon="12.4647817"><ele>702.0</ele><time>2026-04-18T11:55:09.604Z</time></trkpt><trkpt lat="43.5280333" lon="12.4648817"><ele>703.3333333333334</ele><time>2026-04-18T11:55:10.604Z</time></trkpt><trkpt lat="43.5280583" lon="12.464985"><ele>704.6666666666667</ele><time>2026-04-18T11:55:11.604Z</time></trkpt><trkpt lat="43.528065" lon="12.4651"><ele>706.0</ele><time>2026-04-18T11:55:12.604Z</time></trkpt><trkpt lat="43.5280633" lon="12.4652133"><ele>706.0</ele><time>2026-04-18T11:55:13.604Z</time></trkpt><trkpt lat="43.5280483" lon="12.4653317"><ele>706.0</ele><time>2026-04-18T11:55:14.604Z</time></trkpt><trkpt lat="43.5280367" lon="12.46545"><ele>706.0</ele><time>2026-04-18T11:55:15.604Z</time></trkpt><trkpt lat="43.5280267" lon="12.4655767"><ele>706.0</ele><time>2026-04-18T11:55:16.604Z</time></trkpt><trkpt lat="43.528015" lon="12.465705"><ele>706.0</ele><time>2026-04-18T11:55:17.604Z</time></trkpt><trkpt lat="43.5279933" lon="12.4658233"><ele>706.0</ele><time>2026-04-18T11:55:18.604Z</time></trkpt><trkpt lat="43.5279733" lon="12.465925"><ele>707.3333333333334</ele><time>2026-04-18T11:55:19.604Z</time></trkpt><trkpt lat="43.5279483" lon="12.46604"><ele>708.6666666666667</ele><time>2026-04-18T11:55:20.604Z</time></trkpt><trkpt lat="43.5279217" lon="12.46615"><ele>710.0</ele><time>2026-04-18T11:55:21.604Z</time></trkpt><trkpt lat="43.5279133" lon="12.4662467"><ele>711.3333333333334</ele><time>2026-04-18T11:55:22.604Z</time></trkpt><trkpt lat="43.5279083" lon="12.4663333"><ele>712.6666666666666</ele><time>2026-04-18T11:55:23.604Z</time></trkpt><trkpt lat="43.5279233" lon="12.466445"><ele>714.0</ele><time>2026-04-18T11:55:24.604Z</time></trkpt><trkpt lat="43.5279367" lon="12.4665467"><ele>714.8000000000001</ele><time>2026-04-18T11:55:25.604Z</time></trkpt><trkpt lat="43.5279733" lon="12.466675"><ele>715.6</ele><time>2026-04-18T11:55:27.604Z</time></trkpt><trkpt lat="43.5280617" lon="12.466815"><ele>716.4</ele><time>2026-04-18T11:55:29.604Z</time></trkpt><trkpt lat="43.52812" lon="12.46691"><ele>717.2</ele><time>2026-04-18T11:55:30.603Z</time></trkpt><trkpt lat="43.5281867" lon="12.4670167"><ele>718.0</ele><time>2026-04-18T11:55:31.604Z</time></trkpt><trkpt lat="43.5282633" lon="12.467125"><ele>721.4</ele><time>2026-04-18T11:55:32.604Z</time></trkpt><trkpt lat="43.5283283" lon="12.4672283"><ele>724.8</ele><time>2026-04-18T11:55:33.604Z</time></trkpt><trkpt lat="43.52838" lon="12.467345"><ele>728.2</ele><time>2026-04-18T11:55:34.604Z</time></trkpt><trkpt lat="43.528435" lon="12.4674483"><ele>731.6</ele><time>2026-04-18T11:55:35.604Z</time></trkpt><trkpt lat="43.5284817" lon="12.4675717"><ele>735.0</ele><time>2026-04-18T11:55:36.604Z</time></trkpt><trkpt lat="43.5285233" lon="12.4676917"><ele>735.0</ele><time>2026-04-18T11:55:37.604Z</time></trkpt><trkpt lat="43.5285633" lon="12.4677983"><ele>735.0</ele><time>2026-04-18T11:55:38.604Z</time></trkpt><trkpt lat="43.5286017" lon="12.4678783"><ele>735.0</ele><time>2026-04-18T11:55:39.604Z</time></trkpt><trkpt lat="43.5286467" lon="12.4679517"><ele>735.0</ele><time>2026-04-18T11:55:40.604Z</time></trkpt><trkpt lat="43.52871" lon="12.468015"><ele>735.0</ele><time>2026-04-18T11:55:41.604Z</time></trkpt><trkpt lat="43.52878" lon="12.468055"><ele>735.0</ele><time>2026-04-18T11:55:42.604Z</time></trkpt><trkpt lat="43.5288483" lon="12.4680783"><ele>735.6666666666666</ele><time>2026-04-18T11:55:43.604Z</time></trkpt><trkpt lat="43.5289233" lon="12.468075"><ele>736.3333333333334</ele><time>2026-04-18T11:55:44.604Z</time></trkpt><trkpt lat="43.5290033" lon="12.4680333"><ele>737.0</ele><time>2026-04-18T11:55:45.604Z</time></trkpt><trkpt lat="43.5290733" lon="12.4679617"><ele>737.6666666666667</ele><time>2026-04-18T11:55:46.604Z</time></trkpt><trkpt lat="43.5291483" lon="12.467895"><ele>738.3333333333334</ele><time>2026-04-18T11:55:47.604Z</time></trkpt><trkpt lat="43.529225" lon="12.4678467"><ele>739.0</ele><time>2026-04-18T11:55:48.604Z</time></trkpt><trkpt lat="43.5293083" lon="12.4678217"><ele>740.1666666666667</ele><time>2026-04-18T11:55:49.604Z</time></trkpt><trkpt lat="43.5293883" lon="12.46783"><ele>741.3333333333334</ele><time>2026-04-18T11:55:50.604Z</time></trkpt><trkpt lat="43.5294633" lon="12.4678583"><ele>742.5</ele><time>2026-04-18T11:55:51.604Z</time></trkpt><trkpt lat="43.5295367" lon="12.467905"><ele>743.6666666666666</ele><time>2026-04-18T11:55:52.604Z</time></trkpt><trkpt lat="43.5296017" lon="12.4679767"><ele>744.8333333333333</ele><time>2026-04-18T11:55:53.604Z</time></trkpt><trkpt lat="43.5296717" lon="12.4680583"><ele>746.0</ele><time>2026-04-18T11:55:54.604Z</time></trkpt><trkpt lat="43.5297283" lon="12.4681533"><ele>746.0</ele><time>2026-04-18T11:55:55.604Z</time></trkpt><trkpt lat="43.5298033" lon="12.46824"><ele>746.0</ele><time>2026-04-18T11:55:56.604Z</time></trkpt><trkpt lat="43.529875" lon="12.4683083"><ele>746.0</ele><time>2026-04-18T11:55:57.604Z</time></trkpt><trkpt lat="43.5299467" lon="12.4683583"><ele>746.0</ele><time>2026-04-18T11:55:58.604Z</time></trkpt><trkpt lat="43.530015" lon="12.468395"><ele>746.0</ele><time>2026-04-18T11:55:59.604Z</time></trkpt><trkpt lat="43.5300883" lon="12.4684117"><ele>746.0</ele><time>2026-04-18T11:56:00.604Z</time></trkpt><trkpt lat="43.530155" lon="12.4684217"><ele>746.0</ele><time>2026-04-18T11:56:01.603Z</time></trkpt><trkpt lat="43.530235" lon="12.46838"><ele>746.0</ele><time>2026-04-18T11:56:03.604Z</time></trkpt><trkpt lat="43.5302917" lon="12.4683333"><ele>746.0</ele><time>2026-04-18T11:56:04.604Z</time></trkpt><trkpt lat="43.5303483" lon="12.4682733"><ele>746.0</ele><time>2026-04-18T11:56:05.604Z</time></trkpt><trkpt lat="43.530405" lon="12.468205"><ele>746.0</ele><time>2026-04-18T11:56:06.604Z</time></trkpt><trkpt lat="43.5304683" lon="12.4681217"><ele>746.0</ele><time>2026-04-18T11:56:07.604Z</time></trkpt><trkpt lat="43.530545" lon="12.4680167"><ele>745.5</ele><time>2026-04-18T11:56:08.604Z</time></trkpt><trkpt lat="43.530615" lon="12.467935"><ele>745.0</ele><time>2026-04-18T11:56:09.604Z</time></trkpt><trkpt lat="43.5306867" lon="12.46786"><ele>744.5</ele><time>2026-04-18T11:56:10.604Z</time></trkpt><trkpt lat="43.5307517" lon="12.4678133"><ele>744.0</ele><time>2026-04-18T11:56:11.604Z</time></trkpt><trkpt lat="43.53082" lon="12.467775"><ele>743.5</ele><time>2026-04-18T11:56:12.604Z</time></trkpt><trkpt lat="43.5309067" lon="12.4677317"><ele>743.0</ele><time>2026-04-18T11:56:13.604Z</time></trkpt><trkpt lat="43.5309833" lon="12.4676583"><ele>743.0</ele><time>2026-04-18T11:56:14.604Z</time></trkpt><trkpt lat="43.5310567" lon="12.4675883"><ele>743.0</ele><time>2026-04-18T11:56:15.604Z</time></trkpt><trkpt lat="43.5311217" lon="12.4674767"><ele>743.0</ele><time>2026-04-18T11:56:16.604Z</time></trkpt><trkpt lat="43.5311783" lon="12.4673583"><ele>743.0</ele><time>2026-04-18T11:56:17.604Z</time></trkpt><trkpt lat="43.5312283" lon="12.4672483"><ele>743.0</ele><time>2026-04-18T11:56:18.604Z</time></trkpt><trkpt lat="43.5312933" lon="12.4671583"><ele>743.5714285714286</ele><time>2026-04-18T11:56:19.604Z</time></trkpt><trkpt lat="43.5313367" lon="12.4670767"><ele>744.1428571428571</ele><time>2026-04-18T11:56:20.604Z</time></trkpt><trkpt lat="43.53139" lon="12.46703"><ele>744.7142857142857</ele><time>2026-04-18T11:56:21.604Z</time></trkpt><trkpt lat="43.5314567" lon="12.4669933"><ele>745.2857142857142</ele><time>2026-04-18T11:56:22.604Z</time></trkpt><trkpt lat="43.531525" lon="12.4669683"><ele>745.8571428571429</ele><time>2026-04-18T11:56:23.603Z</time></trkpt><trkpt lat="43.53159" lon="12.466945"><ele>746.4285714285713</ele><time>2026-04-18T11:56:24.604Z</time></trkpt><trkpt lat="43.5316517" lon="12.466905"><ele>747.0</ele><time>2026-04-18T11:56:25.604Z</time></trkpt><trkpt lat="43.5317133" lon="12.4668383"><ele>747.0</ele><time>2026-04-18T11:56:26.604Z</time></trkpt><trkpt lat="43.5317717" lon="12.4667717"><ele>747.0</ele><time>2026-04-18T11:56:27.604Z</time></trkpt><trkpt lat="43.531875" lon="12.4667183"><ele>747.0</ele><time>2026-04-18T11:56:29.604Z</time></trkpt><trkpt lat="43.5320033" lon="12.46677"><ele>747.0</ele><time>2026-04-18T11:56:31.604Z</time></trkpt><trkpt lat="43.532085" lon="12.4668017"><ele>747.0</ele><time>2026-04-18T11:56:32.604Z</time></trkpt><trkpt lat="43.5321883" lon="12.46684"><ele>748.25</ele><time>2026-04-18T11:56:33.604Z</time></trkpt><trkpt lat="43.532295" lon="12.4668833"><ele>749.5</ele><time>2026-04-18T11:56:34.604Z</time></trkpt><trkpt lat="43.5324" lon="12.4669333"><ele>750.75</ele><time>2026-04-18T11:56:35.604Z</time></trkpt><trkpt lat="43.5325183" lon="12.466985"><ele>752.0</ele><time>2026-04-18T11:56:36.604Z</time></trkpt><trkpt lat="43.5326317" lon="12.4670233"><ele>752.0</ele><time>2026-04-18T11:56:37.604Z</time></trkpt><trkpt lat="43.5327467" lon="12.467045"><ele>752.0</ele><time>2026-04-18T11:56:38.604Z</time></trkpt><trkpt lat="43.5328667" lon="12.4670767"><ele>752.0</ele><time>2026-04-18T11:56:39.604Z</time></trkpt><trkpt lat="43.53298" lon="12.4671133"><ele>752.0</ele><time>2026-04-18T11:56:40.604Z</time></trkpt><trkpt lat="43.53309" lon="12.4671533"><ele>755.8</ele><time>2026-04-18T11:56:41.604Z</time></trkpt><trkpt lat="43.5331983" lon="12.4671933"><ele>759.6</ele><time>2026-04-18T11:56:42.604Z</time></trkpt><trkpt lat="43.533295" lon="12.4672433"><ele>763.4</ele><time>2026-04-18T11:56:43.604Z</time></trkpt><trkpt lat="43.5333817" lon="12.4673017"><ele>767.1999999999999</ele><time>2026-04-18T11:56:44.604Z</time></trkpt><trkpt lat="43.5334517" lon="12.46736"><ele>771.0</ele><time>2026-04-18T11:56:45.604Z</time></trkpt><trkpt lat="43.53351" lon="12.4674417"><ele>771.0</ele><time>2026-04-18T11:56:46.604Z</time></trkpt><trkpt lat="43.5335617" lon="12.46754"><ele>771.0</ele><time>2026-04-18T11:56:47.604Z</time></trkpt><trkpt lat="43.5335967" lon="12.4676183"><ele>771.0</ele><time>2026-04-18T11:56:48.604Z</time></trkpt><trkpt lat="43.5336767" lon="12.4677067"><ele>771.0</ele><time>2026-04-18T11:56:50.604Z</time></trkpt><trkpt lat="43.5338033" lon="12.467685"><ele>771.0</ele><time>2026-04-18T11:56:52.604Z</time></trkpt><trkpt lat="43.533895" lon="12.46762"><ele>771.5999999999999</ele><time>2026-04-18T11:56:53.604Z</time></trkpt><trkpt lat="43.5340033" lon="12.4675383"><ele>772.2</ele><time>2026-04-18T11:56:54.604Z</time></trkpt><trkpt lat="43.53409" lon="12.4674533"><ele>772.8</ele><time>2026-04-18T11:56:55.604Z</time></trkpt><trkpt lat="43.5341783" lon="12.46738"><ele>773.4000000000001</ele><time>2026-04-18T11:56:56.604Z</time></trkpt><trkpt lat="43.5342667" lon="12.4673267"><ele>774.0</ele><time>2026-04-18T11:56:57.604Z</time></trkpt><trkpt lat="43.5343583" lon="12.4672817"><ele>774.0</ele><time>2026-04-18T11:56:58.604Z</time></trkpt><trkpt lat="43.53445" lon="12.46724"><ele>774.0</ele><time>2026-04-18T11:56:59.604Z</time></trkpt><trkpt lat="43.5345433" lon="12.467205"><ele>774.0</ele><time>2026-04-18T11:57:00.604Z</time></trkpt><trkpt lat="43.5346333" lon="12.467195"><ele>774.0</ele><time>2026-04-18T11:57:01.604Z</time></trkpt><trkpt lat="43.5347283" lon="12.4672167"><ele>774.0</ele><time>2026-04-18T11:57:02.604Z</time></trkpt><trkpt lat="43.5348133" lon="12.4672783"><ele>775.8000000000001</ele><time>2026-04-18T11:57:03.604Z</time></trkpt><trkpt lat="43.5349" lon="12.4673367"><ele>777.6</ele><time>2026-04-18T11:57:04.604Z</time></trkpt><trkpt lat="43.534985" lon="12.4674217"><ele>779.4</ele><time>2026-04-18T11:57:05.604Z</time></trkpt><trkpt lat="43.5350617" lon="12.46749"><ele>781.2</ele><time>2026-04-18T11:57:06.604Z</time></trkpt><trkpt lat="43.5351333" lon="12.467535"><ele>783.0</ele><time>2026-04-18T11:57:07.604Z</time></trkpt><trkpt lat="43.5352017" lon="12.46765"><ele>783.0</ele><time>2026-04-18T11:57:09.604Z</time></trkpt><trkpt lat="43.5351867" lon="12.4677633"><ele>783.0</ele><time>2026-04-18T11:57:11.604Z</time></trkpt><trkpt lat="43.5350867" lon="12.4678133"><ele>783.0</ele><time>2026-04-18T11:57:13.604Z</time></trkpt><trkpt lat="43.5350017" lon="12.4678167"><ele>783.0</ele><time>2026-04-18T11:57:14.604Z</time></trkpt><trkpt lat="43.5349083" lon="12.4678167"><ele>783.0</ele><time>2026-04-18T11:57:15.604Z</time></trkpt><trkpt lat="43.5348183" lon="12.467825"><ele>783.0</ele><time>2026-04-18T11:57:16.604Z</time></trkpt><trkpt lat="43.5347283" lon="12.46785"><ele>783.0</ele><time>2026-04-18T11:57:17.604Z</time></trkpt><trkpt lat="43.534645" lon="12.4678783"><ele>783.0</ele><time>2026-04-18T11:57:18.604Z</time></trkpt><trkpt lat="43.53457" lon="12.467965"><ele>783.0</ele><time>2026-04-18T11:57:20.604Z</time></trkpt><trkpt lat="43.53456" lon="12.4680733"><ele>783.0</ele><time>2026-04-18T11:57:22.604Z</time></trkpt><trkpt lat="43.53466" lon="12.4681417"><ele>786.5999999999999</ele><time>2026-04-18T11:57:24.604Z</time></trkpt><trkpt lat="43.5347267" lon="12.4681483"><ele>790.1999999999999</ele><time>2026-04-18T11:57:25.604Z</time></trkpt><trkpt lat="43.5348167" lon="12.4681617"><ele>793.8</ele><time>2026-04-18T11:57:26.604Z</time></trkpt><trkpt lat="43.534915" lon="12.46818"><ele>797.4</ele><time>2026-04-18T11:57:27.604Z</time></trkpt><trkpt lat="43.5350133" lon="12.4682217"><ele>801.0</ele><time>2026-04-18T11:57:28.604Z</time></trkpt><trkpt lat="43.5351133" lon="12.4682933"><ele>801.0</ele><time>2026-04-18T11:57:29.604Z</time></trkpt><trkpt lat="43.5352017" lon="12.4683883"><ele>801.0</ele><time>2026-04-18T11:57:30.604Z</time></trkpt><trkpt lat="43.53529" lon="12.4684967"><ele>801.0</ele><time>2026-04-18T11:57:31.604Z</time></trkpt><trkpt lat="43.535355" lon="12.46862"><ele>801.0</ele><time>2026-04-18T11:57:32.604Z</time></trkpt><trkpt lat="43.5354267" lon="12.4687433"><ele>804.5</ele><time>2026-04-18T11:57:33.604Z</time></trkpt><trkpt lat="43.5355017" lon="12.4688733"><ele>808.0</ele><time>2026-04-18T11:57:34.604Z</time></trkpt><trkpt lat="43.5355733" lon="12.469005"><ele>811.5</ele><time>2026-04-18T11:57:35.604Z</time></trkpt><trkpt lat="43.5356417" lon="12.4691217"><ele>815.0</ele><time>2026-04-18T11:57:36.604Z</time></trkpt><trkpt lat="43.535705" lon="12.4692383"><ele>815.0</ele><time>2026-04-18T11:57:37.604Z</time></trkpt><trkpt lat="43.535785" lon="12.46935"><ele>815.0</ele><time>2026-04-18T11:57:38.604Z</time></trkpt><trkpt lat="43.5358667" lon="12.46944"><ele>815.0</ele><time>2026-04-18T11:57:39.604Z</time></trkpt><trkpt lat="43.5359467" lon="12.469505"><ele>815.0</ele><time>2026-04-18T11:57:40.604Z</time></trkpt><trkpt lat="43.53603" lon="12.4695517"><ele>815.0</ele><time>2026-04-18T11:57:41.604Z</time></trkpt><trkpt lat="43.5361183" lon="12.4695833"><ele>816.8</ele><time>2026-04-18T11:57:42.604Z</time></trkpt><trkpt lat="43.5362017" lon="12.46961"><ele>818.6</ele><time>2026-04-18T11:57:43.604Z</time></trkpt><trkpt lat="43.5362917" lon="12.4696317"><ele>820.4000000000001</ele><time>2026-04-18T11:57:44.604Z</time></trkpt><trkpt lat="43.5363667" lon="12.4696267"><ele>822.2</ele><time>2026-04-18T11:57:45.604Z</time></trkpt><trkpt lat="43.536485" lon="12.4695167"><ele>824.0</ele><time>2026-04-18T11:57:47.604Z</time></trkpt><trkpt lat="43.5365717" lon="12.4694467"><ele>824.0</ele><time>2026-04-18T11:57:48.604Z</time></trkpt><trkpt lat="43.5366667" lon="12.4693717"><ele>824.0</ele><time>2026-04-18T11:57:49.604Z</time></trkpt><trkpt lat="43.536755" lon="12.4693183"><ele>824.0</ele><time>2026-04-18T11:57:50.604Z</time></trkpt><trkpt lat="43.536845" lon="12.4692767"><ele>824.0</ele><time>2026-04-18T11:57:51.604Z</time></trkpt><trkpt lat="43.536935" lon="12.4692567"><ele>824.0</ele><time>2026-04-18T11:57:52.604Z</time></trkpt><trkpt lat="43.53702" lon="12.46926"><ele>826.6</ele><time>2026-04-18T11:57:53.604Z</time></trkpt><trkpt lat="43.537115" lon="12.4692517"><ele>829.2</ele><time>2026-04-18T11:57:54.604Z</time></trkpt><trkpt lat="43.537215" lon="12.4692233"><ele>831.8000000000001</ele><time>2026-04-18T11:57:55.604Z</time></trkpt><trkpt lat="43.53731" lon="12.4691783"><ele>834.4000000000001</ele><time>2026-04-18T11:57:56.604Z</time></trkpt><trkpt lat="43.5373967" lon="12.4690917"><ele>837.0</ele><time>2026-04-18T11:57:57.604Z</time></trkpt><trkpt lat="43.5374817" lon="12.468995"><ele>837.0</ele><time>2026-04-18T11:57:58.604Z</time></trkpt><trkpt lat="43.537565" lon="12.46888"><ele>837.0</ele><time>2026-04-18T11:57:59.604Z</time></trkpt><trkpt lat="43.53764" lon="12.4687617"><ele>837.0</ele><time>2026-04-18T11:58:00.604Z</time></trkpt><trkpt lat="43.5377083" lon="12.468665"><ele>837.0</ele><time>2026-04-18T11:58:01.604Z</time></trkpt><trkpt lat="43.537775" lon="12.4685517"><ele>837.0</ele><time>2026-04-18T11:58:02.604Z</time></trkpt><trkpt lat="43.5378333" lon="12.4684567"><ele>837.6</ele><time>2026-04-18T11:58:03.604Z</time></trkpt><trkpt lat="43.53787" lon="12.4683817"><ele>838.2</ele><time>2026-04-18T11:58:04.604Z</time></trkpt><trkpt lat="43.537945" lon="12.468255"><ele>838.8</ele><time>2026-04-18T11:58:06.604Z</time></trkpt><trkpt lat="43.53802" lon="12.4681683"><ele>839.4</ele><time>2026-04-18T11:58:08.604Z</time></trkpt><trkpt lat="43.5381033" lon="12.4680817"><ele>840.0</ele><time>2026-04-18T11:59:58.603Z</time></trkpt><trkpt lat="43.5381833" lon="12.4680267"><ele>840.0</ele><time>2026-04-18T12:00:00.603Z</time></trkpt><trkpt lat="43.5382467" lon="12.4679883"><ele>840.0</ele><time>2026-04-18T12:00:01.603Z</time></trkpt><trkpt lat="43.5383217" lon="12.4679517"><ele>840.0</ele><time>2026-04-18T12:00:02.603Z</time></trkpt><trkpt lat="43.5384017" lon="12.4679033"><ele>840.0</ele><time>2026-04-18T12:00:03.603Z</time></trkpt><trkpt lat="43.5384967" lon="12.4678533"><ele>840.0</ele><time>2026-04-18T12:00:04.603Z</time></trkpt><trkpt lat="43.5385783" lon="12.4678017"><ele>840.0</ele><time>2026-04-18T12:00:05.603Z</time></trkpt><trkpt lat="43.5386517" lon="12.4677633"><ele>840.1666666666666</ele><time>2026-04-18T12:00:06.603Z</time></trkpt><trkpt lat="43.5387333" lon="12.46772"><ele>840.3333333333333</ele><time>2026-04-18T12:00:07.603Z</time></trkpt><trkpt lat="43.5388133" lon="12.46767"><ele>840.5</ele><time>2026-04-18T12:00:08.603Z</time></trkpt><trkpt lat="43.5388767" lon="12.467625"><ele>840.6666666666666</ele><time>2026-04-18T12:00:09.603Z</time></trkpt><trkpt lat="43.5389333" lon="12.46756"><ele>840.8333333333333</ele><time>2026-04-18T12:00:10.603Z</time></trkpt><trkpt lat="43.53899" lon="12.4674717"><ele>841.0</ele><time>2026-04-18T12:00:11.603Z</time></trkpt><trkpt lat="43.5390467" lon="12.4673733"><ele>841.0</ele><time>2026-04-18T12:00:12.602Z</time></trkpt><trkpt lat="43.5390883" lon="12.4672517"><ele>841.0</ele><time>2026-04-18T12:00:13.603Z</time></trkpt><trkpt lat="43.53912" lon="12.46709"><ele>841.0</ele><time>2026-04-18T12:00:14.603Z</time></trkpt><trkpt lat="43.5391783" lon="12.466755"><ele>837.0</ele><time>2026-04-18T12:00:16.603Z</time></trkpt><trkpt lat="43.5392033" lon="12.466575"><ele>833.0</ele><time>2026-04-18T12:00:17.603Z</time></trkpt><trkpt lat="43.5392333" lon="12.4664183"><ele>829.0</ele><time>2026-04-18T12:00:18.603Z</time></trkpt><trkpt lat="43.539275" lon="12.4662883"><ele>825.0</ele><time>2026-04-18T12:00:19.603Z</time></trkpt><trkpt lat="43.5393333" lon="12.4661817"><ele>825.75</ele><time>2026-04-18T12:00:20.603Z</time></trkpt><trkpt lat="43.5394067" lon="12.4660883"><ele>826.5</ele><time>2026-04-18T12:00:21.603Z</time></trkpt><trkpt lat="43.5395017" lon="12.465995"><ele>827.25</ele><time>2026-04-18T12:00:22.603Z</time></trkpt><trkpt lat="43.5396083" lon="12.4658967"><ele>828.0</ele><time>2026-04-18T12:00:23.603Z</time></trkpt><trkpt lat="43.53972" lon="12.4658017"><ele>828.0</ele><time>2026-04-18T12:00:24.603Z</time></trkpt><trkpt lat="43.539835" lon="12.46569"><ele>828.0</ele><time>2026-04-18T12:00:25.603Z</time></trkpt><trkpt lat="43.5399467" lon="12.4655683"><ele>828.0</ele><time>2026-04-18T12:00:26.603Z</time></trkpt><trkpt lat="43.5400667" lon="12.4654283"><ele>828.0</ele><time>2026-04-18T12:00:27.603Z</time></trkpt><trkpt lat="43.540185" lon="12.46529"><ele>828.25</ele><time>2026-04-18T12:00:28.603Z</time></trkpt><trkpt lat="43.5402983" lon="12.46515"><ele>828.5</ele><time>2026-04-18T12:00:29.603Z</time></trkpt><trkpt lat="43.5404083" lon="12.4650133"><ele>828.75</ele><time>2026-04-18T12:00:30.603Z</time></trkpt><trkpt lat="43.5405117" lon="12.4648817"><ele>829.0</ele><time>2026-04-18T12:00:31.602Z</time></trkpt><trkpt lat="43.5406083" lon="12.46476"><ele>829.0</ele><time>2026-04-18T12:00:32.603Z</time></trkpt><trkpt lat="43.5407017" lon="12.4646267"><ele>829.0</ele><time>2026-04-18T12:00:33.603Z</time></trkpt><trkpt lat="43.540795" lon="12.4644717"><ele>829.0</ele><time>2026-04-18T12:00:34.603Z</time></trkpt><trkpt lat="43.5408933" lon="12.464315"><ele>829.0</ele><time>2026-04-18T12:00:35.603Z</time></trkpt><trkpt lat="43.5409983" lon="12.4641683"><ele>829.25</ele><time>2026-04-18T12:00:36.603Z</time></trkpt><trkpt lat="43.541105" lon="12.4640317"><ele>829.5</ele><time>2026-04-18T12:00:37.603Z</time></trkpt><trkpt lat="43.5412183" lon="12.4638967"><ele>829.75</ele><time>2026-04-18T12:00:38.603Z</time></trkpt><trkpt lat="43.5413333" lon="12.4637717"><ele>830.0</ele><time>2026-04-18T12:00:39.603Z</time></trkpt><trkpt lat="43.5414433" lon="12.4636567"><ele>822.25</ele><time>2026-04-18T12:00:40.603Z</time></trkpt><trkpt lat="43.541545" lon="12.4635417"><ele>814.5</ele><time>2026-04-18T12:00:41.603Z</time></trkpt><trkpt lat="43.5416417" lon="12.4634133"><ele>806.75</ele><time>2026-04-18T12:00:42.603Z</time></trkpt><trkpt lat="43.5417467" lon="12.4632967"><ele>799.0</ele><time>2026-04-18T12:00:43.603Z</time></trkpt><trkpt lat="43.5418483" lon="12.4631967"><ele>799.0</ele><time>2026-04-18T12:00:44.603Z</time></trkpt><trkpt lat="43.5419433" lon="12.4631167"><ele>799.0</ele><time>2026-04-18T12:00:45.603Z</time></trkpt><trkpt lat="43.5420533" lon="12.46308"><ele>799.0</ele><time>2026-04-18T12:00:46.603Z</time></trkpt><trkpt lat="43.5421783" lon="12.463065"><ele>799.0</ele><time>2026-04-18T12:00:47.603Z</time></trkpt><trkpt lat="43.54231" lon="12.4630667"><ele>801.4000000000001</ele><time>2026-04-18T12:00:48.603Z</time></trkpt><trkpt lat="43.5424383" lon="12.4630683"><ele>803.8</ele><time>2026-04-18T12:00:49.603Z</time></trkpt><trkpt lat="43.542555" lon="12.4630717"><ele>806.2</ele><time>2026-04-18T12:00:50.603Z</time></trkpt><trkpt lat="43.5426483" lon="12.46305"><ele>808.5999999999999</ele><time>2026-04-18T12:00:51.603Z</time></trkpt><trkpt lat="43.5427367" lon="12.463005"><ele>811.0</ele><time>2026-04-18T12:00:52.603Z</time></trkpt><trkpt lat="43.542825" lon="12.462915"><ele>808.75</ele><time>2026-04-18T12:00:53.603Z</time></trkpt><trkpt lat="43.5429033" lon="12.4628067"><ele>806.5</ele><time>2026-04-18T12:00:54.603Z</time></trkpt><trkpt lat="43.542975" lon="12.4626733"><ele>804.25</ele><time>2026-04-18T12:00:55.603Z</time></trkpt><trkpt lat="43.5430317" lon="12.462495"><ele>802.0</ele><time>2026-04-18T12:00:56.603Z</time></trkpt><trkpt lat="43.543105" lon="12.4623183"><ele>802.0</ele><time>2026-04-18T12:00:57.603Z</time></trkpt><trkpt lat="43.54318" lon="12.4621433"><ele>802.0</ele><time>2026-04-18T12:00:58.603Z</time></trkpt><trkpt lat="43.5432617" lon="12.4619683"><ele>802.0</ele><time>2026-04-18T12:00:59.603Z</time></trkpt><trkpt lat="43.5433417" lon="12.461795"><ele>802.0</ele><time>2026-04-18T12:01:00.603Z</time></trkpt><trkpt lat="43.5434133" lon="12.461635"><ele>797.25</ele><time>2026-04-18T12:01:01.603Z</time></trkpt><trkpt lat="43.5434733" lon="12.4614783"><ele>792.5</ele><time>2026-04-18T12:01:02.603Z</time></trkpt><trkpt lat="43.5435333" lon="12.4613383"><ele>787.75</ele><time>2026-04-18T12:01:03.603Z</time></trkpt><trkpt lat="43.54359" lon="12.4612083"><ele>783.0</ele><time>2026-04-18T12:01:04.603Z</time></trkpt><trkpt lat="43.5436617" lon="12.4611167"><ele>785.5</ele><time>2026-04-18T12:01:05.603Z</time></trkpt><trkpt lat="43.5437367" lon="12.4610067"><ele>788.0</ele><time>2026-04-18T12:01:06.603Z</time></trkpt><trkpt lat="43.543825" lon="12.4608983"><ele>790.5</ele><time>2026-04-18T12:01:07.603Z</time></trkpt><trkpt lat="43.5439283" lon="12.4607933"><ele>793.0</ele><time>2026-04-18T12:01:08.603Z</time></trkpt><trkpt lat="43.5440333" lon="12.460685"><ele>793.0</ele><time>2026-04-18T12:01:09.603Z</time></trkpt><trkpt lat="43.5441267" lon="12.4605817"><ele>793.0</ele><time>2026-04-18T12:01:10.603Z</time></trkpt><trkpt lat="43.5442133" lon="12.4604817"><ele>793.0</ele><time>2026-04-18T12:01:11.603Z</time></trkpt><trkpt lat="43.5443017" lon="12.4603867"><ele>793.0</ele><time>2026-04-18T12:01:12.603Z</time></trkpt><trkpt lat="43.5443983" lon="12.46029"><ele>793.75</ele><time>2026-04-18T12:01:13.603Z</time></trkpt><trkpt lat="43.544505" lon="12.46019"><ele>794.5</ele><time>2026-04-18T12:01:14.603Z</time></trkpt><trkpt lat="43.5446183" lon="12.46009"><ele>795.25</ele><time>2026-04-18T12:01:15.603Z</time></trkpt><trkpt lat="43.5447183" lon="12.4599817"><ele>796.0</ele><time>2026-04-18T12:01:16.603Z</time></trkpt><trkpt lat="43.54483" lon="12.459875"><ele>796.0</ele><time>2026-04-18T12:01:17.603Z</time></trkpt><trkpt lat="43.54492" lon="12.4597417"><ele>796.0</ele><time>2026-04-18T12:01:18.603Z</time></trkpt><trkpt lat="43.545" lon="12.4596017"><ele>796.0</ele><time>2026-04-18T12:01:19.603Z</time></trkpt><trkpt lat="43.5450567" lon="12.4594583"><ele>796.0</ele><time>2026-04-18T12:01:20.603Z</time></trkpt><trkpt lat="43.545115" lon="12.459315"><ele>789.25</ele><time>2026-04-18T12:01:21.603Z</time></trkpt><trkpt lat="43.54517" lon="12.4591717"><ele>782.5</ele><time>2026-04-18T12:01:22.603Z</time></trkpt><trkpt lat="43.54521" lon="12.45903"><ele>775.75</ele><time>2026-04-18T12:01:23.603Z</time></trkpt><trkpt lat="43.5452483" lon="12.45889"><ele>769.0</ele><time>2026-04-18T12:01:24.603Z</time></trkpt><trkpt lat="43.5452817" lon="12.4587333"><ele>770.0</ele><time>2026-04-18T12:01:25.603Z</time></trkpt><trkpt lat="43.5453217" lon="12.4585817"><ele>771.0</ele><time>2026-04-18T12:01:26.603Z</time></trkpt><trkpt lat="43.545375" lon="12.45845"><ele>772.0</ele><time>2026-04-18T12:01:27.603Z</time></trkpt><trkpt lat="43.5454433" lon="12.458335"><ele>773.0</ele><time>2026-04-18T12:01:28.603Z</time></trkpt><trkpt lat="43.54553" lon="12.4582317"><ele>774.0</ele><time>2026-04-18T12:01:29.603Z</time></trkpt><trkpt lat="43.5456317" lon="12.4581467"><ele>774.0</ele><time>2026-04-18T12:01:30.603Z</time></trkpt><trkpt lat="43.54575" lon="12.4580783"><ele>774.0</ele><time>2026-04-18T12:01:31.603Z</time></trkpt><trkpt lat="43.5458767" lon="12.4580283"><ele>774.0</ele><time>2026-04-18T12:01:32.603Z</time></trkpt><trkpt lat="43.546005" lon="12.4579917"><ele>774.0</ele><time>2026-04-18T12:01:33.603Z</time></trkpt><trkpt lat="43.5461333" lon="12.4579783"><ele>777.25</ele><time>2026-04-18T12:01:34.603Z</time></trkpt><trkpt lat="43.5462633" lon="12.45798"><ele>780.5</ele><time>2026-04-18T12:01:35.603Z</time></trkpt><trkpt lat="43.5463767" lon="12.457955"><ele>783.75</ele><time>2026-04-18T12:01:36.603Z</time></trkpt><trkpt lat="43.5464917" lon="12.4578933"><ele>787.0</ele><time>2026-04-18T12:01:37.603Z</time></trkpt><trkpt lat="43.5465967" lon="12.4578083"><ele>780.25</ele><time>2026-04-18T12:01:38.603Z</time></trkpt><trkpt lat="43.5466883" lon="12.45771"><ele>773.5</ele><time>2026-04-18T12:01:39.602Z</time></trkpt><trkpt lat="43.54677" lon="12.4575817"><ele>766.75</ele><time>2026-04-18T12:01:40.603Z</time></trkpt><trkpt lat="43.5468633" lon="12.457445"><ele>760.0</ele><time>2026-04-18T12:01:41.603Z</time></trkpt><trkpt lat="43.5469633" lon="12.45731"><ele>761.5</ele><time>2026-04-18T12:01:42.603Z</time></trkpt><trkpt lat="43.54706" lon="12.457185"><ele>763.0</ele><time>2026-04-18T12:01:43.603Z</time></trkpt><trkpt lat="43.5471583" lon="12.457055"><ele>764.5</ele><time>2026-04-18T12:01:44.603Z</time></trkpt><trkpt lat="43.547245" lon="12.4569233"><ele>766.0</ele><time>2026-04-18T12:01:45.603Z</time></trkpt><trkpt lat="43.547315" lon="12.456775"><ele>766.0</ele><time>2026-04-18T12:01:46.603Z</time></trkpt><trkpt lat="43.5473817" lon="12.4566217"><ele>766.0</ele><time>2026-04-18T12:01:47.603Z</time></trkpt><trkpt lat="43.547455" lon="12.45646"><ele>766.0</ele><time>2026-04-18T12:01:48.603Z</time></trkpt><trkpt lat="43.5475333" lon="12.4562983"><ele>766.0</ele><time>2026-04-18T12:01:49.603Z</time></trkpt><trkpt lat="43.547615" lon="12.4561417"><ele>764.0</ele><time>2026-04-18T12:01:50.603Z</time></trkpt><trkpt lat="43.5476933" lon="12.4559817"><ele>762.0</ele><time>2026-04-18T12:01:51.603Z</time></trkpt><trkpt lat="43.54777" lon="12.4558367"><ele>760.0</ele><time>2026-04-18T12:01:52.603Z</time></trkpt><trkpt lat="43.547845" lon="12.4556983"><ele>758.0</ele><time>2026-04-18T12:01:53.603Z</time></trkpt><trkpt lat="43.547915" lon="12.455575"><ele>758.0</ele><time>2026-04-18T12:01:54.603Z</time></trkpt><trkpt lat="43.5479833" lon="12.45547"><ele>758.0</ele><time>2026-04-18T12:01:55.603Z</time></trkpt><trkpt lat="43.548065" lon="12.455375"><ele>758.0</ele><time>2026-04-18T12:01:56.603Z</time></trkpt><trkpt lat="43.548165" lon="12.4552983"><ele>758.0</ele><time>2026-04-18T12:01:57.603Z</time></trkpt><trkpt lat="43.548275" lon="12.4552333"><ele>758.0</ele><time>2026-04-18T12:01:58.603Z</time></trkpt><trkpt lat="43.5483967" lon="12.45517"><ele>756.5</ele><time>2026-04-18T12:01:59.603Z</time></trkpt><trkpt lat="43.5485117" lon="12.4551067"><ele>755.0</ele><time>2026-04-18T12:02:00.603Z</time></trkpt><trkpt lat="43.54861" lon="12.4550533"><ele>753.5</ele><time>2026-04-18T12:02:01.603Z</time></trkpt><trkpt lat="43.5486983" lon="12.4550017"><ele>752.0</ele><time>2026-04-18T12:02:02.603Z</time></trkpt><trkpt lat="43.5488483" lon="12.454935"><ele>752.0</ele><time>2026-04-18T12:02:04.603Z</time></trkpt><trkpt lat="43.5489117" lon="12.4549017"><ele>752.0</ele><time>2026-04-18T12:02:05.603Z</time></trkpt><trkpt lat="43.5489983" lon="12.4548517"><ele>752.0</ele><time>2026-04-18T12:02:07.603Z</time></trkpt><trkpt lat="43.5490883" lon="12.4548067"><ele>752.0</ele><time>2026-04-18T12:03:07.603Z</time></trkpt><trkpt lat="43.54916" lon="12.4547633"><ele>752.0</ele><time>2026-04-18T12:03:08.603Z</time></trkpt><trkpt lat="43.5492467" lon="12.4547083"><ele>752.0</ele><time>2026-04-18T12:03:09.603Z</time></trkpt><trkpt lat="43.5493517" lon="12.4546483"><ele>751.0</ele><time>2026-04-18T12:03:10.603Z</time></trkpt><trkpt lat="43.54946" lon="12.4545933"><ele>750.0</ele><time>2026-04-18T12:03:11.603Z</time></trkpt><trkpt lat="43.54957" lon="12.4545317"><ele>749.0</ele><time>2026-04-18T12:03:12.603Z</time></trkpt><trkpt lat="43.54968" lon="12.4544583"><ele>748.0</ele><time>2026-04-18T12:03:13.603Z</time></trkpt><trkpt lat="43.549775" lon="12.45438"><ele>748.0</ele><time>2026-04-18T12:03:14.603Z</time></trkpt><trkpt lat="43.54986" lon="12.4542783"><ele>748.0</ele><time>2026-04-18T12:03:15.603Z</time></trkpt><trkpt lat="43.54994" lon="12.4541517"><ele>748.0</ele><time>2026-04-18T12:03:16.603Z</time></trkpt><trkpt lat="43.5500067" lon="12.45402"><ele>748.0</ele><time>2026-04-18T12:03:17.603Z</time></trkpt><trkpt lat="43.5500667" lon="12.4539"><ele>745.4</ele><time>2026-04-18T12:03:18.603Z</time></trkpt><trkpt lat="43.5501433" lon="12.453785"><ele>742.8</ele><time>2026-04-18T12:03:19.603Z</time></trkpt><trkpt lat="43.55022" lon="12.453695"><ele>740.2</ele><time>2026-04-18T12:03:20.603Z</time></trkpt><trkpt lat="43.5503167" lon="12.453635"><ele>737.6</ele><time>2026-04-18T12:03:21.603Z</time></trkpt><trkpt lat="43.5504267" lon="12.4536067"><ele>735.0</ele><time>2026-04-18T12:03:22.603Z</time></trkpt><trkpt lat="43.5505433" lon="12.4536117"><ele>735.0</ele><time>2026-04-18T12:03:23.603Z</time></trkpt><trkpt lat="43.5506717" lon="12.4536183"><ele>735.0</ele><time>2026-04-18T12:03:24.603Z</time></trkpt><trkpt lat="43.55078" lon="12.4536367"><ele>735.0</ele><time>2026-04-18T12:03:25.603Z</time></trkpt><trkpt lat="43.5508833" lon="12.4536733"><ele>735.0</ele><time>2026-04-18T12:03:26.603Z</time></trkpt><trkpt lat="43.550985" lon="12.453715"><ele>735.0</ele><time>2026-04-18T12:03:27.603Z</time></trkpt><trkpt lat="43.5510917" lon="12.4537333"><ele>735.0</ele><time>2026-04-18T12:03:28.603Z</time></trkpt><trkpt lat="43.5511967" lon="12.4537217"><ele>735.0</ele><time>2026-04-18T12:03:29.603Z</time></trkpt><trkpt lat="43.5513" lon="12.4536617"><ele>735.0</ele><time>2026-04-18T12:03:30.603Z</time></trkpt><trkpt lat="43.5513967" lon="12.4535717"><ele>735.0</ele><time>2026-04-18T12:03:31.603Z</time></trkpt><trkpt lat="43.551475" lon="12.45345"><ele>734.25</ele><time>2026-04-18T12:03:32.603Z</time></trkpt><trkpt lat="43.5515467" lon="12.45331"><ele>733.5</ele><time>2026-04-18T12:03:33.603Z</time></trkpt><trkpt lat="43.5516117" lon="12.4531733"><ele>732.75</ele><time>2026-04-18T12:03:34.603Z</time></trkpt><trkpt lat="43.5516733" lon="12.45305"><ele>732.0</ele><time>2026-04-18T12:03:35.603Z</time></trkpt><trkpt lat="43.551755" lon="12.4529417"><ele>732.0</ele><time>2026-04-18T12:03:36.603Z</time></trkpt><trkpt lat="43.55185" lon="12.4528717"><ele>732.0</ele><time>2026-04-18T12:03:37.603Z</time></trkpt><trkpt lat="43.5519567" lon="12.4528083"><ele>732.0</ele><time>2026-04-18T12:03:38.603Z</time></trkpt><trkpt lat="43.5520733" lon="12.4527533"><ele>732.0</ele><time>2026-04-18T12:03:39.603Z</time></trkpt><trkpt lat="43.5522033" lon="12.4527033"><ele>737.5</ele><time>2026-04-18T12:03:40.603Z</time></trkpt><trkpt lat="43.5523267" lon="12.4526317"><ele>743.0</ele><time>2026-04-18T12:03:41.603Z</time></trkpt><trkpt lat="43.55241" lon="12.4525233"><ele>748.5</ele><time>2026-04-18T12:03:42.603Z</time></trkpt><trkpt lat="43.5524683" lon="12.4523667"><ele>754.0</ele><time>2026-04-18T12:03:43.602Z</time></trkpt><trkpt lat="43.5525117" lon="12.4522117"><ele>749.5</ele><time>2026-04-18T12:03:44.603Z</time></trkpt><trkpt lat="43.552555" lon="12.4520683"><ele>745.0</ele><time>2026-04-18T12:03:45.603Z</time></trkpt><trkpt lat="43.5526117" lon="12.4519333"><ele>740.5</ele><time>2026-04-18T12:03:46.603Z</time></trkpt><trkpt lat="43.552685" lon="12.45181"><ele>736.0</ele><time>2026-04-18T12:03:47.603Z</time></trkpt><trkpt lat="43.5527867" lon="12.4517183"><ele>741.5</ele><time>2026-04-18T12:03:48.603Z</time></trkpt><trkpt lat="43.5529" lon="12.4516383"><ele>747.0</ele><time>2026-04-18T12:03:49.603Z</time></trkpt><trkpt lat="43.5530183" lon="12.4515683"><ele>752.5</ele><time>2026-04-18T12:03:50.603Z</time></trkpt><trkpt lat="43.5531233" lon="12.4514983"><ele>758.0</ele><time>2026-04-18T12:03:51.602Z</time></trkpt><trkpt lat="43.5532033" lon="12.451395"><ele>754.25</ele><time>2026-04-18T12:03:52.602Z</time></trkpt><trkpt lat="43.5532733" lon="12.45128"><ele>750.5</ele><time>2026-04-18T12:03:53.603Z</time></trkpt><trkpt lat="43.5533167" lon="12.4511283"><ele>746.75</ele><time>2026-04-18T12:03:54.603Z</time></trkpt><trkpt lat="43.5533417" lon="12.450955"><ele>743.0</ele><time>2026-04-18T12:03:55.603Z</time></trkpt><trkpt lat="43.5533567" lon="12.450765"><ele>743.0</ele><time>2026-04-18T12:03:56.603Z</time></trkpt><trkpt lat="43.553365" lon="12.450575"><ele>743.0</ele><time>2026-04-18T12:03:57.603Z</time></trkpt><trkpt lat="43.55338" lon="12.4503867"><ele>743.0</ele><time>2026-04-18T12:03:58.603Z</time></trkpt><trkpt lat="43.5533967" lon="12.45021"><ele>743.0</ele><time>2026-04-18T12:03:59.603Z</time></trkpt><trkpt lat="43.5534183" lon="12.45003"><ele>741.5</ele><time>2026-04-18T12:04:00.603Z</time></trkpt><trkpt lat="43.5534483" lon="12.44985"><ele>740.0</ele><time>2026-04-18T12:04:01.603Z</time></trkpt><trkpt lat="43.55347" lon="12.4496717"><ele>738.5</ele><time>2026-04-18T12:04:02.603Z</time></trkpt><trkpt lat="43.553485" lon="12.4494917"><ele>737.0</ele><time>2026-04-18T12:04:03.603Z</time></trkpt><trkpt lat="43.5535033" lon="12.4493267"><ele>734.75</ele><time>2026-04-18T12:04:04.603Z</time></trkpt><trkpt lat="43.55351" lon="12.449165"><ele>732.5</ele><time>2026-04-18T12:04:05.603Z</time></trkpt><trkpt lat="43.5535083" lon="12.449015"><ele>730.25</ele><time>2026-04-18T12:04:06.602Z</time></trkpt><trkpt lat="43.5534733" lon="12.44887"><ele>728.0</ele><time>2026-04-18T12:04:07.603Z</time></trkpt><trkpt lat="43.5534117" lon="12.4487233"><ele>728.0</ele><time>2026-04-18T12:04:08.603Z</time></trkpt><trkpt lat="43.5533133" lon="12.4485783"><ele>728.0</ele><time>2026-04-18T12:04:09.603Z</time></trkpt><trkpt lat="43.5532183" lon="12.4484333"><ele>728.0</ele><time>2026-04-18T12:04:10.603Z</time></trkpt><trkpt lat="43.5531183" lon="12.4483"><ele>728.0</ele><time>2026-04-18T12:04:11.603Z</time></trkpt><trkpt lat="43.5530267" lon="12.4481833"><ele>728.0</ele><time>2026-04-18T12:04:12.603Z</time></trkpt><trkpt lat="43.5529383" lon="12.4480817"><ele>728.0</ele><time>2026-04-18T12:04:13.603Z</time></trkpt><trkpt lat="43.552845" lon="12.4479783"><ele>728.0</ele><time>2026-04-18T12:04:14.603Z</time></trkpt><trkpt lat="43.552745" lon="12.447885"><ele>728.0</ele><time>2026-04-18T12:04:15.603Z</time></trkpt><trkpt lat="43.552645" lon="12.4477967"><ele>724.8</ele><time>2026-04-18T12:04:16.603Z</time></trkpt><trkpt lat="43.5525583" lon="12.447715"><ele>721.5999999999999</ele><time>2026-04-18T12:04:17.603Z</time></trkpt><trkpt lat="43.552465" lon="12.44762"><ele>718.4000000000001</ele><time>2026-04-18T12:04:18.603Z</time></trkpt><trkpt lat="43.5523883" lon="12.4475133"><ele>715.2</ele><time>2026-04-18T12:04:19.603Z</time></trkpt><trkpt lat="43.5523317" lon="12.4473833"><ele>712.0</ele><time>2026-04-18T12:04:20.603Z</time></trkpt><trkpt lat="43.5522983" lon="12.4472517"><ele>711.0</ele><time>2026-04-18T12:04:21.603Z</time></trkpt><trkpt lat="43.5522833" lon="12.4471167"><ele>710.0</ele><time>2026-04-18T12:04:22.603Z</time></trkpt><trkpt lat="43.55228" lon="12.4469717"><ele>709.0</ele><time>2026-04-18T12:04:23.603Z</time></trkpt><trkpt lat="43.552285" lon="12.4468217"><ele>708.0</ele><time>2026-04-18T12:04:24.603Z</time></trkpt><trkpt lat="43.5522917" lon="12.4466733"><ele>707.0</ele><time>2026-04-18T12:04:25.603Z</time></trkpt><trkpt lat="43.5523017" lon="12.446525"><ele>707.0</ele><time>2026-04-18T12:04:26.603Z</time></trkpt><trkpt lat="43.5523117" lon="12.4463933"><ele>707.0</ele><time>2026-04-18T12:04:27.603Z</time></trkpt><trkpt lat="43.5523133" lon="12.44627"><ele>707.0</ele><time>2026-04-18T12:04:28.603Z</time></trkpt><trkpt lat="43.5522917" lon="12.446145"><ele>707.0</ele><time>2026-04-18T12:04:29.603Z</time></trkpt><trkpt lat="43.5522483" lon="12.44603"><ele>707.0</ele><time>2026-04-18T12:04:30.603Z</time></trkpt><trkpt lat="43.5521917" lon="12.445925"><ele>705.8333333333333</ele><time>2026-04-18T12:04:31.603Z</time></trkpt><trkpt lat="43.5521483" lon="12.445825"><ele>704.6666666666666</ele><time>2026-04-18T12:04:32.603Z</time></trkpt><trkpt lat="43.5521417" lon="12.445715"><ele>703.5</ele><time>2026-04-18T12:04:33.602Z</time></trkpt><trkpt lat="43.5521767" lon="12.4456133"><ele>702.3333333333334</ele><time>2026-04-18T12:04:34.603Z</time></trkpt><trkpt lat="43.5522417" lon="12.44554"><ele>701.1666666666667</ele><time>2026-04-18T12:04:35.603Z</time></trkpt><trkpt lat="43.55232" lon="12.445475"><ele>700.0</ele><time>2026-04-18T12:04:36.603Z</time></trkpt><trkpt lat="43.5524033" lon="12.44541"><ele>699.6</ele><time>2026-04-18T12:04:37.603Z</time></trkpt><trkpt lat="43.5524667" lon="12.4453183"><ele>699.2</ele><time>2026-04-18T12:04:38.603Z</time></trkpt><trkpt lat="43.5524967" lon="12.44519"><ele>698.8</ele><time>2026-04-18T12:04:39.603Z</time></trkpt><trkpt lat="43.5525033" lon="12.4450517"><ele>698.4</ele><time>2026-04-18T12:04:40.603Z</time></trkpt><trkpt lat="43.5524967" lon="12.4448933"><ele>698.0</ele><time>2026-04-18T12:04:41.603Z</time></trkpt><trkpt lat="43.5524717" lon="12.4447317"><ele>697.0</ele><time>2026-04-18T12:04:42.603Z</time></trkpt><trkpt lat="43.552425" lon="12.4445667"><ele>696.0</ele><time>2026-04-18T12:04:43.603Z</time></trkpt><trkpt lat="43.55238" lon="12.4444117"><ele>695.0</ele><time>2026-04-18T12:04:44.603Z</time></trkpt><trkpt lat="43.5523467" lon="12.44426"><ele>694.0</ele><time>2026-04-18T12:04:45.603Z</time></trkpt><trkpt lat="43.5523283" lon="12.4441083"><ele>694.0</ele><time>2026-04-18T12:04:46.603Z</time></trkpt><trkpt lat="43.55235" lon="12.4439433"><ele>694.0</ele><time>2026-04-18T12:04:47.603Z</time></trkpt><trkpt lat="43.5523783" lon="12.443765"><ele>694.0</ele><time>2026-04-18T12:04:48.603Z</time></trkpt><trkpt lat="43.55243" lon="12.4435833"><ele>694.0</ele><time>2026-04-18T12:04:49.603Z</time></trkpt><trkpt lat="43.5524783" lon="12.443405"><ele>695.0</ele><time>2026-04-18T12:04:50.603Z</time></trkpt><trkpt lat="43.5525267" lon="12.4432533"><ele>696.0</ele><time>2026-04-18T12:04:51.603Z</time></trkpt><trkpt lat="43.55256" lon="12.4431183"><ele>697.0</ele><time>2026-04-18T12:04:52.603Z</time></trkpt><trkpt lat="43.55258" lon="12.4429833"><ele>698.0</ele><time>2026-04-18T12:04:53.603Z</time></trkpt><trkpt lat="43.5525983" lon="12.4428417"><ele>699.0</ele><time>2026-04-18T12:04:54.603Z</time></trkpt><trkpt lat="43.5526133" lon="12.4426983"><ele>699.0</ele><time>2026-04-18T12:04:55.603Z</time></trkpt><trkpt lat="43.5526333" lon="12.4425533"><ele>699.0</ele><time>2026-04-18T12:04:56.603Z</time></trkpt><trkpt lat="43.5526367" lon="12.4424167"><ele>699.0</ele><time>2026-04-18T12:04:57.603Z</time></trkpt><trkpt lat="43.5526283" lon="12.4423"><ele>699.0</ele><time>2026-04-18T12:04:58.602Z</time></trkpt><trkpt lat="43.5525967" lon="12.4421933"><ele>699.0</ele><time>2026-04-18T12:04:59.603Z</time></trkpt><trkpt lat="43.5525333" lon="12.4421017"><ele>695.25</ele><time>2026-04-18T12:05:00.603Z</time></trkpt><trkpt lat="43.5524417" lon="12.4420467"><ele>691.5</ele><time>2026-04-18T12:05:01.603Z</time></trkpt><trkpt lat="43.55233" lon="12.4420233"><ele>687.75</ele><time>2026-04-18T12:05:02.603Z</time></trkpt><trkpt lat="43.5521917" lon="12.4420117"><ele>684.0</ele><time>2026-04-18T12:05:03.603Z</time></trkpt><trkpt lat="43.5520783" lon="12.44198"><ele>686.4000000000001</ele><time>2026-04-18T12:05:04.603Z</time></trkpt><trkpt lat="43.5519667" lon="12.4419067"><ele>688.8</ele><time>2026-04-18T12:05:05.603Z</time></trkpt><trkpt lat="43.5518983" lon="12.4418133"><ele>691.2</ele><time>2026-04-18T12:05:06.603Z</time></trkpt><trkpt lat="43.551865" lon="12.4416817"><ele>693.5999999999999</ele><time>2026-04-18T12:05:07.602Z</time></trkpt><trkpt lat="43.55185" lon="12.4415467"><ele>696.0</ele><time>2026-04-18T12:05:08.603Z</time></trkpt><trkpt lat="43.5518167" lon="12.4414233"><ele>692.5</ele><time>2026-04-18T12:05:09.603Z</time></trkpt><trkpt lat="43.551765" lon="12.441295"><ele>689.0</ele><time>2026-04-18T12:05:10.603Z</time></trkpt><trkpt lat="43.5516933" lon="12.4411583"><ele>685.5</ele><time>2026-04-18T12:05:11.603Z</time></trkpt><trkpt lat="43.55162" lon="12.441015"><ele>682.0</ele><time>2026-04-18T12:05:12.603Z</time></trkpt><trkpt lat="43.551575" lon="12.4408683"><ele>682.0</ele><time>2026-04-18T12:05:13.603Z</time></trkpt><trkpt lat="43.55156" lon="12.4407033"><ele>682.0</ele><time>2026-04-18T12:05:14.603Z</time></trkpt><trkpt lat="43.551585" lon="12.4405217"><ele>682.0</ele><time>2026-04-18T12:05:15.603Z</time></trkpt><trkpt lat="43.5516567" lon="12.440345"><ele>682.0</ele><time>2026-04-18T12:05:16.603Z</time></trkpt><trkpt lat="43.551735" lon="12.4401683"><ele>681.25</ele><time>2026-04-18T12:05:17.603Z</time></trkpt><trkpt lat="43.5518083" lon="12.439995"><ele>680.5</ele><time>2026-04-18T12:05:18.603Z</time></trkpt><trkpt lat="43.55187" lon="12.4398333"><ele>679.75</ele><time>2026-04-18T12:05:19.603Z</time></trkpt><trkpt lat="43.5519217" lon="12.4396817"><ele>679.0</ele><time>2026-04-18T12:05:20.603Z</time></trkpt><trkpt lat="43.551965" lon="12.4395433"><ele>679.0</ele><time>2026-04-18T12:05:21.603Z</time></trkpt><trkpt lat="43.5519867" lon="12.4394067"><ele>679.0</ele><time>2026-04-18T12:05:22.603Z</time></trkpt><trkpt lat="43.5519883" lon="12.4392517"><ele>679.0</ele><time>2026-04-18T12:05:23.603Z</time></trkpt><trkpt lat="43.55197" lon="12.4390817"><ele>679.0</ele><time>2026-04-18T12:05:24.603Z</time></trkpt><trkpt lat="43.5519533" lon="12.43889"><ele>675.6666666666667</ele><time>2026-04-18T12:05:25.603Z</time></trkpt><trkpt lat="43.5519483" lon="12.438675"><ele>672.3333333333334</ele><time>2026-04-18T12:05:26.603Z</time></trkpt><trkpt lat="43.551955" lon="12.43844"><ele>669.0</ele><time>2026-04-18T12:05:27.603Z</time></trkpt><trkpt lat="43.5519733" lon="12.4382183"><ele>669.0</ele><time>2026-04-18T12:05:28.603Z</time></trkpt><trkpt lat="43.5519883" lon="12.43801"><ele>669.0</ele><time>2026-04-18T12:05:29.603Z</time></trkpt><trkpt lat="43.5520017" lon="12.4378183"><ele>669.0</ele><time>2026-04-18T12:05:30.603Z</time></trkpt><trkpt lat="43.5520183" lon="12.437635"><ele>669.0</ele><time>2026-04-18T12:05:31.603Z</time></trkpt><trkpt lat="43.5520417" lon="12.43747"><ele>665.5</ele><time>2026-04-18T12:05:32.603Z</time></trkpt><trkpt lat="43.5520417" lon="12.4373083"><ele>662.0</ele><time>2026-04-18T12:05:33.603Z</time></trkpt><trkpt lat="43.552025" lon="12.4371533"><ele>658.5</ele><time>2026-04-18T12:05:34.603Z</time></trkpt><trkpt lat="43.551985" lon="12.437"><ele>655.0</ele><time>2026-04-18T12:05:35.603Z</time></trkpt><trkpt lat="43.5519067" lon="12.4368683"><ele>653.0</ele><time>2026-04-18T12:05:36.603Z</time></trkpt><trkpt lat="43.5517933" lon="12.43675"><ele>651.0</ele><time>2026-04-18T12:05:37.603Z</time></trkpt><trkpt lat="43.55166" lon="12.43665"><ele>649.0</ele><time>2026-04-18T12:05:38.603Z</time></trkpt><trkpt lat="43.5515267" lon="12.4365433"><ele>647.0</ele><time>2026-04-18T12:05:39.603Z</time></trkpt><trkpt lat="43.5514033" lon="12.43642"><ele>644.6666666666666</ele><time>2026-04-18T12:05:40.603Z</time></trkpt><trkpt lat="43.551295" lon="12.436275"><ele>642.3333333333334</ele><time>2026-04-18T12:05:41.603Z</time></trkpt><trkpt lat="43.5512017" lon="12.436105"><ele>640.0</ele><time>2026-04-18T12:05:42.603Z</time></trkpt><trkpt lat="43.5511083" lon="12.43593"><ele>638.5</ele><time>2026-04-18T12:05:43.603Z</time></trkpt><trkpt lat="43.5510233" lon="12.43578"><ele>637.0</ele><time>2026-04-18T12:05:44.603Z</time></trkpt><trkpt lat="43.5509367" lon="12.43564"><ele>635.5</ele><time>2026-04-18T12:05:45.603Z</time></trkpt><trkpt lat="43.55087" lon="12.4355167"><ele>634.0</ele><time>2026-04-18T12:05:46.603Z</time></trkpt><trkpt lat="43.550835" lon="12.4353967"><ele>632.5</ele><time>2026-04-18T12:05:47.603Z</time></trkpt><trkpt lat="43.5508333" lon="12.435265"><ele>631.0</ele><time>2026-04-18T12:05:48.603Z</time></trkpt><trkpt lat="43.5508633" lon="12.4351183"><ele>629.5</ele><time>2026-04-18T12:05:49.602Z</time></trkpt><trkpt lat="43.5509083" lon="12.4349583"><ele>628.0</ele><time>2026-04-18T12:05:50.602Z</time></trkpt><trkpt lat="43.5509617" lon="12.4347833"><ele>627.0</ele><time>2026-04-18T12:05:51.602Z</time></trkpt><trkpt lat="43.55101" lon="12.434605"><ele>626.0</ele><time>2026-04-18T12:05:52.602Z</time></trkpt><trkpt lat="43.5510483" lon="12.4344017"><ele>625.0</ele><time>2026-04-18T12:05:53.602Z</time></trkpt><trkpt lat="43.551065" lon="12.4341783"><ele>625.0</ele><time>2026-04-18T12:05:54.602Z</time></trkpt><trkpt lat="43.5510717" lon="12.4339633"><ele>625.0</ele><time>2026-04-18T12:05:55.602Z</time></trkpt><trkpt lat="43.5510717" lon="12.4337517"><ele>625.0</ele><time>2026-04-18T12:05:56.602Z</time></trkpt><trkpt lat="43.5510733" lon="12.43356"><ele>625.0</ele><time>2026-04-18T12:05:57.602Z</time></trkpt><trkpt lat="43.551075" lon="12.4333833"><ele>625.4</ele><time>2026-04-18T12:05:58.602Z</time></trkpt><trkpt lat="43.55108" lon="12.4332233"><ele>625.8</ele><time>2026-04-18T12:05:59.602Z</time></trkpt><trkpt lat="43.5510967" lon="12.4330817"><ele>626.2</ele><time>2026-04-18T12:06:00.602Z</time></trkpt><trkpt lat="43.5511383" lon="12.4329417"><ele>626.6</ele><time>2026-04-18T12:06:01.602Z</time></trkpt><trkpt lat="43.55121" lon="12.4328133"><ele>627.0</ele><time>2026-04-18T12:06:02.602Z</time></trkpt><trkpt lat="43.5512967" lon="12.4326967"><ele>627.0</ele><time>2026-04-18T12:06:03.602Z</time></trkpt><trkpt lat="43.5513717" lon="12.4325633"><ele>627.0</ele><time>2026-04-18T12:06:04.602Z</time></trkpt><trkpt lat="43.55145" lon="12.4324333"><ele>627.0</ele><time>2026-04-18T12:06:05.602Z</time></trkpt><trkpt lat="43.5515183" lon="12.4323083"><ele>627.0</ele><time>2026-04-18T12:06:06.602Z</time></trkpt><trkpt lat="43.5515817" lon="12.43218"><ele>626.0</ele><time>2026-04-18T12:06:07.602Z</time></trkpt><trkpt lat="43.5516517" lon="12.4320517"><ele>625.0</ele><time>2026-04-18T12:06:08.602Z</time></trkpt><trkpt lat="43.551725" lon="12.4319217"><ele>624.0</ele><time>2026-04-18T12:06:09.602Z</time></trkpt><trkpt lat="43.5518033" lon="12.4318067"><ele>623.0</ele><time>2026-04-18T12:06:10.602Z</time></trkpt><trkpt lat="43.551885" lon="12.43171"><ele>623.0</ele><time>2026-04-18T12:06:11.602Z</time></trkpt><trkpt lat="43.5519833" lon="12.4316383"><ele>623.0</ele><time>2026-04-18T12:06:12.601Z</time></trkpt><trkpt lat="43.552085" lon="12.43159"><ele>623.0</ele><time>2026-04-18T12:06:13.602Z</time></trkpt><trkpt lat="43.5522" lon="12.43157"><ele>623.0</ele><time>2026-04-18T12:06:14.602Z</time></trkpt><trkpt lat="43.552325" lon="12.431555"><ele>623.25</ele><time>2026-04-18T12:06:15.602Z</time></trkpt><trkpt lat="43.5524567" lon="12.4315517"><ele>623.5</ele><time>2026-04-18T12:06:16.602Z</time></trkpt><trkpt lat="43.552595" lon="12.4315467"><ele>623.75</ele><time>2026-04-18T12:06:17.602Z</time></trkpt><trkpt lat="43.552705" lon="12.431525"><ele>624.0</ele><time>2026-04-18T12:06:18.602Z</time></trkpt><trkpt lat="43.5528033" lon="12.4314767"><ele>622.0</ele><time>2026-04-18T12:06:19.602Z</time></trkpt><trkpt lat="43.5528883" lon="12.4314"><ele>620.0</ele><time>2026-04-18T12:06:20.602Z</time></trkpt><trkpt lat="43.5529533" lon="12.43131"><ele>618.0</ele><time>2026-04-18T12:06:21.602Z</time></trkpt><trkpt lat="43.553005" lon="12.4312083"><ele>616.0</ele><time>2026-04-18T12:06:22.602Z</time></trkpt><trkpt lat="43.5530533" lon="12.43112"><ele>614.0</ele><time>2026-04-18T12:06:23.602Z</time></trkpt><trkpt lat="43.553115" lon="12.4310467"><ele>612.0</ele><time>2026-04-18T12:06:24.602Z</time></trkpt><trkpt lat="43.5531717" lon="12.4309967"><ele>617.2</ele><time>2026-04-18T12:06:25.602Z</time></trkpt><trkpt lat="43.5532917" lon="12.4309717"><ele>622.4000000000001</ele><time>2026-04-18T12:06:27.602Z</time></trkpt><trkpt lat="43.55336" lon="12.4309633"><ele>627.5999999999999</ele><time>2026-04-18T12:06:28.602Z</time></trkpt><trkpt lat="43.5534233" lon="12.43096"><ele>632.8</ele><time>2026-04-18T12:06:29.602Z</time></trkpt><trkpt lat="43.553525" lon="12.4309617"><ele>638.0</ele><time>2026-04-18T12:06:31.602Z</time></trkpt><trkpt lat="43.5536217" lon="12.43098"><ele>635.75</ele><time>2026-04-18T12:07:43.602Z</time></trkpt><trkpt lat="43.5537367" lon="12.4309783"><ele>633.5</ele><time>2026-04-18T12:07:45.602Z</time></trkpt><trkpt lat="43.5538467" lon="12.4309917"><ele>631.25</ele><time>2026-04-18T12:07:46.601Z</time></trkpt><trkpt lat="43.5539717" lon="12.4310317"><ele>629.0</ele><time>2026-04-18T12:07:47.602Z</time></trkpt><trkpt lat="43.55411" lon="12.4311083"><ele>629.0</ele><time>2026-04-18T12:07:48.602Z</time></trkpt><trkpt lat="43.5542583" lon="12.4312267"><ele>629.0</ele><time>2026-04-18T12:07:49.602Z</time></trkpt><trkpt lat="43.5543817" lon="12.43133"><ele>629.0</ele><time>2026-04-18T12:07:50.602Z</time></trkpt><trkpt lat="43.55446" lon="12.4313883"><ele>629.0</ele><time>2026-04-18T12:07:51.602Z</time></trkpt><trkpt lat="43.554525" lon="12.431405"><ele>625.5</ele><time>2026-04-18T12:07:52.602Z</time></trkpt><trkpt lat="43.55459" lon="12.4313883"><ele>622.0</ele><time>2026-04-18T12:07:53.602Z</time></trkpt><trkpt lat="43.554655" lon="12.431265"><ele>618.5</ele><time>2026-04-18T12:07:55.602Z</time></trkpt><trkpt lat="43.5546783" lon="12.4311683"><ele>615.0</ele><time>2026-04-18T12:07:56.602Z</time></trkpt><trkpt lat="43.5546833" lon="12.4310567"><ele>611.5</ele><time>2026-04-18T12:07:57.602Z</time></trkpt><trkpt lat="43.554675" lon="12.4309317"><ele>608.0</ele><time>2026-04-18T12:07:58.602Z</time></trkpt><trkpt lat="43.554665" lon="12.430785"><ele>605.0</ele><time>2026-04-18T12:07:59.602Z</time></trkpt><trkpt lat="43.5546333" lon="12.4306083"><ele>602.0</ele><time>2026-04-18T12:08:00.602Z</time></trkpt><trkpt lat="43.55455" lon="12.4304"><ele>599.0</ele><time>2026-04-18T12:08:01.602Z</time></trkpt><trkpt lat="43.55444" lon="12.43017"><ele>605.0</ele><time>2026-04-18T12:08:02.602Z</time></trkpt><trkpt lat="43.55435" lon="12.4299583"><ele>611.0</ele><time>2026-04-18T12:08:03.602Z</time></trkpt><trkpt lat="43.554275" lon="12.42978"><ele>617.0</ele><time>2026-04-18T12:08:04.602Z</time></trkpt><trkpt lat="43.5542417" lon="12.4296467"><ele>623.0</ele><time>2026-04-18T12:08:05.602Z</time></trkpt><trkpt lat="43.5542383" lon="12.4295367"><ele>623.0</ele><time>2026-04-18T12:08:06.602Z</time></trkpt><trkpt lat="43.5542417" lon="12.429415"><ele>623.0</ele><time>2026-04-18T12:08:07.602Z</time></trkpt><trkpt lat="43.5542817" lon="12.4293067"><ele>623.0</ele><time>2026-04-18T12:08:08.602Z</time></trkpt><trkpt lat="43.5543433" lon="12.429235"><ele>623.0</ele><time>2026-04-18T12:08:09.602Z</time></trkpt><trkpt lat="43.5544383" lon="12.4292033"><ele>623.0</ele><time>2026-04-18T12:08:10.602Z</time></trkpt><trkpt lat="43.5545533" lon="12.4292167"><ele>621.3333333333333</ele><time>2026-04-18T12:08:11.602Z</time></trkpt><trkpt lat="43.5546917" lon="12.42928"><ele>619.6666666666666</ele><time>2026-04-18T12:08:12.602Z</time></trkpt><trkpt lat="43.5548583" lon="12.4293783"><ele>618.0</ele><time>2026-04-18T12:08:13.602Z</time></trkpt><trkpt lat="43.5550783" lon="12.4294983"><ele>618.0</ele><time>2026-04-18T12:08:14.602Z</time></trkpt><trkpt lat="43.5552967" lon="12.4295983"><ele>618.0</ele><time>2026-04-18T12:08:15.602Z</time></trkpt><trkpt lat="43.55549" lon="12.4296633"><ele>618.0</ele><time>2026-04-18T12:08:16.602Z</time></trkpt><trkpt lat="43.555655" lon="12.42972"><ele>612.5</ele><time>2026-04-18T12:08:17.601Z</time></trkpt><trkpt lat="43.5557917" lon="12.4297783"><ele>607.0</ele><time>2026-04-18T12:08:18.602Z</time></trkpt><trkpt lat="43.5559267" lon="12.4298533"><ele>601.5</ele><time>2026-04-18T12:08:19.602Z</time></trkpt><trkpt lat="43.5560433" lon="12.42994"><ele>596.0</ele><time>2026-04-18T12:08:20.602Z</time></trkpt><trkpt lat="43.5561467" lon="12.4300267"><ele>594.5</ele><time>2026-04-18T12:08:21.602Z</time></trkpt><trkpt lat="43.5562433" lon="12.4301017"><ele>593.0</ele><time>2026-04-18T12:08:22.602Z</time></trkpt><trkpt lat="43.5563283" lon="12.4301717"><ele>591.5</ele><time>2026-04-18T12:08:23.602Z</time></trkpt><trkpt lat="43.556395" lon="12.4302133"><ele>590.0</ele><time>2026-04-18T12:08:24.602Z</time></trkpt><trkpt lat="43.5564583" lon="12.4302233"><ele>588.5</ele><time>2026-04-18T12:08:25.602Z</time></trkpt><trkpt lat="43.5565133" lon="12.43014"><ele>587.0</ele><time>2026-04-18T12:08:27.602Z</time></trkpt><trkpt lat="43.55651" lon="12.42999"><ele>587.0</ele><time>2026-04-18T12:08:29.602Z</time></trkpt><trkpt lat="43.5564783" lon="12.429885"><ele>587.0</ele><time>2026-04-18T12:08:30.602Z</time></trkpt><trkpt lat="43.5564433" lon="12.4297617"><ele>587.0</ele><time>2026-04-18T12:08:31.602Z</time></trkpt><trkpt lat="43.55641" lon="12.429625"><ele>587.0</ele><time>2026-04-18T12:08:32.602Z</time></trkpt><trkpt lat="43.556355" lon="12.4294817"><ele>587.0</ele><time>2026-04-18T12:08:33.602Z</time></trkpt><trkpt lat="43.5562917" lon="12.4293317"><ele>590.0</ele><time>2026-04-18T12:08:34.602Z</time></trkpt><trkpt lat="43.5562467" lon="12.4291683"><ele>593.0</ele><time>2026-04-18T12:08:35.602Z</time></trkpt><trkpt lat="43.5562067" lon="12.4289883"><ele>596.0</ele><time>2026-04-18T12:08:36.602Z</time></trkpt><trkpt lat="43.5561617" lon="12.42881"><ele>599.0</ele><time>2026-04-18T12:08:37.602Z</time></trkpt><trkpt lat="43.55612" lon="12.4286367"><ele>599.0</ele><time>2026-04-18T12:08:38.602Z</time></trkpt><trkpt lat="43.5560817" lon="12.4284717"><ele>599.0</ele><time>2026-04-18T12:08:39.602Z</time></trkpt><trkpt lat="43.5560617" lon="12.428315"><ele>599.0</ele><time>2026-04-18T12:08:40.602Z</time></trkpt><trkpt lat="43.5560533" lon="12.428165"><ele>599.0</ele><time>2026-04-18T12:08:41.602Z</time></trkpt><trkpt lat="43.556045" lon="12.4280333"><ele>599.0</ele><time>2026-04-18T12:08:42.602Z</time></trkpt><trkpt lat="43.5560233" lon="12.42792"><ele>595.0</ele><time>2026-04-18T12:08:43.602Z</time></trkpt><trkpt lat="43.556" lon="12.427825"><ele>591.0</ele><time>2026-04-18T12:08:44.602Z</time></trkpt><trkpt lat="43.5559433" lon="12.4277583"><ele>587.0</ele><time>2026-04-18T12:08:45.602Z</time></trkpt><trkpt lat="43.5558517" lon="12.4277183"><ele>583.0</ele><time>2026-04-18T12:08:46.602Z</time></trkpt><trkpt lat="43.5557283" lon="12.427685"><ele>579.0</ele><time>2026-04-18T12:08:47.602Z</time></trkpt><trkpt lat="43.5555933" lon="12.4276233"><ele>579.0</ele><time>2026-04-18T12:08:48.602Z</time></trkpt><trkpt lat="43.5554717" lon="12.4275283"><ele>579.0</ele><time>2026-04-18T12:08:49.602Z</time></trkpt><trkpt lat="43.55539" lon="12.42741"><ele>579.0</ele><time>2026-04-18T12:08:50.602Z</time></trkpt><trkpt lat="43.5553433" lon="12.4272783"><ele>579.0</ele><time>2026-04-18T12:08:51.602Z</time></trkpt><trkpt lat="43.5553367" lon="12.4271467"><ele>581.4</ele><time>2026-04-18T12:08:52.602Z</time></trkpt><trkpt lat="43.5553533" lon="12.427"><ele>583.8</ele><time>2026-04-18T12:08:53.602Z</time></trkpt><trkpt lat="43.5554017" lon="12.426845"><ele>586.2</ele><time>2026-04-18T12:08:54.602Z</time></trkpt><trkpt lat="43.5554533" lon="12.4267"><ele>588.6</ele><time>2026-04-18T12:08:55.602Z</time></trkpt><trkpt lat="43.555485" lon="12.42658"><ele>591.0</ele><time>2026-04-18T12:08:56.602Z</time></trkpt><trkpt lat="43.5555067" lon="12.4264717"><ele>588.6</ele><time>2026-04-18T12:08:57.601Z</time></trkpt><trkpt lat="43.5555067" lon="12.42637"><ele>586.2</ele><time>2026-04-18T12:08:58.602Z</time></trkpt><trkpt lat="43.5554717" lon="12.4262683"><ele>583.8</ele><time>2026-04-18T12:08:59.602Z</time></trkpt><trkpt lat="43.5554083" lon="12.4261683"><ele>581.4</ele><time>2026-04-18T12:09:00.602Z</time></trkpt><trkpt lat="43.5553217" lon="12.4260633"><ele>579.0</ele><time>2026-04-18T12:09:01.602Z</time></trkpt><trkpt lat="43.5552067" lon="12.4259333"><ele>579.0</ele><time>2026-04-18T12:09:02.602Z</time></trkpt><trkpt lat="43.5551017" lon="12.42578"><ele>579.0</ele><time>2026-04-18T12:09:03.602Z</time></trkpt><trkpt lat="43.5550183" lon="12.4256"><ele>579.0</ele><time>2026-04-18T12:09:04.602Z</time></trkpt><trkpt lat="43.5549483" lon="12.4254233"><ele>574.75</ele><time>2026-04-18T12:09:05.602Z</time></trkpt><trkpt lat="43.554875" lon="12.4252383"><ele>570.5</ele><time>2026-04-18T12:09:06.602Z</time></trkpt><trkpt lat="43.5548133" lon="12.4250633"><ele>566.25</ele><time>2026-04-18T12:09:07.602Z</time></trkpt><trkpt lat="43.554755" lon="12.4249033"><ele>562.0</ele><time>2026-04-18T12:09:08.601Z</time></trkpt><trkpt lat="43.554695" lon="12.4247567"><ele>562.3333333333334</ele><time>2026-04-18T12:09:09.602Z</time></trkpt><trkpt lat="43.5546433" lon="12.4246367"><ele>562.6666666666667</ele><time>2026-04-18T12:09:10.602Z</time></trkpt><trkpt lat="43.5545883" lon="12.4245533"><ele>563.0</ele><time>2026-04-18T12:09:11.602Z</time></trkpt><trkpt lat="43.55452" lon="12.4244933"><ele>563.3333333333334</ele><time>2026-04-18T12:09:12.602Z</time></trkpt><trkpt lat="43.5544533" lon="12.4244533"><ele>563.6666666666666</ele><time>2026-04-18T12:09:13.602Z</time></trkpt><trkpt lat="43.5543983" lon="12.42441"><ele>564.0</ele><time>2026-04-18T12:09:14.602Z</time></trkpt><trkpt lat="43.5543867" lon="12.42428"><ele>564.0</ele><time>2026-04-18T12:09:16.602Z</time></trkpt><trkpt lat="43.554505" lon="12.4242717"><ele>564.0</ele><time>2026-04-18T12:09:18.602Z</time></trkpt><trkpt lat="43.5545933" lon="12.4243267"><ele>564.0</ele><time>2026-04-18T12:09:19.602Z</time></trkpt><trkpt lat="43.5547017" lon="12.4244167"><ele>564.0</ele><time>2026-04-18T12:09:20.602Z</time></trkpt><trkpt lat="43.5548183" lon="12.42453"><ele>563.5</ele><time>2026-04-18T12:09:21.602Z</time></trkpt><trkpt lat="43.5549267" lon="12.424655"><ele>563.0</ele><time>2026-04-18T12:09:22.602Z</time></trkpt><trkpt lat="43.5550317" lon="12.4247867"><ele>562.5</ele><time>2026-04-18T12:09:23.602Z</time></trkpt><trkpt lat="43.555125" lon="12.424915"><ele>562.0</ele><time>2026-04-18T12:09:24.602Z</time></trkpt><trkpt lat="43.5552333" lon="12.4250183"><ele>562.0</ele><time>2026-04-18T12:09:25.602Z</time></trkpt><trkpt lat="43.5553317" lon="12.4251083"><ele>562.0</ele><time>2026-04-18T12:09:26.602Z</time></trkpt><trkpt lat="43.5554183" lon="12.4251867"><ele>562.0</ele><time>2026-04-18T12:09:27.602Z</time></trkpt><trkpt lat="43.5555" lon="12.4252517"><ele>562.0</ele><time>2026-04-18T12:09:28.602Z</time></trkpt><trkpt lat="43.55557" lon="12.425275"><ele>562.0</ele><time>2026-04-18T12:09:29.602Z</time></trkpt><trkpt lat="43.55564" lon="12.4252717"><ele>556.0</ele><time>2026-04-18T12:09:30.602Z</time></trkpt><trkpt lat="43.5557167" lon="12.4251683"><ele>550.0</ele><time>2026-04-18T12:09:32.602Z</time></trkpt><trkpt lat="43.5557133" lon="12.4250517"><ele>544.0</ele><time>2026-04-18T12:09:33.602Z</time></trkpt><trkpt lat="43.5556783" lon="12.4248817"><ele>538.0</ele><time>2026-04-18T12:09:34.602Z</time></trkpt><trkpt lat="43.5556233" lon="12.4246817"><ele>537.6666666666667</ele><time>2026-04-18T12:09:35.602Z</time></trkpt><trkpt lat="43.5555517" lon="12.424475"><ele>537.3333333333334</ele><time>2026-04-18T12:09:36.602Z</time></trkpt><trkpt lat="43.5554817" lon="12.4242817"><ele>537.0</ele><time>2026-04-18T12:09:37.602Z</time></trkpt><trkpt lat="43.55539" lon="12.4240817"><ele>536.75</ele><time>2026-04-18T12:09:38.602Z</time></trkpt><trkpt lat="43.55531" lon="12.42389"><ele>536.5</ele><time>2026-04-18T12:09:39.602Z</time></trkpt><trkpt lat="43.5552417" lon="12.4237133"><ele>536.25</ele><time>2026-04-18T12:09:40.602Z</time></trkpt><trkpt lat="43.5551733" lon="12.423545"><ele>536.0</ele><time>2026-04-18T12:09:41.602Z</time></trkpt><trkpt lat="43.5551017" lon="12.423385"><ele>536.0</ele><time>2026-04-18T12:09:42.602Z</time></trkpt><trkpt lat="43.5550333" lon="12.4232333"><ele>536.0</ele><time>2026-04-18T12:09:43.602Z</time></trkpt><trkpt lat="43.5549817" lon="12.4231"><ele>536.0</ele><time>2026-04-18T12:09:44.602Z</time></trkpt><trkpt lat="43.55496" lon="12.4229983"><ele>536.0</ele><time>2026-04-18T12:09:45.602Z</time></trkpt><trkpt lat="43.554985" lon="12.42288"><ele>536.0</ele><time>2026-04-18T12:09:47.601Z</time></trkpt><trkpt lat="43.5551017" lon="12.4229533"><ele>536.0</ele><time>2026-04-18T12:09:49.602Z</time></trkpt><trkpt lat="43.5551767" lon="12.4230683"><ele>536.0</ele><time>2026-04-18T12:09:50.602Z</time></trkpt><trkpt lat="43.555275" lon="12.4231733"><ele>536.0</ele><time>2026-04-18T12:09:51.602Z</time></trkpt><trkpt lat="43.5553817" lon="12.4232317"><ele>536.0</ele><time>2026-04-18T12:09:52.602Z</time></trkpt><trkpt lat="43.5555133" lon="12.4232617"><ele>533.0</ele><time>2026-04-18T12:09:53.602Z</time></trkpt><trkpt lat="43.5556633" lon="12.4232633"><ele>530.0</ele><time>2026-04-18T12:09:54.602Z</time></trkpt><trkpt lat="43.5558" lon="12.42326"><ele>527.0</ele><time>2026-04-18T12:09:55.602Z</time></trkpt><trkpt lat="43.5559267" lon="12.42326"><ele>524.0</ele><time>2026-04-18T12:09:56.602Z</time></trkpt><trkpt lat="43.556045" lon="12.4232667"><ele>524.0</ele><time>2026-04-18T12:09:57.602Z</time></trkpt><trkpt lat="43.5561483" lon="12.423295"><ele>524.0</ele><time>2026-04-18T12:09:58.602Z</time></trkpt><trkpt lat="43.55624" lon="12.4233633"><ele>524.0</ele><time>2026-04-18T12:09:59.602Z</time></trkpt><trkpt lat="43.556315" lon="12.4234583"><ele>524.0</ele><time>2026-04-18T12:10:00.602Z</time></trkpt><trkpt lat="43.5563733" lon="12.42359"><ele>524.0</ele><time>2026-04-18T12:10:01.602Z</time></trkpt><trkpt lat="43.5564317" lon="12.423745"><ele>520.0</ele><time>2026-04-18T12:10:02.602Z</time></trkpt><trkpt lat="43.5564933" lon="12.4239133"><ele>516.0</ele><time>2026-04-18T12:10:03.602Z</time></trkpt><trkpt lat="43.556575" lon="12.424065"><ele>512.0</ele><time>2026-04-18T12:10:04.602Z</time></trkpt><trkpt lat="43.55669" lon="12.4243217"><ele>512.0</ele><time>2026-04-18T12:10:06.602Z</time></trkpt><trkpt lat="43.5567233" lon="12.424415"><ele>512.0</ele><time>2026-04-18T12:10:07.602Z</time></trkpt><trkpt lat="43.5567517" lon="12.4244933"><ele>512.0</ele><time>2026-04-18T12:10:08.602Z</time></trkpt><trkpt lat="43.5568367" lon="12.4245517"><ele>512.0</ele><time>2026-04-18T12:10:10.602Z</time></trkpt><trkpt lat="43.55693" lon="12.4244467"><ele>512.0</ele><time>2026-04-18T12:10:12.602Z</time></trkpt><trkpt lat="43.55694" lon="12.4243117"><ele>512.0</ele><time>2026-04-18T12:10:13.602Z</time></trkpt><trkpt lat="43.556925" lon="12.4241483"><ele>512.0</ele><time>2026-04-18T12:10:14.602Z</time></trkpt><trkpt lat="43.5568983" lon="12.4239667"><ele>512.0</ele><time>2026-04-18T12:10:15.602Z</time></trkpt><trkpt lat="43.55686" lon="12.42376"><ele>512.0</ele><time>2026-04-18T12:10:16.602Z</time></trkpt><trkpt lat="43.5568167" lon="12.42357"><ele>509.20000000000005</ele><time>2026-04-18T12:10:17.602Z</time></trkpt><trkpt lat="43.55678" lon="12.4234033"><ele>506.40000000000003</ele><time>2026-04-18T12:10:18.602Z</time></trkpt><trkpt lat="43.55673" lon="12.4232517"><ele>503.59999999999997</ele><time>2026-04-18T12:10:19.602Z</time></trkpt><trkpt lat="43.5566883" lon="12.4231217"><ele>500.79999999999995</ele><time>2026-04-18T12:10:20.602Z</time></trkpt><trkpt lat="43.5566483" lon="12.4230267"><ele>498.0</ele><time>2026-04-18T12:10:21.602Z</time></trkpt><trkpt lat="43.55662" lon="12.422935"><ele>498.0</ele><time>2026-04-18T12:10:22.602Z</time></trkpt><trkpt lat="43.5566517" lon="12.4228133"><ele>497.99999999999994</ele><time>2026-04-18T12:10:24.602Z</time></trkpt><trkpt lat="43.5567617" lon="12.42283"><ele>497.99999999999994</ele><time>2026-04-18T12:10:26.602Z</time></trkpt><trkpt lat="43.55682" lon="12.4229167"><ele>498.0</ele><time>2026-04-18T12:10:27.602Z</time></trkpt><trkpt lat="43.5568583" lon="12.4230633"><ele>498.0</ele><time>2026-04-18T12:10:28.602Z</time></trkpt><trkpt lat="43.5568967" lon="12.42325"><ele>498.0</ele><time>2026-04-18T12:10:29.602Z</time></trkpt><trkpt lat="43.5569567" lon="12.4234417"><ele>498.0</ele><time>2026-04-18T12:10:30.602Z</time></trkpt><trkpt lat="43.5570233" lon="12.4236167"><ele>498.0</ele><time>2026-04-18T12:10:31.602Z</time></trkpt><trkpt lat="43.5570883" lon="12.4237733"><ele>498.0</ele><time>2026-04-18T12:10:32.602Z</time></trkpt><trkpt lat="43.55715" lon="12.4239083"><ele>495.59999999999997</ele><time>2026-04-18T12:10:33.602Z</time></trkpt><trkpt lat="43.5571983" lon="12.4240283"><ele>493.19999999999993</ele><time>2026-04-18T12:10:34.602Z</time></trkpt><trkpt lat="43.5572367" lon="12.424125"><ele>490.8</ele><time>2026-04-18T12:10:35.602Z</time></trkpt><trkpt lat="43.5573167" lon="12.42423"><ele>488.4</ele><time>2026-04-18T12:10:37.602Z</time></trkpt><trkpt lat="43.5573933" lon="12.4241733"><ele>486.0</ele><time>2026-04-18T12:10:39.602Z</time></trkpt><trkpt lat="43.5574083" lon="12.4239817"><ele>486.0</ele><time>2026-04-18T12:10:41.602Z</time></trkpt><trkpt lat="43.5573883" lon="12.4238383"><ele>486.0</ele><time>2026-04-18T12:10:42.602Z</time></trkpt><trkpt lat="43.5573617" lon="12.4236733"><ele>486.0</ele><time>2026-04-18T12:10:43.602Z</time></trkpt><trkpt lat="43.557335" lon="12.4235017"><ele>486.0</ele><time>2026-04-18T12:10:44.602Z</time></trkpt><trkpt lat="43.55728" lon="12.4233167"><ele>484.0</ele><time>2026-04-18T12:10:45.602Z</time></trkpt><trkpt lat="43.5572433" lon="12.42315"><ele>482.0</ele><time>2026-04-18T12:10:46.602Z</time></trkpt><trkpt lat="43.557215" lon="12.4229767"><ele>480.0</ele><time>2026-04-18T12:10:47.602Z</time></trkpt><trkpt lat="43.557195" lon="12.4228017"><ele>478.0</ele><time>2026-04-18T12:10:48.602Z</time></trkpt><trkpt lat="43.557185" lon="12.4226167"><ele>477.75</ele><time>2026-04-18T12:10:49.602Z</time></trkpt><trkpt lat="43.5571767" lon="12.4224283"><ele>477.5</ele><time>2026-04-18T12:10:50.602Z</time></trkpt><trkpt lat="43.5571717" lon="12.4222533"><ele>477.25</ele><time>2026-04-18T12:10:51.602Z</time></trkpt><trkpt lat="43.557165" lon="12.4220983"><ele>477.0</ele><time>2026-04-18T12:10:52.602Z</time></trkpt><trkpt lat="43.5571583" lon="12.4219517"><ele>476.20000000000005</ele><time>2026-04-18T12:10:53.602Z</time></trkpt><trkpt lat="43.5571567" lon="12.42181"><ele>475.40000000000003</ele><time>2026-04-18T12:10:54.602Z</time></trkpt><trkpt lat="43.5571683" lon="12.4216817"><ele>474.59999999999997</ele><time>2026-04-18T12:10:55.602Z</time></trkpt><trkpt lat="43.5571833" lon="12.421555"><ele>473.79999999999995</ele><time>2026-04-18T12:10:56.602Z</time></trkpt><trkpt lat="43.5571933" lon="12.421425"><ele>473.0</ele><time>2026-04-18T12:10:57.602Z</time></trkpt><trkpt lat="43.5572083" lon="12.4213183"><ele>473.59999999999997</ele><time>2026-04-18T12:10:58.602Z</time></trkpt><trkpt lat="43.55724" lon="12.4211767"><ele>474.19999999999993</ele><time>2026-04-18T12:11:00.602Z</time></trkpt><trkpt lat="43.5573" lon="12.4211033"><ele>474.8</ele><time>2026-04-18T12:11:03.602Z</time></trkpt><trkpt lat="43.5573733" lon="12.4210967"><ele>475.4</ele><time>2026-04-18T12:11:05.602Z</time></trkpt><trkpt lat="43.5575" lon="12.4211467"><ele>476.0</ele><time>2026-04-18T12:11:07.602Z</time></trkpt><trkpt lat="43.5575883" lon="12.4211733"><ele>476.0</ele><time>2026-04-18T12:11:08.602Z</time></trkpt><trkpt lat="43.5576767" lon="12.4211833"><ele>476.0</ele><time>2026-04-18T12:11:09.602Z</time></trkpt><trkpt lat="43.5577733" lon="12.421185"><ele>476.0</ele><time>2026-04-18T12:11:10.602Z</time></trkpt><trkpt lat="43.557885" lon="12.4211583"><ele>476.0</ele><time>2026-04-18T12:11:11.602Z</time></trkpt><trkpt lat="43.5580067" lon="12.42111"><ele>476.0</ele><time>2026-04-18T12:11:12.602Z</time></trkpt><trkpt lat="43.5581167" lon="12.4210517"><ele>476.0</ele><time>2026-04-18T12:11:13.602Z</time></trkpt><trkpt lat="43.55823" lon="12.4209717"><ele>476.0</ele><time>2026-04-18T12:11:14.602Z</time></trkpt><trkpt lat="43.558345" lon="12.420885"><ele>476.0</ele><time>2026-04-18T12:11:15.602Z</time></trkpt><trkpt lat="43.5584567" lon="12.4207983"><ele>476.0</ele><time>2026-04-18T12:11:16.602Z</time></trkpt><trkpt lat="43.5585533" lon="12.42071"><ele>476.0</ele><time>2026-04-18T12:11:17.602Z</time></trkpt><trkpt lat="43.5586467" lon="12.4206017"><ele>476.0</ele><time>2026-04-18T12:11:18.602Z</time></trkpt><trkpt lat="43.5587283" lon="12.42049"><ele>476.0</ele><time>2026-04-18T12:11:19.602Z</time></trkpt><trkpt lat="43.5587967" lon="12.4203867"><ele>476.0</ele><time>2026-04-18T12:11:20.602Z</time></trkpt><trkpt lat="43.5588633" lon="12.4203017"><ele>476.0</ele><time>2026-04-18T12:11:21.602Z</time></trkpt><trkpt lat="43.5589233" lon="12.4202383"><ele>475.8333333333333</ele><time>2026-04-18T12:11:22.602Z</time></trkpt><trkpt lat="43.5589767" lon="12.4201867"><ele>475.66666666666663</ele><time>2026-04-18T12:11:23.602Z</time></trkpt><trkpt lat="43.559035" lon="12.4201433"><ele>475.5</ele><time>2026-04-18T12:11:25.602Z</time></trkpt><trkpt lat="43.559085" lon="12.420255"><ele>475.33333333333337</ele><time>2026-04-18T12:11:28.602Z</time></trkpt><trkpt lat="43.559105" lon="12.4203583"><ele>475.1666666666667</ele><time>2026-04-18T12:11:29.602Z</time></trkpt><trkpt lat="43.55911" lon="12.420495"><ele>475.0</ele><time>2026-04-18T12:11:30.602Z</time></trkpt><trkpt lat="43.5591217" lon="12.4206533"><ele>475.0</ele><time>2026-04-18T12:11:31.602Z</time></trkpt><trkpt lat="43.5591267" lon="12.4208183"><ele>475.0</ele><time>2026-04-18T12:11:32.602Z</time></trkpt><trkpt lat="43.5591383" lon="12.4209833"><ele>475.0</ele><time>2026-04-18T12:11:33.602Z</time></trkpt><trkpt lat="43.5591533" lon="12.4211583"><ele>475.0</ele><time>2026-04-18T12:11:34.602Z</time></trkpt><trkpt lat="43.5591667" lon="12.4213333"><ele>475.75</ele><time>2026-04-18T12:11:35.602Z</time></trkpt><trkpt lat="43.5591867" lon="12.4215017"><ele>476.5</ele><time>2026-04-18T12:11:36.602Z</time></trkpt><trkpt lat="43.5592" lon="12.4216717"><ele>477.25</ele><time>2026-04-18T12:11:37.601Z</time></trkpt><trkpt lat="43.5592167" lon="12.4218483"><ele>478.0</ele><time>2026-04-18T12:11:38.601Z</time></trkpt><trkpt lat="43.559235" lon="12.42202"><ele>478.75</ele><time>2026-04-18T12:11:39.601Z</time></trkpt><trkpt lat="43.5592517" lon="12.4221967"><ele>479.5</ele><time>2026-04-18T12:11:40.601Z</time></trkpt><trkpt lat="43.5592533" lon="12.42237"><ele>480.25</ele><time>2026-04-18T12:11:41.601Z</time></trkpt><trkpt lat="43.559245" lon="12.422545"><ele>481.0</ele><time>2026-04-18T12:11:42.601Z</time></trkpt><trkpt lat="43.559235" lon="12.422715"><ele>481.0</ele><time>2026-04-18T12:11:43.601Z</time></trkpt><trkpt lat="43.5592183" lon="12.4228817"><ele>481.0</ele><time>2026-04-18T12:11:44.601Z</time></trkpt><trkpt lat="43.5592017" lon="12.4230483"><ele>481.0</ele><time>2026-04-18T12:11:45.601Z</time></trkpt><trkpt lat="43.559185" lon="12.4232083"><ele>481.0</ele><time>2026-04-18T12:11:46.601Z</time></trkpt><trkpt lat="43.5591733" lon="12.4233683"><ele>481.5</ele><time>2026-04-18T12:11:47.601Z</time></trkpt><trkpt lat="43.5591617" lon="12.4235333"><ele>482.0</ele><time>2026-04-18T12:11:48.601Z</time></trkpt><trkpt lat="43.55915" lon="12.4236967"><ele>482.5</ele><time>2026-04-18T12:11:49.601Z</time></trkpt><trkpt lat="43.559135" lon="12.4238533"><ele>483.0</ele><time>2026-04-18T12:11:50.601Z</time></trkpt><trkpt lat="43.5591383" lon="12.4240167"><ele>483.0</ele><time>2026-04-18T12:11:51.601Z</time></trkpt><trkpt lat="43.5591533" lon="12.4241767"><ele>483.0</ele><time>2026-04-18T12:11:52.601Z</time></trkpt><trkpt lat="43.5591917" lon="12.4243333"><ele>483.0</ele><time>2026-04-18T12:11:53.601Z</time></trkpt><trkpt lat="43.5592317" lon="12.42449"><ele>483.0</ele><time>2026-04-18T12:11:54.601Z</time></trkpt><trkpt lat="43.559265" lon="12.4246683"><ele>480.66666666666663</ele><time>2026-04-18T12:11:55.601Z</time></trkpt><trkpt lat="43.5592917" lon="12.4248533"><ele>478.3333333333333</ele><time>2026-04-18T12:11:56.601Z</time></trkpt><trkpt lat="43.5593283" lon="12.4250517"><ele>476.0</ele><time>2026-04-18T12:11:57.6Z</time></trkpt><trkpt lat="43.5593683" lon="12.4252767"><ele>475.0</ele><time>2026-04-18T12:11:58.601Z</time></trkpt><trkpt lat="43.5594017" lon="12.425515"><ele>474.0</ele><time>2026-04-18T12:11:59.601Z</time></trkpt><trkpt lat="43.5594417" lon="12.4257767"><ele>473.0</ele><time>2026-04-18T12:12:00.601Z</time></trkpt><trkpt lat="43.5594933" lon="12.4260533"><ele>477.66666666666663</ele><time>2026-04-18T12:12:01.601Z</time></trkpt><trkpt lat="43.559545" lon="12.426315"><ele>482.33333333333337</ele><time>2026-04-18T12:12:02.601Z</time></trkpt><trkpt lat="43.559615" lon="12.4265617"><ele>487.0</ele><time>2026-04-18T12:12:03.601Z</time></trkpt><trkpt lat="43.5597117" lon="12.4268067"><ele>487.0</ele><time>2026-04-18T12:12:04.601Z</time></trkpt><trkpt lat="43.5598417" lon="12.4270383"><ele>487.0</ele><time>2026-04-18T12:12:05.601Z</time></trkpt><trkpt lat="43.56001" lon="12.4272533"><ele>487.0</ele><time>2026-04-18T12:12:06.601Z</time></trkpt><trkpt lat="43.560185" lon="12.4274283"><ele>485.6666666666667</ele><time>2026-04-18T12:12:07.601Z</time></trkpt><trkpt lat="43.5603517" lon="12.4275717"><ele>484.33333333333337</ele><time>2026-04-18T12:12:08.601Z</time></trkpt><trkpt lat="43.560515" lon="12.4276817"><ele>483.0</ele><time>2026-04-18T12:12:09.601Z</time></trkpt><trkpt lat="43.5606717" lon="12.427795"><ele>483.0</ele><time>2026-04-18T12:12:10.601Z</time></trkpt><trkpt lat="43.5608283" lon="12.4278683"><ele>483.0</ele><time>2026-04-18T12:12:11.601Z</time></trkpt><trkpt lat="43.561" lon="12.427925"><ele>483.0</ele><time>2026-04-18T12:12:12.601Z</time></trkpt><trkpt lat="43.56116" lon="12.42796"><ele>478.66666666666663</ele><time>2026-04-18T12:12:13.601Z</time></trkpt><trkpt lat="43.5613267" lon="12.4279917"><ele>474.3333333333333</ele><time>2026-04-18T12:12:14.601Z</time></trkpt><trkpt lat="43.5614933" lon="12.4280317"><ele>470.0</ele><time>2026-04-18T12:12:15.601Z</time></trkpt><trkpt lat="43.5616617" lon="12.4280667"><ele>470.0</ele><time>2026-04-18T12:12:16.601Z</time></trkpt><trkpt lat="43.561825" lon="12.42811"><ele>470.0</ele><time>2026-04-18T12:12:17.601Z</time></trkpt><trkpt lat="43.561995" lon="12.4281533"><ele>470.0</ele><time>2026-04-18T12:12:18.601Z</time></trkpt><trkpt lat="43.5621733" lon="12.4281917"><ele>472.0</ele><time>2026-04-18T12:12:19.6Z</time></trkpt><trkpt lat="43.56234" lon="12.4282367"><ele>474.0</ele><time>2026-04-18T12:12:20.601Z</time></trkpt><trkpt lat="43.5625067" lon="12.42829"><ele>476.0</ele><time>2026-04-18T12:12:21.601Z</time></trkpt><trkpt lat="43.5626767" lon="12.42834"><ele>476.0</ele><time>2026-04-18T12:12:22.601Z</time></trkpt><trkpt lat="43.562845" lon="12.4283867"><ele>476.0</ele><time>2026-04-18T12:12:23.601Z</time></trkpt><trkpt lat="43.5630117" lon="12.428445"><ele>476.0</ele><time>2026-04-18T12:12:24.601Z</time></trkpt><trkpt lat="43.563175" lon="12.428505"><ele>483.5</ele><time>2026-04-18T12:12:25.601Z</time></trkpt><trkpt lat="43.5633417" lon="12.4285567"><ele>491.0</ele><time>2026-04-18T12:12:26.601Z</time></trkpt><trkpt lat="43.5636683" lon="12.42871"><ele>487.66666666666663</ele><time>2026-04-18T12:12:28.601Z</time></trkpt><trkpt lat="43.5638183" lon="12.42883"><ele>484.33333333333337</ele><time>2026-04-18T12:12:29.601Z</time></trkpt><trkpt lat="43.5639583" lon="12.4289783"><ele>481.0</ele><time>2026-04-18T12:12:30.601Z</time></trkpt><trkpt lat="43.5640833" lon="12.4291533"><ele>481.0</ele><time>2026-04-18T12:12:31.601Z</time></trkpt><trkpt lat="43.5642033" lon="12.4293383"><ele>481.0</ele><time>2026-04-18T12:12:32.601Z</time></trkpt><trkpt lat="43.56433" lon="12.4295433"><ele>481.0</ele><time>2026-04-18T12:12:33.601Z</time></trkpt><trkpt lat="43.5644433" lon="12.4297567"><ele>482.6666666666667</ele><time>2026-04-18T12:12:34.601Z</time></trkpt><trkpt lat="43.5645417" lon="12.4299717"><ele>484.33333333333337</ele><time>2026-04-18T12:12:35.601Z</time></trkpt><trkpt lat="43.5646217" lon="12.43017"><ele>486.0</ele><time>2026-04-18T12:12:36.601Z</time></trkpt><trkpt lat="43.56468" lon="12.430385"><ele>481.66666666666663</ele><time>2026-04-18T12:12:37.601Z</time></trkpt><trkpt lat="43.5647217" lon="12.4306167"><ele>477.3333333333333</ele><time>2026-04-18T12:12:38.601Z</time></trkpt><trkpt lat="43.564755" lon="12.43084"><ele>473.0</ele><time>2026-04-18T12:12:39.601Z</time></trkpt><trkpt lat="43.5648" lon="12.4310633"><ele>473.0</ele><time>2026-04-18T12:12:40.6Z</time></trkpt><trkpt lat="43.5648867" lon="12.431265"><ele>473.0</ele><time>2026-04-18T12:12:41.601Z</time></trkpt><trkpt lat="43.565" lon="12.4314533"><ele>473.0</ele><time>2026-04-18T12:12:42.601Z</time></trkpt><trkpt lat="43.56512" lon="12.43163"><ele>471.66666666666663</ele><time>2026-04-18T12:12:43.601Z</time></trkpt><trkpt lat="43.56525" lon="12.431815"><ele>470.33333333333337</ele><time>2026-04-18T12:12:44.601Z</time></trkpt><trkpt lat="43.5653767" lon="12.4319983"><ele>469.0</ele><time>2026-04-18T12:12:45.601Z</time></trkpt><trkpt lat="43.5655" lon="12.4321867"><ele>467.33333333333337</ele><time>2026-04-18T12:12:46.601Z</time></trkpt><trkpt lat="43.565625" lon="12.432375"><ele>465.66666666666663</ele><time>2026-04-18T12:12:47.601Z</time></trkpt><trkpt lat="43.5657467" lon="12.432565"><ele>464.0</ele><time>2026-04-18T12:12:48.601Z</time></trkpt><trkpt lat="43.565875" lon="12.4327567"><ele>464.0</ele><time>2026-04-18T12:12:49.601Z</time></trkpt><trkpt lat="43.5660033" lon="12.4329417"><ele>464.0</ele><time>2026-04-18T12:12:50.601Z</time></trkpt><trkpt lat="43.566125" lon="12.4331283"><ele>464.0</ele><time>2026-04-18T12:12:51.601Z</time></trkpt><trkpt lat="43.5662517" lon="12.4333133"><ele>464.66666666666663</ele><time>2026-04-18T12:12:52.601Z</time></trkpt><trkpt lat="43.5663867" lon="12.4334933"><ele>465.33333333333337</ele><time>2026-04-18T12:12:53.601Z</time></trkpt><trkpt lat="43.5665133" lon="12.4336817"><ele>466.0</ele><time>2026-04-18T12:12:54.601Z</time></trkpt><trkpt lat="43.5666467" lon="12.4338567"><ele>466.0</ele><time>2026-04-18T12:12:55.601Z</time></trkpt><trkpt lat="43.5668033" lon="12.4340033"><ele>466.0</ele><time>2026-04-18T12:12:56.601Z</time></trkpt><trkpt lat="43.5669717" lon="12.4341433"><ele>466.0</ele><time>2026-04-18T12:12:57.601Z</time></trkpt><trkpt lat="43.5671367" lon="12.4342717"><ele>463.33333333333337</ele><time>2026-04-18T12:12:58.601Z</time></trkpt><trkpt lat="43.5673017" lon="12.4343967"><ele>460.66666666666663</ele><time>2026-04-18T12:12:59.601Z</time></trkpt><trkpt lat="43.5674717" lon="12.4345117"><ele>458.0</ele><time>2026-04-18T12:13:00.601Z</time></trkpt><trkpt lat="43.5676417" lon="12.43462"><ele>458.3333333333333</ele><time>2026-04-18T12:13:01.601Z</time></trkpt><trkpt lat="43.5678133" lon="12.4347283"><ele>458.66666666666663</ele><time>2026-04-18T12:13:02.601Z</time></trkpt><trkpt lat="43.5679833" lon="12.4348317"><ele>459.0</ele><time>2026-04-18T12:13:03.601Z</time></trkpt><trkpt lat="43.56815" lon="12.4349383"><ele>459.0</ele><time>2026-04-18T12:13:04.601Z</time></trkpt><trkpt lat="43.5683217" lon="12.4350467"><ele>459.0</ele><time>2026-04-18T12:13:05.601Z</time></trkpt><trkpt lat="43.5684833" lon="12.4351567"><ele>459.0</ele><time>2026-04-18T12:13:06.601Z</time></trkpt><trkpt lat="43.5686483" lon="12.43527"><ele>459.66666666666663</ele><time>2026-04-18T12:13:07.601Z</time></trkpt><trkpt lat="43.5688033" lon="12.4353817"><ele>460.3333333333333</ele><time>2026-04-18T12:13:08.601Z</time></trkpt><trkpt lat="43.5689533" lon="12.4355183"><ele>461.0</ele><time>2026-04-18T12:13:09.601Z</time></trkpt><trkpt lat="43.56908" lon="12.4356883"><ele>461.0</ele><time>2026-04-18T12:13:10.601Z</time></trkpt><trkpt lat="43.5691783" lon="12.4358933"><ele>461.0</ele><time>2026-04-18T12:13:11.601Z</time></trkpt><trkpt lat="43.5692567" lon="12.4361183"><ele>461.0</ele><time>2026-04-18T12:13:12.601Z</time></trkpt><trkpt lat="43.5693183" lon="12.4363567"><ele>460.0</ele><time>2026-04-18T12:13:13.601Z</time></trkpt><trkpt lat="43.5693783" lon="12.4365983"><ele>459.0</ele><time>2026-04-18T12:13:14.601Z</time></trkpt><trkpt lat="43.5694417" lon="12.4368417"><ele>458.0</ele><time>2026-04-18T12:13:15.601Z</time></trkpt><trkpt lat="43.5695133" lon="12.4370883"><ele>458.0</ele><time>2026-04-18T12:13:16.601Z</time></trkpt><trkpt lat="43.5695883" lon="12.4373383"><ele>458.0</ele><time>2026-04-18T12:13:17.601Z</time></trkpt><trkpt lat="43.56967" lon="12.4375883"><ele>458.0</ele><time>2026-04-18T12:13:18.601Z</time></trkpt><trkpt lat="43.5697567" lon="12.43784"><ele>458.3333333333333</ele><time>2026-04-18T12:13:19.601Z</time></trkpt><trkpt lat="43.5698517" lon="12.4380983"><ele>458.66666666666663</ele><time>2026-04-18T12:13:20.601Z</time></trkpt><trkpt lat="43.5699467" lon="12.4383517"><ele>459.0</ele><time>2026-04-18T12:13:21.601Z</time></trkpt><trkpt lat="43.570045" lon="12.438615"><ele>458.66666666666663</ele><time>2026-04-18T12:13:22.601Z</time></trkpt><trkpt lat="43.570135" lon="12.4388733"><ele>458.3333333333333</ele><time>2026-04-18T12:13:23.601Z</time></trkpt><trkpt lat="43.5702267" lon="12.4391283"><ele>458.0</ele><time>2026-04-18T12:13:24.601Z</time></trkpt><trkpt lat="43.57032" lon="12.439375"><ele>459.66666666666663</ele><time>2026-04-18T12:13:25.601Z</time></trkpt><trkpt lat="43.5704217" lon="12.4396083"><ele>461.33333333333337</ele><time>2026-04-18T12:13:26.601Z</time></trkpt><trkpt lat="43.5705267" lon="12.4398283"><ele>463.0</ele><time>2026-04-18T12:13:27.601Z</time></trkpt><trkpt lat="43.5706617" lon="12.4400333"><ele>463.0</ele><time>2026-04-18T12:13:28.601Z</time></trkpt><trkpt lat="43.5708" lon="12.4402233"><ele>463.0</ele><time>2026-04-18T12:13:29.601Z</time></trkpt><trkpt lat="43.5709567" lon="12.4403833"><ele>463.0</ele><time>2026-04-18T12:13:30.601Z</time></trkpt><trkpt lat="43.57113" lon="12.44053"><ele>463.33333333333337</ele><time>2026-04-18T12:13:31.601Z</time></trkpt><trkpt lat="43.5713167" lon="12.44065"><ele>463.66666666666663</ele><time>2026-04-18T12:13:32.601Z</time></trkpt><trkpt lat="43.5714967" lon="12.4407683"><ele>464.0</ele><time>2026-04-18T12:13:33.601Z</time></trkpt><trkpt lat="43.5716783" lon="12.44091"><ele>464.0</ele><time>2026-04-18T12:13:34.601Z</time></trkpt><trkpt lat="43.5718417" lon="12.4410633"><ele>464.0</ele><time>2026-04-18T12:13:35.601Z</time></trkpt><trkpt lat="43.5720067" lon="12.4412217"><ele>464.0</ele><time>2026-04-18T12:13:36.601Z</time></trkpt><trkpt lat="43.57217" lon="12.44138"><ele>462.3333333333333</ele><time>2026-04-18T12:13:37.601Z</time></trkpt><trkpt lat="43.5723383" lon="12.44154"><ele>460.66666666666663</ele><time>2026-04-18T12:13:38.601Z</time></trkpt><trkpt lat="43.5725033" lon="12.4417"><ele>459.0</ele><time>2026-04-18T12:13:39.601Z</time></trkpt><trkpt lat="43.572665" lon="12.4418667"><ele>459.0</ele><time>2026-04-18T12:13:40.601Z</time></trkpt><trkpt lat="43.5728233" lon="12.44201"><ele>459.0</ele><time>2026-04-18T12:13:41.601Z</time></trkpt><trkpt lat="43.5729883" lon="12.442145"><ele>459.0</ele><time>2026-04-18T12:13:42.601Z</time></trkpt><trkpt lat="43.5731583" lon="12.4422617"><ele>460.33333333333337</ele><time>2026-04-18T12:13:43.601Z</time></trkpt><trkpt lat="43.573345" lon="12.4423717"><ele>461.6666666666667</ele><time>2026-04-18T12:13:44.601Z</time></trkpt><trkpt lat="43.5735217" lon="12.442475"><ele>463.0</ele><time>2026-04-18T12:13:45.601Z</time></trkpt><trkpt lat="43.5736917" lon="12.4425833"><ele>463.0</ele><time>2026-04-18T12:13:46.601Z</time></trkpt><trkpt lat="43.57386" lon="12.4426933"><ele>463.0</ele><time>2026-04-18T12:13:47.601Z</time></trkpt><trkpt lat="43.5740283" lon="12.4428067"><ele>463.0</ele><time>2026-04-18T12:13:48.601Z</time></trkpt><trkpt lat="43.5741933" lon="12.4429183"><ele>460.6666666666667</ele><time>2026-04-18T12:13:49.601Z</time></trkpt><trkpt lat="43.574355" lon="12.4430317"><ele>458.33333333333337</ele><time>2026-04-18T12:13:50.601Z</time></trkpt><trkpt lat="43.57452" lon="12.4431483"><ele>456.0</ele><time>2026-04-18T12:13:51.601Z</time></trkpt><trkpt lat="43.574685" lon="12.443265"><ele>456.0</ele><time>2026-04-18T12:13:52.601Z</time></trkpt><trkpt lat="43.57485" lon="12.4433717"><ele>456.0</ele><time>2026-04-18T12:13:53.601Z</time></trkpt><trkpt lat="43.575005" lon="12.4434517"><ele>456.0</ele><time>2026-04-18T12:13:54.601Z</time></trkpt><trkpt lat="43.5751733" lon="12.4435183"><ele>456.0</ele><time>2026-04-18T12:13:55.601Z</time></trkpt><trkpt lat="43.5753533" lon="12.443575"><ele>456.0</ele><time>2026-04-18T12:13:56.601Z</time></trkpt><trkpt lat="43.5755283" lon="12.4436267"><ele>456.0</ele><time>2026-04-18T12:13:57.601Z</time></trkpt><trkpt lat="43.575695" lon="12.4436783"><ele>458.66666666666663</ele><time>2026-04-18T12:13:58.6Z</time></trkpt><trkpt lat="43.57585" lon="12.4437383"><ele>461.3333333333333</ele><time>2026-04-18T12:13:59.6Z</time></trkpt><trkpt lat="43.57601" lon="12.4437967"><ele>464.0</ele><time>2026-04-18T12:14:00.601Z</time></trkpt><trkpt lat="43.5761717" lon="12.4438533"><ele>462.0</ele><time>2026-04-18T12:14:01.601Z</time></trkpt><trkpt lat="43.57632" lon="12.4439183"><ele>460.0</ele><time>2026-04-18T12:14:02.601Z</time></trkpt><trkpt lat="43.5764533" lon="12.4440083"><ele>458.0</ele><time>2026-04-18T12:14:03.601Z</time></trkpt><trkpt lat="43.5765733" lon="12.4441467"><ele>458.0</ele><time>2026-04-18T12:14:04.601Z</time></trkpt><trkpt lat="43.5766817" lon="12.4443133"><ele>458.0</ele><time>2026-04-18T12:14:05.601Z</time></trkpt><trkpt lat="43.5767817" lon="12.44451"><ele>458.0</ele><time>2026-04-18T12:14:06.601Z</time></trkpt><trkpt lat="43.5768583" lon="12.4447333"><ele>459.3333333333333</ele><time>2026-04-18T12:14:07.601Z</time></trkpt><trkpt lat="43.576925" lon="12.44496"><ele>460.66666666666663</ele><time>2026-04-18T12:14:08.601Z</time></trkpt><trkpt lat="43.5769933" lon="12.44517"><ele>462.0</ele><time>2026-04-18T12:14:09.601Z</time></trkpt><trkpt lat="43.57708" lon="12.4453517"><ele>457.0</ele><time>2026-04-18T12:14:10.601Z</time></trkpt><trkpt lat="43.5771917" lon="12.4455083"><ele>452.0</ele><time>2026-04-18T12:14:11.601Z</time></trkpt><trkpt lat="43.5773267" lon="12.44566"><ele>447.0</ele><time>2026-04-18T12:14:12.601Z</time></trkpt><trkpt lat="43.5774517" lon="12.4457983"><ele>447.0</ele><time>2026-04-18T12:14:13.601Z</time></trkpt><trkpt lat="43.5775783" lon="12.44593"><ele>447.0</ele><time>2026-04-18T12:14:14.601Z</time></trkpt><trkpt lat="43.5777033" lon="12.446065"><ele>447.0</ele><time>2026-04-18T12:14:15.601Z</time></trkpt><trkpt lat="43.5778333" lon="12.446195"><ele>447.0</ele><time>2026-04-18T12:14:16.601Z</time></trkpt><trkpt lat="43.5779533" lon="12.44634"><ele>447.0</ele><time>2026-04-18T12:14:17.601Z</time></trkpt><trkpt lat="43.5780633" lon="12.4465"><ele>447.0</ele><time>2026-04-18T12:14:18.601Z</time></trkpt><trkpt lat="43.578165" lon="12.4466817"><ele>447.0</ele><time>2026-04-18T12:14:19.601Z</time></trkpt><trkpt lat="43.57824" lon="12.4468867"><ele>447.0</ele><time>2026-04-18T12:14:20.601Z</time></trkpt><trkpt lat="43.5783" lon="12.4471033"><ele>447.0</ele><time>2026-04-18T12:14:21.601Z</time></trkpt><trkpt lat="43.5783583" lon="12.44732"><ele>444.66666666666663</ele><time>2026-04-18T12:14:22.601Z</time></trkpt><trkpt lat="43.5784333" lon="12.4475367"><ele>442.3333333333333</ele><time>2026-04-18T12:14:23.601Z</time></trkpt><trkpt lat="43.5785167" lon="12.4477483"><ele>440.0</ele><time>2026-04-18T12:14:24.601Z</time></trkpt><trkpt lat="43.5786167" lon="12.4479533"><ele>441.3333333333333</ele><time>2026-04-18T12:14:25.601Z</time></trkpt><trkpt lat="43.578735" lon="12.4481467"><ele>442.66666666666663</ele><time>2026-04-18T12:14:26.601Z</time></trkpt><trkpt lat="43.5788667" lon="12.4483283"><ele>444.0</ele><time>2026-04-18T12:14:27.601Z</time></trkpt><trkpt lat="43.579" lon="12.4485"><ele>444.0</ele><time>2026-04-18T12:14:28.601Z</time></trkpt><trkpt lat="43.579115" lon="12.4486667"><ele>444.0</ele><time>2026-04-18T12:14:29.601Z</time></trkpt><trkpt lat="43.5792267" lon="12.4488333"><ele>444.0</ele><time>2026-04-18T12:14:30.601Z</time></trkpt><trkpt lat="43.57934" lon="12.448995"><ele>443.33333333333337</ele><time>2026-04-18T12:14:31.601Z</time></trkpt><trkpt lat="43.57945" lon="12.44914"><ele>442.6666666666667</ele><time>2026-04-18T12:14:32.601Z</time></trkpt><trkpt lat="43.5795667" lon="12.4493167"><ele>442.0</ele><time>2026-04-18T12:14:33.601Z</time></trkpt><trkpt lat="43.5796817" lon="12.4494633"><ele>438.6666666666667</ele><time>2026-04-18T12:14:34.601Z</time></trkpt><trkpt lat="43.579795" lon="12.4496383"><ele>435.33333333333337</ele><time>2026-04-18T12:14:35.601Z</time></trkpt><trkpt lat="43.579905" lon="12.4498233"><ele>432.0</ele><time>2026-04-18T12:14:36.601Z</time></trkpt><trkpt lat="43.5800017" lon="12.4500133"><ele>432.0</ele><time>2026-04-18T12:14:37.601Z</time></trkpt><trkpt lat="43.5800767" lon="12.45022"><ele>432.0</ele><time>2026-04-18T12:14:38.601Z</time></trkpt><trkpt lat="43.580115" lon="12.4504383"><ele>432.0</ele><time>2026-04-18T12:14:39.601Z</time></trkpt><trkpt lat="43.5801167" lon="12.4506733"><ele>432.66666666666663</ele><time>2026-04-18T12:14:40.601Z</time></trkpt><trkpt lat="43.5800883" lon="12.4509033"><ele>433.3333333333333</ele><time>2026-04-18T12:14:41.601Z</time></trkpt><trkpt lat="43.5800467" lon="12.451125"><ele>434.0</ele><time>2026-04-18T12:14:42.601Z</time></trkpt><trkpt lat="43.580015" lon="12.4513633"><ele>434.3333333333333</ele><time>2026-04-18T12:14:43.601Z</time></trkpt><trkpt lat="43.5800033" lon="12.45159"><ele>434.66666666666663</ele><time>2026-04-18T12:14:44.601Z</time></trkpt><trkpt lat="43.5800017" lon="12.4518"><ele>435.0</ele><time>2026-04-18T12:14:45.601Z</time></trkpt><trkpt lat="43.580025" lon="12.4519983"><ele>432.5</ele><time>2026-04-18T12:14:46.601Z</time></trkpt><trkpt lat="43.5800783" lon="12.4521883"><ele>430.0</ele><time>2026-04-18T12:14:47.601Z</time></trkpt><trkpt lat="43.58015" lon="12.4523733"><ele>427.5</ele><time>2026-04-18T12:14:48.601Z</time></trkpt><trkpt lat="43.580235" lon="12.4525283"><ele>425.0</ele><time>2026-04-18T12:14:49.601Z</time></trkpt><trkpt lat="43.5803417" lon="12.4526783"><ele>426.66666666666663</ele><time>2026-04-18T12:14:50.601Z</time></trkpt><trkpt lat="43.5804517" lon="12.4528167"><ele>428.33333333333337</ele><time>2026-04-18T12:14:51.601Z</time></trkpt><trkpt lat="43.5805517" lon="12.4529733"><ele>430.0</ele><time>2026-04-18T12:14:52.601Z</time></trkpt><trkpt lat="43.5806283" lon="12.4531567"><ele>430.0</ele><time>2026-04-18T12:14:53.601Z</time></trkpt><trkpt lat="43.5806783" lon="12.453365"><ele>430.0</ele><time>2026-04-18T12:14:54.601Z</time></trkpt><trkpt lat="43.5807033" lon="12.45359"><ele>430.0</ele><time>2026-04-18T12:14:55.601Z</time></trkpt><trkpt lat="43.5807017" lon="12.4538183"><ele>427.33333333333337</ele><time>2026-04-18T12:14:56.601Z</time></trkpt><trkpt lat="43.5806817" lon="12.4540417"><ele>424.66666666666663</ele><time>2026-04-18T12:14:57.601Z</time></trkpt><trkpt lat="43.5806567" lon="12.4542483"><ele>422.0</ele><time>2026-04-18T12:14:58.601Z</time></trkpt><trkpt lat="43.5806333" lon="12.4544467"><ele>421.5</ele><time>2026-04-18T12:14:59.601Z</time></trkpt><trkpt lat="43.5806167" lon="12.454635"><ele>421.0</ele><time>2026-04-18T12:15:00.6Z</time></trkpt><trkpt lat="43.580605" lon="12.4548217"><ele>420.5</ele><time>2026-04-18T12:15:01.601Z</time></trkpt><trkpt lat="43.58059" lon="12.455015"><ele>420.0</ele><time>2026-04-18T12:15:02.601Z</time></trkpt><trkpt lat="43.5805767" lon="12.455225"><ele>420.0</ele><time>2026-04-18T12:15:03.601Z</time></trkpt><trkpt lat="43.5805617" lon="12.4554517"><ele>420.0</ele><time>2026-04-18T12:15:04.601Z</time></trkpt><trkpt lat="43.5805517" lon="12.4556833"><ele>420.0</ele><time>2026-04-18T12:15:05.601Z</time></trkpt><trkpt lat="43.580535" lon="12.455925"><ele>418.66666666666663</ele><time>2026-04-18T12:15:06.601Z</time></trkpt><trkpt lat="43.5805133" lon="12.4561667"><ele>417.3333333333333</ele><time>2026-04-18T12:15:07.601Z</time></trkpt><trkpt lat="43.580485" lon="12.4564017"><ele>416.0</ele><time>2026-04-18T12:15:08.601Z</time></trkpt><trkpt lat="43.5804433" lon="12.4566333"><ele>416.0</ele><time>2026-04-18T12:15:09.601Z</time></trkpt><trkpt lat="43.580385" lon="12.4568667"><ele>416.0</ele><time>2026-04-18T12:15:10.601Z</time></trkpt><trkpt lat="43.5803217" lon="12.4570967"><ele>416.0</ele><time>2026-04-18T12:15:11.601Z</time></trkpt><trkpt lat="43.580255" lon="12.4573367"><ele>416.3333333333333</ele><time>2026-04-18T12:15:12.601Z</time></trkpt><trkpt lat="43.5801867" lon="12.4575717"><ele>416.66666666666663</ele><time>2026-04-18T12:15:13.601Z</time></trkpt><trkpt lat="43.580115" lon="12.4578117"><ele>417.0</ele><time>2026-04-18T12:15:14.601Z</time></trkpt><trkpt lat="43.5800467" lon="12.45805"><ele>418.33333333333337</ele><time>2026-04-18T12:15:15.601Z</time></trkpt><trkpt lat="43.5799783" lon="12.4582833"><ele>419.6666666666667</ele><time>2026-04-18T12:15:16.601Z</time></trkpt><trkpt lat="43.5799117" lon="12.4585433"><ele>421.0</ele><time>2026-04-18T12:15:17.601Z</time></trkpt><trkpt lat="43.57985" lon="12.4588017"><ele>425.0</ele><time>2026-04-18T12:15:18.601Z</time></trkpt><trkpt lat="43.5797733" lon="12.4590433"><ele>429.0</ele><time>2026-04-18T12:15:19.601Z</time></trkpt><trkpt lat="43.5797033" lon="12.4592833"><ele>433.0</ele><time>2026-04-18T12:15:20.601Z</time></trkpt><trkpt lat="43.5796383" lon="12.4595167"><ele>426.0</ele><time>2026-04-18T12:15:21.601Z</time></trkpt><trkpt lat="43.5795717" lon="12.459745"><ele>419.0</ele><time>2026-04-18T12:15:22.601Z</time></trkpt><trkpt lat="43.5795017" lon="12.4599683"><ele>412.0</ele><time>2026-04-18T12:15:23.601Z</time></trkpt><trkpt lat="43.5794283" lon="12.460185"><ele>412.0</ele><time>2026-04-18T12:15:24.601Z</time></trkpt><trkpt lat="43.5793683" lon="12.4604133"><ele>412.0</ele><time>2026-04-18T12:15:25.601Z</time></trkpt><trkpt lat="43.5793283" lon="12.4606517"><ele>412.0</ele><time>2026-04-18T12:15:26.601Z</time></trkpt><trkpt lat="43.5792967" lon="12.46089"><ele>412.33333333333337</ele><time>2026-04-18T12:15:27.601Z</time></trkpt><trkpt lat="43.579285" lon="12.4611433"><ele>412.66666666666663</ele><time>2026-04-18T12:15:28.601Z</time></trkpt><trkpt lat="43.57928" lon="12.46139"><ele>413.0</ele><time>2026-04-18T12:15:29.601Z</time></trkpt><trkpt lat="43.579275" lon="12.4616367"><ele>413.66666666666663</ele><time>2026-04-18T12:15:30.601Z</time></trkpt><trkpt lat="43.5792683" lon="12.4618717"><ele>414.33333333333337</ele><time>2026-04-18T12:15:31.601Z</time></trkpt><trkpt lat="43.57926" lon="12.4621067"><ele>415.0</ele><time>2026-04-18T12:15:32.601Z</time></trkpt><trkpt lat="43.57923" lon="12.4623333"><ele>415.33333333333337</ele><time>2026-04-18T12:15:33.601Z</time></trkpt><trkpt lat="43.57918" lon="12.4625583"><ele>415.66666666666663</ele><time>2026-04-18T12:15:34.601Z</time></trkpt><trkpt lat="43.5791017" lon="12.462775"><ele>416.0</ele><time>2026-04-18T12:15:35.601Z</time></trkpt><trkpt lat="43.5789983" lon="12.462975"><ele>418.0</ele><time>2026-04-18T12:15:36.601Z</time></trkpt><trkpt lat="43.5788733" lon="12.4631567"><ele>420.0</ele><time>2026-04-18T12:15:37.601Z</time></trkpt><trkpt lat="43.5787367" lon="12.4633217"><ele>422.0</ele><time>2026-04-18T12:15:38.601Z</time></trkpt><trkpt lat="43.5785883" lon="12.4634733"><ele>421.3333333333333</ele><time>2026-04-18T12:15:39.601Z</time></trkpt><trkpt lat="43.578435" lon="12.4636283"><ele>420.66666666666663</ele><time>2026-04-18T12:15:40.601Z</time></trkpt><trkpt lat="43.5782833" lon="12.4637783"><ele>420.0</ele><time>2026-04-18T12:15:41.601Z</time></trkpt><trkpt lat="43.5781383" lon="12.4639333"><ele>420.0</ele><time>2026-04-18T12:15:42.6Z</time></trkpt><trkpt lat="43.5779917" lon="12.4640817"><ele>420.0</ele><time>2026-04-18T12:15:43.601Z</time></trkpt><trkpt lat="43.5778617" lon="12.4642333"><ele>420.0</ele><time>2026-04-18T12:15:44.601Z</time></trkpt><trkpt lat="43.5777233" lon="12.46437"><ele>417.33333333333337</ele><time>2026-04-18T12:15:45.601Z</time></trkpt><trkpt lat="43.5775733" lon="12.464515"><ele>414.6666666666667</ele><time>2026-04-18T12:15:46.601Z</time></trkpt><trkpt lat="43.57743" lon="12.4646617"><ele>412.0</ele><time>2026-04-18T12:15:47.601Z</time></trkpt><trkpt lat="43.5773017" lon="12.464795"><ele>412.0</ele><time>2026-04-18T12:15:48.601Z</time></trkpt><trkpt lat="43.57718" lon="12.4649483"><ele>412.0</ele><time>2026-04-18T12:15:49.601Z</time></trkpt><trkpt lat="43.5770733" lon="12.4651433"><ele>412.0</ele><time>2026-04-18T12:15:50.601Z</time></trkpt><trkpt lat="43.5769983" lon="12.4653533"><ele>406.33333333333337</ele><time>2026-04-18T12:15:51.601Z</time></trkpt><trkpt lat="43.57695" lon="12.4655683"><ele>400.66666666666663</ele><time>2026-04-18T12:15:52.601Z</time></trkpt><trkpt lat="43.5769267" lon="12.4657933"><ele>395.0</ele><time>2026-04-18T12:15:53.601Z</time></trkpt><trkpt lat="43.5769217" lon="12.46601"><ele>395.0</ele><time>2026-04-18T12:15:54.601Z</time></trkpt><trkpt lat="43.5769217" lon="12.46623"><ele>395.0</ele><time>2026-04-18T12:15:55.601Z</time></trkpt><trkpt lat="43.5769433" lon="12.4664617"><ele>395.0</ele><time>2026-04-18T12:15:56.601Z</time></trkpt><trkpt lat="43.5769717" lon="12.4666767"><ele>397.3333333333333</ele><time>2026-04-18T12:15:57.601Z</time></trkpt><trkpt lat="43.5770383" lon="12.466885"><ele>399.66666666666663</ele><time>2026-04-18T12:15:58.601Z</time></trkpt><trkpt lat="43.5771133" lon="12.467085"><ele>402.0</ele><time>2026-04-18T12:15:59.601Z</time></trkpt><trkpt lat="43.5772117" lon="12.4672633"><ele>403.66666666666663</ele><time>2026-04-18T12:16:00.601Z</time></trkpt><trkpt lat="43.5773433" lon="12.4674217"><ele>405.3333333333333</ele><time>2026-04-18T12:16:01.601Z</time></trkpt><trkpt lat="43.5774867" lon="12.4675717"><ele>407.0</ele><time>2026-04-18T12:16:02.601Z</time></trkpt><trkpt lat="43.5776267" lon="12.46773"><ele>407.0</ele><time>2026-04-18T12:16:03.601Z</time></trkpt><trkpt lat="43.5777617" lon="12.46789"><ele>407.0</ele><time>2026-04-18T12:16:04.601Z</time></trkpt><trkpt lat="43.5779" lon="12.4680433"><ele>407.0</ele><time>2026-04-18T12:16:05.601Z</time></trkpt><trkpt lat="43.57803" lon="12.4681883"><ele>405.3333333333333</ele><time>2026-04-18T12:16:06.601Z</time></trkpt><trkpt lat="43.5781567" lon="12.46833"><ele>403.66666666666663</ele><time>2026-04-18T12:16:07.601Z</time></trkpt><trkpt lat="43.578265" lon="12.4684817"><ele>402.0</ele><time>2026-04-18T12:16:08.601Z</time></trkpt><trkpt lat="43.578375" lon="12.4686267"><ele>402.0</ele><time>2026-04-18T12:16:09.601Z</time></trkpt><trkpt lat="43.578475" lon="12.4687717"><ele>402.0</ele><time>2026-04-18T12:16:10.601Z</time></trkpt><trkpt lat="43.57856" lon="12.4689167"><ele>402.0</ele><time>2026-04-18T12:16:11.601Z</time></trkpt><trkpt lat="43.5786417" lon="12.4690633"><ele>402.0</ele><time>2026-04-18T12:16:12.601Z</time></trkpt><trkpt lat="43.5786967" lon="12.4692117"><ele>404.25</ele><time>2026-04-18T12:16:13.6Z</time></trkpt><trkpt lat="43.5787033" lon="12.4693717"><ele>406.5</ele><time>2026-04-18T12:16:14.601Z</time></trkpt><trkpt lat="43.5786667" lon="12.4695383"><ele>408.75</ele><time>2026-04-18T12:16:15.601Z</time></trkpt><trkpt lat="43.5786" lon="12.4697083"><ele>411.0</ele><time>2026-04-18T12:16:16.601Z</time></trkpt><trkpt lat="43.5785217" lon="12.4698767"><ele>411.0</ele><time>2026-04-18T12:16:17.601Z</time></trkpt><trkpt lat="43.5784383" lon="12.4700467"><ele>411.0</ele><time>2026-04-18T12:16:18.601Z</time></trkpt><trkpt lat="43.578355" lon="12.470215"><ele>411.0</ele><time>2026-04-18T12:16:19.601Z</time></trkpt><trkpt lat="43.57828" lon="12.47039"><ele>411.0</ele><time>2026-04-18T12:16:20.601Z</time></trkpt><trkpt lat="43.5782217" lon="12.47059"><ele>405.33333333333337</ele><time>2026-04-18T12:16:21.6Z</time></trkpt><trkpt lat="43.5781817" lon="12.4708017"><ele>399.6666666666667</ele><time>2026-04-18T12:16:22.601Z</time></trkpt><trkpt lat="43.578145" lon="12.471015"><ele>394.0</ele><time>2026-04-18T12:16:23.601Z</time></trkpt><trkpt lat="43.5781067" lon="12.4712317"><ele>391.33333333333337</ele><time>2026-04-18T12:16:24.601Z</time></trkpt><trkpt lat="43.57807" lon="12.4714533"><ele>388.66666666666663</ele><time>2026-04-18T12:16:25.601Z</time></trkpt><trkpt lat="43.5780317" lon="12.47168"><ele>386.0</ele><time>2026-04-18T12:16:26.601Z</time></trkpt><trkpt lat="43.5780017" lon="12.4719217"><ele>385.66666666666663</ele><time>2026-04-18T12:16:27.601Z</time></trkpt><trkpt lat="43.5779683" lon="12.4721633"><ele>385.33333333333337</ele><time>2026-04-18T12:16:28.601Z</time></trkpt><trkpt lat="43.5779317" lon="12.47239"><ele>385.0</ele><time>2026-04-18T12:16:29.601Z</time></trkpt><trkpt lat="43.5778933" lon="12.472625"><ele>385.0</ele><time>2026-04-18T12:16:30.601Z</time></trkpt><trkpt lat="43.577875" lon="12.4728583"><ele>385.0</ele><time>2026-04-18T12:16:31.601Z</time></trkpt><trkpt lat="43.577875" lon="12.4730983"><ele>385.0</ele><time>2026-04-18T12:16:32.601Z</time></trkpt><trkpt lat="43.57789" lon="12.4733417"><ele>385.6666666666667</ele><time>2026-04-18T12:16:33.601Z</time></trkpt><trkpt lat="43.5779183" lon="12.473575"><ele>386.33333333333337</ele><time>2026-04-18T12:16:34.601Z</time></trkpt><trkpt lat="43.57796" lon="12.4737983"><ele>387.0</ele><time>2026-04-18T12:16:35.601Z</time></trkpt><trkpt lat="43.5780167" lon="12.474015"><ele>387.0</ele><time>2026-04-18T12:16:36.601Z</time></trkpt><trkpt lat="43.5780883" lon="12.474235"><ele>387.0</ele><time>2026-04-18T12:16:37.601Z</time></trkpt><trkpt lat="43.5781783" lon="12.4744483"><ele>387.0</ele><time>2026-04-18T12:16:38.601Z</time></trkpt><trkpt lat="43.5782767" lon="12.4746533"><ele>387.0</ele><time>2026-04-18T12:16:39.6Z</time></trkpt><trkpt lat="43.5783717" lon="12.4748617"><ele>387.0</ele><time>2026-04-18T12:16:40.601Z</time></trkpt><trkpt lat="43.57847" lon="12.4750683"><ele>387.0</ele><time>2026-04-18T12:16:41.601Z</time></trkpt><trkpt lat="43.5785533" lon="12.4752633"><ele>386.0</ele><time>2026-04-18T12:16:42.601Z</time></trkpt><trkpt lat="43.5786333" lon="12.47546"><ele>385.0</ele><time>2026-04-18T12:16:43.601Z</time></trkpt><trkpt lat="43.5787167" lon="12.4756617"><ele>384.0</ele><time>2026-04-18T12:16:44.601Z</time></trkpt><trkpt lat="43.5788083" lon="12.475855"><ele>387.66666666666663</ele><time>2026-04-18T12:16:45.601Z</time></trkpt><trkpt lat="43.5788867" lon="12.4760467"><ele>391.3333333333333</ele><time>2026-04-18T12:16:46.601Z</time></trkpt><trkpt lat="43.5789617" lon="12.4762333"><ele>395.0</ele><time>2026-04-18T12:16:47.601Z</time></trkpt><trkpt lat="43.5790367" lon="12.4764167"><ele>395.0</ele><time>2026-04-18T12:16:48.601Z</time></trkpt><trkpt lat="43.5790867" lon="12.47662"><ele>395.0</ele><time>2026-04-18T12:16:49.601Z</time></trkpt><trkpt lat="43.5791017" lon="12.4768283"><ele>395.0</ele><time>2026-04-18T12:16:50.601Z</time></trkpt><trkpt lat="43.5790833" lon="12.47703"><ele>396.75</ele><time>2026-04-18T12:16:51.601Z</time></trkpt><trkpt lat="43.5790483" lon="12.4772283"><ele>398.5</ele><time>2026-04-18T12:16:52.601Z</time></trkpt><trkpt lat="43.5790117" lon="12.477425"><ele>400.25</ele><time>2026-04-18T12:16:53.601Z</time></trkpt><trkpt lat="43.57896" lon="12.4776067"><ele>402.0</ele><time>2026-04-18T12:16:54.601Z</time></trkpt><trkpt lat="43.5788967" lon="12.4777767"><ele>402.25</ele><time>2026-04-18T12:16:55.601Z</time></trkpt><trkpt lat="43.57884" lon="12.4779483"><ele>402.5</ele><time>2026-04-18T12:16:56.601Z</time></trkpt><trkpt lat="43.5788033" lon="12.4781267"><ele>402.75</ele><time>2026-04-18T12:16:57.601Z</time></trkpt><trkpt lat="43.5787867" lon="12.4783067"><ele>403.0</ele><time>2026-04-18T12:16:58.601Z</time></trkpt><trkpt lat="43.5788067" lon="12.4784917"><ele>403.0</ele><time>2026-04-18T12:16:59.601Z</time></trkpt><trkpt lat="43.5788417" lon="12.4786783"><ele>403.0</ele><time>2026-04-18T12:17:00.601Z</time></trkpt><trkpt lat="43.5788967" lon="12.4788483"><ele>403.0</ele><time>2026-04-18T12:17:01.601Z</time></trkpt><trkpt lat="43.5789483" lon="12.4790167"><ele>403.0</ele><time>2026-04-18T12:17:02.601Z</time></trkpt><trkpt lat="43.578995" lon="12.47919"><ele>399.5</ele><time>2026-04-18T12:17:03.601Z</time></trkpt><trkpt lat="43.5790333" lon="12.479365"><ele>396.0</ele><time>2026-04-18T12:17:04.601Z</time></trkpt><trkpt lat="43.5790517" lon="12.4795533"><ele>392.5</ele><time>2026-04-18T12:17:05.601Z</time></trkpt><trkpt lat="43.5790467" lon="12.47975"><ele>389.0</ele><time>2026-04-18T12:17:06.601Z</time></trkpt><trkpt lat="43.5790233" lon="12.4799433"><ele>386.5</ele><time>2026-04-18T12:17:07.601Z</time></trkpt><trkpt lat="43.57899" lon="12.4801317"><ele>384.0</ele><time>2026-04-18T12:17:08.601Z</time></trkpt><trkpt lat="43.578945" lon="12.4803067"><ele>381.5</ele><time>2026-04-18T12:17:09.601Z</time></trkpt><trkpt lat="43.5788833" lon="12.4804767"><ele>379.0</ele><time>2026-04-18T12:17:10.601Z</time></trkpt><trkpt lat="43.57882" lon="12.48065"><ele>379.0</ele><time>2026-04-18T12:17:11.601Z</time></trkpt><trkpt lat="43.578775" lon="12.48083"><ele>379.0</ele><time>2026-04-18T12:17:12.601Z</time></trkpt><trkpt lat="43.5787483" lon="12.4810167"><ele>379.0</ele><time>2026-04-18T12:17:13.601Z</time></trkpt><trkpt lat="43.5787517" lon="12.48121"><ele>379.0</ele><time>2026-04-18T12:17:14.601Z</time></trkpt><trkpt lat="43.578785" lon="12.4814033"><ele>380.0</ele><time>2026-04-18T12:17:15.601Z</time></trkpt><trkpt lat="43.57882" lon="12.4815833"><ele>381.0</ele><time>2026-04-18T12:17:16.601Z</time></trkpt><trkpt lat="43.578845" lon="12.4817617"><ele>382.0</ele><time>2026-04-18T12:17:17.601Z</time></trkpt><trkpt lat="43.5788583" lon="12.4819433"><ele>383.0</ele><time>2026-04-18T12:17:18.601Z</time></trkpt><trkpt lat="43.5788717" lon="12.4821417"><ele>386.75</ele><time>2026-04-18T12:17:19.601Z</time></trkpt><trkpt lat="43.5788517" lon="12.482325"><ele>390.5</ele><time>2026-04-18T12:17:20.601Z</time></trkpt><trkpt lat="43.5788317" lon="12.4825033"><ele>394.25</ele><time>2026-04-18T12:17:21.601Z</time></trkpt><trkpt lat="43.5787817" lon="12.48266"><ele>398.0</ele><time>2026-04-18T12:17:22.601Z</time></trkpt><trkpt lat="43.57869" lon="12.4827883"><ele>398.25</ele><time>2026-04-18T12:17:23.601Z</time></trkpt><trkpt lat="43.5785817" lon="12.48289"><ele>398.5</ele><time>2026-04-18T12:17:24.601Z</time></trkpt><trkpt lat="43.5784467" lon="12.482945"><ele>398.75</ele><time>2026-04-18T12:17:25.601Z</time></trkpt><trkpt lat="43.5782883" lon="12.4829483"><ele>399.0</ele><time>2026-04-18T12:17:26.601Z</time></trkpt><trkpt lat="43.57815" lon="12.4829233"><ele>398.25</ele><time>2026-04-18T12:17:27.601Z</time></trkpt><trkpt lat="43.5780183" lon="12.4829"><ele>397.5</ele><time>2026-04-18T12:17:28.6Z</time></trkpt><trkpt lat="43.5779067" lon="12.4829167"><ele>396.75</ele><time>2026-04-18T12:17:29.601Z</time></trkpt><trkpt lat="43.577795" lon="12.4829767"><ele>396.0</ele><time>2026-04-18T12:17:30.601Z</time></trkpt><trkpt lat="43.5777067" lon="12.48309"><ele>396.0</ele><time>2026-04-18T12:17:31.601Z</time></trkpt><trkpt lat="43.5776367" lon="12.4832383"><ele>396.0</ele><time>2026-04-18T12:17:32.601Z</time></trkpt><trkpt lat="43.5776083" lon="12.48342"><ele>396.0</ele><time>2026-04-18T12:17:33.601Z</time></trkpt><trkpt lat="43.5776067" lon="12.4835967"><ele>396.0</ele><time>2026-04-18T12:17:34.601Z</time></trkpt><trkpt lat="43.577645" lon="12.4837733"><ele>396.0</ele><time>2026-04-18T12:17:35.601Z</time></trkpt><trkpt lat="43.5777217" lon="12.4839517"><ele>396.0</ele><time>2026-04-18T12:17:36.601Z</time></trkpt><trkpt lat="43.57782" lon="12.484135"><ele>396.0</ele><time>2026-04-18T12:17:37.601Z</time></trkpt><trkpt lat="43.5779367" lon="12.4843233"><ele>397.66666666666663</ele><time>2026-04-18T12:17:38.601Z</time></trkpt><trkpt lat="43.578055" lon="12.4845067"><ele>399.3333333333333</ele><time>2026-04-18T12:17:39.601Z</time></trkpt><trkpt lat="43.5781867" lon="12.4846967"><ele>401.0</ele><time>2026-04-18T12:17:40.601Z</time></trkpt><trkpt lat="43.5783317" lon="12.4848933"><ele>390.5</ele><time>2026-04-18T12:17:41.601Z</time></trkpt><trkpt lat="43.5784917" lon="12.4851067"><ele>380.0</ele><time>2026-04-18T12:17:42.601Z</time></trkpt><trkpt lat="43.5786617" lon="12.4853317"><ele>383.0</ele><time>2026-04-18T12:17:43.601Z</time></trkpt><trkpt lat="43.5788683" lon="12.485585"><ele>386.0</ele><time>2026-04-18T12:17:44.601Z</time></trkpt><trkpt lat="43.5790883" lon="12.4858217"><ele>386.0</ele><time>2026-04-18T12:17:45.601Z</time></trkpt><trkpt lat="43.5792967" lon="12.4860283"><ele>386.0</ele><time>2026-04-18T12:17:46.601Z</time></trkpt><trkpt lat="43.579505" lon="12.4862067"><ele>382.5</ele><time>2026-04-18T12:17:47.601Z</time></trkpt><trkpt lat="43.5797133" lon="12.4863633"><ele>379.0</ele><time>2026-04-18T12:17:48.601Z</time></trkpt><trkpt lat="43.5799433" lon="12.4865033"><ele>379.0</ele><time>2026-04-18T12:17:49.601Z</time></trkpt><trkpt lat="43.58018" lon="12.4866067"><ele>379.0</ele><time>2026-04-18T12:17:50.601Z</time></trkpt><trkpt lat="43.5804183" lon="12.486705"><ele>383.5</ele><time>2026-04-18T12:17:51.601Z</time></trkpt><trkpt lat="43.5806483" lon="12.4868"><ele>388.0</ele><time>2026-04-18T12:17:52.601Z</time></trkpt><trkpt lat="43.5808767" lon="12.4868833"><ele>388.0</ele><time>2026-04-18T12:17:53.601Z</time></trkpt><trkpt lat="43.58111" lon="12.4869283"><ele>388.0</ele><time>2026-04-18T12:17:54.601Z</time></trkpt><trkpt lat="43.5813433" lon="12.4869233"><ele>386.0</ele><time>2026-04-18T12:17:55.601Z</time></trkpt><trkpt lat="43.58157" lon="12.4868567"><ele>384.0</ele><time>2026-04-18T12:17:56.601Z</time></trkpt><trkpt lat="43.581765" lon="12.4867467"><ele>382.0</ele><time>2026-04-18T12:17:57.601Z</time></trkpt><trkpt lat="43.5819583" lon="12.4866767"><ele>377.66666666666663</ele><time>2026-04-18T12:17:58.601Z</time></trkpt><trkpt lat="43.5821633" lon="12.4866433"><ele>373.3333333333333</ele><time>2026-04-18T12:17:59.601Z</time></trkpt><trkpt lat="43.5823517" lon="12.4866683"><ele>369.0</ele><time>2026-04-18T12:18:00.601Z</time></trkpt><trkpt lat="43.5825317" lon="12.4867583"><ele>369.0</ele><time>2026-04-18T12:18:01.6Z</time></trkpt><trkpt lat="43.5826983" lon="12.4869083"><ele>369.0</ele><time>2026-04-18T12:18:02.601Z</time></trkpt><trkpt lat="43.58284" lon="12.487095"><ele>369.0</ele><time>2026-04-18T12:18:03.601Z</time></trkpt><trkpt lat="43.5829483" lon="12.4873117"><ele>367.0</ele><time>2026-04-18T12:18:04.601Z</time></trkpt><trkpt lat="43.583025" lon="12.48755"><ele>365.0</ele><time>2026-04-18T12:18:05.601Z</time></trkpt><trkpt lat="43.5830733" lon="12.4878017"><ele>363.0</ele><time>2026-04-18T12:18:06.601Z</time></trkpt><trkpt lat="43.583095" lon="12.4880583"><ele>362.0</ele><time>2026-04-18T12:18:07.601Z</time></trkpt><trkpt lat="43.58309" lon="12.4883233"><ele>361.0</ele><time>2026-04-18T12:18:08.601Z</time></trkpt><trkpt lat="43.583075" lon="12.488595"><ele>360.0</ele><time>2026-04-18T12:18:09.601Z</time></trkpt><trkpt lat="43.5830583" lon="12.4888667"><ele>359.6666666666667</ele><time>2026-04-18T12:18:10.601Z</time></trkpt><trkpt lat="43.5830417" lon="12.489125"><ele>359.33333333333337</ele><time>2026-04-18T12:18:11.601Z</time></trkpt><trkpt lat="43.5830333" lon="12.489365"><ele>359.0</ele><time>2026-04-18T12:18:12.601Z</time></trkpt><trkpt lat="43.5830283" lon="12.4896183"><ele>357.6666666666667</ele><time>2026-04-18T12:18:13.601Z</time></trkpt><trkpt lat="43.58302" lon="12.4898717"><ele>356.3333333333333</ele><time>2026-04-18T12:18:14.601Z</time></trkpt><trkpt lat="43.5830067" lon="12.4901367"><ele>355.0</ele><time>2026-04-18T12:18:15.601Z</time></trkpt><trkpt lat="43.582995" lon="12.4904133"><ele>355.0</ele><time>2026-04-18T12:18:16.601Z</time></trkpt><trkpt lat="43.58298" lon="12.4906967"><ele>355.0</ele><time>2026-04-18T12:18:17.601Z</time></trkpt><trkpt lat="43.5829633" lon="12.490985"><ele>355.0</ele><time>2026-04-18T12:18:18.601Z</time></trkpt><trkpt lat="43.5829417" lon="12.49126"><ele>355.0</ele><time>2026-04-18T12:18:19.601Z</time></trkpt><trkpt lat="43.5829217" lon="12.4915167"><ele>355.0</ele><time>2026-04-18T12:18:20.601Z</time></trkpt><trkpt lat="43.58289" lon="12.4917533"><ele>355.0</ele><time>2026-04-18T12:18:21.601Z</time></trkpt><trkpt lat="43.5828417" lon="12.4919717"><ele>359.0</ele><time>2026-04-18T12:18:22.601Z</time></trkpt><trkpt lat="43.58279" lon="12.492175"><ele>363.0</ele><time>2026-04-18T12:18:23.601Z</time></trkpt><trkpt lat="43.582725" lon="12.4923583"><ele>367.0</ele><time>2026-04-18T12:18:24.601Z</time></trkpt><trkpt lat="43.5826433" lon="12.4925367"><ele>367.0</ele><time>2026-04-18T12:18:25.601Z</time></trkpt><trkpt lat="43.5825433" lon="12.49271"><ele>367.0</ele><time>2026-04-18T12:18:26.601Z</time></trkpt><trkpt lat="43.5824367" lon="12.492885"><ele>367.0</ele><time>2026-04-18T12:18:27.601Z</time></trkpt><trkpt lat="43.58231" lon="12.493055"><ele>363.3333333333333</ele><time>2026-04-18T12:18:28.601Z</time></trkpt><trkpt lat="43.5821817" lon="12.49322"><ele>359.6666666666667</ele><time>2026-04-18T12:18:29.601Z</time></trkpt><trkpt lat="43.5820467" lon="12.4933933"><ele>356.0</ele><time>2026-04-18T12:18:30.601Z</time></trkpt><trkpt lat="43.581915" lon="12.4935667"><ele>358.0</ele><time>2026-04-18T12:18:31.6Z</time></trkpt><trkpt lat="43.5817717" lon="12.4937133"><ele>360.0</ele><time>2026-04-18T12:18:32.601Z</time></trkpt><trkpt lat="43.58161" lon="12.4938117"><ele>362.0</ele><time>2026-04-18T12:18:33.601Z</time></trkpt><trkpt lat="43.5814383" lon="12.4939267"><ele>362.0</ele><time>2026-04-18T12:18:34.601Z</time></trkpt><trkpt lat="43.581255" lon="12.4940383"><ele>362.0</ele><time>2026-04-18T12:18:35.601Z</time></trkpt><trkpt lat="43.5810633" lon="12.4941383"><ele>362.0</ele><time>2026-04-18T12:18:36.601Z</time></trkpt><trkpt lat="43.5808683" lon="12.4942217"><ele>360.6666666666667</ele><time>2026-04-18T12:18:37.601Z</time></trkpt><trkpt lat="43.5806783" lon="12.4943"><ele>359.3333333333333</ele><time>2026-04-18T12:18:38.601Z</time></trkpt><trkpt lat="43.580505" lon="12.49439"><ele>358.0</ele><time>2026-04-18T12:18:39.601Z</time></trkpt><trkpt lat="43.5803417" lon="12.49449"><ele>360.66666666666663</ele><time>2026-04-18T12:18:40.601Z</time></trkpt><trkpt lat="43.5801833" lon="12.4946233"><ele>363.3333333333333</ele><time>2026-04-18T12:18:41.601Z</time></trkpt><trkpt lat="43.580045" lon="12.494785"><ele>366.0</ele><time>2026-04-18T12:18:42.601Z</time></trkpt><trkpt lat="43.5799333" lon="12.4949917"><ele>366.0</ele><time>2026-04-18T12:18:43.601Z</time></trkpt><trkpt lat="43.57988" lon="12.4952467"><ele>366.0</ele><time>2026-04-18T12:18:44.601Z</time></trkpt><trkpt lat="43.5797833" lon="12.4954783"><ele>366.0</ele><time>2026-04-18T12:18:45.601Z</time></trkpt><trkpt lat="43.579695" lon="12.4957183"><ele>361.6666666666667</ele><time>2026-04-18T12:18:46.601Z</time></trkpt><trkpt lat="43.579615" lon="12.4959667"><ele>357.33333333333337</ele><time>2026-04-18T12:18:47.601Z</time></trkpt><trkpt lat="43.5795583" lon="12.4962283"><ele>353.0</ele><time>2026-04-18T12:18:48.601Z</time></trkpt><trkpt lat="43.5795133" lon="12.4964867"><ele>357.33333333333337</ele><time>2026-04-18T12:18:49.601Z</time></trkpt><trkpt lat="43.579525" lon="12.496745"><ele>361.6666666666667</ele><time>2026-04-18T12:18:50.601Z</time></trkpt><trkpt lat="43.5795767" lon="12.4970017"><ele>366.0</ele><time>2026-04-18T12:18:51.601Z</time></trkpt><trkpt lat="43.5796683" lon="12.4972617"><ele>366.0</ele><time>2026-04-18T12:18:52.601Z</time></trkpt><trkpt lat="43.5797917" lon="12.497495"><ele>366.0</ele><time>2026-04-18T12:18:53.601Z</time></trkpt><trkpt lat="43.5799267" lon="12.4976817"><ele>366.0</ele><time>2026-04-18T12:18:54.601Z</time></trkpt><trkpt lat="43.5800833" lon="12.4978417"><ele>366.3333333333333</ele><time>2026-04-18T12:18:55.601Z</time></trkpt><trkpt lat="43.58026" lon="12.49796"><ele>366.66666666666663</ele><time>2026-04-18T12:18:56.601Z</time></trkpt><trkpt lat="43.5804667" lon="12.498015"><ele>367.0</ele><time>2026-04-18T12:18:57.601Z</time></trkpt><trkpt lat="43.5806883" lon="12.4980433"><ele>364.0</ele><time>2026-04-18T12:18:58.601Z</time></trkpt><trkpt lat="43.5809017" lon="12.4980833"><ele>361.0</ele><time>2026-04-18T12:18:59.601Z</time></trkpt><trkpt lat="43.5811067" lon="12.4981417"><ele>358.0</ele><time>2026-04-18T12:19:00.601Z</time></trkpt><trkpt lat="43.5813117" lon="12.4982133"><ele>357.66666666666663</ele><time>2026-04-18T12:19:01.601Z</time></trkpt><trkpt lat="43.5815067" lon="12.4982733"><ele>357.3333333333333</ele><time>2026-04-18T12:19:02.601Z</time></trkpt><trkpt lat="43.581705" lon="12.4983167"><ele>357.0</ele><time>2026-04-18T12:19:03.601Z</time></trkpt><trkpt lat="43.5819167" lon="12.4983633"><ele>356.6666666666667</ele><time>2026-04-18T12:19:04.601Z</time></trkpt><trkpt lat="43.5821283" lon="12.498385"><ele>356.33333333333337</ele><time>2026-04-18T12:19:05.601Z</time></trkpt><trkpt lat="43.5823433" lon="12.4983883"><ele>356.0</ele><time>2026-04-18T12:19:06.601Z</time></trkpt><trkpt lat="43.582565" lon="12.4983767"><ele>356.0</ele><time>2026-04-18T12:19:07.601Z</time></trkpt><trkpt lat="43.5827633" lon="12.4983717"><ele>356.0</ele><time>2026-04-18T12:19:08.601Z</time></trkpt><trkpt lat="43.5829567" lon="12.498365"><ele>356.0</ele><time>2026-04-18T12:19:09.601Z</time></trkpt><trkpt lat="43.58315" lon="12.4983717"><ele>355.33333333333337</ele><time>2026-04-18T12:19:10.601Z</time></trkpt><trkpt lat="43.5833417" lon="12.498375"><ele>354.6666666666667</ele><time>2026-04-18T12:19:11.601Z</time></trkpt><trkpt lat="43.58353" lon="12.4983817"><ele>354.0</ele><time>2026-04-18T12:19:12.601Z</time></trkpt><trkpt lat="43.5837167" lon="12.498395"><ele>353.6666666666667</ele><time>2026-04-18T12:19:13.601Z</time></trkpt><trkpt lat="43.5839017" lon="12.4984167"><ele>353.33333333333337</ele><time>2026-04-18T12:19:14.601Z</time></trkpt><trkpt lat="43.5840833" lon="12.4984433"><ele>353.0</ele><time>2026-04-18T12:19:15.601Z</time></trkpt><trkpt lat="43.58426" lon="12.4984733"><ele>353.0</ele><time>2026-04-18T12:19:16.601Z</time></trkpt><trkpt lat="43.5844367" lon="12.4985083"><ele>353.0</ele><time>2026-04-18T12:19:17.601Z</time></trkpt><trkpt lat="43.5846167" lon="12.498555"><ele>353.0</ele><time>2026-04-18T12:19:18.601Z</time></trkpt><trkpt lat="43.584795" lon="12.4986117"><ele>351.33333333333337</ele><time>2026-04-18T12:19:19.601Z</time></trkpt><trkpt lat="43.5849667" lon="12.4986733"><ele>349.6666666666667</ele><time>2026-04-18T12:19:20.601Z</time></trkpt><trkpt lat="43.5851367" lon="12.498735"><ele>348.0</ele><time>2026-04-18T12:19:21.601Z</time></trkpt><trkpt lat="43.585315" lon="12.4988033"><ele>352.0</ele><time>2026-04-18T12:19:22.601Z</time></trkpt><trkpt lat="43.5854867" lon="12.4988717"><ele>356.0</ele><time>2026-04-18T12:19:23.601Z</time></trkpt><trkpt lat="43.5856517" lon="12.4989567"><ele>360.0</ele><time>2026-04-18T12:19:24.601Z</time></trkpt><trkpt lat="43.5858167" lon="12.4990617"><ele>360.0</ele><time>2026-04-18T12:19:25.601Z</time></trkpt><trkpt lat="43.5859517" lon="12.4991983"><ele>360.0</ele><time>2026-04-18T12:19:26.601Z</time></trkpt><trkpt lat="43.5860483" lon="12.49938"><ele>360.0</ele><time>2026-04-18T12:19:27.601Z</time></trkpt><trkpt lat="43.586115" lon="12.4995817"><ele>357.0</ele><time>2026-04-18T12:19:28.601Z</time></trkpt><trkpt lat="43.5861517" lon="12.499805"><ele>354.0</ele><time>2026-04-18T12:19:29.601Z</time></trkpt><trkpt lat="43.586165" lon="12.5000417"><ele>351.0</ele><time>2026-04-18T12:19:30.601Z</time></trkpt><trkpt lat="43.5861483" lon="12.500275"><ele>351.0</ele><time>2026-04-18T12:19:31.601Z</time></trkpt><trkpt lat="43.5861283" lon="12.5005167"><ele>351.0</ele><time>2026-04-18T12:19:32.601Z</time></trkpt><trkpt lat="43.5861033" lon="12.5007633"><ele>351.0</ele><time>2026-04-18T12:19:33.601Z</time></trkpt><trkpt lat="43.5860733" lon="12.5010133"><ele>351.0</ele><time>2026-04-18T12:19:34.601Z</time></trkpt><trkpt lat="43.5860433" lon="12.50126"><ele>351.0</ele><time>2026-04-18T12:19:35.601Z</time></trkpt><trkpt lat="43.5860133" lon="12.5015117"><ele>351.0</ele><time>2026-04-18T12:19:36.601Z</time></trkpt><trkpt lat="43.5859833" lon="12.5017667"><ele>351.0</ele><time>2026-04-18T12:19:37.601Z</time></trkpt><trkpt lat="43.5859533" lon="12.50202"><ele>351.0</ele><time>2026-04-18T12:19:38.601Z</time></trkpt><trkpt lat="43.5859267" lon="12.5022733"><ele>351.0</ele><time>2026-04-18T12:19:39.601Z</time></trkpt><trkpt lat="43.5858983" lon="12.5025283"><ele>350.6666666666667</ele><time>2026-04-18T12:19:40.601Z</time></trkpt><trkpt lat="43.5858683" lon="12.5027783"><ele>350.33333333333337</ele><time>2026-04-18T12:19:41.601Z</time></trkpt><trkpt lat="43.5858417" lon="12.5030317"><ele>350.0</ele><time>2026-04-18T12:19:42.601Z</time></trkpt><trkpt lat="43.58582" lon="12.5032833"><ele>350.0</ele><time>2026-04-18T12:19:43.601Z</time></trkpt><trkpt lat="43.5858" lon="12.5035367"><ele>350.0</ele><time>2026-04-18T12:19:44.601Z</time></trkpt><trkpt lat="43.5857783" lon="12.5037917"><ele>350.0</ele><time>2026-04-18T12:19:45.601Z</time></trkpt><trkpt lat="43.5857533" lon="12.5040367"><ele>350.33333333333337</ele><time>2026-04-18T12:19:46.601Z</time></trkpt><trkpt lat="43.5857283" lon="12.504275"><ele>350.6666666666667</ele><time>2026-04-18T12:19:47.601Z</time></trkpt><trkpt lat="43.5856983" lon="12.5045133"><ele>351.0</ele><time>2026-04-18T12:19:48.601Z</time></trkpt><trkpt lat="43.585665" lon="12.504755"><ele>351.3333333333333</ele><time>2026-04-18T12:19:49.601Z</time></trkpt><trkpt lat="43.585615" lon="12.5049883"><ele>351.66666666666663</ele><time>2026-04-18T12:19:50.601Z</time></trkpt><trkpt lat="43.5855517" lon="12.5052167"><ele>352.0</ele><time>2026-04-18T12:19:51.601Z</time></trkpt><trkpt lat="43.58549" lon="12.5054317"><ele>352.66666666666663</ele><time>2026-04-18T12:19:52.601Z</time></trkpt><trkpt lat="43.5854233" lon="12.505645"><ele>353.3333333333333</ele><time>2026-04-18T12:19:53.601Z</time></trkpt><trkpt lat="43.5853767" lon="12.505855"><ele>354.0</ele><time>2026-04-18T12:19:54.601Z</time></trkpt><trkpt lat="43.5853567" lon="12.5060483"><ele>354.0</ele><time>2026-04-18T12:19:55.601Z</time></trkpt><trkpt lat="43.5853533" lon="12.5062267"><ele>354.0</ele><time>2026-04-18T12:19:56.601Z</time></trkpt><trkpt lat="43.585365" lon="12.5064033"><ele>354.0</ele><time>2026-04-18T12:19:57.601Z</time></trkpt><trkpt lat="43.5853833" lon="12.5065683"><ele>354.0</ele><time>2026-04-18T12:19:58.601Z</time></trkpt><trkpt lat="43.5854233" lon="12.5067233"><ele>353.25</ele><time>2026-04-18T12:19:59.601Z</time></trkpt><trkpt lat="43.585485" lon="12.5068783"><ele>352.5</ele><time>2026-04-18T12:20:00.601Z</time></trkpt><trkpt lat="43.5855617" lon="12.5070267"><ele>351.75</ele><time>2026-04-18T12:20:01.601Z</time></trkpt><trkpt lat="43.5856583" lon="12.5071683"><ele>351.0</ele><time>2026-04-18T12:20:02.601Z</time></trkpt><trkpt lat="43.5857617" lon="12.5073033"><ele>349.75</ele><time>2026-04-18T12:20:03.601Z</time></trkpt><trkpt lat="43.5858767" lon="12.507415"><ele>348.5</ele><time>2026-04-18T12:20:04.601Z</time></trkpt><trkpt lat="43.5859917" lon="12.5075067"><ele>347.25</ele><time>2026-04-18T12:20:05.601Z</time></trkpt><trkpt lat="43.5861033" lon="12.507575"><ele>346.0</ele><time>2026-04-18T12:20:06.601Z</time></trkpt><trkpt lat="43.586225" lon="12.5076433"><ele>346.0</ele><time>2026-04-18T12:20:07.601Z</time></trkpt><trkpt lat="43.58635" lon="12.5077133"><ele>346.0</ele><time>2026-04-18T12:20:08.601Z</time></trkpt><trkpt lat="43.5864733" lon="12.5077917"><ele>346.0</ele><time>2026-04-18T12:20:09.601Z</time></trkpt><trkpt lat="43.5866083" lon="12.5078733"><ele>346.0</ele><time>2026-04-18T12:20:10.601Z</time></trkpt><trkpt lat="43.5867533" lon="12.5079417"><ele>344.3333333333333</ele><time>2026-04-18T12:20:11.601Z</time></trkpt><trkpt lat="43.5868917" lon="12.5080317"><ele>342.6666666666667</ele><time>2026-04-18T12:20:12.601Z</time></trkpt><trkpt lat="43.5870283" lon="12.5081183"><ele>341.0</ele><time>2026-04-18T12:20:13.601Z</time></trkpt><trkpt lat="43.587175" lon="12.5082"><ele>341.0</ele><time>2026-04-18T12:20:14.601Z</time></trkpt><trkpt lat="43.5873167" lon="12.5082967"><ele>341.0</ele><time>2026-04-18T12:20:15.601Z</time></trkpt><trkpt lat="43.587455" lon="12.508375"><ele>341.0</ele><time>2026-04-18T12:20:16.601Z</time></trkpt><trkpt lat="43.5875933" lon="12.5084583"><ele>341.0</ele><time>2026-04-18T12:20:17.601Z</time></trkpt><trkpt lat="43.5877417" lon="12.5085367"><ele>341.0</ele><time>2026-04-18T12:20:18.601Z</time></trkpt><trkpt lat="43.5878767" lon="12.50862"><ele>341.0</ele><time>2026-04-18T12:20:19.601Z</time></trkpt><trkpt lat="43.588015" lon="12.5087"><ele>340.0</ele><time>2026-04-18T12:20:20.601Z</time></trkpt><trkpt lat="43.588165" lon="12.5087817"><ele>339.0</ele><time>2026-04-18T12:20:21.601Z</time></trkpt><trkpt lat="43.5883133" lon="12.50886"><ele>338.0</ele><time>2026-04-18T12:20:22.601Z</time></trkpt><trkpt lat="43.5884417" lon="12.5089383"><ele>338.0</ele><time>2026-04-18T12:20:23.601Z</time></trkpt><trkpt lat="43.5885767" lon="12.5090217"><ele>338.0</ele><time>2026-04-18T12:20:24.601Z</time></trkpt><trkpt lat="43.5886983" lon="12.5090917"><ele>338.0</ele><time>2026-04-18T12:20:25.601Z</time></trkpt><trkpt lat="43.5888183" lon="12.5091633"><ele>338.0</ele><time>2026-04-18T12:20:26.6Z</time></trkpt><trkpt lat="43.588915" lon="12.509225"><ele>338.2</ele><time>2026-04-18T12:20:27.601Z</time></trkpt><trkpt lat="43.58902" lon="12.5092833"><ele>338.4</ele><time>2026-04-18T12:20:28.601Z</time></trkpt><trkpt lat="43.5891117" lon="12.5093383"><ele>338.59999999999997</ele><time>2026-04-18T12:20:29.601Z</time></trkpt><trkpt lat="43.5892083" lon="12.5093967"><ele>338.79999999999995</ele><time>2026-04-18T12:20:30.601Z</time></trkpt><trkpt lat="43.5892717" lon="12.5094433"><ele>339.0</ele><time>2026-04-18T12:20:31.601Z</time></trkpt><trkpt lat="43.5893767" lon="12.5095017"><ele>339.0</ele><time>2026-04-18T12:20:33.601Z</time></trkpt><trkpt lat="43.5894467" lon="12.5095733"><ele>339.0</ele><time>2026-04-18T12:20:35.601Z</time></trkpt><trkpt lat="43.589505" lon="12.5096183"><ele>339.0</ele><time>2026-04-18T12:20:36.601Z</time></trkpt><trkpt lat="43.5895867" lon="12.5096667"><ele>339.0</ele><time>2026-04-18T12:20:37.601Z</time></trkpt><trkpt lat="43.5896767" lon="12.509725"><ele>339.0</ele><time>2026-04-18T12:20:38.601Z</time></trkpt><trkpt lat="43.58977" lon="12.50978"><ele>339.0</ele><time>2026-04-18T12:20:39.601Z</time></trkpt><trkpt lat="43.589875" lon="12.5098433"><ele>338.4</ele><time>2026-04-18T12:20:40.601Z</time></trkpt><trkpt lat="43.5899767" lon="12.509905"><ele>337.79999999999995</ele><time>2026-04-18T12:20:41.601Z</time></trkpt><trkpt lat="43.5900767" lon="12.509965"><ele>337.20000000000005</ele><time>2026-04-18T12:20:42.601Z</time></trkpt><trkpt lat="43.590175" lon="12.5100067"><ele>336.6</ele><time>2026-04-18T12:20:43.601Z</time></trkpt><trkpt lat="43.59028" lon="12.51005"><ele>336.0</ele><time>2026-04-18T12:20:44.601Z</time></trkpt><trkpt lat="43.5903783" lon="12.5101033"><ele>339.0</ele><time>2026-04-18T12:20:45.6Z</time></trkpt><trkpt lat="43.590465" lon="12.5101517"><ele>342.0</ele><time>2026-04-18T12:20:46.601Z</time></trkpt><trkpt lat="43.5905283" lon="12.5101867"><ele>345.0</ele><time>2026-04-18T12:20:47.601Z</time></trkpt><trkpt lat="43.5906417" lon="12.510185"><ele>348.0</ele><time>2026-04-18T12:20:49.601Z</time></trkpt><trkpt lat="43.5907417" lon="12.51008"><ele>351.0</ele><time>2026-04-18T12:20:51.601Z</time></trkpt><trkpt lat="43.5907917" lon="12.5099533"><ele>351.0</ele><time>2026-04-18T12:20:52.601Z</time></trkpt><trkpt lat="43.59085" lon="12.50978"><ele>351.0</ele><time>2026-04-18T12:20:53.601Z</time></trkpt><trkpt lat="43.59092" lon="12.5095417"><ele>351.0</ele><time>2026-04-18T12:20:54.601Z</time></trkpt><trkpt lat="43.5909767" lon="12.5093017"><ele>349.0</ele><time>2026-04-18T12:20:55.601Z</time></trkpt><trkpt lat="43.591035" lon="12.50909"><ele>347.0</ele><time>2026-04-18T12:20:56.601Z</time></trkpt><trkpt lat="43.5910767" lon="12.5088667"><ele>345.0</ele><time>2026-04-18T12:20:57.601Z</time></trkpt><trkpt lat="43.591115" lon="12.5086567"><ele>343.6666666666667</ele><time>2026-04-18T12:20:58.601Z</time></trkpt><trkpt lat="43.591145" lon="12.508445"><ele>342.33333333333337</ele><time>2026-04-18T12:20:59.601Z</time></trkpt><trkpt lat="43.5911767" lon="12.50824"><ele>341.0</ele><time>2026-04-18T12:21:00.601Z</time></trkpt><trkpt lat="43.5912033" lon="12.5080283"><ele>347.6666666666667</ele><time>2026-04-18T12:21:01.601Z</time></trkpt><trkpt lat="43.5912483" lon="12.5078233"><ele>354.3333333333333</ele><time>2026-04-18T12:21:02.601Z</time></trkpt><trkpt lat="43.5913083" lon="12.50761"><ele>361.0</ele><time>2026-04-18T12:21:03.601Z</time></trkpt><trkpt lat="43.5913917" lon="12.5073917"><ele>361.0</ele><time>2026-04-18T12:21:04.601Z</time></trkpt><trkpt lat="43.5914867" lon="12.5071733"><ele>361.0</ele><time>2026-04-18T12:21:05.6Z</time></trkpt><trkpt lat="43.5915717" lon="12.506945"><ele>361.0</ele><time>2026-04-18T12:21:06.601Z</time></trkpt><trkpt lat="43.59167" lon="12.5067283"><ele>357.66666666666663</ele><time>2026-04-18T12:21:07.601Z</time></trkpt><trkpt lat="43.591765" lon="12.5065133"><ele>354.3333333333333</ele><time>2026-04-18T12:21:08.601Z</time></trkpt><trkpt lat="43.5918417" lon="12.50627"><ele>351.0</ele><time>2026-04-18T12:21:09.601Z</time></trkpt><trkpt lat="43.591925" lon="12.5060367"><ele>351.0</ele><time>2026-04-18T12:21:10.601Z</time></trkpt><trkpt lat="43.5920067" lon="12.5058183"><ele>351.0</ele><time>2026-04-18T12:21:11.601Z</time></trkpt><trkpt lat="43.59209" lon="12.50561"><ele>351.0</ele><time>2026-04-18T12:21:12.601Z</time></trkpt><trkpt lat="43.592175" lon="12.5054033"><ele>351.0</ele><time>2026-04-18T12:21:13.601Z</time></trkpt><trkpt lat="43.5922683" lon="12.505205"><ele>351.0</ele><time>2026-04-18T12:21:14.6Z</time></trkpt><trkpt lat="43.592375" lon="12.5049967"><ele>351.0</ele><time>2026-04-18T12:21:15.601Z</time></trkpt><trkpt lat="43.592485" lon="12.504795"><ele>351.0</ele><time>2026-04-18T12:21:16.601Z</time></trkpt><trkpt lat="43.5926033" lon="12.504605"><ele>351.0</ele><time>2026-04-18T12:21:17.601Z</time></trkpt><trkpt lat="43.5927317" lon="12.5044333"><ele>351.0</ele><time>2026-04-18T12:21:18.601Z</time></trkpt><trkpt lat="43.592835" lon="12.5042583"><ele>350.3333333333333</ele><time>2026-04-18T12:21:19.601Z</time></trkpt><trkpt lat="43.5929417" lon="12.5040833"><ele>349.66666666666663</ele><time>2026-04-18T12:21:20.601Z</time></trkpt><trkpt lat="43.5930417" lon="12.5038967"><ele>349.0</ele><time>2026-04-18T12:21:21.601Z</time></trkpt><trkpt lat="43.5931367" lon="12.5037083"><ele>349.0</ele><time>2026-04-18T12:21:22.601Z</time></trkpt><trkpt lat="43.5932417" lon="12.5035267"><ele>349.0</ele><time>2026-04-18T12:21:23.6Z</time></trkpt><trkpt lat="43.593345" lon="12.5033517"><ele>349.0</ele><time>2026-04-18T12:21:24.601Z</time></trkpt><trkpt lat="43.5934467" lon="12.5031833"><ele>349.0</ele><time>2026-04-18T12:21:25.601Z</time></trkpt><trkpt lat="43.5935383" lon="12.5030183"><ele>349.0</ele><time>2026-04-18T12:21:26.601Z</time></trkpt><trkpt lat="43.5936383" lon="12.5028733"><ele>349.0</ele><time>2026-04-18T12:21:27.601Z</time></trkpt><trkpt lat="43.59375" lon="12.502745"><ele>349.0</ele><time>2026-04-18T12:21:28.601Z</time></trkpt><trkpt lat="43.5938717" lon="12.5026267"><ele>349.66666666666663</ele><time>2026-04-18T12:21:29.601Z</time></trkpt><trkpt lat="43.5940067" lon="12.5025217"><ele>350.3333333333333</ele><time>2026-04-18T12:21:30.601Z</time></trkpt><trkpt lat="43.5941367" lon="12.5024033"><ele>351.0</ele><time>2026-04-18T12:21:31.601Z</time></trkpt><trkpt lat="43.5942767" lon="12.5022783"><ele>351.0</ele><time>2026-04-18T12:21:32.601Z</time></trkpt><trkpt lat="43.59442" lon="12.502155"><ele>351.0</ele><time>2026-04-18T12:21:33.601Z</time></trkpt><trkpt lat="43.5945617" lon="12.50203"><ele>351.0</ele><time>2026-04-18T12:21:34.601Z</time></trkpt><trkpt lat="43.5947067" lon="12.501915"><ele>350.0</ele><time>2026-04-18T12:21:35.601Z</time></trkpt><trkpt lat="43.5948667" lon="12.5018333"><ele>349.0</ele><time>2026-04-18T12:21:36.601Z</time></trkpt><trkpt lat="43.595035" lon="12.5017833"><ele>348.0</ele><time>2026-04-18T12:21:37.601Z</time></trkpt><trkpt lat="43.5952133" lon="12.5017467"><ele>349.0</ele><time>2026-04-18T12:21:38.601Z</time></trkpt><trkpt lat="43.5953967" lon="12.5017317"><ele>350.0</ele><time>2026-04-18T12:21:39.601Z</time></trkpt><trkpt lat="43.5955783" lon="12.50172"><ele>351.0</ele><time>2026-04-18T12:21:40.601Z</time></trkpt><trkpt lat="43.5957633" lon="12.5017017"><ele>351.0</ele><time>2026-04-18T12:21:41.601Z</time></trkpt><trkpt lat="43.5959483" lon="12.5016833"><ele>351.0</ele><time>2026-04-18T12:21:42.601Z</time></trkpt><trkpt lat="43.5961367" lon="12.5016567"><ele>351.0</ele><time>2026-04-18T12:21:43.601Z</time></trkpt><trkpt lat="43.5963267" lon="12.5016167"><ele>350.3333333333333</ele><time>2026-04-18T12:21:44.601Z</time></trkpt><trkpt lat="43.5965133" lon="12.50155"><ele>349.66666666666663</ele><time>2026-04-18T12:21:45.601Z</time></trkpt><trkpt lat="43.59669" lon="12.5014667"><ele>349.0</ele><time>2026-04-18T12:21:46.601Z</time></trkpt><trkpt lat="43.596865" lon="12.5013667"><ele>349.0</ele><time>2026-04-18T12:21:47.601Z</time></trkpt><trkpt lat="43.597045" lon="12.50126"><ele>349.0</ele><time>2026-04-18T12:21:48.601Z</time></trkpt><trkpt lat="43.59722" lon="12.5011583"><ele>349.0</ele><time>2026-04-18T12:21:49.601Z</time></trkpt><trkpt lat="43.5973967" lon="12.5010417"><ele>349.0</ele><time>2026-04-18T12:21:50.601Z</time></trkpt><trkpt lat="43.5975733" lon="12.500935"><ele>349.0</ele><time>2026-04-18T12:21:51.601Z</time></trkpt><trkpt lat="43.59775" lon="12.5008217"><ele>349.0</ele><time>2026-04-18T12:21:52.601Z</time></trkpt><trkpt lat="43.5979233" lon="12.50071"><ele>349.0</ele><time>2026-04-18T12:21:53.601Z</time></trkpt><trkpt lat="43.598095" lon="12.5006033"><ele>349.0</ele><time>2026-04-18T12:21:54.601Z</time></trkpt><trkpt lat="43.5982633" lon="12.5004933"><ele>349.0</ele><time>2026-04-18T12:21:55.601Z</time></trkpt><trkpt lat="43.598435" lon="12.5003867"><ele>349.0</ele><time>2026-04-18T12:21:56.601Z</time></trkpt><trkpt lat="43.5986083" lon="12.5002783"><ele>349.0</ele><time>2026-04-18T12:21:57.601Z</time></trkpt><trkpt lat="43.5987833" lon="12.5001717"><ele>349.0</ele><time>2026-04-18T12:21:58.601Z</time></trkpt><trkpt lat="43.5989583" lon="12.5000717"><ele>350.0</ele><time>2026-04-18T12:21:59.601Z</time></trkpt><trkpt lat="43.59913" lon="12.499965"><ele>351.0</ele><time>2026-04-18T12:22:00.601Z</time></trkpt><trkpt lat="43.5992967" lon="12.4998483"><ele>352.0</ele><time>2026-04-18T12:22:01.601Z</time></trkpt><trkpt lat="43.59946" lon="12.4997217"><ele>352.3333333333333</ele><time>2026-04-18T12:22:02.601Z</time></trkpt><trkpt lat="43.5996217" lon="12.499585"><ele>352.6666666666667</ele><time>2026-04-18T12:22:03.601Z</time></trkpt><trkpt lat="43.5997733" lon="12.4994333"><ele>353.0</ele><time>2026-04-18T12:22:04.601Z</time></trkpt><trkpt lat="43.5999133" lon="12.4992633"><ele>353.0</ele><time>2026-04-18T12:22:05.601Z</time></trkpt><trkpt lat="43.6000483" lon="12.499075"><ele>353.0</ele><time>2026-04-18T12:22:06.601Z</time></trkpt><trkpt lat="43.6001783" lon="12.4988817"><ele>353.0</ele><time>2026-04-18T12:22:07.6Z</time></trkpt><trkpt lat="43.6003017" lon="12.4986767"><ele>354.0</ele><time>2026-04-18T12:22:08.601Z</time></trkpt><trkpt lat="43.600415" lon="12.4984483"><ele>355.0</ele><time>2026-04-18T12:22:09.601Z</time></trkpt><trkpt lat="43.6005183" lon="12.498205"><ele>356.0</ele><time>2026-04-18T12:22:10.601Z</time></trkpt><trkpt lat="43.6006067" lon="12.49796"><ele>355.0</ele><time>2026-04-18T12:22:11.601Z</time></trkpt><trkpt lat="43.6006817" lon="12.49771"><ele>354.0</ele><time>2026-04-18T12:22:12.601Z</time></trkpt><trkpt lat="43.60076" lon="12.49747"><ele>353.0</ele><time>2026-04-18T12:22:13.601Z</time></trkpt><trkpt lat="43.600845" lon="12.4972417"><ele>352.6666666666667</ele><time>2026-04-18T12:22:14.601Z</time></trkpt><trkpt lat="43.600945" lon="12.497045"><ele>352.3333333333333</ele><time>2026-04-18T12:22:15.601Z</time></trkpt><trkpt lat="43.6010717" lon="12.49687"><ele>352.0</ele><time>2026-04-18T12:22:16.601Z</time></trkpt><trkpt lat="43.6012267" lon="12.4967117"><ele>352.3333333333333</ele><time>2026-04-18T12:22:17.601Z</time></trkpt><trkpt lat="43.6013867" lon="12.4965567"><ele>352.6666666666667</ele><time>2026-04-18T12:22:18.601Z</time></trkpt><trkpt lat="43.6015483" lon="12.4964117"><ele>353.0</ele><time>2026-04-18T12:22:19.601Z</time></trkpt><trkpt lat="43.6017017" lon="12.49624"><ele>353.0</ele><time>2026-04-18T12:22:20.601Z</time></trkpt><trkpt lat="43.6018583" lon="12.49607"><ele>353.0</ele><time>2026-04-18T12:22:21.601Z</time></trkpt><trkpt lat="43.601985" lon="12.495855"><ele>353.0</ele><time>2026-04-18T12:22:22.601Z</time></trkpt><trkpt lat="43.602095" lon="12.4956267"><ele>354.6666666666667</ele><time>2026-04-18T12:22:23.601Z</time></trkpt><trkpt lat="43.602195" lon="12.4953867"><ele>356.3333333333333</ele><time>2026-04-18T12:22:24.601Z</time></trkpt><trkpt lat="43.6022883" lon="12.4951383"><ele>358.0</ele><time>2026-04-18T12:22:25.601Z</time></trkpt><trkpt lat="43.60239" lon="12.4949033"><ele>358.0</ele><time>2026-04-18T12:22:26.601Z</time></trkpt><trkpt lat="43.60249" lon="12.4946783"><ele>358.0</ele><time>2026-04-18T12:22:27.601Z</time></trkpt><trkpt lat="43.6025933" lon="12.494465"><ele>358.0</ele><time>2026-04-18T12:22:28.601Z</time></trkpt><trkpt lat="43.60269" lon="12.49425"><ele>357.3333333333333</ele><time>2026-04-18T12:22:29.601Z</time></trkpt><trkpt lat="43.6027883" lon="12.49403"><ele>356.6666666666667</ele><time>2026-04-18T12:22:30.601Z</time></trkpt><trkpt lat="43.6028833" lon="12.49381"><ele>356.0</ele><time>2026-04-18T12:22:31.601Z</time></trkpt><trkpt lat="43.60298" lon="12.4935933"><ele>358.0</ele><time>2026-04-18T12:22:32.601Z</time></trkpt><trkpt lat="43.6030717" lon="12.4933783"><ele>360.0</ele><time>2026-04-18T12:22:33.601Z</time></trkpt><trkpt lat="43.6031683" lon="12.4931717"><ele>362.0</ele><time>2026-04-18T12:22:34.601Z</time></trkpt><trkpt lat="43.6032717" lon="12.4929717"><ele>361.33333333333337</ele><time>2026-04-18T12:22:35.601Z</time></trkpt><trkpt lat="43.6033867" lon="12.4927717"><ele>360.6666666666667</ele><time>2026-04-18T12:22:36.601Z</time></trkpt><trkpt lat="43.60351" lon="12.4926033"><ele>360.0</ele><time>2026-04-18T12:22:37.601Z</time></trkpt><trkpt lat="43.6036467" lon="12.492425"><ele>360.3333333333333</ele><time>2026-04-18T12:22:38.601Z</time></trkpt><trkpt lat="43.6037833" lon="12.492245"><ele>360.66666666666663</ele><time>2026-04-18T12:22:39.601Z</time></trkpt><trkpt lat="43.6039067" lon="12.4920483"><ele>361.0</ele><time>2026-04-18T12:22:40.601Z</time></trkpt><trkpt lat="43.60402" lon="12.4918267"><ele>361.0</ele><time>2026-04-18T12:22:41.601Z</time></trkpt><trkpt lat="43.60413" lon="12.4916017"><ele>361.0</ele><time>2026-04-18T12:22:42.601Z</time></trkpt><trkpt lat="43.6042383" lon="12.4913783"><ele>361.0</ele><time>2026-04-18T12:22:43.601Z</time></trkpt><trkpt lat="43.6043483" lon="12.4911583"><ele>359.66666666666663</ele><time>2026-04-18T12:22:44.601Z</time></trkpt><trkpt lat="43.6044517" lon="12.4909317"><ele>358.3333333333333</ele><time>2026-04-18T12:22:45.601Z</time></trkpt><trkpt lat="43.604555" lon="12.4907083"><ele>357.0</ele><time>2026-04-18T12:22:46.601Z</time></trkpt><trkpt lat="43.6046633" lon="12.4905"><ele>358.6666666666667</ele><time>2026-04-18T12:22:47.601Z</time></trkpt><trkpt lat="43.6047733" lon="12.4902883"><ele>360.33333333333337</ele><time>2026-04-18T12:22:48.601Z</time></trkpt><trkpt lat="43.6048983" lon="12.4901083"><ele>362.0</ele><time>2026-04-18T12:22:49.6Z</time></trkpt><trkpt lat="43.6050517" lon="12.48997"><ele>362.0</ele><time>2026-04-18T12:22:50.6Z</time></trkpt><trkpt lat="43.6052133" lon="12.4898583"><ele>362.0</ele><time>2026-04-18T12:22:51.6Z</time></trkpt><trkpt lat="43.60538" lon="12.4897567"><ele>362.0</ele><time>2026-04-18T12:22:52.6Z</time></trkpt><trkpt lat="43.6055517" lon="12.4896483"><ele>362.6666666666667</ele><time>2026-04-18T12:22:53.6Z</time></trkpt><trkpt lat="43.605725" lon="12.4895483"><ele>363.3333333333333</ele><time>2026-04-18T12:22:54.6Z</time></trkpt><trkpt lat="43.6058967" lon="12.489455"><ele>364.0</ele><time>2026-04-18T12:22:55.6Z</time></trkpt><trkpt lat="43.606065" lon="12.4893633"><ele>367.3333333333333</ele><time>2026-04-18T12:22:56.6Z</time></trkpt><trkpt lat="43.606225" lon="12.48928"><ele>370.6666666666667</ele><time>2026-04-18T12:22:57.6Z</time></trkpt><trkpt lat="43.6063817" lon="12.4891917"><ele>374.0</ele><time>2026-04-18T12:22:58.6Z</time></trkpt><trkpt lat="43.60653" lon="12.4890817"><ele>374.0</ele><time>2026-04-18T12:22:59.599Z</time></trkpt><trkpt lat="43.60668" lon="12.4889567"><ele>374.0</ele><time>2026-04-18T12:23:00.6Z</time></trkpt><trkpt lat="43.606825" lon="12.4888133"><ele>374.0</ele><time>2026-04-18T12:23:01.6Z</time></trkpt><trkpt lat="43.6069717" lon="12.4886483"><ele>375.0</ele><time>2026-04-18T12:23:02.6Z</time></trkpt><trkpt lat="43.6071117" lon="12.4884567"><ele>376.0</ele><time>2026-04-18T12:23:03.6Z</time></trkpt><trkpt lat="43.6072467" lon="12.48826"><ele>377.0</ele><time>2026-04-18T12:23:04.6Z</time></trkpt><trkpt lat="43.6073817" lon="12.4880483"><ele>374.33333333333337</ele><time>2026-04-18T12:23:05.6Z</time></trkpt><trkpt lat="43.6075167" lon="12.4878483"><ele>371.6666666666667</ele><time>2026-04-18T12:23:06.6Z</time></trkpt><trkpt lat="43.6076583" lon="12.48764"><ele>369.0</ele><time>2026-04-18T12:23:07.6Z</time></trkpt><trkpt lat="43.6077967" lon="12.4874367"><ele>371.3333333333333</ele><time>2026-04-18T12:23:08.6Z</time></trkpt><trkpt lat="43.6079367" lon="12.487235"><ele>373.66666666666663</ele><time>2026-04-18T12:23:09.6Z</time></trkpt><trkpt lat="43.6080717" lon="12.4870317"><ele>376.0</ele><time>2026-04-18T12:23:10.6Z</time></trkpt><trkpt lat="43.6082117" lon="12.486835"><ele>376.0</ele><time>2026-04-18T12:23:11.6Z</time></trkpt><trkpt lat="43.6083483" lon="12.4866417"><ele>376.0</ele><time>2026-04-18T12:23:12.6Z</time></trkpt><trkpt lat="43.6084717" lon="12.4864367"><ele>376.0</ele><time>2026-04-18T12:23:13.6Z</time></trkpt><trkpt lat="43.6085633" lon="12.486235"><ele>374.66666666666663</ele><time>2026-04-18T12:23:14.6Z</time></trkpt><trkpt lat="43.6086467" lon="12.4860167"><ele>373.3333333333333</ele><time>2026-04-18T12:23:15.6Z</time></trkpt><trkpt lat="43.6087367" lon="12.4858133"><ele>372.0</ele><time>2026-04-18T12:23:16.6Z</time></trkpt><trkpt lat="43.6088183" lon="12.4856017"><ele>373.6666666666667</ele><time>2026-04-18T12:23:17.6Z</time></trkpt><trkpt lat="43.60892" lon="12.4853983"><ele>375.33333333333337</ele><time>2026-04-18T12:23:18.6Z</time></trkpt><trkpt lat="43.6090433" lon="12.4852117"><ele>377.0</ele><time>2026-04-18T12:23:19.6Z</time></trkpt><trkpt lat="43.6091883" lon="12.4850417"><ele>377.0</ele><time>2026-04-18T12:23:20.6Z</time></trkpt><trkpt lat="43.6093467" lon="12.48488"><ele>377.0</ele><time>2026-04-18T12:23:21.6Z</time></trkpt><trkpt lat="43.609505" lon="12.4847283"><ele>377.0</ele><time>2026-04-18T12:23:22.6Z</time></trkpt><trkpt lat="43.6096583" lon="12.484575"><ele>376.0</ele><time>2026-04-18T12:23:23.6Z</time></trkpt><trkpt lat="43.6098167" lon="12.484435"><ele>375.0</ele><time>2026-04-18T12:23:24.6Z</time></trkpt><trkpt lat="43.60997" lon="12.4842833"><ele>374.0</ele><time>2026-04-18T12:23:25.6Z</time></trkpt><trkpt lat="43.61012" lon="12.4841333"><ele>374.0</ele><time>2026-04-18T12:23:26.6Z</time></trkpt><trkpt lat="43.6102633" lon="12.4839783"><ele>374.0</ele><time>2026-04-18T12:23:27.6Z</time></trkpt><trkpt lat="43.6103883" lon="12.4838267"><ele>374.0</ele><time>2026-04-18T12:23:28.6Z</time></trkpt><trkpt lat="43.6104933" lon="12.4836617"><ele>376.33333333333337</ele><time>2026-04-18T12:23:29.6Z</time></trkpt><trkpt lat="43.6105783" lon="12.483465"><ele>378.6666666666667</ele><time>2026-04-18T12:23:30.6Z</time></trkpt><trkpt lat="43.6106333" lon="12.4832633"><ele>381.0</ele><time>2026-04-18T12:23:31.6Z</time></trkpt><trkpt lat="43.61067" lon="12.483045"><ele>381.6666666666667</ele><time>2026-04-18T12:23:32.6Z</time></trkpt><trkpt lat="43.61069" lon="12.48282"><ele>382.33333333333337</ele><time>2026-04-18T12:23:33.6Z</time></trkpt><trkpt lat="43.6107217" lon="12.4826133"><ele>383.0</ele><time>2026-04-18T12:23:34.6Z</time></trkpt><trkpt lat="43.6107483" lon="12.4824283"><ele>383.0</ele><time>2026-04-18T12:23:35.6Z</time></trkpt><trkpt lat="43.6108017" lon="12.4822433"><ele>383.0</ele><time>2026-04-18T12:23:36.6Z</time></trkpt><trkpt lat="43.6108817" lon="12.4820667"><ele>383.0</ele><time>2026-04-18T12:23:37.6Z</time></trkpt><trkpt lat="43.610985" lon="12.4818833"><ele>384.6666666666667</ele><time>2026-04-18T12:23:38.6Z</time></trkpt><trkpt lat="43.6111117" lon="12.4817167"><ele>386.33333333333337</ele><time>2026-04-18T12:23:39.599Z</time></trkpt><trkpt lat="43.6112383" lon="12.4815367"><ele>388.0</ele><time>2026-04-18T12:23:40.6Z</time></trkpt><trkpt lat="43.61137" lon="12.4813467"><ele>385.33333333333337</ele><time>2026-04-18T12:23:41.6Z</time></trkpt><trkpt lat="43.6114983" lon="12.4811517"><ele>382.6666666666667</ele><time>2026-04-18T12:23:42.6Z</time></trkpt><trkpt lat="43.611625" lon="12.4809567"><ele>380.0</ele><time>2026-04-18T12:23:43.6Z</time></trkpt><trkpt lat="43.6117417" lon="12.480745"><ele>380.0</ele><time>2026-04-18T12:23:44.6Z</time></trkpt><trkpt lat="43.61186" lon="12.4805233"><ele>380.0</ele><time>2026-04-18T12:23:45.6Z</time></trkpt><trkpt lat="43.61197" lon="12.4802967"><ele>380.0</ele><time>2026-04-18T12:23:46.6Z</time></trkpt><trkpt lat="43.612075" lon="12.48006"><ele>379.6666666666667</ele><time>2026-04-18T12:23:47.6Z</time></trkpt><trkpt lat="43.6121633" lon="12.479805"><ele>379.3333333333333</ele><time>2026-04-18T12:23:48.6Z</time></trkpt><trkpt lat="43.61225" lon="12.479545"><ele>379.0</ele><time>2026-04-18T12:23:49.6Z</time></trkpt><trkpt lat="43.6123383" lon="12.479285"><ele>379.0</ele><time>2026-04-18T12:23:50.6Z</time></trkpt><trkpt lat="43.6124267" lon="12.4790167"><ele>379.0</ele><time>2026-04-18T12:23:51.6Z</time></trkpt><trkpt lat="43.6125117" lon="12.4787433"><ele>379.0</ele><time>2026-04-18T12:23:52.6Z</time></trkpt><trkpt lat="43.6126" lon="12.47848"><ele>379.0</ele><time>2026-04-18T12:23:53.599Z</time></trkpt><trkpt lat="43.6126867" lon="12.4782067"><ele>379.0</ele><time>2026-04-18T12:23:54.6Z</time></trkpt><trkpt lat="43.6127817" lon="12.477945"><ele>379.0</ele><time>2026-04-18T12:23:55.6Z</time></trkpt><trkpt lat="43.61288" lon="12.4776833"><ele>379.0</ele><time>2026-04-18T12:23:56.6Z</time></trkpt><trkpt lat="43.61297" lon="12.477415"><ele>379.0</ele><time>2026-04-18T12:23:57.6Z</time></trkpt><trkpt lat="43.613065" lon="12.47716"><ele>379.0</ele><time>2026-04-18T12:23:58.6Z</time></trkpt><trkpt lat="43.6131567" lon="12.4768933"><ele>377.66666666666663</ele><time>2026-04-18T12:23:59.6Z</time></trkpt><trkpt lat="43.6132617" lon="12.4766517"><ele>376.3333333333333</ele><time>2026-04-18T12:24:00.6Z</time></trkpt><trkpt lat="43.6133667" lon="12.4764133"><ele>375.0</ele><time>2026-04-18T12:24:01.6Z</time></trkpt><trkpt lat="43.6134767" lon="12.4761717"><ele>375.0</ele><time>2026-04-18T12:24:02.6Z</time></trkpt><trkpt lat="43.6135817" lon="12.475935"><ele>375.0</ele><time>2026-04-18T12:24:03.599Z</time></trkpt><trkpt lat="43.6136817" lon="12.4756883"><ele>375.0</ele><time>2026-04-18T12:24:04.6Z</time></trkpt><trkpt lat="43.613785" lon="12.4754467"><ele>375.6666666666667</ele><time>2026-04-18T12:24:05.6Z</time></trkpt><trkpt lat="43.6138933" lon="12.4752"><ele>376.33333333333337</ele><time>2026-04-18T12:24:06.6Z</time></trkpt><trkpt lat="43.6140033" lon="12.4749633"><ele>377.0</ele><time>2026-04-18T12:24:07.6Z</time></trkpt><trkpt lat="43.6141083" lon="12.4747217"><ele>374.33333333333337</ele><time>2026-04-18T12:24:08.6Z</time></trkpt><trkpt lat="43.6142017" lon="12.4744833"><ele>371.6666666666667</ele><time>2026-04-18T12:24:09.6Z</time></trkpt><trkpt lat="43.61429" lon="12.4742783"><ele>369.0</ele><time>2026-04-18T12:24:10.6Z</time></trkpt><trkpt lat="43.61438" lon="12.4741067"><ele>369.0</ele><time>2026-04-18T12:24:11.6Z</time></trkpt><trkpt lat="43.61448" lon="12.4739667"><ele>369.0</ele><time>2026-04-18T12:24:12.6Z</time></trkpt><trkpt lat="43.6146033" lon="12.4738567"><ele>369.0</ele><time>2026-04-18T12:24:13.6Z</time></trkpt><trkpt lat="43.6147533" lon="12.4737883"><ele>369.0</ele><time>2026-04-18T12:24:14.6Z</time></trkpt><trkpt lat="43.6149183" lon="12.473745"><ele>370.3333333333333</ele><time>2026-04-18T12:24:15.6Z</time></trkpt><trkpt lat="43.61509" lon="12.47371"><ele>371.66666666666663</ele><time>2026-04-18T12:24:16.6Z</time></trkpt><trkpt lat="43.6152667" lon="12.4736683"><ele>373.0</ele><time>2026-04-18T12:24:17.6Z</time></trkpt><trkpt lat="43.615445" lon="12.4736283"><ele>375.0</ele><time>2026-04-18T12:24:18.6Z</time></trkpt><trkpt lat="43.6156233" lon="12.4735817"><ele>377.0</ele><time>2026-04-18T12:24:19.6Z</time></trkpt><trkpt lat="43.615815" lon="12.47353"><ele>379.0</ele><time>2026-04-18T12:24:20.6Z</time></trkpt><trkpt lat="43.616005" lon="12.4734817"><ele>381.0</ele><time>2026-04-18T12:24:21.6Z</time></trkpt><trkpt lat="43.6161933" lon="12.47344"><ele>383.0</ele><time>2026-04-18T12:24:22.6Z</time></trkpt><trkpt lat="43.61638" lon="12.4733967"><ele>385.0</ele><time>2026-04-18T12:24:23.6Z</time></trkpt><trkpt lat="43.6165683" lon="12.4733517"><ele>385.0</ele><time>2026-04-18T12:24:24.6Z</time></trkpt><trkpt lat="43.6167467" lon="12.4733083"><ele>385.0</ele><time>2026-04-18T12:24:25.6Z</time></trkpt><trkpt lat="43.6169217" lon="12.4732833"><ele>385.0</ele><time>2026-04-18T12:24:26.6Z</time></trkpt><trkpt lat="43.6171" lon="12.47329"><ele>386.0</ele><time>2026-04-18T12:24:27.6Z</time></trkpt><trkpt lat="43.6172717" lon="12.4733217"><ele>387.0</ele><time>2026-04-18T12:24:28.6Z</time></trkpt><trkpt lat="43.6174333" lon="12.4733783"><ele>388.0</ele><time>2026-04-18T12:24:29.6Z</time></trkpt><trkpt lat="43.6175967" lon="12.4734633"><ele>388.0</ele><time>2026-04-18T12:24:30.6Z</time></trkpt><trkpt lat="43.6177567" lon="12.4735717"><ele>388.0</ele><time>2026-04-18T12:24:31.6Z</time></trkpt><trkpt lat="43.6179133" lon="12.473705"><ele>388.0</ele><time>2026-04-18T12:24:32.6Z</time></trkpt><trkpt lat="43.6180633" lon="12.47387"><ele>389.6666666666667</ele><time>2026-04-18T12:24:33.6Z</time></trkpt><trkpt lat="43.6182017" lon="12.4740367"><ele>391.33333333333337</ele><time>2026-04-18T12:24:34.6Z</time></trkpt><trkpt lat="43.6183433" lon="12.47421"><ele>393.0</ele><time>2026-04-18T12:24:35.6Z</time></trkpt><trkpt lat="43.618485" lon="12.4743883"><ele>393.0</ele><time>2026-04-18T12:24:36.599Z</time></trkpt><trkpt lat="43.61863" lon="12.47457"><ele>393.0</ele><time>2026-04-18T12:24:37.599Z</time></trkpt><trkpt lat="43.6187717" lon="12.4747433"><ele>393.0</ele><time>2026-04-18T12:24:38.6Z</time></trkpt><trkpt lat="43.61891" lon="12.4749067"><ele>395.33333333333337</ele><time>2026-04-18T12:24:39.6Z</time></trkpt><trkpt lat="43.6190517" lon="12.4750633"><ele>397.6666666666667</ele><time>2026-04-18T12:24:40.6Z</time></trkpt><trkpt lat="43.6191933" lon="12.47521"><ele>400.0</ele><time>2026-04-18T12:24:41.6Z</time></trkpt><trkpt lat="43.6193517" lon="12.4753433"><ele>403.33333333333337</ele><time>2026-04-18T12:24:42.6Z</time></trkpt><trkpt lat="43.6195133" lon="12.4754467"><ele>406.66666666666663</ele><time>2026-04-18T12:24:43.6Z</time></trkpt><trkpt lat="43.6196917" lon="12.47553"><ele>410.0</ele><time>2026-04-18T12:24:44.6Z</time></trkpt><trkpt lat="43.61988" lon="12.4755967"><ele>410.0</ele><time>2026-04-18T12:24:45.6Z</time></trkpt><trkpt lat="43.620065" lon="12.4756767"><ele>410.0</ele><time>2026-04-18T12:24:46.6Z</time></trkpt><trkpt lat="43.6202433" lon="12.4757617"><ele>410.0</ele><time>2026-04-18T12:24:47.6Z</time></trkpt><trkpt lat="43.62044" lon="12.4758483"><ele>409.66666666666663</ele><time>2026-04-18T12:24:48.6Z</time></trkpt><trkpt lat="43.62061" lon="12.4759317"><ele>409.33333333333337</ele><time>2026-04-18T12:24:49.6Z</time></trkpt><trkpt lat="43.6207617" lon="12.475985"><ele>409.0</ele><time>2026-04-18T12:24:50.6Z</time></trkpt><trkpt lat="43.62092" lon="12.4760083"><ele>409.0</ele><time>2026-04-18T12:24:51.6Z</time></trkpt><trkpt lat="43.6210417" lon="12.4759817"><ele>409.0</ele><time>2026-04-18T12:24:52.6Z</time></trkpt><trkpt lat="43.6211533" lon="12.4759033"><ele>409.0</ele><time>2026-04-18T12:24:53.6Z</time></trkpt><trkpt lat="43.6212617" lon="12.475785"><ele>409.0</ele><time>2026-04-18T12:24:54.6Z</time></trkpt><trkpt lat="43.6213683" lon="12.4756233"><ele>410.33333333333337</ele><time>2026-04-18T12:24:55.6Z</time></trkpt><trkpt lat="43.6214633" lon="12.475435"><ele>411.66666666666663</ele><time>2026-04-18T12:24:56.6Z</time></trkpt><trkpt lat="43.6215517" lon="12.4752417"><ele>413.0</ele><time>2026-04-18T12:24:57.6Z</time></trkpt><trkpt lat="43.6216667" lon="12.4750817"><ele>413.0</ele><time>2026-04-18T12:24:58.6Z</time></trkpt><trkpt lat="43.6217917" lon="12.4749567"><ele>413.0</ele><time>2026-04-18T12:24:59.6Z</time></trkpt><trkpt lat="43.6219283" lon="12.4748783"><ele>413.0</ele><time>2026-04-18T12:25:00.6Z</time></trkpt><trkpt lat="43.622075" lon="12.4748433"><ele>416.0</ele><time>2026-04-18T12:25:01.6Z</time></trkpt><trkpt lat="43.622225" lon="12.4748383"><ele>419.0</ele><time>2026-04-18T12:25:02.6Z</time></trkpt><trkpt lat="43.6223733" lon="12.474885"><ele>422.0</ele><time>2026-04-18T12:25:03.6Z</time></trkpt><trkpt lat="43.6225033" lon="12.474975"><ele>425.0</ele><time>2026-04-18T12:25:04.6Z</time></trkpt><trkpt lat="43.622625" lon="12.4751133"><ele>425.0</ele><time>2026-04-18T12:25:05.6Z</time></trkpt><trkpt lat="43.6227417" lon="12.4752567"><ele>425.0</ele><time>2026-04-18T12:25:06.6Z</time></trkpt><trkpt lat="43.622865" lon="12.4753817"><ele>425.0</ele><time>2026-04-18T12:25:07.6Z</time></trkpt><trkpt lat="43.6230017" lon="12.4754733"><ele>429.3333333333333</ele><time>2026-04-18T12:25:08.6Z</time></trkpt><trkpt lat="43.623155" lon="12.4755483"><ele>433.66666666666663</ele><time>2026-04-18T12:25:09.6Z</time></trkpt><trkpt lat="43.6232917" lon="12.475635"><ele>438.0</ele><time>2026-04-18T12:25:10.6Z</time></trkpt><trkpt lat="43.6234233" lon="12.475755"><ele>438.0</ele><time>2026-04-18T12:25:11.6Z</time></trkpt><trkpt lat="43.623545" lon="12.4758983"><ele>438.0</ele><time>2026-04-18T12:25:12.6Z</time></trkpt><trkpt lat="43.6236667" lon="12.4760567"><ele>438.0</ele><time>2026-04-18T12:25:13.6Z</time></trkpt><trkpt lat="43.623805" lon="12.47623"><ele>440.0</ele><time>2026-04-18T12:25:14.6Z</time></trkpt><trkpt lat="43.62392" lon="12.476395"><ele>442.0</ele><time>2026-04-18T12:25:15.6Z</time></trkpt><trkpt lat="43.6240317" lon="12.47654"><ele>444.0</ele><time>2026-04-18T12:25:16.6Z</time></trkpt><trkpt lat="43.624125" lon="12.476655"><ele>446.0</ele><time>2026-04-18T12:25:17.6Z</time></trkpt><trkpt lat="43.624215" lon="12.4767333"><ele>446.0</ele><time>2026-04-18T12:25:18.6Z</time></trkpt><trkpt lat="43.6243167" lon="12.47676"><ele>446.0</ele><time>2026-04-18T12:25:19.6Z</time></trkpt><trkpt lat="43.6244183" lon="12.4767433"><ele>446.0</ele><time>2026-04-18T12:25:20.6Z</time></trkpt><trkpt lat="43.6245433" lon="12.47669"><ele>446.0</ele><time>2026-04-18T12:25:21.6Z</time></trkpt><trkpt lat="43.624665" lon="12.4766167"><ele>447.25</ele><time>2026-04-18T12:25:22.6Z</time></trkpt><trkpt lat="43.62479" lon="12.4765267"><ele>448.5</ele><time>2026-04-18T12:25:23.6Z</time></trkpt><trkpt lat="43.6248983" lon="12.476425"><ele>449.75</ele><time>2026-04-18T12:25:24.6Z</time></trkpt><trkpt lat="43.62498" lon="12.476295"><ele>451.0</ele><time>2026-04-18T12:25:25.6Z</time></trkpt><trkpt lat="43.6250367" lon="12.476145"><ele>452.0</ele><time>2026-04-18T12:25:26.6Z</time></trkpt><trkpt lat="43.62505" lon="12.4759867"><ele>453.0</ele><time>2026-04-18T12:25:27.6Z</time></trkpt><trkpt lat="43.625015" lon="12.4758233"><ele>454.0</ele><time>2026-04-18T12:25:28.6Z</time></trkpt><trkpt lat="43.6249417" lon="12.4756533"><ele>455.0</ele><time>2026-04-18T12:25:29.6Z</time></trkpt><trkpt lat="43.6248517" lon="12.4754767"><ele>456.5</ele><time>2026-04-18T12:25:30.6Z</time></trkpt><trkpt lat="43.624775" lon="12.4753"><ele>458.0</ele><time>2026-04-18T12:25:31.599Z</time></trkpt><trkpt lat="43.6247083" lon="12.4751333"><ele>459.5</ele><time>2026-04-18T12:25:32.6Z</time></trkpt><trkpt lat="43.6246533" lon="12.4749883"><ele>461.0</ele><time>2026-04-18T12:25:33.6Z</time></trkpt><trkpt lat="43.6246183" lon="12.4748533"><ele>460.99999999999994</ele><time>2026-04-18T12:25:34.6Z</time></trkpt><trkpt lat="43.6246167" lon="12.4747267"><ele>461.0</ele><time>2026-04-18T12:25:35.6Z</time></trkpt><trkpt lat="43.62466" lon="12.47461"><ele>461.0</ele><time>2026-04-18T12:25:36.6Z</time></trkpt><trkpt lat="43.6247233" lon="12.47453"><ele>461.0</ele><time>2026-04-18T12:25:37.6Z</time></trkpt><trkpt lat="43.6248" lon="12.4745267"><ele>460.99999999999994</ele><time>2026-04-18T12:25:38.6Z</time></trkpt><trkpt lat="43.624875" lon="12.4745833"><ele>461.0</ele><time>2026-04-18T12:25:39.6Z</time></trkpt><trkpt lat="43.6249417" lon="12.47471"><ele>461.0</ele><time>2026-04-18T12:25:40.6Z</time></trkpt><trkpt lat="43.6249983" lon="12.4748717"><ele>461.0</ele><time>2026-04-18T12:25:41.6Z</time></trkpt><trkpt lat="43.6250267" lon="12.4750683"><ele>461.0</ele><time>2026-04-18T12:25:42.6Z</time></trkpt><trkpt lat="43.6250833" lon="12.4752583"><ele>461.0</ele><time>2026-04-18T12:25:43.6Z</time></trkpt><trkpt lat="43.6251683" lon="12.475425"><ele>459.0</ele><time>2026-04-18T12:25:44.6Z</time></trkpt><trkpt lat="43.6252667" lon="12.4755867"><ele>457.0</ele><time>2026-04-18T12:25:45.6Z</time></trkpt><trkpt lat="43.62536" lon="12.4757633"><ele>455.0</ele><time>2026-04-18T12:25:46.6Z</time></trkpt><trkpt lat="43.6254367" lon="12.4759583"><ele>461.66666666666663</ele><time>2026-04-18T12:25:47.6Z</time></trkpt><trkpt lat="43.6255" lon="12.4761667"><ele>468.33333333333337</ele><time>2026-04-18T12:25:48.6Z</time></trkpt><trkpt lat="43.62555" lon="12.47638"><ele>475.0</ele><time>2026-04-18T12:25:49.6Z</time></trkpt><trkpt lat="43.6255933" lon="12.4765867"><ele>475.0</ele><time>2026-04-18T12:25:50.6Z</time></trkpt><trkpt lat="43.6256317" lon="12.476765"><ele>475.0</ele><time>2026-04-18T12:25:51.6Z</time></trkpt><trkpt lat="43.62567" lon="12.4769183"><ele>475.0</ele><time>2026-04-18T12:25:52.6Z</time></trkpt><trkpt lat="43.6257083" lon="12.477045"><ele>475.0</ele><time>2026-04-18T12:25:53.6Z</time></trkpt><trkpt lat="43.6257567" lon="12.4771533"><ele>475.0</ele><time>2026-04-18T12:25:54.6Z</time></trkpt><trkpt lat="43.6258233" lon="12.4772217"><ele>475.0</ele><time>2026-04-18T12:25:55.6Z</time></trkpt><trkpt lat="43.6259" lon="12.477255"><ele>475.0</ele><time>2026-04-18T12:25:56.6Z</time></trkpt><trkpt lat="43.62599" lon="12.4772417"><ele>475.0</ele><time>2026-04-18T12:25:57.6Z</time></trkpt><trkpt lat="43.6260767" lon="12.477185"><ele>475.0</ele><time>2026-04-18T12:25:58.6Z</time></trkpt><trkpt lat="43.626125" lon="12.4770767"><ele>475.0</ele><time>2026-04-18T12:25:59.6Z</time></trkpt><trkpt lat="43.6261383" lon="12.4769333"><ele>475.0</ele><time>2026-04-18T12:26:00.6Z</time></trkpt><trkpt lat="43.6261133" lon="12.476755"><ele>475.0</ele><time>2026-04-18T12:26:01.6Z</time></trkpt><trkpt lat="43.626055" lon="12.4765583"><ele>475.0</ele><time>2026-04-18T12:26:02.6Z</time></trkpt><trkpt lat="43.625955" lon="12.476335"><ele>478.33333333333337</ele><time>2026-04-18T12:26:03.6Z</time></trkpt><trkpt lat="43.625885" lon="12.4761333"><ele>481.66666666666663</ele><time>2026-04-18T12:26:04.6Z</time></trkpt><trkpt lat="43.625805" lon="12.4759133"><ele>485.0</ele><time>2026-04-18T12:26:05.6Z</time></trkpt><trkpt lat="43.62574" lon="12.4756983"><ele>485.0</ele><time>2026-04-18T12:26:06.6Z</time></trkpt><trkpt lat="43.6256833" lon="12.4755"><ele>485.0</ele><time>2026-04-18T12:26:07.6Z</time></trkpt><trkpt lat="43.62563" lon="12.4753333"><ele>485.0</ele><time>2026-04-18T12:26:08.6Z</time></trkpt><trkpt lat="43.6255833" lon="12.4751867"><ele>485.0</ele><time>2026-04-18T12:26:09.6Z</time></trkpt><trkpt lat="43.6255617" lon="12.475055"><ele>484.8333333333333</ele><time>2026-04-18T12:26:10.6Z</time></trkpt><trkpt lat="43.62557" lon="12.474915"><ele>484.66666666666663</ele><time>2026-04-18T12:26:11.6Z</time></trkpt><trkpt lat="43.62562" lon="12.4748033"><ele>484.5</ele><time>2026-04-18T12:26:12.6Z</time></trkpt><trkpt lat="43.6256967" lon="12.4747433"><ele>484.33333333333337</ele><time>2026-04-18T12:26:13.6Z</time></trkpt><trkpt lat="43.6257783" lon="12.4747317"><ele>484.1666666666667</ele><time>2026-04-18T12:26:14.6Z</time></trkpt><trkpt lat="43.6258533" lon="12.4747783"><ele>484.0</ele><time>2026-04-18T12:26:15.6Z</time></trkpt><trkpt lat="43.6259183" lon="12.474895"><ele>484.0</ele><time>2026-04-18T12:26:16.6Z</time></trkpt><trkpt lat="43.62594" lon="12.4750233"><ele>484.0</ele><time>2026-04-18T12:26:17.6Z</time></trkpt><trkpt lat="43.6259367" lon="12.4751767"><ele>484.0</ele><time>2026-04-18T12:26:18.6Z</time></trkpt><trkpt lat="43.6259417" lon="12.4753617"><ele>484.0</ele><time>2026-04-18T12:26:19.6Z</time></trkpt><trkpt lat="43.6259767" lon="12.4755467"><ele>484.25</ele><time>2026-04-18T12:26:20.6Z</time></trkpt><trkpt lat="43.626035" lon="12.4757167"><ele>484.5</ele><time>2026-04-18T12:26:21.6Z</time></trkpt><trkpt lat="43.6261017" lon="12.4758683"><ele>484.75</ele><time>2026-04-18T12:26:22.6Z</time></trkpt><trkpt lat="43.6261767" lon="12.475995"><ele>485.0</ele><time>2026-04-18T12:26:23.6Z</time></trkpt><trkpt lat="43.626255" lon="12.476115"><ele>488.0</ele><time>2026-04-18T12:26:24.6Z</time></trkpt><trkpt lat="43.6263467" lon="12.476185"><ele>491.0</ele><time>2026-04-18T12:26:25.6Z</time></trkpt><trkpt lat="43.6264567" lon="12.476205"><ele>494.0</ele><time>2026-04-18T12:26:26.6Z</time></trkpt><trkpt lat="43.6265867" lon="12.4761917"><ele>497.0</ele><time>2026-04-18T12:26:27.6Z</time></trkpt><trkpt lat="43.62672" lon="12.476155"><ele>497.0</ele><time>2026-04-18T12:26:28.6Z</time></trkpt><trkpt lat="43.626855" lon="12.4761067"><ele>497.0</ele><time>2026-04-18T12:26:29.6Z</time></trkpt><trkpt lat="43.627" lon="12.47605"><ele>497.0</ele><time>2026-04-18T12:26:30.6Z</time></trkpt><trkpt lat="43.6271633" lon="12.475995"><ele>499.66666666666663</ele><time>2026-04-18T12:26:31.6Z</time></trkpt><trkpt lat="43.62733" lon="12.4759317"><ele>502.33333333333337</ele><time>2026-04-18T12:26:32.6Z</time></trkpt><trkpt lat="43.6275" lon="12.47586"><ele>505.0</ele><time>2026-04-18T12:26:33.6Z</time></trkpt><trkpt lat="43.6276817" lon="12.4757933"><ele>509.0</ele><time>2026-04-18T12:26:34.6Z</time></trkpt><trkpt lat="43.627865" lon="12.4757183"><ele>513.0</ele><time>2026-04-18T12:26:35.6Z</time></trkpt><trkpt lat="43.62803" lon="12.4756467"><ele>517.0</ele><time>2026-04-18T12:26:36.6Z</time></trkpt><trkpt lat="43.6281967" lon="12.4755733"><ele>517.0</ele><time>2026-04-18T12:26:37.6Z</time></trkpt><trkpt lat="43.62835" lon="12.4754883"><ele>517.0</ele><time>2026-04-18T12:26:38.6Z</time></trkpt><trkpt lat="43.6284867" lon="12.475365"><ele>517.0</ele><time>2026-04-18T12:26:39.6Z</time></trkpt><trkpt lat="43.6285867" lon="12.475205"><ele>517.75</ele><time>2026-04-18T12:26:40.6Z</time></trkpt><trkpt lat="43.628675" lon="12.475025"><ele>518.5</ele><time>2026-04-18T12:26:41.6Z</time></trkpt><trkpt lat="43.6287683" lon="12.47486"><ele>519.25</ele><time>2026-04-18T12:26:42.6Z</time></trkpt><trkpt lat="43.6288783" lon="12.4747533"><ele>520.0</ele><time>2026-04-18T12:26:43.6Z</time></trkpt><trkpt lat="43.629" lon="12.4747133"><ele>520.0</ele><time>2026-04-18T12:26:44.6Z</time></trkpt><trkpt lat="43.62914" lon="12.4747183"><ele>520.0</ele><time>2026-04-18T12:26:45.6Z</time></trkpt><trkpt lat="43.62928" lon="12.4747483"><ele>520.0</ele><time>2026-04-18T12:26:46.6Z</time></trkpt><trkpt lat="43.6294133" lon="12.4747867"><ele>520.0</ele><time>2026-04-18T12:26:47.6Z</time></trkpt><trkpt lat="43.6295583" lon="12.4748233"><ele>522.75</ele><time>2026-04-18T12:26:48.6Z</time></trkpt><trkpt lat="43.629695" lon="12.4748433"><ele>525.5</ele><time>2026-04-18T12:26:49.6Z</time></trkpt><trkpt lat="43.6298283" lon="12.4748417"><ele>528.25</ele><time>2026-04-18T12:26:50.6Z</time></trkpt><trkpt lat="43.6299567" lon="12.4747967"><ele>531.0</ele><time>2026-04-18T12:26:51.6Z</time></trkpt><trkpt lat="43.6300767" lon="12.4747067"><ele>532.5</ele><time>2026-04-18T12:26:52.6Z</time></trkpt><trkpt lat="43.6301917" lon="12.4745733"><ele>534.0</ele><time>2026-04-18T12:26:53.6Z</time></trkpt><trkpt lat="43.63029" lon="12.47441"><ele>535.5</ele><time>2026-04-18T12:26:54.6Z</time></trkpt><trkpt lat="43.6303383" lon="12.4742733"><ele>537.0</ele><time>2026-04-18T12:26:55.6Z</time></trkpt><trkpt lat="43.6304533" lon="12.4741233"><ele>537.0</ele><time>2026-04-18T12:26:56.6Z</time></trkpt><trkpt lat="43.6305733" lon="12.4739833"><ele>537.0</ele><time>2026-04-18T12:26:57.6Z</time></trkpt><trkpt lat="43.630705" lon="12.473845"><ele>537.0</ele><time>2026-04-18T12:26:58.6Z</time></trkpt><trkpt lat="43.630845" lon="12.47371"><ele>538.3333333333334</ele><time>2026-04-18T12:26:59.6Z</time></trkpt><trkpt lat="43.6309867" lon="12.4735733"><ele>539.6666666666667</ele><time>2026-04-18T12:27:00.6Z</time></trkpt><trkpt lat="43.6311283" lon="12.4734367"><ele>541.0</ele><time>2026-04-18T12:27:01.6Z</time></trkpt><trkpt lat="43.6312633" lon="12.4732983"><ele>541.0</ele><time>2026-04-18T12:27:02.6Z</time></trkpt><trkpt lat="43.6313967" lon="12.4731533"><ele>541.0</ele><time>2026-04-18T12:27:03.6Z</time></trkpt><trkpt lat="43.6315183" lon="12.47298"><ele>541.0</ele><time>2026-04-18T12:27:04.599Z</time></trkpt><trkpt lat="43.6316267" lon="12.4728"><ele>538.6666666666667</ele><time>2026-04-18T12:27:05.6Z</time></trkpt><trkpt lat="43.631725" lon="12.47261"><ele>536.3333333333334</ele><time>2026-04-18T12:27:06.6Z</time></trkpt><trkpt lat="43.6318217" lon="12.4724033"><ele>534.0</ele><time>2026-04-18T12:27:07.6Z</time></trkpt><trkpt lat="43.6319183" lon="12.47221"><ele>533.5</ele><time>2026-04-18T12:27:08.6Z</time></trkpt><trkpt lat="43.632005" lon="12.472045"><ele>533.0</ele><time>2026-04-18T12:27:09.6Z</time></trkpt><trkpt lat="43.6320833" lon="12.4719167"><ele>532.5</ele><time>2026-04-18T12:27:10.6Z</time></trkpt><trkpt lat="43.632175" lon="12.4718383"><ele>532.0</ele><time>2026-04-18T12:27:11.6Z</time></trkpt><trkpt lat="43.6322767" lon="12.4718183"><ele>532.0</ele><time>2026-04-18T12:27:12.6Z</time></trkpt><trkpt lat="43.6323783" lon="12.4718617"><ele>532.0</ele><time>2026-04-18T12:27:13.6Z</time></trkpt><trkpt lat="43.63248" lon="12.4719533"><ele>532.0</ele><time>2026-04-18T12:27:14.6Z</time></trkpt><trkpt lat="43.6325833" lon="12.4720617"><ele>532.0</ele><time>2026-04-18T12:27:15.6Z</time></trkpt><trkpt lat="43.63268" lon="12.4721517"><ele>532.4</ele><time>2026-04-18T12:27:16.6Z</time></trkpt><trkpt lat="43.6327783" lon="12.4722033"><ele>532.8000000000001</ele><time>2026-04-18T12:27:17.6Z</time></trkpt><trkpt lat="43.632885" lon="12.47221"><ele>533.2</ele><time>2026-04-18T12:27:18.6Z</time></trkpt><trkpt lat="43.6329767" lon="12.4721533"><ele>533.6</ele><time>2026-04-18T12:27:19.6Z</time></trkpt><trkpt lat="43.6330683" lon="12.4720483"><ele>534.0</ele><time>2026-04-18T12:27:20.6Z</time></trkpt><trkpt lat="43.6331683" lon="12.4719117"><ele>534.0</ele><time>2026-04-18T12:27:21.6Z</time></trkpt><trkpt lat="43.6332633" lon="12.4717583"><ele>534.0</ele><time>2026-04-18T12:27:22.6Z</time></trkpt><trkpt lat="43.6333667" lon="12.4716267"><ele>534.0</ele><time>2026-04-18T12:27:23.6Z</time></trkpt><trkpt lat="43.6334917" lon="12.4715433"><ele>534.0</ele><time>2026-04-18T12:27:24.6Z</time></trkpt><trkpt lat="43.6336433" lon="12.4715017"><ele>534.6666666666666</ele><time>2026-04-18T12:27:25.6Z</time></trkpt><trkpt lat="43.6338017" lon="12.4714817"><ele>535.3333333333333</ele><time>2026-04-18T12:27:26.6Z</time></trkpt><trkpt lat="43.6339617" lon="12.4714433"><ele>536.0</ele><time>2026-04-18T12:27:27.6Z</time></trkpt><trkpt lat="43.6341217" lon="12.47137"><ele>531.6666666666666</ele><time>2026-04-18T12:27:28.6Z</time></trkpt><trkpt lat="43.6342667" lon="12.4712683"><ele>527.3333333333334</ele><time>2026-04-18T12:27:29.6Z</time></trkpt><trkpt lat="43.6344133" lon="12.4711333"><ele>523.0</ele><time>2026-04-18T12:27:30.6Z</time></trkpt><trkpt lat="43.6345483" lon="12.4709617"><ele>523.0</ele><time>2026-04-18T12:27:31.6Z</time></trkpt><trkpt lat="43.6346717" lon="12.4707833"><ele>523.0</ele><time>2026-04-18T12:27:32.6Z</time></trkpt><trkpt lat="43.6347933" lon="12.4706283"><ele>523.0</ele><time>2026-04-18T12:27:33.6Z</time></trkpt><trkpt lat="43.6349033" lon="12.47049"><ele>520.75</ele><time>2026-04-18T12:27:34.6Z</time></trkpt><trkpt lat="43.6350083" lon="12.4703783"><ele>518.5</ele><time>2026-04-18T12:27:35.6Z</time></trkpt><trkpt lat="43.6351167" lon="12.470325"><ele>516.25</ele><time>2026-04-18T12:27:36.6Z</time></trkpt><trkpt lat="43.63524" lon="12.4703283"><ele>514.0</ele><time>2026-04-18T12:27:37.6Z</time></trkpt><trkpt lat="43.6353633" lon="12.4703833"><ele>514.75</ele><time>2026-04-18T12:27:38.6Z</time></trkpt><trkpt lat="43.6354967" lon="12.4704533"><ele>515.5</ele><time>2026-04-18T12:27:39.6Z</time></trkpt><trkpt lat="43.6356217" lon="12.4705067"><ele>516.25</ele><time>2026-04-18T12:27:40.6Z</time></trkpt><trkpt lat="43.6357417" lon="12.4705317"><ele>517.0</ele><time>2026-04-18T12:27:41.6Z</time></trkpt><trkpt lat="43.6358633" lon="12.4705217"><ele>517.0</ele><time>2026-04-18T12:27:42.6Z</time></trkpt><trkpt lat="43.6359767" lon="12.4704483"><ele>517.0</ele><time>2026-04-18T12:27:43.6Z</time></trkpt><trkpt lat="43.6360883" lon="12.4703233"><ele>517.0</ele><time>2026-04-18T12:27:44.6Z</time></trkpt><trkpt lat="43.6362" lon="12.4702067"><ele>517.0</ele><time>2026-04-18T12:27:45.6Z</time></trkpt><trkpt lat="43.6363033" lon="12.4701033"><ele>513.6</ele><time>2026-04-18T12:27:46.6Z</time></trkpt><trkpt lat="43.6364083" lon="12.470035"><ele>510.20000000000005</ele><time>2026-04-18T12:27:47.6Z</time></trkpt><trkpt lat="43.636515" lon="12.4700083"><ele>506.8</ele><time>2026-04-18T12:27:48.6Z</time></trkpt><trkpt lat="43.6366167" lon="12.470045"><ele>503.4</ele><time>2026-04-18T12:27:49.6Z</time></trkpt><trkpt lat="43.6366967" lon="12.4701333"><ele>500.0</ele><time>2026-04-18T12:27:50.6Z</time></trkpt><trkpt lat="43.6367467" lon="12.4702633"><ele>500.0</ele><time>2026-04-18T12:27:51.6Z</time></trkpt><trkpt lat="43.6367667" lon="12.4704267"><ele>500.0</ele><time>2026-04-18T12:27:52.6Z</time></trkpt><trkpt lat="43.6367867" lon="12.4706183"><ele>500.0</ele><time>2026-04-18T12:27:53.6Z</time></trkpt><trkpt lat="43.6368117" lon="12.47082"><ele>500.0</ele><time>2026-04-18T12:27:54.6Z</time></trkpt><trkpt lat="43.636855" lon="12.4710133"><ele>498.75</ele><time>2026-04-18T12:27:55.6Z</time></trkpt><trkpt lat="43.6369067" lon="12.47118"><ele>497.5</ele><time>2026-04-18T12:27:56.6Z</time></trkpt><trkpt lat="43.636995" lon="12.471325"><ele>496.25</ele><time>2026-04-18T12:27:57.6Z</time></trkpt><trkpt lat="43.6371067" lon="12.4714433"><ele>495.0</ele><time>2026-04-18T12:27:58.6Z</time></trkpt><trkpt lat="43.637255" lon="12.4715367"><ele>495.0</ele><time>2026-04-18T12:27:59.6Z</time></trkpt><trkpt lat="43.6374083" lon="12.4716167"><ele>495.0</ele><time>2026-04-18T12:28:00.6Z</time></trkpt><trkpt lat="43.6375617" lon="12.471695"><ele>495.0</ele><time>2026-04-18T12:28:01.6Z</time></trkpt><trkpt lat="43.6377" lon="12.4717717"><ele>493.25</ele><time>2026-04-18T12:28:02.6Z</time></trkpt><trkpt lat="43.6378267" lon="12.471845"><ele>491.5</ele><time>2026-04-18T12:28:03.6Z</time></trkpt><trkpt lat="43.6379533" lon="12.4719317"><ele>489.75</ele><time>2026-04-18T12:28:04.6Z</time></trkpt><trkpt lat="43.6380767" lon="12.4720383"><ele>488.0</ele><time>2026-04-18T12:28:05.6Z</time></trkpt><trkpt lat="43.638195" lon="12.47217"><ele>488.0</ele><time>2026-04-18T12:28:06.6Z</time></trkpt><trkpt lat="43.6383083" lon="12.472325"><ele>488.0</ele><time>2026-04-18T12:28:07.6Z</time></trkpt><trkpt lat="43.638415" lon="12.4724767"><ele>488.0</ele><time>2026-04-18T12:28:08.6Z</time></trkpt><trkpt lat="43.6385133" lon="12.47262"><ele>488.0</ele><time>2026-04-18T12:28:09.6Z</time></trkpt><trkpt lat="43.6386267" lon="12.4727417"><ele>488.0</ele><time>2026-04-18T12:28:10.6Z</time></trkpt><trkpt lat="43.6387467" lon="12.4728383"><ele>488.0</ele><time>2026-04-18T12:28:11.6Z</time></trkpt><trkpt lat="43.63889" lon="12.47291"><ele>488.0</ele><time>2026-04-18T12:28:12.6Z</time></trkpt><trkpt lat="43.6390533" lon="12.4729317"><ele>482.0</ele><time>2026-04-18T12:28:13.6Z</time></trkpt><trkpt lat="43.63923" lon="12.47292"><ele>476.0</ele><time>2026-04-18T12:28:14.6Z</time></trkpt><trkpt lat="43.6394017" lon="12.472905"><ele>470.0</ele><time>2026-04-18T12:28:15.6Z</time></trkpt><trkpt lat="43.63955" lon="12.4729133"><ele>470.5</ele><time>2026-04-18T12:28:16.6Z</time></trkpt><trkpt lat="43.6396933" lon="12.4729317"><ele>471.0</ele><time>2026-04-18T12:28:17.6Z</time></trkpt><trkpt lat="43.639825" lon="12.4729833"><ele>471.5</ele><time>2026-04-18T12:28:18.6Z</time></trkpt><trkpt lat="43.6399667" lon="12.4730717"><ele>472.0</ele><time>2026-04-18T12:28:19.6Z</time></trkpt><trkpt lat="43.6400983" lon="12.473205"><ele>472.0</ele><time>2026-04-18T12:28:20.6Z</time></trkpt><trkpt lat="43.64023" lon="12.4733733"><ele>472.0</ele><time>2026-04-18T12:28:21.6Z</time></trkpt><trkpt lat="43.64036" lon="12.4735483"><ele>472.0</ele><time>2026-04-18T12:28:22.6Z</time></trkpt><trkpt lat="43.6404867" lon="12.4737267"><ele>468.6666666666667</ele><time>2026-04-18T12:28:23.6Z</time></trkpt><trkpt lat="43.6406167" lon="12.4739017"><ele>465.33333333333337</ele><time>2026-04-18T12:28:24.6Z</time></trkpt><trkpt lat="43.64075" lon="12.474075"><ele>462.0</ele><time>2026-04-18T12:28:25.6Z</time></trkpt><trkpt lat="43.640885" lon="12.4742533"><ele>462.0</ele><time>2026-04-18T12:28:26.6Z</time></trkpt><trkpt lat="43.6410217" lon="12.4744233"><ele>462.0</ele><time>2026-04-18T12:28:27.6Z</time></trkpt><trkpt lat="43.6411533" lon="12.4746067"><ele>462.0</ele><time>2026-04-18T12:28:28.6Z</time></trkpt><trkpt lat="43.6412767" lon="12.4748"><ele>458.33333333333337</ele><time>2026-04-18T12:28:29.599Z</time></trkpt><trkpt lat="43.64138" lon="12.475005"><ele>454.6666666666667</ele><time>2026-04-18T12:28:30.6Z</time></trkpt><trkpt lat="43.6414667" lon="12.4752033"><ele>451.0</ele><time>2026-04-18T12:28:31.6Z</time></trkpt><trkpt lat="43.64155" lon="12.475395"><ele>452.0</ele><time>2026-04-18T12:28:32.6Z</time></trkpt><trkpt lat="43.6416417" lon="12.4755817"><ele>453.0</ele><time>2026-04-18T12:28:33.6Z</time></trkpt><trkpt lat="43.6417317" lon="12.4757567"><ele>454.0</ele><time>2026-04-18T12:28:34.6Z</time></trkpt><trkpt lat="43.641825" lon="12.4759217"><ele>454.0</ele><time>2026-04-18T12:28:35.6Z</time></trkpt><trkpt lat="43.6419233" lon="12.47608"><ele>454.0</ele><time>2026-04-18T12:28:36.6Z</time></trkpt><trkpt lat="43.6420317" lon="12.4762417"><ele>454.0</ele><time>2026-04-18T12:28:37.6Z</time></trkpt><trkpt lat="43.64215" lon="12.4763917"><ele>452.6666666666667</ele><time>2026-04-18T12:28:38.6Z</time></trkpt><trkpt lat="43.6422717" lon="12.47654"><ele>451.33333333333337</ele><time>2026-04-18T12:28:39.6Z</time></trkpt><trkpt lat="43.6423917" lon="12.4767017"><ele>450.0</ele><time>2026-04-18T12:28:40.6Z</time></trkpt><trkpt lat="43.6425" lon="12.4768817"><ele>450.0</ele><time>2026-04-18T12:28:41.6Z</time></trkpt><trkpt lat="43.6425967" lon="12.4770683"><ele>450.0</ele><time>2026-04-18T12:28:42.6Z</time></trkpt><trkpt lat="43.642695" lon="12.477265"><ele>450.0</ele><time>2026-04-18T12:28:43.6Z</time></trkpt><trkpt lat="43.6427983" lon="12.477465"><ele>447.33333333333337</ele><time>2026-04-18T12:28:44.6Z</time></trkpt><trkpt lat="43.642905" lon="12.4776667"><ele>444.6666666666667</ele><time>2026-04-18T12:28:45.6Z</time></trkpt><trkpt lat="43.6430233" lon="12.4778617"><ele>442.0</ele><time>2026-04-18T12:28:46.6Z</time></trkpt><trkpt lat="43.643145" lon="12.4780583"><ele>442.0</ele><time>2026-04-18T12:28:47.6Z</time></trkpt><trkpt lat="43.6432767" lon="12.4782533"><ele>442.0</ele><time>2026-04-18T12:28:48.6Z</time></trkpt><trkpt lat="43.6434167" lon="12.4784383"><ele>442.0</ele><time>2026-04-18T12:28:49.6Z</time></trkpt><trkpt lat="43.6435483" lon="12.47862"><ele>439.0</ele><time>2026-04-18T12:28:50.6Z</time></trkpt><trkpt lat="43.6436833" lon="12.4787933"><ele>436.0</ele><time>2026-04-18T12:28:51.6Z</time></trkpt><trkpt lat="43.643825" lon="12.4789567"><ele>433.0</ele><time>2026-04-18T12:28:52.6Z</time></trkpt><trkpt lat="43.643975" lon="12.479105"><ele>433.0</ele><time>2026-04-18T12:28:53.6Z</time></trkpt><trkpt lat="43.6441417" lon="12.47923"><ele>433.0</ele><time>2026-04-18T12:28:54.6Z</time></trkpt><trkpt lat="43.644315" lon="12.4793433"><ele>433.0</ele><time>2026-04-18T12:28:55.6Z</time></trkpt><trkpt lat="43.6444983" lon="12.4794483"><ele>433.6666666666667</ele><time>2026-04-18T12:28:56.6Z</time></trkpt><trkpt lat="43.6446817" lon="12.4795517"><ele>434.33333333333337</ele><time>2026-04-18T12:28:57.599Z</time></trkpt><trkpt lat="43.6448533" lon="12.4796467"><ele>435.0</ele><time>2026-04-18T12:28:58.6Z</time></trkpt><trkpt lat="43.6450283" lon="12.4797433"><ele>436.33333333333337</ele><time>2026-04-18T12:28:59.6Z</time></trkpt><trkpt lat="43.6451967" lon="12.4797983"><ele>437.6666666666667</ele><time>2026-04-18T12:29:00.6Z</time></trkpt><trkpt lat="43.6453733" lon="12.47982"><ele>439.0</ele><time>2026-04-18T12:29:01.6Z</time></trkpt><trkpt lat="43.6455517" lon="12.4798067"><ele>435.0</ele><time>2026-04-18T12:29:02.6Z</time></trkpt><trkpt lat="43.6456983" lon="12.4797783"><ele>431.0</ele><time>2026-04-18T12:29:03.6Z</time></trkpt><trkpt lat="43.6458483" lon="12.47979"><ele>427.0</ele><time>2026-04-18T12:29:04.6Z</time></trkpt><trkpt lat="43.6460033" lon="12.4798417"><ele>429.33333333333337</ele><time>2026-04-18T12:29:05.6Z</time></trkpt><trkpt lat="43.6461617" lon="12.4799317"><ele>431.66666666666663</ele><time>2026-04-18T12:29:06.6Z</time></trkpt><trkpt lat="43.64632" lon="12.4800267"><ele>434.0</ele><time>2026-04-18T12:29:07.6Z</time></trkpt><trkpt lat="43.6464733" lon="12.4801283"><ele>434.0</ele><time>2026-04-18T12:29:08.6Z</time></trkpt><trkpt lat="43.6466383" lon="12.480235"><ele>434.0</ele><time>2026-04-18T12:29:09.6Z</time></trkpt><trkpt lat="43.646805" lon="12.4803433"><ele>434.0</ele><time>2026-04-18T12:29:10.6Z</time></trkpt><trkpt lat="43.646965" lon="12.4804533"><ele>429.66666666666663</ele><time>2026-04-18T12:29:11.6Z</time></trkpt><trkpt lat="43.6471317" lon="12.48056"><ele>425.33333333333337</ele><time>2026-04-18T12:29:12.6Z</time></trkpt><trkpt lat="43.6473017" lon="12.4806733"><ele>421.0</ele><time>2026-04-18T12:29:13.6Z</time></trkpt><trkpt lat="43.6474683" lon="12.4807817"><ele>421.0</ele><time>2026-04-18T12:29:14.6Z</time></trkpt><trkpt lat="43.6476467" lon="12.4808867"><ele>421.0</ele><time>2026-04-18T12:29:15.6Z</time></trkpt><trkpt lat="43.647815" lon="12.4810083"><ele>421.0</ele><time>2026-04-18T12:29:16.6Z</time></trkpt><trkpt lat="43.647985" lon="12.4811683"><ele>420.33333333333337</ele><time>2026-04-18T12:29:17.599Z</time></trkpt><trkpt lat="43.648155" lon="12.4813367"><ele>419.66666666666663</ele><time>2026-04-18T12:29:18.6Z</time></trkpt><trkpt lat="43.6483183" lon="12.481495"><ele>419.0</ele><time>2026-04-18T12:29:19.6Z</time></trkpt><trkpt lat="43.64848" lon="12.48165"><ele>419.66666666666663</ele><time>2026-04-18T12:29:20.599Z</time></trkpt><trkpt lat="43.64864" lon="12.4817967"><ele>420.33333333333337</ele><time>2026-04-18T12:29:21.6Z</time></trkpt><trkpt lat="43.64879" lon="12.481945"><ele>421.0</ele><time>2026-04-18T12:29:22.6Z</time></trkpt><trkpt lat="43.6489267" lon="12.4820933"><ele>416.0</ele><time>2026-04-18T12:29:23.6Z</time></trkpt><trkpt lat="43.6490617" lon="12.4822367"><ele>411.0</ele><time>2026-04-18T12:29:24.6Z</time></trkpt><trkpt lat="43.6491983" lon="12.4823483"><ele>406.0</ele><time>2026-04-18T12:29:25.6Z</time></trkpt><trkpt lat="43.649345" lon="12.482465"><ele>406.6666666666667</ele><time>2026-04-18T12:29:26.6Z</time></trkpt><trkpt lat="43.6494983" lon="12.48257"><ele>407.33333333333337</ele><time>2026-04-18T12:29:27.6Z</time></trkpt><trkpt lat="43.649665" lon="12.4826533"><ele>408.0</ele><time>2026-04-18T12:29:28.6Z</time></trkpt><trkpt lat="43.6498383" lon="12.4827133"><ele>408.0</ele><time>2026-04-18T12:29:29.6Z</time></trkpt><trkpt lat="43.6500117" lon="12.4827417"><ele>408.0</ele><time>2026-04-18T12:29:30.6Z</time></trkpt><trkpt lat="43.6501917" lon="12.482755"><ele>408.0</ele><time>2026-04-18T12:29:31.6Z</time></trkpt><trkpt lat="43.6503683" lon="12.4827417"><ele>408.0</ele><time>2026-04-18T12:29:32.6Z</time></trkpt><trkpt lat="43.65055" lon="12.4827033"><ele>408.0</ele><time>2026-04-18T12:29:33.6Z</time></trkpt><trkpt lat="43.6507317" lon="12.4826483"><ele>408.0</ele><time>2026-04-18T12:29:34.6Z</time></trkpt><trkpt lat="43.6509" lon="12.482575"><ele>408.0</ele><time>2026-04-18T12:29:35.6Z</time></trkpt><trkpt lat="43.6510483" lon="12.482485"><ele>408.0</ele><time>2026-04-18T12:29:36.6Z</time></trkpt><trkpt lat="43.6511817" lon="12.482395"><ele>408.0</ele><time>2026-04-18T12:29:37.6Z</time></trkpt><trkpt lat="43.6513167" lon="12.4823317"><ele>407.25</ele><time>2026-04-18T12:29:38.6Z</time></trkpt><trkpt lat="43.65145" lon="12.4822817"><ele>406.5</ele><time>2026-04-18T12:29:39.6Z</time></trkpt><trkpt lat="43.651575" lon="12.4822633"><ele>405.75</ele><time>2026-04-18T12:29:40.6Z</time></trkpt><trkpt lat="43.651715" lon="12.4822867"><ele>405.0</ele><time>2026-04-18T12:29:41.6Z</time></trkpt><trkpt lat="43.6518617" lon="12.482355"><ele>407.66666666666663</ele><time>2026-04-18T12:29:42.6Z</time></trkpt><trkpt lat="43.652005" lon="12.4824483"><ele>410.3333333333333</ele><time>2026-04-18T12:29:43.6Z</time></trkpt><trkpt lat="43.6521617" lon="12.4825517"><ele>413.0</ele><time>2026-04-18T12:29:44.6Z</time></trkpt><trkpt lat="43.6523333" lon="12.4826367"><ele>413.0</ele><time>2026-04-18T12:29:45.6Z</time></trkpt><trkpt lat="43.6525233" lon="12.482685"><ele>413.0</ele><time>2026-04-18T12:29:46.6Z</time></trkpt><trkpt lat="43.6527167" lon="12.4827167"><ele>413.0</ele><time>2026-04-18T12:29:47.6Z</time></trkpt><trkpt lat="43.6529083" lon="12.4827633"><ele>411.3333333333333</ele><time>2026-04-18T12:29:48.6Z</time></trkpt><trkpt lat="43.6531067" lon="12.482825"><ele>409.66666666666663</ele><time>2026-04-18T12:29:49.6Z</time></trkpt><trkpt lat="43.653295" lon="12.4829083"><ele>408.0</ele><time>2026-04-18T12:29:50.6Z</time></trkpt><trkpt lat="43.6536417" lon="12.483135"><ele>408.0</ele><time>2026-04-18T12:29:52.6Z</time></trkpt><trkpt lat="43.6538117" lon="12.48326"><ele>408.0</ele><time>2026-04-18T12:29:53.6Z</time></trkpt><trkpt lat="43.6539767" lon="12.4833967"><ele>408.0</ele><time>2026-04-18T12:29:54.6Z</time></trkpt><trkpt lat="43.6541517" lon="12.48353"><ele>408.0</ele><time>2026-04-18T12:29:55.6Z</time></trkpt><trkpt lat="43.6543333" lon="12.4836733"><ele>408.0</ele><time>2026-04-18T12:29:56.6Z</time></trkpt><trkpt lat="43.6545017" lon="12.483815"><ele>408.0</ele><time>2026-04-18T12:29:57.6Z</time></trkpt><trkpt lat="43.6546633" lon="12.4839783"><ele>405.0</ele><time>2026-04-18T12:29:58.6Z</time></trkpt><trkpt lat="43.6548067" lon="12.4841617"><ele>402.0</ele><time>2026-04-18T12:29:59.6Z</time></trkpt><trkpt lat="43.6549433" lon="12.48436"><ele>399.0</ele><time>2026-04-18T12:30:00.6Z</time></trkpt><trkpt lat="43.6550733" lon="12.4845733"><ele>399.33333333333337</ele><time>2026-04-18T12:30:01.6Z</time></trkpt><trkpt lat="43.6552067" lon="12.4847933"><ele>399.6666666666667</ele><time>2026-04-18T12:30:02.6Z</time></trkpt><trkpt lat="43.6553417" lon="12.4850133"><ele>400.0</ele><time>2026-04-18T12:30:03.6Z</time></trkpt><trkpt lat="43.6554717" lon="12.4852283"><ele>394.0</ele><time>2026-04-18T12:30:04.6Z</time></trkpt><trkpt lat="43.655595" lon="12.4854333"><ele>388.0</ele><time>2026-04-18T12:30:05.6Z</time></trkpt><trkpt lat="43.6557167" lon="12.4856433"><ele>382.0</ele><time>2026-04-18T12:30:06.6Z</time></trkpt><trkpt lat="43.6558467" lon="12.4858517"><ele>382.0</ele><time>2026-04-18T12:30:07.6Z</time></trkpt><trkpt lat="43.6559733" lon="12.4860633"><ele>382.0</ele><time>2026-04-18T12:30:08.6Z</time></trkpt><trkpt lat="43.656105" lon="12.4862767"><ele>382.0</ele><time>2026-04-18T12:30:09.6Z</time></trkpt><trkpt lat="43.6562383" lon="12.4864933"><ele>383.0</ele><time>2026-04-18T12:30:10.6Z</time></trkpt><trkpt lat="43.6563683" lon="12.4867083"><ele>384.0</ele><time>2026-04-18T12:30:11.6Z</time></trkpt><trkpt lat="43.6564917" lon="12.48692"><ele>385.0</ele><time>2026-04-18T12:30:12.6Z</time></trkpt><trkpt lat="43.6566167" lon="12.4871283"><ele>384.6666666666667</ele><time>2026-04-18T12:30:13.6Z</time></trkpt><trkpt lat="43.6567433" lon="12.4873467"><ele>384.33333333333337</ele><time>2026-04-18T12:30:14.6Z</time></trkpt><trkpt lat="43.6568717" lon="12.4875667"><ele>384.0</ele><time>2026-04-18T12:30:15.6Z</time></trkpt><trkpt lat="43.6570033" lon="12.487785"><ele>381.0</ele><time>2026-04-18T12:30:16.6Z</time></trkpt><trkpt lat="43.6571283" lon="12.4879967"><ele>378.0</ele><time>2026-04-18T12:30:17.6Z</time></trkpt><trkpt lat="43.6572583" lon="12.4882033"><ele>375.0</ele><time>2026-04-18T12:30:18.6Z</time></trkpt><trkpt lat="43.65738" lon="12.4883917"><ele>375.0</ele><time>2026-04-18T12:30:19.6Z</time></trkpt><trkpt lat="43.6574917" lon="12.48856"><ele>375.0</ele><time>2026-04-18T12:30:20.6Z</time></trkpt><trkpt lat="43.6575917" lon="12.488735"><ele>375.0</ele><time>2026-04-18T12:30:21.6Z</time></trkpt><trkpt lat="43.6576733" lon="12.488925"><ele>372.3333333333333</ele><time>2026-04-18T12:30:22.6Z</time></trkpt><trkpt lat="43.657735" lon="12.4891383"><ele>369.66666666666663</ele><time>2026-04-18T12:30:23.6Z</time></trkpt><trkpt lat="43.657785" lon="12.4893817"><ele>367.0</ele><time>2026-04-18T12:30:24.6Z</time></trkpt><trkpt lat="43.657825" lon="12.4896217"><ele>367.0</ele><time>2026-04-18T12:30:25.6Z</time></trkpt><trkpt lat="43.6578717" lon="12.4898617"><ele>367.0</ele><time>2026-04-18T12:30:26.6Z</time></trkpt><trkpt lat="43.6579317" lon="12.4901067"><ele>367.0</ele><time>2026-04-18T12:30:27.6Z</time></trkpt><trkpt lat="43.6579917" lon="12.4903333"><ele>363.3333333333333</ele><time>2026-04-18T12:30:28.6Z</time></trkpt><trkpt lat="43.65807" lon="12.490565"><ele>359.6666666666667</ele><time>2026-04-18T12:30:29.6Z</time></trkpt><trkpt lat="43.6581767" lon="12.49079"><ele>356.0</ele><time>2026-04-18T12:30:30.6Z</time></trkpt><trkpt lat="43.6583083" lon="12.4910217"><ele>356.0</ele><time>2026-04-18T12:30:31.6Z</time></trkpt><trkpt lat="43.65844" lon="12.4912567"><ele>356.0</ele><time>2026-04-18T12:30:32.6Z</time></trkpt><trkpt lat="43.6585667" lon="12.491495"><ele>356.0</ele><time>2026-04-18T12:30:33.6Z</time></trkpt><trkpt lat="43.6586883" lon="12.4917183"><ele>356.0</ele><time>2026-04-18T12:30:34.6Z</time></trkpt><trkpt lat="43.6588033" lon="12.4919383"><ele>356.0</ele><time>2026-04-18T12:30:35.6Z</time></trkpt><trkpt lat="43.6589133" lon="12.49216"><ele>356.0</ele><time>2026-04-18T12:30:36.6Z</time></trkpt><trkpt lat="43.6590233" lon="12.4923817"><ele>353.33333333333337</ele><time>2026-04-18T12:30:37.6Z</time></trkpt><trkpt lat="43.65912" lon="12.4926083"><ele>350.6666666666667</ele><time>2026-04-18T12:30:38.6Z</time></trkpt><trkpt lat="43.6592117" lon="12.4928367"><ele>348.0</ele><time>2026-04-18T12:30:39.6Z</time></trkpt><trkpt lat="43.6592783" lon="12.4930583"><ele>346.3333333333333</ele><time>2026-04-18T12:30:40.6Z</time></trkpt><trkpt lat="43.6593317" lon="12.49327"><ele>344.66666666666663</ele><time>2026-04-18T12:30:41.6Z</time></trkpt><trkpt lat="43.6593767" lon="12.493485"><ele>343.0</ele><time>2026-04-18T12:30:42.6Z</time></trkpt><trkpt lat="43.6594267" lon="12.4936917"><ele>343.25</ele><time>2026-04-18T12:30:43.6Z</time></trkpt><trkpt lat="43.6594817" lon="12.49387"><ele>343.5</ele><time>2026-04-18T12:30:44.6Z</time></trkpt><trkpt lat="43.65956" lon="12.4940083"><ele>343.75</ele><time>2026-04-18T12:30:45.6Z</time></trkpt><trkpt lat="43.659655" lon="12.494105"><ele>344.0</ele><time>2026-04-18T12:30:46.6Z</time></trkpt><trkpt lat="43.6597833" lon="12.4941683"><ele>344.0</ele><time>2026-04-18T12:30:47.6Z</time></trkpt><trkpt lat="43.6599217" lon="12.4942"><ele>344.0</ele><time>2026-04-18T12:30:48.6Z</time></trkpt><trkpt lat="43.660075" lon="12.4942383"><ele>344.0</ele><time>2026-04-18T12:30:49.6Z</time></trkpt><trkpt lat="43.660225" lon="12.4942917"><ele>345.33333333333337</ele><time>2026-04-18T12:30:50.6Z</time></trkpt><trkpt lat="43.66038" lon="12.4943767"><ele>346.6666666666667</ele><time>2026-04-18T12:30:51.6Z</time></trkpt><trkpt lat="43.6605167" lon="12.4945017"><ele>348.0</ele><time>2026-04-18T12:30:52.6Z</time></trkpt><trkpt lat="43.66062" lon="12.494655"><ele>348.0</ele><time>2026-04-18T12:30:53.6Z</time></trkpt><trkpt lat="43.6607267" lon="12.4948283"><ele>348.0</ele><time>2026-04-18T12:30:54.6Z</time></trkpt><trkpt lat="43.66083" lon="12.4950183"><ele>348.0</ele><time>2026-04-18T12:30:55.6Z</time></trkpt><trkpt lat="43.6609283" lon="12.495205"><ele>348.0</ele><time>2026-04-18T12:30:56.6Z</time></trkpt><trkpt lat="43.661035" lon="12.495385"><ele>348.0</ele><time>2026-04-18T12:30:57.6Z</time></trkpt><trkpt lat="43.6611433" lon="12.4955683"><ele>348.0</ele><time>2026-04-18T12:30:58.6Z</time></trkpt><trkpt lat="43.661265" lon="12.4957483"><ele>348.6666666666667</ele><time>2026-04-18T12:30:59.6Z</time></trkpt><trkpt lat="43.6613967" lon="12.495925"><ele>349.33333333333337</ele><time>2026-04-18T12:31:00.6Z</time></trkpt><trkpt lat="43.661535" lon="12.49609"><ele>350.0</ele><time>2026-04-18T12:31:01.6Z</time></trkpt><trkpt lat="43.6616733" lon="12.4962533"><ele>350.0</ele><time>2026-04-18T12:31:02.6Z</time></trkpt><trkpt lat="43.6618183" lon="12.4964067"><ele>350.0</ele><time>2026-04-18T12:31:03.6Z</time></trkpt><trkpt lat="43.6619683" lon="12.4965533"><ele>350.0</ele><time>2026-04-18T12:31:04.6Z</time></trkpt><trkpt lat="43.6621217" lon="12.4966883"><ele>349.0</ele><time>2026-04-18T12:31:05.6Z</time></trkpt><trkpt lat="43.6622767" lon="12.4968383"><ele>348.0</ele><time>2026-04-18T12:31:06.6Z</time></trkpt><trkpt lat="43.6624367" lon="12.4969917"><ele>347.0</ele><time>2026-04-18T12:31:07.6Z</time></trkpt><trkpt lat="43.6625967" lon="12.49714"><ele>347.0</ele><time>2026-04-18T12:31:08.6Z</time></trkpt><trkpt lat="43.6627617" lon="12.4972933"><ele>347.0</ele><time>2026-04-18T12:31:09.6Z</time></trkpt><trkpt lat="43.6629233" lon="12.49745"><ele>347.0</ele><time>2026-04-18T12:31:10.6Z</time></trkpt><trkpt lat="43.6630867" lon="12.4976083"><ele>346.6666666666667</ele><time>2026-04-18T12:31:11.6Z</time></trkpt><trkpt lat="43.663245" lon="12.4977683"><ele>346.3333333333333</ele><time>2026-04-18T12:31:12.6Z</time></trkpt><trkpt lat="43.6633983" lon="12.49792"><ele>346.0</ele><time>2026-04-18T12:31:13.6Z</time></trkpt><trkpt lat="43.6635567" lon="12.4980617"><ele>343.0</ele><time>2026-04-18T12:31:14.6Z</time></trkpt><trkpt lat="43.6637183" lon="12.4981867"><ele>340.0</ele><time>2026-04-18T12:31:15.6Z</time></trkpt><trkpt lat="43.66389" lon="12.49829"><ele>337.0</ele><time>2026-04-18T12:31:16.6Z</time></trkpt><trkpt lat="43.6640683" lon="12.49837"><ele>337.0</ele><time>2026-04-18T12:31:17.6Z</time></trkpt><trkpt lat="43.6642567" lon="12.4984317"><ele>337.0</ele><time>2026-04-18T12:31:18.6Z</time></trkpt><trkpt lat="43.664445" lon="12.49849"><ele>337.0</ele><time>2026-04-18T12:31:19.6Z</time></trkpt><trkpt lat="43.66463" lon="12.4985617"><ele>336.3333333333333</ele><time>2026-04-18T12:31:20.6Z</time></trkpt><trkpt lat="43.6648133" lon="12.498645"><ele>335.6666666666667</ele><time>2026-04-18T12:31:21.6Z</time></trkpt><trkpt lat="43.6649933" lon="12.4987483"><ele>335.0</ele><time>2026-04-18T12:31:22.6Z</time></trkpt><trkpt lat="43.6651667" lon="12.4988683"><ele>333.6666666666667</ele><time>2026-04-18T12:31:23.6Z</time></trkpt><trkpt lat="43.6653433" lon="12.498995"><ele>332.3333333333333</ele><time>2026-04-18T12:31:24.6Z</time></trkpt><trkpt lat="43.66552" lon="12.4991283"><ele>331.0</ele><time>2026-04-18T12:31:25.6Z</time></trkpt><trkpt lat="43.6656933" lon="12.4992817"><ele>331.0</ele><time>2026-04-18T12:31:26.6Z</time></trkpt><trkpt lat="43.6658617" lon="12.49945"><ele>331.0</ele><time>2026-04-18T12:31:27.6Z</time></trkpt><trkpt lat="43.6660283" lon="12.4996267"><ele>331.0</ele><time>2026-04-18T12:31:28.6Z</time></trkpt><trkpt lat="43.666195" lon="12.499805"><ele>331.0</ele><time>2026-04-18T12:31:29.6Z</time></trkpt><trkpt lat="43.666365" lon="12.4999833"><ele>331.0</ele><time>2026-04-18T12:31:30.6Z</time></trkpt><trkpt lat="43.666535" lon="12.5001633"><ele>331.0</ele><time>2026-04-18T12:31:31.6Z</time></trkpt><trkpt lat="43.6667083" lon="12.5003417"><ele>330.0</ele><time>2026-04-18T12:31:32.6Z</time></trkpt><trkpt lat="43.6668783" lon="12.5005283"><ele>329.0</ele><time>2026-04-18T12:31:33.6Z</time></trkpt><trkpt lat="43.6670467" lon="12.5007133"><ele>328.0</ele><time>2026-04-18T12:31:34.6Z</time></trkpt><trkpt lat="43.66721" lon="12.5009083"><ele>328.0</ele><time>2026-04-18T12:31:35.6Z</time></trkpt><trkpt lat="43.6673683" lon="12.5011017"><ele>328.0</ele><time>2026-04-18T12:31:36.6Z</time></trkpt><trkpt lat="43.66753" lon="12.5012967"><ele>328.0</ele><time>2026-04-18T12:31:37.6Z</time></trkpt><trkpt lat="43.6676917" lon="12.50149"><ele>328.0</ele><time>2026-04-18T12:31:38.6Z</time></trkpt><trkpt lat="43.6678483" lon="12.501685"><ele>328.0</ele><time>2026-04-18T12:31:39.6Z</time></trkpt><trkpt lat="43.668005" lon="12.5018733"><ele>328.0</ele><time>2026-04-18T12:31:40.6Z</time></trkpt><trkpt lat="43.6681583" lon="12.5020567"><ele>329.3333333333333</ele><time>2026-04-18T12:31:41.6Z</time></trkpt><trkpt lat="43.6683067" lon="12.5022367"><ele>330.6666666666667</ele><time>2026-04-18T12:31:42.6Z</time></trkpt><trkpt lat="43.66845" lon="12.5024167"><ele>332.0</ele><time>2026-04-18T12:31:43.6Z</time></trkpt><trkpt lat="43.6685933" lon="12.5025917"><ele>328.6666666666667</ele><time>2026-04-18T12:31:44.6Z</time></trkpt><trkpt lat="43.66873" lon="12.5027783"><ele>325.3333333333333</ele><time>2026-04-18T12:31:45.6Z</time></trkpt><trkpt lat="43.6688567" lon="12.5029817"><ele>322.0</ele><time>2026-04-18T12:31:46.6Z</time></trkpt><trkpt lat="43.6689783" lon="12.5031917"><ele>321.3333333333333</ele><time>2026-04-18T12:31:47.6Z</time></trkpt><trkpt lat="43.6690933" lon="12.5033983"><ele>320.6666666666667</ele><time>2026-04-18T12:31:48.599Z</time></trkpt><trkpt lat="43.6692117" lon="12.5036"><ele>320.0</ele><time>2026-04-18T12:31:49.6Z</time></trkpt><trkpt lat="43.6693333" lon="12.5038083"><ele>318.6666666666667</ele><time>2026-04-18T12:31:50.6Z</time></trkpt><trkpt lat="43.6694583" lon="12.5040117"><ele>317.3333333333333</ele><time>2026-04-18T12:31:51.6Z</time></trkpt><trkpt lat="43.6695917" lon="12.5042133"><ele>316.0</ele><time>2026-04-18T12:31:52.6Z</time></trkpt><trkpt lat="43.669745" lon="12.504405"><ele>320.0</ele><time>2026-04-18T12:31:53.6Z</time></trkpt><trkpt lat="43.6699083" lon="12.50458"><ele>324.0</ele><time>2026-04-18T12:31:54.6Z</time></trkpt><trkpt lat="43.6700717" lon="12.504755"><ele>328.0</ele><time>2026-04-18T12:31:55.6Z</time></trkpt><trkpt lat="43.6702367" lon="12.5049267"><ele>324.3333333333333</ele><time>2026-04-18T12:31:56.6Z</time></trkpt><trkpt lat="43.6703983" lon="12.5050967"><ele>320.6666666666667</ele><time>2026-04-18T12:31:57.6Z</time></trkpt><trkpt lat="43.6705567" lon="12.5052567"><ele>317.0</ele><time>2026-04-18T12:31:58.6Z</time></trkpt><trkpt lat="43.6707067" lon="12.5054033"><ele>315.6666666666667</ele><time>2026-04-18T12:31:59.6Z</time></trkpt><trkpt lat="43.67085" lon="12.5055417"><ele>314.3333333333333</ele><time>2026-04-18T12:32:00.6Z</time></trkpt><trkpt lat="43.670985" lon="12.5056883"><ele>313.0</ele><time>2026-04-18T12:32:01.6Z</time></trkpt><trkpt lat="43.6711267" lon="12.5058367"><ele>313.0</ele><time>2026-04-18T12:32:02.6Z</time></trkpt><trkpt lat="43.671265" lon="12.5059967"><ele>313.0</ele><time>2026-04-18T12:32:03.6Z</time></trkpt><trkpt lat="43.6713983" lon="12.506165"><ele>313.0</ele><time>2026-04-18T12:32:04.6Z</time></trkpt><trkpt lat="43.6715217" lon="12.506345"><ele>314.3333333333333</ele><time>2026-04-18T12:32:05.6Z</time></trkpt><trkpt lat="43.671645" lon="12.5065433"><ele>315.6666666666667</ele><time>2026-04-18T12:32:06.6Z</time></trkpt><trkpt lat="43.6717667" lon="12.5067483"><ele>317.0</ele><time>2026-04-18T12:32:07.6Z</time></trkpt><trkpt lat="43.67189" lon="12.5069533"><ele>315.0</ele><time>2026-04-18T12:32:08.6Z</time></trkpt><trkpt lat="43.6720183" lon="12.5071583"><ele>313.0</ele><time>2026-04-18T12:32:09.6Z</time></trkpt><trkpt lat="43.6721433" lon="12.507365"><ele>311.0</ele><time>2026-04-18T12:32:10.6Z</time></trkpt><trkpt lat="43.6722717" lon="12.507575"><ele>311.0</ele><time>2026-04-18T12:32:11.6Z</time></trkpt><trkpt lat="43.6723983" lon="12.5077867"><ele>311.0</ele><time>2026-04-18T12:32:12.6Z</time></trkpt><trkpt lat="43.6725233" lon="12.5079967"><ele>311.0</ele><time>2026-04-18T12:32:13.6Z</time></trkpt><trkpt lat="43.6726433" lon="12.5082033"><ele>309.33333333333337</ele><time>2026-04-18T12:32:14.6Z</time></trkpt><trkpt lat="43.6727583" lon="12.5084033"><ele>307.6666666666667</ele><time>2026-04-18T12:32:15.6Z</time></trkpt><trkpt lat="43.6728783" lon="12.5085917"><ele>306.0</ele><time>2026-04-18T12:32:16.6Z</time></trkpt><trkpt lat="43.6729917" lon="12.5087683"><ele>306.0</ele><time>2026-04-18T12:32:17.6Z</time></trkpt><trkpt lat="43.6730933" lon="12.5089517"><ele>306.0</ele><time>2026-04-18T12:32:18.6Z</time></trkpt><trkpt lat="43.673185" lon="12.5091467"><ele>306.0</ele><time>2026-04-18T12:32:19.6Z</time></trkpt><trkpt lat="43.6732617" lon="12.50935"><ele>306.0</ele><time>2026-04-18T12:32:20.6Z</time></trkpt><trkpt lat="43.6733433" lon="12.5095667"><ele>306.0</ele><time>2026-04-18T12:32:21.6Z</time></trkpt><trkpt lat="43.6734167" lon="12.5097867"><ele>306.0</ele><time>2026-04-18T12:32:22.6Z</time></trkpt><trkpt lat="43.6734933" lon="12.5100167"><ele>306.3333333333333</ele><time>2026-04-18T12:32:23.6Z</time></trkpt><trkpt lat="43.6735683" lon="12.5102367"><ele>306.66666666666663</ele><time>2026-04-18T12:32:24.6Z</time></trkpt><trkpt lat="43.6736417" lon="12.510455"><ele>307.0</ele><time>2026-04-18T12:32:25.6Z</time></trkpt><trkpt lat="43.6737117" lon="12.5106717"><ele>303.0</ele><time>2026-04-18T12:32:26.6Z</time></trkpt><trkpt lat="43.6737833" lon="12.5108883"><ele>299.0</ele><time>2026-04-18T12:32:27.6Z</time></trkpt><trkpt lat="43.67385" lon="12.5110983"><ele>295.0</ele><time>2026-04-18T12:32:28.6Z</time></trkpt><trkpt lat="43.6739133" lon="12.5112983"><ele>294.66666666666663</ele><time>2026-04-18T12:32:29.6Z</time></trkpt><trkpt lat="43.6739783" lon="12.5114983"><ele>294.3333333333333</ele><time>2026-04-18T12:32:30.6Z</time></trkpt><trkpt lat="43.6740417" lon="12.5116967"><ele>294.0</ele><time>2026-04-18T12:32:31.6Z</time></trkpt><trkpt lat="43.6741083" lon="12.511895"><ele>294.25</ele><time>2026-04-18T12:32:32.6Z</time></trkpt><trkpt lat="43.6741733" lon="12.5120883"><ele>294.5</ele><time>2026-04-18T12:32:33.6Z</time></trkpt><trkpt lat="43.674235" lon="12.5122667"><ele>294.75</ele><time>2026-04-18T12:32:34.6Z</time></trkpt><trkpt lat="43.6742933" lon="12.5124283"><ele>295.0</ele><time>2026-04-18T12:32:35.6Z</time></trkpt><trkpt lat="43.6743483" lon="12.5125983"><ele>295.0</ele><time>2026-04-18T12:32:36.6Z</time></trkpt><trkpt lat="43.6744017" lon="12.512765"><ele>295.0</ele><time>2026-04-18T12:32:37.6Z</time></trkpt><trkpt lat="43.6744483" lon="12.51292"><ele>295.0</ele><time>2026-04-18T12:32:38.6Z</time></trkpt><trkpt lat="43.6744967" lon="12.5130617"><ele>295.0</ele><time>2026-04-18T12:32:39.6Z</time></trkpt><trkpt lat="43.6745433" lon="12.5131933"><ele>294.5</ele><time>2026-04-18T12:32:40.6Z</time></trkpt><trkpt lat="43.67459" lon="12.5133167"><ele>294.0</ele><time>2026-04-18T12:32:41.6Z</time></trkpt><trkpt lat="43.67463" lon="12.5134383"><ele>293.5</ele><time>2026-04-18T12:32:42.6Z</time></trkpt><trkpt lat="43.674665" lon="12.5135533"><ele>293.0</ele><time>2026-04-18T12:32:43.6Z</time></trkpt><trkpt lat="43.6746967" lon="12.51366"><ele>292.5</ele><time>2026-04-18T12:32:44.6Z</time></trkpt><trkpt lat="43.6747083" lon="12.5137667"><ele>292.0</ele><time>2026-04-18T12:32:45.6Z</time></trkpt><trkpt lat="43.6747083" lon="12.5138617"><ele>292.0</ele><time>2026-04-18T12:32:46.599Z</time></trkpt><trkpt lat="43.6746817" lon="12.5139983"><ele>292.0</ele><time>2026-04-18T12:32:48.6Z</time></trkpt><trkpt lat="43.67463" lon="12.514085"><ele>292.0</ele><time>2026-04-18T12:32:50.6Z</time></trkpt><trkpt lat="43.6745767" lon="12.5141417"><ele>292.0</ele><time>2026-04-18T12:32:51.6Z</time></trkpt><trkpt lat="43.6745017" lon="12.5141983"><ele>292.0</ele><time>2026-04-18T12:32:52.6Z</time></trkpt><trkpt lat="43.6744167" lon="12.51426"><ele>292.0</ele><time>2026-04-18T12:32:53.6Z</time></trkpt><trkpt lat="43.6743233" lon="12.51434"><ele>292.0</ele><time>2026-04-18T12:32:54.6Z</time></trkpt><trkpt lat="43.6742217" lon="12.5144283"><ele>292.0</ele><time>2026-04-18T12:32:55.6Z</time></trkpt><trkpt lat="43.674125" lon="12.5145217"><ele>292.0</ele><time>2026-04-18T12:32:56.6Z</time></trkpt><trkpt lat="43.6740417" lon="12.5146333"><ele>292.0</ele><time>2026-04-18T12:32:57.6Z</time></trkpt><trkpt lat="43.6739633" lon="12.5147167"><ele>292.0</ele><time>2026-04-18T12:32:58.6Z</time></trkpt><trkpt lat="43.6738967" lon="12.5147967"><ele>292.0</ele><time>2026-04-18T12:32:59.6Z</time></trkpt><trkpt lat="43.6738333" lon="12.5148733"><ele>292.0</ele><time>2026-04-18T12:33:00.6Z</time></trkpt><trkpt lat="43.6737833" lon="12.5149383"><ele>292.0</ele><time>2026-04-18T12:33:01.6Z</time></trkpt><trkpt lat="43.6737233" lon="12.515055"><ele>292.0</ele><time>2026-04-18T12:33:03.6Z</time></trkpt><trkpt lat="43.67375" lon="12.5151517"><ele>292.0</ele><time>2026-04-18T12:33:06.6Z</time></trkpt><trkpt lat="43.6736533" lon="12.5151283"><ele>292.2</ele><time>2026-04-18T12:39:12.6Z</time></trkpt><trkpt lat="43.6735683" lon="12.5151433"><ele>292.4</ele><time>2026-04-18T12:39:14.6Z</time></trkpt><trkpt lat="43.67349" lon="12.515175"><ele>292.6</ele><time>2026-04-18T12:39:15.6Z</time></trkpt><trkpt lat="43.673385" lon="12.5152567"><ele>292.8</ele><time>2026-04-18T12:39:16.6Z</time></trkpt><trkpt lat="43.6732617" lon="12.5153833"><ele>293.0</ele><time>2026-04-18T12:39:17.6Z</time></trkpt><trkpt lat="43.6731383" lon="12.5155233"><ele>292.25</ele><time>2026-04-18T12:39:18.6Z</time></trkpt><trkpt lat="43.6730167" lon="12.5156667"><ele>291.5</ele><time>2026-04-18T12:39:19.599Z</time></trkpt><trkpt lat="43.6729083" lon="12.5157983"><ele>290.75</ele><time>2026-04-18T12:39:20.6Z</time></trkpt><trkpt lat="43.6728017" lon="12.5159267"><ele>290.0</ele><time>2026-04-18T12:39:21.6Z</time></trkpt><trkpt lat="43.67269" lon="12.5160617"><ele>289.33333333333337</ele><time>2026-04-18T12:39:22.6Z</time></trkpt><trkpt lat="43.6725717" lon="12.5162033"><ele>288.6666666666667</ele><time>2026-04-18T12:39:23.6Z</time></trkpt><trkpt lat="43.6724483" lon="12.5163483"><ele>288.0</ele><time>2026-04-18T12:39:24.6Z</time></trkpt><trkpt lat="43.672325" lon="12.51649"><ele>287.25</ele><time>2026-04-18T12:39:25.6Z</time></trkpt><trkpt lat="43.672205" lon="12.5166283"><ele>286.5</ele><time>2026-04-18T12:39:26.6Z</time></trkpt><trkpt lat="43.6720967" lon="12.5167483"><ele>285.75</ele><time>2026-04-18T12:39:27.6Z</time></trkpt><trkpt lat="43.6719933" lon="12.5168717"><ele>285.0</ele><time>2026-04-18T12:39:28.6Z</time></trkpt><trkpt lat="43.671885" lon="12.5169867"><ele>284.0</ele><time>2026-04-18T12:39:29.6Z</time></trkpt><trkpt lat="43.671785" lon="12.5171033"><ele>283.0</ele><time>2026-04-18T12:39:30.6Z</time></trkpt><trkpt lat="43.6716933" lon="12.5172167"><ele>282.0</ele><time>2026-04-18T12:39:31.6Z</time></trkpt><trkpt lat="43.6716033" lon="12.517345"><ele>281.0</ele><time>2026-04-18T12:39:32.6Z</time></trkpt><trkpt lat="43.6715267" lon="12.51748"><ele>281.0</ele><time>2026-04-18T12:39:33.6Z</time></trkpt><trkpt lat="43.6714533" lon="12.5176117"><ele>281.0</ele><time>2026-04-18T12:39:34.6Z</time></trkpt><trkpt lat="43.6713733" lon="12.51773"><ele>281.0</ele><time>2026-04-18T12:39:35.6Z</time></trkpt><trkpt lat="43.67129" lon="12.5178067"><ele>281.0</ele><time>2026-04-18T12:39:36.6Z</time></trkpt><trkpt lat="43.67121" lon="12.5178567"><ele>281.0</ele><time>2026-04-18T12:39:37.6Z</time></trkpt><trkpt lat="43.6711483" lon="12.5179167"><ele>280.6666666666667</ele><time>2026-04-18T12:39:38.6Z</time></trkpt><trkpt lat="43.6710983" lon="12.51799"><ele>280.33333333333337</ele><time>2026-04-18T12:39:39.6Z</time></trkpt><trkpt lat="43.67108" lon="12.5180833"><ele>280.0</ele><time>2026-04-18T12:39:40.6Z</time></trkpt><trkpt lat="43.6710883" lon="12.518185"><ele>279.6666666666667</ele><time>2026-04-18T12:39:41.6Z</time></trkpt><trkpt lat="43.67114" lon="12.5183033"><ele>279.3333333333333</ele><time>2026-04-18T12:39:42.6Z</time></trkpt><trkpt lat="43.6712033" lon="12.518455"><ele>279.0</ele><time>2026-04-18T12:39:43.599Z</time></trkpt><trkpt lat="43.6712467" lon="12.5186417"><ele>275.3333333333333</ele><time>2026-04-18T12:39:44.6Z</time></trkpt><trkpt lat="43.6712633" lon="12.5188517"><ele>271.66666666666663</ele><time>2026-04-18T12:39:45.6Z</time></trkpt><trkpt lat="43.6712483" lon="12.519065"><ele>268.0</ele><time>2026-04-18T12:39:46.6Z</time></trkpt><trkpt lat="43.6712333" lon="12.5192867"><ele>268.0</ele><time>2026-04-18T12:39:47.6Z</time></trkpt><trkpt lat="43.6712217" lon="12.51951"><ele>268.0</ele><time>2026-04-18T12:39:48.6Z</time></trkpt><trkpt lat="43.6712067" lon="12.519735"><ele>268.0</ele><time>2026-04-18T12:39:49.6Z</time></trkpt><trkpt lat="43.6711917" lon="12.5199567"><ele>266.66666666666663</ele><time>2026-04-18T12:39:50.6Z</time></trkpt><trkpt lat="43.67117" lon="12.5201783"><ele>265.3333333333333</ele><time>2026-04-18T12:39:51.6Z</time></trkpt><trkpt lat="43.6711567" lon="12.52039"><ele>264.0</ele><time>2026-04-18T12:39:52.6Z</time></trkpt><trkpt lat="43.671145" lon="12.5205983"><ele>266.5</ele><time>2026-04-18T12:39:53.6Z</time></trkpt><trkpt lat="43.6711383" lon="12.5208083"><ele>269.0</ele><time>2026-04-18T12:39:54.6Z</time></trkpt><trkpt lat="43.671145" lon="12.521015"><ele>271.5</ele><time>2026-04-18T12:39:55.6Z</time></trkpt><trkpt lat="43.671165" lon="12.521215"><ele>274.0</ele><time>2026-04-18T12:39:56.6Z</time></trkpt><trkpt lat="43.6712033" lon="12.5214183"><ele>274.5</ele><time>2026-04-18T12:39:57.6Z</time></trkpt><trkpt lat="43.6712533" lon="12.5215967"><ele>275.0</ele><time>2026-04-18T12:39:58.6Z</time></trkpt><trkpt lat="43.6712967" lon="12.52176"><ele>275.5</ele><time>2026-04-18T12:39:59.6Z</time></trkpt><trkpt lat="43.6713483" lon="12.5219"><ele>276.0</ele><time>2026-04-18T12:40:00.6Z</time></trkpt><trkpt lat="43.6714" lon="12.522035"><ele>276.1666666666667</ele><time>2026-04-18T12:40:01.6Z</time></trkpt><trkpt lat="43.6714383" lon="12.5221483"><ele>276.3333333333333</ele><time>2026-04-18T12:40:02.6Z</time></trkpt><trkpt lat="43.671465" lon="12.5222667"><ele>276.5</ele><time>2026-04-18T12:40:03.6Z</time></trkpt><trkpt lat="43.6714767" lon="12.5223817"><ele>276.66666666666663</ele><time>2026-04-18T12:40:04.6Z</time></trkpt><trkpt lat="43.671485" lon="12.5224917"><ele>276.8333333333333</ele><time>2026-04-18T12:40:05.6Z</time></trkpt><trkpt lat="43.6715117" lon="12.5225967"><ele>277.0</ele><time>2026-04-18T12:40:06.6Z</time></trkpt><trkpt lat="43.671565" lon="12.522685"><ele>277.0</ele><time>2026-04-18T12:40:07.6Z</time></trkpt><trkpt lat="43.6716433" lon="12.522765"><ele>277.0</ele><time>2026-04-18T12:40:08.6Z</time></trkpt><trkpt lat="43.6717467" lon="12.5228217"><ele>277.0</ele><time>2026-04-18T12:40:09.6Z</time></trkpt><trkpt lat="43.6718783" lon="12.522875"><ele>277.0</ele><time>2026-04-18T12:40:10.6Z</time></trkpt><trkpt lat="43.672" lon="12.5229333"><ele>277.25</ele><time>2026-04-18T12:40:11.6Z</time></trkpt><trkpt lat="43.672125" lon="12.5229933"><ele>277.5</ele><time>2026-04-18T12:40:12.6Z</time></trkpt><trkpt lat="43.6722467" lon="12.5230533"><ele>277.75</ele><time>2026-04-18T12:40:13.6Z</time></trkpt><trkpt lat="43.6723767" lon="12.523115"><ele>278.0</ele><time>2026-04-18T12:40:14.6Z</time></trkpt><trkpt lat="43.6725117" lon="12.5231733"><ele>278.0</ele><time>2026-04-18T12:40:15.6Z</time></trkpt><trkpt lat="43.6726517" lon="12.52324"><ele>278.0</ele><time>2026-04-18T12:40:16.6Z</time></trkpt><trkpt lat="43.6727917" lon="12.5233133"><ele>278.0</ele><time>2026-04-18T12:40:17.6Z</time></trkpt><trkpt lat="43.6729333" lon="12.52339"><ele>278.33333333333337</ele><time>2026-04-18T12:40:18.6Z</time></trkpt><trkpt lat="43.6730917" lon="12.52346"><ele>278.6666666666667</ele><time>2026-04-18T12:40:19.6Z</time></trkpt><trkpt lat="43.673245" lon="12.5235233"><ele>279.0</ele><time>2026-04-18T12:40:20.6Z</time></trkpt><trkpt lat="43.6733983" lon="12.5235867"><ele>279.0</ele><time>2026-04-18T12:40:21.6Z</time></trkpt><trkpt lat="43.673545" lon="12.52366"><ele>279.0</ele><time>2026-04-18T12:40:22.6Z</time></trkpt><trkpt lat="43.6736883" lon="12.5237317"><ele>279.0</ele><time>2026-04-18T12:40:23.6Z</time></trkpt><trkpt lat="43.6738367" lon="12.5238"><ele>280.6666666666667</ele><time>2026-04-18T12:40:24.6Z</time></trkpt><trkpt lat="43.6739883" lon="12.5238767"><ele>282.33333333333337</ele><time>2026-04-18T12:40:25.6Z</time></trkpt><trkpt lat="43.6741517" lon="12.5239517"><ele>284.0</ele><time>2026-04-18T12:40:26.6Z</time></trkpt><trkpt lat="43.6743167" lon="12.5240283"><ele>284.33333333333337</ele><time>2026-04-18T12:40:27.6Z</time></trkpt><trkpt lat="43.674475" lon="12.52409"><ele>284.6666666666667</ele><time>2026-04-18T12:40:28.6Z</time></trkpt><trkpt lat="43.6746483" lon="12.5241533"><ele>285.0</ele><time>2026-04-18T12:40:29.6Z</time></trkpt><trkpt lat="43.67482" lon="12.5242017"><ele>285.0</ele><time>2026-04-18T12:40:30.6Z</time></trkpt><trkpt lat="43.67497" lon="12.5242517"><ele>285.0</ele><time>2026-04-18T12:40:31.6Z</time></trkpt><trkpt lat="43.675105" lon="12.52432"><ele>285.0</ele><time>2026-04-18T12:40:32.6Z</time></trkpt><trkpt lat="43.6752333" lon="12.524375"><ele>285.0</ele><time>2026-04-18T12:40:33.6Z</time></trkpt><trkpt lat="43.6753633" lon="12.5243917"><ele>286.3333333333333</ele><time>2026-04-18T12:40:34.6Z</time></trkpt><trkpt lat="43.6755117" lon="12.5244117"><ele>287.66666666666663</ele><time>2026-04-18T12:40:35.6Z</time></trkpt><trkpt lat="43.675675" lon="12.524495"><ele>289.0</ele><time>2026-04-18T12:40:36.6Z</time></trkpt><trkpt lat="43.6758483" lon="12.524635"><ele>292.3333333333333</ele><time>2026-04-18T12:40:37.6Z</time></trkpt><trkpt lat="43.6760317" lon="12.52481"><ele>295.6666666666667</ele><time>2026-04-18T12:40:38.6Z</time></trkpt><trkpt lat="43.6762117" lon="12.5249617"><ele>299.0</ele><time>2026-04-18T12:40:39.6Z</time></trkpt><trkpt lat="43.67637" lon="12.5250983"><ele>299.0</ele><time>2026-04-18T12:40:40.6Z</time></trkpt><trkpt lat="43.67649" lon="12.5252233"><ele>299.0</ele><time>2026-04-18T12:40:41.6Z</time></trkpt><trkpt lat="43.6765933" lon="12.5253233"><ele>299.0</ele><time>2026-04-18T12:40:42.6Z</time></trkpt><trkpt lat="43.676705" lon="12.5253733"><ele>299.0</ele><time>2026-04-18T12:40:43.6Z</time></trkpt><trkpt lat="43.676815" lon="12.525365"><ele>299.0</ele><time>2026-04-18T12:40:44.6Z</time></trkpt><trkpt lat="43.6768967" lon="12.5253167"><ele>299.0</ele><time>2026-04-18T12:40:45.6Z</time></trkpt><trkpt lat="43.6769717" lon="12.52526"><ele>299.0</ele><time>2026-04-18T12:40:46.6Z</time></trkpt><trkpt lat="43.677035" lon="12.5252283"><ele>299.0</ele><time>2026-04-18T12:40:47.6Z</time></trkpt><trkpt lat="43.6771283" lon="12.5252167"><ele>299.0</ele><time>2026-04-18T12:40:49.6Z</time></trkpt><trkpt lat="43.677165" lon="12.52534"><ele>299.0</ele><time>2026-04-18T12:40:51.6Z</time></trkpt><trkpt lat="43.6771333" lon="12.5255133"><ele>300.59999999999997</ele><time>2026-04-18T12:40:53.6Z</time></trkpt><trkpt lat="43.6771083" lon="12.5256083"><ele>302.2</ele><time>2026-04-18T12:40:54.6Z</time></trkpt><trkpt lat="43.6770883" lon="12.525715"><ele>303.79999999999995</ele><time>2026-04-18T12:40:55.6Z</time></trkpt><trkpt lat="43.67708" lon="12.5258417"><ele>305.4</ele><time>2026-04-18T12:40:56.6Z</time></trkpt><trkpt lat="43.6770933" lon="12.5259967"><ele>307.0</ele><time>2026-04-18T12:40:57.6Z</time></trkpt><trkpt lat="43.677135" lon="12.5261867"><ele>308.25</ele><time>2026-04-18T12:40:58.6Z</time></trkpt><trkpt lat="43.6771967" lon="12.5263767"><ele>309.5</ele><time>2026-04-18T12:40:59.6Z</time></trkpt><trkpt lat="43.6772667" lon="12.526535"><ele>310.75</ele><time>2026-04-18T12:41:00.6Z</time></trkpt><trkpt lat="43.677335" lon="12.5266517"><ele>312.0</ele><time>2026-04-18T12:41:01.6Z</time></trkpt><trkpt lat="43.677425" lon="12.5267183"><ele>312.0</ele><time>2026-04-18T12:41:02.6Z</time></trkpt><trkpt lat="43.6775283" lon="12.5267433"><ele>312.0</ele><time>2026-04-18T12:41:03.6Z</time></trkpt><trkpt lat="43.6776483" lon="12.5267167"><ele>312.0</ele><time>2026-04-18T12:41:04.6Z</time></trkpt><trkpt lat="43.6777483" lon="12.52669"><ele>312.0</ele><time>2026-04-18T12:41:05.6Z</time></trkpt><trkpt lat="43.6778367" lon="12.52672"><ele>312.0</ele><time>2026-04-18T12:41:06.6Z</time></trkpt><trkpt lat="43.6778933" lon="12.5268133"><ele>315.0</ele><time>2026-04-18T12:41:07.6Z</time></trkpt><trkpt lat="43.677945" lon="12.5269533"><ele>318.0</ele><time>2026-04-18T12:41:08.6Z</time></trkpt><trkpt lat="43.6779983" lon="12.5271433"><ele>321.0</ele><time>2026-04-18T12:41:09.6Z</time></trkpt><trkpt lat="43.6780617" lon="12.527375"><ele>324.0</ele><time>2026-04-18T12:41:10.6Z</time></trkpt><trkpt lat="43.67813" lon="12.5276517"><ele>323.3333333333333</ele><time>2026-04-18T12:41:11.6Z</time></trkpt><trkpt lat="43.67821" lon="12.52794"><ele>322.66666666666663</ele><time>2026-04-18T12:41:12.6Z</time></trkpt><trkpt lat="43.6783083" lon="12.52821"><ele>322.0</ele><time>2026-04-18T12:41:13.6Z</time></trkpt><trkpt lat="43.67843" lon="12.5284717"><ele>322.0</ele><time>2026-04-18T12:41:14.6Z</time></trkpt><trkpt lat="43.6785767" lon="12.52872"><ele>322.0</ele><time>2026-04-18T12:41:15.6Z</time></trkpt><trkpt lat="43.6787433" lon="12.5289583"><ele>327.5</ele><time>2026-04-18T12:41:16.6Z</time></trkpt><trkpt lat="43.6789217" lon="12.5291783"><ele>333.0</ele><time>2026-04-18T12:41:17.6Z</time></trkpt><trkpt lat="43.6790983" lon="12.5293717"><ele>333.0</ele><time>2026-04-18T12:41:18.6Z</time></trkpt><trkpt lat="43.67927" lon="12.5295233"><ele>333.0</ele><time>2026-04-18T12:41:19.6Z</time></trkpt><trkpt lat="43.6794567" lon="12.529655"><ele>333.0</ele><time>2026-04-18T12:41:20.6Z</time></trkpt><trkpt lat="43.6796483" lon="12.5298033"><ele>334.3333333333333</ele><time>2026-04-18T12:41:21.6Z</time></trkpt><trkpt lat="43.6798" lon="12.5299767"><ele>335.66666666666663</ele><time>2026-04-18T12:41:22.6Z</time></trkpt><trkpt lat="43.6799133" lon="12.5301683"><ele>337.0</ele><time>2026-04-18T12:41:23.6Z</time></trkpt><trkpt lat="43.67998" lon="12.5303683"><ele>337.20000000000005</ele><time>2026-04-18T12:41:24.6Z</time></trkpt><trkpt lat="43.6800033" lon="12.5305483"><ele>337.4</ele><time>2026-04-18T12:41:25.6Z</time></trkpt><trkpt lat="43.6800067" lon="12.5307017"><ele>337.6</ele><time>2026-04-18T12:41:26.6Z</time></trkpt><trkpt lat="43.68003" lon="12.530825"><ele>337.79999999999995</ele><time>2026-04-18T12:41:27.6Z</time></trkpt><trkpt lat="43.6800867" lon="12.530915"><ele>338.0</ele><time>2026-04-18T12:41:28.599Z</time></trkpt><trkpt lat="43.6801633" lon="12.5309817"><ele>338.0</ele><time>2026-04-18T12:41:29.6Z</time></trkpt><trkpt lat="43.6802483" lon="12.5310117"><ele>338.0</ele><time>2026-04-18T12:41:30.6Z</time></trkpt><trkpt lat="43.6803467" lon="12.5309883"><ele>338.0</ele><time>2026-04-18T12:41:31.6Z</time></trkpt><trkpt lat="43.6804383" lon="12.530915"><ele>338.0</ele><time>2026-04-18T12:41:32.6Z</time></trkpt><trkpt lat="43.680525" lon="12.5308133"><ele>338.0</ele><time>2026-04-18T12:41:33.6Z</time></trkpt><trkpt lat="43.680555" lon="12.530645"><ele>342.33333333333337</ele><time>2026-04-18T12:41:34.6Z</time></trkpt><trkpt lat="43.680555" lon="12.5304417"><ele>346.6666666666667</ele><time>2026-04-18T12:41:35.6Z</time></trkpt><trkpt lat="43.6805283" lon="12.5302033"><ele>351.0</ele><time>2026-04-18T12:41:36.6Z</time></trkpt><trkpt lat="43.68047" lon="12.5299133"><ele>352.5</ele><time>2026-04-18T12:41:37.6Z</time></trkpt><trkpt lat="43.6803817" lon="12.529605"><ele>354.0</ele><time>2026-04-18T12:41:38.6Z</time></trkpt><trkpt lat="43.6803" lon="12.5293233"><ele>351.3333333333333</ele><time>2026-04-18T12:41:39.6Z</time></trkpt><trkpt lat="43.6802317" lon="12.52907"><ele>348.66666666666663</ele><time>2026-04-18T12:41:40.6Z</time></trkpt><trkpt lat="43.6801333" lon="12.5288983"><ele>346.0</ele><time>2026-04-18T12:41:41.6Z</time></trkpt><trkpt lat="43.6800417" lon="12.5287967"><ele>347.0</ele><time>2026-04-18T12:41:42.6Z</time></trkpt><trkpt lat="43.6799733" lon="12.5287067"><ele>348.0</ele><time>2026-04-18T12:41:43.6Z</time></trkpt><trkpt lat="43.679955" lon="12.5285983"><ele>349.0</ele><time>2026-04-18T12:41:44.6Z</time></trkpt><trkpt lat="43.6799833" lon="12.5285033"><ele>350.0</ele><time>2026-04-18T12:41:45.6Z</time></trkpt><trkpt lat="43.6801" lon="12.528445"><ele>351.0</ele><time>2026-04-18T12:41:47.6Z</time></trkpt><trkpt lat="43.6801867" lon="12.5285083"><ele>351.0</ele><time>2026-04-18T12:41:48.6Z</time></trkpt><trkpt lat="43.6802633" lon="12.528635"><ele>351.0</ele><time>2026-04-18T12:41:49.6Z</time></trkpt><trkpt lat="43.6803467" lon="12.52883"><ele>351.0</ele><time>2026-04-18T12:41:50.6Z</time></trkpt><trkpt lat="43.68044" lon="12.5290867"><ele>351.75</ele><time>2026-04-18T12:41:51.6Z</time></trkpt><trkpt lat="43.680525" lon="12.5293"><ele>352.5</ele><time>2026-04-18T12:41:52.6Z</time></trkpt><trkpt lat="43.6806017" lon="12.5294633"><ele>353.25</ele><time>2026-04-18T12:41:53.6Z</time></trkpt><trkpt lat="43.6806717" lon="12.5295883"><ele>354.0</ele><time>2026-04-18T12:41:54.6Z</time></trkpt><trkpt lat="43.68078" lon="12.52967"><ele>354.0</ele><time>2026-04-18T12:41:55.6Z</time></trkpt><trkpt lat="43.6808883" lon="12.529705"><ele>354.0</ele><time>2026-04-18T12:41:56.6Z</time></trkpt><trkpt lat="43.6809917" lon="12.529695"><ele>354.0</ele><time>2026-04-18T12:41:57.6Z</time></trkpt><trkpt lat="43.68112" lon="12.5296533"><ele>354.0</ele><time>2026-04-18T12:41:58.6Z</time></trkpt><trkpt lat="43.68127" lon="12.5295733"><ele>362.3333333333333</ele><time>2026-04-18T12:41:59.6Z</time></trkpt><trkpt lat="43.6814267" lon="12.5294717"><ele>370.66666666666663</ele><time>2026-04-18T12:42:00.6Z</time></trkpt><trkpt lat="43.6816" lon="12.5293667"><ele>379.0</ele><time>2026-04-18T12:42:01.6Z</time></trkpt><trkpt lat="43.6817733" lon="12.529285"><ele>379.0</ele><time>2026-04-18T12:42:02.6Z</time></trkpt><trkpt lat="43.6819317" lon="12.529255"><ele>379.0</ele><time>2026-04-18T12:42:03.6Z</time></trkpt><trkpt lat="43.6820867" lon="12.5292733"><ele>379.0</ele><time>2026-04-18T12:42:04.6Z</time></trkpt><trkpt lat="43.682215" lon="12.52933"><ele>379.0</ele><time>2026-04-18T12:42:05.6Z</time></trkpt><trkpt lat="43.6823217" lon="12.529435"><ele>379.0</ele><time>2026-04-18T12:42:06.6Z</time></trkpt><trkpt lat="43.6823683" lon="12.5295733"><ele>379.0</ele><time>2026-04-18T12:42:07.6Z</time></trkpt><trkpt lat="43.68237" lon="12.529715"><ele>379.0</ele><time>2026-04-18T12:42:08.6Z</time></trkpt><trkpt lat="43.6823817" lon="12.5298467"><ele>379.0</ele><time>2026-04-18T12:42:09.6Z</time></trkpt><trkpt lat="43.6824083" lon="12.5299483"><ele>379.0</ele><time>2026-04-18T12:42:10.6Z</time></trkpt><trkpt lat="43.68245" lon="12.53002"><ele>379.0</ele><time>2026-04-18T12:42:11.6Z</time></trkpt><trkpt lat="43.6825767" lon="12.5300383"><ele>379.0</ele><time>2026-04-18T12:42:13.6Z</time></trkpt><trkpt lat="43.6826333" lon="12.53"><ele>379.0</ele><time>2026-04-18T12:42:14.6Z</time></trkpt><trkpt lat="43.682665" lon="12.5299"><ele>379.0</ele><time>2026-04-18T12:42:15.6Z</time></trkpt><trkpt lat="43.6826717" lon="12.5297867"><ele>379.0</ele><time>2026-04-18T12:42:16.6Z</time></trkpt><trkpt lat="43.6826683" lon="12.5296467"><ele>380.25</ele><time>2026-04-18T12:42:17.6Z</time></trkpt><trkpt lat="43.6826417" lon="12.5294833"><ele>381.5</ele><time>2026-04-18T12:42:18.6Z</time></trkpt><trkpt lat="43.6825833" lon="12.5293267"><ele>382.75</ele><time>2026-04-18T12:42:19.6Z</time></trkpt><trkpt lat="43.68248" lon="12.5292"><ele>384.0</ele><time>2026-04-18T12:42:20.6Z</time></trkpt><trkpt lat="43.6823483" lon="12.5290767"><ele>384.0</ele><time>2026-04-18T12:42:21.6Z</time></trkpt><trkpt lat="43.68223" lon="12.5289467"><ele>384.0</ele><time>2026-04-18T12:42:22.6Z</time></trkpt><trkpt lat="43.6821733" lon="12.528815"><ele>384.0</ele><time>2026-04-18T12:42:23.6Z</time></trkpt><trkpt lat="43.6821667" lon="12.528725"><ele>384.0</ele><time>2026-04-18T12:42:24.6Z</time></trkpt><trkpt lat="43.682225" lon="12.5286817"><ele>384.0</ele><time>2026-04-18T12:42:26.6Z</time></trkpt><trkpt lat="43.6822933" lon="12.5287233"><ele>384.0</ele><time>2026-04-18T12:42:27.6Z</time></trkpt><trkpt lat="43.6824083" lon="12.5288267"><ele>384.0</ele><time>2026-04-18T12:42:28.6Z</time></trkpt><trkpt lat="43.68252" lon="12.5289817"><ele>384.0</ele><time>2026-04-18T12:42:29.6Z</time></trkpt><trkpt lat="43.6826467" lon="12.5291733"><ele>384.0</ele><time>2026-04-18T12:42:30.6Z</time></trkpt><trkpt lat="43.6827417" lon="12.5293767"><ele>384.0</ele><time>2026-04-18T12:42:31.6Z</time></trkpt><trkpt lat="43.6828583" lon="12.529595"><ele>384.0</ele><time>2026-04-18T12:42:32.6Z</time></trkpt><trkpt lat="43.68295" lon="12.52979"><ele>389.0</ele><time>2026-04-18T12:42:33.6Z</time></trkpt><trkpt lat="43.6829917" lon="12.529955"><ele>394.0</ele><time>2026-04-18T12:42:34.6Z</time></trkpt><trkpt lat="43.6830167" lon="12.530155"><ele>399.0</ele><time>2026-04-18T12:42:35.6Z</time></trkpt><trkpt lat="43.68301" lon="12.530355"><ele>404.0</ele><time>2026-04-18T12:42:36.6Z</time></trkpt><trkpt lat="43.682965" lon="12.5304983"><ele>406.25</ele><time>2026-04-18T12:42:37.6Z</time></trkpt><trkpt lat="43.6828683" lon="12.530585"><ele>408.5</ele><time>2026-04-18T12:42:38.6Z</time></trkpt><trkpt lat="43.682765" lon="12.5306567"><ele>410.75</ele><time>2026-04-18T12:42:39.6Z</time></trkpt><trkpt lat="43.682595" lon="12.5307217"><ele>413.0</ele><time>2026-04-18T12:42:40.6Z</time></trkpt><trkpt lat="43.6824367" lon="12.5308117"><ele>411.5</ele><time>2026-04-18T12:42:41.6Z</time></trkpt><trkpt lat="43.68232" lon="12.530915"><ele>410.0</ele><time>2026-04-18T12:42:42.6Z</time></trkpt><trkpt lat="43.6822433" lon="12.531045"><ele>408.5</ele><time>2026-04-18T12:42:43.6Z</time></trkpt><trkpt lat="43.68218" lon="12.5311933"><ele>407.0</ele><time>2026-04-18T12:42:44.6Z</time></trkpt><trkpt lat="43.6821183" lon="12.5313567"><ele>407.0</ele><time>2026-04-18T12:42:45.6Z</time></trkpt><trkpt lat="43.6820633" lon="12.5315433"><ele>407.0</ele><time>2026-04-18T12:42:46.6Z</time></trkpt><trkpt lat="43.6820183" lon="12.5317133"><ele>407.0</ele><time>2026-04-18T12:42:47.6Z</time></trkpt><trkpt lat="43.68199" lon="12.5318917"><ele>407.0</ele><time>2026-04-18T12:42:48.6Z</time></trkpt><trkpt lat="43.681985" lon="12.5320233"><ele>410.0</ele><time>2026-04-18T12:42:49.6Z</time></trkpt><trkpt lat="43.6820233" lon="12.5321717"><ele>413.0</ele><time>2026-04-18T12:42:50.6Z</time></trkpt><trkpt lat="43.6820717" lon="12.5323583"><ele>416.0</ele><time>2026-04-18T12:42:51.6Z</time></trkpt><trkpt lat="43.6821117" lon="12.5325683"><ele>419.0</ele><time>2026-04-18T12:42:52.6Z</time></trkpt><trkpt lat="43.682115" lon="12.5328"><ele>417.66666666666663</ele><time>2026-04-18T12:42:53.6Z</time></trkpt><trkpt lat="43.68212" lon="12.5330533"><ele>416.33333333333337</ele><time>2026-04-18T12:42:54.6Z</time></trkpt><trkpt lat="43.6821033" lon="12.5332717"><ele>415.0</ele><time>2026-04-18T12:42:55.6Z</time></trkpt><trkpt lat="43.6820983" lon="12.5334533"><ele>415.0</ele><time>2026-04-18T12:42:56.6Z</time></trkpt><trkpt lat="43.6821067" lon="12.5336167"><ele>415.0</ele><time>2026-04-18T12:42:57.6Z</time></trkpt><trkpt lat="43.6821533" lon="12.5337417"><ele>415.0</ele><time>2026-04-18T12:42:58.6Z</time></trkpt><trkpt lat="43.6822383" lon="12.53383"><ele>415.0</ele><time>2026-04-18T12:42:59.6Z</time></trkpt><trkpt lat="43.6823683" lon="12.533875"><ele>412.75</ele><time>2026-04-18T12:43:00.6Z</time></trkpt><trkpt lat="43.6825133" lon="12.5339167"><ele>410.5</ele><time>2026-04-18T12:43:01.6Z</time></trkpt><trkpt lat="43.6826367" lon="12.5339883"><ele>408.25</ele><time>2026-04-18T12:43:02.6Z</time></trkpt><trkpt lat="43.6827417" lon="12.5341233"><ele>406.0</ele><time>2026-04-18T12:43:03.6Z</time></trkpt><trkpt lat="43.6827983" lon="12.534285"><ele>406.5</ele><time>2026-04-18T12:43:04.6Z</time></trkpt><trkpt lat="43.6828067" lon="12.5344733"><ele>407.0</ele><time>2026-04-18T12:43:05.6Z</time></trkpt><trkpt lat="43.682765" lon="12.5346617"><ele>407.5</ele><time>2026-04-18T12:43:06.6Z</time></trkpt><trkpt lat="43.682695" lon="12.5348117"><ele>408.0</ele><time>2026-04-18T12:43:07.6Z</time></trkpt><trkpt lat="43.6825933" lon="12.5349083"><ele>408.0</ele><time>2026-04-18T12:43:08.6Z</time></trkpt><trkpt lat="43.68246" lon="12.53495"><ele>408.0</ele><time>2026-04-18T12:43:09.6Z</time></trkpt><trkpt lat="43.6823067" lon="12.5349533"><ele>408.0</ele><time>2026-04-18T12:43:10.599Z</time></trkpt><trkpt lat="43.6821433" lon="12.5349383"><ele>408.0</ele><time>2026-04-18T12:43:11.6Z</time></trkpt><trkpt lat="43.6819783" lon="12.53494"><ele>408.0</ele><time>2026-04-18T12:43:12.6Z</time></trkpt><trkpt lat="43.681725" lon="12.5348967"><ele>408.0</ele><time>2026-04-18T12:43:14.6Z</time></trkpt><trkpt lat="43.6816517" lon="12.5349083"><ele>409.2</ele><time>2026-04-18T12:43:15.6Z</time></trkpt><trkpt lat="43.6815933" lon="12.534945"><ele>410.4</ele><time>2026-04-18T12:43:16.6Z</time></trkpt><trkpt lat="43.6815617" lon="12.5350833"><ele>411.59999999999997</ele><time>2026-04-18T12:43:18.6Z</time></trkpt><trkpt lat="43.681625" lon="12.5351667"><ele>412.79999999999995</ele><time>2026-04-18T12:43:19.6Z</time></trkpt><trkpt lat="43.68174" lon="12.5352417"><ele>414.0</ele><time>2026-04-18T12:43:20.6Z</time></trkpt><trkpt lat="43.6819033" lon="12.5353183"><ele>416.0</ele><time>2026-04-18T12:43:21.6Z</time></trkpt><trkpt lat="43.6820917" lon="12.5353883"><ele>418.0</ele><time>2026-04-18T12:43:22.6Z</time></trkpt><trkpt lat="43.682225" lon="12.5354733"><ele>420.0</ele><time>2026-04-18T12:43:23.6Z</time></trkpt><trkpt lat="43.6822967" lon="12.535585"><ele>420.0</ele><time>2026-04-18T12:43:24.6Z</time></trkpt><trkpt lat="43.68232" lon="12.535735"><ele>420.0</ele><time>2026-04-18T12:43:25.6Z</time></trkpt><trkpt lat="43.6822883" lon="12.5358983"><ele>420.0</ele><time>2026-04-18T12:43:26.6Z</time></trkpt><trkpt lat="43.6822233" lon="12.5360517"><ele>420.0</ele><time>2026-04-18T12:43:27.6Z</time></trkpt><trkpt lat="43.6821167" lon="12.5361783"><ele>421.8333333333333</ele><time>2026-04-18T12:43:28.6Z</time></trkpt><trkpt lat="43.68201" lon="12.536255"><ele>423.66666666666663</ele><time>2026-04-18T12:43:29.6Z</time></trkpt><trkpt lat="43.6819383" lon="12.53633"><ele>425.5</ele><time>2026-04-18T12:43:30.6Z</time></trkpt><trkpt lat="43.681905" lon="12.53643"><ele>427.3333333333333</ele><time>2026-04-18T12:43:31.6Z</time></trkpt><trkpt lat="43.681895" lon="12.5365267"><ele>429.16666666666663</ele><time>2026-04-18T12:43:32.6Z</time></trkpt><trkpt lat="43.681935" lon="12.5366017"><ele>431.0</ele><time>2026-04-18T12:43:33.6Z</time></trkpt><trkpt lat="43.6820167" lon="12.5366483"><ele>431.0</ele><time>2026-04-18T12:43:34.6Z</time></trkpt><trkpt lat="43.6821533" lon="12.5366867"><ele>431.0</ele><time>2026-04-18T12:43:35.6Z</time></trkpt><trkpt lat="43.682345" lon="12.536705"><ele>431.0</ele><time>2026-04-18T12:43:36.6Z</time></trkpt><trkpt lat="43.6825333" lon="12.53675"><ele>431.0</ele><time>2026-04-18T12:43:37.6Z</time></trkpt><trkpt lat="43.6826867" lon="12.53682"><ele>431.0</ele><time>2026-04-18T12:43:38.6Z</time></trkpt><trkpt lat="43.6827983" lon="12.5369583"><ele>431.0</ele><time>2026-04-18T12:43:39.6Z</time></trkpt><trkpt lat="43.6828983" lon="12.53714"><ele>429.66666666666663</ele><time>2026-04-18T12:43:40.6Z</time></trkpt><trkpt lat="43.683" lon="12.537345"><ele>428.33333333333337</ele><time>2026-04-18T12:43:41.6Z</time></trkpt><trkpt lat="43.6830883" lon="12.53756"><ele>427.0</ele><time>2026-04-18T12:43:42.6Z</time></trkpt><trkpt lat="43.683165" lon="12.53778"><ele>430.33333333333337</ele><time>2026-04-18T12:43:43.6Z</time></trkpt><trkpt lat="43.6832367" lon="12.5380117"><ele>433.66666666666663</ele><time>2026-04-18T12:43:44.6Z</time></trkpt><trkpt lat="43.6832867" lon="12.5382417"><ele>437.0</ele><time>2026-04-18T12:43:45.6Z</time></trkpt><trkpt lat="43.6833233" lon="12.5384517"><ele>437.0</ele><time>2026-04-18T12:43:46.6Z</time></trkpt><trkpt lat="43.68334" lon="12.53864"><ele>437.0</ele><time>2026-04-18T12:43:47.6Z</time></trkpt><trkpt lat="43.68336" lon="12.538815"><ele>437.0</ele><time>2026-04-18T12:43:48.6Z</time></trkpt><trkpt lat="43.683415" lon="12.5389667"><ele>437.0</ele><time>2026-04-18T12:43:49.6Z</time></trkpt><trkpt lat="43.6835267" lon="12.5390733"><ele>436.0</ele><time>2026-04-18T12:43:50.6Z</time></trkpt><trkpt lat="43.6836533" lon="12.5391467"><ele>435.0</ele><time>2026-04-18T12:43:51.6Z</time></trkpt><trkpt lat="43.68379" lon="12.5392217"><ele>434.0</ele><time>2026-04-18T12:43:52.6Z</time></trkpt><trkpt lat="43.6839133" lon="12.5393333"><ele>433.0</ele><time>2026-04-18T12:43:53.6Z</time></trkpt><trkpt lat="43.684" lon="12.539475"><ele>435.33333333333337</ele><time>2026-04-18T12:43:54.599Z</time></trkpt><trkpt lat="43.6840667" lon="12.5396567"><ele>437.66666666666663</ele><time>2026-04-18T12:43:55.6Z</time></trkpt><trkpt lat="43.6841117" lon="12.5398583"><ele>440.0</ele><time>2026-04-18T12:43:56.6Z</time></trkpt><trkpt lat="43.6841633" lon="12.5400783"><ele>440.0</ele><time>2026-04-18T12:43:57.6Z</time></trkpt><trkpt lat="43.6842183" lon="12.5403033"><ele>440.0</ele><time>2026-04-18T12:43:58.6Z</time></trkpt><trkpt lat="43.6842867" lon="12.54052"><ele>440.0</ele><time>2026-04-18T12:43:59.599Z</time></trkpt><trkpt lat="43.6843783" lon="12.540715"><ele>439.3333333333333</ele><time>2026-04-18T12:44:00.6Z</time></trkpt><trkpt lat="43.6844917" lon="12.5408917"><ele>438.66666666666663</ele><time>2026-04-18T12:44:01.6Z</time></trkpt><trkpt lat="43.68462" lon="12.5410517"><ele>438.0</ele><time>2026-04-18T12:44:02.6Z</time></trkpt><trkpt lat="43.6847583" lon="12.5412083"><ele>440.0</ele><time>2026-04-18T12:44:03.6Z</time></trkpt><trkpt lat="43.684885" lon="12.5413567"><ele>442.0</ele><time>2026-04-18T12:44:04.6Z</time></trkpt><trkpt lat="43.6850267" lon="12.5414833"><ele>444.0</ele><time>2026-04-18T12:44:05.6Z</time></trkpt><trkpt lat="43.6851783" lon="12.5415733"><ele>443.66666666666663</ele><time>2026-04-18T12:44:06.6Z</time></trkpt><trkpt lat="43.6853417" lon="12.541645"><ele>443.3333333333333</ele><time>2026-04-18T12:44:07.6Z</time></trkpt><trkpt lat="43.6855117" lon="12.541715"><ele>443.0</ele><time>2026-04-18T12:44:08.6Z</time></trkpt><trkpt lat="43.685685" lon="12.5417783"><ele>443.0</ele><time>2026-04-18T12:44:09.6Z</time></trkpt><trkpt lat="43.6858633" lon="12.5418433"><ele>443.0</ele><time>2026-04-18T12:44:10.6Z</time></trkpt><trkpt lat="43.6860333" lon="12.541915"><ele>443.0</ele><time>2026-04-18T12:44:11.6Z</time></trkpt><trkpt lat="43.6861883" lon="12.5420033"><ele>443.66666666666663</ele><time>2026-04-18T12:44:12.6Z</time></trkpt><trkpt lat="43.6863517" lon="12.5421183"><ele>444.33333333333337</ele><time>2026-04-18T12:44:13.6Z</time></trkpt><trkpt lat="43.6864883" lon="12.5422717"><ele>445.0</ele><time>2026-04-18T12:44:14.6Z</time></trkpt><trkpt lat="43.6866117" lon="12.54244"><ele>445.0</ele><time>2026-04-18T12:44:15.6Z</time></trkpt><trkpt lat="43.686735" lon="12.5425933"><ele>445.0</ele><time>2026-04-18T12:44:16.6Z</time></trkpt><trkpt lat="43.6868533" lon="12.54273"><ele>445.0</ele><time>2026-04-18T12:44:17.6Z</time></trkpt><trkpt lat="43.6869617" lon="12.542835"><ele>445.25</ele><time>2026-04-18T12:44:18.6Z</time></trkpt><trkpt lat="43.687075" lon="12.5429017"><ele>445.5</ele><time>2026-04-18T12:44:19.6Z</time></trkpt><trkpt lat="43.68719" lon="12.54294"><ele>445.75</ele><time>2026-04-18T12:44:20.6Z</time></trkpt><trkpt lat="43.687315" lon="12.5429133"><ele>446.0</ele><time>2026-04-18T12:44:21.6Z</time></trkpt><trkpt lat="43.6874533" lon="12.5428433"><ele>446.0</ele><time>2026-04-18T12:44:22.6Z</time></trkpt><trkpt lat="43.6876033" lon="12.5427733"><ele>446.0</ele><time>2026-04-18T12:44:23.6Z</time></trkpt><trkpt lat="43.687755" lon="12.5427133"><ele>446.0</ele><time>2026-04-18T12:44:24.6Z</time></trkpt><trkpt lat="43.6879117" lon="12.5426767"><ele>443.3333333333333</ele><time>2026-04-18T12:44:25.6Z</time></trkpt><trkpt lat="43.688075" lon="12.5426967"><ele>440.66666666666663</ele><time>2026-04-18T12:44:26.6Z</time></trkpt><trkpt lat="43.6882317" lon="12.5427617"><ele>438.0</ele><time>2026-04-18T12:44:27.6Z</time></trkpt><trkpt lat="43.68839" lon="12.54284"><ele>434.0</ele><time>2026-04-18T12:44:28.6Z</time></trkpt><trkpt lat="43.688555" lon="12.54292"><ele>430.0</ele><time>2026-04-18T12:44:29.6Z</time></trkpt><trkpt lat="43.688725" lon="12.5430017"><ele>426.0</ele><time>2026-04-18T12:44:30.6Z</time></trkpt><trkpt lat="43.6889" lon="12.543085"><ele>426.0</ele><time>2026-04-18T12:44:31.6Z</time></trkpt><trkpt lat="43.6890617" lon="12.5431667"><ele>426.0</ele><time>2026-04-18T12:44:32.6Z</time></trkpt><trkpt lat="43.6892133" lon="12.5432317"><ele>426.0</ele><time>2026-04-18T12:44:33.6Z</time></trkpt><trkpt lat="43.6893733" lon="12.5433217"><ele>427.0</ele><time>2026-04-18T12:44:34.6Z</time></trkpt><trkpt lat="43.6895383" lon="12.5434383"><ele>428.0</ele><time>2026-04-18T12:44:35.6Z</time></trkpt><trkpt lat="43.68969" lon="12.5435867"><ele>429.0</ele><time>2026-04-18T12:44:36.6Z</time></trkpt><trkpt lat="43.6898283" lon="12.54376"><ele>429.0</ele><time>2026-04-18T12:44:37.6Z</time></trkpt><trkpt lat="43.6899567" lon="12.5439467"><ele>429.0</ele><time>2026-04-18T12:44:38.6Z</time></trkpt><trkpt lat="43.690085" lon="12.54415"><ele>429.0</ele><time>2026-04-18T12:44:39.6Z</time></trkpt><trkpt lat="43.6902083" lon="12.54436"><ele>432.33333333333337</ele><time>2026-04-18T12:44:40.6Z</time></trkpt><trkpt lat="43.6903217" lon="12.544575"><ele>435.6666666666667</ele><time>2026-04-18T12:44:41.599Z</time></trkpt><trkpt lat="43.69041" lon="12.5447983"><ele>439.0</ele><time>2026-04-18T12:44:42.6Z</time></trkpt><trkpt lat="43.6904667" lon="12.5450333"><ele>439.0</ele><time>2026-04-18T12:44:43.6Z</time></trkpt><trkpt lat="43.6904983" lon="12.545265"><ele>439.0</ele><time>2026-04-18T12:44:44.6Z</time></trkpt><trkpt lat="43.6905267" lon="12.5455"><ele>439.0</ele><time>2026-04-18T12:44:45.6Z</time></trkpt><trkpt lat="43.6905683" lon="12.5457283"><ele>440.6666666666667</ele><time>2026-04-18T12:44:46.6Z</time></trkpt><trkpt lat="43.69063" lon="12.5459333"><ele>442.33333333333337</ele><time>2026-04-18T12:44:47.6Z</time></trkpt><trkpt lat="43.6907133" lon="12.5461067"><ele>444.0</ele><time>2026-04-18T12:44:48.6Z</time></trkpt><trkpt lat="43.6908167" lon="12.546255"><ele>441.5</ele><time>2026-04-18T12:44:49.6Z</time></trkpt><trkpt lat="43.6909067" lon="12.546405"><ele>439.0</ele><time>2026-04-18T12:44:50.6Z</time></trkpt><trkpt lat="43.6909567" lon="12.54659"><ele>436.5</ele><time>2026-04-18T12:44:51.6Z</time></trkpt><trkpt lat="43.6909783" lon="12.5467783"><ele>434.0</ele><time>2026-04-18T12:44:52.6Z</time></trkpt><trkpt lat="43.6910133" lon="12.546965"><ele>433.0</ele><time>2026-04-18T12:44:53.6Z</time></trkpt><trkpt lat="43.691075" lon="12.547125"><ele>432.0</ele><time>2026-04-18T12:44:54.6Z</time></trkpt><trkpt lat="43.69113" lon="12.547275"><ele>431.0</ele><time>2026-04-18T12:44:55.6Z</time></trkpt><trkpt lat="43.69117" lon="12.5474283"><ele>430.0</ele><time>2026-04-18T12:44:56.6Z</time></trkpt><trkpt lat="43.69117" lon="12.5475833"><ele>430.0</ele><time>2026-04-18T12:44:57.6Z</time></trkpt><trkpt lat="43.6911283" lon="12.5477417"><ele>430.0</ele><time>2026-04-18T12:44:58.6Z</time></trkpt><trkpt lat="43.6910633" lon="12.54787"><ele>430.0</ele><time>2026-04-18T12:44:59.6Z</time></trkpt><trkpt lat="43.6909517" lon="12.547975"><ele>430.0</ele><time>2026-04-18T12:45:00.6Z</time></trkpt><trkpt lat="43.6907967" lon="12.5480667"><ele>433.33333333333337</ele><time>2026-04-18T12:45:01.6Z</time></trkpt><trkpt lat="43.6906483" lon="12.548165"><ele>436.66666666666663</ele><time>2026-04-18T12:45:02.6Z</time></trkpt><trkpt lat="43.6905217" lon="12.548305"><ele>440.0</ele><time>2026-04-18T12:45:03.6Z</time></trkpt><trkpt lat="43.6904133" lon="12.54845"><ele>440.0</ele><time>2026-04-18T12:45:04.6Z</time></trkpt><trkpt lat="43.6903267" lon="12.548615"><ele>440.0</ele><time>2026-04-18T12:45:05.6Z</time></trkpt><trkpt lat="43.6902633" lon="12.548775"><ele>440.0</ele><time>2026-04-18T12:45:06.6Z</time></trkpt><trkpt lat="43.6902167" lon="12.5489283"><ele>440.0</ele><time>2026-04-18T12:45:07.6Z</time></trkpt><trkpt lat="43.6901917" lon="12.5490733"><ele>441.2</ele><time>2026-04-18T12:45:08.6Z</time></trkpt><trkpt lat="43.690205" lon="12.5492017"><ele>442.4</ele><time>2026-04-18T12:45:09.6Z</time></trkpt><trkpt lat="43.6902567" lon="12.5493117"><ele>443.6</ele><time>2026-04-18T12:45:10.6Z</time></trkpt><trkpt lat="43.6903533" lon="12.5493933"><ele>444.8</ele><time>2026-04-18T12:45:11.6Z</time></trkpt><trkpt lat="43.690485" lon="12.5494233"><ele>446.0</ele><time>2026-04-18T12:45:12.6Z</time></trkpt><trkpt lat="43.6906417" lon="12.5494433"><ele>446.0</ele><time>2026-04-18T12:45:13.6Z</time></trkpt><trkpt lat="43.6908083" lon="12.549475"><ele>446.0</ele><time>2026-04-18T12:45:14.6Z</time></trkpt><trkpt lat="43.690975" lon="12.5495033"><ele>446.0</ele><time>2026-04-18T12:45:15.6Z</time></trkpt><trkpt lat="43.6911617" lon="12.54953"><ele>441.0</ele><time>2026-04-18T12:45:16.6Z</time></trkpt><trkpt lat="43.69134" lon="12.5495433"><ele>436.0</ele><time>2026-04-18T12:45:17.6Z</time></trkpt><trkpt lat="43.691515" lon="12.5495483"><ele>431.0</ele><time>2026-04-18T12:45:18.6Z</time></trkpt><trkpt lat="43.6916767" lon="12.54955"><ele>431.0</ele><time>2026-04-18T12:45:19.6Z</time></trkpt><trkpt lat="43.6918317" lon="12.5495517"><ele>431.0</ele><time>2026-04-18T12:45:20.6Z</time></trkpt><trkpt lat="43.6919783" lon="12.549525"><ele>431.0</ele><time>2026-04-18T12:45:21.6Z</time></trkpt><trkpt lat="43.6921367" lon="12.5494933"><ele>434.3333333333333</ele><time>2026-04-18T12:45:22.6Z</time></trkpt><trkpt lat="43.6923067" lon="12.5494317"><ele>437.66666666666663</ele><time>2026-04-18T12:45:23.6Z</time></trkpt><trkpt lat="43.69246" lon="12.549345"><ele>441.0</ele><time>2026-04-18T12:45:24.6Z</time></trkpt><trkpt lat="43.6926217" lon="12.5492417"><ele>436.33333333333337</ele><time>2026-04-18T12:45:25.6Z</time></trkpt><trkpt lat="43.6927883" lon="12.5491417"><ele>431.6666666666667</ele><time>2026-04-18T12:45:26.6Z</time></trkpt><trkpt lat="43.692965" lon="12.5490567"><ele>427.0</ele><time>2026-04-18T12:45:27.6Z</time></trkpt><trkpt lat="43.693155" lon="12.5489733"><ele>427.0</ele><time>2026-04-18T12:45:28.6Z</time></trkpt><trkpt lat="43.6933483" lon="12.5489"><ele>427.0</ele><time>2026-04-18T12:45:29.6Z</time></trkpt><trkpt lat="43.6935333" lon="12.5488183"><ele>427.0</ele><time>2026-04-18T12:45:30.6Z</time></trkpt><trkpt lat="43.6937133" lon="12.5487433"><ele>429.6666666666667</ele><time>2026-04-18T12:45:31.6Z</time></trkpt><trkpt lat="43.6938767" lon="12.54868"><ele>432.33333333333337</ele><time>2026-04-18T12:45:32.6Z</time></trkpt><trkpt lat="43.6940333" lon="12.5486283"><ele>435.0</ele><time>2026-04-18T12:45:33.6Z</time></trkpt><trkpt lat="43.69419" lon="12.548605"><ele>435.0</ele><time>2026-04-18T12:45:34.6Z</time></trkpt><trkpt lat="43.6943567" lon="12.548635"><ele>435.0</ele><time>2026-04-18T12:45:35.6Z</time></trkpt><trkpt lat="43.694515" lon="12.54871"><ele>435.0</ele><time>2026-04-18T12:45:36.6Z</time></trkpt><trkpt lat="43.6946683" lon="12.548825"><ele>430.66666666666663</ele><time>2026-04-18T12:45:37.6Z</time></trkpt><trkpt lat="43.6948167" lon="12.5489567"><ele>426.3333333333333</ele><time>2026-04-18T12:45:38.6Z</time></trkpt><trkpt lat="43.6949667" lon="12.54912"><ele>422.0</ele><time>2026-04-18T12:45:39.6Z</time></trkpt><trkpt lat="43.6951033" lon="12.5493067"><ele>422.0</ele><time>2026-04-18T12:45:40.6Z</time></trkpt><trkpt lat="43.6952267" lon="12.54951"><ele>422.0</ele><time>2026-04-18T12:45:41.6Z</time></trkpt><trkpt lat="43.6953417" lon="12.5497133"><ele>422.0</ele><time>2026-04-18T12:45:42.6Z</time></trkpt><trkpt lat="43.6954467" lon="12.549915"><ele>423.3333333333333</ele><time>2026-04-18T12:45:43.6Z</time></trkpt><trkpt lat="43.6955283" lon="12.5501167"><ele>424.66666666666663</ele><time>2026-04-18T12:45:44.6Z</time></trkpt><trkpt lat="43.69558" lon="12.5503217"><ele>426.0</ele><time>2026-04-18T12:45:45.6Z</time></trkpt><trkpt lat="43.6956183" lon="12.5504917"><ele>426.0</ele><time>2026-04-18T12:45:46.6Z</time></trkpt><trkpt lat="43.6956567" lon="12.5506467"><ele>426.0</ele><time>2026-04-18T12:45:47.6Z</time></trkpt><trkpt lat="43.6957083" lon="12.5507733"><ele>426.0</ele><time>2026-04-18T12:45:48.6Z</time></trkpt><trkpt lat="43.6957917" lon="12.5508917"><ele>426.0</ele><time>2026-04-18T12:45:49.6Z</time></trkpt><trkpt lat="43.69588" lon="12.5509917"><ele>426.0</ele><time>2026-04-18T12:45:50.6Z</time></trkpt><trkpt lat="43.6959633" lon="12.5511"><ele>426.0</ele><time>2026-04-18T12:45:51.6Z</time></trkpt><trkpt lat="43.69604" lon="12.5512267"><ele>426.0</ele><time>2026-04-18T12:45:52.6Z</time></trkpt><trkpt lat="43.696105" lon="12.5513783"><ele>426.0</ele><time>2026-04-18T12:45:53.6Z</time></trkpt><trkpt lat="43.6961483" lon="12.5515367"><ele>426.25</ele><time>2026-04-18T12:45:54.6Z</time></trkpt><trkpt lat="43.6961667" lon="12.5517283"><ele>426.5</ele><time>2026-04-18T12:45:55.6Z</time></trkpt><trkpt lat="43.6961433" lon="12.55193"><ele>426.75</ele><time>2026-04-18T12:45:56.6Z</time></trkpt><trkpt lat="43.6961" lon="12.552135"><ele>427.0</ele><time>2026-04-18T12:45:57.6Z</time></trkpt><trkpt lat="43.6960217" lon="12.5523217"><ele>426.33333333333337</ele><time>2026-04-18T12:45:58.6Z</time></trkpt><trkpt lat="43.6959217" lon="12.552505"><ele>425.66666666666663</ele><time>2026-04-18T12:45:59.6Z</time></trkpt><trkpt lat="43.6958067" lon="12.5526667"><ele>425.0</ele><time>2026-04-18T12:46:00.599Z</time></trkpt><trkpt lat="43.695705" lon="12.552855"><ele>431.0</ele><time>2026-04-18T12:46:01.6Z</time></trkpt><trkpt lat="43.69562" lon="12.5530717"><ele>437.0</ele><time>2026-04-18T12:46:02.6Z</time></trkpt><trkpt lat="43.69554" lon="12.553285"><ele>443.0</ele><time>2026-04-18T12:46:03.6Z</time></trkpt><trkpt lat="43.695445" lon="12.553495"><ele>443.0</ele><time>2026-04-18T12:46:04.6Z</time></trkpt><trkpt lat="43.695365" lon="12.5537033"><ele>443.0</ele><time>2026-04-18T12:46:05.6Z</time></trkpt><trkpt lat="43.6952967" lon="12.5539117"><ele>443.0</ele><time>2026-04-18T12:46:06.6Z</time></trkpt><trkpt lat="43.695255" lon="12.554095"><ele>443.25</ele><time>2026-04-18T12:46:07.6Z</time></trkpt><trkpt lat="43.6952483" lon="12.5542733"><ele>443.5</ele><time>2026-04-18T12:46:08.6Z</time></trkpt><trkpt lat="43.6952617" lon="12.5544467"><ele>443.75</ele><time>2026-04-18T12:46:09.6Z</time></trkpt><trkpt lat="43.6952983" lon="12.554645"><ele>444.0</ele><time>2026-04-18T12:46:10.6Z</time></trkpt><trkpt lat="43.6953583" lon="12.5548333"><ele>439.33333333333337</ele><time>2026-04-18T12:46:11.6Z</time></trkpt><trkpt lat="43.6954383" lon="12.5550133"><ele>434.6666666666667</ele><time>2026-04-18T12:46:12.6Z</time></trkpt><trkpt lat="43.6955017" lon="12.5551983"><ele>430.0</ele><time>2026-04-18T12:46:13.6Z</time></trkpt><trkpt lat="43.6955383" lon="12.555405"><ele>430.0</ele><time>2026-04-18T12:46:14.6Z</time></trkpt><trkpt lat="43.695565" lon="12.55563"><ele>430.0</ele><time>2026-04-18T12:46:15.6Z</time></trkpt><trkpt lat="43.6955933" lon="12.5558683"><ele>430.0</ele><time>2026-04-18T12:46:16.6Z</time></trkpt><trkpt lat="43.69561" lon="12.55612"><ele>431.33333333333337</ele><time>2026-04-18T12:46:17.6Z</time></trkpt><trkpt lat="43.6956217" lon="12.556375"><ele>432.66666666666663</ele><time>2026-04-18T12:46:18.6Z</time></trkpt><trkpt lat="43.6956167" lon="12.556625"><ele>434.0</ele><time>2026-04-18T12:46:19.6Z</time></trkpt><trkpt lat="43.695635" lon="12.5568617"><ele>434.3333333333333</ele><time>2026-04-18T12:46:20.6Z</time></trkpt><trkpt lat="43.6956667" lon="12.5570917"><ele>434.66666666666663</ele><time>2026-04-18T12:46:21.6Z</time></trkpt><trkpt lat="43.69571" lon="12.5573117"><ele>435.0</ele><time>2026-04-18T12:46:22.6Z</time></trkpt><trkpt lat="43.6957733" lon="12.5575183"><ele>435.0</ele><time>2026-04-18T12:46:23.6Z</time></trkpt><trkpt lat="43.6958583" lon="12.5577083"><ele>435.0</ele><time>2026-04-18T12:46:24.6Z</time></trkpt><trkpt lat="43.6959417" lon="12.5578783"><ele>435.0</ele><time>2026-04-18T12:46:25.6Z</time></trkpt><trkpt lat="43.6959917" lon="12.5580683"><ele>436.5</ele><time>2026-04-18T12:46:26.6Z</time></trkpt><trkpt lat="43.6960183" lon="12.5582667"><ele>438.0</ele><time>2026-04-18T12:46:27.6Z</time></trkpt><trkpt lat="43.6960033" lon="12.5584583"><ele>439.5</ele><time>2026-04-18T12:46:28.6Z</time></trkpt><trkpt lat="43.6959617" lon="12.5586333"><ele>441.0</ele><time>2026-04-18T12:46:29.6Z</time></trkpt><trkpt lat="43.6958883" lon="12.5587733"><ele>448.0</ele><time>2026-04-18T12:46:30.599Z</time></trkpt><trkpt lat="43.695785" lon="12.5588833"><ele>455.0</ele><time>2026-04-18T12:46:31.599Z</time></trkpt><trkpt lat="43.695635" lon="12.5589767"><ele>462.0</ele><time>2026-04-18T12:46:32.599Z</time></trkpt><trkpt lat="43.6954733" lon="12.559045"><ele>462.0</ele><time>2026-04-18T12:46:33.599Z</time></trkpt><trkpt lat="43.6953083" lon="12.55915"><ele>462.0</ele><time>2026-04-18T12:46:34.599Z</time></trkpt><trkpt lat="43.695165" lon="12.5592467"><ele>462.0</ele><time>2026-04-18T12:46:35.599Z</time></trkpt><trkpt lat="43.695025" lon="12.5593167"><ele>460.40000000000003</ele><time>2026-04-18T12:46:36.599Z</time></trkpt><trkpt lat="43.6948967" lon="12.559365"><ele>458.80000000000007</ele><time>2026-04-18T12:46:37.599Z</time></trkpt><trkpt lat="43.69478" lon="12.5594133"><ele>457.2</ele><time>2026-04-18T12:46:38.599Z</time></trkpt><trkpt lat="43.6946917" lon="12.559465"><ele>455.6</ele><time>2026-04-18T12:46:39.599Z</time></trkpt><trkpt lat="43.6946183" lon="12.5595133"><ele>454.0</ele><time>2026-04-18T12:46:40.599Z</time></trkpt><trkpt lat="43.6945717" lon="12.5595817"><ele>454.0</ele><time>2026-04-18T12:46:41.599Z</time></trkpt><trkpt lat="43.694565" lon="12.5597217"><ele>454.0</ele><time>2026-04-18T12:46:43.599Z</time></trkpt><trkpt lat="43.694655" lon="12.55977"><ele>454.0</ele><time>2026-04-18T12:46:45.598Z</time></trkpt><trkpt lat="43.694735" lon="12.55973"><ele>454.0</ele><time>2026-04-18T12:46:46.599Z</time></trkpt><trkpt lat="43.6948583" lon="12.5596333"><ele>454.0</ele><time>2026-04-18T12:46:47.599Z</time></trkpt><trkpt lat="43.6950333" lon="12.5595333"><ele>455.6666666666667</ele><time>2026-04-18T12:46:48.599Z</time></trkpt><trkpt lat="43.6952317" lon="12.5594783"><ele>457.33333333333337</ele><time>2026-04-18T12:46:49.599Z</time></trkpt><trkpt lat="43.6953983" lon="12.5594667"><ele>459.0</ele><time>2026-04-18T12:46:50.599Z</time></trkpt><trkpt lat="43.69554" lon="12.5595383"><ele>459.0</ele><time>2026-04-18T12:46:51.599Z</time></trkpt><trkpt lat="43.69568" lon="12.5596567"><ele>459.0</ele><time>2026-04-18T12:46:52.599Z</time></trkpt><trkpt lat="43.6957917" lon="12.5598083"><ele>459.0</ele><time>2026-04-18T12:46:53.599Z</time></trkpt><trkpt lat="43.6958833" lon="12.559985"><ele>459.0</ele><time>2026-04-18T12:46:54.599Z</time></trkpt><trkpt lat="43.695965" lon="12.5601733"><ele>459.0</ele><time>2026-04-18T12:46:55.599Z</time></trkpt><trkpt lat="43.696035" lon="12.560355"><ele>459.0</ele><time>2026-04-18T12:46:56.599Z</time></trkpt><trkpt lat="43.6961033" lon="12.5605167"><ele>459.0</ele><time>2026-04-18T12:46:57.599Z</time></trkpt><trkpt lat="43.6961733" lon="12.5606483"><ele>456.5</ele><time>2026-04-18T12:46:58.599Z</time></trkpt><trkpt lat="43.6962533" lon="12.5607433"><ele>454.0</ele><time>2026-04-18T12:46:59.599Z</time></trkpt><trkpt lat="43.6963633" lon="12.5608017"><ele>451.5</ele><time>2026-04-18T12:47:00.599Z</time></trkpt><trkpt lat="43.6964783" lon="12.5608033"><ele>449.0</ele><time>2026-04-18T12:47:01.599Z</time></trkpt><trkpt lat="43.6965983" lon="12.5607667"><ele>449.0</ele><time>2026-04-18T12:47:02.599Z</time></trkpt><trkpt lat="43.6967167" lon="12.56068"><ele>449.0</ele><time>2026-04-18T12:47:03.599Z</time></trkpt><trkpt lat="43.6968467" lon="12.5606283"><ele>449.0</ele><time>2026-04-18T12:47:04.599Z</time></trkpt><trkpt lat="43.69699" lon="12.5606367"><ele>449.0</ele><time>2026-04-18T12:47:05.599Z</time></trkpt><trkpt lat="43.6971383" lon="12.5606933"><ele>451.66666666666663</ele><time>2026-04-18T12:47:06.599Z</time></trkpt><trkpt lat="43.69729" lon="12.560785"><ele>454.33333333333337</ele><time>2026-04-18T12:47:07.599Z</time></trkpt><trkpt lat="43.69743" lon="12.5609033"><ele>457.0</ele><time>2026-04-18T12:47:08.599Z</time></trkpt><trkpt lat="43.6975683" lon="12.56103"><ele>457.0</ele><time>2026-04-18T12:47:09.599Z</time></trkpt><trkpt lat="43.69769" lon="12.5611617"><ele>457.0</ele><time>2026-04-18T12:47:10.599Z</time></trkpt><trkpt lat="43.6978" lon="12.5612933"><ele>457.0</ele><time>2026-04-18T12:47:11.599Z</time></trkpt><trkpt lat="43.697895" lon="12.5614533"><ele>452.6666666666667</ele><time>2026-04-18T12:47:12.599Z</time></trkpt><trkpt lat="43.6979683" lon="12.56164"><ele>448.33333333333337</ele><time>2026-04-18T12:47:13.599Z</time></trkpt><trkpt lat="43.698025" lon="12.561845"><ele>444.0</ele><time>2026-04-18T12:47:14.599Z</time></trkpt><trkpt lat="43.6980567" lon="12.5622283"><ele>443.25</ele><time>2026-04-18T12:47:16.599Z</time></trkpt><trkpt lat="43.698085" lon="12.5624233"><ele>442.5</ele><time>2026-04-18T12:47:17.599Z</time></trkpt><trkpt lat="43.6981517" lon="12.562605"><ele>441.75</ele><time>2026-04-18T12:47:18.599Z</time></trkpt><trkpt lat="43.6982417" lon="12.562775"><ele>441.0</ele><time>2026-04-18T12:47:19.599Z</time></trkpt><trkpt lat="43.6983483" lon="12.5629183"><ele>441.75</ele><time>2026-04-18T12:47:20.599Z</time></trkpt><trkpt lat="43.69846" lon="12.5630467"><ele>442.5</ele><time>2026-04-18T12:47:21.599Z</time></trkpt><trkpt lat="43.69857" lon="12.563155"><ele>443.25</ele><time>2026-04-18T12:47:22.599Z</time></trkpt><trkpt lat="43.6986733" lon="12.56327"><ele>444.0</ele><time>2026-04-18T12:47:23.599Z</time></trkpt><trkpt lat="43.6987417" lon="12.5634117"><ele>444.0</ele><time>2026-04-18T12:47:24.599Z</time></trkpt><trkpt lat="43.6987883" lon="12.5635833"><ele>444.0</ele><time>2026-04-18T12:47:25.599Z</time></trkpt><trkpt lat="43.6987817" lon="12.563765"><ele>444.0</ele><time>2026-04-18T12:47:26.599Z</time></trkpt><trkpt lat="43.6987433" lon="12.56396"><ele>444.0</ele><time>2026-04-18T12:47:27.599Z</time></trkpt><trkpt lat="43.69868" lon="12.5641433"><ele>442.0</ele><time>2026-04-18T12:47:28.599Z</time></trkpt><trkpt lat="43.6986" lon="12.5643367"><ele>440.0</ele><time>2026-04-18T12:47:29.599Z</time></trkpt><trkpt lat="43.6985133" lon="12.56452"><ele>438.0</ele><time>2026-04-18T12:47:30.599Z</time></trkpt><trkpt lat="43.69844" lon="12.56468"><ele>438.0</ele><time>2026-04-18T12:47:31.599Z</time></trkpt><trkpt lat="43.6983933" lon="12.56483"><ele>438.0</ele><time>2026-04-18T12:47:32.599Z</time></trkpt><trkpt lat="43.69838" lon="12.5649883"><ele>438.0</ele><time>2026-04-18T12:47:33.599Z</time></trkpt><trkpt lat="43.6984233" lon="12.5651267"><ele>438.0</ele><time>2026-04-18T12:47:34.599Z</time></trkpt><trkpt lat="43.6985067" lon="12.56524"><ele>436.25</ele><time>2026-04-18T12:47:35.599Z</time></trkpt><trkpt lat="43.6985983" lon="12.5653417"><ele>434.5</ele><time>2026-04-18T12:47:36.599Z</time></trkpt><trkpt lat="43.6986767" lon="12.5654817"><ele>432.75</ele><time>2026-04-18T12:47:37.599Z</time></trkpt><trkpt lat="43.6987233" lon="12.5656483"><ele>431.0</ele><time>2026-04-18T12:47:38.599Z</time></trkpt><trkpt lat="43.6987417" lon="12.5658417"><ele>431.0</ele><time>2026-04-18T12:47:39.599Z</time></trkpt><trkpt lat="43.6987417" lon="12.5660533"><ele>431.0</ele><time>2026-04-18T12:47:40.599Z</time></trkpt><trkpt lat="43.6987333" lon="12.566275"><ele>431.0</ele><time>2026-04-18T12:47:41.599Z</time></trkpt><trkpt lat="43.698715" lon="12.5664967"><ele>433.0</ele><time>2026-04-18T12:47:42.599Z</time></trkpt><trkpt lat="43.698695" lon="12.5667233"><ele>435.0</ele><time>2026-04-18T12:47:43.599Z</time></trkpt><trkpt lat="43.6986867" lon="12.5669467"><ele>437.0</ele><time>2026-04-18T12:47:44.599Z</time></trkpt><trkpt lat="43.6986917" lon="12.5671733"><ele>439.0</ele><time>2026-04-18T12:47:45.599Z</time></trkpt><trkpt lat="43.6987233" lon="12.567405"><ele>441.0</ele><time>2026-04-18T12:47:46.599Z</time></trkpt><trkpt lat="43.6987817" lon="12.5676367"><ele>443.0</ele><time>2026-04-18T12:47:47.599Z</time></trkpt><trkpt lat="43.69886" lon="12.5678683"><ele>447.3333333333333</ele><time>2026-04-18T12:47:48.599Z</time></trkpt><trkpt lat="43.6989567" lon="12.568095"><ele>451.66666666666663</ele><time>2026-04-18T12:47:49.599Z</time></trkpt><trkpt lat="43.6990617" lon="12.5683183"><ele>456.0</ele><time>2026-04-18T12:47:50.599Z</time></trkpt><trkpt lat="43.6991583" lon="12.56855"><ele>452.66666666666663</ele><time>2026-04-18T12:47:51.599Z</time></trkpt><trkpt lat="43.6992383" lon="12.5687883"><ele>449.3333333333333</ele><time>2026-04-18T12:47:52.599Z</time></trkpt><trkpt lat="43.6993367" lon="12.569015"><ele>446.0</ele><time>2026-04-18T12:47:53.599Z</time></trkpt><trkpt lat="43.6994533" lon="12.569235"><ele>446.0</ele><time>2026-04-18T12:47:54.599Z</time></trkpt><trkpt lat="43.6995433" lon="12.569475"><ele>446.0</ele><time>2026-04-18T12:47:55.599Z</time></trkpt><trkpt lat="43.699615" lon="12.56972"><ele>446.0</ele><time>2026-04-18T12:47:56.599Z</time></trkpt><trkpt lat="43.6996767" lon="12.56997"><ele>450.0</ele><time>2026-04-18T12:47:57.599Z</time></trkpt><trkpt lat="43.6997483" lon="12.570225"><ele>454.0</ele><time>2026-04-18T12:47:58.599Z</time></trkpt><trkpt lat="43.6998183" lon="12.5704767"><ele>458.0</ele><time>2026-04-18T12:47:59.599Z</time></trkpt><trkpt lat="43.6999133" lon="12.5707267"><ele>461.66666666666663</ele><time>2026-04-18T12:48:00.599Z</time></trkpt><trkpt lat="43.70001" lon="12.57098"><ele>465.33333333333337</ele><time>2026-04-18T12:48:01.599Z</time></trkpt><trkpt lat="43.7000967" lon="12.5712467"><ele>469.0</ele><time>2026-04-18T12:48:02.598Z</time></trkpt><trkpt lat="43.700175" lon="12.5715017"><ele>470.6666666666667</ele><time>2026-04-18T12:48:03.599Z</time></trkpt><trkpt lat="43.7002617" lon="12.571745"><ele>472.33333333333337</ele><time>2026-04-18T12:48:04.599Z</time></trkpt><trkpt lat="43.7003583" lon="12.5719617"><ele>474.0</ele><time>2026-04-18T12:48:05.599Z</time></trkpt><trkpt lat="43.7004683" lon="12.5721483"><ele>474.0</ele><time>2026-04-18T12:48:06.599Z</time></trkpt><trkpt lat="43.7006067" lon="12.572305"><ele>474.0</ele><time>2026-04-18T12:48:07.599Z</time></trkpt><trkpt lat="43.7007633" lon="12.5724233"><ele>474.0</ele><time>2026-04-18T12:48:08.599Z</time></trkpt><trkpt lat="43.700905" lon="12.572525"><ele>474.0</ele><time>2026-04-18T12:48:09.598Z</time></trkpt><trkpt lat="43.7010417" lon="12.5726183"><ele>474.0</ele><time>2026-04-18T12:48:10.599Z</time></trkpt><trkpt lat="43.7011567" lon="12.5727333"><ele>474.0</ele><time>2026-04-18T12:48:11.599Z</time></trkpt><trkpt lat="43.7012617" lon="12.5728667"><ele>474.0</ele><time>2026-04-18T12:48:12.599Z</time></trkpt><trkpt lat="43.7013533" lon="12.5730167"><ele>473.5</ele><time>2026-04-18T12:48:13.599Z</time></trkpt><trkpt lat="43.701455" lon="12.5731533"><ele>473.0</ele><time>2026-04-18T12:48:14.599Z</time></trkpt><trkpt lat="43.7015783" lon="12.5732617"><ele>472.5</ele><time>2026-04-18T12:48:15.599Z</time></trkpt><trkpt lat="43.7017167" lon="12.5733283"><ele>472.0</ele><time>2026-04-18T12:48:16.599Z</time></trkpt><trkpt lat="43.701885" lon="12.573345"><ele>473.6666666666667</ele><time>2026-04-18T12:48:17.599Z</time></trkpt><trkpt lat="43.7020517" lon="12.5733417"><ele>475.33333333333337</ele><time>2026-04-18T12:48:18.599Z</time></trkpt><trkpt lat="43.702225" lon="12.5733417"><ele>477.0</ele><time>2026-04-18T12:48:19.599Z</time></trkpt><trkpt lat="43.7023767" lon="12.5733367"><ele>477.0</ele><time>2026-04-18T12:48:20.599Z</time></trkpt><trkpt lat="43.7025283" lon="12.5733467"><ele>477.0</ele><time>2026-04-18T12:48:21.599Z</time></trkpt><trkpt lat="43.7026733" lon="12.5733867"><ele>477.0</ele><time>2026-04-18T12:48:22.599Z</time></trkpt><trkpt lat="43.70282" lon="12.573465"><ele>480.66666666666663</ele><time>2026-04-18T12:48:23.599Z</time></trkpt><trkpt lat="43.7029483" lon="12.5735933"><ele>484.3333333333333</ele><time>2026-04-18T12:48:24.599Z</time></trkpt><trkpt lat="43.703045" lon="12.57375"><ele>488.0</ele><time>2026-04-18T12:48:25.599Z</time></trkpt><trkpt lat="43.70312" lon="12.5739233"><ele>490.25</ele><time>2026-04-18T12:48:26.599Z</time></trkpt><trkpt lat="43.7031583" lon="12.57412"><ele>492.5</ele><time>2026-04-18T12:48:27.599Z</time></trkpt><trkpt lat="43.703155" lon="12.574325"><ele>494.75</ele><time>2026-04-18T12:48:28.599Z</time></trkpt><trkpt lat="43.7031183" lon="12.57453"><ele>497.0</ele><time>2026-04-18T12:48:29.599Z</time></trkpt><trkpt lat="43.7030467" lon="12.5747333"><ele>502.3333333333333</ele><time>2026-04-18T12:48:30.599Z</time></trkpt><trkpt lat="43.702985" lon="12.5749483"><ele>507.66666666666663</ele><time>2026-04-18T12:48:31.599Z</time></trkpt><trkpt lat="43.7028883" lon="12.5751717"><ele>513.0</ele><time>2026-04-18T12:48:32.599Z</time></trkpt><trkpt lat="43.7027717" lon="12.5753767"><ele>502.33333333333337</ele><time>2026-04-18T12:48:33.599Z</time></trkpt><trkpt lat="43.70266" lon="12.5755767"><ele>491.6666666666667</ele><time>2026-04-18T12:48:34.599Z</time></trkpt><trkpt lat="43.7025417" lon="12.5757683"><ele>481.0</ele><time>2026-04-18T12:48:35.599Z</time></trkpt><trkpt lat="43.7024417" lon="12.5759633"><ele>481.0</ele><time>2026-04-18T12:48:36.599Z</time></trkpt><trkpt lat="43.7023683" lon="12.576175"><ele>481.0</ele><time>2026-04-18T12:48:37.599Z</time></trkpt><trkpt lat="43.702295" lon="12.57639"><ele>481.0</ele><time>2026-04-18T12:48:38.599Z</time></trkpt><trkpt lat="43.7022433" lon="12.576595"><ele>486.6666666666667</ele><time>2026-04-18T12:48:39.599Z</time></trkpt><trkpt lat="43.7021667" lon="12.57679"><ele>492.33333333333337</ele><time>2026-04-18T12:48:40.599Z</time></trkpt><trkpt lat="43.7020983" lon="12.5769833"><ele>498.0</ele><time>2026-04-18T12:48:41.599Z</time></trkpt><trkpt lat="43.702055" lon="12.5771867"><ele>499.0</ele><time>2026-04-18T12:48:42.599Z</time></trkpt><trkpt lat="43.702015" lon="12.5774033"><ele>500.0</ele><time>2026-04-18T12:48:43.599Z</time></trkpt><trkpt lat="43.7019617" lon="12.5776117"><ele>501.0</ele><time>2026-04-18T12:48:44.599Z</time></trkpt><trkpt lat="43.70189" lon="12.57779"><ele>493.8</ele><time>2026-04-18T12:48:45.599Z</time></trkpt><trkpt lat="43.7018267" lon="12.5779433"><ele>486.6</ele><time>2026-04-18T12:48:46.599Z</time></trkpt><trkpt lat="43.7017917" lon="12.5780783"><ele>479.4</ele><time>2026-04-18T12:48:47.599Z</time></trkpt><trkpt lat="43.7017933" lon="12.5782217"><ele>472.2</ele><time>2026-04-18T12:48:48.599Z</time></trkpt><trkpt lat="43.7018317" lon="12.5783533"><ele>465.0</ele><time>2026-04-18T12:48:49.599Z</time></trkpt><trkpt lat="43.701905" lon="12.578445"><ele>470.75</ele><time>2026-04-18T12:48:50.599Z</time></trkpt><trkpt lat="43.7020033" lon="12.578495"><ele>476.5</ele><time>2026-04-18T12:48:51.599Z</time></trkpt><trkpt lat="43.7021317" lon="12.5785033"><ele>482.25</ele><time>2026-04-18T12:48:52.599Z</time></trkpt><trkpt lat="43.7022817" lon="12.5784783"><ele>488.0</ele><time>2026-04-18T12:48:53.599Z</time></trkpt><trkpt lat="43.7024683" lon="12.5784"><ele>488.0</ele><time>2026-04-18T12:48:54.598Z</time></trkpt><trkpt lat="43.702645" lon="12.5783733"><ele>488.0</ele><time>2026-04-18T12:48:55.599Z</time></trkpt><trkpt lat="43.7028033" lon="12.5784067"><ele>488.0</ele><time>2026-04-18T12:48:56.599Z</time></trkpt><trkpt lat="43.70295" lon="12.578485"><ele>491.0</ele><time>2026-04-18T12:48:57.599Z</time></trkpt><trkpt lat="43.7031083" lon="12.5785633"><ele>494.0</ele><time>2026-04-18T12:48:58.599Z</time></trkpt><trkpt lat="43.7032783" lon="12.5786267"><ele>497.0</ele><time>2026-04-18T12:48:59.599Z</time></trkpt><trkpt lat="43.703445" lon="12.5786733"><ele>497.25</ele><time>2026-04-18T12:49:00.599Z</time></trkpt><trkpt lat="43.7036067" lon="12.5787067"><ele>497.5</ele><time>2026-04-18T12:49:01.599Z</time></trkpt><trkpt lat="43.7037483" lon="12.57873"><ele>497.75</ele><time>2026-04-18T12:49:02.598Z</time></trkpt><trkpt lat="43.7038817" lon="12.578715"><ele>498.0</ele><time>2026-04-18T12:49:03.599Z</time></trkpt><trkpt lat="43.7040133" lon="12.5786717"><ele>498.0</ele><time>2026-04-18T12:49:04.599Z</time></trkpt><trkpt lat="43.7041533" lon="12.578595"><ele>498.0</ele><time>2026-04-18T12:49:05.599Z</time></trkpt><trkpt lat="43.7042917" lon="12.5785033"><ele>498.0</ele><time>2026-04-18T12:49:06.599Z</time></trkpt><trkpt lat="43.7044167" lon="12.5784417"><ele>498.0</ele><time>2026-04-18T12:49:07.599Z</time></trkpt><trkpt lat="43.7045283" lon="12.57841"><ele>495.25</ele><time>2026-04-18T12:49:08.599Z</time></trkpt><trkpt lat="43.7046517" lon="12.5784367"><ele>492.5</ele><time>2026-04-18T12:49:09.599Z</time></trkpt><trkpt lat="43.7047467" lon="12.5785217"><ele>489.75</ele><time>2026-04-18T12:49:10.599Z</time></trkpt><trkpt lat="43.7048217" lon="12.5786533"><ele>487.0</ele><time>2026-04-18T12:49:11.599Z</time></trkpt><trkpt lat="43.7048783" lon="12.5788083"><ele>487.0</ele><time>2026-04-18T12:49:12.599Z</time></trkpt><trkpt lat="43.704925" lon="12.5789733"><ele>487.0</ele><time>2026-04-18T12:49:13.599Z</time></trkpt><trkpt lat="43.70498" lon="12.57915"><ele>487.0</ele><time>2026-04-18T12:49:14.599Z</time></trkpt><trkpt lat="43.7050283" lon="12.5793267"><ele>487.0</ele><time>2026-04-18T12:49:15.599Z</time></trkpt><trkpt lat="43.7050467" lon="12.579495"><ele>487.75</ele><time>2026-04-18T12:49:16.599Z</time></trkpt><trkpt lat="43.70505" lon="12.57967"><ele>488.5</ele><time>2026-04-18T12:49:17.599Z</time></trkpt><trkpt lat="43.7050383" lon="12.579835"><ele>489.25</ele><time>2026-04-18T12:49:18.599Z</time></trkpt><trkpt lat="43.7050267" lon="12.5799983"><ele>490.0</ele><time>2026-04-18T12:49:19.599Z</time></trkpt><trkpt lat="43.70501" lon="12.58016"><ele>490.0</ele><time>2026-04-18T12:49:20.599Z</time></trkpt><trkpt lat="43.704995" lon="12.5803183"><ele>490.0</ele><time>2026-04-18T12:49:21.599Z</time></trkpt><trkpt lat="43.70498" lon="12.580505"><ele>490.0</ele><time>2026-04-18T12:49:22.599Z</time></trkpt><trkpt lat="43.704975" lon="12.5806933"><ele>490.0</ele><time>2026-04-18T12:49:23.599Z</time></trkpt><trkpt lat="43.7049833" lon="12.580895"><ele>490.0</ele><time>2026-04-18T12:49:24.599Z</time></trkpt><trkpt lat="43.7050117" lon="12.5811017"><ele>490.0</ele><time>2026-04-18T12:49:25.599Z</time></trkpt><trkpt lat="43.7050633" lon="12.5813117"><ele>490.0</ele><time>2026-04-18T12:49:26.599Z</time></trkpt><trkpt lat="43.70512" lon="12.58151"><ele>492.0</ele><time>2026-04-18T12:49:27.599Z</time></trkpt><trkpt lat="43.70517" lon="12.5817267"><ele>494.0</ele><time>2026-04-18T12:49:28.599Z</time></trkpt><trkpt lat="43.7052033" lon="12.5819533"><ele>496.0</ele><time>2026-04-18T12:49:29.599Z</time></trkpt><trkpt lat="43.7052117" lon="12.582195"><ele>496.33333333333337</ele><time>2026-04-18T12:49:30.599Z</time></trkpt><trkpt lat="43.7052067" lon="12.58243"><ele>496.66666666666663</ele><time>2026-04-18T12:49:31.599Z</time></trkpt><trkpt lat="43.7051917" lon="12.58267"><ele>497.0</ele><time>2026-04-18T12:49:32.599Z</time></trkpt><trkpt lat="43.7051367" lon="12.58289"><ele>494.66666666666663</ele><time>2026-04-18T12:49:33.599Z</time></trkpt><trkpt lat="43.705065" lon="12.583085"><ele>492.33333333333337</ele><time>2026-04-18T12:49:34.599Z</time></trkpt><trkpt lat="43.70496" lon="12.58326"><ele>490.0</ele><time>2026-04-18T12:49:35.599Z</time></trkpt><trkpt lat="43.70487" lon="12.5834267"><ele>490.0</ele><time>2026-04-18T12:49:36.599Z</time></trkpt><trkpt lat="43.7047917" lon="12.58359"><ele>490.0</ele><time>2026-04-18T12:49:37.599Z</time></trkpt><trkpt lat="43.7047433" lon="12.5837567"><ele>490.0</ele><time>2026-04-18T12:49:38.599Z</time></trkpt><trkpt lat="43.7047283" lon="12.5839383"><ele>490.0</ele><time>2026-04-18T12:49:39.599Z</time></trkpt><trkpt lat="43.70474" lon="12.58413"><ele>489.25</ele><time>2026-04-18T12:49:40.599Z</time></trkpt><trkpt lat="43.7047917" lon="12.584315"><ele>488.5</ele><time>2026-04-18T12:49:41.599Z</time></trkpt><trkpt lat="43.7048517" lon="12.5844783"><ele>487.75</ele><time>2026-04-18T12:49:42.599Z</time></trkpt><trkpt lat="43.7049033" lon="12.584665"><ele>487.0</ele><time>2026-04-18T12:49:43.599Z</time></trkpt><trkpt lat="43.7049317" lon="12.5848683"><ele>487.0</ele><time>2026-04-18T12:49:44.599Z</time></trkpt><trkpt lat="43.7049417" lon="12.5850733"><ele>487.0</ele><time>2026-04-18T12:49:45.599Z</time></trkpt><trkpt lat="43.70492" lon="12.5852833"><ele>487.0</ele><time>2026-04-18T12:49:46.599Z</time></trkpt><trkpt lat="43.7049083" lon="12.5855033"><ele>487.0</ele><time>2026-04-18T12:49:47.599Z</time></trkpt><trkpt lat="43.7049483" lon="12.5857217"><ele>487.0</ele><time>2026-04-18T12:49:48.599Z</time></trkpt><trkpt lat="43.70501" lon="12.5859517"><ele>487.0</ele><time>2026-04-18T12:49:49.599Z</time></trkpt><trkpt lat="43.7050767" lon="12.5861867"><ele>491.0</ele><time>2026-04-18T12:49:50.599Z</time></trkpt><trkpt lat="43.7051367" lon="12.5864267"><ele>495.0</ele><time>2026-04-18T12:49:51.599Z</time></trkpt><trkpt lat="43.7051917" lon="12.5866467"><ele>499.0</ele><time>2026-04-18T12:49:52.599Z</time></trkpt><trkpt lat="43.7052533" lon="12.5868367"><ele>494.25</ele><time>2026-04-18T12:49:53.599Z</time></trkpt><trkpt lat="43.7053333" lon="12.587005"><ele>489.5</ele><time>2026-04-18T12:49:54.599Z</time></trkpt><trkpt lat="43.7054317" lon="12.5871433"><ele>484.75</ele><time>2026-04-18T12:49:55.599Z</time></trkpt><trkpt lat="43.7055467" lon="12.58725"><ele>480.0</ele><time>2026-04-18T12:49:56.599Z</time></trkpt><trkpt lat="43.70566" lon="12.587355"><ele>480.0</ele><time>2026-04-18T12:49:57.599Z</time></trkpt><trkpt lat="43.7057467" lon="12.5874917"><ele>480.0</ele><time>2026-04-18T12:49:58.599Z</time></trkpt><trkpt lat="43.7058067" lon="12.58766"><ele>480.0</ele><time>2026-04-18T12:49:59.599Z</time></trkpt><trkpt lat="43.7058383" lon="12.5878617"><ele>480.0</ele><time>2026-04-18T12:50:00.599Z</time></trkpt><trkpt lat="43.70585" lon="12.58807"><ele>480.0</ele><time>2026-04-18T12:50:01.599Z</time></trkpt><trkpt lat="43.7058617" lon="12.588285"><ele>480.0</ele><time>2026-04-18T12:50:02.599Z</time></trkpt><trkpt lat="43.705865" lon="12.5885033"><ele>480.0</ele><time>2026-04-18T12:50:03.599Z</time></trkpt><trkpt lat="43.7058917" lon="12.588705"><ele>480.0</ele><time>2026-04-18T12:50:04.599Z</time></trkpt><trkpt lat="43.705915" lon="12.588895"><ele>480.0</ele><time>2026-04-18T12:50:05.599Z</time></trkpt><trkpt lat="43.705915" lon="12.589085"><ele>480.0</ele><time>2026-04-18T12:50:06.599Z</time></trkpt><trkpt lat="43.70589" lon="12.5892717"><ele>480.0</ele><time>2026-04-18T12:50:07.599Z</time></trkpt><trkpt lat="43.70582" lon="12.589445"><ele>477.75</ele><time>2026-04-18T12:50:08.599Z</time></trkpt><trkpt lat="43.7057283" lon="12.5896217"><ele>475.5</ele><time>2026-04-18T12:50:09.599Z</time></trkpt><trkpt lat="43.7056483" lon="12.5898"><ele>473.25</ele><time>2026-04-18T12:50:10.599Z</time></trkpt><trkpt lat="43.705565" lon="12.5899467"><ele>471.0</ele><time>2026-04-18T12:50:11.599Z</time></trkpt><trkpt lat="43.7054633" lon="12.590075"><ele>471.0</ele><time>2026-04-18T12:50:12.599Z</time></trkpt><trkpt lat="43.70533" lon="12.590165"><ele>471.0</ele><time>2026-04-18T12:50:13.599Z</time></trkpt><trkpt lat="43.7051883" lon="12.59023"><ele>471.0</ele><time>2026-04-18T12:50:14.599Z</time></trkpt><trkpt lat="43.70505" lon="12.5903067"><ele>471.0</ele><time>2026-04-18T12:50:15.599Z</time></trkpt><trkpt lat="43.7049183" lon="12.5904183"><ele>472.0</ele><time>2026-04-18T12:50:16.599Z</time></trkpt><trkpt lat="43.7048" lon="12.5905617"><ele>473.0</ele><time>2026-04-18T12:50:17.599Z</time></trkpt><trkpt lat="43.704715" lon="12.590735"><ele>474.0</ele><time>2026-04-18T12:50:18.599Z</time></trkpt><trkpt lat="43.7046583" lon="12.590925"><ele>474.0</ele><time>2026-04-18T12:50:19.599Z</time></trkpt><trkpt lat="43.7046367" lon="12.59113"><ele>474.0</ele><time>2026-04-18T12:50:20.599Z</time></trkpt><trkpt lat="43.7046683" lon="12.5913517"><ele>474.0</ele><time>2026-04-18T12:50:21.599Z</time></trkpt><trkpt lat="43.7047333" lon="12.59156"><ele>473.75</ele><time>2026-04-18T12:50:22.599Z</time></trkpt><trkpt lat="43.7048067" lon="12.59175"><ele>473.5</ele><time>2026-04-18T12:50:23.599Z</time></trkpt><trkpt lat="43.7048617" lon="12.59194"><ele>473.25</ele><time>2026-04-18T12:50:24.599Z</time></trkpt><trkpt lat="43.7048817" lon="12.5921217"><ele>473.0</ele><time>2026-04-18T12:50:25.599Z</time></trkpt><trkpt lat="43.704865" lon="12.5922933"><ele>471.5</ele><time>2026-04-18T12:50:26.599Z</time></trkpt><trkpt lat="43.7048133" lon="12.5924567"><ele>470.0</ele><time>2026-04-18T12:50:27.599Z</time></trkpt><trkpt lat="43.7047267" lon="12.5925983"><ele>468.5</ele><time>2026-04-18T12:50:28.599Z</time></trkpt><trkpt lat="43.7046067" lon="12.59274"><ele>467.0</ele><time>2026-04-18T12:50:29.599Z</time></trkpt><trkpt lat="43.70447" lon="12.5928517"><ele>470.3333333333333</ele><time>2026-04-18T12:50:30.599Z</time></trkpt><trkpt lat="43.7043167" lon="12.592985"><ele>473.66666666666663</ele><time>2026-04-18T12:50:31.598Z</time></trkpt><trkpt lat="43.704165" lon="12.593115"><ele>477.0</ele><time>2026-04-18T12:50:32.599Z</time></trkpt><trkpt lat="43.704015" lon="12.59326"><ele>477.0</ele><time>2026-04-18T12:50:33.599Z</time></trkpt><trkpt lat="43.7038667" lon="12.5934017"><ele>477.0</ele><time>2026-04-18T12:50:34.599Z</time></trkpt><trkpt lat="43.7037283" lon="12.5935317"><ele>477.0</ele><time>2026-04-18T12:50:35.599Z</time></trkpt><trkpt lat="43.703595" lon="12.5936433"><ele>476.5</ele><time>2026-04-18T12:50:36.599Z</time></trkpt><trkpt lat="43.7034733" lon="12.5937467"><ele>476.0</ele><time>2026-04-18T12:50:37.599Z</time></trkpt><trkpt lat="43.7033533" lon="12.5938633"><ele>475.5</ele><time>2026-04-18T12:50:38.599Z</time></trkpt><trkpt lat="43.7032517" lon="12.5940017"><ele>475.0</ele><time>2026-04-18T12:50:39.599Z</time></trkpt><trkpt lat="43.7031717" lon="12.594155"><ele>475.0</ele><time>2026-04-18T12:50:40.599Z</time></trkpt><trkpt lat="43.7031283" lon="12.5943333"><ele>475.0</ele><time>2026-04-18T12:50:41.599Z</time></trkpt><trkpt lat="43.7031367" lon="12.59454"><ele>475.0</ele><time>2026-04-18T12:50:42.599Z</time></trkpt><trkpt lat="43.7031683" lon="12.5947583"><ele>475.0</ele><time>2026-04-18T12:50:43.599Z</time></trkpt><trkpt lat="43.7031767" lon="12.5949617"><ele>473.0</ele><time>2026-04-18T12:50:44.599Z</time></trkpt><trkpt lat="43.7031567" lon="12.5951533"><ele>471.0</ele><time>2026-04-18T12:50:45.599Z</time></trkpt><trkpt lat="43.70311" lon="12.59534"><ele>469.0</ele><time>2026-04-18T12:50:46.599Z</time></trkpt><trkpt lat="43.703065" lon="12.5955383"><ele>467.0</ele><time>2026-04-18T12:50:47.599Z</time></trkpt><trkpt lat="43.70304" lon="12.5957417"><ele>466.25</ele><time>2026-04-18T12:50:48.599Z</time></trkpt><trkpt lat="43.7030417" lon="12.595935"><ele>465.5</ele><time>2026-04-18T12:50:49.599Z</time></trkpt><trkpt lat="43.7030667" lon="12.5961167"><ele>464.75</ele><time>2026-04-18T12:50:50.599Z</time></trkpt><trkpt lat="43.703115" lon="12.5962833"><ele>464.0</ele><time>2026-04-18T12:50:51.599Z</time></trkpt><trkpt lat="43.703195" lon="12.5964283"><ele>467.25</ele><time>2026-04-18T12:50:52.599Z</time></trkpt><trkpt lat="43.7033183" lon="12.5965467"><ele>470.5</ele><time>2026-04-18T12:50:53.599Z</time></trkpt><trkpt lat="43.703425" lon="12.5966883"><ele>473.75</ele><time>2026-04-18T12:50:54.599Z</time></trkpt><trkpt lat="43.7035033" lon="12.5968583"><ele>477.0</ele><time>2026-04-18T12:50:55.599Z</time></trkpt><trkpt lat="43.7035583" lon="12.5970517"><ele>472.0</ele><time>2026-04-18T12:50:56.599Z</time></trkpt><trkpt lat="43.70363" lon="12.5972617"><ele>467.0</ele><time>2026-04-18T12:50:57.599Z</time></trkpt><trkpt lat="43.703715" lon="12.597465"><ele>462.0</ele><time>2026-04-18T12:50:58.599Z</time></trkpt><trkpt lat="43.7038033" lon="12.59765"><ele>462.0</ele><time>2026-04-18T12:50:59.599Z</time></trkpt><trkpt lat="43.7038833" lon="12.5978233"><ele>462.0</ele><time>2026-04-18T12:51:00.599Z</time></trkpt><trkpt lat="43.703975" lon="12.5979717"><ele>462.0</ele><time>2026-04-18T12:51:01.599Z</time></trkpt><trkpt lat="43.7040883" lon="12.598105"><ele>462.0</ele><time>2026-04-18T12:51:02.599Z</time></trkpt><trkpt lat="43.704215" lon="12.5981867"><ele>462.5</ele><time>2026-04-18T12:51:03.599Z</time></trkpt><trkpt lat="43.7043483" lon="12.598195"><ele>463.0</ele><time>2026-04-18T12:51:04.599Z</time></trkpt><trkpt lat="43.7045017" lon="12.5981983"><ele>463.5</ele><time>2026-04-18T12:51:05.599Z</time></trkpt><trkpt lat="43.7046517" lon="12.5982433"><ele>464.0</ele><time>2026-04-18T12:51:06.599Z</time></trkpt><trkpt lat="43.7047867" lon="12.5983217"><ele>464.0</ele><time>2026-04-18T12:51:07.599Z</time></trkpt><trkpt lat="43.7049167" lon="12.59844"><ele>464.0</ele><time>2026-04-18T12:51:08.599Z</time></trkpt><trkpt lat="43.7050417" lon="12.5985867"><ele>464.0</ele><time>2026-04-18T12:51:09.599Z</time></trkpt><trkpt lat="43.705155" lon="12.5987383"><ele>463.25</ele><time>2026-04-18T12:51:10.599Z</time></trkpt><trkpt lat="43.7052483" lon="12.5988817"><ele>462.5</ele><time>2026-04-18T12:51:11.599Z</time></trkpt><trkpt lat="43.705345" lon="12.5990083"><ele>461.75</ele><time>2026-04-18T12:51:12.599Z</time></trkpt><trkpt lat="43.7054133" lon="12.5991183"><ele>461.0</ele><time>2026-04-18T12:51:13.599Z</time></trkpt><trkpt lat="43.70546" lon="12.5992317"><ele>461.0</ele><time>2026-04-18T12:51:14.599Z</time></trkpt><trkpt lat="43.7054617" lon="12.599345"><ele>461.0</ele><time>2026-04-18T12:51:15.599Z</time></trkpt><trkpt lat="43.70543" lon="12.59944"><ele>461.0</ele><time>2026-04-18T12:51:16.599Z</time></trkpt><trkpt lat="43.7053817" lon="12.5995117"><ele>461.0</ele><time>2026-04-18T12:51:17.599Z</time></trkpt><trkpt lat="43.7052917" lon="12.5995417"><ele>461.0</ele><time>2026-04-18T12:51:18.599Z</time></trkpt><trkpt lat="43.70514" lon="12.59956"><ele>460.66666666666663</ele><time>2026-04-18T12:51:19.599Z</time></trkpt><trkpt lat="43.70495" lon="12.5995833"><ele>460.33333333333337</ele><time>2026-04-18T12:51:20.599Z</time></trkpt><trkpt lat="43.70479" lon="12.599635"><ele>460.0</ele><time>2026-04-18T12:51:21.599Z</time></trkpt><trkpt lat="43.7046683" lon="12.5997283"><ele>460.0</ele><time>2026-04-18T12:51:22.599Z</time></trkpt><trkpt lat="43.7045833" lon="12.59985"><ele>460.0</ele><time>2026-04-18T12:51:23.598Z</time></trkpt><trkpt lat="43.704535" lon="12.59998"><ele>460.0</ele><time>2026-04-18T12:51:24.599Z</time></trkpt><trkpt lat="43.7045317" lon="12.6001017"><ele>460.0</ele><time>2026-04-18T12:51:25.599Z</time></trkpt><trkpt lat="43.7045583" lon="12.6002533"><ele>460.0</ele><time>2026-04-18T12:51:26.599Z</time></trkpt><trkpt lat="43.704595" lon="12.6003917"><ele>458.8571428571428</ele><time>2026-04-18T12:51:27.599Z</time></trkpt><trkpt lat="43.70463" lon="12.6005067"><ele>457.71428571428567</ele><time>2026-04-18T12:51:28.599Z</time></trkpt><trkpt lat="43.704655" lon="12.6006017"><ele>456.57142857142856</ele><time>2026-04-18T12:51:29.599Z</time></trkpt><trkpt lat="43.7046567" lon="12.600695"><ele>455.4285714285714</ele><time>2026-04-18T12:51:30.599Z</time></trkpt><trkpt lat="43.7046267" lon="12.6007717"><ele>454.2857142857142</ele><time>2026-04-18T12:51:31.599Z</time></trkpt><trkpt lat="43.7045733" lon="12.60082"><ele>453.14285714285717</ele><time>2026-04-18T12:51:32.599Z</time></trkpt><trkpt lat="43.7044933" lon="12.6008267"><ele>452.0</ele><time>2026-04-18T12:51:33.599Z</time></trkpt><trkpt lat="43.7044" lon="12.6008"><ele>452.0</ele><time>2026-04-18T12:51:34.599Z</time></trkpt><trkpt lat="43.7042933" lon="12.6007467"><ele>452.0</ele><time>2026-04-18T12:51:35.599Z</time></trkpt><trkpt lat="43.7041883" lon="12.6006767"><ele>452.0</ele><time>2026-04-18T12:51:36.599Z</time></trkpt><trkpt lat="43.7040767" lon="12.6005917"><ele>452.0</ele><time>2026-04-18T12:51:37.599Z</time></trkpt><trkpt lat="43.70396" lon="12.600505"><ele>452.0</ele><time>2026-04-18T12:51:38.599Z</time></trkpt><trkpt lat="43.7038517" lon="12.6004333"><ele>452.00000000000006</ele><time>2026-04-18T12:51:39.599Z</time></trkpt><trkpt lat="43.7037483" lon="12.60037"><ele>452.00000000000006</ele><time>2026-04-18T12:51:40.599Z</time></trkpt><trkpt lat="43.7036483" lon="12.6003283"><ele>452.0</ele><time>2026-04-18T12:51:41.599Z</time></trkpt><trkpt lat="43.7035417" lon="12.6003217"><ele>452.0</ele><time>2026-04-18T12:51:42.599Z</time></trkpt><trkpt lat="43.7034267" lon="12.6003333"><ele>451.0</ele><time>2026-04-18T12:51:43.599Z</time></trkpt><trkpt lat="43.7033117" lon="12.6003467"><ele>450.00000000000006</ele><time>2026-04-18T12:51:44.599Z</time></trkpt><trkpt lat="43.7032083" lon="12.60034"><ele>449.00000000000006</ele><time>2026-04-18T12:51:45.599Z</time></trkpt><trkpt lat="43.70311" lon="12.6003367"><ele>448.0</ele><time>2026-04-18T12:51:46.599Z</time></trkpt><trkpt lat="43.7030117" lon="12.60035"><ele>447.0</ele><time>2026-04-18T12:51:47.599Z</time></trkpt><trkpt lat="43.7029133" lon="12.600385"><ele>447.0</ele><time>2026-04-18T12:51:48.599Z</time></trkpt><trkpt lat="43.70282" lon="12.6004517"><ele>447.00000000000006</ele><time>2026-04-18T12:51:49.599Z</time></trkpt><trkpt lat="43.70273" lon="12.60055"><ele>447.00000000000006</ele><time>2026-04-18T12:51:50.599Z</time></trkpt><trkpt lat="43.702645" lon="12.600655"><ele>447.0</ele><time>2026-04-18T12:51:51.599Z</time></trkpt><trkpt lat="43.7025833" lon="12.6007717"><ele>447.0</ele><time>2026-04-18T12:51:52.599Z</time></trkpt><trkpt lat="43.7025433" lon="12.6009383"><ele>449.25</ele><time>2026-04-18T12:51:53.599Z</time></trkpt><trkpt lat="43.702525" lon="12.6010967"><ele>451.5</ele><time>2026-04-18T12:51:54.599Z</time></trkpt><trkpt lat="43.7025333" lon="12.601255"><ele>453.75</ele><time>2026-04-18T12:51:55.599Z</time></trkpt><trkpt lat="43.7025533" lon="12.6014167"><ele>456.0</ele><time>2026-04-18T12:51:56.599Z</time></trkpt><trkpt lat="43.70257" lon="12.60158"><ele>456.0</ele><time>2026-04-18T12:51:57.599Z</time></trkpt><trkpt lat="43.7025917" lon="12.6017533"><ele>456.0</ele><time>2026-04-18T12:51:58.599Z</time></trkpt><trkpt lat="43.7026117" lon="12.6019367"><ele>456.0</ele><time>2026-04-18T12:51:59.599Z</time></trkpt><trkpt lat="43.70263" lon="12.6021017"><ele>456.0</ele><time>2026-04-18T12:52:00.599Z</time></trkpt><trkpt lat="43.7026683" lon="12.6022617"><ele>456.0</ele><time>2026-04-18T12:52:01.599Z</time></trkpt><trkpt lat="43.7027133" lon="12.60241"><ele>456.0</ele><time>2026-04-18T12:52:02.599Z</time></trkpt><trkpt lat="43.702755" lon="12.60256"><ele>456.0</ele><time>2026-04-18T12:52:03.599Z</time></trkpt><trkpt lat="43.7027867" lon="12.6027033"><ele>456.0</ele><time>2026-04-18T12:52:04.599Z</time></trkpt><trkpt lat="43.702805" lon="12.6028383"><ele>456.0</ele><time>2026-04-18T12:52:05.599Z</time></trkpt><trkpt lat="43.7028217" lon="12.60298"><ele>451.4</ele><time>2026-04-18T12:52:06.599Z</time></trkpt><trkpt lat="43.7028533" lon="12.6031133"><ele>446.8</ele><time>2026-04-18T12:52:07.599Z</time></trkpt><trkpt lat="43.7029067" lon="12.60324"><ele>442.19999999999993</ele><time>2026-04-18T12:52:08.599Z</time></trkpt><trkpt lat="43.7029767" lon="12.60335"><ele>437.59999999999997</ele><time>2026-04-18T12:52:09.599Z</time></trkpt><trkpt lat="43.70307" lon="12.603435"><ele>433.0</ele><time>2026-04-18T12:52:10.599Z</time></trkpt><trkpt lat="43.703165" lon="12.6034933"><ele>433.0</ele><time>2026-04-18T12:52:11.599Z</time></trkpt><trkpt lat="43.7032617" lon="12.6035533"><ele>433.0</ele><time>2026-04-18T12:52:12.599Z</time></trkpt><trkpt lat="43.70335" lon="12.6036433"><ele>433.0</ele><time>2026-04-18T12:52:13.599Z</time></trkpt><trkpt lat="43.7034417" lon="12.6037633"><ele>433.0</ele><time>2026-04-18T12:52:14.599Z</time></trkpt><trkpt lat="43.703525" lon="12.6039067"><ele>431.75</ele><time>2026-04-18T12:52:15.599Z</time></trkpt><trkpt lat="43.7036" lon="12.6040433"><ele>430.5</ele><time>2026-04-18T12:52:16.599Z</time></trkpt><trkpt lat="43.7036833" lon="12.6041633"><ele>429.25</ele><time>2026-04-18T12:52:17.599Z</time></trkpt><trkpt lat="43.7037617" lon="12.6042717"><ele>428.0</ele><time>2026-04-18T12:52:18.599Z</time></trkpt><trkpt lat="43.7038433" lon="12.6043517"><ele>428.0</ele><time>2026-04-18T12:52:19.599Z</time></trkpt><trkpt lat="43.703925" lon="12.6044"><ele>427.99999999999994</ele><time>2026-04-18T12:52:20.599Z</time></trkpt><trkpt lat="43.7040117" lon="12.6044217"><ele>427.99999999999994</ele><time>2026-04-18T12:52:21.599Z</time></trkpt><trkpt lat="43.7041083" lon="12.60443"><ele>428.0</ele><time>2026-04-18T12:52:22.599Z</time></trkpt><trkpt lat="43.7042167" lon="12.6044267"><ele>428.0</ele><time>2026-04-18T12:52:23.599Z</time></trkpt><trkpt lat="43.7043067" lon="12.6043983"><ele>427.59999999999997</ele><time>2026-04-18T12:52:24.598Z</time></trkpt><trkpt lat="43.704415" lon="12.6044217"><ele>427.19999999999993</ele><time>2026-04-18T12:52:25.599Z</time></trkpt><trkpt lat="43.7045133" lon="12.6044667"><ele>426.8</ele><time>2026-04-18T12:52:26.599Z</time></trkpt><trkpt lat="43.704615" lon="12.6045333"><ele>426.4</ele><time>2026-04-18T12:52:27.598Z</time></trkpt><trkpt lat="43.704715" lon="12.6046217"><ele>426.0</ele><time>2026-04-18T12:52:28.599Z</time></trkpt><trkpt lat="43.7048133" lon="12.60471"><ele>426.0</ele><time>2026-04-18T12:52:29.599Z</time></trkpt><trkpt lat="43.7049033" lon="12.6047933"><ele>426.0</ele><time>2026-04-18T12:52:30.599Z</time></trkpt><trkpt lat="43.7049733" lon="12.604875"><ele>426.0</ele><time>2026-04-18T12:52:31.599Z</time></trkpt><trkpt lat="43.7050433" lon="12.6049833"><ele>426.0</ele><time>2026-04-18T12:52:32.599Z</time></trkpt><trkpt lat="43.7051" lon="12.60511"><ele>426.0</ele><time>2026-04-18T12:52:33.599Z</time></trkpt><trkpt lat="43.7051567" lon="12.6052517"><ele>425.5</ele><time>2026-04-18T12:52:34.599Z</time></trkpt><trkpt lat="43.7052117" lon="12.6053883"><ele>425.0</ele><time>2026-04-18T12:52:35.599Z</time></trkpt><trkpt lat="43.7052617" lon="12.6055317"><ele>424.5</ele><time>2026-04-18T12:52:36.599Z</time></trkpt><trkpt lat="43.7053117" lon="12.6056817"><ele>424.0</ele><time>2026-04-18T12:52:37.599Z</time></trkpt><trkpt lat="43.70536" lon="12.6058317"><ele>424.0</ele><time>2026-04-18T12:52:38.599Z</time></trkpt><trkpt lat="43.7053983" lon="12.6059933"><ele>424.0</ele><time>2026-04-18T12:52:39.599Z</time></trkpt><trkpt lat="43.70543" lon="12.6061517"><ele>424.0</ele><time>2026-04-18T12:52:40.599Z</time></trkpt><trkpt lat="43.70547" lon="12.6063167"><ele>424.0</ele><time>2026-04-18T12:52:41.599Z</time></trkpt><trkpt lat="43.7055233" lon="12.6064733"><ele>425.0</ele><time>2026-04-18T12:52:42.599Z</time></trkpt><trkpt lat="43.7056033" lon="12.60662"><ele>426.0</ele><time>2026-04-18T12:52:43.599Z</time></trkpt><trkpt lat="43.7057033" lon="12.6067517"><ele>427.0</ele><time>2026-04-18T12:52:44.599Z</time></trkpt><trkpt lat="43.7058383" lon="12.606865"><ele>428.0</ele><time>2026-04-18T12:52:45.599Z</time></trkpt><trkpt lat="43.7060067" lon="12.6070033"><ele>429.3333333333333</ele><time>2026-04-18T12:52:46.599Z</time></trkpt><trkpt lat="43.70617" lon="12.6071817"><ele>430.66666666666663</ele><time>2026-04-18T12:52:47.599Z</time></trkpt><trkpt lat="43.70632" lon="12.60739"><ele>432.0</ele><time>2026-04-18T12:52:48.599Z</time></trkpt><trkpt lat="43.7064633" lon="12.6075933"><ele>432.0</ele><time>2026-04-18T12:52:49.599Z</time></trkpt><trkpt lat="43.70661" lon="12.607765"><ele>432.0</ele><time>2026-04-18T12:52:50.599Z</time></trkpt><trkpt lat="43.70689" lon="12.6080567"><ele>435.66666666666663</ele><time>2026-04-18T12:52:52.599Z</time></trkpt><trkpt lat="43.7070067" lon="12.6082517"><ele>439.3333333333333</ele><time>2026-04-18T12:52:53.599Z</time></trkpt><trkpt lat="43.70711" lon="12.6084533"><ele>443.0</ele><time>2026-04-18T12:52:54.599Z</time></trkpt><trkpt lat="43.70721" lon="12.6086433"><ele>439.0</ele><time>2026-04-18T12:52:55.599Z</time></trkpt><trkpt lat="43.7072933" lon="12.6088167"><ele>435.0</ele><time>2026-04-18T12:52:56.599Z</time></trkpt><trkpt lat="43.707375" lon="12.608975"><ele>431.0</ele><time>2026-04-18T12:52:57.599Z</time></trkpt><trkpt lat="43.7074617" lon="12.6091117"><ele>427.0</ele><time>2026-04-18T12:52:58.599Z</time></trkpt><trkpt lat="43.70757" lon="12.6092383"><ele>428.0</ele><time>2026-04-18T12:52:59.599Z</time></trkpt><trkpt lat="43.7078517" lon="12.6093583"><ele>429.0</ele><time>2026-04-18T12:53:01.599Z</time></trkpt><trkpt lat="43.7080033" lon="12.6093783"><ele>430.0</ele><time>2026-04-18T12:53:02.599Z</time></trkpt><trkpt lat="43.708155" lon="12.6094"><ele>430.0</ele><time>2026-04-18T12:53:03.599Z</time></trkpt><trkpt lat="43.7082983" lon="12.6094133"><ele>430.0</ele><time>2026-04-18T12:53:04.599Z</time></trkpt><trkpt lat="43.70845" lon="12.6094033"><ele>430.0</ele><time>2026-04-18T12:53:05.599Z</time></trkpt><trkpt lat="43.7085967" lon="12.6093717"><ele>430.0</ele><time>2026-04-18T12:53:06.599Z</time></trkpt><trkpt lat="43.7087483" lon="12.60929"><ele>426.6666666666667</ele><time>2026-04-18T12:53:07.599Z</time></trkpt><trkpt lat="43.7088817" lon="12.6091983"><ele>423.33333333333337</ele><time>2026-04-18T12:53:08.599Z</time></trkpt><trkpt lat="43.709105" lon="12.6090883"><ele>420.0</ele><time>2026-04-18T12:53:10.599Z</time></trkpt><trkpt lat="43.70919" lon="12.609135"><ele>420.0</ele><time>2026-04-18T12:53:11.599Z</time></trkpt><trkpt lat="43.70925" lon="12.6092567"><ele>420.0</ele><time>2026-04-18T12:53:12.599Z</time></trkpt><trkpt lat="43.7092717" lon="12.609415"><ele>420.0</ele><time>2026-04-18T12:53:13.599Z</time></trkpt><trkpt lat="43.7092933" lon="12.6096017"><ele>420.0</ele><time>2026-04-18T12:53:14.599Z</time></trkpt><trkpt lat="43.70933" lon="12.6097867"><ele>419.0</ele><time>2026-04-18T12:53:15.599Z</time></trkpt><trkpt lat="43.7093967" lon="12.6099617"><ele>418.0</ele><time>2026-04-18T12:53:16.599Z</time></trkpt><trkpt lat="43.7094917" lon="12.6101167"><ele>417.0</ele><time>2026-04-18T12:53:17.599Z</time></trkpt><trkpt lat="43.7097583" lon="12.61041"><ele>415.0</ele><time>2026-04-18T12:53:19.599Z</time></trkpt><trkpt lat="43.7098867" lon="12.6105717"><ele>413.0</ele><time>2026-04-18T12:53:20.599Z</time></trkpt><trkpt lat="43.7099967" lon="12.6107717"><ele>411.0</ele><time>2026-04-18T12:53:21.599Z</time></trkpt><trkpt lat="43.7100867" lon="12.6109917"><ele>410.66666666666663</ele><time>2026-04-18T12:53:22.599Z</time></trkpt><trkpt lat="43.7101733" lon="12.6112233"><ele>410.3333333333333</ele><time>2026-04-18T12:53:23.599Z</time></trkpt><trkpt lat="43.71027" lon="12.6114267"><ele>410.0</ele><time>2026-04-18T12:53:24.599Z</time></trkpt><trkpt lat="43.710395" lon="12.6115883"><ele>410.0</ele><time>2026-04-18T12:53:25.599Z</time></trkpt><trkpt lat="43.710535" lon="12.6117183"><ele>410.0</ele><time>2026-04-18T12:53:26.599Z</time></trkpt><trkpt lat="43.7108" lon="12.6119783"><ele>412.0</ele><time>2026-04-18T12:53:28.599Z</time></trkpt><trkpt lat="43.7108867" lon="12.6121517"><ele>414.0</ele><time>2026-04-18T12:53:29.599Z</time></trkpt><trkpt lat="43.7109317" lon="12.6123617"><ele>416.0</ele><time>2026-04-18T12:53:30.599Z</time></trkpt><trkpt lat="43.71095" lon="12.612575"><ele>416.0</ele><time>2026-04-18T12:53:31.599Z</time></trkpt><trkpt lat="43.7109417" lon="12.61279"><ele>416.0</ele><time>2026-04-18T12:53:32.599Z</time></trkpt><trkpt lat="43.710915" lon="12.613"><ele>416.0</ele><time>2026-04-18T12:53:33.599Z</time></trkpt><trkpt lat="43.7108367" lon="12.6131783"><ele>417.66666666666663</ele><time>2026-04-18T12:53:34.599Z</time></trkpt><trkpt lat="43.7107233" lon="12.6133167"><ele>419.33333333333337</ele><time>2026-04-18T12:53:35.599Z</time></trkpt><trkpt lat="43.7104817" lon="12.6135183"><ele>421.0</ele><time>2026-04-18T12:53:37.599Z</time></trkpt><trkpt lat="43.7104083" lon="12.6136333"><ele>420.4</ele><time>2026-04-18T12:53:38.599Z</time></trkpt><trkpt lat="43.71037" lon="12.613765"><ele>419.8</ele><time>2026-04-18T12:53:39.599Z</time></trkpt><trkpt lat="43.71036" lon="12.6139033"><ele>419.2</ele><time>2026-04-18T12:53:40.599Z</time></trkpt><trkpt lat="43.7103767" lon="12.61402"><ele>418.59999999999997</ele><time>2026-04-18T12:53:41.599Z</time></trkpt><trkpt lat="43.7104183" lon="12.614115"><ele>418.0</ele><time>2026-04-18T12:53:42.598Z</time></trkpt><trkpt lat="43.7105033" lon="12.6141767"><ele>418.0</ele><time>2026-04-18T12:53:43.599Z</time></trkpt><trkpt lat="43.7106083" lon="12.61419"><ele>418.0</ele><time>2026-04-18T12:53:44.599Z</time></trkpt><trkpt lat="43.7108967" lon="12.6141167"><ele>418.0</ele><time>2026-04-18T12:53:46.599Z</time></trkpt><trkpt lat="43.7110767" lon="12.614085"><ele>418.6666666666667</ele><time>2026-04-18T12:53:47.599Z</time></trkpt><trkpt lat="43.7112467" lon="12.6140967"><ele>419.33333333333337</ele><time>2026-04-18T12:53:48.599Z</time></trkpt><trkpt lat="43.71141" lon="12.61417"><ele>420.0</ele><time>2026-04-18T12:53:49.599Z</time></trkpt><trkpt lat="43.7115267" lon="12.6143033"><ele>420.0</ele><time>2026-04-18T12:53:50.599Z</time></trkpt><trkpt lat="43.7116033" lon="12.6144867"><ele>420.0</ele><time>2026-04-18T12:53:51.599Z</time></trkpt><trkpt lat="43.71166" lon="12.61468"><ele>420.0</ele><time>2026-04-18T12:53:52.599Z</time></trkpt><trkpt lat="43.7117233" lon="12.6148567"><ele>420.0</ele><time>2026-04-18T12:53:53.599Z</time></trkpt><trkpt lat="43.7119217" lon="12.6151233"><ele>420.5</ele><time>2026-04-18T12:53:55.599Z</time></trkpt><trkpt lat="43.712035" lon="12.6152117"><ele>421.0</ele><time>2026-04-18T12:53:56.599Z</time></trkpt><trkpt lat="43.712145" lon="12.6152967"><ele>421.5</ele><time>2026-04-18T12:53:57.599Z</time></trkpt><trkpt lat="43.7122533" lon="12.6153817"><ele>422.0</ele><time>2026-04-18T12:53:58.599Z</time></trkpt><trkpt lat="43.7123633" lon="12.61547"><ele>422.0</ele><time>2026-04-18T12:53:59.599Z</time></trkpt><trkpt lat="43.7124767" lon="12.6155517"><ele>422.0</ele><time>2026-04-18T12:54:00.599Z</time></trkpt><trkpt lat="43.71258" lon="12.6156483"><ele>422.0</ele><time>2026-04-18T12:54:01.599Z</time></trkpt><trkpt lat="43.712655" lon="12.61578"><ele>422.0</ele><time>2026-04-18T12:54:02.599Z</time></trkpt><trkpt lat="43.7127383" lon="12.6161617"><ele>424.0</ele><time>2026-04-18T12:54:04.599Z</time></trkpt><trkpt lat="43.7127517" lon="12.6163817"><ele>426.0</ele><time>2026-04-18T12:54:05.598Z</time></trkpt><trkpt lat="43.7127717" lon="12.6166217"><ele>428.0</ele><time>2026-04-18T12:54:06.599Z</time></trkpt><trkpt lat="43.7128067" lon="12.616865"><ele>429.0</ele><time>2026-04-18T12:54:07.599Z</time></trkpt><trkpt lat="43.712865" lon="12.61711"><ele>430.0</ele><time>2026-04-18T12:54:08.599Z</time></trkpt><trkpt lat="43.71292" lon="12.6173367"><ele>431.0</ele><time>2026-04-18T12:54:09.598Z</time></trkpt><trkpt lat="43.7129667" lon="12.617555"><ele>431.0</ele><time>2026-04-18T12:54:10.599Z</time></trkpt><trkpt lat="43.7129933" lon="12.6177717"><ele>431.0</ele><time>2026-04-18T12:54:11.599Z</time></trkpt><trkpt lat="43.7129383" lon="12.6182317"><ele>432.66666666666663</ele><time>2026-04-18T12:54:13.599Z</time></trkpt><trkpt lat="43.7128833" lon="12.6184583"><ele>434.33333333333337</ele><time>2026-04-18T12:54:14.599Z</time></trkpt><trkpt lat="43.7128033" lon="12.6186667"><ele>436.0</ele><time>2026-04-18T12:54:15.599Z</time></trkpt><trkpt lat="43.712745" lon="12.6188467"><ele>436.5</ele><time>2026-04-18T12:54:16.599Z</time></trkpt><trkpt lat="43.7127117" lon="12.619015"><ele>437.0</ele><time>2026-04-18T12:54:17.599Z</time></trkpt><trkpt lat="43.7127083" lon="12.61919"><ele>437.5</ele><time>2026-04-18T12:54:18.599Z</time></trkpt><trkpt lat="43.7127583" lon="12.61937"><ele>438.0</ele><time>2026-04-18T12:54:19.599Z</time></trkpt><trkpt lat="43.7128417" lon="12.6195533"><ele>434.0</ele><time>2026-04-18T12:54:20.599Z</time></trkpt><trkpt lat="43.7130667" lon="12.6198583"><ele>430.0</ele><time>2026-04-18T12:54:22.599Z</time></trkpt><trkpt lat="43.7131783" lon="12.6199817"><ele>430.0</ele><time>2026-04-18T12:54:23.599Z</time></trkpt><trkpt lat="43.7132817" lon="12.620115"><ele>430.0</ele><time>2026-04-18T12:54:24.599Z</time></trkpt><trkpt lat="43.7133717" lon="12.6202883"><ele>430.0</ele><time>2026-04-18T12:54:25.599Z</time></trkpt><trkpt lat="43.713425" lon="12.6204783"><ele>430.0</ele><time>2026-04-18T12:54:26.599Z</time></trkpt><trkpt lat="43.7134567" lon="12.62066"><ele>430.0</ele><time>2026-04-18T12:54:27.598Z</time></trkpt><trkpt lat="43.7134867" lon="12.6207983"><ele>430.0</ele><time>2026-04-18T12:54:28.599Z</time></trkpt><trkpt lat="43.713565" lon="12.620925"><ele>430.0</ele><time>2026-04-18T12:54:29.599Z</time></trkpt><trkpt lat="43.7138" lon="12.62106"><ele>430.0</ele><time>2026-04-18T12:54:31.599Z</time></trkpt><trkpt lat="43.7139083" lon="12.621115"><ele>430.0</ele><time>2026-04-18T12:54:32.599Z</time></trkpt><trkpt lat="43.713985" lon="12.6211783"><ele>430.0</ele><time>2026-04-18T12:54:33.599Z</time></trkpt><trkpt lat="43.7140467" lon="12.6212783"><ele>430.0</ele><time>2026-04-18T12:54:34.599Z</time></trkpt><trkpt lat="43.7140683" lon="12.6214267"><ele>430.0</ele><time>2026-04-18T12:54:35.599Z</time></trkpt><trkpt lat="43.7140633" lon="12.6215783"><ele>429.5</ele><time>2026-04-18T12:54:36.599Z</time></trkpt><trkpt lat="43.7140233" lon="12.6217467"><ele>429.0</ele><time>2026-04-18T12:54:37.599Z</time></trkpt><trkpt lat="43.7139567" lon="12.62192"><ele>428.5</ele><time>2026-04-18T12:54:38.599Z</time></trkpt><trkpt lat="43.7138433" lon="12.6220967"><ele>428.0</ele><time>2026-04-18T12:54:39.599Z</time></trkpt><trkpt lat="43.7137133" lon="12.6222767"><ele>429.66666666666663</ele><time>2026-04-18T12:54:40.599Z</time></trkpt><trkpt lat="43.7136017" lon="12.6224717"><ele>431.33333333333337</ele><time>2026-04-18T12:54:41.599Z</time></trkpt><trkpt lat="43.7135017" lon="12.6226683"><ele>433.0</ele><time>2026-04-18T12:54:42.599Z</time></trkpt><trkpt lat="43.71342" lon="12.6228783"><ele>429.75</ele><time>2026-04-18T12:54:43.599Z</time></trkpt><trkpt lat="43.7133733" lon="12.6230967"><ele>426.5</ele><time>2026-04-18T12:54:44.599Z</time></trkpt><trkpt lat="43.7133383" lon="12.6232933"><ele>423.25</ele><time>2026-04-18T12:54:45.599Z</time></trkpt><trkpt lat="43.71332" lon="12.62347"><ele>420.0</ele><time>2026-04-18T12:54:46.599Z</time></trkpt><trkpt lat="43.713335" lon="12.62364"><ele>419.0</ele><time>2026-04-18T12:54:47.599Z</time></trkpt><trkpt lat="43.7134633" lon="12.62394"><ele>418.0</ele><time>2026-04-18T12:54:49.599Z</time></trkpt><trkpt lat="43.71357" lon="12.6240817"><ele>417.0</ele><time>2026-04-18T12:54:50.599Z</time></trkpt><trkpt lat="43.7136783" lon="12.6242367"><ele>417.0</ele><time>2026-04-18T12:54:51.599Z</time></trkpt><trkpt lat="43.7137883" lon="12.624395"><ele>417.0</ele><time>2026-04-18T12:54:52.599Z</time></trkpt><trkpt lat="43.7139083" lon="12.624555"><ele>417.0</ele><time>2026-04-18T12:54:53.599Z</time></trkpt><trkpt lat="43.7140367" lon="12.62471"><ele>417.0</ele><time>2026-04-18T12:54:54.599Z</time></trkpt><trkpt lat="43.7141717" lon="12.6248483"><ele>417.0</ele><time>2026-04-18T12:54:55.599Z</time></trkpt><trkpt lat="43.7143267" lon="12.6249933"><ele>417.0</ele><time>2026-04-18T12:54:56.599Z</time></trkpt><trkpt lat="43.714675" lon="12.625275"><ele>416.33333333333337</ele><time>2026-04-18T12:54:58.599Z</time></trkpt><trkpt lat="43.71483" lon="12.625405"><ele>415.6666666666667</ele><time>2026-04-18T12:54:59.599Z</time></trkpt><trkpt lat="43.7149783" lon="12.6255217"><ele>415.0</ele><time>2026-04-18T12:55:00.599Z</time></trkpt><trkpt lat="43.7151117" lon="12.6256017"><ele>415.0</ele><time>2026-04-18T12:55:01.599Z</time></trkpt><trkpt lat="43.7152333" lon="12.62563"><ele>415.0</ele><time>2026-04-18T12:55:02.599Z</time></trkpt><trkpt lat="43.7153467" lon="12.6255967"><ele>415.0</ele><time>2026-04-18T12:55:03.599Z</time></trkpt><trkpt lat="43.7154517" lon="12.6255267"><ele>415.0</ele><time>2026-04-18T12:55:04.599Z</time></trkpt><trkpt lat="43.715575" lon="12.625445"><ele>413.0</ele><time>2026-04-18T12:55:05.599Z</time></trkpt><trkpt lat="43.7158767" lon="12.6254117"><ele>411.0</ele><time>2026-04-18T12:55:07.599Z</time></trkpt><trkpt lat="43.7160383" lon="12.62545"><ele>413.25</ele><time>2026-04-18T12:55:08.599Z</time></trkpt><trkpt lat="43.7161867" lon="12.6254933"><ele>415.5</ele><time>2026-04-18T12:55:09.599Z</time></trkpt><trkpt lat="43.7163233" lon="12.6255717"><ele>417.75</ele><time>2026-04-18T12:55:10.599Z</time></trkpt><trkpt lat="43.7164417" lon="12.62568"><ele>420.0</ele><time>2026-04-18T12:55:11.599Z</time></trkpt><trkpt lat="43.7165333" lon="12.625825"><ele>420.0</ele><time>2026-04-18T12:55:12.599Z</time></trkpt><trkpt lat="43.7166" lon="12.626005"><ele>420.0</ele><time>2026-04-18T12:55:13.599Z</time></trkpt><trkpt lat="43.7166667" lon="12.6261867"><ele>420.0</ele><time>2026-04-18T12:55:14.599Z</time></trkpt><trkpt lat="43.716825" lon="12.6265467"><ele>421.66666666666663</ele><time>2026-04-18T12:55:16.599Z</time></trkpt><trkpt lat="43.7169333" lon="12.6266983"><ele>423.3333333333333</ele><time>2026-04-18T12:55:17.599Z</time></trkpt><trkpt lat="43.7170667" lon="12.6268117"><ele>425.0</ele><time>2026-04-18T12:55:18.599Z</time></trkpt><trkpt lat="43.7173467" lon="12.627005"><ele>425.0</ele><time>2026-04-18T12:55:20.599Z</time></trkpt><trkpt lat="43.7174533" lon="12.6271417"><ele>425.0</ele><time>2026-04-18T12:55:21.599Z</time></trkpt><trkpt lat="43.717555" lon="12.627305"><ele>425.0</ele><time>2026-04-18T12:55:22.599Z</time></trkpt><trkpt lat="43.71765" lon="12.6274783"><ele>427.0</ele><time>2026-04-18T12:55:23.599Z</time></trkpt><trkpt lat="43.7178267" lon="12.6277683"><ele>429.0</ele><time>2026-04-18T12:55:25.599Z</time></trkpt><trkpt lat="43.717915" lon="12.627895"><ele>431.0</ele><time>2026-04-18T12:55:26.599Z</time></trkpt><trkpt lat="43.7180083" lon="12.6280217"><ele>431.0</ele><time>2026-04-18T12:55:27.599Z</time></trkpt><trkpt lat="43.7181117" lon="12.6281267"><ele>431.0</ele><time>2026-04-18T12:55:28.599Z</time></trkpt><trkpt lat="43.718225" lon="12.62822"><ele>431.0</ele><time>2026-04-18T12:55:29.599Z</time></trkpt><trkpt lat="43.7183483" lon="12.62832"><ele>431.0</ele><time>2026-04-18T12:55:30.599Z</time></trkpt><trkpt lat="43.7184783" lon="12.6284067"><ele>432.66666666666663</ele><time>2026-04-18T12:55:31.599Z</time></trkpt><trkpt lat="43.7186017" lon="12.6284683"><ele>434.33333333333337</ele><time>2026-04-18T12:55:32.599Z</time></trkpt><trkpt lat="43.71886" lon="12.6285"><ele>436.0</ele><time>2026-04-18T12:55:34.599Z</time></trkpt><trkpt lat="43.7190017" lon="12.62845"><ele>436.0</ele><time>2026-04-18T12:55:35.599Z</time></trkpt><trkpt lat="43.7191567" lon="12.6283833"><ele>436.0</ele><time>2026-04-18T12:55:36.599Z</time></trkpt><trkpt lat="43.719295" lon="12.6283283"><ele>436.0</ele><time>2026-04-18T12:55:37.599Z</time></trkpt><trkpt lat="43.7194483" lon="12.6283283"><ele>434.33333333333337</ele><time>2026-04-18T12:55:38.599Z</time></trkpt><trkpt lat="43.7196017" lon="12.6283683"><ele>432.66666666666663</ele><time>2026-04-18T12:55:39.599Z</time></trkpt><trkpt lat="43.7197633" lon="12.62844"><ele>431.0</ele><time>2026-04-18T12:55:40.599Z</time></trkpt><trkpt lat="43.7199217" lon="12.6285167"><ele>425.0</ele><time>2026-04-18T12:55:41.599Z</time></trkpt><trkpt lat="43.720225" lon="12.6286767"><ele>419.0</ele><time>2026-04-18T12:55:43.599Z</time></trkpt><trkpt lat="43.72036" lon="12.6287767"><ele>419.0</ele><time>2026-04-18T12:55:44.599Z</time></trkpt><trkpt lat="43.7204767" lon="12.6288833"><ele>419.0</ele><time>2026-04-18T12:55:45.599Z</time></trkpt><trkpt lat="43.7205933" lon="12.6289783"><ele>419.0</ele><time>2026-04-18T12:55:46.599Z</time></trkpt><trkpt lat="43.7206967" lon="12.6290683"><ele>419.0</ele><time>2026-04-18T12:55:47.599Z</time></trkpt><trkpt lat="43.72081" lon="12.629145"><ele>419.0</ele><time>2026-04-18T12:55:48.599Z</time></trkpt><trkpt lat="43.72091" lon="12.6292267"><ele>419.0</ele><time>2026-04-18T12:55:49.599Z</time></trkpt><trkpt lat="43.721" lon="12.629315"><ele>419.0</ele><time>2026-04-18T12:55:50.599Z</time></trkpt><trkpt lat="43.72108" lon="12.62955"><ele>419.0</ele><time>2026-04-18T12:55:52.599Z</time></trkpt><trkpt lat="43.7211283" lon="12.629655"><ele>421.4</ele><time>2026-04-18T12:55:53.599Z</time></trkpt><trkpt lat="43.7211633" lon="12.62976"><ele>423.79999999999995</ele><time>2026-04-18T12:55:54.599Z</time></trkpt><trkpt lat="43.7211967" lon="12.62988"><ele>426.20000000000005</ele><time>2026-04-18T12:55:55.599Z</time></trkpt><trkpt lat="43.72123" lon="12.6299983"><ele>428.6</ele><time>2026-04-18T12:55:56.599Z</time></trkpt><trkpt lat="43.7212683" lon="12.63013"><ele>431.0</ele><time>2026-04-18T12:55:57.599Z</time></trkpt><trkpt lat="43.7213017" lon="12.6302667"><ele>430.25</ele><time>2026-04-18T12:55:58.599Z</time></trkpt><trkpt lat="43.7213317" lon="12.6304133"><ele>429.5</ele><time>2026-04-18T12:55:59.599Z</time></trkpt><trkpt lat="43.7214083" lon="12.630705"><ele>428.75</ele><time>2026-04-18T12:56:01.599Z</time></trkpt><trkpt lat="43.7214333" lon="12.630845"><ele>428.0</ele><time>2026-04-18T12:56:02.599Z</time></trkpt><trkpt lat="43.721475" lon="12.630985"><ele>428.0</ele><time>2026-04-18T12:56:03.599Z</time></trkpt><trkpt lat="43.7215283" lon="12.6311267"><ele>428.0</ele><time>2026-04-18T12:56:04.599Z</time></trkpt><trkpt lat="43.7216017" lon="12.631265"><ele>428.0</ele><time>2026-04-18T12:56:05.599Z</time></trkpt><trkpt lat="43.7216817" lon="12.6314283"><ele>428.0</ele><time>2026-04-18T12:56:06.599Z</time></trkpt><trkpt lat="43.7217717" lon="12.6316067"><ele>422.66666666666663</ele><time>2026-04-18T12:56:07.599Z</time></trkpt><trkpt lat="43.7218533" lon="12.6317867"><ele>417.33333333333337</ele><time>2026-04-18T12:56:08.599Z</time></trkpt><trkpt lat="43.72205" lon="12.632075"><ele>412.0</ele><time>2026-04-18T12:56:10.599Z</time></trkpt><trkpt lat="43.7221683" lon="12.632195"><ele>410.0</ele><time>2026-04-18T12:56:11.599Z</time></trkpt><trkpt lat="43.7223" lon="12.6322817"><ele>408.0</ele><time>2026-04-18T12:56:12.599Z</time></trkpt><trkpt lat="43.7224433" lon="12.6323317"><ele>406.0</ele><time>2026-04-18T12:56:13.599Z</time></trkpt><trkpt lat="43.72259" lon="12.6323567"><ele>404.0</ele><time>2026-04-18T12:56:14.599Z</time></trkpt><trkpt lat="43.7227317" lon="12.63237"><ele>409.5</ele><time>2026-04-18T12:56:15.599Z</time></trkpt><trkpt lat="43.7228667" lon="12.632375"><ele>415.0</ele><time>2026-04-18T12:56:16.599Z</time></trkpt><trkpt lat="43.722985" lon="12.6324067"><ele>420.5</ele><time>2026-04-18T12:56:17.599Z</time></trkpt><trkpt lat="43.72309" lon="12.6324833"><ele>426.0</ele><time>2026-04-18T12:56:18.599Z</time></trkpt><trkpt lat="43.723165" lon="12.632615"><ele>426.0</ele><time>2026-04-18T12:56:19.599Z</time></trkpt><trkpt lat="43.72321" lon="12.6327717"><ele>426.0</ele><time>2026-04-18T12:56:20.599Z</time></trkpt><trkpt lat="43.7232383" lon="12.63296"><ele>426.0</ele><time>2026-04-18T12:56:21.599Z</time></trkpt><trkpt lat="43.7232617" lon="12.6331517"><ele>426.0</ele><time>2026-04-18T12:56:22.599Z</time></trkpt><trkpt lat="43.7232967" lon="12.6333417"><ele>422.25</ele><time>2026-04-18T12:56:23.599Z</time></trkpt><trkpt lat="43.72334" lon="12.6334967"><ele>418.5</ele><time>2026-04-18T12:56:24.599Z</time></trkpt><trkpt lat="43.7234" lon="12.6336433"><ele>414.75</ele><time>2026-04-18T12:56:25.599Z</time></trkpt><trkpt lat="43.7234667" lon="12.6337817"><ele>411.0</ele><time>2026-04-18T12:56:26.599Z</time></trkpt><trkpt lat="43.7235417" lon="12.6339183"><ele>410.8</ele><time>2026-04-18T12:56:27.599Z</time></trkpt><trkpt lat="43.7235933" lon="12.63403"><ele>410.6</ele><time>2026-04-18T12:56:28.599Z</time></trkpt><trkpt lat="43.7236133" lon="12.6341617"><ele>410.4</ele><time>2026-04-18T12:56:29.599Z</time></trkpt><trkpt lat="43.723605" lon="12.63432"><ele>410.2</ele><time>2026-04-18T12:56:30.599Z</time></trkpt><trkpt lat="43.723575" lon="12.6344767"><ele>410.0</ele><time>2026-04-18T12:56:31.599Z</time></trkpt><trkpt lat="43.7235383" lon="12.634635"><ele>410.0</ele><time>2026-04-18T12:56:32.599Z</time></trkpt><trkpt lat="43.7235033" lon="12.6348017"><ele>410.0</ele><time>2026-04-18T12:56:33.599Z</time></trkpt><trkpt lat="43.72346" lon="12.6349517"><ele>410.0</ele><time>2026-04-18T12:56:34.599Z</time></trkpt><trkpt lat="43.7233917" lon="12.6350517"><ele>410.0</ele><time>2026-04-18T12:56:35.599Z</time></trkpt><trkpt lat="43.7232967" lon="12.6351033"><ele>410.0</ele><time>2026-04-18T12:56:36.599Z</time></trkpt><trkpt lat="43.7231817" lon="12.6351117"><ele>410.0</ele><time>2026-04-18T12:56:37.599Z</time></trkpt><trkpt lat="43.7230533" lon="12.6350983"><ele>410.0</ele><time>2026-04-18T12:56:38.599Z</time></trkpt><trkpt lat="43.7229183" lon="12.6351183"><ele>410.0</ele><time>2026-04-18T12:56:39.599Z</time></trkpt><trkpt lat="43.7227833" lon="12.63516"><ele>410.0</ele><time>2026-04-18T12:56:40.599Z</time></trkpt><trkpt lat="43.7226467" lon="12.635245"><ele>419.3333333333333</ele><time>2026-04-18T12:56:41.599Z</time></trkpt><trkpt lat="43.7224983" lon="12.6353417"><ele>428.66666666666663</ele><time>2026-04-18T12:56:42.599Z</time></trkpt><trkpt lat="43.7223583" lon="12.6354233"><ele>438.0</ele><time>2026-04-18T12:56:43.599Z</time></trkpt><trkpt lat="43.7222183" lon="12.6354867"><ele>438.0</ele><time>2026-04-18T12:56:44.599Z</time></trkpt><trkpt lat="43.722065" lon="12.6355133"><ele>438.0</ele><time>2026-04-18T12:56:45.599Z</time></trkpt><trkpt lat="43.7219167" lon="12.635525"><ele>438.0</ele><time>2026-04-18T12:56:46.599Z</time></trkpt><trkpt lat="43.7217717" lon="12.6355567"><ele>433.33333333333337</ele><time>2026-04-18T12:56:47.599Z</time></trkpt><trkpt lat="43.721625" lon="12.63562"><ele>428.6666666666667</ele><time>2026-04-18T12:56:48.599Z</time></trkpt><trkpt lat="43.7214883" lon="12.6357333"><ele>424.0</ele><time>2026-04-18T12:56:49.599Z</time></trkpt><trkpt lat="43.721345" lon="12.63583"><ele>424.0</ele><time>2026-04-18T12:56:50.598Z</time></trkpt><trkpt lat="43.7212167" lon="12.6359233"><ele>424.0</ele><time>2026-04-18T12:56:51.599Z</time></trkpt><trkpt lat="43.7210767" lon="12.6360083"><ele>424.0</ele><time>2026-04-18T12:56:52.599Z</time></trkpt><trkpt lat="43.7209583" lon="12.63609"><ele>424.0</ele><time>2026-04-18T12:56:53.599Z</time></trkpt><trkpt lat="43.7208483" lon="12.636155"><ele>422.0</ele><time>2026-04-18T12:56:54.599Z</time></trkpt><trkpt lat="43.7207483" lon="12.636235"><ele>420.0</ele><time>2026-04-18T12:56:55.599Z</time></trkpt><trkpt lat="43.7206717" lon="12.636325"><ele>418.0</ele><time>2026-04-18T12:56:56.599Z</time></trkpt><trkpt lat="43.7206217" lon="12.6364283"><ele>416.0</ele><time>2026-04-18T12:56:57.599Z</time></trkpt><trkpt lat="43.7206" lon="12.6365433"><ele>414.0</ele><time>2026-04-18T12:56:58.599Z</time></trkpt><trkpt lat="43.72061" lon="12.6366767"><ele>414.0</ele><time>2026-04-18T12:56:59.599Z</time></trkpt><trkpt lat="43.7206667" lon="12.6368117"><ele>414.0</ele><time>2026-04-18T12:57:00.599Z</time></trkpt><trkpt lat="43.7207617" lon="12.6369817"><ele>414.0</ele><time>2026-04-18T12:57:01.599Z</time></trkpt><trkpt lat="43.720885" lon="12.6371733"><ele>411.33333333333337</ele><time>2026-04-18T12:57:02.599Z</time></trkpt><trkpt lat="43.7210017" lon="12.63736"><ele>408.6666666666667</ele><time>2026-04-18T12:57:03.598Z</time></trkpt><trkpt lat="43.7211117" lon="12.63753"><ele>406.0</ele><time>2026-04-18T12:57:04.599Z</time></trkpt><trkpt lat="43.7212017" lon="12.6377"><ele>408.25</ele><time>2026-04-18T12:57:05.599Z</time></trkpt><trkpt lat="43.721305" lon="12.6378517"><ele>410.5</ele><time>2026-04-18T12:57:06.599Z</time></trkpt><trkpt lat="43.7214133" lon="12.6379833"><ele>412.75</ele><time>2026-04-18T12:57:07.599Z</time></trkpt><trkpt lat="43.7215383" lon="12.6380967"><ele>415.0</ele><time>2026-04-18T12:57:08.599Z</time></trkpt><trkpt lat="43.7216683" lon="12.6382133"><ele>415.0</ele><time>2026-04-18T12:57:09.599Z</time></trkpt><trkpt lat="43.7217933" lon="12.6383167"><ele>415.0</ele><time>2026-04-18T12:57:10.599Z</time></trkpt><trkpt lat="43.7219167" lon="12.6384167"><ele>415.0</ele><time>2026-04-18T12:57:11.598Z</time></trkpt><trkpt lat="43.722035" lon="12.6385067"><ele>415.0</ele><time>2026-04-18T12:57:12.599Z</time></trkpt><trkpt lat="43.72215" lon="12.6385833"><ele>412.0</ele><time>2026-04-18T12:57:13.599Z</time></trkpt><trkpt lat="43.7222617" lon="12.6386633"><ele>409.0</ele><time>2026-04-18T12:57:14.599Z</time></trkpt><trkpt lat="43.7223833" lon="12.63876"><ele>406.0</ele><time>2026-04-18T12:57:15.599Z</time></trkpt><trkpt lat="43.72251" lon="12.6388717"><ele>403.0</ele><time>2026-04-18T12:57:16.599Z</time></trkpt><trkpt lat="43.722645" lon="12.638985"><ele>405.0</ele><time>2026-04-18T12:57:17.599Z</time></trkpt><trkpt lat="43.7227633" lon="12.63909"><ele>407.0</ele><time>2026-04-18T12:57:18.599Z</time></trkpt><trkpt lat="43.72287" lon="12.6391733"><ele>409.0</ele><time>2026-04-18T12:57:19.599Z</time></trkpt><trkpt lat="43.72298" lon="12.6392483"><ele>411.0</ele><time>2026-04-18T12:57:20.599Z</time></trkpt><trkpt lat="43.72309" lon="12.63929"><ele>411.0</ele><time>2026-04-18T12:57:21.599Z</time></trkpt><trkpt lat="43.72322" lon="12.6392817"><ele>411.0</ele><time>2026-04-18T12:57:22.599Z</time></trkpt><trkpt lat="43.7233633" lon="12.639245"><ele>411.0</ele><time>2026-04-18T12:57:23.599Z</time></trkpt><trkpt lat="43.723505" lon="12.6392183"><ele>411.0</ele><time>2026-04-18T12:57:24.599Z</time></trkpt><trkpt lat="43.7236567" lon="12.6391983"><ele>411.25</ele><time>2026-04-18T12:57:25.599Z</time></trkpt><trkpt lat="43.7238067" lon="12.6392"><ele>411.5</ele><time>2026-04-18T12:57:26.599Z</time></trkpt><trkpt lat="43.723955" lon="12.63923"><ele>411.75</ele><time>2026-04-18T12:57:27.599Z</time></trkpt><trkpt lat="43.7241017" lon="12.6392583"><ele>412.0</ele><time>2026-04-18T12:57:28.599Z</time></trkpt><trkpt lat="43.7242617" lon="12.6392783"><ele>413.0</ele><time>2026-04-18T12:57:29.599Z</time></trkpt><trkpt lat="43.7244133" lon="12.6393"><ele>414.0</ele><time>2026-04-18T12:57:30.599Z</time></trkpt><trkpt lat="43.7245617" lon="12.6393317"><ele>415.0</ele><time>2026-04-18T12:57:31.599Z</time></trkpt><trkpt lat="43.7247017" lon="12.639365"><ele>416.0</ele><time>2026-04-18T12:57:32.599Z</time></trkpt><trkpt lat="43.724835" lon="12.63941"><ele>416.0</ele><time>2026-04-18T12:57:33.599Z</time></trkpt><trkpt lat="43.7249717" lon="12.63945"><ele>416.0</ele><time>2026-04-18T12:57:34.599Z</time></trkpt><trkpt lat="43.7250983" lon="12.6395067"><ele>416.0</ele><time>2026-04-18T12:57:35.599Z</time></trkpt><trkpt lat="43.7252167" lon="12.6395967"><ele>416.0</ele><time>2026-04-18T12:57:36.599Z</time></trkpt><trkpt lat="43.7253367" lon="12.6396933"><ele>409.5</ele><time>2026-04-18T12:57:37.599Z</time></trkpt><trkpt lat="43.7254633" lon="12.6397683"><ele>403.0</ele><time>2026-04-18T12:57:38.599Z</time></trkpt><trkpt lat="43.725595" lon="12.6398217"><ele>396.5</ele><time>2026-04-18T12:57:39.599Z</time></trkpt><trkpt lat="43.72573" lon="12.6398333"><ele>390.0</ele><time>2026-04-18T12:57:40.599Z</time></trkpt><trkpt lat="43.72586" lon="12.6398083"><ele>387.75</ele><time>2026-04-18T12:57:41.599Z</time></trkpt><trkpt lat="43.7260883" lon="12.6396967"><ele>385.5</ele><time>2026-04-18T12:57:43.599Z</time></trkpt><trkpt lat="43.7261883" lon="12.639665"><ele>383.25</ele><time>2026-04-18T12:57:44.599Z</time></trkpt><trkpt lat="43.7262633" lon="12.639655"><ele>381.0</ele><time>2026-04-18T12:57:45.599Z</time></trkpt><trkpt lat="43.72634" lon="12.6396767"><ele>381.0</ele><time>2026-04-18T12:57:46.599Z</time></trkpt><trkpt lat="43.7264117" lon="12.6397283"><ele>381.0</ele><time>2026-04-18T12:57:47.599Z</time></trkpt><trkpt lat="43.7264783" lon="12.6398117"><ele>381.0</ele><time>2026-04-18T12:57:48.599Z</time></trkpt><trkpt lat="43.7265233" lon="12.63993"><ele>381.0</ele><time>2026-04-18T12:57:49.599Z</time></trkpt><trkpt lat="43.7265217" lon="12.64007"><ele>381.0</ele><time>2026-04-18T12:57:50.599Z</time></trkpt><trkpt lat="43.726475" lon="12.6402067"><ele>379.75</ele><time>2026-04-18T12:57:51.599Z</time></trkpt><trkpt lat="43.72639" lon="12.6403283"><ele>378.5</ele><time>2026-04-18T12:57:52.599Z</time></trkpt><trkpt lat="43.7262767" lon="12.6404433"><ele>377.25</ele><time>2026-04-18T12:57:53.599Z</time></trkpt><trkpt lat="43.726175" lon="12.6405433"><ele>376.0</ele><time>2026-04-18T12:57:54.599Z</time></trkpt><trkpt lat="43.7260917" lon="12.6406383"><ele>376.8</ele><time>2026-04-18T12:57:55.599Z</time></trkpt><trkpt lat="43.726025" lon="12.64071"><ele>377.6</ele><time>2026-04-18T12:57:56.599Z</time></trkpt><trkpt lat="43.72597" lon="12.64076"><ele>378.4</ele><time>2026-04-18T12:57:57.599Z</time></trkpt><trkpt lat="43.72588" lon="12.6408333"><ele>379.2</ele><time>2026-04-18T12:57:59.599Z</time></trkpt><trkpt lat="43.7257717" lon="12.6409"><ele>380.0</ele><time>2026-04-18T12:58:01.599Z</time></trkpt><trkpt lat="43.72567" lon="12.6409933"><ele>380.0</ele><time>2026-04-18T12:58:03.599Z</time></trkpt><trkpt lat="43.725625" lon="12.641125"><ele>380.0</ele><time>2026-04-18T12:58:05.599Z</time></trkpt><trkpt lat="43.72564" lon="12.64125"><ele>380.0</ele><time>2026-04-18T12:58:07.598Z</time></trkpt><trkpt lat="43.72572" lon="12.6413667"><ele>380.0</ele><time>2026-04-18T12:58:09.599Z</time></trkpt><trkpt lat="43.7257883" lon="12.6414017"><ele>380.0</ele><time>2026-04-18T12:58:10.599Z</time></trkpt><trkpt lat="43.7258633" lon="12.6414117"><ele>380.5</ele><time>2026-04-18T12:58:11.599Z</time></trkpt><trkpt lat="43.725955" lon="12.6413783"><ele>381.0</ele><time>2026-04-18T12:58:12.599Z</time></trkpt><trkpt lat="43.7260683" lon="12.6413217"><ele>381.5</ele><time>2026-04-18T12:58:13.599Z</time></trkpt><trkpt lat="43.72618" lon="12.6412833"><ele>382.0</ele><time>2026-04-18T12:58:14.599Z</time></trkpt><trkpt lat="43.7263083" lon="12.6412867"><ele>382.0</ele><time>2026-04-18T12:58:15.599Z</time></trkpt><trkpt lat="43.7264517" lon="12.6413117"><ele>382.0</ele><time>2026-04-18T12:58:16.599Z</time></trkpt><trkpt lat="43.72661" lon="12.64135"><ele>382.0</ele><time>2026-04-18T12:58:17.599Z</time></trkpt><trkpt lat="43.7267717" lon="12.6413983"><ele>378.3333333333333</ele><time>2026-04-18T12:58:18.599Z</time></trkpt><trkpt lat="43.7269283" lon="12.641435"><ele>374.6666666666667</ele><time>2026-04-18T12:58:19.599Z</time></trkpt><trkpt lat="43.7270917" lon="12.6414683"><ele>371.0</ele><time>2026-04-18T12:58:20.599Z</time></trkpt><trkpt lat="43.727265" lon="12.6415017"><ele>371.0</ele><time>2026-04-18T12:58:21.599Z</time></trkpt><trkpt lat="43.72744" lon="12.6415383"><ele>371.0</ele><time>2026-04-18T12:58:22.599Z</time></trkpt><trkpt lat="43.7276083" lon="12.6415683"><ele>371.0</ele><time>2026-04-18T12:58:23.599Z</time></trkpt><trkpt lat="43.7277683" lon="12.6415983"><ele>369.5</ele><time>2026-04-18T12:58:24.599Z</time></trkpt><trkpt lat="43.727915" lon="12.6416383"><ele>368.0</ele><time>2026-04-18T12:58:25.599Z</time></trkpt><trkpt lat="43.7280533" lon="12.6416933"><ele>366.5</ele><time>2026-04-18T12:58:26.599Z</time></trkpt><trkpt lat="43.7281817" lon="12.641755"><ele>365.0</ele><time>2026-04-18T12:58:27.599Z</time></trkpt><trkpt lat="43.7282983" lon="12.6418283"><ele>365.0</ele><time>2026-04-18T12:58:28.599Z</time></trkpt><trkpt lat="43.72841" lon="12.6419133"><ele>365.0</ele><time>2026-04-18T12:58:29.599Z</time></trkpt><trkpt lat="43.728515" lon="12.6419867"><ele>365.0</ele><time>2026-04-18T12:58:30.599Z</time></trkpt><trkpt lat="43.7286117" lon="12.6420367"><ele>365.0</ele><time>2026-04-18T12:58:31.599Z</time></trkpt><trkpt lat="43.728705" lon="12.6420383"><ele>365.0</ele><time>2026-04-18T12:58:32.599Z</time></trkpt><trkpt lat="43.7287883" lon="12.6419967"><ele>363.6</ele><time>2026-04-18T12:58:33.599Z</time></trkpt><trkpt lat="43.7288533" lon="12.64193"><ele>362.2</ele><time>2026-04-18T12:58:34.599Z</time></trkpt><trkpt lat="43.7288833" lon="12.6418233"><ele>360.79999999999995</ele><time>2026-04-18T12:58:35.599Z</time></trkpt><trkpt lat="43.7288783" lon="12.6416883"><ele>359.4</ele><time>2026-04-18T12:58:36.599Z</time></trkpt><trkpt lat="43.72884" lon="12.6415533"><ele>358.0</ele><time>2026-04-18T12:58:37.599Z</time></trkpt><trkpt lat="43.728765" lon="12.6414383"><ele>358.0</ele><time>2026-04-18T12:58:38.599Z</time></trkpt><trkpt lat="43.728635" lon="12.6413867"><ele>358.0</ele><time>2026-04-18T12:58:39.599Z</time></trkpt><trkpt lat="43.7284567" lon="12.6413717"><ele>358.0</ele><time>2026-04-18T12:58:40.599Z</time></trkpt><trkpt lat="43.728285" lon="12.6413783"><ele>359.75</ele><time>2026-04-18T12:58:41.599Z</time></trkpt><trkpt lat="43.7281467" lon="12.6413683"><ele>361.5</ele><time>2026-04-18T12:58:42.599Z</time></trkpt><trkpt lat="43.7280317" lon="12.641345"><ele>363.25</ele><time>2026-04-18T12:58:43.599Z</time></trkpt><trkpt lat="43.7279417" lon="12.6412783"><ele>365.0</ele><time>2026-04-18T12:58:44.599Z</time></trkpt><trkpt lat="43.727895" lon="12.6411567"><ele>363.0</ele><time>2026-04-18T12:58:45.599Z</time></trkpt><trkpt lat="43.7279" lon="12.64103"><ele>361.0</ele><time>2026-04-18T12:58:46.599Z</time></trkpt><trkpt lat="43.72795" lon="12.64091"><ele>359.0</ele><time>2026-04-18T12:58:47.599Z</time></trkpt><trkpt lat="43.7280283" lon="12.6408383"><ele>357.0</ele><time>2026-04-18T12:58:48.599Z</time></trkpt><trkpt lat="43.7281317" lon="12.64082"><ele>355.0</ele><time>2026-04-18T12:58:49.599Z</time></trkpt><trkpt lat="43.7282367" lon="12.6408517"><ele>355.0</ele><time>2026-04-18T12:58:50.599Z</time></trkpt><trkpt lat="43.7283667" lon="12.6409133"><ele>355.0</ele><time>2026-04-18T12:58:51.599Z</time></trkpt><trkpt lat="43.728515" lon="12.6410017"><ele>355.0</ele><time>2026-04-18T12:58:52.599Z</time></trkpt><trkpt lat="43.728665" lon="12.6410567"><ele>356.0</ele><time>2026-04-18T12:58:53.599Z</time></trkpt><trkpt lat="43.7288283" lon="12.641095"><ele>357.0</ele><time>2026-04-18T12:58:54.599Z</time></trkpt><trkpt lat="43.7290017" lon="12.6411217"><ele>358.0</ele><time>2026-04-18T12:58:55.599Z</time></trkpt><trkpt lat="43.729175" lon="12.641135"><ele>354.0</ele><time>2026-04-18T12:58:56.599Z</time></trkpt><trkpt lat="43.7293483" lon="12.64113"><ele>350.0</ele><time>2026-04-18T12:58:57.599Z</time></trkpt><trkpt lat="43.72953" lon="12.6411117"><ele>346.0</ele><time>2026-04-18T12:58:58.599Z</time></trkpt><trkpt lat="43.729715" lon="12.6410883"><ele>343.3333333333333</ele><time>2026-04-18T12:58:59.599Z</time></trkpt><trkpt lat="43.7299083" lon="12.6410633"><ele>340.6666666666667</ele><time>2026-04-18T12:59:00.599Z</time></trkpt><trkpt lat="43.7301033" lon="12.6410383"><ele>338.0</ele><time>2026-04-18T12:59:01.599Z</time></trkpt><trkpt lat="43.7303083" lon="12.6410183"><ele>336.0</ele><time>2026-04-18T12:59:02.599Z</time></trkpt><trkpt lat="43.73051" lon="12.6410067"><ele>334.0</ele><time>2026-04-18T12:59:03.599Z</time></trkpt><trkpt lat="43.7307067" lon="12.6409867"><ele>332.0</ele><time>2026-04-18T12:59:04.599Z</time></trkpt><trkpt lat="43.730895" lon="12.6409617"><ele>330.33333333333337</ele><time>2026-04-18T12:59:05.599Z</time></trkpt><trkpt lat="43.7310883" lon="12.640945"><ele>328.6666666666667</ele><time>2026-04-18T12:59:06.599Z</time></trkpt><trkpt lat="43.7312683" lon="12.6409333"><ele>327.0</ele><time>2026-04-18T12:59:07.599Z</time></trkpt><trkpt lat="43.7314333" lon="12.6409267"><ele>327.0</ele><time>2026-04-18T12:59:08.599Z</time></trkpt><trkpt lat="43.7315967" lon="12.6409283"><ele>327.0</ele><time>2026-04-18T12:59:09.599Z</time></trkpt><trkpt lat="43.7317583" lon="12.640945"><ele>327.0</ele><time>2026-04-18T12:59:10.599Z</time></trkpt><trkpt lat="43.7319" lon="12.6410017"><ele>326.0</ele><time>2026-04-18T12:59:11.599Z</time></trkpt><trkpt lat="43.732025" lon="12.641105"><ele>325.0</ele><time>2026-04-18T12:59:12.599Z</time></trkpt><trkpt lat="43.732135" lon="12.6412583"><ele>324.0</ele><time>2026-04-18T12:59:13.599Z</time></trkpt><trkpt lat="43.732245" lon="12.6414367"><ele>324.0</ele><time>2026-04-18T12:59:14.599Z</time></trkpt><trkpt lat="43.7323417" lon="12.6416283"><ele>324.0</ele><time>2026-04-18T12:59:15.599Z</time></trkpt><trkpt lat="43.73244" lon="12.6418333"><ele>324.0</ele><time>2026-04-18T12:59:16.599Z</time></trkpt><trkpt lat="43.7325417" lon="12.6420283"><ele>322.6666666666667</ele><time>2026-04-18T12:59:17.599Z</time></trkpt><trkpt lat="43.732645" lon="12.6422117"><ele>321.33333333333337</ele><time>2026-04-18T12:59:18.599Z</time></trkpt><trkpt lat="43.732775" lon="12.6423767"><ele>320.0</ele><time>2026-04-18T12:59:19.599Z</time></trkpt><trkpt lat="43.7329117" lon="12.6425267"><ele>320.0</ele><time>2026-04-18T12:59:20.599Z</time></trkpt><trkpt lat="43.7332183" lon="12.642765"><ele>320.0</ele><time>2026-04-18T12:59:22.599Z</time></trkpt><trkpt lat="43.73338" lon="12.64285"><ele>320.6666666666667</ele><time>2026-04-18T12:59:23.599Z</time></trkpt><trkpt lat="43.7335483" lon="12.6429067"><ele>321.3333333333333</ele><time>2026-04-18T12:59:24.599Z</time></trkpt><trkpt lat="43.73372" lon="12.64294"><ele>322.0</ele><time>2026-04-18T12:59:25.599Z</time></trkpt><trkpt lat="43.73389" lon="12.6429683"><ele>322.0</ele><time>2026-04-18T12:59:26.598Z</time></trkpt><trkpt lat="43.7340667" lon="12.6429933"><ele>322.0</ele><time>2026-04-18T12:59:27.599Z</time></trkpt><trkpt lat="43.73424" lon="12.6430183"><ele>322.0</ele><time>2026-04-18T12:59:28.599Z</time></trkpt><trkpt lat="43.7344117" lon="12.6430483"><ele>319.25</ele><time>2026-04-18T12:59:29.599Z</time></trkpt><trkpt lat="43.7345683" lon="12.6430783"><ele>316.5</ele><time>2026-04-18T12:59:30.599Z</time></trkpt><trkpt lat="43.7347133" lon="12.6431"><ele>313.75</ele><time>2026-04-18T12:59:31.599Z</time></trkpt><trkpt lat="43.7348517" lon="12.6431183"><ele>311.0</ele><time>2026-04-18T12:59:32.599Z</time></trkpt><trkpt lat="43.7349783" lon="12.6431317"><ele>311.0</ele><time>2026-04-18T12:59:33.599Z</time></trkpt><trkpt lat="43.735105" lon="12.6431267"><ele>311.0</ele><time>2026-04-18T12:59:34.599Z</time></trkpt><trkpt lat="43.7352183" lon="12.6431283"><ele>311.0</ele><time>2026-04-18T12:59:35.599Z</time></trkpt><trkpt lat="43.7353317" lon="12.6431333"><ele>311.0</ele><time>2026-04-18T12:59:36.599Z</time></trkpt><trkpt lat="43.735445" lon="12.6431383"><ele>309.75</ele><time>2026-04-18T12:59:37.599Z</time></trkpt><trkpt lat="43.7355667" lon="12.6431333"><ele>308.5</ele><time>2026-04-18T12:59:38.599Z</time></trkpt><trkpt lat="43.7356883" lon="12.6431067"><ele>307.25</ele><time>2026-04-18T12:59:39.599Z</time></trkpt><trkpt lat="43.7358183" lon="12.6430517"><ele>306.0</ele><time>2026-04-18T12:59:40.599Z</time></trkpt><trkpt lat="43.7359517" lon="12.64297"><ele>305.0</ele><time>2026-04-18T12:59:41.599Z</time></trkpt><trkpt lat="43.7360933" lon="12.6428733"><ele>304.0</ele><time>2026-04-18T12:59:42.599Z</time></trkpt><trkpt lat="43.73624" lon="12.64277"><ele>303.0</ele><time>2026-04-18T12:59:43.599Z</time></trkpt><trkpt lat="43.7363833" lon="12.6426717"><ele>306.6666666666667</ele><time>2026-04-18T12:59:44.599Z</time></trkpt><trkpt lat="43.7365233" lon="12.6425783"><ele>310.33333333333337</ele><time>2026-04-18T12:59:45.599Z</time></trkpt><trkpt lat="43.73667" lon="12.6425083"><ele>314.0</ele><time>2026-04-18T12:59:46.599Z</time></trkpt><trkpt lat="43.736825" lon="12.6424817"><ele>315.6666666666667</ele><time>2026-04-18T12:59:47.599Z</time></trkpt><trkpt lat="43.736995" lon="12.6425017"><ele>317.3333333333333</ele><time>2026-04-18T12:59:48.599Z</time></trkpt><trkpt lat="43.7371633" lon="12.64256"><ele>319.0</ele><time>2026-04-18T12:59:49.599Z</time></trkpt><trkpt lat="43.7373383" lon="12.6426433"><ele>319.0</ele><time>2026-04-18T12:59:50.599Z</time></trkpt><trkpt lat="43.7375033" lon="12.642735"><ele>319.0</ele><time>2026-04-18T12:59:51.599Z</time></trkpt><trkpt lat="43.73766" lon="12.6428183"><ele>319.0</ele><time>2026-04-18T12:59:52.599Z</time></trkpt><trkpt lat="43.737835" lon="12.6429317"><ele>314.66666666666663</ele><time>2026-04-18T12:59:53.599Z</time></trkpt><trkpt lat="43.7380033" lon="12.643035"><ele>310.3333333333333</ele><time>2026-04-18T12:59:54.599Z</time></trkpt><trkpt lat="43.73815" lon="12.6431417"><ele>306.0</ele><time>2026-04-18T12:59:55.599Z</time></trkpt><trkpt lat="43.7383017" lon="12.64328"><ele>306.0</ele><time>2026-04-18T12:59:56.599Z</time></trkpt><trkpt lat="43.73844" lon="12.6434533"><ele>306.0</ele><time>2026-04-18T12:59:57.599Z</time></trkpt><trkpt lat="43.7385617" lon="12.643645"><ele>306.0</ele><time>2026-04-18T12:59:58.599Z</time></trkpt><trkpt lat="43.7386783" lon="12.6438433"><ele>308.6666666666667</ele><time>2026-04-18T12:59:59.599Z</time></trkpt><trkpt lat="43.7387883" lon="12.6440383"><ele>311.33333333333337</ele><time>2026-04-18T13:00:00.599Z</time></trkpt><trkpt lat="43.7389067" lon="12.644235"><ele>314.0</ele><time>2026-04-18T13:00:01.599Z</time></trkpt><trkpt lat="43.7390217" lon="12.6444367"><ele>308.0</ele><time>2026-04-18T13:00:02.599Z</time></trkpt><trkpt lat="43.7391333" lon="12.64463"><ele>302.0</ele><time>2026-04-18T13:00:03.599Z</time></trkpt><trkpt lat="43.7392333" lon="12.6448083"><ele>296.0</ele><time>2026-04-18T13:00:04.599Z</time></trkpt><trkpt lat="43.7393433" lon="12.6449783"><ele>292.33333333333337</ele><time>2026-04-18T13:00:05.599Z</time></trkpt><trkpt lat="43.7394667" lon="12.64513"><ele>288.6666666666667</ele><time>2026-04-18T13:00:06.599Z</time></trkpt><trkpt lat="43.7395983" lon="12.6452517"><ele>285.0</ele><time>2026-04-18T13:00:07.599Z</time></trkpt><trkpt lat="43.7397583" lon="12.6453433"><ele>285.0</ele><time>2026-04-18T13:00:08.599Z</time></trkpt><trkpt lat="43.739925" lon="12.6454067"><ele>285.0</ele><time>2026-04-18T13:00:09.599Z</time></trkpt><trkpt lat="43.7400967" lon="12.64544"><ele>285.0</ele><time>2026-04-18T13:00:10.599Z</time></trkpt><trkpt lat="43.7402767" lon="12.6454633"><ele>285.6666666666667</ele><time>2026-04-18T13:00:11.599Z</time></trkpt><trkpt lat="43.7404567" lon="12.645475"><ele>286.33333333333337</ele><time>2026-04-18T13:00:12.599Z</time></trkpt><trkpt lat="43.7406483" lon="12.6454783"><ele>287.0</ele><time>2026-04-18T13:00:13.599Z</time></trkpt><trkpt lat="43.7408233" lon="12.645495"><ele>287.0</ele><time>2026-04-18T13:00:14.599Z</time></trkpt><trkpt lat="43.7409967" lon="12.645515"><ele>287.0</ele><time>2026-04-18T13:00:15.599Z</time></trkpt><trkpt lat="43.7411817" lon="12.6455767"><ele>287.0</ele><time>2026-04-18T13:00:16.599Z</time></trkpt><trkpt lat="43.7413583" lon="12.6456617"><ele>289.0</ele><time>2026-04-18T13:00:17.599Z</time></trkpt><trkpt lat="43.7415367" lon="12.6457667"><ele>291.0</ele><time>2026-04-18T13:00:18.599Z</time></trkpt><trkpt lat="43.7416917" lon="12.6458833"><ele>293.0</ele><time>2026-04-18T13:00:19.599Z</time></trkpt><trkpt lat="43.74185" lon="12.6459917"><ele>293.33333333333337</ele><time>2026-04-18T13:00:20.599Z</time></trkpt><trkpt lat="43.7420217" lon="12.646095"><ele>293.6666666666667</ele><time>2026-04-18T13:00:21.599Z</time></trkpt><trkpt lat="43.7422017" lon="12.6461717"><ele>294.0</ele><time>2026-04-18T13:00:22.599Z</time></trkpt><trkpt lat="43.74238" lon="12.6462167"><ele>291.3333333333333</ele><time>2026-04-18T13:00:23.599Z</time></trkpt><trkpt lat="43.74256" lon="12.6462083"><ele>288.66666666666663</ele><time>2026-04-18T13:00:24.599Z</time></trkpt><trkpt lat="43.7427383" lon="12.6461767"><ele>286.0</ele><time>2026-04-18T13:00:25.599Z</time></trkpt><trkpt lat="43.74293" lon="12.6461083"><ele>286.0</ele><time>2026-04-18T13:00:26.599Z</time></trkpt><trkpt lat="43.743125" lon="12.6460367"><ele>286.0</ele><time>2026-04-18T13:00:27.599Z</time></trkpt><trkpt lat="43.743295" lon="12.645965"><ele>286.0</ele><time>2026-04-18T13:00:28.599Z</time></trkpt><trkpt lat="43.7434633" lon="12.645915"><ele>287.0</ele><time>2026-04-18T13:00:29.599Z</time></trkpt><trkpt lat="43.74363" lon="12.645905"><ele>288.0</ele><time>2026-04-18T13:00:30.599Z</time></trkpt><trkpt lat="43.7438017" lon="12.6459367"><ele>289.0</ele><time>2026-04-18T13:00:31.599Z</time></trkpt><trkpt lat="43.7439783" lon="12.6460083"><ele>289.0</ele><time>2026-04-18T13:00:32.599Z</time></trkpt><trkpt lat="43.7441533" lon="12.6460933"><ele>289.0</ele><time>2026-04-18T13:00:33.599Z</time></trkpt><trkpt lat="43.7443317" lon="12.64619"><ele>289.0</ele><time>2026-04-18T13:00:34.599Z</time></trkpt><trkpt lat="43.74451" lon="12.6462867"><ele>285.3333333333333</ele><time>2026-04-18T13:00:35.599Z</time></trkpt><trkpt lat="43.7446817" lon="12.6463767"><ele>281.6666666666667</ele><time>2026-04-18T13:00:36.599Z</time></trkpt><trkpt lat="43.7448433" lon="12.6464683"><ele>278.0</ele><time>2026-04-18T13:00:37.599Z</time></trkpt><trkpt lat="43.744995" lon="12.6465517"><ele>278.0</ele><time>2026-04-18T13:00:38.599Z</time></trkpt><trkpt lat="43.7451433" lon="12.6466717"><ele>278.0</ele><time>2026-04-18T13:00:39.599Z</time></trkpt><trkpt lat="43.74527" lon="12.646825"><ele>278.0</ele><time>2026-04-18T13:00:40.599Z</time></trkpt><trkpt lat="43.7453667" lon="12.6470133"><ele>279.6666666666667</ele><time>2026-04-18T13:00:41.599Z</time></trkpt><trkpt lat="43.7454267" lon="12.64724"><ele>281.3333333333333</ele><time>2026-04-18T13:00:42.599Z</time></trkpt><trkpt lat="43.7454633" lon="12.6474817"><ele>283.0</ele><time>2026-04-18T13:00:43.599Z</time></trkpt><trkpt lat="43.7454567" lon="12.6477233"><ele>281.3333333333333</ele><time>2026-04-18T13:00:44.599Z</time></trkpt><trkpt lat="43.7454383" lon="12.6479783"><ele>279.6666666666667</ele><time>2026-04-18T13:00:45.599Z</time></trkpt><trkpt lat="43.74543" lon="12.64824"><ele>278.0</ele><time>2026-04-18T13:00:46.599Z</time></trkpt><trkpt lat="43.7454483" lon="12.648485"><ele>274.0</ele><time>2026-04-18T13:00:47.599Z</time></trkpt><trkpt lat="43.7454967" lon="12.64873"><ele>270.0</ele><time>2026-04-18T13:00:48.599Z</time></trkpt><trkpt lat="43.7455617" lon="12.6489633"><ele>266.0</ele><time>2026-04-18T13:00:49.599Z</time></trkpt><trkpt lat="43.74564" lon="12.6491917"><ele>266.0</ele><time>2026-04-18T13:00:50.599Z</time></trkpt><trkpt lat="43.74573" lon="12.6494183"><ele>266.0</ele><time>2026-04-18T13:00:51.599Z</time></trkpt><trkpt lat="43.7458133" lon="12.649645"><ele>266.0</ele><time>2026-04-18T13:00:52.599Z</time></trkpt><trkpt lat="43.7459083" lon="12.6498483"><ele>268.0</ele><time>2026-04-18T13:00:53.599Z</time></trkpt><trkpt lat="43.74601" lon="12.6500467"><ele>270.0</ele><time>2026-04-18T13:00:54.599Z</time></trkpt><trkpt lat="43.7461167" lon="12.6502517"><ele>272.0</ele><time>2026-04-18T13:00:55.599Z</time></trkpt><trkpt lat="43.7462367" lon="12.6504483"><ele>267.0</ele><time>2026-04-18T13:00:56.599Z</time></trkpt><trkpt lat="43.7463633" lon="12.6506317"><ele>262.0</ele><time>2026-04-18T13:00:57.599Z</time></trkpt><trkpt lat="43.7464933" lon="12.65081"><ele>257.0</ele><time>2026-04-18T13:00:58.599Z</time></trkpt><trkpt lat="43.746635" lon="12.650975"><ele>257.0</ele><time>2026-04-18T13:00:59.599Z</time></trkpt><trkpt lat="43.74679" lon="12.6511183"><ele>257.0</ele><time>2026-04-18T13:01:00.599Z</time></trkpt><trkpt lat="43.7469533" lon="12.651265"><ele>257.0</ele><time>2026-04-18T13:01:01.599Z</time></trkpt><trkpt lat="43.7471183" lon="12.651415"><ele>256.6666666666667</ele><time>2026-04-18T13:01:02.599Z</time></trkpt><trkpt lat="43.74729" lon="12.6515683"><ele>256.3333333333333</ele><time>2026-04-18T13:01:03.599Z</time></trkpt><trkpt lat="43.7474617" lon="12.651725"><ele>256.0</ele><time>2026-04-18T13:01:04.599Z</time></trkpt><trkpt lat="43.74763" lon="12.65189"><ele>253.33333333333331</ele><time>2026-04-18T13:01:05.598Z</time></trkpt><trkpt lat="43.7478" lon="12.6520417"><ele>250.66666666666669</ele><time>2026-04-18T13:01:06.599Z</time></trkpt><trkpt lat="43.7479633" lon="12.6521983"><ele>248.0</ele><time>2026-04-18T13:01:07.599Z</time></trkpt><trkpt lat="43.74813" lon="12.6523533"><ele>248.0</ele><time>2026-04-18T13:01:08.599Z</time></trkpt><trkpt lat="43.74829" lon="12.6525017"><ele>248.0</ele><time>2026-04-18T13:01:09.599Z</time></trkpt><trkpt lat="43.74844" lon="12.6526533"><ele>248.0</ele><time>2026-04-18T13:01:10.599Z</time></trkpt><trkpt lat="43.74859" lon="12.6528067"><ele>246.33333333333334</ele><time>2026-04-18T13:01:11.599Z</time></trkpt><trkpt lat="43.748735" lon="12.6529617"><ele>244.66666666666669</ele><time>2026-04-18T13:01:12.599Z</time></trkpt><trkpt lat="43.7488817" lon="12.6531283"><ele>243.0</ele><time>2026-04-18T13:01:13.599Z</time></trkpt><trkpt lat="43.749025" lon="12.6533067"><ele>243.0</ele><time>2026-04-18T13:01:14.599Z</time></trkpt><trkpt lat="43.7491733" lon="12.6534883"><ele>243.0</ele><time>2026-04-18T13:01:15.599Z</time></trkpt><trkpt lat="43.7493233" lon="12.6536683"><ele>243.0</ele><time>2026-04-18T13:01:16.599Z</time></trkpt><trkpt lat="43.7494633" lon="12.65385"><ele>242.33333333333331</ele><time>2026-04-18T13:01:17.599Z</time></trkpt><trkpt lat="43.749605" lon="12.6540267"><ele>241.66666666666666</ele><time>2026-04-18T13:01:18.599Z</time></trkpt><trkpt lat="43.7497333" lon="12.6541983"><ele>241.0</ele><time>2026-04-18T13:01:19.599Z</time></trkpt><trkpt lat="43.7498633" lon="12.6543583"><ele>237.33333333333331</ele><time>2026-04-18T13:01:20.599Z</time></trkpt><trkpt lat="43.749985" lon="12.6545267"><ele>233.66666666666669</ele><time>2026-04-18T13:01:21.599Z</time></trkpt><trkpt lat="43.7500967" lon="12.6547083"><ele>230.0</ele><time>2026-04-18T13:01:22.599Z</time></trkpt><trkpt lat="43.7502033" lon="12.6549033"><ele>231.66666666666669</ele><time>2026-04-18T13:01:23.599Z</time></trkpt><trkpt lat="43.7502933" lon="12.6551167"><ele>233.33333333333331</ele><time>2026-04-18T13:01:24.599Z</time></trkpt><trkpt lat="43.7503583" lon="12.655345"><ele>235.0</ele><time>2026-04-18T13:01:25.599Z</time></trkpt><trkpt lat="43.75045" lon="12.6555667"><ele>235.0</ele><time>2026-04-18T13:01:26.599Z</time></trkpt><trkpt lat="43.7505383" lon="12.6558033"><ele>235.0</ele><time>2026-04-18T13:01:27.599Z</time></trkpt><trkpt lat="43.7506233" lon="12.6560433"><ele>235.0</ele><time>2026-04-18T13:01:28.599Z</time></trkpt><trkpt lat="43.7507" lon="12.6562717"><ele>232.33333333333331</ele><time>2026-04-18T13:01:29.599Z</time></trkpt><trkpt lat="43.7507917" lon="12.6565083"><ele>229.66666666666669</ele><time>2026-04-18T13:01:30.599Z</time></trkpt><trkpt lat="43.7508783" lon="12.65675"><ele>227.0</ele><time>2026-04-18T13:01:31.599Z</time></trkpt><trkpt lat="43.75096" lon="12.6569817"><ele>228.33333333333334</ele><time>2026-04-18T13:01:32.599Z</time></trkpt><trkpt lat="43.7510517" lon="12.6572083"><ele>229.66666666666669</ele><time>2026-04-18T13:01:33.599Z</time></trkpt><trkpt lat="43.7511367" lon="12.657425"><ele>231.0</ele><time>2026-04-18T13:01:34.599Z</time></trkpt><trkpt lat="43.7512233" lon="12.6576617"><ele>227.0</ele><time>2026-04-18T13:01:35.599Z</time></trkpt><trkpt lat="43.751305" lon="12.657885"><ele>223.0</ele><time>2026-04-18T13:01:36.599Z</time></trkpt><trkpt lat="43.751385" lon="12.6580867"><ele>219.0</ele><time>2026-04-18T13:01:37.599Z</time></trkpt><trkpt lat="43.7514667" lon="12.6582767"><ele>219.0</ele><time>2026-04-18T13:01:38.599Z</time></trkpt><trkpt lat="43.7515467" lon="12.6584483"><ele>219.0</ele><time>2026-04-18T13:01:39.599Z</time></trkpt><trkpt lat="43.7516217" lon="12.65861"><ele>219.0</ele><time>2026-04-18T13:01:40.599Z</time></trkpt><trkpt lat="43.7516967" lon="12.6587667"><ele>219.0</ele><time>2026-04-18T13:01:41.599Z</time></trkpt><trkpt lat="43.75176" lon="12.6589133"><ele>218.6</ele><time>2026-04-18T13:01:42.599Z</time></trkpt><trkpt lat="43.7518233" lon="12.65905"><ele>218.2</ele><time>2026-04-18T13:01:43.599Z</time></trkpt><trkpt lat="43.7518767" lon="12.6591817"><ele>217.79999999999998</ele><time>2026-04-18T13:01:44.599Z</time></trkpt><trkpt lat="43.7519117" lon="12.659325"><ele>217.39999999999998</ele><time>2026-04-18T13:01:45.599Z</time></trkpt><trkpt lat="43.7519517" lon="12.6594717"><ele>217.0</ele><time>2026-04-18T13:01:46.599Z</time></trkpt><trkpt lat="43.7519983" lon="12.6596033"><ele>217.0</ele><time>2026-04-18T13:01:47.599Z</time></trkpt><trkpt lat="43.7520783" lon="12.659725"><ele>217.0</ele><time>2026-04-18T13:01:48.599Z</time></trkpt><trkpt lat="43.7521833" lon="12.6598583"><ele>217.0</ele><time>2026-04-18T13:01:49.599Z</time></trkpt><trkpt lat="43.7522833" lon="12.6600067"><ele>217.0</ele><time>2026-04-18T13:01:50.599Z</time></trkpt><trkpt lat="43.7523933" lon="12.6601567"><ele>216.66666666666666</ele><time>2026-04-18T13:01:51.599Z</time></trkpt><trkpt lat="43.7524983" lon="12.6603033"><ele>216.33333333333331</ele><time>2026-04-18T13:01:52.599Z</time></trkpt><trkpt lat="43.7526067" lon="12.6604567"><ele>216.0</ele><time>2026-04-18T13:01:53.599Z</time></trkpt><trkpt lat="43.7527133" lon="12.6606067"><ele>216.0</ele><time>2026-04-18T13:01:54.599Z</time></trkpt><trkpt lat="43.7528233" lon="12.6607583"><ele>216.0</ele><time>2026-04-18T13:01:55.599Z</time></trkpt><trkpt lat="43.7529383" lon="12.6609117"><ele>216.0</ele><time>2026-04-18T13:01:56.599Z</time></trkpt><trkpt lat="43.7530567" lon="12.6610633"><ele>210.66666666666669</ele><time>2026-04-18T13:01:57.599Z</time></trkpt><trkpt lat="43.75317" lon="12.6612183"><ele>205.33333333333334</ele><time>2026-04-18T13:01:58.599Z</time></trkpt><trkpt lat="43.7532833" lon="12.6613867"><ele>200.0</ele><time>2026-04-18T13:01:59.599Z</time></trkpt><trkpt lat="43.7533833" lon="12.6615633"><ele>200.0</ele><time>2026-04-18T13:02:00.599Z</time></trkpt><trkpt lat="43.75348" lon="12.66174"><ele>200.0</ele><time>2026-04-18T13:02:01.599Z</time></trkpt><trkpt lat="43.753575" lon="12.6619083"><ele>200.0</ele><time>2026-04-18T13:02:02.599Z</time></trkpt><trkpt lat="43.7536717" lon="12.6620817"><ele>200.5</ele><time>2026-04-18T13:02:03.599Z</time></trkpt><trkpt lat="43.7537683" lon="12.6622433"><ele>201.0</ele><time>2026-04-18T13:02:04.598Z</time></trkpt><trkpt lat="43.753855" lon="12.662405"><ele>201.5</ele><time>2026-04-18T13:02:05.599Z</time></trkpt><trkpt lat="43.75394" lon="12.6625783"><ele>202.0</ele><time>2026-04-18T13:02:06.599Z</time></trkpt><trkpt lat="43.75402" lon="12.6627517"><ele>199.33333333333331</ele><time>2026-04-18T13:02:07.599Z</time></trkpt><trkpt lat="43.7540967" lon="12.6629333"><ele>196.66666666666669</ele><time>2026-04-18T13:02:08.598Z</time></trkpt><trkpt lat="43.7541733" lon="12.6631167"><ele>194.0</ele><time>2026-04-18T13:02:09.599Z</time></trkpt><trkpt lat="43.7542483" lon="12.66331"><ele>194.0</ele><time>2026-04-18T13:02:10.599Z</time></trkpt><trkpt lat="43.7543217" lon="12.663495"><ele>194.0</ele><time>2026-04-18T13:02:11.599Z</time></trkpt><trkpt lat="43.7543917" lon="12.66368"><ele>194.0</ele><time>2026-04-18T13:02:12.599Z</time></trkpt><trkpt lat="43.7544583" lon="12.6638667"><ele>193.25</ele><time>2026-04-18T13:02:13.599Z</time></trkpt><trkpt lat="43.7545217" lon="12.664045"><ele>192.5</ele><time>2026-04-18T13:02:14.599Z</time></trkpt><trkpt lat="43.7545783" lon="12.664215"><ele>191.75</ele><time>2026-04-18T13:02:15.599Z</time></trkpt><trkpt lat="43.75463" lon="12.6643933"><ele>191.0</ele><time>2026-04-18T13:02:16.599Z</time></trkpt><trkpt lat="43.7546683" lon="12.6645983"><ele>191.0</ele><time>2026-04-18T13:02:17.599Z</time></trkpt><trkpt lat="43.7547" lon="12.66481"><ele>191.0</ele><time>2026-04-18T13:02:18.599Z</time></trkpt><trkpt lat="43.754735" lon="12.6650233"><ele>191.0</ele><time>2026-04-18T13:02:19.599Z</time></trkpt><trkpt lat="43.7547783" lon="12.6652183"><ele>188.75</ele><time>2026-04-18T13:02:20.599Z</time></trkpt><trkpt lat="43.7548317" lon="12.6654267"><ele>186.5</ele><time>2026-04-18T13:02:21.599Z</time></trkpt><trkpt lat="43.7548917" lon="12.6656083"><ele>184.25</ele><time>2026-04-18T13:02:22.599Z</time></trkpt><trkpt lat="43.75496" lon="12.6657667"><ele>182.0</ele><time>2026-04-18T13:02:23.599Z</time></trkpt><trkpt lat="43.7550317" lon="12.665905"><ele>182.0</ele><time>2026-04-18T13:02:24.599Z</time></trkpt><trkpt lat="43.755125" lon="12.6660433"><ele>182.0</ele><time>2026-04-18T13:02:25.599Z</time></trkpt><trkpt lat="43.7552283" lon="12.6661733"><ele>182.0</ele><time>2026-04-18T13:02:26.599Z</time></trkpt><trkpt lat="43.7553517" lon="12.6662867"><ele>182.0</ele><time>2026-04-18T13:02:27.599Z</time></trkpt><trkpt lat="43.7554833" lon="12.6663833"><ele>181.5</ele><time>2026-04-18T13:02:28.599Z</time></trkpt><trkpt lat="43.7556117" lon="12.66647"><ele>181.0</ele><time>2026-04-18T13:02:29.599Z</time></trkpt><trkpt lat="43.7557583" lon="12.66654"><ele>180.5</ele><time>2026-04-18T13:02:30.599Z</time></trkpt><trkpt lat="43.7558933" lon="12.66659"><ele>180.0</ele><time>2026-04-18T13:02:31.599Z</time></trkpt><trkpt lat="43.756035" lon="12.666655"><ele>179.66666666666666</ele><time>2026-04-18T13:02:32.599Z</time></trkpt><trkpt lat="43.7561783" lon="12.6667117"><ele>179.33333333333331</ele><time>2026-04-18T13:02:33.599Z</time></trkpt><trkpt lat="43.7563233" lon="12.6667567"><ele>179.0</ele><time>2026-04-18T13:02:34.599Z</time></trkpt><trkpt lat="43.7564733" lon="12.6668017"><ele>179.0</ele><time>2026-04-18T13:02:35.599Z</time></trkpt><trkpt lat="43.7566167" lon="12.6668283"><ele>179.0</ele><time>2026-04-18T13:02:36.599Z</time></trkpt><trkpt lat="43.7567583" lon="12.66686"><ele>179.0</ele><time>2026-04-18T13:02:37.599Z</time></trkpt><trkpt lat="43.7569017" lon="12.6668833"><ele>179.0</ele><time>2026-04-18T13:02:38.599Z</time></trkpt><trkpt lat="43.75705" lon="12.666905"><ele>178.0</ele><time>2026-04-18T13:02:39.599Z</time></trkpt><trkpt lat="43.75719" lon="12.666905"><ele>177.0</ele><time>2026-04-18T13:02:40.599Z</time></trkpt><trkpt lat="43.7573283" lon="12.6668833"><ele>176.0</ele><time>2026-04-18T13:02:41.598Z</time></trkpt><trkpt lat="43.7574733" lon="12.66686"><ele>175.0</ele><time>2026-04-18T13:02:42.599Z</time></trkpt><trkpt lat="43.7576167" lon="12.66684"><ele>174.25</ele><time>2026-04-18T13:02:43.599Z</time></trkpt><trkpt lat="43.7577617" lon="12.6668233"><ele>173.5</ele><time>2026-04-18T13:02:44.599Z</time></trkpt><trkpt lat="43.757905" lon="12.6668317"><ele>172.75</ele><time>2026-04-18T13:02:45.599Z</time></trkpt><trkpt lat="43.7580467" lon="12.6668667"><ele>172.0</ele><time>2026-04-18T13:02:46.599Z</time></trkpt><trkpt lat="43.7581817" lon="12.6669467"><ele>172.0</ele><time>2026-04-18T13:02:47.599Z</time></trkpt><trkpt lat="43.7583167" lon="12.6670617"><ele>172.0</ele><time>2026-04-18T13:02:48.599Z</time></trkpt><trkpt lat="43.7584483" lon="12.6671967"><ele>172.0</ele><time>2026-04-18T13:02:49.599Z</time></trkpt><trkpt lat="43.75858" lon="12.667325"><ele>171.33333333333334</ele><time>2026-04-18T13:02:50.599Z</time></trkpt><trkpt lat="43.758725" lon="12.6674383"><ele>170.66666666666666</ele><time>2026-04-18T13:02:51.599Z</time></trkpt><trkpt lat="43.7588817" lon="12.6675183"><ele>170.0</ele><time>2026-04-18T13:02:52.599Z</time></trkpt><trkpt lat="43.7590533" lon="12.6675683"><ele>170.0</ele><time>2026-04-18T13:02:53.599Z</time></trkpt><trkpt lat="43.7592383" lon="12.6676067"><ele>170.0</ele><time>2026-04-18T13:02:54.599Z</time></trkpt><trkpt lat="43.7594183" lon="12.6676217"><ele>170.0</ele><time>2026-04-18T13:02:55.599Z</time></trkpt><trkpt lat="43.759605" lon="12.6676417"><ele>172.0</ele><time>2026-04-18T13:02:56.599Z</time></trkpt><trkpt lat="43.7598" lon="12.6676617"><ele>174.0</ele><time>2026-04-18T13:02:57.599Z</time></trkpt><trkpt lat="43.7599983" lon="12.6676833"><ele>176.0</ele><time>2026-04-18T13:02:58.599Z</time></trkpt><trkpt lat="43.7602083" lon="12.6677167"><ele>178.0</ele><time>2026-04-18T13:02:59.599Z</time></trkpt><trkpt lat="43.7604183" lon="12.66775"><ele>180.0</ele><time>2026-04-18T13:03:00.599Z</time></trkpt><trkpt lat="43.7606167" lon="12.667785"><ele>182.0</ele><time>2026-04-18T13:03:01.599Z</time></trkpt><trkpt lat="43.76081" lon="12.66784"><ele>178.0</ele><time>2026-04-18T13:03:02.599Z</time></trkpt><trkpt lat="43.761" lon="12.667915"><ele>174.0</ele><time>2026-04-18T13:03:03.599Z</time></trkpt><trkpt lat="43.7611883" lon="12.668005"><ele>170.0</ele><time>2026-04-18T13:03:04.599Z</time></trkpt><trkpt lat="43.7613567" lon="12.668105"><ele>169.66666666666666</ele><time>2026-04-18T13:03:05.599Z</time></trkpt><trkpt lat="43.7615133" lon="12.6682233"><ele>169.33333333333334</ele><time>2026-04-18T13:03:06.599Z</time></trkpt><trkpt lat="43.761675" lon="12.6683617"><ele>169.0</ele><time>2026-04-18T13:03:07.599Z</time></trkpt><trkpt lat="43.7618333" lon="12.6685317"><ele>167.66666666666669</ele><time>2026-04-18T13:03:08.599Z</time></trkpt><trkpt lat="43.761985" lon="12.66871"><ele>166.33333333333334</ele><time>2026-04-18T13:03:09.599Z</time></trkpt><trkpt lat="43.76212" lon="12.6688983"><ele>165.0</ele><time>2026-04-18T13:03:10.599Z</time></trkpt><trkpt lat="43.7622633" lon="12.6690717"><ele>165.0</ele><time>2026-04-18T13:03:11.599Z</time></trkpt><trkpt lat="43.7623967" lon="12.66921"><ele>165.0</ele><time>2026-04-18T13:03:12.599Z</time></trkpt><trkpt lat="43.7625317" lon="12.669345"><ele>165.0</ele><time>2026-04-18T13:03:13.599Z</time></trkpt><trkpt lat="43.7626767" lon="12.66947"><ele>162.33333333333334</ele><time>2026-04-18T13:03:14.599Z</time></trkpt><trkpt lat="43.7628383" lon="12.6695467"><ele>159.66666666666669</ele><time>2026-04-18T13:03:15.599Z</time></trkpt><trkpt lat="43.7630067" lon="12.669595"><ele>157.0</ele><time>2026-04-18T13:03:16.599Z</time></trkpt><trkpt lat="43.763185" lon="12.6696383"><ele>157.0</ele><time>2026-04-18T13:03:17.599Z</time></trkpt><trkpt lat="43.76337" lon="12.6696667"><ele>157.0</ele><time>2026-04-18T13:03:18.599Z</time></trkpt><trkpt lat="43.7635633" lon="12.6696917"><ele>157.0</ele><time>2026-04-18T13:03:19.599Z</time></trkpt><trkpt lat="43.7637433" lon="12.6697133"><ele>157.0</ele><time>2026-04-18T13:03:20.599Z</time></trkpt><trkpt lat="43.763925" lon="12.6697217"><ele>157.0</ele><time>2026-04-18T13:03:21.599Z</time></trkpt><trkpt lat="43.7641233" lon="12.6697183"><ele>157.0</ele><time>2026-04-18T13:03:22.599Z</time></trkpt><trkpt lat="43.7644783" lon="12.6696667"><ele>157.0</ele><time>2026-04-18T13:03:24.599Z</time></trkpt><trkpt lat="43.76465" lon="12.66962"><ele>157.0</ele><time>2026-04-18T13:03:25.599Z</time></trkpt><trkpt lat="43.7648117" lon="12.6695667"><ele>157.0</ele><time>2026-04-18T13:03:26.599Z</time></trkpt><trkpt lat="43.7649767" lon="12.6695083"><ele>157.0</ele><time>2026-04-18T13:03:27.599Z</time></trkpt><trkpt lat="43.7651383" lon="12.6694567"><ele>157.0</ele><time>2026-04-18T13:03:28.599Z</time></trkpt><trkpt lat="43.7653" lon="12.6694133"><ele>157.0</ele><time>2026-04-18T13:03:29.599Z</time></trkpt><trkpt lat="43.7654717" lon="12.66941"><ele>156.66666666666669</ele><time>2026-04-18T13:03:30.599Z</time></trkpt><trkpt lat="43.7656417" lon="12.6694517"><ele>156.33333333333334</ele><time>2026-04-18T13:03:31.599Z</time></trkpt><trkpt lat="43.765795" lon="12.6695333"><ele>156.0</ele><time>2026-04-18T13:03:32.599Z</time></trkpt><trkpt lat="43.7659383" lon="12.669645"><ele>156.66666666666666</ele><time>2026-04-18T13:03:33.599Z</time></trkpt><trkpt lat="43.7660667" lon="12.669785"><ele>157.33333333333331</ele><time>2026-04-18T13:03:34.599Z</time></trkpt><trkpt lat="43.76619" lon="12.6699183"><ele>158.0</ele><time>2026-04-18T13:03:35.599Z</time></trkpt><trkpt lat="43.7663083" lon="12.670055"><ele>158.0</ele><time>2026-04-18T13:03:36.599Z</time></trkpt><trkpt lat="43.7664317" lon="12.6701917"><ele>158.0</ele><time>2026-04-18T13:03:37.599Z</time></trkpt><trkpt lat="43.7665533" lon="12.6703367"><ele>158.0</ele><time>2026-04-18T13:03:38.599Z</time></trkpt><trkpt lat="43.7666767" lon="12.6704817"><ele>156.33333333333331</ele><time>2026-04-18T13:03:39.599Z</time></trkpt><trkpt lat="43.7667983" lon="12.6706283"><ele>154.66666666666666</ele><time>2026-04-18T13:03:40.599Z</time></trkpt><trkpt lat="43.7669167" lon="12.670785"><ele>153.0</ele><time>2026-04-18T13:03:41.599Z</time></trkpt><trkpt lat="43.767035" lon="12.6709367"><ele>153.33333333333334</ele><time>2026-04-18T13:03:42.599Z</time></trkpt><trkpt lat="43.7671533" lon="12.6710733"><ele>153.66666666666669</ele><time>2026-04-18T13:03:43.599Z</time></trkpt><trkpt lat="43.76728" lon="12.67121"><ele>154.0</ele><time>2026-04-18T13:03:44.599Z</time></trkpt><trkpt lat="43.767405" lon="12.6713367"><ele>154.0</ele><time>2026-04-18T13:03:45.599Z</time></trkpt><trkpt lat="43.7675417" lon="12.6714583"><ele>154.0</ele><time>2026-04-18T13:03:46.599Z</time></trkpt><trkpt lat="43.767705" lon="12.67157"><ele>154.0</ele><time>2026-04-18T13:03:47.599Z</time></trkpt><trkpt lat="43.7678667" lon="12.6716833"><ele>154.33333333333334</ele><time>2026-04-18T13:03:48.599Z</time></trkpt><trkpt lat="43.76804" lon="12.6717667"><ele>154.66666666666666</ele><time>2026-04-18T13:03:49.599Z</time></trkpt><trkpt lat="43.76823" lon="12.6718533"><ele>155.0</ele><time>2026-04-18T13:03:50.599Z</time></trkpt><trkpt lat="43.768425" lon="12.67194"><ele>154.0</ele><time>2026-04-18T13:03:51.599Z</time></trkpt><trkpt lat="43.7686217" lon="12.67203"><ele>153.0</ele><time>2026-04-18T13:03:52.599Z</time></trkpt><trkpt lat="43.768825" lon="12.6721267"><ele>152.0</ele><time>2026-04-18T13:03:53.599Z</time></trkpt><trkpt lat="43.769025" lon="12.6722283"><ele>152.0</ele><time>2026-04-18T13:03:54.599Z</time></trkpt><trkpt lat="43.7692317" lon="12.6723267"><ele>152.0</ele><time>2026-04-18T13:03:55.599Z</time></trkpt><trkpt lat="43.76944" lon="12.6724183"><ele>152.0</ele><time>2026-04-18T13:03:56.599Z</time></trkpt><trkpt lat="43.76965" lon="12.672505"><ele>152.0</ele><time>2026-04-18T13:03:57.599Z</time></trkpt><trkpt lat="43.7698583" lon="12.6725883"><ele>152.0</ele><time>2026-04-18T13:03:58.599Z</time></trkpt><trkpt lat="43.770065" lon="12.6726783"><ele>152.0</ele><time>2026-04-18T13:03:59.598Z</time></trkpt><trkpt lat="43.7702667" lon="12.67277"><ele>151.33333333333331</ele><time>2026-04-18T13:04:00.599Z</time></trkpt><trkpt lat="43.7704683" lon="12.6728533"><ele>150.66666666666666</ele><time>2026-04-18T13:04:01.599Z</time></trkpt><trkpt lat="43.770665" lon="12.6729383"><ele>150.0</ele><time>2026-04-18T13:04:02.599Z</time></trkpt><trkpt lat="43.7708617" lon="12.6730333"><ele>151.33333333333334</ele><time>2026-04-18T13:04:03.599Z</time></trkpt><trkpt lat="43.7710567" lon="12.6731317"><ele>152.66666666666669</ele><time>2026-04-18T13:04:04.599Z</time></trkpt><trkpt lat="43.7712517" lon="12.6732333"><ele>154.0</ele><time>2026-04-18T13:04:05.599Z</time></trkpt><trkpt lat="43.771445" lon="12.6733367"><ele>154.0</ele><time>2026-04-18T13:04:06.599Z</time></trkpt><trkpt lat="43.771635" lon="12.67345"><ele>154.0</ele><time>2026-04-18T13:04:07.599Z</time></trkpt><trkpt lat="43.7718183" lon="12.673575"><ele>154.0</ele><time>2026-04-18T13:04:08.599Z</time></trkpt><trkpt lat="43.7720033" lon="12.6736967"><ele>151.66666666666669</ele><time>2026-04-18T13:04:09.599Z</time></trkpt><trkpt lat="43.77219" lon="12.6738267"><ele>149.33333333333334</ele><time>2026-04-18T13:04:10.599Z</time></trkpt><trkpt lat="43.77237" lon="12.673955"><ele>147.0</ele><time>2026-04-18T13:04:11.599Z</time></trkpt><trkpt lat="43.7725433" lon="12.6740867"><ele>146.66666666666666</ele><time>2026-04-18T13:04:12.599Z</time></trkpt><trkpt lat="43.7727167" lon="12.6742133"><ele>146.33333333333331</ele><time>2026-04-18T13:04:13.599Z</time></trkpt><trkpt lat="43.7728917" lon="12.6743417"><ele>146.0</ele><time>2026-04-18T13:04:14.599Z</time></trkpt><trkpt lat="43.77306" lon="12.6744833"><ele>146.0</ele><time>2026-04-18T13:04:15.599Z</time></trkpt><trkpt lat="43.773225" lon="12.6746183"><ele>146.0</ele><time>2026-04-18T13:04:16.599Z</time></trkpt><trkpt lat="43.7733783" lon="12.67477"><ele>146.0</ele><time>2026-04-18T13:04:17.599Z</time></trkpt><trkpt lat="43.77352" lon="12.674925"><ele>146.33333333333331</ele><time>2026-04-18T13:04:18.599Z</time></trkpt><trkpt lat="43.7736683" lon="12.6750933"><ele>146.66666666666666</ele><time>2026-04-18T13:04:19.599Z</time></trkpt><trkpt lat="43.7738067" lon="12.6752733"><ele>147.0</ele><time>2026-04-18T13:04:20.599Z</time></trkpt><trkpt lat="43.77394" lon="12.675465"><ele>146.33333333333334</ele><time>2026-04-18T13:04:21.599Z</time></trkpt><trkpt lat="43.7740633" lon="12.6756567"><ele>145.66666666666669</ele><time>2026-04-18T13:04:22.599Z</time></trkpt><trkpt lat="43.7741817" lon="12.6758417"><ele>145.0</ele><time>2026-04-18T13:04:23.599Z</time></trkpt><trkpt lat="43.7742917" lon="12.6760167"><ele>148.0</ele><time>2026-04-18T13:04:24.599Z</time></trkpt><trkpt lat="43.77441" lon="12.6761817"><ele>151.0</ele><time>2026-04-18T13:04:25.599Z</time></trkpt><trkpt lat="43.7745167" lon="12.6763483"><ele>154.0</ele><time>2026-04-18T13:04:26.599Z</time></trkpt><trkpt lat="43.7746217" lon="12.67651"><ele>154.0</ele><time>2026-04-18T13:04:27.599Z</time></trkpt><trkpt lat="43.7747183" lon="12.676695"><ele>154.0</ele><time>2026-04-18T13:04:28.599Z</time></trkpt><trkpt lat="43.7747983" lon="12.6768933"><ele>154.0</ele><time>2026-04-18T13:04:29.599Z</time></trkpt><trkpt lat="43.774875" lon="12.6771083"><ele>150.66666666666669</ele><time>2026-04-18T13:04:30.599Z</time></trkpt><trkpt lat="43.774935" lon="12.677325"><ele>147.33333333333334</ele><time>2026-04-18T13:04:31.599Z</time></trkpt><trkpt lat="43.7750017" lon="12.677525"><ele>144.0</ele><time>2026-04-18T13:04:32.599Z</time></trkpt><trkpt lat="43.7750683" lon="12.6777233"><ele>145.0</ele><time>2026-04-18T13:04:33.599Z</time></trkpt><trkpt lat="43.7751467" lon="12.6779133"><ele>146.0</ele><time>2026-04-18T13:04:34.599Z</time></trkpt><trkpt lat="43.77524" lon="12.678095"><ele>147.0</ele><time>2026-04-18T13:04:35.598Z</time></trkpt><trkpt lat="43.7753483" lon="12.67825"><ele>147.0</ele><time>2026-04-18T13:04:36.599Z</time></trkpt><trkpt lat="43.7754667" lon="12.67841"><ele>147.0</ele><time>2026-04-18T13:04:37.599Z</time></trkpt><trkpt lat="43.7755867" lon="12.67859"><ele>147.0</ele><time>2026-04-18T13:04:38.599Z</time></trkpt><trkpt lat="43.775705" lon="12.67878"><ele>145.0</ele><time>2026-04-18T13:04:39.598Z</time></trkpt><trkpt lat="43.77581" lon="12.6789783"><ele>143.0</ele><time>2026-04-18T13:04:40.599Z</time></trkpt><trkpt lat="43.7759117" lon="12.6791783"><ele>141.0</ele><time>2026-04-18T13:04:41.599Z</time></trkpt><trkpt lat="43.7760017" lon="12.679395"><ele>142.33333333333334</ele><time>2026-04-18T13:04:42.599Z</time></trkpt><trkpt lat="43.7760867" lon="12.6796133"><ele>143.66666666666669</ele><time>2026-04-18T13:04:43.599Z</time></trkpt><trkpt lat="43.7761667" lon="12.6798333"><ele>145.0</ele><time>2026-04-18T13:04:44.599Z</time></trkpt><trkpt lat="43.7762417" lon="12.6800567"><ele>144.33333333333334</ele><time>2026-04-18T13:04:45.599Z</time></trkpt><trkpt lat="43.7763183" lon="12.68028"><ele>143.66666666666666</ele><time>2026-04-18T13:04:46.599Z</time></trkpt><trkpt lat="43.776395" lon="12.6804917"><ele>143.0</ele><time>2026-04-18T13:04:47.598Z</time></trkpt><trkpt lat="43.7764767" lon="12.6807083"><ele>143.0</ele><time>2026-04-18T13:04:48.599Z</time></trkpt><trkpt lat="43.7765533" lon="12.6809267"><ele>143.0</ele><time>2026-04-18T13:04:49.599Z</time></trkpt><trkpt lat="43.7766267" lon="12.68114"><ele>143.0</ele><time>2026-04-18T13:04:50.599Z</time></trkpt><trkpt lat="43.7767" lon="12.6813667"><ele>141.33333333333331</ele><time>2026-04-18T13:04:51.599Z</time></trkpt><trkpt lat="43.7767633" lon="12.6815933"><ele>139.66666666666666</ele><time>2026-04-18T13:04:52.599Z</time></trkpt><trkpt lat="43.776825" lon="12.6818367"><ele>138.0</ele><time>2026-04-18T13:04:53.599Z</time></trkpt><trkpt lat="43.776875" lon="12.682075"><ele>142.33333333333334</ele><time>2026-04-18T13:04:54.599Z</time></trkpt><trkpt lat="43.7769217" lon="12.682315"><ele>146.66666666666669</ele><time>2026-04-18T13:04:55.599Z</time></trkpt><trkpt lat="43.7769533" lon="12.6825567"><ele>151.0</ele><time>2026-04-18T13:04:56.599Z</time></trkpt><trkpt lat="43.7769783" lon="12.6828"><ele>151.0</ele><time>2026-04-18T13:04:57.599Z</time></trkpt><trkpt lat="43.776975" lon="12.68328"><ele>151.0</ele><time>2026-04-18T13:04:59.599Z</time></trkpt><trkpt lat="43.77696" lon="12.6834967"><ele>148.66666666666669</ele><time>2026-04-18T13:05:00.599Z</time></trkpt><trkpt lat="43.7769417" lon="12.6837033"><ele>146.33333333333334</ele><time>2026-04-18T13:05:01.599Z</time></trkpt><trkpt lat="43.7769367" lon="12.6839267"><ele>144.0</ele><time>2026-04-18T13:05:02.599Z</time></trkpt><trkpt lat="43.776925" lon="12.6841467"><ele>144.0</ele><time>2026-04-18T13:05:03.599Z</time></trkpt><trkpt lat="43.77692" lon="12.6843533"><ele>144.0</ele><time>2026-04-18T13:05:04.599Z</time></trkpt><trkpt lat="43.776935" lon="12.6845667"><ele>144.0</ele><time>2026-04-18T13:05:05.599Z</time></trkpt><trkpt lat="43.77698" lon="12.6847517"><ele>144.0</ele><time>2026-04-18T13:05:06.598Z</time></trkpt><trkpt lat="43.777055" lon="12.68494"><ele>140.33333333333334</ele><time>2026-04-18T13:05:07.599Z</time></trkpt><trkpt lat="43.7771633" lon="12.6850983"><ele>136.66666666666669</ele><time>2026-04-18T13:05:08.599Z</time></trkpt><trkpt lat="43.7772767" lon="12.6852333"><ele>133.0</ele><time>2026-04-18T13:05:09.599Z</time></trkpt><trkpt lat="43.777395" lon="12.6853467"><ele>132.33333333333334</ele><time>2026-04-18T13:05:10.599Z</time></trkpt><trkpt lat="43.7775383" lon="12.6854533"><ele>131.66666666666666</ele><time>2026-04-18T13:05:11.599Z</time></trkpt><trkpt lat="43.7776983" lon="12.6855567"><ele>131.0</ele><time>2026-04-18T13:05:12.599Z</time></trkpt><trkpt lat="43.7778417" lon="12.68567"><ele>131.0</ele><time>2026-04-18T13:05:13.599Z</time></trkpt><trkpt lat="43.777975" lon="12.685785"><ele>131.0</ele><time>2026-04-18T13:05:14.599Z</time></trkpt><trkpt lat="43.778125" lon="12.6859033"><ele>131.0</ele><time>2026-04-18T13:05:15.599Z</time></trkpt><trkpt lat="43.7782683" lon="12.6860183"><ele>130.66666666666666</ele><time>2026-04-18T13:05:16.599Z</time></trkpt><trkpt lat="43.778405" lon="12.686145"><ele>130.33333333333334</ele><time>2026-04-18T13:05:17.599Z</time></trkpt><trkpt lat="43.7785433" lon="12.6862617"><ele>130.0</ele><time>2026-04-18T13:05:18.599Z</time></trkpt><trkpt lat="43.77868" lon="12.6863767"><ele>130.0</ele><time>2026-04-18T13:05:19.599Z</time></trkpt><trkpt lat="43.7788167" lon="12.6864883"><ele>130.0</ele><time>2026-04-18T13:05:20.599Z</time></trkpt><trkpt lat="43.7789567" lon="12.6865933"><ele>130.0</ele><time>2026-04-18T13:05:21.599Z</time></trkpt><trkpt lat="43.7790917" lon="12.686695"><ele>130.0</ele><time>2026-04-18T13:05:22.599Z</time></trkpt><trkpt lat="43.77922" lon="12.6867917"><ele>130.0</ele><time>2026-04-18T13:05:23.599Z</time></trkpt><trkpt lat="43.77937" lon="12.6868783"><ele>130.0</ele><time>2026-04-18T13:05:24.599Z</time></trkpt><trkpt lat="43.779525" lon="12.68698"><ele>129.66666666666669</ele><time>2026-04-18T13:05:25.599Z</time></trkpt><trkpt lat="43.7796867" lon="12.6870833"><ele>129.33333333333334</ele><time>2026-04-18T13:05:26.599Z</time></trkpt><trkpt lat="43.7798467" lon="12.68719"><ele>129.0</ele><time>2026-04-18T13:05:27.599Z</time></trkpt><trkpt lat="43.7800067" lon="12.68728"><ele>129.0</ele><time>2026-04-18T13:05:28.599Z</time></trkpt><trkpt lat="43.780165" lon="12.687365"><ele>129.0</ele><time>2026-04-18T13:05:29.599Z</time></trkpt><trkpt lat="43.7803167" lon="12.68748"><ele>129.0</ele><time>2026-04-18T13:05:30.599Z</time></trkpt><trkpt lat="43.7804633" lon="12.6876033"><ele>129.33333333333334</ele><time>2026-04-18T13:05:31.599Z</time></trkpt><trkpt lat="43.7806017" lon="12.68774"><ele>129.66666666666669</ele><time>2026-04-18T13:05:32.599Z</time></trkpt><trkpt lat="43.7807283" lon="12.6878933"><ele>130.0</ele><time>2026-04-18T13:05:33.599Z</time></trkpt><trkpt lat="43.780845" lon="12.6880633"><ele>129.33333333333334</ele><time>2026-04-18T13:05:34.599Z</time></trkpt><trkpt lat="43.7809483" lon="12.6882383"><ele>128.66666666666666</ele><time>2026-04-18T13:05:35.599Z</time></trkpt><trkpt lat="43.7810383" lon="12.6884183"><ele>128.0</ele><time>2026-04-18T13:05:36.599Z</time></trkpt><trkpt lat="43.781125" lon="12.6885833"><ele>128.5</ele><time>2026-04-18T13:05:37.599Z</time></trkpt><trkpt lat="43.7812167" lon="12.6887467"><ele>129.0</ele><time>2026-04-18T13:05:38.599Z</time></trkpt><trkpt lat="43.7813017" lon="12.68891"><ele>129.5</ele><time>2026-04-18T13:05:39.599Z</time></trkpt><trkpt lat="43.7813817" lon="12.6890717"><ele>130.0</ele><time>2026-04-18T13:05:40.599Z</time></trkpt><trkpt lat="43.7814583" lon="12.6892467"><ele>128.66666666666669</ele><time>2026-04-18T13:05:41.599Z</time></trkpt><trkpt lat="43.7815267" lon="12.6894417"><ele>127.33333333333334</ele><time>2026-04-18T13:05:42.599Z</time></trkpt><trkpt lat="43.7815867" lon="12.6896467"><ele>126.0</ele><time>2026-04-18T13:05:43.599Z</time></trkpt><trkpt lat="43.78164" lon="12.6898467"><ele>126.0</ele><time>2026-04-18T13:05:44.599Z</time></trkpt><trkpt lat="43.7816917" lon="12.6900517"><ele>126.0</ele><time>2026-04-18T13:05:45.599Z</time></trkpt><trkpt lat="43.781745" lon="12.6902533"><ele>126.0</ele><time>2026-04-18T13:05:46.599Z</time></trkpt><trkpt lat="43.7817983" lon="12.6904583"><ele>125.66666666666666</ele><time>2026-04-18T13:05:47.599Z</time></trkpt><trkpt lat="43.7818467" lon="12.6906667"><ele>125.33333333333333</ele><time>2026-04-18T13:05:48.599Z</time></trkpt><trkpt lat="43.7819033" lon="12.690885"><ele>125.0</ele><time>2026-04-18T13:05:49.599Z</time></trkpt><trkpt lat="43.7819517" lon="12.6910983"><ele>129.0</ele><time>2026-04-18T13:05:50.599Z</time></trkpt><trkpt lat="43.7819933" lon="12.6913117"><ele>133.0</ele><time>2026-04-18T13:05:51.599Z</time></trkpt><trkpt lat="43.7820217" lon="12.6915283"><ele>137.0</ele><time>2026-04-18T13:05:52.599Z</time></trkpt><trkpt lat="43.7820433" lon="12.691735"><ele>135.33333333333331</ele><time>2026-04-18T13:05:53.599Z</time></trkpt><trkpt lat="43.782055" lon="12.6919417"><ele>133.66666666666666</ele><time>2026-04-18T13:05:54.599Z</time></trkpt><trkpt lat="43.7820517" lon="12.6921483"><ele>132.0</ele><time>2026-04-18T13:05:55.599Z</time></trkpt><trkpt lat="43.78205" lon="12.6923617"><ele>132.0</ele><time>2026-04-18T13:05:56.599Z</time></trkpt><trkpt lat="43.7820317" lon="12.692575"><ele>132.0</ele><time>2026-04-18T13:05:57.599Z</time></trkpt><trkpt lat="43.78201" lon="12.6928033"><ele>132.0</ele><time>2026-04-18T13:05:58.599Z</time></trkpt><trkpt lat="43.7819767" lon="12.6930333"><ele>132.0</ele><time>2026-04-18T13:05:59.599Z</time></trkpt><trkpt lat="43.78194" lon="12.6932667"><ele>132.0</ele><time>2026-04-18T13:06:00.599Z</time></trkpt><trkpt lat="43.7818983" lon="12.6934983"><ele>132.0</ele><time>2026-04-18T13:06:01.599Z</time></trkpt><trkpt lat="43.78185" lon="12.693715"><ele>129.33333333333334</ele><time>2026-04-18T13:06:02.599Z</time></trkpt><trkpt lat="43.7818033" lon="12.69393"><ele>126.66666666666667</ele><time>2026-04-18T13:06:03.599Z</time></trkpt><trkpt lat="43.781765" lon="12.694145"><ele>124.0</ele><time>2026-04-18T13:06:04.599Z</time></trkpt><trkpt lat="43.78174" lon="12.694365"><ele>125.0</ele><time>2026-04-18T13:06:05.599Z</time></trkpt><trkpt lat="43.7817" lon="12.6945717"><ele>126.0</ele><time>2026-04-18T13:06:06.599Z</time></trkpt><trkpt lat="43.7816533" lon="12.6947717"><ele>127.0</ele><time>2026-04-18T13:06:07.599Z</time></trkpt><trkpt lat="43.7816067" lon="12.694975"><ele>127.0</ele><time>2026-04-18T13:06:08.598Z</time></trkpt><trkpt lat="43.7815683" lon="12.69518"><ele>127.0</ele><time>2026-04-18T13:06:09.599Z</time></trkpt><trkpt lat="43.7815233" lon="12.6953833"><ele>127.0</ele><time>2026-04-18T13:06:10.599Z</time></trkpt><trkpt lat="43.781485" lon="12.69557"><ele>127.0</ele><time>2026-04-18T13:06:11.599Z</time></trkpt><trkpt lat="43.7814483" lon="12.6957617"><ele>126.0</ele><time>2026-04-18T13:06:12.599Z</time></trkpt><trkpt lat="43.7814133" lon="12.695965"><ele>125.0</ele><time>2026-04-18T13:06:13.599Z</time></trkpt><trkpt lat="43.7813683" lon="12.6961717"><ele>124.0</ele><time>2026-04-18T13:06:14.599Z</time></trkpt><trkpt lat="43.7813183" lon="12.696385"><ele>124.0</ele><time>2026-04-18T13:06:15.599Z</time></trkpt><trkpt lat="43.7812717" lon="12.69661"><ele>124.0</ele><time>2026-04-18T13:06:16.599Z</time></trkpt><trkpt lat="43.7812383" lon="12.6968433"><ele>124.0</ele><time>2026-04-18T13:06:17.599Z</time></trkpt><trkpt lat="43.7811967" lon="12.6970767"><ele>124.0</ele><time>2026-04-18T13:06:18.599Z</time></trkpt><trkpt lat="43.781155" lon="12.6973067"><ele>124.0</ele><time>2026-04-18T13:06:19.599Z</time></trkpt><trkpt lat="43.7811133" lon="12.6975333"><ele>124.0</ele><time>2026-04-18T13:06:20.599Z</time></trkpt><trkpt lat="43.7810567" lon="12.6977483"><ele>123.33333333333334</ele><time>2026-04-18T13:06:21.599Z</time></trkpt><trkpt lat="43.78102" lon="12.697965"><ele>122.66666666666666</ele><time>2026-04-18T13:06:22.599Z</time></trkpt><trkpt lat="43.78098" lon="12.6981733"><ele>122.0</ele><time>2026-04-18T13:06:23.599Z</time></trkpt><trkpt lat="43.7809433" lon="12.69838"><ele>122.33333333333333</ele><time>2026-04-18T13:06:24.599Z</time></trkpt><trkpt lat="43.78091" lon="12.6985983"><ele>122.66666666666666</ele><time>2026-04-18T13:06:25.599Z</time></trkpt><trkpt lat="43.7808717" lon="12.6988117"><ele>123.0</ele><time>2026-04-18T13:06:26.599Z</time></trkpt><trkpt lat="43.7808283" lon="12.6990233"><ele>123.0</ele><time>2026-04-18T13:06:27.599Z</time></trkpt><trkpt lat="43.7807667" lon="12.699235"><ele>123.0</ele><time>2026-04-18T13:06:28.599Z</time></trkpt><trkpt lat="43.7807167" lon="12.6994717"><ele>123.0</ele><time>2026-04-18T13:06:29.599Z</time></trkpt><trkpt lat="43.78068" lon="12.6997"><ele>122.66666666666666</ele><time>2026-04-18T13:06:30.599Z</time></trkpt><trkpt lat="43.7806467" lon="12.6999183"><ele>122.33333333333333</ele><time>2026-04-18T13:06:31.599Z</time></trkpt><trkpt lat="43.78062" lon="12.70012"><ele>122.0</ele><time>2026-04-18T13:06:32.599Z</time></trkpt><trkpt lat="43.7805817" lon="12.70032"><ele>122.0</ele><time>2026-04-18T13:06:33.599Z</time></trkpt><trkpt lat="43.78055" lon="12.7005233"><ele>122.0</ele><time>2026-04-18T13:06:34.599Z</time></trkpt><trkpt lat="43.780525" lon="12.700735"><ele>122.0</ele><time>2026-04-18T13:06:35.599Z</time></trkpt><trkpt lat="43.7805067" lon="12.7009467"><ele>121.66666666666666</ele><time>2026-04-18T13:06:36.599Z</time></trkpt><trkpt lat="43.780495" lon="12.7011667"><ele>121.33333333333334</ele><time>2026-04-18T13:06:37.599Z</time></trkpt><trkpt lat="43.7804933" lon="12.7013933"><ele>121.0</ele><time>2026-04-18T13:06:38.599Z</time></trkpt><trkpt lat="43.7804933" lon="12.7016217"><ele>121.0</ele><time>2026-04-18T13:06:39.599Z</time></trkpt><trkpt lat="43.780495" lon="12.7018383"><ele>121.0</ele><time>2026-04-18T13:06:40.599Z</time></trkpt><trkpt lat="43.7805083" lon="12.702055"><ele>121.0</ele><time>2026-04-18T13:06:41.599Z</time></trkpt><trkpt lat="43.78053" lon="12.7022667"><ele>121.0</ele><time>2026-04-18T13:06:42.599Z</time></trkpt><trkpt lat="43.780555" lon="12.7024733"><ele>121.0</ele><time>2026-04-18T13:06:43.599Z</time></trkpt><trkpt lat="43.7805967" lon="12.70268"><ele>121.0</ele><time>2026-04-18T13:06:44.599Z</time></trkpt><trkpt lat="43.780635" lon="12.7028883"><ele>120.66666666666667</ele><time>2026-04-18T13:06:45.599Z</time></trkpt><trkpt lat="43.78068" lon="12.70309"><ele>120.33333333333334</ele><time>2026-04-18T13:06:46.599Z</time></trkpt><trkpt lat="43.7807233" lon="12.703285"><ele>120.0</ele><time>2026-04-18T13:06:47.599Z</time></trkpt><trkpt lat="43.7807717" lon="12.7035033"><ele>119.0</ele><time>2026-04-18T13:06:48.599Z</time></trkpt><trkpt lat="43.78081" lon="12.7037183"><ele>118.0</ele><time>2026-04-18T13:06:49.599Z</time></trkpt><trkpt lat="43.78085" lon="12.70393"><ele>117.0</ele><time>2026-04-18T13:06:50.599Z</time></trkpt><trkpt lat="43.780875" lon="12.70415"><ele>117.0</ele><time>2026-04-18T13:06:51.598Z</time></trkpt><trkpt lat="43.7808833" lon="12.7043683"><ele>117.0</ele><time>2026-04-18T13:06:52.598Z</time></trkpt><trkpt lat="43.7808817" lon="12.7046133"><ele>117.0</ele><time>2026-04-18T13:06:53.598Z</time></trkpt><trkpt lat="43.7808683" lon="12.704865"><ele>116.0</ele><time>2026-04-18T13:06:54.598Z</time></trkpt><trkpt lat="43.7808383" lon="12.7051267"><ele>115.0</ele><time>2026-04-18T13:06:55.598Z</time></trkpt><trkpt lat="43.7808" lon="12.7053883"><ele>114.0</ele><time>2026-04-18T13:06:56.597Z</time></trkpt><trkpt lat="43.7807517" lon="12.70566"><ele>113.66666666666666</ele><time>2026-04-18T13:06:57.598Z</time></trkpt><trkpt lat="43.7807" lon="12.7059283"><ele>113.33333333333333</ele><time>2026-04-18T13:06:58.598Z</time></trkpt><trkpt lat="43.78066" lon="12.7062033"><ele>113.0</ele><time>2026-04-18T13:06:59.598Z</time></trkpt><trkpt lat="43.7806233" lon="12.7064767"><ele>113.0</ele><time>2026-04-18T13:07:00.598Z</time></trkpt><trkpt lat="43.7805967" lon="12.7067483"><ele>113.0</ele><time>2026-04-18T13:07:01.598Z</time></trkpt><trkpt lat="43.780605" lon="12.7070383"><ele>113.0</ele><time>2026-04-18T13:07:02.598Z</time></trkpt><trkpt lat="43.7806267" lon="12.7073267"><ele>113.0</ele><time>2026-04-18T13:07:03.598Z</time></trkpt><trkpt lat="43.7806483" lon="12.70762"><ele>113.0</ele><time>2026-04-18T13:07:04.598Z</time></trkpt><trkpt lat="43.7806683" lon="12.7079167"><ele>113.0</ele><time>2026-04-18T13:07:05.598Z</time></trkpt><trkpt lat="43.78069" lon="12.70822"><ele>113.66666666666666</ele><time>2026-04-18T13:07:06.598Z</time></trkpt><trkpt lat="43.7807117" lon="12.7085133"><ele>114.33333333333334</ele><time>2026-04-18T13:07:07.598Z</time></trkpt><trkpt lat="43.78074" lon="12.70881"><ele>115.0</ele><time>2026-04-18T13:07:08.598Z</time></trkpt><trkpt lat="43.7807767" lon="12.7090967"><ele>116.66666666666667</ele><time>2026-04-18T13:07:09.598Z</time></trkpt><trkpt lat="43.78083" lon="12.7093783"><ele>118.33333333333334</ele><time>2026-04-18T13:07:10.598Z</time></trkpt><trkpt lat="43.7809067" lon="12.70964"><ele>120.0</ele><time>2026-04-18T13:07:11.598Z</time></trkpt><trkpt lat="43.780995" lon="12.7098983"><ele>119.0</ele><time>2026-04-18T13:07:12.598Z</time></trkpt><trkpt lat="43.7810983" lon="12.7101517"><ele>118.0</ele><time>2026-04-18T13:07:13.598Z</time></trkpt><trkpt lat="43.78122" lon="12.710395"><ele>117.0</ele><time>2026-04-18T13:07:14.598Z</time></trkpt><trkpt lat="43.78135" lon="12.7106417"><ele>117.0</ele><time>2026-04-18T13:07:15.598Z</time></trkpt><trkpt lat="43.7814783" lon="12.7108833"><ele>117.0</ele><time>2026-04-18T13:07:16.598Z</time></trkpt><trkpt lat="43.781605" lon="12.7111133"><ele>117.0</ele><time>2026-04-18T13:07:17.598Z</time></trkpt><trkpt lat="43.7817233" lon="12.71135"><ele>117.0</ele><time>2026-04-18T13:07:18.598Z</time></trkpt><trkpt lat="43.7818367" lon="12.7115883"><ele>117.0</ele><time>2026-04-18T13:07:19.598Z</time></trkpt><trkpt lat="43.7819367" lon="12.7118467"><ele>117.0</ele><time>2026-04-18T13:07:20.598Z</time></trkpt><trkpt lat="43.7820233" lon="12.7121167"><ele>120.33333333333334</ele><time>2026-04-18T13:07:21.598Z</time></trkpt><trkpt lat="43.7820867" lon="12.7123933"><ele>123.66666666666667</ele><time>2026-04-18T13:07:22.598Z</time></trkpt><trkpt lat="43.782125" lon="12.7126717"><ele>127.0</ele><time>2026-04-18T13:07:23.598Z</time></trkpt><trkpt lat="43.7821483" lon="12.71295"><ele>127.5</ele><time>2026-04-18T13:07:24.598Z</time></trkpt><trkpt lat="43.7821733" lon="12.71352"><ele>128.0</ele><time>2026-04-18T13:07:26.598Z</time></trkpt><trkpt lat="43.78218" lon="12.7138117"><ele>128.0</ele><time>2026-04-18T13:07:27.598Z</time></trkpt><trkpt lat="43.7821783" lon="12.7141017"><ele>128.0</ele><time>2026-04-18T13:07:28.598Z</time></trkpt><trkpt lat="43.782185" lon="12.7143933"><ele>128.0</ele><time>2026-04-18T13:07:29.598Z</time></trkpt><trkpt lat="43.7822" lon="12.714685"><ele>127.33333333333333</ele><time>2026-04-18T13:07:30.598Z</time></trkpt><trkpt lat="43.7822133" lon="12.7149917"><ele>126.66666666666666</ele><time>2026-04-18T13:07:31.598Z</time></trkpt><trkpt lat="43.7822517" lon="12.715285"><ele>126.0</ele><time>2026-04-18T13:07:32.598Z</time></trkpt><trkpt lat="43.7823183" lon="12.7155833"><ele>124.0</ele><time>2026-04-18T13:07:33.598Z</time></trkpt><trkpt lat="43.7824067" lon="12.7158683"><ele>122.0</ele><time>2026-04-18T13:07:34.598Z</time></trkpt><trkpt lat="43.78252" lon="12.716125"><ele>120.0</ele><time>2026-04-18T13:07:35.598Z</time></trkpt><trkpt lat="43.782655" lon="12.71638"><ele>113.0</ele><time>2026-04-18T13:07:36.598Z</time></trkpt><trkpt lat="43.7828017" lon="12.716625"><ele>106.0</ele><time>2026-04-18T13:07:37.598Z</time></trkpt><trkpt lat="43.7829567" lon="12.716865"><ele>105.5</ele><time>2026-04-18T13:07:38.598Z</time></trkpt><trkpt lat="43.7831183" lon="12.7171033"><ele>105.0</ele><time>2026-04-18T13:07:39.598Z</time></trkpt><trkpt lat="43.7832767" lon="12.7173533"><ele>105.0</ele><time>2026-04-18T13:07:40.598Z</time></trkpt><trkpt lat="43.7834317" lon="12.7175983"><ele>105.0</ele><time>2026-04-18T13:07:41.598Z</time></trkpt><trkpt lat="43.7835933" lon="12.7178517"><ele>105.5</ele><time>2026-04-18T13:07:42.598Z</time></trkpt><trkpt lat="43.7837467" lon="12.7180883"><ele>106.0</ele><time>2026-04-18T13:07:43.598Z</time></trkpt><trkpt lat="43.7838983" lon="12.7183267"><ele>106.0</ele><time>2026-04-18T13:07:44.598Z</time></trkpt><trkpt lat="43.7840517" lon="12.7185483"><ele>106.0</ele><time>2026-04-18T13:07:45.598Z</time></trkpt><trkpt lat="43.78421" lon="12.71874"><ele>106.0</ele><time>2026-04-18T13:07:46.598Z</time></trkpt><trkpt lat="43.7844033" lon="12.7189033"><ele>106.33333333333334</ele><time>2026-04-18T13:07:47.598Z</time></trkpt><trkpt lat="43.7846083" lon="12.719025"><ele>106.66666666666666</ele><time>2026-04-18T13:07:48.598Z</time></trkpt><trkpt lat="43.784815" lon="12.7191167"><ele>107.0</ele><time>2026-04-18T13:07:49.598Z</time></trkpt><trkpt lat="43.7850133" lon="12.7192117"><ele>106.33333333333333</ele><time>2026-04-18T13:07:50.598Z</time></trkpt><trkpt lat="43.785215" lon="12.719305"><ele>105.66666666666666</ele><time>2026-04-18T13:07:51.598Z</time></trkpt><trkpt lat="43.785405" lon="12.7194267"><ele>105.0</ele><time>2026-04-18T13:07:52.598Z</time></trkpt><trkpt lat="43.78559" lon="12.7195817"><ele>105.0</ele><time>2026-04-18T13:07:53.598Z</time></trkpt><trkpt lat="43.7857583" lon="12.7197717"><ele>105.0</ele><time>2026-04-18T13:07:54.598Z</time></trkpt><trkpt lat="43.7859233" lon="12.7199817"><ele>105.0</ele><time>2026-04-18T13:07:55.598Z</time></trkpt><trkpt lat="43.7860833" lon="12.720205"><ele>105.5</ele><time>2026-04-18T13:07:56.598Z</time></trkpt><trkpt lat="43.7862517" lon="12.720425"><ele>106.0</ele><time>2026-04-18T13:07:57.598Z</time></trkpt><trkpt lat="43.7864167" lon="12.7206467"><ele>106.0</ele><time>2026-04-18T13:07:58.598Z</time></trkpt><trkpt lat="43.786585" lon="12.7208533"><ele>106.0</ele><time>2026-04-18T13:07:59.598Z</time></trkpt><trkpt lat="43.78676" lon="12.7210517"><ele>104.5</ele><time>2026-04-18T13:08:00.598Z</time></trkpt><trkpt lat="43.7869367" lon="12.7212517"><ele>103.0</ele><time>2026-04-18T13:08:01.598Z</time></trkpt><trkpt lat="43.7871117" lon="12.7214533"><ele>103.0</ele><time>2026-04-18T13:08:02.598Z</time></trkpt><trkpt lat="43.7872817" lon="12.7216517"><ele>103.0</ele><time>2026-04-18T13:08:03.598Z</time></trkpt><trkpt lat="43.7874617" lon="12.7218483"><ele>102.0</ele><time>2026-04-18T13:08:04.598Z</time></trkpt><trkpt lat="43.78764" lon="12.72204"><ele>101.0</ele><time>2026-04-18T13:08:05.598Z</time></trkpt><trkpt lat="43.78782" lon="12.7222383"><ele>101.0</ele><time>2026-04-18T13:08:06.598Z</time></trkpt><trkpt lat="43.7879983" lon="12.7224317"><ele>101.0</ele><time>2026-04-18T13:08:07.598Z</time></trkpt><trkpt lat="43.7881683" lon="12.7226217"><ele>101.0</ele><time>2026-04-18T13:08:08.598Z</time></trkpt><trkpt lat="43.7883383" lon="12.72281"><ele>100.0</ele><time>2026-04-18T13:08:09.598Z</time></trkpt><trkpt lat="43.7885083" lon="12.723005"><ele>99.0</ele><time>2026-04-18T13:08:10.598Z</time></trkpt><trkpt lat="43.7886733" lon="12.7231917"><ele>98.0</ele><time>2026-04-18T13:08:11.598Z</time></trkpt><trkpt lat="43.7888433" lon="12.7233767"><ele>98.0</ele><time>2026-04-18T13:08:12.598Z</time></trkpt><trkpt lat="43.7890117" lon="12.72356"><ele>98.0</ele><time>2026-04-18T13:08:13.598Z</time></trkpt><trkpt lat="43.7891833" lon="12.723735"><ele>98.0</ele><time>2026-04-18T13:08:14.598Z</time></trkpt><trkpt lat="43.7893583" lon="12.7238883"><ele>98.0</ele><time>2026-04-18T13:08:15.598Z</time></trkpt><trkpt lat="43.78954" lon="12.7240217"><ele>98.0</ele><time>2026-04-18T13:08:16.598Z</time></trkpt><trkpt lat="43.7897283" lon="12.724135"><ele>98.0</ele><time>2026-04-18T13:08:17.598Z</time></trkpt><trkpt lat="43.7899283" lon="12.724225"><ele>98.0</ele><time>2026-04-18T13:08:18.598Z</time></trkpt><trkpt lat="43.7901283" lon="12.724295"><ele>98.0</ele><time>2026-04-18T13:08:19.598Z</time></trkpt><trkpt lat="43.7903383" lon="12.724345"><ele>98.0</ele><time>2026-04-18T13:08:20.598Z</time></trkpt><trkpt lat="43.7905483" lon="12.7243717"><ele>99.33333333333333</ele><time>2026-04-18T13:08:21.598Z</time></trkpt><trkpt lat="43.79076" lon="12.7243733"><ele>100.66666666666666</ele><time>2026-04-18T13:08:22.598Z</time></trkpt><trkpt lat="43.7909783" lon="12.724335"><ele>102.0</ele><time>2026-04-18T13:08:23.598Z</time></trkpt><trkpt lat="43.7911917" lon="12.7242717"><ele>103.0</ele><time>2026-04-18T13:08:24.598Z</time></trkpt><trkpt lat="43.79141" lon="12.7242017"><ele>104.0</ele><time>2026-04-18T13:08:25.598Z</time></trkpt><trkpt lat="43.791625" lon="12.7241217"><ele>105.0</ele><time>2026-04-18T13:08:26.598Z</time></trkpt><trkpt lat="43.7918467" lon="12.7240467"><ele>105.66666666666666</ele><time>2026-04-18T13:08:27.598Z</time></trkpt><trkpt lat="43.7920567" lon="12.7239667"><ele>106.33333333333333</ele><time>2026-04-18T13:08:28.598Z</time></trkpt><trkpt lat="43.79227" lon="12.7238867"><ele>107.0</ele><time>2026-04-18T13:08:29.598Z</time></trkpt><trkpt lat="43.7924883" lon="12.72381"><ele>107.33333333333333</ele><time>2026-04-18T13:08:30.598Z</time></trkpt><trkpt lat="43.7926933" lon="12.7237417"><ele>107.66666666666666</ele><time>2026-04-18T13:08:31.598Z</time></trkpt><trkpt lat="43.7928983" lon="12.723675"><ele>108.0</ele><time>2026-04-18T13:08:32.598Z</time></trkpt><trkpt lat="43.7930917" lon="12.7236067"><ele>105.0</ele><time>2026-04-18T13:08:33.598Z</time></trkpt><trkpt lat="43.7932817" lon="12.7235417"><ele>102.0</ele><time>2026-04-18T13:08:34.598Z</time></trkpt><trkpt lat="43.7934667" lon="12.7234767"><ele>99.0</ele><time>2026-04-18T13:08:35.598Z</time></trkpt><trkpt lat="43.7936433" lon="12.72341"><ele>98.33333333333334</ele><time>2026-04-18T13:08:36.598Z</time></trkpt><trkpt lat="43.793835" lon="12.7233467"><ele>97.66666666666667</ele><time>2026-04-18T13:08:37.598Z</time></trkpt><trkpt lat="43.794015" lon="12.7232917"><ele>97.0</ele><time>2026-04-18T13:08:38.598Z</time></trkpt><trkpt lat="43.7941933" lon="12.7232267"><ele>95.66666666666667</ele><time>2026-04-18T13:08:39.598Z</time></trkpt><trkpt lat="43.79437" lon="12.7231683"><ele>94.33333333333334</ele><time>2026-04-18T13:08:40.598Z</time></trkpt><trkpt lat="43.7945483" lon="12.723105"><ele>93.0</ele><time>2026-04-18T13:08:41.598Z</time></trkpt><trkpt lat="43.7947217" lon="12.723045"><ele>93.0</ele><time>2026-04-18T13:08:42.598Z</time></trkpt><trkpt lat="43.794885" lon="12.7229833"><ele>93.0</ele><time>2026-04-18T13:08:43.598Z</time></trkpt><trkpt lat="43.795045" lon="12.722925"><ele>93.0</ele><time>2026-04-18T13:08:44.598Z</time></trkpt><trkpt lat="43.7952017" lon="12.7228783"><ele>93.5</ele><time>2026-04-18T13:08:45.598Z</time></trkpt><trkpt lat="43.795345" lon="12.7228283"><ele>94.0</ele><time>2026-04-18T13:08:46.598Z</time></trkpt><trkpt lat="43.7954767" lon="12.7227933"><ele>94.5</ele><time>2026-04-18T13:08:47.598Z</time></trkpt><trkpt lat="43.7955967" lon="12.7227683"><ele>95.0</ele><time>2026-04-18T13:08:48.598Z</time></trkpt><trkpt lat="43.7957083" lon="12.722745"><ele>95.6</ele><time>2026-04-18T13:08:49.598Z</time></trkpt><trkpt lat="43.7958167" lon="12.7227283"><ele>96.2</ele><time>2026-04-18T13:08:50.598Z</time></trkpt><trkpt lat="43.7959183" lon="12.7227117"><ele>96.80000000000001</ele><time>2026-04-18T13:08:51.598Z</time></trkpt><trkpt lat="43.79601" lon="12.7226867"><ele>97.4</ele><time>2026-04-18T13:08:52.598Z</time></trkpt><trkpt lat="43.7961" lon="12.72266"><ele>98.0</ele><time>2026-04-18T13:08:53.598Z</time></trkpt><trkpt lat="43.796185" lon="12.722645"><ele>99.60000000000001</ele><time>2026-04-18T13:08:54.598Z</time></trkpt><trkpt lat="43.7962683" lon="12.7226517"><ele>101.2</ele><time>2026-04-18T13:08:55.598Z</time></trkpt><trkpt lat="43.7963433" lon="12.7226717"><ele>102.8</ele><time>2026-04-18T13:08:56.598Z</time></trkpt><trkpt lat="43.796425" lon="12.7226867"><ele>104.4</ele><time>2026-04-18T13:08:57.598Z</time></trkpt><trkpt lat="43.7965183" lon="12.7226933"><ele>106.0</ele><time>2026-04-18T13:08:58.598Z</time></trkpt><trkpt lat="43.7966333" lon="12.7226933"><ele>106.0</ele><time>2026-04-18T13:08:59.598Z</time></trkpt><trkpt lat="43.796765" lon="12.7226933"><ele>106.0</ele><time>2026-04-18T13:09:00.598Z</time></trkpt><trkpt lat="43.796915" lon="12.7226983"><ele>106.0</ele><time>2026-04-18T13:09:01.598Z</time></trkpt><trkpt lat="43.7970833" lon="12.7227133"><ele>103.33333333333334</ele><time>2026-04-18T13:09:02.598Z</time></trkpt><trkpt lat="43.7972517" lon="12.7227333"><ele>100.66666666666666</ele><time>2026-04-18T13:09:03.598Z</time></trkpt><trkpt lat="43.7974133" lon="12.72275"><ele>98.0</ele><time>2026-04-18T13:09:04.598Z</time></trkpt><trkpt lat="43.7975717" lon="12.7227683"><ele>97.66666666666666</ele><time>2026-04-18T13:09:05.598Z</time></trkpt><trkpt lat="43.797735" lon="12.7227867"><ele>97.33333333333334</ele><time>2026-04-18T13:09:06.598Z</time></trkpt><trkpt lat="43.7978983" lon="12.7228133"><ele>97.0</ele><time>2026-04-18T13:09:07.598Z</time></trkpt><trkpt lat="43.798065" lon="12.7228333"><ele>97.0</ele><time>2026-04-18T13:09:08.598Z</time></trkpt><trkpt lat="43.7982283" lon="12.722855"><ele>97.0</ele><time>2026-04-18T13:09:09.598Z</time></trkpt><trkpt lat="43.7983917" lon="12.7228783"><ele>97.0</ele><time>2026-04-18T13:09:10.598Z</time></trkpt><trkpt lat="43.798545" lon="12.7229"><ele>96.33333333333334</ele><time>2026-04-18T13:09:11.598Z</time></trkpt><trkpt lat="43.7987" lon="12.7229183"><ele>95.66666666666667</ele><time>2026-04-18T13:09:12.598Z</time></trkpt><trkpt lat="43.7988567" lon="12.7229333"><ele>95.0</ele><time>2026-04-18T13:09:13.598Z</time></trkpt><trkpt lat="43.79903" lon="12.72295"><ele>95.0</ele><time>2026-04-18T13:09:14.598Z</time></trkpt><trkpt lat="43.7992067" lon="12.7229533"><ele>95.0</ele><time>2026-04-18T13:09:15.598Z</time></trkpt><trkpt lat="43.7994067" lon="12.722935"><ele>95.0</ele><time>2026-04-18T13:09:16.598Z</time></trkpt><trkpt lat="43.7996233" lon="12.72289"><ele>95.5</ele><time>2026-04-18T13:09:17.598Z</time></trkpt><trkpt lat="43.7998767" lon="12.7228483"><ele>96.0</ele><time>2026-04-18T13:09:18.598Z</time></trkpt><trkpt lat="43.80013" lon="12.7227883"><ele>97.5</ele><time>2026-04-18T13:09:19.598Z</time></trkpt><trkpt lat="43.8004" lon="12.722715"><ele>99.0</ele><time>2026-04-18T13:09:20.598Z</time></trkpt><trkpt lat="43.8006717" lon="12.7226467"><ele>99.0</ele><time>2026-04-18T13:09:21.598Z</time></trkpt><trkpt lat="43.80093" lon="12.722585"><ele>99.0</ele><time>2026-04-18T13:09:22.598Z</time></trkpt><trkpt lat="43.8011883" lon="12.722555"><ele>95.0</ele><time>2026-04-18T13:09:23.598Z</time></trkpt><trkpt lat="43.80145" lon="12.7225383"><ele>91.0</ele><time>2026-04-18T13:09:24.598Z</time></trkpt><trkpt lat="43.801705" lon="12.72255"><ele>90.5</ele><time>2026-04-18T13:09:25.598Z</time></trkpt><trkpt lat="43.8019617" lon="12.7225967"><ele>90.0</ele><time>2026-04-18T13:09:26.598Z</time></trkpt><trkpt lat="43.80221" lon="12.72267"><ele>88.5</ele><time>2026-04-18T13:09:27.598Z</time></trkpt><trkpt lat="43.8024483" lon="12.72276"><ele>87.0</ele><time>2026-04-18T13:09:28.598Z</time></trkpt><trkpt lat="43.80268" lon="12.72289"><ele>92.5</ele><time>2026-04-18T13:09:29.598Z</time></trkpt><trkpt lat="43.8029133" lon="12.7230433"><ele>98.0</ele><time>2026-04-18T13:09:30.598Z</time></trkpt><trkpt lat="43.8031367" lon="12.7232083"><ele>98.0</ele><time>2026-04-18T13:09:31.598Z</time></trkpt><trkpt lat="43.8033583" lon="12.7233917"><ele>98.0</ele><time>2026-04-18T13:09:32.598Z</time></trkpt><trkpt lat="43.8035767" lon="12.7235783"><ele>97.0</ele><time>2026-04-18T13:09:33.598Z</time></trkpt><trkpt lat="43.8037983" lon="12.723775"><ele>96.0</ele><time>2026-04-18T13:09:34.598Z</time></trkpt><trkpt lat="43.80402" lon="12.7239783"><ele>96.0</ele><time>2026-04-18T13:09:35.598Z</time></trkpt><trkpt lat="43.8042583" lon="12.7241667"><ele>96.0</ele><time>2026-04-18T13:09:36.598Z</time></trkpt><trkpt lat="43.8044933" lon="12.7243333"><ele>93.5</ele><time>2026-04-18T13:09:37.598Z</time></trkpt><trkpt lat="43.80473" lon="12.724495"><ele>91.0</ele><time>2026-04-18T13:09:38.598Z</time></trkpt><trkpt lat="43.8049567" lon="12.7246483"><ele>95.0</ele><time>2026-04-18T13:09:39.598Z</time></trkpt><trkpt lat="43.8051683" lon="12.7247967"><ele>99.0</ele><time>2026-04-18T13:09:40.597Z</time></trkpt><trkpt lat="43.8053583" lon="12.7249433"><ele>99.0</ele><time>2026-04-18T13:09:41.598Z</time></trkpt><trkpt lat="43.8055383" lon="12.7250967"><ele>99.0</ele><time>2026-04-18T13:09:42.598Z</time></trkpt><trkpt lat="43.8057083" lon="12.7252517"><ele>99.0</ele><time>2026-04-18T13:09:43.598Z</time></trkpt><trkpt lat="43.8058883" lon="12.7253817"><ele>98.0</ele><time>2026-04-18T13:09:44.598Z</time></trkpt><trkpt lat="43.806085" lon="12.725505"><ele>97.0</ele><time>2026-04-18T13:09:45.598Z</time></trkpt><trkpt lat="43.8062683" lon="12.72562"><ele>96.0</ele><time>2026-04-18T13:09:46.598Z</time></trkpt><trkpt lat="43.8064683" lon="12.7257317"><ele>96.0</ele><time>2026-04-18T13:09:47.598Z</time></trkpt><trkpt lat="43.8066483" lon="12.7258333"><ele>96.0</ele><time>2026-04-18T13:09:48.598Z</time></trkpt><trkpt lat="43.8068283" lon="12.7259467"><ele>96.0</ele><time>2026-04-18T13:09:49.598Z</time></trkpt><trkpt lat="43.8070217" lon="12.7260633"><ele>96.33333333333334</ele><time>2026-04-18T13:09:50.598Z</time></trkpt><trkpt lat="43.8072033" lon="12.7261517"><ele>96.66666666666667</ele><time>2026-04-18T13:09:51.598Z</time></trkpt><trkpt lat="43.8073883" lon="12.7262183"><ele>97.0</ele><time>2026-04-18T13:09:52.598Z</time></trkpt><trkpt lat="43.8075983" lon="12.7262867"><ele>95.66666666666667</ele><time>2026-04-18T13:09:53.598Z</time></trkpt><trkpt lat="43.8078017" lon="12.7263517"><ele>94.33333333333334</ele><time>2026-04-18T13:09:54.598Z</time></trkpt><trkpt lat="43.80801" lon="12.7264233"><ele>93.0</ele><time>2026-04-18T13:09:55.598Z</time></trkpt><trkpt lat="43.8082333" lon="12.72649"><ele>93.0</ele><time>2026-04-18T13:09:56.598Z</time></trkpt><trkpt lat="43.8084583" lon="12.7265633"><ele>93.0</ele><time>2026-04-18T13:09:57.598Z</time></trkpt><trkpt lat="43.8086833" lon="12.7266317"><ele>94.0</ele><time>2026-04-18T13:09:58.598Z</time></trkpt><trkpt lat="43.8088983" lon="12.726685"><ele>95.0</ele><time>2026-04-18T13:09:59.598Z</time></trkpt><trkpt lat="43.8091067" lon="12.7267433"><ele>96.0</ele><time>2026-04-18T13:10:00.598Z</time></trkpt><trkpt lat="43.80929" lon="12.7267783"><ele>98.0</ele><time>2026-04-18T13:10:01.598Z</time></trkpt><trkpt lat="43.80948" lon="12.7268183"><ele>100.0</ele><time>2026-04-18T13:10:02.598Z</time></trkpt><trkpt lat="43.8096817" lon="12.7268583"><ele>102.0</ele><time>2026-04-18T13:10:03.598Z</time></trkpt><trkpt lat="43.8098817" lon="12.7268867"><ele>99.33333333333333</ele><time>2026-04-18T13:10:04.598Z</time></trkpt><trkpt lat="43.8100883" lon="12.7269217"><ele>96.66666666666666</ele><time>2026-04-18T13:10:05.598Z</time></trkpt><trkpt lat="43.810305" lon="12.7269617"><ele>94.0</ele><time>2026-04-18T13:10:06.598Z</time></trkpt><trkpt lat="43.8105283" lon="12.7270233"><ele>94.0</ele><time>2026-04-18T13:10:07.598Z</time></trkpt><trkpt lat="43.8107467" lon="12.7271217"><ele>94.0</ele><time>2026-04-18T13:10:08.598Z</time></trkpt><trkpt lat="43.81095" lon="12.72723"><ele>94.0</ele><time>2026-04-18T13:10:09.598Z</time></trkpt><trkpt lat="43.8111467" lon="12.727355"><ele>96.33333333333333</ele><time>2026-04-18T13:10:10.598Z</time></trkpt><trkpt lat="43.8113217" lon="12.727465"><ele>98.66666666666666</ele><time>2026-04-18T13:10:11.598Z</time></trkpt><trkpt lat="43.8114933" lon="12.7275517"><ele>101.0</ele><time>2026-04-18T13:10:12.598Z</time></trkpt><trkpt lat="43.8116617" lon="12.72762"><ele>101.33333333333333</ele><time>2026-04-18T13:10:13.598Z</time></trkpt><trkpt lat="43.811825" lon="12.72767"><ele>101.66666666666666</ele><time>2026-04-18T13:10:14.598Z</time></trkpt><trkpt lat="43.8119767" lon="12.727715"><ele>102.0</ele><time>2026-04-18T13:10:15.598Z</time></trkpt><trkpt lat="43.812145" lon="12.7277533"><ele>101.0</ele><time>2026-04-18T13:10:16.598Z</time></trkpt><trkpt lat="43.8123233" lon="12.7278"><ele>100.0</ele><time>2026-04-18T13:10:17.598Z</time></trkpt><trkpt lat="43.8124933" lon="12.7278483"><ele>99.0</ele><time>2026-04-18T13:10:18.598Z</time></trkpt><trkpt lat="43.8126683" lon="12.7279117"><ele>99.0</ele><time>2026-04-18T13:10:19.598Z</time></trkpt><trkpt lat="43.8128483" lon="12.7279717"><ele>99.0</ele><time>2026-04-18T13:10:20.598Z</time></trkpt><trkpt lat="43.8130233" lon="12.7280567"><ele>99.0</ele><time>2026-04-18T13:10:21.598Z</time></trkpt><trkpt lat="43.8131883" lon="12.7281717"><ele>99.0</ele><time>2026-04-18T13:10:22.598Z</time></trkpt><trkpt lat="43.813365" lon="12.7282983"><ele>99.0</ele><time>2026-04-18T13:10:23.598Z</time></trkpt><trkpt lat="43.81354" lon="12.72844"><ele>99.0</ele><time>2026-04-18T13:10:24.598Z</time></trkpt><trkpt lat="43.81372" lon="12.7285867"><ele>97.5</ele><time>2026-04-18T13:10:25.598Z</time></trkpt><trkpt lat="43.8139217" lon="12.7287367"><ele>96.0</ele><time>2026-04-18T13:10:26.598Z</time></trkpt><trkpt lat="43.8141183" lon="12.7288917"><ele>96.0</ele><time>2026-04-18T13:10:27.598Z</time></trkpt><trkpt lat="43.8143183" lon="12.729055"><ele>96.0</ele><time>2026-04-18T13:10:28.598Z</time></trkpt><trkpt lat="43.8145267" lon="12.7292167"><ele>95.0</ele><time>2026-04-18T13:10:29.598Z</time></trkpt><trkpt lat="43.8147317" lon="12.7293867"><ele>94.0</ele><time>2026-04-18T13:10:30.598Z</time></trkpt><trkpt lat="43.81494" lon="12.7295483"><ele>93.5</ele><time>2026-04-18T13:10:31.598Z</time></trkpt><trkpt lat="43.815135" lon="12.729705"><ele>93.0</ele><time>2026-04-18T13:10:32.598Z</time></trkpt><trkpt lat="43.8153333" lon="12.72986"><ele>93.0</ele><time>2026-04-18T13:10:33.598Z</time></trkpt><trkpt lat="43.8155283" lon="12.73002"><ele>93.0</ele><time>2026-04-18T13:10:34.598Z</time></trkpt><trkpt lat="43.8157167" lon="12.7301717"><ele>93.0</ele><time>2026-04-18T13:10:35.598Z</time></trkpt><trkpt lat="43.815895" lon="12.73032"><ele>93.0</ele><time>2026-04-18T13:10:36.598Z</time></trkpt><trkpt lat="43.8160767" lon="12.7304633"><ele>93.0</ele><time>2026-04-18T13:10:37.598Z</time></trkpt><trkpt lat="43.816265" lon="12.7306"><ele>93.0</ele><time>2026-04-18T13:10:38.598Z</time></trkpt><trkpt lat="43.816465" lon="12.730725"><ele>93.0</ele><time>2026-04-18T13:10:39.598Z</time></trkpt><trkpt lat="43.8166517" lon="12.7308317"><ele>93.0</ele><time>2026-04-18T13:10:40.598Z</time></trkpt><trkpt lat="43.81684" lon="12.73094"><ele>93.0</ele><time>2026-04-18T13:10:41.598Z</time></trkpt><trkpt lat="43.81702" lon="12.7310383"><ele>92.66666666666667</ele><time>2026-04-18T13:10:42.598Z</time></trkpt><trkpt lat="43.8171883" lon="12.7311367"><ele>92.33333333333334</ele><time>2026-04-18T13:10:43.598Z</time></trkpt><trkpt lat="43.8173517" lon="12.731235"><ele>92.0</ele><time>2026-04-18T13:10:44.598Z</time></trkpt><trkpt lat="43.8175283" lon="12.7313467"><ele>92.0</ele><time>2026-04-18T13:10:45.598Z</time></trkpt><trkpt lat="43.8177017" lon="12.731455"><ele>92.0</ele><time>2026-04-18T13:10:46.598Z</time></trkpt><trkpt lat="43.8178867" lon="12.7315583"><ele>92.0</ele><time>2026-04-18T13:10:47.598Z</time></trkpt><trkpt lat="43.8180733" lon="12.7316483"><ele>92.0</ele><time>2026-04-18T13:10:48.598Z</time></trkpt><trkpt lat="43.8182383" lon="12.7317467"><ele>92.0</ele><time>2026-04-18T13:10:49.598Z</time></trkpt><trkpt lat="43.8184233" lon="12.73184"><ele>92.0</ele><time>2026-04-18T13:10:50.598Z</time></trkpt><trkpt lat="43.8186083" lon="12.731945"><ele>91.0</ele><time>2026-04-18T13:10:51.598Z</time></trkpt><trkpt lat="43.8187883" lon="12.7320783"><ele>90.0</ele><time>2026-04-18T13:10:52.598Z</time></trkpt><trkpt lat="43.8189567" lon="12.7322383"><ele>89.0</ele><time>2026-04-18T13:10:53.598Z</time></trkpt><trkpt lat="43.8191283" lon="12.7324133"><ele>89.0</ele><time>2026-04-18T13:10:54.598Z</time></trkpt><trkpt lat="43.8193" lon="12.732595"><ele>89.0</ele><time>2026-04-18T13:10:55.598Z</time></trkpt><trkpt lat="43.8194717" lon="12.7327833"><ele>89.0</ele><time>2026-04-18T13:10:56.598Z</time></trkpt><trkpt lat="43.819645" lon="12.7329633"><ele>88.33333333333334</ele><time>2026-04-18T13:10:57.598Z</time></trkpt><trkpt lat="43.8198133" lon="12.7331417"><ele>87.66666666666667</ele><time>2026-04-18T13:10:58.598Z</time></trkpt><trkpt lat="43.8199833" lon="12.733325"><ele>87.0</ele><time>2026-04-18T13:10:59.598Z</time></trkpt><trkpt lat="43.8201467" lon="12.7334967"><ele>86.0</ele><time>2026-04-18T13:11:00.597Z</time></trkpt><trkpt lat="43.8203133" lon="12.7336683"><ele>85.0</ele><time>2026-04-18T13:11:01.598Z</time></trkpt><trkpt lat="43.8204817" lon="12.7338433"><ele>84.0</ele><time>2026-04-18T13:11:02.598Z</time></trkpt><trkpt lat="43.820645" lon="12.7340217"><ele>84.0</ele><time>2026-04-18T13:11:03.598Z</time></trkpt><trkpt lat="43.8208167" lon="12.7342283"><ele>84.0</ele><time>2026-04-18T13:11:04.598Z</time></trkpt><trkpt lat="43.8209683" lon="12.73444"><ele>84.0</ele><time>2026-04-18T13:11:05.598Z</time></trkpt><trkpt lat="43.82111" lon="12.7346517"><ele>84.66666666666667</ele><time>2026-04-18T13:11:06.598Z</time></trkpt><trkpt lat="43.8212517" lon="12.73488"><ele>85.33333333333334</ele><time>2026-04-18T13:11:07.598Z</time></trkpt><trkpt lat="43.8213967" lon="12.7351017"><ele>86.0</ele><time>2026-04-18T13:11:08.598Z</time></trkpt><trkpt lat="43.8215483" lon="12.735305"><ele>85.66666666666667</ele><time>2026-04-18T13:11:09.598Z</time></trkpt><trkpt lat="43.8217033" lon="12.7354883"><ele>85.33333333333333</ele><time>2026-04-18T13:11:10.598Z</time></trkpt><trkpt lat="43.8218617" lon="12.7356667"><ele>85.0</ele><time>2026-04-18T13:11:11.598Z</time></trkpt><trkpt lat="43.8220283" lon="12.7358483"><ele>85.0</ele><time>2026-04-18T13:11:12.598Z</time></trkpt><trkpt lat="43.8221967" lon="12.7360167"><ele>85.0</ele><time>2026-04-18T13:11:13.598Z</time></trkpt><trkpt lat="43.8223683" lon="12.7361783"><ele>85.0</ele><time>2026-04-18T13:11:14.598Z</time></trkpt><trkpt lat="43.822545" lon="12.7363383"><ele>84.0</ele><time>2026-04-18T13:11:15.598Z</time></trkpt><trkpt lat="43.822725" lon="12.7364983"><ele>83.0</ele><time>2026-04-18T13:11:16.598Z</time></trkpt><trkpt lat="43.8229" lon="12.7366567"><ele>82.0</ele><time>2026-04-18T13:11:17.598Z</time></trkpt><trkpt lat="43.8230783" lon="12.736815"><ele>82.0</ele><time>2026-04-18T13:11:18.598Z</time></trkpt><trkpt lat="43.8232483" lon="12.73697"><ele>82.0</ele><time>2026-04-18T13:11:19.598Z</time></trkpt><trkpt lat="43.8234167" lon="12.73712"><ele>82.0</ele><time>2026-04-18T13:11:20.598Z</time></trkpt><trkpt lat="43.823585" lon="12.7372717"><ele>82.0</ele><time>2026-04-18T13:11:21.598Z</time></trkpt><trkpt lat="43.823755" lon="12.73743"><ele>82.0</ele><time>2026-04-18T13:11:22.598Z</time></trkpt><trkpt lat="43.823925" lon="12.737585"><ele>82.0</ele><time>2026-04-18T13:11:23.598Z</time></trkpt><trkpt lat="43.82409" lon="12.7377383"><ele>82.0</ele><time>2026-04-18T13:11:24.598Z</time></trkpt><trkpt lat="43.8242417" lon="12.737895"><ele>82.0</ele><time>2026-04-18T13:11:25.598Z</time></trkpt><trkpt lat="43.8243883" lon="12.738065"><ele>82.0</ele><time>2026-04-18T13:11:26.598Z</time></trkpt><trkpt lat="43.824655" lon="12.738385"><ele>81.33333333333333</ele><time>2026-04-18T13:11:28.598Z</time></trkpt><trkpt lat="43.82478" lon="12.7385733"><ele>80.66666666666667</ele><time>2026-04-18T13:11:29.598Z</time></trkpt><trkpt lat="43.8248983" lon="12.7387467"><ele>80.0</ele><time>2026-04-18T13:11:30.598Z</time></trkpt><trkpt lat="43.8250183" lon="12.7389267"><ele>80.0</ele><time>2026-04-18T13:11:31.598Z</time></trkpt><trkpt lat="43.825155" lon="12.7390933"><ele>80.0</ele><time>2026-04-18T13:11:32.598Z</time></trkpt><trkpt lat="43.8252933" lon="12.7392767"><ele>80.0</ele><time>2026-04-18T13:11:33.598Z</time></trkpt><trkpt lat="43.82543" lon="12.7394417"><ele>80.0</ele><time>2026-04-18T13:11:34.598Z</time></trkpt><trkpt lat="43.8255717" lon="12.739605"><ele>80.0</ele><time>2026-04-18T13:11:35.598Z</time></trkpt><trkpt lat="43.82571" lon="12.7397733"><ele>80.0</ele><time>2026-04-18T13:11:36.598Z</time></trkpt><trkpt lat="43.8258467" lon="12.739935"><ele>79.66666666666667</ele><time>2026-04-18T13:11:37.598Z</time></trkpt><trkpt lat="43.8259883" lon="12.7401133"><ele>79.33333333333333</ele><time>2026-04-18T13:11:38.598Z</time></trkpt><trkpt lat="43.826125" lon="12.7402783"><ele>79.0</ele><time>2026-04-18T13:11:39.598Z</time></trkpt><trkpt lat="43.8262533" lon="12.7404433"><ele>78.66666666666666</ele><time>2026-04-18T13:11:40.598Z</time></trkpt><trkpt lat="43.8263683" lon="12.7406333"><ele>78.33333333333333</ele><time>2026-04-18T13:11:41.598Z</time></trkpt><trkpt lat="43.82647" lon="12.740845"><ele>78.0</ele><time>2026-04-18T13:11:42.598Z</time></trkpt><trkpt lat="43.82656" lon="12.7410717"><ele>77.66666666666667</ele><time>2026-04-18T13:11:43.598Z</time></trkpt><trkpt lat="43.826635" lon="12.7413033"><ele>77.33333333333334</ele><time>2026-04-18T13:11:44.598Z</time></trkpt><trkpt lat="43.8267" lon="12.7415367"><ele>77.0</ele><time>2026-04-18T13:11:45.598Z</time></trkpt><trkpt lat="43.82676" lon="12.7417817"><ele>76.66666666666667</ele><time>2026-04-18T13:11:46.598Z</time></trkpt><trkpt lat="43.8268233" lon="12.7420333"><ele>76.33333333333333</ele><time>2026-04-18T13:11:47.598Z</time></trkpt><trkpt lat="43.8268967" lon="12.74228"><ele>76.0</ele><time>2026-04-18T13:11:48.598Z</time></trkpt><trkpt lat="43.8269633" lon="12.7425267"><ele>76.0</ele><time>2026-04-18T13:11:49.598Z</time></trkpt><trkpt lat="43.82703" lon="12.74277"><ele>76.0</ele><time>2026-04-18T13:11:50.598Z</time></trkpt><trkpt lat="43.8271067" lon="12.7430117"><ele>76.0</ele><time>2026-04-18T13:11:51.598Z</time></trkpt><trkpt lat="43.8272033" lon="12.7432417"><ele>76.0</ele><time>2026-04-18T13:11:52.598Z</time></trkpt><trkpt lat="43.8273083" lon="12.7434633"><ele>76.0</ele><time>2026-04-18T13:11:53.598Z</time></trkpt><trkpt lat="43.827425" lon="12.743675"><ele>76.0</ele><time>2026-04-18T13:11:54.598Z</time></trkpt><trkpt lat="43.82755" lon="12.743885"><ele>76.33333333333333</ele><time>2026-04-18T13:11:55.598Z</time></trkpt><trkpt lat="43.82767" lon="12.74409"><ele>76.66666666666667</ele><time>2026-04-18T13:11:56.598Z</time></trkpt><trkpt lat="43.8277867" lon="12.744285"><ele>77.0</ele><time>2026-04-18T13:11:57.598Z</time></trkpt><trkpt lat="43.8279067" lon="12.7444767"><ele>76.33333333333334</ele><time>2026-04-18T13:11:58.598Z</time></trkpt><trkpt lat="43.82803" lon="12.74466"><ele>75.66666666666667</ele><time>2026-04-18T13:11:59.598Z</time></trkpt><trkpt lat="43.8281733" lon="12.7448167"><ele>75.0</ele><time>2026-04-18T13:12:00.598Z</time></trkpt><trkpt lat="43.8283183" lon="12.7449567"><ele>75.0</ele><time>2026-04-18T13:12:01.598Z</time></trkpt><trkpt lat="43.8284717" lon="12.7450717"><ele>75.0</ele><time>2026-04-18T13:12:02.598Z</time></trkpt><trkpt lat="43.82862" lon="12.745165"><ele>75.0</ele><time>2026-04-18T13:12:03.598Z</time></trkpt><trkpt lat="43.8287817" lon="12.745245"><ele>74.33333333333333</ele><time>2026-04-18T13:12:04.598Z</time></trkpt><trkpt lat="43.8289467" lon="12.7453117"><ele>73.66666666666666</ele><time>2026-04-18T13:12:05.598Z</time></trkpt><trkpt lat="43.8291217" lon="12.7453667"><ele>73.0</ele><time>2026-04-18T13:12:06.598Z</time></trkpt><trkpt lat="43.829305" lon="12.745405"><ele>73.33333333333333</ele><time>2026-04-18T13:12:07.598Z</time></trkpt><trkpt lat="43.8294883" lon="12.7454333"><ele>73.66666666666667</ele><time>2026-04-18T13:12:08.598Z</time></trkpt><trkpt lat="43.8296883" lon="12.7454467"><ele>74.0</ele><time>2026-04-18T13:12:09.598Z</time></trkpt><trkpt lat="43.82987" lon="12.7454617"><ele>74.0</ele><time>2026-04-18T13:12:10.598Z</time></trkpt><trkpt lat="43.83004" lon="12.74547"><ele>74.0</ele><time>2026-04-18T13:12:11.598Z</time></trkpt><trkpt lat="43.830195" lon="12.7454683"><ele>74.0</ele><time>2026-04-18T13:12:12.598Z</time></trkpt><trkpt lat="43.8303417" lon="12.7454683"><ele>74.0</ele><time>2026-04-18T13:12:13.598Z</time></trkpt><trkpt lat="43.83048" lon="12.7454717"><ele>74.0</ele><time>2026-04-18T13:12:14.598Z</time></trkpt><trkpt lat="43.8305983" lon="12.74548"><ele>74.0</ele><time>2026-04-18T13:12:15.598Z</time></trkpt><trkpt lat="43.8307133" lon="12.7455"><ele>74.0</ele><time>2026-04-18T13:12:16.598Z</time></trkpt><trkpt lat="43.8308083" lon="12.7455317"><ele>74.0</ele><time>2026-04-18T13:12:17.598Z</time></trkpt><trkpt lat="43.830895" lon="12.74557"><ele>74.0</ele><time>2026-04-18T13:12:18.598Z</time></trkpt><trkpt lat="43.8309767" lon="12.745625"><ele>74.0</ele><time>2026-04-18T13:12:19.598Z</time></trkpt><trkpt lat="43.831055" lon="12.7456717"><ele>74.0</ele><time>2026-04-18T13:12:20.598Z</time></trkpt><trkpt lat="43.8311417" lon="12.7456767"><ele>74.0</ele><time>2026-04-18T13:12:21.598Z</time></trkpt><trkpt lat="43.8312317" lon="12.7456483"><ele>74.0</ele><time>2026-04-18T13:12:22.598Z</time></trkpt><trkpt lat="43.8313367" lon="12.7455867"><ele>73.5</ele><time>2026-04-18T13:12:23.598Z</time></trkpt><trkpt lat="43.8314467" lon="12.7455317"><ele>73.0</ele><time>2026-04-18T13:12:24.598Z</time></trkpt><trkpt lat="43.831565" lon="12.7455317"><ele>72.5</ele><time>2026-04-18T13:12:25.598Z</time></trkpt><trkpt lat="43.8316967" lon="12.7455583"><ele>72.0</ele><time>2026-04-18T13:12:26.598Z</time></trkpt><trkpt lat="43.8318317" lon="12.7455917"><ele>71.66666666666667</ele><time>2026-04-18T13:12:27.598Z</time></trkpt><trkpt lat="43.8319783" lon="12.7456383"><ele>71.33333333333334</ele><time>2026-04-18T13:12:28.598Z</time></trkpt><trkpt lat="43.832125" lon="12.7456783"><ele>71.0</ele><time>2026-04-18T13:12:29.598Z</time></trkpt><trkpt lat="43.8322817" lon="12.7457233"><ele>71.0</ele><time>2026-04-18T13:12:30.598Z</time></trkpt><trkpt lat="43.8324483" lon="12.745765"><ele>71.0</ele><time>2026-04-18T13:12:31.598Z</time></trkpt><trkpt lat="43.83262" lon="12.7457967"><ele>71.0</ele><time>2026-04-18T13:12:32.598Z</time></trkpt><trkpt lat="43.8327733" lon="12.7458217"><ele>70.75</ele><time>2026-04-18T13:12:33.598Z</time></trkpt><trkpt lat="43.8329167" lon="12.7458317"><ele>70.5</ele><time>2026-04-18T13:12:34.598Z</time></trkpt><trkpt lat="43.8330567" lon="12.745835"><ele>70.25</ele><time>2026-04-18T13:12:35.598Z</time></trkpt><trkpt lat="43.8331917" lon="12.7458367"><ele>70.0</ele><time>2026-04-18T13:12:36.598Z</time></trkpt><trkpt lat="43.833315" lon="12.7458383"><ele>70.0</ele><time>2026-04-18T13:12:37.598Z</time></trkpt><trkpt lat="43.8334267" lon="12.74585"><ele>70.0</ele><time>2026-04-18T13:12:38.598Z</time></trkpt><trkpt lat="43.8335283" lon="12.7458717"><ele>70.0</ele><time>2026-04-18T13:12:39.598Z</time></trkpt><trkpt lat="43.8336183" lon="12.7459167"><ele>70.0</ele><time>2026-04-18T13:12:40.598Z</time></trkpt><trkpt lat="43.8337067" lon="12.7459867"><ele>70.0</ele><time>2026-04-18T13:12:41.598Z</time></trkpt><trkpt lat="43.833785" lon="12.7460783"><ele>69.4</ele><time>2026-04-18T13:12:42.598Z</time></trkpt><trkpt lat="43.833855" lon="12.7461767"><ele>68.8</ele><time>2026-04-18T13:12:43.598Z</time></trkpt><trkpt lat="43.8339183" lon="12.74628"><ele>68.2</ele><time>2026-04-18T13:12:44.598Z</time></trkpt><trkpt lat="43.833985" lon="12.7463983"><ele>67.6</ele><time>2026-04-18T13:12:45.598Z</time></trkpt><trkpt lat="43.8340667" lon="12.746545"><ele>67.0</ele><time>2026-04-18T13:12:46.598Z</time></trkpt><trkpt lat="43.8341567" lon="12.746705"><ele>67.0</ele><time>2026-04-18T13:12:47.598Z</time></trkpt><trkpt lat="43.8342533" lon="12.7468767"><ele>67.0</ele><time>2026-04-18T13:12:48.598Z</time></trkpt><trkpt lat="43.8343567" lon="12.7470617"><ele>67.0</ele><time>2026-04-18T13:12:49.598Z</time></trkpt><trkpt lat="43.8344667" lon="12.7472633"><ele>66.33333333333333</ele><time>2026-04-18T13:12:50.598Z</time></trkpt><trkpt lat="43.83458" lon="12.747485"><ele>65.66666666666667</ele><time>2026-04-18T13:12:51.598Z</time></trkpt><trkpt lat="43.834695" lon="12.7477233"><ele>65.0</ele><time>2026-04-18T13:12:52.598Z</time></trkpt><trkpt lat="43.83482" lon="12.747965"><ele>65.0</ele><time>2026-04-18T13:12:53.598Z</time></trkpt><trkpt lat="43.8349483" lon="12.7482083"><ele>65.0</ele><time>2026-04-18T13:12:54.598Z</time></trkpt><trkpt lat="43.8350783" lon="12.748455"><ele>65.0</ele><time>2026-04-18T13:12:55.598Z</time></trkpt><trkpt lat="43.8352" lon="12.7487033"><ele>65.0</ele><time>2026-04-18T13:12:56.598Z</time></trkpt><trkpt lat="43.8353217" lon="12.7489483"><ele>65.0</ele><time>2026-04-18T13:12:57.598Z</time></trkpt><trkpt lat="43.835435" lon="12.749185"><ele>65.0</ele><time>2026-04-18T13:12:58.598Z</time></trkpt><trkpt lat="43.835535" lon="12.7494167"><ele>64.33333333333334</ele><time>2026-04-18T13:12:59.598Z</time></trkpt><trkpt lat="43.8356333" lon="12.7496467"><ele>63.66666666666667</ele><time>2026-04-18T13:13:00.598Z</time></trkpt><trkpt lat="43.8357183" lon="12.7498583"><ele>63.0</ele><time>2026-04-18T13:13:01.598Z</time></trkpt><trkpt lat="43.835795" lon="12.7500667"><ele>62.75</ele><time>2026-04-18T13:13:02.598Z</time></trkpt><trkpt lat="43.8358633" lon="12.7502483"><ele>62.5</ele><time>2026-04-18T13:13:03.598Z</time></trkpt><trkpt lat="43.83592" lon="12.7504067"><ele>62.25</ele><time>2026-04-18T13:13:04.598Z</time></trkpt><trkpt lat="43.8359683" lon="12.7505933"><ele>62.0</ele><time>2026-04-18T13:13:05.598Z</time></trkpt><trkpt lat="43.8360233" lon="12.750805"><ele>59.333333333333336</ele><time>2026-04-18T13:13:06.598Z</time></trkpt><trkpt lat="43.8360867" lon="12.7510433"><ele>56.66666666666667</ele><time>2026-04-18T13:13:07.598Z</time></trkpt><trkpt lat="43.836155" lon="12.7512983"><ele>54.0</ele><time>2026-04-18T13:13:08.598Z</time></trkpt><trkpt lat="43.836225" lon="12.7515717"><ele>54.0</ele><time>2026-04-18T13:13:09.598Z</time></trkpt><trkpt lat="43.836295" lon="12.7518633"><ele>54.0</ele><time>2026-04-18T13:13:10.598Z</time></trkpt><trkpt lat="43.83638" lon="12.7521533"><ele>54.0</ele><time>2026-04-18T13:13:11.598Z</time></trkpt><trkpt lat="43.8364633" lon="12.75245"><ele>55.0</ele><time>2026-04-18T13:13:12.598Z</time></trkpt><trkpt lat="43.8365433" lon="12.7527533"><ele>56.0</ele><time>2026-04-18T13:13:13.598Z</time></trkpt><trkpt lat="43.8366233" lon="12.7530517"><ele>56.0</ele><time>2026-04-18T13:13:14.598Z</time></trkpt><trkpt lat="43.8367067" lon="12.7533533"><ele>56.0</ele><time>2026-04-18T13:13:15.597Z</time></trkpt><trkpt lat="43.836795" lon="12.7536533"><ele>56.0</ele><time>2026-04-18T13:13:16.597Z</time></trkpt><trkpt lat="43.8368833" lon="12.7539533"><ele>56.0</ele><time>2026-04-18T13:13:17.597Z</time></trkpt><trkpt lat="43.8369717" lon="12.7542567"><ele>57.0</ele><time>2026-04-18T13:13:18.597Z</time></trkpt><trkpt lat="43.8370567" lon="12.7545567"><ele>58.0</ele><time>2026-04-18T13:13:19.596Z</time></trkpt><trkpt lat="43.8371517" lon="12.7548617"><ele>58.0</ele><time>2026-04-18T13:13:20.597Z</time></trkpt><trkpt lat="43.837245" lon="12.7551633"><ele>58.0</ele><time>2026-04-18T13:13:21.597Z</time></trkpt><trkpt lat="43.8373367" lon="12.755465"><ele>60.0</ele><time>2026-04-18T13:13:22.597Z</time></trkpt><trkpt lat="43.837415" lon="12.7557667"><ele>62.0</ele><time>2026-04-18T13:13:23.597Z</time></trkpt><trkpt lat="43.8374967" lon="12.7560617"><ele>63.0</ele><time>2026-04-18T13:13:24.597Z</time></trkpt><trkpt lat="43.837575" lon="12.756365"><ele>64.0</ele><time>2026-04-18T13:13:25.597Z</time></trkpt><trkpt lat="43.8376533" lon="12.7566683"><ele>64.5</ele><time>2026-04-18T13:13:26.597Z</time></trkpt><trkpt lat="43.8377283" lon="12.7569717"><ele>65.0</ele><time>2026-04-18T13:13:27.597Z</time></trkpt><trkpt lat="43.8378033" lon="12.7572733"><ele>65.0</ele><time>2026-04-18T13:13:28.597Z</time></trkpt><trkpt lat="43.8378683" lon="12.75758"><ele>65.0</ele><time>2026-04-18T13:13:29.597Z</time></trkpt><trkpt lat="43.83793" lon="12.7578833"><ele>66.5</ele><time>2026-04-18T13:13:30.597Z</time></trkpt><trkpt lat="43.8379867" lon="12.7581917"><ele>68.0</ele><time>2026-04-18T13:13:31.597Z</time></trkpt><trkpt lat="43.838045" lon="12.7584933"><ele>68.5</ele><time>2026-04-18T13:13:32.597Z</time></trkpt><trkpt lat="43.838105" lon="12.7588"><ele>69.0</ele><time>2026-04-18T13:13:33.597Z</time></trkpt><trkpt lat="43.83817" lon="12.7591067"><ele>69.5</ele><time>2026-04-18T13:13:34.597Z</time></trkpt><trkpt lat="43.838235" lon="12.7594133"><ele>70.0</ele><time>2026-04-18T13:13:35.597Z</time></trkpt><trkpt lat="43.8382917" lon="12.7597183"><ele>70.0</ele><time>2026-04-18T13:13:36.597Z</time></trkpt><trkpt lat="43.8383533" lon="12.7600217"><ele>70.0</ele><time>2026-04-18T13:13:37.597Z</time></trkpt><trkpt lat="43.838415" lon="12.7603267"><ele>71.0</ele><time>2026-04-18T13:13:38.597Z</time></trkpt><trkpt lat="43.8384667" lon="12.7606333"><ele>72.0</ele><time>2026-04-18T13:13:39.597Z</time></trkpt><trkpt lat="43.83852" lon="12.760935"><ele>71.0</ele><time>2026-04-18T13:13:40.597Z</time></trkpt><trkpt lat="43.8385867" lon="12.7612433"><ele>70.0</ele><time>2026-04-18T13:13:41.597Z</time></trkpt><trkpt lat="43.83865" lon="12.7615467"><ele>70.0</ele><time>2026-04-18T13:13:42.596Z</time></trkpt><trkpt lat="43.8387117" lon="12.7618483"><ele>70.0</ele><time>2026-04-18T13:13:43.597Z</time></trkpt><trkpt lat="43.8387767" lon="12.7621483"><ele>70.0</ele><time>2026-04-18T13:13:44.597Z</time></trkpt><trkpt lat="43.8388383" lon="12.7624567"><ele>70.0</ele><time>2026-04-18T13:13:45.597Z</time></trkpt><trkpt lat="43.8388933" lon="12.7627567"><ele>69.0</ele><time>2026-04-18T13:13:46.597Z</time></trkpt><trkpt lat="43.8389533" lon="12.7630583"><ele>68.0</ele><time>2026-04-18T13:13:47.597Z</time></trkpt><trkpt lat="43.8390083" lon="12.7633567"><ele>67.0</ele><time>2026-04-18T13:13:48.597Z</time></trkpt><trkpt lat="43.8390617" lon="12.7636617"><ele>67.0</ele><time>2026-04-18T13:13:49.597Z</time></trkpt><trkpt lat="43.8391167" lon="12.7639567"><ele>67.0</ele><time>2026-04-18T13:13:50.597Z</time></trkpt><trkpt lat="43.8391783" lon="12.7642517"><ele>67.0</ele><time>2026-04-18T13:13:51.597Z</time></trkpt><trkpt lat="43.8392383" lon="12.76455"><ele>67.33333333333333</ele><time>2026-04-18T13:13:52.597Z</time></trkpt><trkpt lat="43.8393033" lon="12.7648517"><ele>67.66666666666667</ele><time>2026-04-18T13:13:53.597Z</time></trkpt><trkpt lat="43.8393633" lon="12.7651417"><ele>68.0</ele><time>2026-04-18T13:13:54.597Z</time></trkpt><trkpt lat="43.8394333" lon="12.76542"><ele>68.0</ele><time>2026-04-18T13:13:55.597Z</time></trkpt><trkpt lat="43.839525" lon="12.765695"><ele>68.0</ele><time>2026-04-18T13:13:56.597Z</time></trkpt><trkpt lat="43.8396267" lon="12.7659483"><ele>68.0</ele><time>2026-04-18T13:13:57.597Z</time></trkpt><trkpt lat="43.8397433" lon="12.7661917"><ele>68.0</ele><time>2026-04-18T13:13:58.597Z</time></trkpt><trkpt lat="43.8398617" lon="12.7664083"><ele>68.0</ele><time>2026-04-18T13:13:59.597Z</time></trkpt><trkpt lat="43.8399867" lon="12.7665983"><ele>68.0</ele><time>2026-04-18T13:14:00.597Z</time></trkpt><trkpt lat="43.8401067" lon="12.76676"><ele>67.75</ele><time>2026-04-18T13:14:01.597Z</time></trkpt><trkpt lat="43.840215" lon="12.7669067"><ele>67.5</ele><time>2026-04-18T13:14:02.597Z</time></trkpt><trkpt lat="43.8403067" lon="12.7670417"><ele>67.25</ele><time>2026-04-18T13:14:03.597Z</time></trkpt><trkpt lat="43.84037" lon="12.7671467"><ele>67.0</ele><time>2026-04-18T13:14:04.597Z</time></trkpt><trkpt lat="43.8404167" lon="12.7672317"><ele>67.0</ele><time>2026-04-18T13:14:05.597Z</time></trkpt><trkpt lat="43.8404533" lon="12.76735"><ele>67.0</ele><time>2026-04-18T13:14:07.597Z</time></trkpt><trkpt lat="43.8404617" lon="12.7675033"><ele>67.0</ele><time>2026-04-18T13:14:09.597Z</time></trkpt><trkpt lat="43.84047" lon="12.7676233"><ele>67.0</ele><time>2026-04-18T13:14:10.597Z</time></trkpt><trkpt lat="43.8404817" lon="12.76777"><ele>67.0</ele><time>2026-04-18T13:14:11.597Z</time></trkpt><trkpt lat="43.8404867" lon="12.7679333"><ele>67.0</ele><time>2026-04-18T13:14:12.597Z</time></trkpt><trkpt lat="43.840465" lon="12.768095"><ele>67.0</ele><time>2026-04-18T13:14:13.597Z</time></trkpt><trkpt lat="43.84042" lon="12.7682533"><ele>67.0</ele><time>2026-04-18T13:14:14.597Z</time></trkpt><trkpt lat="43.8403567" lon="12.7684033"><ele>67.0</ele><time>2026-04-18T13:14:15.597Z</time></trkpt><trkpt lat="43.8402917" lon="12.76856"><ele>67.0</ele><time>2026-04-18T13:14:16.597Z</time></trkpt><trkpt lat="43.8402283" lon="12.7687183"><ele>67.0</ele><time>2026-04-18T13:14:17.597Z</time></trkpt><trkpt lat="43.8401617" lon="12.76887"><ele>67.0</ele><time>2026-04-18T13:14:18.597Z</time></trkpt><trkpt lat="43.8400967" lon="12.769015"><ele>67.0</ele><time>2026-04-18T13:14:19.597Z</time></trkpt><trkpt lat="43.8400383" lon="12.7691433"><ele>67.83333333333333</ele><time>2026-04-18T13:14:20.597Z</time></trkpt><trkpt lat="43.8399767" lon="12.7692733"><ele>68.66666666666666</ele><time>2026-04-18T13:14:21.597Z</time></trkpt><trkpt lat="43.8399217" lon="12.769385"><ele>69.5</ele><time>2026-04-18T13:14:22.597Z</time></trkpt><trkpt lat="43.839875" lon="12.7694767"><ele>70.33333333333333</ele><time>2026-04-18T13:14:23.597Z</time></trkpt><trkpt lat="43.8398267" lon="12.7695567"><ele>71.16666666666667</ele><time>2026-04-18T13:14:25.597Z</time></trkpt><trkpt lat="43.8397767" lon="12.7696217"><ele>72.0</ele><time>2026-04-18T13:14:27.597Z</time></trkpt><trkpt lat="43.839705" lon="12.7697817"><ele>72.6</ele><time>2026-04-18T13:14:29.597Z</time></trkpt><trkpt lat="43.8396883" lon="12.7699017"><ele>73.2</ele><time>2026-04-18T13:14:30.597Z</time></trkpt><trkpt lat="43.8396817" lon="12.77005"><ele>73.8</ele><time>2026-04-18T13:14:31.597Z</time></trkpt><trkpt lat="43.8396883" lon="12.77022"><ele>74.4</ele><time>2026-04-18T13:14:32.597Z</time></trkpt><trkpt lat="43.8396883" lon="12.77038"><ele>75.0</ele><time>2026-04-18T13:14:33.597Z</time></trkpt><trkpt lat="43.8396833" lon="12.770545"><ele>75.75</ele><time>2026-04-18T13:14:34.597Z</time></trkpt><trkpt lat="43.8396733" lon="12.770715"><ele>76.5</ele><time>2026-04-18T13:14:35.597Z</time></trkpt><trkpt lat="43.8396667" lon="12.7708733"><ele>77.25</ele><time>2026-04-18T13:14:36.597Z</time></trkpt><trkpt lat="43.8396617" lon="12.7710417"><ele>78.0</ele><time>2026-04-18T13:14:37.597Z</time></trkpt><trkpt lat="43.8396533" lon="12.7712083"><ele>78.5</ele><time>2026-04-18T13:14:38.597Z</time></trkpt><trkpt lat="43.839645" lon="12.7713717"><ele>79.0</ele><time>2026-04-18T13:14:39.597Z</time></trkpt><trkpt lat="43.8396467" lon="12.771535"><ele>79.5</ele><time>2026-04-18T13:14:40.597Z</time></trkpt><trkpt lat="43.8396633" lon="12.7716933"><ele>80.0</ele><time>2026-04-18T13:14:41.597Z</time></trkpt><trkpt lat="43.8397" lon="12.7718483"><ele>82.5</ele><time>2026-04-18T13:14:42.597Z</time></trkpt><trkpt lat="43.8397567" lon="12.7719917"><ele>85.0</ele><time>2026-04-18T13:14:43.597Z</time></trkpt><trkpt lat="43.8398283" lon="12.7721283"><ele>87.5</ele><time>2026-04-18T13:14:44.596Z</time></trkpt><trkpt lat="43.8398917" lon="12.772265"><ele>90.0</ele><time>2026-04-18T13:14:45.597Z</time></trkpt><trkpt lat="43.83995" lon="12.772395"><ele>90.0</ele><time>2026-04-18T13:14:46.597Z</time></trkpt><trkpt lat="43.840005" lon="12.77251"><ele>90.0</ele><time>2026-04-18T13:14:47.597Z</time></trkpt><trkpt lat="43.840035" lon="12.77262"><ele>90.0</ele><time>2026-04-18T13:14:48.597Z</time></trkpt><trkpt lat="43.840045" lon="12.7727167"><ele>90.0</ele><time>2026-04-18T13:14:49.597Z</time></trkpt><trkpt lat="43.8399883" lon="12.7728367"><ele>90.0</ele><time>2026-04-18T13:14:51.597Z</time></trkpt><trkpt lat="43.8398883" lon="12.7728033"><ele>90.0</ele><time>2026-04-18T13:14:53.597Z</time></trkpt><trkpt lat="43.8398367" lon="12.7727367"><ele>90.0</ele><time>2026-04-18T13:14:54.597Z</time></trkpt><trkpt lat="43.8397583" lon="12.7726167"><ele>90.0</ele><time>2026-04-18T13:14:55.596Z</time></trkpt><trkpt lat="43.83967" lon="12.7724917"><ele>90.0</ele><time>2026-04-18T13:14:56.597Z</time></trkpt><trkpt lat="43.8395783" lon="12.772375"><ele>90.0</ele><time>2026-04-18T13:14:57.596Z</time></trkpt><trkpt lat="43.8394933" lon="12.7722767"><ele>90.0</ele><time>2026-04-18T13:14:58.596Z</time></trkpt><trkpt lat="43.8394" lon="12.7721833"><ele>90.0</ele><time>2026-04-18T13:14:59.597Z</time></trkpt><trkpt lat="43.8393117" lon="12.77214"><ele>90.0</ele><time>2026-04-18T13:15:00.597Z</time></trkpt><trkpt lat="43.8392333" lon="12.7721017"><ele>90.0</ele><time>2026-04-18T13:15:01.597Z</time></trkpt><trkpt lat="43.839155" lon="12.772065"><ele>90.0</ele><time>2026-04-18T13:15:02.597Z</time></trkpt><trkpt lat="43.83907" lon="12.7720217"><ele>91.2</ele><time>2026-04-18T13:15:03.597Z</time></trkpt><trkpt lat="43.8389817" lon="12.77198"><ele>92.4</ele><time>2026-04-18T13:15:04.597Z</time></trkpt><trkpt lat="43.838885" lon="12.7719317"><ele>93.6</ele><time>2026-04-18T13:15:05.597Z</time></trkpt><trkpt lat="43.83879" lon="12.7718867"><ele>94.8</ele><time>2026-04-18T13:15:06.597Z</time></trkpt><trkpt lat="43.8387117" lon="12.7718417"><ele>96.0</ele><time>2026-04-18T13:15:07.597Z</time></trkpt><trkpt lat="43.83864" lon="12.7718167"><ele>96.0</ele><time>2026-04-18T13:15:08.597Z</time></trkpt><trkpt lat="43.8385633" lon="12.7718083"><ele>96.0</ele><time>2026-04-18T13:15:09.597Z</time></trkpt><trkpt lat="43.8384933" lon="12.7718433"><ele>96.0</ele><time>2026-04-18T13:15:10.597Z</time></trkpt><trkpt lat="43.8384483" lon="12.7719233"><ele>96.0</ele><time>2026-04-18T13:15:11.597Z</time></trkpt><trkpt lat="43.8384383" lon="12.7720367"><ele>96.0</ele><time>2026-04-18T13:15:12.597Z</time></trkpt><trkpt lat="43.8384717" lon="12.77218"><ele>96.0</ele><time>2026-04-18T13:15:13.597Z</time></trkpt><trkpt lat="43.83854" lon="12.772325"><ele>98.6</ele><time>2026-04-18T13:15:14.597Z</time></trkpt><trkpt lat="43.83863" lon="12.7724533"><ele>101.19999999999999</ele><time>2026-04-18T13:15:15.597Z</time></trkpt><trkpt lat="43.83868" lon="12.77257"><ele>103.80000000000001</ele><time>2026-04-18T13:15:16.597Z</time></trkpt><trkpt lat="43.8387333" lon="12.77267"><ele>106.4</ele><time>2026-04-18T13:15:17.597Z</time></trkpt><trkpt lat="43.838785" lon="12.7727667"><ele>109.0</ele><time>2026-04-18T13:15:18.597Z</time></trkpt><trkpt lat="43.8388283" lon="12.7728583"><ele>110.16666666666667</ele><time>2026-04-18T13:15:19.597Z</time></trkpt><trkpt lat="43.8388733" lon="12.77295"><ele>111.33333333333334</ele><time>2026-04-18T13:15:20.597Z</time></trkpt><trkpt lat="43.8389167" lon="12.773045"><ele>112.5</ele><time>2026-04-18T13:15:21.597Z</time></trkpt><trkpt lat="43.8389483" lon="12.7731417"><ele>113.66666666666666</ele><time>2026-04-18T13:15:22.597Z</time></trkpt><trkpt lat="43.83897" lon="12.773245"><ele>114.83333333333333</ele><time>2026-04-18T13:15:23.597Z</time></trkpt><trkpt lat="43.8389033" lon="12.7733783"><ele>116.0</ele><time>2026-04-18T13:15:25.597Z</time></trkpt><trkpt lat="43.8387817" lon="12.7734017"><ele>116.0</ele><time>2026-04-18T13:15:27.597Z</time></trkpt><trkpt lat="43.8387017" lon="12.7733433"><ele>116.0</ele><time>2026-04-18T13:15:28.597Z</time></trkpt><trkpt lat="43.8385733" lon="12.7731367"><ele>116.0</ele><time>2026-04-18T13:15:30.597Z</time></trkpt><trkpt lat="43.838505" lon="12.7730283"><ele>116.0</ele><time>2026-04-18T13:15:31.597Z</time></trkpt><trkpt lat="43.8384283" lon="12.7729283"><ele>117.19999999999999</ele><time>2026-04-18T13:15:32.597Z</time></trkpt><trkpt lat="43.8383583" lon="12.7728483"><ele>118.39999999999999</ele><time>2026-04-18T13:15:33.597Z</time></trkpt><trkpt lat="43.83829" lon="12.7727767"><ele>119.6</ele><time>2026-04-18T13:15:34.597Z</time></trkpt><trkpt lat="43.8382117" lon="12.7726983"><ele>120.8</ele><time>2026-04-18T13:15:35.597Z</time></trkpt><trkpt lat="43.8381367" lon="12.772615"><ele>122.0</ele><time>2026-04-18T13:15:36.597Z</time></trkpt><trkpt lat="43.8380633" lon="12.7725283"><ele>121.99999999999999</ele><time>2026-04-18T13:15:37.597Z</time></trkpt><trkpt lat="43.8379983" lon="12.77244"><ele>122.0</ele><time>2026-04-18T13:15:38.597Z</time></trkpt><trkpt lat="43.837945" lon="12.7723617"><ele>122.0</ele><time>2026-04-18T13:15:39.597Z</time></trkpt><trkpt lat="43.8378883" lon="12.772285"><ele>122.0</ele><time>2026-04-18T13:15:40.597Z</time></trkpt><trkpt lat="43.83783" lon="12.77223"><ele>121.99999999999999</ele><time>2026-04-18T13:15:41.597Z</time></trkpt><trkpt lat="43.8377683" lon="12.7721967"><ele>122.0</ele><time>2026-04-18T13:15:42.597Z</time></trkpt><trkpt lat="43.8376683" lon="12.7722317"><ele>122.0</ele><time>2026-04-18T13:15:44.597Z</time></trkpt><trkpt lat="43.8376767" lon="12.7723883"><ele>122.0</ele><time>2026-04-18T13:15:46.597Z</time></trkpt><trkpt lat="43.8377433" lon="12.7725017"><ele>122.0</ele><time>2026-04-18T13:15:47.597Z</time></trkpt><trkpt lat="43.8378383" lon="12.7726117"><ele>122.0</ele><time>2026-04-18T13:15:48.597Z</time></trkpt><trkpt lat="43.8379367" lon="12.7727117"><ele>124.6</ele><time>2026-04-18T13:15:49.597Z</time></trkpt><trkpt lat="43.8380183" lon="12.772795"><ele>127.19999999999999</ele><time>2026-04-18T13:15:50.597Z</time></trkpt><trkpt lat="43.8380833" lon="12.7728667"><ele>129.8</ele><time>2026-04-18T13:15:51.597Z</time></trkpt><trkpt lat="43.8381183" lon="12.77294"><ele>132.4</ele><time>2026-04-18T13:15:52.597Z</time></trkpt><trkpt lat="43.8380917" lon="12.7730817"><ele>135.0</ele><time>2026-04-18T13:15:54.597Z</time></trkpt><trkpt lat="43.8379933" lon="12.7731"><ele>135.0</ele><time>2026-04-18T13:15:56.597Z</time></trkpt><trkpt lat="43.8379317" lon="12.7730367"><ele>135.0</ele><time>2026-04-18T13:15:57.597Z</time></trkpt><trkpt lat="43.8378533" lon="12.7729483"><ele>135.0</ele><time>2026-04-18T13:15:58.597Z</time></trkpt><trkpt lat="43.8377617" lon="12.7728367"><ele>135.0</ele><time>2026-04-18T13:15:59.597Z</time></trkpt><trkpt lat="43.8376667" lon="12.7727167"><ele>135.0</ele><time>2026-04-18T13:16:00.597Z</time></trkpt><trkpt lat="43.8375783" lon="12.7726033"><ele>136.2</ele><time>2026-04-18T13:16:01.597Z</time></trkpt><trkpt lat="43.8375083" lon="12.772495"><ele>137.4</ele><time>2026-04-18T13:16:02.597Z</time></trkpt><trkpt lat="43.8374567" lon="12.7723867"><ele>138.6</ele><time>2026-04-18T13:16:03.597Z</time></trkpt><trkpt lat="43.8374117" lon="12.7722683"><ele>139.8</ele><time>2026-04-18T13:16:04.597Z</time></trkpt><trkpt lat="43.8373783" lon="12.77216"><ele>141.0</ele><time>2026-04-18T13:16:05.597Z</time></trkpt><trkpt lat="43.8373417" lon="12.7720617"><ele>141.0</ele><time>2026-04-18T13:16:06.597Z</time></trkpt><trkpt lat="43.8373033" lon="12.7719717"><ele>141.0</ele><time>2026-04-18T13:16:07.597Z</time></trkpt><trkpt lat="43.8372533" lon="12.7718967"><ele>141.0</ele><time>2026-04-18T13:16:08.597Z</time></trkpt><trkpt lat="43.8371983" lon="12.7718433"><ele>141.0</ele><time>2026-04-18T13:16:09.597Z</time></trkpt><trkpt lat="43.8371367" lon="12.7718217"><ele>141.0</ele><time>2026-04-18T13:16:10.597Z</time></trkpt><trkpt lat="43.8370717" lon="12.771855"><ele>141.0</ele><time>2026-04-18T13:16:11.597Z</time></trkpt><trkpt lat="43.8370083" lon="12.7719483"><ele>141.0</ele><time>2026-04-18T13:16:12.597Z</time></trkpt><trkpt lat="43.8369633" lon="12.772085"><ele>141.0</ele><time>2026-04-18T13:16:13.597Z</time></trkpt><trkpt lat="43.83694" lon="12.772245"><ele>141.0</ele><time>2026-04-18T13:16:14.597Z</time></trkpt><trkpt lat="43.836915" lon="12.7723983"><ele>141.0</ele><time>2026-04-18T13:16:15.597Z</time></trkpt><trkpt lat="43.8368983" lon="12.7725567"><ele>141.0</ele><time>2026-04-18T13:16:16.597Z</time></trkpt><trkpt lat="43.8368733" lon="12.772705"><ele>142.4</ele><time>2026-04-18T13:16:17.597Z</time></trkpt><trkpt lat="43.8368417" lon="12.772835"><ele>143.8</ele><time>2026-04-18T13:16:18.597Z</time></trkpt><trkpt lat="43.8368083" lon="12.7729583"><ele>145.20000000000002</ele><time>2026-04-18T13:16:19.597Z</time></trkpt><trkpt lat="43.83678" lon="12.7730717"><ele>146.6</ele><time>2026-04-18T13:16:20.597Z</time></trkpt><trkpt lat="43.8367533" lon="12.773185"><ele>148.0</ele><time>2026-04-18T13:16:21.597Z</time></trkpt><trkpt lat="43.8367067" lon="12.773295"><ele>149.20000000000002</ele><time>2026-04-18T13:16:22.597Z</time></trkpt><trkpt lat="43.83664" lon="12.7734"><ele>150.4</ele><time>2026-04-18T13:16:23.597Z</time></trkpt><trkpt lat="43.8365617" lon="12.7734833"><ele>151.60000000000002</ele><time>2026-04-18T13:16:24.597Z</time></trkpt><trkpt lat="43.8364683" lon="12.7735633"><ele>152.8</ele><time>2026-04-18T13:16:25.597Z</time></trkpt><trkpt lat="43.8363667" lon="12.7736333"><ele>154.0</ele><time>2026-04-18T13:16:26.597Z</time></trkpt><trkpt lat="43.8362583" lon="12.7737017"><ele>155.8</ele><time>2026-04-18T13:16:27.597Z</time></trkpt><trkpt lat="43.836155" lon="12.77377"><ele>157.60000000000002</ele><time>2026-04-18T13:16:28.597Z</time></trkpt><trkpt lat="43.8360583" lon="12.7738317"><ele>159.4</ele><time>2026-04-18T13:16:29.597Z</time></trkpt><trkpt lat="43.8359767" lon="12.7738883"><ele>161.20000000000002</ele><time>2026-04-18T13:16:30.597Z</time></trkpt><trkpt lat="43.8359117" lon="12.7739617"><ele>163.0</ele><time>2026-04-18T13:16:31.597Z</time></trkpt><trkpt lat="43.8358567" lon="12.7740483"><ele>163.0</ele><time>2026-04-18T13:16:32.597Z</time></trkpt><trkpt lat="43.8358033" lon="12.77414"><ele>163.0</ele><time>2026-04-18T13:16:33.597Z</time></trkpt><trkpt lat="43.8357583" lon="12.7742333"><ele>163.0</ele><time>2026-04-18T13:16:34.597Z</time></trkpt><trkpt lat="43.8357117" lon="12.7743217"><ele>163.0</ele><time>2026-04-18T13:16:35.597Z</time></trkpt><trkpt lat="43.835665" lon="12.7744217"><ele>163.0</ele><time>2026-04-18T13:16:36.597Z</time></trkpt><trkpt lat="43.8356117" lon="12.7745233"><ele>163.0</ele><time>2026-04-18T13:16:37.597Z</time></trkpt><trkpt lat="43.8355633" lon="12.77463"><ele>164.5</ele><time>2026-04-18T13:16:38.597Z</time></trkpt><trkpt lat="43.8355133" lon="12.7747283"><ele>166.0</ele><time>2026-04-18T13:16:39.597Z</time></trkpt><trkpt lat="43.8354633" lon="12.774825"><ele>167.5</ele><time>2026-04-18T13:16:40.597Z</time></trkpt><trkpt lat="43.8354183" lon="12.774925"><ele>169.0</ele><time>2026-04-18T13:16:41.597Z</time></trkpt><trkpt lat="43.835385" lon="12.77503"><ele>170.5</ele><time>2026-04-18T13:16:42.597Z</time></trkpt><trkpt lat="43.835365" lon="12.77514"><ele>172.0</ele><time>2026-04-18T13:16:43.597Z</time></trkpt><trkpt lat="43.8353633" lon="12.7752567"><ele>173.33333333333334</ele><time>2026-04-18T13:16:44.597Z</time></trkpt><trkpt lat="43.8353867" lon="12.7753567"><ele>174.66666666666669</ele><time>2026-04-18T13:16:45.597Z</time></trkpt><trkpt lat="43.8354367" lon="12.775435"><ele>176.0</ele><time>2026-04-18T13:16:46.597Z</time></trkpt><trkpt lat="43.8355067" lon="12.775485"><ele>177.33333333333334</ele><time>2026-04-18T13:16:47.597Z</time></trkpt><trkpt lat="43.8356033" lon="12.775485"><ele>178.66666666666666</ele><time>2026-04-18T13:16:48.597Z</time></trkpt><trkpt lat="43.8357217" lon="12.7754433"><ele>180.0</ele><time>2026-04-18T13:16:49.597Z</time></trkpt><trkpt lat="43.8358467" lon="12.77539"><ele>182.75</ele><time>2026-04-18T13:16:50.597Z</time></trkpt><trkpt lat="43.8359717" lon="12.7753383"><ele>185.5</ele><time>2026-04-18T13:16:51.596Z</time></trkpt><trkpt lat="43.8360883" lon="12.7752967"><ele>188.25</ele><time>2026-04-18T13:16:52.597Z</time></trkpt><trkpt lat="43.8362017" lon="12.775255"><ele>191.0</ele><time>2026-04-18T13:16:53.597Z</time></trkpt><trkpt lat="43.8363" lon="12.7752217"><ele>191.0</ele><time>2026-04-18T13:16:54.597Z</time></trkpt><trkpt lat="43.83639" lon="12.7751967"><ele>191.0</ele><time>2026-04-18T13:16:55.597Z</time></trkpt><trkpt lat="43.8364583" lon="12.77517"><ele>191.0</ele><time>2026-04-18T13:16:56.597Z</time></trkpt><trkpt lat="43.83652" lon="12.7751517"><ele>191.0</ele><time>2026-04-18T13:16:57.597Z</time></trkpt><trkpt lat="43.8365867" lon="12.7751467"><ele>191.0</ele><time>2026-04-18T13:16:58.597Z</time></trkpt><trkpt lat="43.836655" lon="12.7751667"><ele>191.0</ele><time>2026-04-18T13:16:59.597Z</time></trkpt><trkpt lat="43.836715" lon="12.7752183"><ele>191.0</ele><time>2026-04-18T13:17:00.597Z</time></trkpt><trkpt lat="43.8367533" lon="12.77532"><ele>191.0</ele><time>2026-04-18T13:17:01.597Z</time></trkpt><trkpt lat="43.8367617" lon="12.77543"><ele>191.0</ele><time>2026-04-18T13:17:02.597Z</time></trkpt><trkpt lat="43.8367067" lon="12.7755383"><ele>191.0</ele><time>2026-04-18T13:17:03.597Z</time></trkpt><trkpt lat="43.8366333" lon="12.7756183"><ele>191.0</ele><time>2026-04-18T13:17:04.597Z</time></trkpt><trkpt lat="43.8365633" lon="12.7756933"><ele>191.0</ele><time>2026-04-18T13:17:05.597Z</time></trkpt><trkpt lat="43.8364983" lon="12.7757617"><ele>191.0</ele><time>2026-04-18T13:17:06.597Z</time></trkpt><trkpt lat="43.8364333" lon="12.7758333"><ele>191.0</ele><time>2026-04-18T13:17:07.597Z</time></trkpt><trkpt lat="43.8363767" lon="12.775905"><ele>191.0</ele><time>2026-04-18T13:17:08.597Z</time></trkpt><trkpt lat="43.836315" lon="12.7759733"><ele>191.0</ele><time>2026-04-18T13:17:09.597Z</time></trkpt><trkpt lat="43.8362667" lon="12.7760467"><ele>191.0</ele><time>2026-04-18T13:17:10.597Z</time></trkpt><trkpt lat="43.8362283" lon="12.7761183"><ele>191.0</ele><time>2026-04-18T13:17:11.597Z</time></trkpt><trkpt lat="43.8361983" lon="12.7761967"><ele>191.0</ele><time>2026-04-18T13:17:12.597Z</time></trkpt><trkpt lat="43.83621" lon="12.77634"><ele>192.20000000000002</ele><time>2026-04-18T13:17:14.597Z</time></trkpt><trkpt lat="43.8363133" lon="12.77635"><ele>193.4</ele><time>2026-04-18T13:17:16.597Z</time></trkpt><trkpt lat="43.8364033" lon="12.7763133"><ele>194.6</ele><time>2026-04-18T13:17:17.597Z</time></trkpt><trkpt lat="43.8365" lon="12.7762733"><ele>195.8</ele><time>2026-04-18T13:17:18.597Z</time></trkpt><trkpt lat="43.83658" lon="12.7762417"><ele>197.0</ele><time>2026-04-18T13:17:19.597Z</time></trkpt><trkpt lat="43.83666" lon="12.7762283"><ele>197.00000000000003</ele><time>2026-04-18T13:17:20.597Z</time></trkpt><trkpt lat="43.836745" lon="12.77623"><ele>197.0</ele><time>2026-04-18T13:17:21.597Z</time></trkpt><trkpt lat="43.8368183" lon="12.7762483"><ele>197.0</ele><time>2026-04-18T13:17:22.597Z</time></trkpt><trkpt lat="43.8368783" lon="12.7762967"><ele>197.0</ele><time>2026-04-18T13:17:23.597Z</time></trkpt><trkpt lat="43.8369233" lon="12.7763783"><ele>197.00000000000003</ele><time>2026-04-18T13:17:24.596Z</time></trkpt><trkpt lat="43.83694" lon="12.776485"><ele>197.0</ele><time>2026-04-18T13:17:25.597Z</time></trkpt><trkpt lat="43.8369317" lon="12.7765917"><ele>194.66666666666669</ele><time>2026-04-18T13:17:26.597Z</time></trkpt><trkpt lat="43.8369133" lon="12.7767"><ele>192.33333333333334</ele><time>2026-04-18T13:17:27.597Z</time></trkpt><trkpt lat="43.8368917" lon="12.7768183"><ele>190.0</ele><time>2026-04-18T13:17:28.597Z</time></trkpt><trkpt lat="43.83687" lon="12.7769417"><ele>187.66666666666669</ele><time>2026-04-18T13:17:29.597Z</time></trkpt><trkpt lat="43.8368517" lon="12.77707"><ele>185.33333333333334</ele><time>2026-04-18T13:17:30.597Z</time></trkpt><trkpt lat="43.836835" lon="12.7771917"><ele>183.0</ele><time>2026-04-18T13:17:31.597Z</time></trkpt><trkpt lat="43.8368167" lon="12.77731"><ele>183.0</ele><time>2026-04-18T13:17:32.597Z</time></trkpt><trkpt lat="43.8368067" lon="12.77741"><ele>183.0</ele><time>2026-04-18T13:17:33.597Z</time></trkpt><trkpt lat="43.8367983" lon="12.7774967"><ele>183.0</ele><time>2026-04-18T13:17:34.597Z</time></trkpt><trkpt lat="43.8367817" lon="12.7776483"><ele>183.0</ele><time>2026-04-18T13:17:36.597Z</time></trkpt><trkpt lat="43.8367733" lon="12.777745"><ele>183.0</ele><time>2026-04-18T13:17:37.597Z</time></trkpt><trkpt lat="43.8367617" lon="12.7778617"><ele>183.0</ele><time>2026-04-18T13:17:38.597Z</time></trkpt><trkpt lat="43.8367517" lon="12.7779933"><ele>187.0</ele><time>2026-04-18T13:17:39.597Z</time></trkpt><trkpt lat="43.8367333" lon="12.7781317"><ele>191.0</ele><time>2026-04-18T13:17:40.597Z</time></trkpt><trkpt lat="43.83671" lon="12.7782783"><ele>195.0</ele><time>2026-04-18T13:17:41.597Z</time></trkpt><trkpt lat="43.8366867" lon="12.778435"><ele>199.0</ele><time>2026-04-18T13:17:42.597Z</time></trkpt><trkpt lat="43.8366683" lon="12.7785817"><ele>203.0</ele><time>2026-04-18T13:17:43.597Z</time></trkpt><trkpt lat="43.8366533" lon="12.7787317"><ele>203.5</ele><time>2026-04-18T13:17:44.597Z</time></trkpt><trkpt lat="43.83663" lon="12.77889"><ele>204.0</ele><time>2026-04-18T13:17:45.597Z</time></trkpt><trkpt lat="43.83662" lon="12.7790517"><ele>204.5</ele><time>2026-04-18T13:17:46.597Z</time></trkpt><trkpt lat="43.8366233" lon="12.77922"><ele>205.0</ele><time>2026-04-18T13:17:47.597Z</time></trkpt><trkpt lat="43.8366367" lon="12.7793883"><ele>205.5</ele><time>2026-04-18T13:17:48.597Z</time></trkpt><trkpt lat="43.8366667" lon="12.7795567"><ele>206.0</ele><time>2026-04-18T13:17:49.597Z</time></trkpt><trkpt lat="43.8367067" lon="12.7797283"><ele>206.5</ele><time>2026-04-18T13:17:50.596Z</time></trkpt><trkpt lat="43.836755" lon="12.7798967"><ele>207.0</ele><time>2026-04-18T13:17:51.597Z</time></trkpt><trkpt lat="43.836795" lon="12.7800733"><ele>205.0</ele><time>2026-04-18T13:17:52.597Z</time></trkpt><trkpt lat="43.8368333" lon="12.78025"><ele>203.0</ele><time>2026-04-18T13:17:53.597Z</time></trkpt><trkpt lat="43.8368533" lon="12.7804333"><ele>201.0</ele><time>2026-04-18T13:17:54.597Z</time></trkpt><trkpt lat="43.8368583" lon="12.7806283"><ele>199.0</ele><time>2026-04-18T13:17:55.597Z</time></trkpt><trkpt lat="43.836865" lon="12.780815"><ele>200.33333333333331</ele><time>2026-04-18T13:17:56.597Z</time></trkpt><trkpt lat="43.8368633" lon="12.7810167"><ele>201.66666666666669</ele><time>2026-04-18T13:17:57.597Z</time></trkpt><trkpt lat="43.836865" lon="12.7812317"><ele>203.0</ele><time>2026-04-18T13:17:58.597Z</time></trkpt><trkpt lat="43.836855" lon="12.7814383"><ele>203.0</ele><time>2026-04-18T13:17:59.597Z</time></trkpt><trkpt lat="43.8368317" lon="12.78165"><ele>203.0</ele><time>2026-04-18T13:18:00.597Z</time></trkpt><trkpt lat="43.836805" lon="12.7818717"><ele>203.0</ele><time>2026-04-18T13:18:01.597Z</time></trkpt><trkpt lat="43.8367783" lon="12.78208"><ele>205.75</ele><time>2026-04-18T13:18:02.597Z</time></trkpt><trkpt lat="43.8367317" lon="12.7822733"><ele>208.5</ele><time>2026-04-18T13:18:03.597Z</time></trkpt><trkpt lat="43.8366733" lon="12.7824633"><ele>211.25</ele><time>2026-04-18T13:18:04.597Z</time></trkpt><trkpt lat="43.8366217" lon="12.7826433"><ele>214.0</ele><time>2026-04-18T13:18:05.597Z</time></trkpt><trkpt lat="43.83657" lon="12.78281"><ele>214.75</ele><time>2026-04-18T13:18:06.597Z</time></trkpt><trkpt lat="43.8365183" lon="12.7829617"><ele>215.5</ele><time>2026-04-18T13:18:07.597Z</time></trkpt><trkpt lat="43.8364567" lon="12.783115"><ele>216.25</ele><time>2026-04-18T13:18:08.597Z</time></trkpt><trkpt lat="43.8363933" lon="12.7832633"><ele>217.0</ele><time>2026-04-18T13:18:09.597Z</time></trkpt><trkpt lat="43.8363217" lon="12.7834083"><ele>216.5</ele><time>2026-04-18T13:18:10.597Z</time></trkpt><trkpt lat="43.8362417" lon="12.7835633"><ele>216.0</ele><time>2026-04-18T13:18:11.597Z</time></trkpt><trkpt lat="43.836155" lon="12.7837033"><ele>215.5</ele><time>2026-04-18T13:18:12.597Z</time></trkpt><trkpt lat="43.8360683" lon="12.7838583"><ele>215.0</ele><time>2026-04-18T13:18:13.597Z</time></trkpt><trkpt lat="43.83598" lon="12.7840317"><ele>216.0</ele><time>2026-04-18T13:18:14.597Z</time></trkpt><trkpt lat="43.8358967" lon="12.7842183"><ele>217.0</ele><time>2026-04-18T13:18:15.597Z</time></trkpt><trkpt lat="43.83581" lon="12.784405"><ele>218.0</ele><time>2026-04-18T13:18:16.597Z</time></trkpt><trkpt lat="43.835725" lon="12.7845833"><ele>220.0</ele><time>2026-04-18T13:18:17.597Z</time></trkpt><trkpt lat="43.835645" lon="12.7847667"><ele>222.0</ele><time>2026-04-18T13:18:18.597Z</time></trkpt><trkpt lat="43.8355667" lon="12.7849583"><ele>224.0</ele><time>2026-04-18T13:18:19.597Z</time></trkpt><trkpt lat="43.8354883" lon="12.78514"><ele>224.0</ele><time>2026-04-18T13:18:20.597Z</time></trkpt><trkpt lat="43.8354117" lon="12.78531"><ele>224.0</ele><time>2026-04-18T13:18:21.597Z</time></trkpt><trkpt lat="43.8353417" lon="12.7854967"><ele>224.0</ele><time>2026-04-18T13:18:22.597Z</time></trkpt><trkpt lat="43.83526" lon="12.7856817"><ele>224.0</ele><time>2026-04-18T13:18:23.597Z</time></trkpt><trkpt lat="43.8351617" lon="12.7858567"><ele>224.0</ele><time>2026-04-18T13:18:24.597Z</time></trkpt><trkpt lat="43.8350633" lon="12.78604"><ele>224.0</ele><time>2026-04-18T13:18:25.597Z</time></trkpt><trkpt lat="43.8349417" lon="12.7862067"><ele>225.33333333333334</ele><time>2026-04-18T13:18:26.597Z</time></trkpt><trkpt lat="43.834805" lon="12.78637"><ele>226.66666666666669</ele><time>2026-04-18T13:18:27.597Z</time></trkpt><trkpt lat="43.83467" lon="12.78651"><ele>228.0</ele><time>2026-04-18T13:18:28.597Z</time></trkpt><trkpt lat="43.8345367" lon="12.7866433"><ele>228.0</ele><time>2026-04-18T13:18:29.597Z</time></trkpt><trkpt lat="43.8344133" lon="12.7867733"><ele>228.0</ele><time>2026-04-18T13:18:30.597Z</time></trkpt><trkpt lat="43.8343083" lon="12.7869"><ele>228.0</ele><time>2026-04-18T13:18:31.597Z</time></trkpt><trkpt lat="43.8341967" lon="12.787015"><ele>228.0</ele><time>2026-04-18T13:18:32.596Z</time></trkpt><trkpt lat="43.8340767" lon="12.7871317"><ele>232.25</ele><time>2026-04-18T13:18:33.596Z</time></trkpt><trkpt lat="43.8339583" lon="12.78724"><ele>236.5</ele><time>2026-04-18T13:18:34.596Z</time></trkpt><trkpt lat="43.83384" lon="12.78734"><ele>240.75</ele><time>2026-04-18T13:18:35.596Z</time></trkpt><trkpt lat="43.8337183" lon="12.7874417"><ele>245.0</ele><time>2026-04-18T13:18:36.596Z</time></trkpt><trkpt lat="43.83361" lon="12.7875333"><ele>245.0</ele><time>2026-04-18T13:18:37.596Z</time></trkpt><trkpt lat="43.83351" lon="12.7876433"><ele>245.0</ele><time>2026-04-18T13:18:38.596Z</time></trkpt><trkpt lat="43.8334083" lon="12.7877583"><ele>245.0</ele><time>2026-04-18T13:18:39.596Z</time></trkpt><trkpt lat="43.8333" lon="12.7878767"><ele>245.0</ele><time>2026-04-18T13:18:40.596Z</time></trkpt><trkpt lat="43.8331933" lon="12.7879967"><ele>248.25</ele><time>2026-04-18T13:18:41.596Z</time></trkpt><trkpt lat="43.8330867" lon="12.788115"><ele>251.5</ele><time>2026-04-18T13:18:42.596Z</time></trkpt><trkpt lat="43.83297" lon="12.7882283"><ele>254.75</ele><time>2026-04-18T13:18:43.596Z</time></trkpt><trkpt lat="43.83285" lon="12.7883067"><ele>258.0</ele><time>2026-04-18T13:18:44.596Z</time></trkpt><trkpt lat="43.8327233" lon="12.7883833"><ele>256.5</ele><time>2026-04-18T13:18:45.596Z</time></trkpt><trkpt lat="43.8326" lon="12.7884583"><ele>255.0</ele><time>2026-04-18T13:18:46.596Z</time></trkpt><trkpt lat="43.83247" lon="12.7885283"><ele>253.5</ele><time>2026-04-18T13:18:47.596Z</time></trkpt><trkpt lat="43.8323333" lon="12.7886117"><ele>252.0</ele><time>2026-04-18T13:18:48.596Z</time></trkpt><trkpt lat="43.8322067" lon="12.7886967"><ele>254.5</ele><time>2026-04-18T13:18:49.596Z</time></trkpt><trkpt lat="43.832075" lon="12.7887817"><ele>257.0</ele><time>2026-04-18T13:18:50.596Z</time></trkpt><trkpt lat="43.831945" lon="12.7888633"><ele>259.5</ele><time>2026-04-18T13:18:51.596Z</time></trkpt><trkpt lat="43.8318283" lon="12.78894"><ele>262.0</ele><time>2026-04-18T13:18:52.596Z</time></trkpt><trkpt lat="43.831725" lon="12.78901"><ele>262.0</ele><time>2026-04-18T13:18:53.596Z</time></trkpt><trkpt lat="43.8316133" lon="12.7890817"><ele>262.0</ele><time>2026-04-18T13:18:54.596Z</time></trkpt><trkpt lat="43.8315133" lon="12.78914"><ele>262.0</ele><time>2026-04-18T13:18:55.596Z</time></trkpt><trkpt lat="43.8314167" lon="12.7891983"><ele>262.0</ele><time>2026-04-18T13:18:56.596Z</time></trkpt><trkpt lat="43.8313183" lon="12.7892617"><ele>262.0</ele><time>2026-04-18T13:18:57.596Z</time></trkpt><trkpt lat="43.831215" lon="12.789325"><ele>262.5</ele><time>2026-04-18T13:18:58.596Z</time></trkpt><trkpt lat="43.8311133" lon="12.789385"><ele>263.0</ele><time>2026-04-18T13:18:59.596Z</time></trkpt><trkpt lat="43.8310133" lon="12.7894617"><ele>263.5</ele><time>2026-04-18T13:19:00.596Z</time></trkpt><trkpt lat="43.8309183" lon="12.789545"><ele>264.0</ele><time>2026-04-18T13:19:01.596Z</time></trkpt><trkpt lat="43.8308283" lon="12.789645"><ele>264.0</ele><time>2026-04-18T13:19:02.596Z</time></trkpt><trkpt lat="43.8307433" lon="12.7897633"><ele>264.0</ele><time>2026-04-18T13:19:03.596Z</time></trkpt><trkpt lat="43.8306667" lon="12.7899167"><ele>264.0</ele><time>2026-04-18T13:19:04.596Z</time></trkpt><trkpt lat="43.8306" lon="12.7900883"><ele>264.0</ele><time>2026-04-18T13:19:05.596Z</time></trkpt><trkpt lat="43.8305367" lon="12.7902717"><ele>266.25</ele><time>2026-04-18T13:19:06.596Z</time></trkpt><trkpt lat="43.83048" lon="12.7904417"><ele>268.5</ele><time>2026-04-18T13:19:07.596Z</time></trkpt><trkpt lat="43.83043" lon="12.7905933"><ele>270.75</ele><time>2026-04-18T13:19:08.596Z</time></trkpt><trkpt lat="43.8303783" lon="12.7907267"><ele>273.0</ele><time>2026-04-18T13:19:09.596Z</time></trkpt><trkpt lat="43.8303283" lon="12.79084"><ele>273.0</ele><time>2026-04-18T13:19:10.595Z</time></trkpt><trkpt lat="43.830275" lon="12.7909617"><ele>273.0</ele><time>2026-04-18T13:19:11.596Z</time></trkpt><trkpt lat="43.830235" lon="12.7910917"><ele>273.0</ele><time>2026-04-18T13:19:12.596Z</time></trkpt><trkpt lat="43.83019" lon="12.7912217"><ele>273.0</ele><time>2026-04-18T13:19:13.596Z</time></trkpt><trkpt lat="43.8301617" lon="12.791365"><ele>273.0</ele><time>2026-04-18T13:19:14.596Z</time></trkpt><trkpt lat="43.830155" lon="12.79151"><ele>273.4</ele><time>2026-04-18T13:19:15.596Z</time></trkpt><trkpt lat="43.83017" lon="12.791665"><ele>273.8</ele><time>2026-04-18T13:19:16.596Z</time></trkpt><trkpt lat="43.8302083" lon="12.791805"><ele>274.2</ele><time>2026-04-18T13:19:17.596Z</time></trkpt><trkpt lat="43.8302667" lon="12.791925"><ele>274.6</ele><time>2026-04-18T13:19:18.596Z</time></trkpt><trkpt lat="43.830325" lon="12.7920317"><ele>275.0</ele><time>2026-04-18T13:19:19.596Z</time></trkpt><trkpt lat="43.8303867" lon="12.792145"><ele>273.6</ele><time>2026-04-18T13:19:20.596Z</time></trkpt><trkpt lat="43.8304367" lon="12.792265"><ele>272.2</ele><time>2026-04-18T13:19:21.596Z</time></trkpt><trkpt lat="43.8304833" lon="12.79239"><ele>270.8</ele><time>2026-04-18T13:19:22.596Z</time></trkpt><trkpt lat="43.8305283" lon="12.7925133"><ele>269.4</ele><time>2026-04-18T13:19:23.596Z</time></trkpt><trkpt lat="43.8305683" lon="12.7926417"><ele>268.0</ele><time>2026-04-18T13:19:24.596Z</time></trkpt><trkpt lat="43.830605" lon="12.7927733"><ele>267.0</ele><time>2026-04-18T13:19:25.596Z</time></trkpt><trkpt lat="43.830635" lon="12.792865"><ele>266.0</ele><time>2026-04-18T13:19:26.596Z</time></trkpt><trkpt lat="43.8306633" lon="12.79301"><ele>265.0</ele><time>2026-04-18T13:19:27.596Z</time></trkpt><trkpt lat="43.830695" lon="12.79316"><ele>264.0</ele><time>2026-04-18T13:19:28.596Z</time></trkpt><trkpt lat="43.8307033" lon="12.79334"><ele>263.0</ele><time>2026-04-18T13:19:29.596Z</time></trkpt><trkpt lat="43.8306683" lon="12.7936867"><ele>263.0</ele><time>2026-04-18T13:19:31.595Z</time></trkpt><trkpt lat="43.8306233" lon="12.7938433"><ele>263.0</ele><time>2026-04-18T13:19:32.596Z</time></trkpt><trkpt lat="43.8305633" lon="12.7939817"><ele>263.0</ele><time>2026-04-18T13:19:33.596Z</time></trkpt><trkpt lat="43.8305" lon="12.7940983"><ele>263.0</ele><time>2026-04-18T13:19:34.596Z</time></trkpt><trkpt lat="43.8304333" lon="12.7941933"><ele>263.0</ele><time>2026-04-18T13:19:35.596Z</time></trkpt><trkpt lat="43.830375" lon="12.794295"><ele>262.6</ele><time>2026-04-18T13:19:36.596Z</time></trkpt><trkpt lat="43.8303233" lon="12.7944"><ele>262.20000000000005</ele><time>2026-04-18T13:19:37.595Z</time></trkpt><trkpt lat="43.830265" lon="12.7945017"><ele>261.8</ele><time>2026-04-18T13:19:38.596Z</time></trkpt><trkpt lat="43.8302133" lon="12.7946133"><ele>261.40000000000003</ele><time>2026-04-18T13:19:39.596Z</time></trkpt><trkpt lat="43.8301633" lon="12.794735"><ele>261.0</ele><time>2026-04-18T13:19:40.596Z</time></trkpt><trkpt lat="43.830105" lon="12.7948467"><ele>259.8</ele><time>2026-04-18T13:19:41.596Z</time></trkpt><trkpt lat="43.8300483" lon="12.79496"><ele>258.6</ele><time>2026-04-18T13:19:42.596Z</time></trkpt><trkpt lat="43.829985" lon="12.7950667"><ele>257.4</ele><time>2026-04-18T13:19:43.596Z</time></trkpt><trkpt lat="43.8299133" lon="12.7951433"><ele>256.2</ele><time>2026-04-18T13:19:44.596Z</time></trkpt><trkpt lat="43.8298367" lon="12.795225"><ele>255.0</ele><time>2026-04-18T13:19:45.596Z</time></trkpt><trkpt lat="43.829755" lon="12.7953217"><ele>254.4</ele><time>2026-04-18T13:19:46.596Z</time></trkpt><trkpt lat="43.8296767" lon="12.7954267"><ele>253.8</ele><time>2026-04-18T13:19:47.596Z</time></trkpt><trkpt lat="43.8296017" lon="12.79554"><ele>253.2</ele><time>2026-04-18T13:19:48.596Z</time></trkpt><trkpt lat="43.8295333" lon="12.7956483"><ele>252.6</ele><time>2026-04-18T13:19:49.596Z</time></trkpt><trkpt lat="43.8294617" lon="12.7957633"><ele>252.0</ele><time>2026-04-18T13:19:50.596Z</time></trkpt><trkpt lat="43.8293983" lon="12.795885"><ele>252.0</ele><time>2026-04-18T13:19:51.596Z</time></trkpt><trkpt lat="43.829325" lon="12.7960033"><ele>252.0</ele><time>2026-04-18T13:19:52.596Z</time></trkpt><trkpt lat="43.8292567" lon="12.7961367"><ele>252.0</ele><time>2026-04-18T13:19:53.596Z</time></trkpt><trkpt lat="43.829185" lon="12.7962617"><ele>252.0</ele><time>2026-04-18T13:19:54.596Z</time></trkpt><trkpt lat="43.8291167" lon="12.7964"><ele>252.39999999999998</ele><time>2026-04-18T13:19:55.596Z</time></trkpt><trkpt lat="43.8290483" lon="12.79653"><ele>252.79999999999998</ele><time>2026-04-18T13:19:56.596Z</time></trkpt><trkpt lat="43.828975" lon="12.7966567"><ele>253.2</ele><time>2026-04-18T13:19:57.596Z</time></trkpt><trkpt lat="43.8288983" lon="12.7967617"><ele>253.6</ele><time>2026-04-18T13:19:58.596Z</time></trkpt><trkpt lat="43.8288167" lon="12.7968467"><ele>254.0</ele><time>2026-04-18T13:19:59.596Z</time></trkpt><trkpt lat="43.8287283" lon="12.79692"><ele>254.39999999999998</ele><time>2026-04-18T13:20:00.596Z</time></trkpt><trkpt lat="43.828635" lon="12.7969667"><ele>254.79999999999998</ele><time>2026-04-18T13:20:01.596Z</time></trkpt><trkpt lat="43.8285367" lon="12.79699"><ele>255.20000000000002</ele><time>2026-04-18T13:20:02.596Z</time></trkpt><trkpt lat="43.8284383" lon="12.79701"><ele>255.60000000000002</ele><time>2026-04-18T13:20:03.596Z</time></trkpt><trkpt lat="43.82835" lon="12.7970117"><ele>256.0</ele><time>2026-04-18T13:20:04.596Z</time></trkpt><trkpt lat="43.82827" lon="12.797025"><ele>255.99999999999997</ele><time>2026-04-18T13:20:05.596Z</time></trkpt><trkpt lat="43.8282" lon="12.797055"><ele>256.0</ele><time>2026-04-18T13:20:06.596Z</time></trkpt><trkpt lat="43.8281367" lon="12.797095"><ele>256.0</ele><time>2026-04-18T13:20:07.596Z</time></trkpt><trkpt lat="43.828055" lon="12.797165"><ele>256.0</ele><time>2026-04-18T13:20:09.596Z</time></trkpt><trkpt lat="43.8279967" lon="12.7972217"><ele>255.99999999999997</ele><time>2026-04-18T13:20:11.596Z</time></trkpt><trkpt lat="43.8279267" lon="12.797295"><ele>256.0</ele><time>2026-04-18T13:20:13.596Z</time></trkpt><trkpt lat="43.8278783" lon="12.7973517"><ele>255.99999999999997</ele><time>2026-04-18T13:20:14.596Z</time></trkpt><trkpt lat="43.82782" lon="12.79741"><ele>256.0</ele><time>2026-04-18T13:20:15.596Z</time></trkpt><trkpt lat="43.8277617" lon="12.7974833"><ele>256.0</ele><time>2026-04-18T13:20:16.596Z</time></trkpt><trkpt lat="43.8277083" lon="12.7975767"><ele>256.0</ele><time>2026-04-18T13:20:17.596Z</time></trkpt><trkpt lat="43.827655" lon="12.7976733"><ele>255.99999999999997</ele><time>2026-04-18T13:20:18.596Z</time></trkpt><trkpt lat="43.827595" lon="12.7977633"><ele>256.0</ele><time>2026-04-18T13:20:19.596Z</time></trkpt><trkpt lat="43.8275317" lon="12.7978933"><ele>258.0</ele><time>2026-04-18T13:20:20.596Z</time></trkpt><trkpt lat="43.8274667" lon="12.7980317"><ele>260.0</ele><time>2026-04-18T13:20:21.596Z</time></trkpt><trkpt lat="43.8273967" lon="12.7981767"><ele>262.0</ele><time>2026-04-18T13:20:22.596Z</time></trkpt><trkpt lat="43.827325" lon="12.7983183"><ele>264.0</ele><time>2026-04-18T13:20:23.596Z</time></trkpt><trkpt lat="43.8272483" lon="12.7984717"><ele>264.0</ele><time>2026-04-18T13:20:24.596Z</time></trkpt><trkpt lat="43.8271783" lon="12.7986267"><ele>264.0</ele><time>2026-04-18T13:20:25.596Z</time></trkpt><trkpt lat="43.8271117" lon="12.7987817"><ele>264.0</ele><time>2026-04-18T13:20:26.596Z</time></trkpt><trkpt lat="43.8270533" lon="12.7989417"><ele>264.0</ele><time>2026-04-18T13:20:27.596Z</time></trkpt><trkpt lat="43.8270233" lon="12.7991117"><ele>264.0</ele><time>2026-04-18T13:20:28.596Z</time></trkpt><trkpt lat="43.827" lon="12.7992783"><ele>264.0</ele><time>2026-04-18T13:20:29.596Z</time></trkpt><trkpt lat="43.8269817" lon="12.799445"><ele>264.0</ele><time>2026-04-18T13:20:30.596Z</time></trkpt><trkpt lat="43.82696" lon="12.799605"><ele>264.0</ele><time>2026-04-18T13:20:31.596Z</time></trkpt><trkpt lat="43.826945" lon="12.7997717"><ele>264.8</ele><time>2026-04-18T13:20:32.596Z</time></trkpt><trkpt lat="43.82694" lon="12.7999267"><ele>265.59999999999997</ele><time>2026-04-18T13:20:33.596Z</time></trkpt><trkpt lat="43.826935" lon="12.8000567"><ele>266.4</ele><time>2026-04-18T13:20:34.596Z</time></trkpt><trkpt lat="43.8269333" lon="12.8001683"><ele>267.2</ele><time>2026-04-18T13:20:35.596Z</time></trkpt><trkpt lat="43.8269417" lon="12.8002633"><ele>268.0</ele><time>2026-04-18T13:20:36.596Z</time></trkpt><trkpt lat="43.82699" lon="12.80041"><ele>270.0</ele><time>2026-04-18T13:20:38.596Z</time></trkpt><trkpt lat="43.8270683" lon="12.80057"><ele>272.0</ele><time>2026-04-18T13:20:40.596Z</time></trkpt><trkpt lat="43.8271183" lon="12.8006783"><ele>274.0</ele><time>2026-04-18T13:20:41.596Z</time></trkpt><trkpt lat="43.8271633" lon="12.8008033"><ele>276.0</ele><time>2026-04-18T13:20:42.596Z</time></trkpt><trkpt lat="43.827225" lon="12.8009433"><ele>280.5</ele><time>2026-04-18T13:20:43.596Z</time></trkpt><trkpt lat="43.827305" lon="12.8010933"><ele>285.0</ele><time>2026-04-18T13:20:44.596Z</time></trkpt><trkpt lat="43.8273883" lon="12.801235"><ele>289.5</ele><time>2026-04-18T13:20:45.596Z</time></trkpt><trkpt lat="43.82747" lon="12.80137"><ele>294.0</ele><time>2026-04-18T13:20:46.596Z</time></trkpt><trkpt lat="43.8275383" lon="12.8014967"><ele>294.0</ele><time>2026-04-18T13:20:47.596Z</time></trkpt><trkpt lat="43.8276083" lon="12.8016"><ele>294.0</ele><time>2026-04-18T13:20:48.596Z</time></trkpt><trkpt lat="43.8276783" lon="12.8016967"><ele>294.0</ele><time>2026-04-18T13:20:49.596Z</time></trkpt><trkpt lat="43.8277567" lon="12.801785"><ele>294.0</ele><time>2026-04-18T13:20:50.596Z</time></trkpt><trkpt lat="43.8278483" lon="12.80186"><ele>294.0</ele><time>2026-04-18T13:20:51.596Z</time></trkpt><trkpt lat="43.82795" lon="12.8019183"><ele>295.0</ele><time>2026-04-18T13:20:52.596Z</time></trkpt><trkpt lat="43.8280617" lon="12.8019733"><ele>296.0</ele><time>2026-04-18T13:20:53.596Z</time></trkpt><trkpt lat="43.82817" lon="12.8020317"><ele>297.0</ele><time>2026-04-18T13:20:54.596Z</time></trkpt><trkpt lat="43.828275" lon="12.8020767"><ele>298.0</ele><time>2026-04-18T13:20:55.596Z</time></trkpt><trkpt lat="43.8283667" lon="12.80213"><ele>299.0</ele><time>2026-04-18T13:20:56.596Z</time></trkpt><trkpt lat="43.8284383" lon="12.802185"><ele>295.33333333333337</ele><time>2026-04-18T13:20:57.596Z</time></trkpt><trkpt lat="43.828505" lon="12.80227"><ele>291.6666666666667</ele><time>2026-04-18T13:20:58.596Z</time></trkpt><trkpt lat="43.8285467" lon="12.8023817"><ele>288.0</ele><time>2026-04-18T13:20:59.596Z</time></trkpt><trkpt lat="43.82857" lon="12.8025017"><ele>284.3333333333333</ele><time>2026-04-18T13:21:00.596Z</time></trkpt><trkpt lat="43.8285667" lon="12.8026083"><ele>280.66666666666663</ele><time>2026-04-18T13:21:01.596Z</time></trkpt><trkpt lat="43.8285367" lon="12.8026967"><ele>277.0</ele><time>2026-04-18T13:21:02.596Z</time></trkpt><trkpt lat="43.8284817" lon="12.8027767"><ele>280.75</ele><time>2026-04-18T13:21:03.596Z</time></trkpt><trkpt lat="43.828405" lon="12.8028733"><ele>284.5</ele><time>2026-04-18T13:21:04.596Z</time></trkpt><trkpt lat="43.828325" lon="12.802995"><ele>288.25</ele><time>2026-04-18T13:21:05.596Z</time></trkpt><trkpt lat="43.8282433" lon="12.8031417"><ele>292.0</ele><time>2026-04-18T13:21:06.596Z</time></trkpt><trkpt lat="43.8281567" lon="12.80327"><ele>292.0</ele><time>2026-04-18T13:21:07.596Z</time></trkpt><trkpt lat="43.82806" lon="12.8033517"><ele>292.0</ele><time>2026-04-18T13:21:08.596Z</time></trkpt><trkpt lat="43.8279433" lon="12.8033833"><ele>292.0</ele><time>2026-04-18T13:21:09.596Z</time></trkpt><trkpt lat="43.8278233" lon="12.80338"><ele>292.0</ele><time>2026-04-18T13:21:10.596Z</time></trkpt><trkpt lat="43.8277" lon="12.8033217"><ele>293.5</ele><time>2026-04-18T13:21:11.596Z</time></trkpt><trkpt lat="43.8275817" lon="12.80325"><ele>295.0</ele><time>2026-04-18T13:21:12.596Z</time></trkpt><trkpt lat="43.8274717" lon="12.8031783"><ele>296.5</ele><time>2026-04-18T13:21:13.596Z</time></trkpt><trkpt lat="43.827365" lon="12.8031283"><ele>298.0</ele><time>2026-04-18T13:21:14.596Z</time></trkpt><trkpt lat="43.8272767" lon="12.8030833"><ele>298.0</ele><time>2026-04-18T13:21:15.596Z</time></trkpt><trkpt lat="43.82719" lon="12.8030417"><ele>298.0</ele><time>2026-04-18T13:21:16.596Z</time></trkpt><trkpt lat="43.8271067" lon="12.803"><ele>298.0</ele><time>2026-04-18T13:21:17.596Z</time></trkpt><trkpt lat="43.827015" lon="12.802955"><ele>298.0</ele><time>2026-04-18T13:21:18.596Z</time></trkpt><trkpt lat="43.8269117" lon="12.80291"><ele>298.0</ele><time>2026-04-18T13:21:19.596Z</time></trkpt><trkpt lat="43.826805" lon="12.8029"><ele>298.16666666666663</ele><time>2026-04-18T13:21:20.596Z</time></trkpt><trkpt lat="43.8267183" lon="12.8028867"><ele>298.3333333333333</ele><time>2026-04-18T13:21:21.596Z</time></trkpt><trkpt lat="43.8266417" lon="12.8029017"><ele>298.5</ele><time>2026-04-18T13:21:22.596Z</time></trkpt><trkpt lat="43.8265783" lon="12.8029317"><ele>298.6666666666667</ele><time>2026-04-18T13:21:23.596Z</time></trkpt><trkpt lat="43.82648" lon="12.803005"><ele>298.83333333333337</ele><time>2026-04-18T13:21:25.595Z</time></trkpt><trkpt lat="43.8264217" lon="12.8030517"><ele>299.0</ele><time>2026-04-18T13:21:26.596Z</time></trkpt><trkpt lat="43.8263367" lon="12.8031"><ele>299.0</ele><time>2026-04-18T13:21:27.596Z</time></trkpt><trkpt lat="43.8262267" lon="12.80315"><ele>299.0</ele><time>2026-04-18T13:21:28.596Z</time></trkpt><trkpt lat="43.8261083" lon="12.803215"><ele>299.0</ele><time>2026-04-18T13:21:29.596Z</time></trkpt><trkpt lat="43.8259883" lon="12.80325"><ele>299.0</ele><time>2026-04-18T13:21:30.596Z</time></trkpt><trkpt lat="43.82586" lon="12.8032867"><ele>300.59999999999997</ele><time>2026-04-18T13:21:31.596Z</time></trkpt><trkpt lat="43.825735" lon="12.8033067"><ele>302.2</ele><time>2026-04-18T13:21:32.596Z</time></trkpt><trkpt lat="43.8256183" lon="12.8033183"><ele>303.79999999999995</ele><time>2026-04-18T13:21:33.596Z</time></trkpt><trkpt lat="43.82552" lon="12.80332"><ele>305.4</ele><time>2026-04-18T13:21:34.596Z</time></trkpt><trkpt lat="43.825445" lon="12.8033333"><ele>307.0</ele><time>2026-04-18T13:21:35.596Z</time></trkpt><trkpt lat="43.8253367" lon="12.8033383"><ele>307.0</ele><time>2026-04-18T13:21:37.596Z</time></trkpt><trkpt lat="43.82527" lon="12.8033633"><ele>307.0</ele><time>2026-04-18T13:21:38.596Z</time></trkpt><trkpt lat="43.8251983" lon="12.8034133"><ele>307.0</ele><time>2026-04-18T13:21:39.596Z</time></trkpt><trkpt lat="43.825105" lon="12.8034867"><ele>307.0</ele><time>2026-04-18T13:21:40.596Z</time></trkpt><trkpt lat="43.8249983" lon="12.8036067"><ele>307.0</ele><time>2026-04-18T13:21:41.596Z</time></trkpt><trkpt lat="43.8248967" lon="12.8037517"><ele>303.66666666666663</ele><time>2026-04-18T13:21:42.596Z</time></trkpt><trkpt lat="43.824795" lon="12.8039133"><ele>300.3333333333333</ele><time>2026-04-18T13:21:43.596Z</time></trkpt><trkpt lat="43.8246867" lon="12.804075"><ele>297.0</ele><time>2026-04-18T13:21:44.596Z</time></trkpt><trkpt lat="43.8245917" lon="12.80428"><ele>294.25</ele><time>2026-04-18T13:21:45.596Z</time></trkpt><trkpt lat="43.8245183" lon="12.8044733"><ele>291.5</ele><time>2026-04-18T13:21:46.596Z</time></trkpt><trkpt lat="43.8244733" lon="12.8046417"><ele>288.75</ele><time>2026-04-18T13:21:47.596Z</time></trkpt><trkpt lat="43.82447" lon="12.804825"><ele>286.0</ele><time>2026-04-18T13:21:48.596Z</time></trkpt><trkpt lat="43.8244933" lon="12.8050517"><ele>285.0</ele><time>2026-04-18T13:21:49.596Z</time></trkpt><trkpt lat="43.824535" lon="12.805305"><ele>284.0</ele><time>2026-04-18T13:21:50.596Z</time></trkpt><trkpt lat="43.824575" lon="12.805555"><ele>283.0</ele><time>2026-04-18T13:21:51.596Z</time></trkpt><trkpt lat="43.8246367" lon="12.8057983"><ele>288.3333333333333</ele><time>2026-04-18T13:21:52.596Z</time></trkpt><trkpt lat="43.82472" lon="12.8060183"><ele>293.6666666666667</ele><time>2026-04-18T13:21:53.596Z</time></trkpt><trkpt lat="43.8248217" lon="12.80625"><ele>299.0</ele><time>2026-04-18T13:21:54.596Z</time></trkpt><trkpt lat="43.8249" lon="12.8064617"><ele>299.0</ele><time>2026-04-18T13:21:55.596Z</time></trkpt><trkpt lat="43.8249833" lon="12.8066733"><ele>299.0</ele><time>2026-04-18T13:21:56.596Z</time></trkpt><trkpt lat="43.8250483" lon="12.8068583"><ele>299.0</ele><time>2026-04-18T13:21:57.596Z</time></trkpt><trkpt lat="43.8251017" lon="12.8070333"><ele>289.33333333333337</ele><time>2026-04-18T13:21:58.596Z</time></trkpt><trkpt lat="43.8251567" lon="12.8072217"><ele>279.6666666666667</ele><time>2026-04-18T13:21:59.596Z</time></trkpt><trkpt lat="43.8251833" lon="12.8074283"><ele>270.0</ele><time>2026-04-18T13:22:00.596Z</time></trkpt><trkpt lat="43.825205" lon="12.8076417"><ele>275.6666666666667</ele><time>2026-04-18T13:22:01.596Z</time></trkpt><trkpt lat="43.8252317" lon="12.80786"><ele>281.33333333333337</ele><time>2026-04-18T13:22:02.596Z</time></trkpt><trkpt lat="43.8252683" lon="12.8080683"><ele>287.0</ele><time>2026-04-18T13:22:03.596Z</time></trkpt><trkpt lat="43.825325" lon="12.8082583"><ele>287.0</ele><time>2026-04-18T13:22:04.596Z</time></trkpt><trkpt lat="43.8254067" lon="12.8084217"><ele>287.0</ele><time>2026-04-18T13:22:05.596Z</time></trkpt><trkpt lat="43.8255117" lon="12.8085567"><ele>287.0</ele><time>2026-04-18T13:22:06.596Z</time></trkpt><trkpt lat="43.8256333" lon="12.80867"><ele>287.0</ele><time>2026-04-18T13:22:07.596Z</time></trkpt><trkpt lat="43.8257733" lon="12.80876"><ele>290.6666666666667</ele><time>2026-04-18T13:22:08.596Z</time></trkpt><trkpt lat="43.825925" lon="12.8088217"><ele>294.3333333333333</ele><time>2026-04-18T13:22:09.596Z</time></trkpt><trkpt lat="43.82608" lon="12.80886"><ele>298.0</ele><time>2026-04-18T13:22:10.596Z</time></trkpt><trkpt lat="43.8262317" lon="12.8088767"><ele>298.5</ele><time>2026-04-18T13:22:11.596Z</time></trkpt><trkpt lat="43.8263867" lon="12.8088617"><ele>299.0</ele><time>2026-04-18T13:22:12.596Z</time></trkpt><trkpt lat="43.8265367" lon="12.808825"><ele>299.5</ele><time>2026-04-18T13:22:13.596Z</time></trkpt><trkpt lat="43.8266617" lon="12.8088017"><ele>300.0</ele><time>2026-04-18T13:22:14.596Z</time></trkpt><trkpt lat="43.8267767" lon="12.8087967"><ele>296.8</ele><time>2026-04-18T13:22:15.595Z</time></trkpt><trkpt lat="43.826875" lon="12.8088367"><ele>293.6</ele><time>2026-04-18T13:22:16.596Z</time></trkpt><trkpt lat="43.82695" lon="12.8089267"><ele>290.4</ele><time>2026-04-18T13:22:17.596Z</time></trkpt><trkpt lat="43.8269833" lon="12.8090517"><ele>287.2</ele><time>2026-04-18T13:22:18.596Z</time></trkpt><trkpt lat="43.827015" lon="12.80921"><ele>284.0</ele><time>2026-04-18T13:22:19.596Z</time></trkpt><trkpt lat="43.8270517" lon="12.8093917"><ele>284.0</ele><time>2026-04-18T13:22:20.596Z</time></trkpt><trkpt lat="43.8270983" lon="12.8095767"><ele>284.0</ele><time>2026-04-18T13:22:21.596Z</time></trkpt><trkpt lat="43.8271633" lon="12.8097717"><ele>284.0</ele><time>2026-04-18T13:22:22.596Z</time></trkpt><trkpt lat="43.827245" lon="12.8099717"><ele>287.33333333333337</ele><time>2026-04-18T13:22:23.596Z</time></trkpt><trkpt lat="43.8273317" lon="12.81017"><ele>290.6666666666667</ele><time>2026-04-18T13:22:24.596Z</time></trkpt><trkpt lat="43.8274283" lon="12.810355"><ele>294.0</ele><time>2026-04-18T13:22:25.596Z</time></trkpt><trkpt lat="43.827505" lon="12.8105333"><ele>294.0</ele><time>2026-04-18T13:22:26.596Z</time></trkpt><trkpt lat="43.8275667" lon="12.8107117"><ele>294.0</ele><time>2026-04-18T13:22:27.596Z</time></trkpt><trkpt lat="43.8276017" lon="12.8109083"><ele>294.0</ele><time>2026-04-18T13:22:28.596Z</time></trkpt><trkpt lat="43.827625" lon="12.8111283"><ele>294.0</ele><time>2026-04-18T13:22:29.596Z</time></trkpt><trkpt lat="43.82765" lon="12.81135"><ele>287.6666666666667</ele><time>2026-04-18T13:22:30.596Z</time></trkpt><trkpt lat="43.8276933" lon="12.8115717"><ele>281.33333333333337</ele><time>2026-04-18T13:22:31.596Z</time></trkpt><trkpt lat="43.8277583" lon="12.8118"><ele>275.0</ele><time>2026-04-18T13:22:32.596Z</time></trkpt><trkpt lat="43.827825" lon="12.8120017"><ele>275.0</ele><time>2026-04-18T13:22:33.596Z</time></trkpt><trkpt lat="43.8278817" lon="12.812175"><ele>275.0</ele><time>2026-04-18T13:22:34.596Z</time></trkpt><trkpt lat="43.8279183" lon="12.8123533"><ele>275.0</ele><time>2026-04-18T13:22:35.596Z</time></trkpt><trkpt lat="43.827945" lon="12.812555"><ele>275.0</ele><time>2026-04-18T13:22:36.596Z</time></trkpt><trkpt lat="43.8279683" lon="12.8127817"><ele>274.6666666666667</ele><time>2026-04-18T13:22:37.596Z</time></trkpt><trkpt lat="43.82798" lon="12.81301"><ele>274.3333333333333</ele><time>2026-04-18T13:22:38.596Z</time></trkpt><trkpt lat="43.82796" lon="12.8132367"><ele>274.0</ele><time>2026-04-18T13:22:39.596Z</time></trkpt><trkpt lat="43.82793" lon="12.8134633"><ele>273.66666666666663</ele><time>2026-04-18T13:22:40.596Z</time></trkpt><trkpt lat="43.8279283" lon="12.8136867"><ele>273.3333333333333</ele><time>2026-04-18T13:22:41.596Z</time></trkpt><trkpt lat="43.8279483" lon="12.8139217"><ele>273.0</ele><time>2026-04-18T13:22:42.596Z</time></trkpt><trkpt lat="43.8279917" lon="12.8141533"><ele>275.3333333333333</ele><time>2026-04-18T13:22:43.596Z</time></trkpt><trkpt lat="43.8280567" lon="12.8144"><ele>277.66666666666663</ele><time>2026-04-18T13:22:44.596Z</time></trkpt><trkpt lat="43.8281217" lon="12.8146467"><ele>280.0</ele><time>2026-04-18T13:22:45.596Z</time></trkpt><trkpt lat="43.8281767" lon="12.8148917"><ele>280.0</ele><time>2026-04-18T13:22:46.596Z</time></trkpt><trkpt lat="43.8282267" lon="12.8151183"><ele>280.0</ele><time>2026-04-18T13:22:47.596Z</time></trkpt><trkpt lat="43.8282817" lon="12.8153217"><ele>280.0</ele><time>2026-04-18T13:22:48.596Z</time></trkpt><trkpt lat="43.82835" lon="12.8154967"><ele>280.25</ele><time>2026-04-18T13:22:49.596Z</time></trkpt><trkpt lat="43.828425" lon="12.8156667"><ele>280.5</ele><time>2026-04-18T13:22:50.596Z</time></trkpt><trkpt lat="43.8285017" lon="12.8158183"><ele>280.75</ele><time>2026-04-18T13:22:51.596Z</time></trkpt><trkpt lat="43.8285667" lon="12.815945"><ele>281.0</ele><time>2026-04-18T13:22:52.596Z</time></trkpt><trkpt lat="43.828615" lon="12.8160533"><ele>281.0</ele><time>2026-04-18T13:22:53.596Z</time></trkpt><trkpt lat="43.828635" lon="12.8161733"><ele>281.0</ele><time>2026-04-18T13:22:54.596Z</time></trkpt><trkpt lat="43.8286133" lon="12.8162917"><ele>281.0</ele><time>2026-04-18T13:22:55.596Z</time></trkpt><trkpt lat="43.828555" lon="12.8163933"><ele>281.0</ele><time>2026-04-18T13:22:56.596Z</time></trkpt><trkpt lat="43.8284717" lon="12.8165033"><ele>281.0</ele><time>2026-04-18T13:22:57.596Z</time></trkpt><trkpt lat="43.8283817" lon="12.8166333"><ele>281.0</ele><time>2026-04-18T13:22:58.596Z</time></trkpt><trkpt lat="43.8283033" lon="12.816785"><ele>281.0</ele><time>2026-04-18T13:22:59.596Z</time></trkpt><trkpt lat="43.8282367" lon="12.816945"><ele>281.0</ele><time>2026-04-18T13:23:00.596Z</time></trkpt><trkpt lat="43.82819" lon="12.81711"><ele>281.0</ele><time>2026-04-18T13:23:01.596Z</time></trkpt><trkpt lat="43.8281733" lon="12.8172583"><ele>278.75</ele><time>2026-04-18T13:23:02.595Z</time></trkpt><trkpt lat="43.8281717" lon="12.8174217"><ele>276.5</ele><time>2026-04-18T13:23:03.596Z</time></trkpt><trkpt lat="43.8281933" lon="12.8175817"><ele>274.25</ele><time>2026-04-18T13:23:04.596Z</time></trkpt><trkpt lat="43.8282483" lon="12.8177167"><ele>272.0</ele><time>2026-04-18T13:23:05.596Z</time></trkpt><trkpt lat="43.8283217" lon="12.817835"><ele>270.2</ele><time>2026-04-18T13:23:06.596Z</time></trkpt><trkpt lat="43.8284083" lon="12.8179033"><ele>268.4</ele><time>2026-04-18T13:23:07.596Z</time></trkpt><trkpt lat="43.8284967" lon="12.817925"><ele>266.6</ele><time>2026-04-18T13:23:08.596Z</time></trkpt><trkpt lat="43.8285867" lon="12.8178767"><ele>264.8</ele><time>2026-04-18T13:23:09.596Z</time></trkpt><trkpt lat="43.8286883" lon="12.817825"><ele>263.0</ele><time>2026-04-18T13:23:10.596Z</time></trkpt><trkpt lat="43.8287867" lon="12.8177067"><ele>261.75</ele><time>2026-04-18T13:23:11.596Z</time></trkpt><trkpt lat="43.8288783" lon="12.817525"><ele>260.5</ele><time>2026-04-18T13:23:12.596Z</time></trkpt><trkpt lat="43.8289667" lon="12.8173617"><ele>259.25</ele><time>2026-04-18T13:23:13.596Z</time></trkpt><trkpt lat="43.82906" lon="12.817225"><ele>258.0</ele><time>2026-04-18T13:23:14.596Z</time></trkpt><trkpt lat="43.8291517" lon="12.8171033"><ele>258.0</ele><time>2026-04-18T13:23:15.596Z</time></trkpt><trkpt lat="43.8292617" lon="12.8170367"><ele>258.0</ele><time>2026-04-18T13:23:16.596Z</time></trkpt><trkpt lat="43.829395" lon="12.8170183"><ele>258.0</ele><time>2026-04-18T13:23:17.596Z</time></trkpt><trkpt lat="43.8295283" lon="12.817035"><ele>258.0</ele><time>2026-04-18T13:23:18.596Z</time></trkpt><trkpt lat="43.8296617" lon="12.8170767"><ele>257.0</ele><time>2026-04-18T13:23:19.596Z</time></trkpt><trkpt lat="43.82979" lon="12.81713"><ele>256.0</ele><time>2026-04-18T13:23:20.596Z</time></trkpt><trkpt lat="43.8299133" lon="12.8171767"><ele>255.0</ele><time>2026-04-18T13:23:21.596Z</time></trkpt><trkpt lat="43.8300383" lon="12.81721"><ele>254.0</ele><time>2026-04-18T13:23:22.596Z</time></trkpt><trkpt lat="43.8301533" lon="12.8172283"><ele>253.75</ele><time>2026-04-18T13:23:23.596Z</time></trkpt><trkpt lat="43.83026" lon="12.8172583"><ele>253.5</ele><time>2026-04-18T13:23:24.596Z</time></trkpt><trkpt lat="43.83036" lon="12.817305"><ele>253.25</ele><time>2026-04-18T13:23:25.596Z</time></trkpt><trkpt lat="43.830465" lon="12.8173883"><ele>253.0</ele><time>2026-04-18T13:23:26.596Z</time></trkpt><trkpt lat="43.8305617" lon="12.8174983"><ele>253.0</ele><time>2026-04-18T13:23:27.596Z</time></trkpt><trkpt lat="43.8306633" lon="12.8176483"><ele>253.0</ele><time>2026-04-18T13:23:28.596Z</time></trkpt><trkpt lat="43.8307533" lon="12.8178017"><ele>253.0</ele><time>2026-04-18T13:23:29.596Z</time></trkpt><trkpt lat="43.8308383" lon="12.8179483"><ele>253.0</ele><time>2026-04-18T13:23:30.596Z</time></trkpt><trkpt lat="43.8309383" lon="12.8180983"><ele>252.5</ele><time>2026-04-18T13:23:31.595Z</time></trkpt><trkpt lat="43.8310483" lon="12.81826"><ele>252.0</ele><time>2026-04-18T13:23:32.595Z</time></trkpt><trkpt lat="43.831275" lon="12.818595"><ele>251.33333333333331</ele><time>2026-04-18T13:23:34.595Z</time></trkpt><trkpt lat="43.831415" lon="12.81878"><ele>250.66666666666666</ele><time>2026-04-18T13:23:35.595Z</time></trkpt><trkpt lat="43.8315667" lon="12.81897"><ele>250.0</ele><time>2026-04-18T13:23:36.595Z</time></trkpt><trkpt lat="43.8317217" lon="12.8191517"><ele>250.0</ele><time>2026-04-18T13:23:37.595Z</time></trkpt><trkpt lat="43.8318733" lon="12.819315"><ele>250.0</ele><time>2026-04-18T13:23:38.595Z</time></trkpt><trkpt lat="43.83201" lon="12.81947"><ele>250.0</ele><time>2026-04-18T13:23:39.595Z</time></trkpt><trkpt lat="43.83214" lon="12.819605"><ele>250.5</ele><time>2026-04-18T13:23:40.595Z</time></trkpt><trkpt lat="43.8322617" lon="12.81974"><ele>251.0</ele><time>2026-04-18T13:23:41.595Z</time></trkpt><trkpt lat="43.8323717" lon="12.8198517"><ele>251.5</ele><time>2026-04-18T13:23:42.595Z</time></trkpt><trkpt lat="43.8324717" lon="12.8199433"><ele>252.0</ele><time>2026-04-18T13:23:43.595Z</time></trkpt><trkpt lat="43.8325417" lon="12.8200183"><ele>252.0</ele><time>2026-04-18T13:23:44.595Z</time></trkpt><trkpt lat="43.8326067" lon="12.8201267"><ele>252.0</ele><time>2026-04-18T13:23:45.595Z</time></trkpt><trkpt lat="43.83264" lon="12.8202617"><ele>252.0</ele><time>2026-04-18T13:23:46.595Z</time></trkpt><trkpt lat="43.8326533" lon="12.82044"><ele>252.0</ele><time>2026-04-18T13:23:47.595Z</time></trkpt><trkpt lat="43.8326583" lon="12.8206617"><ele>254.33333333333331</ele><time>2026-04-18T13:23:48.595Z</time></trkpt><trkpt lat="43.8326733" lon="12.82093"><ele>256.66666666666663</ele><time>2026-04-18T13:23:49.595Z</time></trkpt><trkpt lat="43.8326817" lon="12.821215"><ele>259.0</ele><time>2026-04-18T13:23:50.595Z</time></trkpt><trkpt lat="43.832715" lon="12.821505"><ele>260.66666666666663</ele><time>2026-04-18T13:23:51.595Z</time></trkpt><trkpt lat="43.8327633" lon="12.821795"><ele>262.3333333333333</ele><time>2026-04-18T13:23:52.595Z</time></trkpt><trkpt lat="43.8328233" lon="12.8220583"><ele>264.0</ele><time>2026-04-18T13:23:53.595Z</time></trkpt><trkpt lat="43.8328683" lon="12.8223417"><ele>264.0</ele><time>2026-04-18T13:23:54.594Z</time></trkpt><trkpt lat="43.8328917" lon="12.8226183"><ele>264.0</ele><time>2026-04-18T13:23:55.595Z</time></trkpt><trkpt lat="43.8328967" lon="12.8229283"><ele>264.0</ele><time>2026-04-18T13:23:56.595Z</time></trkpt><trkpt lat="43.8328883" lon="12.8232317"><ele>262.6666666666667</ele><time>2026-04-18T13:23:57.595Z</time></trkpt><trkpt lat="43.83288" lon="12.823515"><ele>261.33333333333337</ele><time>2026-04-18T13:23:58.595Z</time></trkpt><trkpt lat="43.8328783" lon="12.8237783"><ele>260.0</ele><time>2026-04-18T13:23:59.595Z</time></trkpt><trkpt lat="43.832865" lon="12.8240367"><ele>260.0</ele><time>2026-04-18T13:24:00.595Z</time></trkpt><trkpt lat="43.8328617" lon="12.824285"><ele>260.0</ele><time>2026-04-18T13:24:01.595Z</time></trkpt><trkpt lat="43.8328367" lon="12.8245217"><ele>260.0</ele><time>2026-04-18T13:24:02.595Z</time></trkpt><trkpt lat="43.832795" lon="12.8247483"><ele>257.6666666666667</ele><time>2026-04-18T13:24:03.595Z</time></trkpt><trkpt lat="43.83275" lon="12.8249583"><ele>255.33333333333331</ele><time>2026-04-18T13:24:04.595Z</time></trkpt><trkpt lat="43.8326967" lon="12.825165"><ele>253.0</ele><time>2026-04-18T13:24:05.595Z</time></trkpt><trkpt lat="43.8326633" lon="12.8253733"><ele>249.0</ele><time>2026-04-18T13:24:06.595Z</time></trkpt><trkpt lat="43.8326533" lon="12.8256"><ele>245.0</ele><time>2026-04-18T13:24:07.595Z</time></trkpt><trkpt lat="43.83266" lon="12.8258383"><ele>241.0</ele><time>2026-04-18T13:24:08.595Z</time></trkpt><trkpt lat="43.832685" lon="12.82608"><ele>236.33333333333331</ele><time>2026-04-18T13:24:09.595Z</time></trkpt><trkpt lat="43.8327017" lon="12.8263183"><ele>231.66666666666669</ele><time>2026-04-18T13:24:10.595Z</time></trkpt><trkpt lat="43.832715" lon="12.8265567"><ele>227.0</ele><time>2026-04-18T13:24:11.594Z</time></trkpt><trkpt lat="43.8327183" lon="12.8267983"><ele>229.33333333333334</ele><time>2026-04-18T13:24:12.595Z</time></trkpt><trkpt lat="43.8326917" lon="12.8270267"><ele>231.66666666666669</ele><time>2026-04-18T13:24:13.595Z</time></trkpt><trkpt lat="43.832635" lon="12.8272483"><ele>234.0</ele><time>2026-04-18T13:24:14.595Z</time></trkpt><trkpt lat="43.83256" lon="12.827475"><ele>230.66666666666669</ele><time>2026-04-18T13:24:15.595Z</time></trkpt><trkpt lat="43.832495" lon="12.8276867"><ele>227.33333333333334</ele><time>2026-04-18T13:24:16.595Z</time></trkpt><trkpt lat="43.8324383" lon="12.8278983"><ele>224.0</ele><time>2026-04-18T13:24:17.595Z</time></trkpt><trkpt lat="43.8323967" lon="12.8281117"><ele>224.0</ele><time>2026-04-18T13:24:18.595Z</time></trkpt><trkpt lat="43.8323883" lon="12.8283333"><ele>224.0</ele><time>2026-04-18T13:24:19.595Z</time></trkpt><trkpt lat="43.8324017" lon="12.828575"><ele>224.0</ele><time>2026-04-18T13:24:20.595Z</time></trkpt><trkpt lat="43.832425" lon="12.82882"><ele>222.66666666666669</ele><time>2026-04-18T13:24:21.595Z</time></trkpt><trkpt lat="43.8324183" lon="12.8290533"><ele>221.33333333333331</ele><time>2026-04-18T13:24:22.594Z</time></trkpt><trkpt lat="43.8323967" lon="12.82928"><ele>220.0</ele><time>2026-04-18T13:24:23.595Z</time></trkpt><trkpt lat="43.8323633" lon="12.829495"><ele>218.75</ele><time>2026-04-18T13:24:24.595Z</time></trkpt><trkpt lat="43.8323367" lon="12.8297083"><ele>217.5</ele><time>2026-04-18T13:24:25.595Z</time></trkpt><trkpt lat="43.8323317" lon="12.8299033"><ele>216.25</ele><time>2026-04-18T13:24:26.595Z</time></trkpt><trkpt lat="43.8323533" lon="12.8301033"><ele>215.0</ele><time>2026-04-18T13:24:27.595Z</time></trkpt><trkpt lat="43.832395" lon="12.8302983"><ele>214.0</ele><time>2026-04-18T13:24:28.595Z</time></trkpt><trkpt lat="43.83247" lon="12.8305133"><ele>213.0</ele><time>2026-04-18T13:24:29.595Z</time></trkpt><trkpt lat="43.8325717" lon="12.8307183"><ele>212.0</ele><time>2026-04-18T13:24:30.595Z</time></trkpt><trkpt lat="43.832685" lon="12.8309383"><ele>208.66666666666669</ele><time>2026-04-18T13:24:31.595Z</time></trkpt><trkpt lat="43.832785" lon="12.8311617"><ele>205.33333333333331</ele><time>2026-04-18T13:24:32.595Z</time></trkpt><trkpt lat="43.832875" lon="12.831365"><ele>202.0</ele><time>2026-04-18T13:24:33.595Z</time></trkpt><trkpt lat="43.8329583" lon="12.831545"><ele>202.0</ele><time>2026-04-18T13:24:34.595Z</time></trkpt><trkpt lat="43.8330433" lon="12.8317183"><ele>202.0</ele><time>2026-04-18T13:24:35.595Z</time></trkpt><trkpt lat="43.8331167" lon="12.83189"><ele>202.0</ele><time>2026-04-18T13:24:36.595Z</time></trkpt><trkpt lat="43.8331917" lon="12.8320717"><ele>202.0</ele><time>2026-04-18T13:24:37.595Z</time></trkpt><trkpt lat="43.8332683" lon="12.83226"><ele>200.5</ele><time>2026-04-18T13:24:38.595Z</time></trkpt><trkpt lat="43.8333467" lon="12.8324383"><ele>199.0</ele><time>2026-04-18T13:24:39.595Z</time></trkpt><trkpt lat="43.83342" lon="12.8326283"><ele>197.5</ele><time>2026-04-18T13:24:40.595Z</time></trkpt><trkpt lat="43.8334883" lon="12.8328017"><ele>196.0</ele><time>2026-04-18T13:24:41.595Z</time></trkpt><trkpt lat="43.833525" lon="12.832975"><ele>193.5</ele><time>2026-04-18T13:24:42.595Z</time></trkpt><trkpt lat="43.833515" lon="12.833165"><ele>191.0</ele><time>2026-04-18T13:24:43.595Z</time></trkpt><trkpt lat="43.8334633" lon="12.833335"><ele>188.5</ele><time>2026-04-18T13:24:44.595Z</time></trkpt><trkpt lat="43.8334083" lon="12.833485"><ele>186.0</ele><time>2026-04-18T13:24:45.595Z</time></trkpt><trkpt lat="43.833365" lon="12.83363"><ele>184.5</ele><time>2026-04-18T13:24:46.595Z</time></trkpt><trkpt lat="43.83335" lon="12.8337567"><ele>183.0</ele><time>2026-04-18T13:24:47.595Z</time></trkpt><trkpt lat="43.8333633" lon="12.8338733"><ele>181.5</ele><time>2026-04-18T13:24:48.595Z</time></trkpt><trkpt lat="43.8333983" lon="12.8339667"><ele>180.0</ele><time>2026-04-18T13:24:49.595Z</time></trkpt><trkpt lat="43.8334517" lon="12.8340417"><ele>178.5</ele><time>2026-04-18T13:24:50.595Z</time></trkpt><trkpt lat="43.8335383" lon="12.8340683"><ele>177.0</ele><time>2026-04-18T13:24:51.594Z</time></trkpt><trkpt lat="43.8336517" lon="12.8340417"><ele>176.5</ele><time>2026-04-18T13:24:52.595Z</time></trkpt><trkpt lat="43.8337917" lon="12.8339883"><ele>176.0</ele><time>2026-04-18T13:24:53.595Z</time></trkpt><trkpt lat="43.8339283" lon="12.83396"><ele>175.5</ele><time>2026-04-18T13:24:54.595Z</time></trkpt><trkpt lat="43.8340367" lon="12.8340183"><ele>175.0</ele><time>2026-04-18T13:24:55.595Z</time></trkpt><trkpt lat="43.8341133" lon="12.8341417"><ele>173.75</ele><time>2026-04-18T13:24:56.595Z</time></trkpt><trkpt lat="43.83414" lon="12.8343183"><ele>172.5</ele><time>2026-04-18T13:24:57.595Z</time></trkpt><trkpt lat="43.8341433" lon="12.8345217"><ele>171.25</ele><time>2026-04-18T13:24:58.595Z</time></trkpt><trkpt lat="43.8341367" lon="12.8347467"><ele>170.0</ele><time>2026-04-18T13:24:59.595Z</time></trkpt><trkpt lat="43.8341283" lon="12.8349767"><ele>168.0</ele><time>2026-04-18T13:25:00.595Z</time></trkpt><trkpt lat="43.8341183" lon="12.8352067"><ele>166.0</ele><time>2026-04-18T13:25:01.595Z</time></trkpt><trkpt lat="43.8341067" lon="12.8354167"><ele>164.0</ele><time>2026-04-18T13:25:02.595Z</time></trkpt><trkpt lat="43.8340883" lon="12.8356267"><ele>164.0</ele><time>2026-04-18T13:25:03.595Z</time></trkpt><trkpt lat="43.8340517" lon="12.83584"><ele>164.0</ele><time>2026-04-18T13:25:04.594Z</time></trkpt><trkpt lat="43.83402" lon="12.8360583"><ele>164.0</ele><time>2026-04-18T13:25:05.595Z</time></trkpt><trkpt lat="43.8339767" lon="12.8362767"><ele>162.33333333333331</ele><time>2026-04-18T13:25:06.595Z</time></trkpt><trkpt lat="43.833935" lon="12.8364933"><ele>160.66666666666666</ele><time>2026-04-18T13:25:07.595Z</time></trkpt><trkpt lat="43.8338967" lon="12.8366967"><ele>159.0</ele><time>2026-04-18T13:25:08.595Z</time></trkpt><trkpt lat="43.8338517" lon="12.8368967"><ele>156.25</ele><time>2026-04-18T13:25:09.595Z</time></trkpt><trkpt lat="43.8338067" lon="12.8370733"><ele>153.5</ele><time>2026-04-18T13:25:10.595Z</time></trkpt><trkpt lat="43.8337483" lon="12.83724"><ele>150.75</ele><time>2026-04-18T13:25:11.595Z</time></trkpt><trkpt lat="43.8336917" lon="12.8374267"><ele>148.0</ele><time>2026-04-18T13:25:12.594Z</time></trkpt><trkpt lat="43.833635" lon="12.837625"><ele>146.0</ele><time>2026-04-18T13:25:13.595Z</time></trkpt><trkpt lat="43.833565" lon="12.8378267"><ele>144.0</ele><time>2026-04-18T13:25:14.595Z</time></trkpt><trkpt lat="43.8334933" lon="12.8380367"><ele>142.0</ele><time>2026-04-18T13:25:15.595Z</time></trkpt><trkpt lat="43.8334133" lon="12.8382783"><ele>140.66666666666669</ele><time>2026-04-18T13:25:16.595Z</time></trkpt><trkpt lat="43.8333167" lon="12.8385267"><ele>139.33333333333334</ele><time>2026-04-18T13:25:17.595Z</time></trkpt><trkpt lat="43.8332233" lon="12.8387483"><ele>138.0</ele><time>2026-04-18T13:25:18.595Z</time></trkpt><trkpt lat="43.8331333" lon="12.8389683"><ele>138.0</ele><time>2026-04-18T13:25:19.595Z</time></trkpt><trkpt lat="43.8330533" lon="12.8391783"><ele>138.0</ele><time>2026-04-18T13:25:20.595Z</time></trkpt><trkpt lat="43.8329683" lon="12.8393933"><ele>138.0</ele><time>2026-04-18T13:25:21.595Z</time></trkpt><trkpt lat="43.8328883" lon="12.8395917"><ele>137.33333333333334</ele><time>2026-04-18T13:25:22.595Z</time></trkpt><trkpt lat="43.832825" lon="12.8398"><ele>136.66666666666669</ele><time>2026-04-18T13:25:23.595Z</time></trkpt><trkpt lat="43.8327833" lon="12.8400117"><ele>136.0</ele><time>2026-04-18T13:25:24.595Z</time></trkpt><trkpt lat="43.8327583" lon="12.84022"><ele>133.66666666666669</ele><time>2026-04-18T13:25:25.595Z</time></trkpt><trkpt lat="43.83275" lon="12.8404567"><ele>131.33333333333334</ele><time>2026-04-18T13:25:26.595Z</time></trkpt><trkpt lat="43.83275" lon="12.840695"><ele>129.0</ele><time>2026-04-18T13:25:27.594Z</time></trkpt><trkpt lat="43.83276" lon="12.8409367"><ele>127.0</ele><time>2026-04-18T13:25:28.595Z</time></trkpt><trkpt lat="43.8327617" lon="12.84119"><ele>125.0</ele><time>2026-04-18T13:25:29.595Z</time></trkpt><trkpt lat="43.8327733" lon="12.84146"><ele>123.0</ele><time>2026-04-18T13:25:30.595Z</time></trkpt><trkpt lat="43.8327867" lon="12.84172"><ele>121.33333333333334</ele><time>2026-04-18T13:25:31.595Z</time></trkpt><trkpt lat="43.8328083" lon="12.8419567"><ele>119.66666666666667</ele><time>2026-04-18T13:25:32.595Z</time></trkpt><trkpt lat="43.8328367" lon="12.8421933"><ele>118.0</ele><time>2026-04-18T13:25:33.595Z</time></trkpt><trkpt lat="43.8328583" lon="12.842445"><ele>116.0</ele><time>2026-04-18T13:25:34.595Z</time></trkpt><trkpt lat="43.8328633" lon="12.842695"><ele>114.0</ele><time>2026-04-18T13:25:35.595Z</time></trkpt><trkpt lat="43.8328533" lon="12.8429383"><ele>112.0</ele><time>2026-04-18T13:25:36.595Z</time></trkpt><trkpt lat="43.8328467" lon="12.84318"><ele>112.0</ele><time>2026-04-18T13:25:37.595Z</time></trkpt><trkpt lat="43.8328517" lon="12.84343"><ele>112.0</ele><time>2026-04-18T13:25:38.595Z</time></trkpt><trkpt lat="43.83288" lon="12.8436833"><ele>112.0</ele><time>2026-04-18T13:25:39.595Z</time></trkpt><trkpt lat="43.8329133" lon="12.8439117"><ele>109.33333333333334</ele><time>2026-04-18T13:25:40.595Z</time></trkpt><trkpt lat="43.8329533" lon="12.8441283"><ele>106.66666666666666</ele><time>2026-04-18T13:25:41.595Z</time></trkpt><trkpt lat="43.8329867" lon="12.8443267"><ele>104.0</ele><time>2026-04-18T13:25:42.595Z</time></trkpt><trkpt lat="43.8330167" lon="12.8445217"><ele>102.5</ele><time>2026-04-18T13:25:43.595Z</time></trkpt><trkpt lat="43.833055" lon="12.8447083"><ele>101.0</ele><time>2026-04-18T13:25:44.595Z</time></trkpt><trkpt lat="43.833095" lon="12.844885"><ele>99.5</ele><time>2026-04-18T13:25:45.595Z</time></trkpt><trkpt lat="43.83313" lon="12.8450517"><ele>98.0</ele><time>2026-04-18T13:25:46.595Z</time></trkpt><trkpt lat="43.8331583" lon="12.8452117"><ele>96.0</ele><time>2026-04-18T13:25:47.595Z</time></trkpt><trkpt lat="43.8331833" lon="12.84538"><ele>94.0</ele><time>2026-04-18T13:25:48.595Z</time></trkpt><trkpt lat="43.8332117" lon="12.845565"><ele>92.0</ele><time>2026-04-18T13:25:49.595Z</time></trkpt><trkpt lat="43.8332367" lon="12.84577"><ele>90.0</ele><time>2026-04-18T13:25:50.595Z</time></trkpt><trkpt lat="43.8332567" lon="12.845995"><ele>87.66666666666667</ele><time>2026-04-18T13:25:51.595Z</time></trkpt><trkpt lat="43.8332833" lon="12.8462317"><ele>85.33333333333334</ele><time>2026-04-18T13:25:52.595Z</time></trkpt><trkpt lat="43.8333083" lon="12.84648"><ele>83.0</ele><time>2026-04-18T13:25:53.595Z</time></trkpt><trkpt lat="43.8333367" lon="12.8467467"><ele>81.66666666666667</ele><time>2026-04-18T13:25:54.595Z</time></trkpt><trkpt lat="43.8333667" lon="12.8470267"><ele>80.33333333333333</ele><time>2026-04-18T13:25:55.595Z</time></trkpt><trkpt lat="43.8334" lon="12.84732"><ele>79.0</ele><time>2026-04-18T13:25:56.594Z</time></trkpt><trkpt lat="43.8334317" lon="12.8476067"><ele>78.66666666666666</ele><time>2026-04-18T13:25:57.595Z</time></trkpt><trkpt lat="43.8334683" lon="12.8478967"><ele>78.33333333333333</ele><time>2026-04-18T13:25:58.595Z</time></trkpt><trkpt lat="43.833505" lon="12.84819"><ele>78.0</ele><time>2026-04-18T13:25:59.595Z</time></trkpt><trkpt lat="43.8335417" lon="12.84849"><ele>78.0</ele><time>2026-04-18T13:26:00.595Z</time></trkpt><trkpt lat="43.833575" lon="12.8487883"><ele>78.0</ele><time>2026-04-18T13:26:01.595Z</time></trkpt><trkpt lat="43.8336067" lon="12.8490867"><ele>78.0</ele><time>2026-04-18T13:26:02.595Z</time></trkpt><trkpt lat="43.8336367" lon="12.8493833"><ele>78.33333333333333</ele><time>2026-04-18T13:26:03.595Z</time></trkpt><trkpt lat="43.8336683" lon="12.8496767"><ele>78.66666666666666</ele><time>2026-04-18T13:26:04.595Z</time></trkpt><trkpt lat="43.8337" lon="12.849965"><ele>79.0</ele><time>2026-04-18T13:26:05.595Z</time></trkpt><trkpt lat="43.83373" lon="12.8502533"><ele>78.33333333333333</ele><time>2026-04-18T13:26:06.595Z</time></trkpt><trkpt lat="43.8337583" lon="12.85054"><ele>77.66666666666667</ele><time>2026-04-18T13:26:07.595Z</time></trkpt><trkpt lat="43.833785" lon="12.8508183"><ele>77.0</ele><time>2026-04-18T13:26:08.595Z</time></trkpt><trkpt lat="43.8338133" lon="12.8510867"><ele>77.0</ele><time>2026-04-18T13:26:09.595Z</time></trkpt><trkpt lat="43.833845" lon="12.8513617"><ele>77.0</ele><time>2026-04-18T13:26:10.595Z</time></trkpt><trkpt lat="43.8338767" lon="12.8516383"><ele>77.0</ele><time>2026-04-18T13:26:11.595Z</time></trkpt><trkpt lat="43.8339117" lon="12.8519217"><ele>76.66666666666667</ele><time>2026-04-18T13:26:12.595Z</time></trkpt><trkpt lat="43.83395" lon="12.8521967"><ele>76.33333333333333</ele><time>2026-04-18T13:26:13.595Z</time></trkpt><trkpt lat="43.8339767" lon="12.8524633"><ele>76.0</ele><time>2026-04-18T13:26:14.595Z</time></trkpt><trkpt lat="43.834005" lon="12.8527167"><ele>75.66666666666666</ele><time>2026-04-18T13:26:15.595Z</time></trkpt><trkpt lat="43.83402" lon="12.8529517"><ele>75.33333333333333</ele><time>2026-04-18T13:26:16.595Z</time></trkpt><trkpt lat="43.8340333" lon="12.853185"><ele>75.0</ele><time>2026-04-18T13:26:17.595Z</time></trkpt><trkpt lat="43.8340267" lon="12.8534133"><ele>74.5</ele><time>2026-04-18T13:26:18.595Z</time></trkpt><trkpt lat="43.834005" lon="12.8536267"><ele>74.0</ele><time>2026-04-18T13:26:19.595Z</time></trkpt><trkpt lat="43.8339733" lon="12.8538317"><ele>73.5</ele><time>2026-04-18T13:26:20.595Z</time></trkpt><trkpt lat="43.8339483" lon="12.85402"><ele>73.0</ele><time>2026-04-18T13:26:21.595Z</time></trkpt><trkpt lat="43.8339483" lon="12.8542117"><ele>73.33333333333333</ele><time>2026-04-18T13:26:22.595Z</time></trkpt><trkpt lat="43.8339867" lon="12.8544067"><ele>73.66666666666667</ele><time>2026-04-18T13:26:23.595Z</time></trkpt><trkpt lat="43.8340367" lon="12.8546033"><ele>74.0</ele><time>2026-04-18T13:26:24.595Z</time></trkpt><trkpt lat="43.8340867" lon="12.8548233"><ele>74.0</ele><time>2026-04-18T13:26:25.595Z</time></trkpt><trkpt lat="43.8341283" lon="12.8550567"><ele>74.0</ele><time>2026-04-18T13:26:26.594Z</time></trkpt><trkpt lat="43.8341783" lon="12.8553033"><ele>74.0</ele><time>2026-04-18T13:26:27.595Z</time></trkpt><trkpt lat="43.83422" lon="12.8555667"><ele>73.33333333333334</ele><time>2026-04-18T13:26:28.595Z</time></trkpt><trkpt lat="43.8342633" lon="12.8558233"><ele>72.66666666666667</ele><time>2026-04-18T13:26:29.595Z</time></trkpt><trkpt lat="43.8343167" lon="12.85608"><ele>72.0</ele><time>2026-04-18T13:26:30.595Z</time></trkpt><trkpt lat="43.8343783" lon="12.8563367"><ele>71.0</ele><time>2026-04-18T13:26:31.595Z</time></trkpt><trkpt lat="43.8344317" lon="12.85659"><ele>70.0</ele><time>2026-04-18T13:26:32.595Z</time></trkpt><trkpt lat="43.8344683" lon="12.856865"><ele>69.0</ele><time>2026-04-18T13:26:33.595Z</time></trkpt><trkpt lat="43.8344733" lon="12.857145"><ele>69.0</ele><time>2026-04-18T13:26:34.595Z</time></trkpt><trkpt lat="43.8344333" lon="12.857445"><ele>69.0</ele><time>2026-04-18T13:26:35.595Z</time></trkpt><trkpt lat="43.8343817" lon="12.85775"><ele>69.0</ele><time>2026-04-18T13:26:36.595Z</time></trkpt><trkpt lat="43.8343317" lon="12.858065"><ele>68.0</ele><time>2026-04-18T13:26:37.595Z</time></trkpt><trkpt lat="43.8342883" lon="12.858375"><ele>67.0</ele><time>2026-04-18T13:26:38.595Z</time></trkpt><trkpt lat="43.8342333" lon="12.8586883"><ele>67.0</ele><time>2026-04-18T13:26:39.595Z</time></trkpt><trkpt lat="43.83418" lon="12.8589933"><ele>67.0</ele><time>2026-04-18T13:26:40.594Z</time></trkpt><trkpt lat="43.8341317" lon="12.85929"><ele>67.0</ele><time>2026-04-18T13:26:41.595Z</time></trkpt><trkpt lat="43.8340917" lon="12.8596"><ele>67.0</ele><time>2026-04-18T13:26:42.595Z</time></trkpt><trkpt lat="43.83406" lon="12.859905"><ele>67.0</ele><time>2026-04-18T13:26:43.595Z</time></trkpt><trkpt lat="43.8340417" lon="12.8602"><ele>67.0</ele><time>2026-04-18T13:26:44.595Z</time></trkpt><trkpt lat="43.8340183" lon="12.860495"><ele>67.0</ele><time>2026-04-18T13:26:45.595Z</time></trkpt><trkpt lat="43.8340033" lon="12.8607983"><ele>67.0</ele><time>2026-04-18T13:26:46.595Z</time></trkpt><trkpt lat="43.8339983" lon="12.861105"><ele>67.0</ele><time>2026-04-18T13:26:47.595Z</time></trkpt><trkpt lat="43.833995" lon="12.8614033"><ele>67.0</ele><time>2026-04-18T13:26:48.595Z</time></trkpt><trkpt lat="43.834005" lon="12.8617167"><ele>67.0</ele><time>2026-04-18T13:26:49.595Z</time></trkpt><trkpt lat="43.8340083" lon="12.8620167"><ele>67.0</ele><time>2026-04-18T13:26:50.595Z</time></trkpt><trkpt lat="43.834015" lon="12.8623183"><ele>67.0</ele><time>2026-04-18T13:26:51.595Z</time></trkpt><trkpt lat="43.8340133" lon="12.8626167"><ele>67.0</ele><time>2026-04-18T13:26:52.595Z</time></trkpt><trkpt lat="43.83401" lon="12.8629183"><ele>67.0</ele><time>2026-04-18T13:26:53.595Z</time></trkpt><trkpt lat="43.8340017" lon="12.863215"><ele>66.66666666666666</ele><time>2026-04-18T13:26:54.594Z</time></trkpt><trkpt lat="43.83399" lon="12.86352"><ele>66.33333333333333</ele><time>2026-04-18T13:26:55.595Z</time></trkpt><trkpt lat="43.83397" lon="12.8638117"><ele>66.0</ele><time>2026-04-18T13:26:56.595Z</time></trkpt><trkpt lat="43.8339533" lon="12.8640967"><ele>64.66666666666667</ele><time>2026-04-18T13:26:57.595Z</time></trkpt><trkpt lat="43.833935" lon="12.8643617"><ele>63.333333333333336</ele><time>2026-04-18T13:26:58.595Z</time></trkpt><trkpt lat="43.833915" lon="12.8646067"><ele>62.0</ele><time>2026-04-18T13:26:59.595Z</time></trkpt><trkpt lat="43.8338983" lon="12.8648133"><ele>62.0</ele><time>2026-04-18T13:27:00.595Z</time></trkpt><trkpt lat="43.833875" lon="12.8649983"><ele>62.0</ele><time>2026-04-18T13:27:01.595Z</time></trkpt><trkpt lat="43.833865" lon="12.8651717"><ele>62.0</ele><time>2026-04-18T13:27:02.595Z</time></trkpt><trkpt lat="43.8338517" lon="12.8653217"><ele>62.0</ele><time>2026-04-18T13:27:03.595Z</time></trkpt><trkpt lat="43.83384" lon="12.865445"><ele>61.8</ele><time>2026-04-18T13:27:04.595Z</time></trkpt><trkpt lat="43.8338167" lon="12.8655467"><ele>61.6</ele><time>2026-04-18T13:27:05.595Z</time></trkpt><trkpt lat="43.8337667" lon="12.8656367"><ele>61.39999999999999</ele><time>2026-04-18T13:27:06.595Z</time></trkpt><trkpt lat="43.83369" lon="12.8657017"><ele>61.199999999999996</ele><time>2026-04-18T13:27:07.595Z</time></trkpt><trkpt lat="43.8335917" lon="12.865745"><ele>61.0</ele><time>2026-04-18T13:27:08.595Z</time></trkpt><trkpt lat="43.83348" lon="12.8657417"><ele>61.5</ele><time>2026-04-18T13:27:09.595Z</time></trkpt><trkpt lat="43.8333717" lon="12.8656967"><ele>62.0</ele><time>2026-04-18T13:27:10.595Z</time></trkpt><trkpt lat="43.833275" lon="12.8656017"><ele>62.5</ele><time>2026-04-18T13:27:11.595Z</time></trkpt><trkpt lat="43.8331783" lon="12.86548"><ele>63.0</ele><time>2026-04-18T13:27:12.595Z</time></trkpt><trkpt lat="43.833085" lon="12.865335"><ele>63.0</ele><time>2026-04-18T13:27:13.595Z</time></trkpt><trkpt lat="43.8329933" lon="12.8651817"><ele>63.0</ele><time>2026-04-18T13:27:14.594Z</time></trkpt><trkpt lat="43.8328967" lon="12.8650217"><ele>63.0</ele><time>2026-04-18T13:27:15.594Z</time></trkpt><trkpt lat="43.832785" lon="12.8648583"><ele>63.66666666666667</ele><time>2026-04-18T13:27:16.595Z</time></trkpt><trkpt lat="43.8326717" lon="12.8646683"><ele>64.33333333333334</ele><time>2026-04-18T13:27:17.595Z</time></trkpt><trkpt lat="43.8325333" lon="12.8644683"><ele>65.0</ele><time>2026-04-18T13:27:18.595Z</time></trkpt><trkpt lat="43.8324083" lon="12.8642767"><ele>65.66666666666667</ele><time>2026-04-18T13:27:19.595Z</time></trkpt><trkpt lat="43.8322667" lon="12.8640733"><ele>66.33333333333333</ele><time>2026-04-18T13:27:20.595Z</time></trkpt><trkpt lat="43.832125" lon="12.8638583"><ele>67.0</ele><time>2026-04-18T13:27:21.595Z</time></trkpt><trkpt lat="43.8319717" lon="12.86365"><ele>67.33333333333333</ele><time>2026-04-18T13:27:22.595Z</time></trkpt><trkpt lat="43.831815" lon="12.863445"><ele>67.66666666666667</ele><time>2026-04-18T13:27:23.595Z</time></trkpt><trkpt lat="43.8316483" lon="12.8632383"><ele>68.0</ele><time>2026-04-18T13:27:24.595Z</time></trkpt><trkpt lat="43.8314883" lon="12.863035"><ele>69.33333333333334</ele><time>2026-04-18T13:27:25.595Z</time></trkpt><trkpt lat="43.8313283" lon="12.8628333"><ele>70.66666666666667</ele><time>2026-04-18T13:27:26.595Z</time></trkpt><trkpt lat="43.831175" lon="12.8626333"><ele>72.0</ele><time>2026-04-18T13:27:27.595Z</time></trkpt><trkpt lat="43.83102" lon="12.8624467"><ele>72.0</ele><time>2026-04-18T13:27:28.595Z</time></trkpt><trkpt lat="43.8308583" lon="12.86226"><ele>72.0</ele><time>2026-04-18T13:27:29.595Z</time></trkpt><trkpt lat="43.8306983" lon="12.862075"><ele>72.0</ele><time>2026-04-18T13:27:30.595Z</time></trkpt><trkpt lat="43.83054" lon="12.861895"><ele>71.66666666666667</ele><time>2026-04-18T13:27:31.595Z</time></trkpt><trkpt lat="43.8303733" lon="12.86172"><ele>71.33333333333334</ele><time>2026-04-18T13:27:32.595Z</time></trkpt><trkpt lat="43.8302" lon="12.8615433"><ele>71.0</ele><time>2026-04-18T13:27:33.595Z</time></trkpt><trkpt lat="43.8300267" lon="12.8613833"><ele>72.5</ele><time>2026-04-18T13:27:34.595Z</time></trkpt><trkpt lat="43.8296783" lon="12.8610833"><ele>74.0</ele><time>2026-04-18T13:27:36.595Z</time></trkpt><trkpt lat="43.8294917" lon="12.8609483"><ele>76.66666666666667</ele><time>2026-04-18T13:27:37.595Z</time></trkpt><trkpt lat="43.8293" lon="12.8608117"><ele>79.33333333333333</ele><time>2026-04-18T13:27:38.595Z</time></trkpt><trkpt lat="43.829105" lon="12.86068"><ele>82.0</ele><time>2026-04-18T13:27:39.595Z</time></trkpt><trkpt lat="43.8289017" lon="12.8605467"><ele>82.0</ele><time>2026-04-18T13:27:40.595Z</time></trkpt><trkpt lat="43.8286983" lon="12.86042"><ele>82.0</ele><time>2026-04-18T13:27:41.595Z</time></trkpt><trkpt lat="43.8284867" lon="12.8603017"><ele>84.33333333333333</ele><time>2026-04-18T13:27:42.595Z</time></trkpt><trkpt lat="43.8282817" lon="12.8601967"><ele>86.66666666666667</ele><time>2026-04-18T13:27:43.595Z</time></trkpt><trkpt lat="43.828085" lon="12.86008"><ele>89.0</ele><time>2026-04-18T13:27:44.595Z</time></trkpt><trkpt lat="43.8279133" lon="12.85998"><ele>91.33333333333334</ele><time>2026-04-18T13:27:45.595Z</time></trkpt><trkpt lat="43.827755" lon="12.8598783"><ele>93.66666666666667</ele><time>2026-04-18T13:27:46.595Z</time></trkpt><trkpt lat="43.8275983" lon="12.85976"><ele>96.0</ele><time>2026-04-18T13:27:47.595Z</time></trkpt><trkpt lat="43.8274633" lon="12.85961"><ele>97.66666666666666</ele><time>2026-04-18T13:27:48.595Z</time></trkpt><trkpt lat="43.8273467" lon="12.8594183"><ele>99.33333333333333</ele><time>2026-04-18T13:27:49.595Z</time></trkpt><trkpt lat="43.82725" lon="12.8592117"><ele>101.0</ele><time>2026-04-18T13:27:50.595Z</time></trkpt><trkpt lat="43.82718" lon="12.8589983"><ele>102.33333333333333</ele><time>2026-04-18T13:27:51.595Z</time></trkpt><trkpt lat="43.8271217" lon="12.8587617"><ele>103.66666666666666</ele><time>2026-04-18T13:27:52.595Z</time></trkpt><trkpt lat="43.8270833" lon="12.8585367"><ele>105.0</ele><time>2026-04-18T13:27:53.595Z</time></trkpt><trkpt lat="43.8270683" lon="12.8583117"><ele>107.66666666666666</ele><time>2026-04-18T13:27:54.595Z</time></trkpt><trkpt lat="43.8270667" lon="12.8580817"><ele>110.33333333333333</ele><time>2026-04-18T13:27:55.595Z</time></trkpt><trkpt lat="43.8270783" lon="12.8578467"><ele>113.0</ele><time>2026-04-18T13:27:56.595Z</time></trkpt><trkpt lat="43.8271" lon="12.8576033"><ele>113.66666666666666</ele><time>2026-04-18T13:27:57.595Z</time></trkpt><trkpt lat="43.8271083" lon="12.8573583"><ele>114.33333333333334</ele><time>2026-04-18T13:27:58.595Z</time></trkpt><trkpt lat="43.8270883" lon="12.8571217"><ele>115.0</ele><time>2026-04-18T13:27:59.595Z</time></trkpt><trkpt lat="43.8270433" lon="12.8568933"><ele>115.33333333333334</ele><time>2026-04-18T13:28:00.595Z</time></trkpt><trkpt lat="43.8269667" lon="12.8566683"><ele>115.66666666666666</ele><time>2026-04-18T13:28:01.595Z</time></trkpt><trkpt lat="43.826865" lon="12.85646"><ele>116.0</ele><time>2026-04-18T13:28:02.595Z</time></trkpt><trkpt lat="43.8267483" lon="12.85627"><ele>119.66666666666666</ele><time>2026-04-18T13:28:03.595Z</time></trkpt><trkpt lat="43.8265983" lon="12.8561017"><ele>123.33333333333334</ele><time>2026-04-18T13:28:04.595Z</time></trkpt><trkpt lat="43.8264567" lon="12.8559583"><ele>127.0</ele><time>2026-04-18T13:28:05.595Z</time></trkpt><trkpt lat="43.8263083" lon="12.85581"><ele>128.33333333333334</ele><time>2026-04-18T13:28:06.595Z</time></trkpt><trkpt lat="43.82615" lon="12.8556883"><ele>129.66666666666666</ele><time>2026-04-18T13:28:07.595Z</time></trkpt><trkpt lat="43.825995" lon="12.8555333"><ele>131.0</ele><time>2026-04-18T13:28:08.595Z</time></trkpt><trkpt lat="43.8258467" lon="12.8553467"><ele>131.0</ele><time>2026-04-18T13:28:09.595Z</time></trkpt><trkpt lat="43.8257083" lon="12.8551367"><ele>131.0</ele><time>2026-04-18T13:28:10.595Z</time></trkpt><trkpt lat="43.8255867" lon="12.8549217"><ele>131.0</ele><time>2026-04-18T13:28:11.595Z</time></trkpt><trkpt lat="43.8254617" lon="12.854695"><ele>132.33333333333331</ele><time>2026-04-18T13:28:12.595Z</time></trkpt><trkpt lat="43.825335" lon="12.8544867"><ele>133.66666666666666</ele><time>2026-04-18T13:28:13.595Z</time></trkpt><trkpt lat="43.825215" lon="12.8542683"><ele>135.0</ele><time>2026-04-18T13:28:14.595Z</time></trkpt><trkpt lat="43.8250983" lon="12.8540433"><ele>137.0</ele><time>2026-04-18T13:28:15.595Z</time></trkpt><trkpt lat="43.8249833" lon="12.8538133"><ele>139.0</ele><time>2026-04-18T13:28:16.595Z</time></trkpt><trkpt lat="43.824865" lon="12.8536117"><ele>141.0</ele><time>2026-04-18T13:28:17.595Z</time></trkpt><trkpt lat="43.8247233" lon="12.853415"><ele>142.0</ele><time>2026-04-18T13:28:18.595Z</time></trkpt><trkpt lat="43.8245733" lon="12.853235"><ele>143.0</ele><time>2026-04-18T13:28:19.595Z</time></trkpt><trkpt lat="43.8244133" lon="12.8530583"><ele>144.0</ele><time>2026-04-18T13:28:20.594Z</time></trkpt><trkpt lat="43.8242433" lon="12.85288"><ele>144.0</ele><time>2026-04-18T13:28:21.595Z</time></trkpt><trkpt lat="43.8240617" lon="12.8526767"><ele>144.0</ele><time>2026-04-18T13:28:22.595Z</time></trkpt><trkpt lat="43.8238817" lon="12.8524333"><ele>150.0</ele><time>2026-04-18T13:28:23.594Z</time></trkpt><trkpt lat="43.8236883" lon="12.8521833"><ele>156.0</ele><time>2026-04-18T13:28:24.595Z</time></trkpt><trkpt lat="43.8234867" lon="12.8519167"><ele>158.5</ele><time>2026-04-18T13:28:25.595Z</time></trkpt><trkpt lat="43.8232917" lon="12.85165"><ele>161.0</ele><time>2026-04-18T13:28:26.595Z</time></trkpt><trkpt lat="43.8231167" lon="12.8514"><ele>161.0</ele><time>2026-04-18T13:28:27.595Z</time></trkpt><trkpt lat="43.82296" lon="12.85118"><ele>161.0</ele><time>2026-04-18T13:28:28.595Z</time></trkpt><trkpt lat="43.82283" lon="12.8509817"><ele>161.0</ele><time>2026-04-18T13:28:29.595Z</time></trkpt><trkpt lat="43.822715" lon="12.85081"><ele>162.5</ele><time>2026-04-18T13:28:30.595Z</time></trkpt><trkpt lat="43.8226083" lon="12.85067"><ele>164.0</ele><time>2026-04-18T13:28:31.595Z</time></trkpt><trkpt lat="43.8224867" lon="12.8505717"><ele>165.5</ele><time>2026-04-18T13:28:32.595Z</time></trkpt><trkpt lat="43.822345" lon="12.85052"><ele>167.0</ele><time>2026-04-18T13:28:33.595Z</time></trkpt><trkpt lat="43.82218" lon="12.8505067"><ele>167.0</ele><time>2026-04-18T13:28:34.595Z</time></trkpt><trkpt lat="43.8220017" lon="12.850495"><ele>167.0</ele><time>2026-04-18T13:28:35.595Z</time></trkpt><trkpt lat="43.8218283" lon="12.8504033"><ele>167.0</ele><time>2026-04-18T13:28:36.595Z</time></trkpt><trkpt lat="43.8216783" lon="12.8502667"><ele>169.33333333333331</ele><time>2026-04-18T13:28:37.595Z</time></trkpt><trkpt lat="43.8215383" lon="12.8500533"><ele>171.66666666666666</ele><time>2026-04-18T13:28:38.594Z</time></trkpt><trkpt lat="43.8213817" lon="12.8498067"><ele>174.0</ele><time>2026-04-18T13:28:39.594Z</time></trkpt><trkpt lat="43.821225" lon="12.8495217"><ele>175.0</ele><time>2026-04-18T13:28:40.594Z</time></trkpt><trkpt lat="43.8210683" lon="12.8492367"><ele>176.0</ele><time>2026-04-18T13:28:41.594Z</time></trkpt><trkpt lat="43.8209217" lon="12.848975"><ele>176.0</ele><time>2026-04-18T13:28:42.594Z</time></trkpt><trkpt lat="43.8207867" lon="12.8487317"><ele>176.0</ele><time>2026-04-18T13:28:43.594Z</time></trkpt><trkpt lat="43.8206467" lon="12.848525"><ele>176.0</ele><time>2026-04-18T13:28:44.594Z</time></trkpt><trkpt lat="43.8205033" lon="12.84835"><ele>175.33333333333331</ele><time>2026-04-18T13:28:45.594Z</time></trkpt><trkpt lat="43.8203467" lon="12.84822"><ele>174.66666666666666</ele><time>2026-04-18T13:28:46.594Z</time></trkpt><trkpt lat="43.8201617" lon="12.8481367"><ele>174.0</ele><time>2026-04-18T13:28:47.594Z</time></trkpt><trkpt lat="43.8199367" lon="12.8480717"><ele>174.0</ele><time>2026-04-18T13:28:48.594Z</time></trkpt><trkpt lat="43.8196983" lon="12.8480167"><ele>174.0</ele><time>2026-04-18T13:28:49.594Z</time></trkpt><trkpt lat="43.8194283" lon="12.8479483"><ele>170.5</ele><time>2026-04-18T13:28:50.594Z</time></trkpt><trkpt lat="43.8191583" lon="12.8478717"><ele>167.0</ele><time>2026-04-18T13:28:51.594Z</time></trkpt><trkpt lat="43.8188983" lon="12.8477833"><ele>167.0</ele><time>2026-04-18T13:28:52.594Z</time></trkpt><trkpt lat="43.8186583" lon="12.8476817"><ele>167.0</ele><time>2026-04-18T13:28:53.594Z</time></trkpt><trkpt lat="43.81844" lon="12.8475717"><ele>168.66666666666666</ele><time>2026-04-18T13:28:54.594Z</time></trkpt><trkpt lat="43.81822" lon="12.8474783"><ele>170.33333333333334</ele><time>2026-04-18T13:28:55.594Z</time></trkpt><trkpt lat="43.8180133" lon="12.8474017"><ele>172.0</ele><time>2026-04-18T13:28:56.594Z</time></trkpt><trkpt lat="43.81783" lon="12.847365"><ele>172.0</ele><time>2026-04-18T13:28:57.594Z</time></trkpt><trkpt lat="43.8176667" lon="12.84736"><ele>172.0</ele><time>2026-04-18T13:28:58.594Z</time></trkpt><trkpt lat="43.817525" lon="12.847395"><ele>172.0</ele><time>2026-04-18T13:28:59.594Z</time></trkpt><trkpt lat="43.8173833" lon="12.84745"><ele>173.33333333333334</ele><time>2026-04-18T13:29:00.594Z</time></trkpt><trkpt lat="43.817255" lon="12.8475533"><ele>174.66666666666666</ele><time>2026-04-18T13:29:01.594Z</time></trkpt><trkpt lat="43.8171383" lon="12.8477"><ele>176.0</ele><time>2026-04-18T13:29:02.594Z</time></trkpt><trkpt lat="43.81704" lon="12.8478583"><ele>177.60000000000002</ele><time>2026-04-18T13:29:03.594Z</time></trkpt><trkpt lat="43.8169517" lon="12.8479933"><ele>179.2</ele><time>2026-04-18T13:29:04.594Z</time></trkpt><trkpt lat="43.8168683" lon="12.8481067"><ele>180.8</ele><time>2026-04-18T13:29:05.594Z</time></trkpt><trkpt lat="43.816795" lon="12.8482"><ele>182.39999999999998</ele><time>2026-04-18T13:29:06.594Z</time></trkpt><trkpt lat="43.8167383" lon="12.8482733"><ele>184.0</ele><time>2026-04-18T13:29:07.594Z</time></trkpt><trkpt lat="43.8166633" lon="12.8483583"><ele>184.0</ele><time>2026-04-18T13:29:09.594Z</time></trkpt><trkpt lat="43.8166433" lon="12.84847"><ele>177.0</ele><time>2026-04-18T13:29:12.594Z</time></trkpt><trkpt lat="43.816675" lon="12.84859"><ele>177.0</ele><time>2026-04-18T13:29:14.594Z</time></trkpt><trkpt lat="43.8167217" lon="12.8486867"><ele>177.0</ele><time>2026-04-18T13:29:17.594Z</time></trkpt></trkseg></trk></gpx>